<?xml version='1.0' encoding='UTF-8'?><gpx version="1.1" creator="JPX - https://github.com/jenetics/jpx" xmlns="http://www.topografix.com/GPX/1/1"><trk><trkseg><trkpt lat="44.86374412811982" lon="9.660151279467788"><ele>373.0</ele><time>2026-05-03T07:12:15Z</time></trkpt><trkpt lat="44.86369483831333" lon="9.660216359295456"><ele>373.0</ele><time>2026-05-03T07:12:23Z</time></trkpt><trkpt lat="44.86362083081511" lon="9.660213404049745"><ele>373.0</ele><time>2026-05-03T07:14:38Z</time></trkpt><trkpt lat="44.86362170452844" lon="9.660302586368367"><ele>373.0</ele><time>2026-05-03T07:14:42Z</time></trkpt><trkpt lat="44.863693415292836" lon="9.660254692747161"><ele>373.0</ele><time>2026-05-03T07:14:44.999Z</time></trkpt><trkpt lat="44.863740036199104" lon="9.660146697261013"><ele>373.0</ele><time>2026-05-03T07:14:47.999Z</time></trkpt><trkpt lat="44.863796499872386" lon="9.660101147056427"><ele>373.0</ele><time>2026-05-03T07:15:15.999Z</time></trkpt><trkpt lat="44.86390208434982" lon="9.660042607181976"><ele>373.0</ele><time>2026-05-03T07:15:17.999Z</time></trkpt><trkpt lat="44.86398804669286" lon="9.66004445097193"><ele>373.0</ele><time>2026-05-03T07:15:18.999Z</time></trkpt><trkpt lat="44.86408927886655" lon="9.660036971088095"><ele>373.0</ele><time>2026-05-03T07:15:20.999Z</time></trkpt><trkpt lat="44.86420012569509" lon="9.659987234737786"><ele>373.0</ele><time>2026-05-03T07:15:22.999Z</time></trkpt><trkpt lat="44.86425241433211" lon="9.65992203523346"><ele>373.0</ele><time>2026-05-03T07:15:23.999Z</time></trkpt><trkpt lat="44.864294340957024" lon="9.659844579994601"><ele>373.0</ele><time>2026-05-03T07:15:24.999Z</time></trkpt><trkpt lat="44.86435411675074" lon="9.65973406781309"><ele>370.8333333333333</ele><time>2026-05-03T07:15:26.999Z</time></trkpt><trkpt lat="44.864402978354875" lon="9.65964366888699"><ele>368.66666666666663</ele><time>2026-05-03T07:15:28.999Z</time></trkpt><trkpt lat="44.864443373347974" lon="9.659549415705689"><ele>366.5</ele><time>2026-05-03T07:15:30.999Z</time></trkpt><trkpt lat="44.864483983155495" lon="9.659454038460202"><ele>364.3333333333333</ele><time>2026-05-03T07:15:32.999Z</time></trkpt><trkpt lat="44.864541397685684" lon="9.659355241483194"><ele>362.1666666666667</ele><time>2026-05-03T07:15:34.999Z</time></trkpt><trkpt lat="44.86459981482244" lon="9.659275005508958"><ele>360.0</ele><time>2026-05-03T07:15:36.998Z</time></trkpt><trkpt lat="44.86462276789065" lon="9.659141329329337"><ele>360.0</ele><time>2026-05-03T07:20:19.998Z</time></trkpt><trkpt lat="44.86458862544848" lon="9.659037871681306"><ele>360.0</ele><time>2026-05-03T07:20:20.998Z</time></trkpt><trkpt lat="44.86455502346728" lon="9.658945554556757"><ele>360.0</ele><time>2026-05-03T07:20:21.998Z</time></trkpt><trkpt lat="44.86449077028802" lon="9.658824331095376"><ele>360.0</ele><time>2026-05-03T07:20:23.998Z</time></trkpt><trkpt lat="44.86438986707832" lon="9.658765951235628"><ele>360.0</ele><time>2026-05-03T07:20:25.998Z</time></trkpt><trkpt lat="44.864324112378064" lon="9.658744920124704"><ele>360.0</ele><time>2026-05-03T07:20:26.998Z</time></trkpt><trkpt lat="44.864226933830274" lon="9.658706823956432"><ele>359.4</ele><time>2026-05-03T07:20:27.998Z</time></trkpt><trkpt lat="44.864124510234824" lon="9.658659749442371"><ele>358.8</ele><time>2026-05-03T07:20:28.998Z</time></trkpt><trkpt lat="44.86403124306508" lon="9.658630861170165"><ele>358.20000000000005</ele><time>2026-05-03T07:20:30Z</time></trkpt><trkpt lat="44.863955296054165" lon="9.658598599542753"><ele>357.6</ele><time>2026-05-03T07:20:31Z</time></trkpt><trkpt lat="44.86387996505564" lon="9.658566779701339"><ele>357.0</ele><time>2026-05-03T07:20:32Z</time></trkpt><trkpt lat="44.86378744215287" lon="9.658529170228864"><ele>357.0</ele><time>2026-05-03T07:20:33Z</time></trkpt><trkpt lat="44.86369681824119" lon="9.658503931612403"><ele>357.0</ele><time>2026-05-03T07:20:34Z</time></trkpt><trkpt lat="44.86361863936216" lon="9.658473577231769"><ele>357.0</ele><time>2026-05-03T07:20:35Z</time></trkpt><trkpt lat="44.863540117701994" lon="9.658438172503844"><ele>357.0</ele><time>2026-05-03T07:20:36Z</time></trkpt><trkpt lat="44.863460609769" lon="9.65840535560014"><ele>357.0</ele><time>2026-05-03T07:20:37Z</time></trkpt><trkpt lat="44.86339694443854" lon="9.658367886285724"><ele>357.0</ele><time>2026-05-03T07:20:38Z</time></trkpt><trkpt lat="44.86333748276797" lon="9.65832851790494"><ele>357.6</ele><time>2026-05-03T07:20:39Z</time></trkpt><trkpt lat="44.86326942446718" lon="9.658217476983518"><ele>358.20000000000005</ele><time>2026-05-03T07:20:41Z</time></trkpt><trkpt lat="44.863213892055256" lon="9.658046973319905"><ele>358.8</ele><time>2026-05-03T07:20:43Z</time></trkpt><trkpt lat="44.86320377508647" lon="9.657957195684109"><ele>359.4</ele><time>2026-05-03T07:20:44Z</time></trkpt><trkpt lat="44.86319588876711" lon="9.657829443107191"><ele>360.0</ele><time>2026-05-03T07:20:46Z</time></trkpt><trkpt lat="44.86310587246221" lon="9.657800382893582"><ele>359.0</ele><time>2026-05-03T07:20:48Z</time></trkpt><trkpt lat="44.863123341725334" lon="9.657685275060935"><ele>358.0</ele><time>2026-05-03T07:20:51Z</time></trkpt><trkpt lat="44.86305217103926" lon="9.657571735732553"><ele>357.0</ele><time>2026-05-03T07:20:53Z</time></trkpt><trkpt lat="44.86302079997285" lon="9.657437073181859"><ele>356.0</ele><time>2026-05-03T07:20:55Z</time></trkpt><trkpt lat="44.86310003919431" lon="9.657354277646668"><ele>355.0</ele><time>2026-05-03T07:20:57Z</time></trkpt><trkpt lat="44.86316690348204" lon="9.65734340363043"><ele>355.0</ele><time>2026-05-03T07:20:58Z</time></trkpt><trkpt lat="44.863226759675136" lon="9.657314410740279"><ele>355.0</ele><time>2026-05-03T07:20:59Z</time></trkpt><trkpt lat="44.86331390366417" lon="9.65727047343884"><ele>355.0</ele><time>2026-05-03T07:21:00Z</time></trkpt><trkpt lat="44.8634006236777" lon="9.657230943080855"><ele>355.0</ele><time>2026-05-03T07:21:01Z</time></trkpt><trkpt lat="44.863490761022064" lon="9.657175900682049"><ele>355.0</ele><time>2026-05-03T07:21:02Z</time></trkpt><trkpt lat="44.863565356386886" lon="9.657082611485896"><ele>355.0</ele><time>2026-05-03T07:21:03Z</time></trkpt><trkpt lat="44.86364204285855" lon="9.656968340245928"><ele>354.0</ele><time>2026-05-03T07:21:04Z</time></trkpt><trkpt lat="44.86371090188209" lon="9.656842233786959"><ele>353.0</ele><time>2026-05-03T07:21:05Z</time></trkpt><trkpt lat="44.863793847628564" lon="9.656749317969819"><ele>352.0</ele><time>2026-05-03T07:21:06Z</time></trkpt><trkpt lat="44.86385500349905" lon="9.656669613019126"><ele>351.0</ele><time>2026-05-03T07:21:07Z</time></trkpt><trkpt lat="44.8637887195625" lon="9.656626045187354"><ele>350.0</ele><time>2026-05-03T07:21:12.999Z</time></trkpt><trkpt lat="44.86372311698429" lon="9.6566798888249"><ele>350.0</ele><time>2026-05-03T07:21:13.999Z</time></trkpt><trkpt lat="44.86363592733832" lon="9.656722285034709"><ele>350.0</ele><time>2026-05-03T07:21:15.999Z</time></trkpt><trkpt lat="44.86354233579993" lon="9.65675788313665"><ele>350.0</ele><time>2026-05-03T07:21:17.999Z</time></trkpt><trkpt lat="44.86348145454055" lon="9.656785712778735"><ele>350.0</ele><time>2026-05-03T07:21:18.999Z</time></trkpt><trkpt lat="44.86337398859655" lon="9.656817950137238"><ele>350.0</ele><time>2026-05-03T07:21:20.999Z</time></trkpt><trkpt lat="44.86327650285941" lon="9.656852614447454"><ele>350.6666666666667</ele><time>2026-05-03T07:21:22.999Z</time></trkpt><trkpt lat="44.86315764899636" lon="9.656902412203312"><ele>351.33333333333337</ele><time>2026-05-03T07:21:24.999Z</time></trkpt><trkpt lat="44.86309451415989" lon="9.656936569556555"><ele>352.0</ele><time>2026-05-03T07:21:25.999Z</time></trkpt><trkpt lat="44.863025129706834" lon="9.656958071447361"><ele>352.6666666666667</ele><time>2026-05-03T07:21:26.999Z</time></trkpt><trkpt lat="44.86295932271467" lon="9.656970300987599"><ele>353.3333333333333</ele><time>2026-05-03T07:21:27.999Z</time></trkpt><trkpt lat="44.862884816187375" lon="9.656986833268428"><ele>354.0</ele><time>2026-05-03T07:21:28.999Z</time></trkpt><trkpt lat="44.86279618447829" lon="9.657000615039971"><ele>354.2</ele><time>2026-05-03T07:21:29.999Z</time></trkpt><trkpt lat="44.86270387314388" lon="9.65699407396192"><ele>354.4</ele><time>2026-05-03T07:21:30.999Z</time></trkpt><trkpt lat="44.862614971920586" lon="9.656963589296806"><ele>354.6</ele><time>2026-05-03T07:21:31.999Z</time></trkpt><trkpt lat="44.862528716181174" lon="9.656928690826152"><ele>354.8</ele><time>2026-05-03T07:21:32.999Z</time></trkpt><trkpt lat="44.86244520380102" lon="9.656897969040102"><ele>355.0</ele><time>2026-05-03T07:21:33.999Z</time></trkpt><trkpt lat="44.86235390456433" lon="9.656883196993597"><ele>355.0</ele><time>2026-05-03T07:21:34.999Z</time></trkpt><trkpt lat="44.862259353136835" lon="9.656890079261062"><ele>355.0</ele><time>2026-05-03T07:21:35.999Z</time></trkpt><trkpt lat="44.86216620590955" lon="9.65689153713263"><ele>355.0</ele><time>2026-05-03T07:21:36.999Z</time></trkpt><trkpt lat="44.8620718629853" lon="9.656899988521259"><ele>355.0</ele><time>2026-05-03T07:21:37.999Z</time></trkpt><trkpt lat="44.86197766248957" lon="9.656905445289318"><ele>355.0</ele><time>2026-05-03T07:21:38.999Z</time></trkpt><trkpt lat="44.861875358207556" lon="9.656917058864801"><ele>355.2</ele><time>2026-05-03T07:21:39.999Z</time></trkpt><trkpt lat="44.86176271243615" lon="9.656941876900838"><ele>355.4</ele><time>2026-05-03T07:21:40.999Z</time></trkpt><trkpt lat="44.86166820838909" lon="9.656979714282839"><ele>355.6</ele><time>2026-05-03T07:21:41.999Z</time></trkpt><trkpt lat="44.86159232753681" lon="9.6570434016741"><ele>355.8</ele><time>2026-05-03T07:21:42.999Z</time></trkpt><trkpt lat="44.861512705961566" lon="9.657111498401994"><ele>356.0</ele><time>2026-05-03T07:21:43.999Z</time></trkpt><trkpt lat="44.86143569444184" lon="9.657194350258779"><ele>358.4</ele><time>2026-05-03T07:21:44.999Z</time></trkpt><trkpt lat="44.86136105568034" lon="9.657285152913916"><ele>360.8</ele><time>2026-05-03T07:21:45.999Z</time></trkpt><trkpt lat="44.86128930979411" lon="9.657380176405363"><ele>363.2</ele><time>2026-05-03T07:21:46.999Z</time></trkpt><trkpt lat="44.86121581887566" lon="9.65747678110965"><ele>365.59999999999997</ele><time>2026-05-03T07:21:47.999Z</time></trkpt><trkpt lat="44.86114839759526" lon="9.657573097996437"><ele>368.0</ele><time>2026-05-03T07:21:48.999Z</time></trkpt><trkpt lat="44.86108846749447" lon="9.65766880908346"><ele>368.0</ele><time>2026-05-03T07:21:49.999Z</time></trkpt><trkpt lat="44.86103105134339" lon="9.657763227322137"><ele>368.0</ele><time>2026-05-03T07:21:50.999Z</time></trkpt><trkpt lat="44.86096805478517" lon="9.657858295483074"><ele>368.0</ele><time>2026-05-03T07:21:51.999Z</time></trkpt><trkpt lat="44.86091472085181" lon="9.657959692663677"><ele>368.0</ele><time>2026-05-03T07:21:52.999Z</time></trkpt><trkpt lat="44.860866760450094" lon="9.65807211010639"><ele>368.0</ele><time>2026-05-03T07:21:53.999Z</time></trkpt><trkpt lat="44.86082457500577" lon="9.658199937986547"><ele>370.4</ele><time>2026-05-03T07:21:54.999Z</time></trkpt><trkpt lat="44.86078661270384" lon="9.658341444014937"><ele>372.79999999999995</ele><time>2026-05-03T07:21:55.999Z</time></trkpt><trkpt lat="44.860759388563096" lon="9.658489462179226"><ele>375.2</ele><time>2026-05-03T07:21:56.999Z</time></trkpt><trkpt lat="44.860741560479696" lon="9.658632062514178"><ele>377.6</ele><time>2026-05-03T07:21:57.999Z</time></trkpt><trkpt lat="44.86073183764506" lon="9.65877390088528"><ele>380.0</ele><time>2026-05-03T07:21:58.999Z</time></trkpt><trkpt lat="44.86072976891117" lon="9.658908471192863"><ele>380.33333333333337</ele><time>2026-05-03T07:21:59.999Z</time></trkpt><trkpt lat="44.860735217995725" lon="9.659039394046475"><ele>380.6666666666667</ele><time>2026-05-03T07:22:00.999Z</time></trkpt><trkpt lat="44.86073712073558" lon="9.659164038864557"><ele>381.0</ele><time>2026-05-03T07:22:01.999Z</time></trkpt><trkpt lat="44.860728745044746" lon="9.659280885095495"><ele>381.3333333333333</ele><time>2026-05-03T07:22:02.998Z</time></trkpt><trkpt lat="44.86071007645136" lon="9.659393442967833"><ele>381.66666666666663</ele><time>2026-05-03T07:22:03.998Z</time></trkpt><trkpt lat="44.86067838468472" lon="9.659490544798908"><ele>382.0</ele><time>2026-05-03T07:22:04.998Z</time></trkpt><trkpt lat="44.86063370450727" lon="9.65956320802612"><ele>382.0</ele><time>2026-05-03T07:22:05.998Z</time></trkpt><trkpt lat="44.860586222977176" lon="9.659621913797382"><ele>382.0</ele><time>2026-05-03T07:22:06.998Z</time></trkpt><trkpt lat="44.86051754149583" lon="9.659682662064922"><ele>382.0</ele><time>2026-05-03T07:22:07.998Z</time></trkpt><trkpt lat="44.86043740506557" lon="9.659726087832203"><ele>382.0</ele><time>2026-05-03T07:22:08.998Z</time></trkpt><trkpt lat="44.860353440980504" lon="9.659769131696503"><ele>382.0</ele><time>2026-05-03T07:22:09.998Z</time></trkpt><trkpt lat="44.86026737253107" lon="9.659815908111858"><ele>382.0</ele><time>2026-05-03T07:22:10.998Z</time></trkpt><trkpt lat="44.86017840931571" lon="9.659882717693094"><ele>381.8</ele><time>2026-05-03T07:22:11.998Z</time></trkpt><trkpt lat="44.86010041646419" lon="9.659972225488527"><ele>381.6</ele><time>2026-05-03T07:22:12.998Z</time></trkpt><trkpt lat="44.860022945371945" lon="9.660081126597202"><ele>381.40000000000003</ele><time>2026-05-03T07:22:13.998Z</time></trkpt><trkpt lat="44.8599399966497" lon="9.66020393051436"><ele>381.20000000000005</ele><time>2026-05-03T07:22:14.998Z</time></trkpt><trkpt lat="44.85985489463388" lon="9.660320967631664"><ele>381.0</ele><time>2026-05-03T07:22:15.998Z</time></trkpt><trkpt lat="44.85976167597556" lon="9.660421976953826"><ele>383.4</ele><time>2026-05-03T07:22:16.998Z</time></trkpt><trkpt lat="44.85966589636197" lon="9.660498661299535"><ele>385.8</ele><time>2026-05-03T07:22:17.998Z</time></trkpt><trkpt lat="44.85957565301813" lon="9.660574755731261"><ele>388.2</ele><time>2026-05-03T07:22:18.998Z</time></trkpt><trkpt lat="44.8594900078592" lon="9.660653935825234"><ele>390.59999999999997</ele><time>2026-05-03T07:22:19.998Z</time></trkpt><trkpt lat="44.85940830572294" lon="9.660734673710992"><ele>393.0</ele><time>2026-05-03T07:22:20.998Z</time></trkpt><trkpt lat="44.85932252114391" lon="9.660828280113504"><ele>391.5</ele><time>2026-05-03T07:22:21.998Z</time></trkpt><trkpt lat="44.85923427460608" lon="9.660924112688537"><ele>390.0</ele><time>2026-05-03T07:22:22.998Z</time></trkpt><trkpt lat="44.859140401499104" lon="9.66101785313606"><ele>388.5</ele><time>2026-05-03T07:22:23.998Z</time></trkpt><trkpt lat="44.85904379506611" lon="9.661105975746077"><ele>387.0</ele><time>2026-05-03T07:22:24.998Z</time></trkpt><trkpt lat="44.85893765241826" lon="9.661173328502894"><ele>389.40000000000003</ele><time>2026-05-03T07:22:25.998Z</time></trkpt><trkpt lat="44.858830328289066" lon="9.66122482190138"><ele>391.8</ele><time>2026-05-03T07:22:26.998Z</time></trkpt><trkpt lat="44.85872320085987" lon="9.6612741554469"><ele>394.2</ele><time>2026-05-03T07:22:27.998Z</time></trkpt><trkpt lat="44.85862128174198" lon="9.661329403986604"><ele>396.6</ele><time>2026-05-03T07:22:28.998Z</time></trkpt><trkpt lat="44.85854165942759" lon="9.661384637315763"><ele>399.0</ele><time>2026-05-03T07:22:29.998Z</time></trkpt><trkpt lat="44.85846093461793" lon="9.661425736765493"><ele>397.0</ele><time>2026-05-03T07:22:30.998Z</time></trkpt><trkpt lat="44.858366800721384" lon="9.66140989188026"><ele>395.0</ele><time>2026-05-03T07:22:31.998Z</time></trkpt><trkpt lat="44.85827916427538" lon="9.661341386669397"><ele>393.0</ele><time>2026-05-03T07:22:32.998Z</time></trkpt><trkpt lat="44.858201062732626" lon="9.661266816146783"><ele>391.0</ele><time>2026-05-03T07:22:33.998Z</time></trkpt><trkpt lat="44.85812353963619" lon="9.661214208515554"><ele>389.0</ele><time>2026-05-03T07:22:34.998Z</time></trkpt><trkpt lat="44.858033357475556" lon="9.66119703959382"><ele>389.0</ele><time>2026-05-03T07:22:36Z</time></trkpt><trkpt lat="44.85792333365707" lon="9.661238941816425"><ele>389.0</ele><time>2026-05-03T07:22:37Z</time></trkpt><trkpt lat="44.85781843365237" lon="9.661336738894274"><ele>389.0</ele><time>2026-05-03T07:22:38Z</time></trkpt><trkpt lat="44.857712494940756" lon="9.661428791698112"><ele>389.0</ele><time>2026-05-03T07:22:39Z</time></trkpt><trkpt lat="44.85760230114175" lon="9.661513022822463"><ele>385.25</ele><time>2026-05-03T07:22:40Z</time></trkpt><trkpt lat="44.857489436114726" lon="9.661595323651659"><ele>381.5</ele><time>2026-05-03T07:22:41Z</time></trkpt><trkpt lat="44.857377239334866" lon="9.661673258378686"><ele>377.75</ele><time>2026-05-03T07:22:42Z</time></trkpt><trkpt lat="44.85727628490385" lon="9.661734705986659"><ele>374.0</ele><time>2026-05-03T07:22:43Z</time></trkpt><trkpt lat="44.85718229056325" lon="9.661782219292833"><ele>374.0</ele><time>2026-05-03T07:22:44Z</time></trkpt><trkpt lat="44.857087314533516" lon="9.66181888180002"><ele>374.0</ele><time>2026-05-03T07:22:45Z</time></trkpt><trkpt lat="44.8569959590632" lon="9.661838596117615"><ele>374.0</ele><time>2026-05-03T07:22:46Z</time></trkpt><trkpt lat="44.856912936051216" lon="9.661841598054348"><ele>374.0</ele><time>2026-05-03T07:22:47Z</time></trkpt><trkpt lat="44.85683714144245" lon="9.661837025718604"><ele>374.0</ele><time>2026-05-03T07:22:48Z</time></trkpt><trkpt lat="44.856773507317946" lon="9.661831189380182"><ele>374.0</ele><time>2026-05-03T07:22:49Z</time></trkpt><trkpt lat="44.85668129095491" lon="9.661814121212355"><ele>373.6</ele><time>2026-05-03T07:22:51Z</time></trkpt><trkpt lat="44.8565470970391" lon="9.661797005523121"><ele>373.2</ele><time>2026-05-03T07:22:53Z</time></trkpt><trkpt lat="44.85645335613665" lon="9.661819174266652"><ele>372.8</ele><time>2026-05-03T07:22:54Z</time></trkpt><trkpt lat="44.8563604486354" lon="9.661845235115576"><ele>372.40000000000003</ele><time>2026-05-03T07:22:55Z</time></trkpt><trkpt lat="44.856267271946365" lon="9.66185975875032"><ele>372.0</ele><time>2026-05-03T07:22:56Z</time></trkpt><trkpt lat="44.856166205058976" lon="9.661870474205"><ele>372.0</ele><time>2026-05-03T07:22:57Z</time></trkpt><trkpt lat="44.85605835133127" lon="9.66188376325302"><ele>372.0</ele><time>2026-05-03T07:22:58Z</time></trkpt><trkpt lat="44.85593985013814" lon="9.661900217825803"><ele>372.0</ele><time>2026-05-03T07:22:59Z</time></trkpt><trkpt lat="44.855833032984506" lon="9.661915883487874"><ele>372.0</ele><time>2026-05-03T07:23:00Z</time></trkpt><trkpt lat="44.855716798304044" lon="9.661932915230306"><ele>373.25</ele><time>2026-05-03T07:23:01Z</time></trkpt><trkpt lat="44.85559323997299" lon="9.661948320155876"><ele>374.5</ele><time>2026-05-03T07:23:02Z</time></trkpt><trkpt lat="44.855471767440655" lon="9.661965524552635"><ele>375.75</ele><time>2026-05-03T07:23:03Z</time></trkpt><trkpt lat="44.85535974762523" lon="9.661989511477039"><ele>377.0</ele><time>2026-05-03T07:23:04Z</time></trkpt><trkpt lat="44.85525652391131" lon="9.662009750859236"><ele>377.0</ele><time>2026-05-03T07:23:05Z</time></trkpt><trkpt lat="44.85516803569568" lon="9.662026209728737"><ele>377.0</ele><time>2026-05-03T07:23:06Z</time></trkpt><trkpt lat="44.85507236381487" lon="9.662053903207312"><ele>377.0</ele><time>2026-05-03T07:23:07Z</time></trkpt><trkpt lat="44.85497448298192" lon="9.662093877379991"><ele>377.0</ele><time>2026-05-03T07:23:08Z</time></trkpt><trkpt lat="44.85487923804554" lon="9.662159044909025"><ele>377.0</ele><time>2026-05-03T07:23:08.999Z</time></trkpt><trkpt lat="44.85480884034332" lon="9.662273781556186"><ele>378.40000000000003</ele><time>2026-05-03T07:23:09.999Z</time></trkpt><trkpt lat="44.85477154811757" lon="9.662439105151488"><ele>379.8</ele><time>2026-05-03T07:23:10.999Z</time></trkpt><trkpt lat="44.85472438893107" lon="9.66259121632018"><ele>381.2</ele><time>2026-05-03T07:23:11.999Z</time></trkpt><trkpt lat="44.85464501095364" lon="9.662677626570778"><ele>382.6</ele><time>2026-05-03T07:23:12.999Z</time></trkpt><trkpt lat="44.854549859904026" lon="9.662675753524251"><ele>384.0</ele><time>2026-05-03T07:23:13.999Z</time></trkpt><trkpt lat="44.85445933242451" lon="9.662585681392695"><ele>384.0</ele><time>2026-05-03T07:23:14.999Z</time></trkpt><trkpt lat="44.8543799305396" lon="9.662444251658039"><ele>384.0</ele><time>2026-05-03T07:23:15.999Z</time></trkpt><trkpt lat="44.85429910410716" lon="9.66232232261593"><ele>384.0</ele><time>2026-05-03T07:23:16.999Z</time></trkpt><trkpt lat="44.854201074075675" lon="9.662274494424869"><ele>384.0</ele><time>2026-05-03T07:23:17.999Z</time></trkpt><trkpt lat="44.854093188630074" lon="9.662270371672388"><ele>386.4</ele><time>2026-05-03T07:23:18.999Z</time></trkpt><trkpt lat="44.853984888621525" lon="9.662288399903597"><ele>388.79999999999995</ele><time>2026-05-03T07:23:19.999Z</time></trkpt><trkpt lat="44.85387977890192" lon="9.662307471713074"><ele>391.20000000000005</ele><time>2026-05-03T07:23:20.999Z</time></trkpt><trkpt lat="44.85377449096297" lon="9.66231360112247"><ele>393.6</ele><time>2026-05-03T07:23:21.999Z</time></trkpt><trkpt lat="44.85366969252921" lon="9.662299135573546"><ele>396.0</ele><time>2026-05-03T07:23:22.999Z</time></trkpt><trkpt lat="44.85356747469215" lon="9.662262746888215"><ele>396.0</ele><time>2026-05-03T07:23:23.999Z</time></trkpt><trkpt lat="44.85346060691525" lon="9.66221655191808"><ele>396.0</ele><time>2026-05-03T07:23:24.999Z</time></trkpt><trkpt lat="44.8533542869434" lon="9.662176755287142"><ele>396.0</ele><time>2026-05-03T07:23:25.999Z</time></trkpt><trkpt lat="44.85325300351666" lon="9.66214972797552"><ele>396.0</ele><time>2026-05-03T07:23:26.999Z</time></trkpt><trkpt lat="44.85315151556635" lon="9.66213949595881"><ele>396.0</ele><time>2026-05-03T07:23:27.999Z</time></trkpt><trkpt lat="44.85304949172134" lon="9.662161863854047"><ele>397.5</ele><time>2026-05-03T07:23:28.999Z</time></trkpt><trkpt lat="44.852943892199036" lon="9.662213962392666"><ele>399.0</ele><time>2026-05-03T07:23:29.999Z</time></trkpt><trkpt lat="44.852833072345824" lon="9.66227426890263"><ele>400.5</ele><time>2026-05-03T07:23:30.999Z</time></trkpt><trkpt lat="44.8527263127525" lon="9.662319256829734"><ele>402.0</ele><time>2026-05-03T07:23:31.999Z</time></trkpt><trkpt lat="44.852613524616295" lon="9.662342877095343"><ele>404.0</ele><time>2026-05-03T07:23:32.999Z</time></trkpt><trkpt lat="44.8524987300633" lon="9.662351877378232"><ele>406.0</ele><time>2026-05-03T07:23:33.999Z</time></trkpt><trkpt lat="44.85238579370412" lon="9.66235020861341"><ele>408.0</ele><time>2026-05-03T07:23:34.999Z</time></trkpt><trkpt lat="44.852263219922186" lon="9.662338533048793"><ele>410.0</ele><time>2026-05-03T07:23:35.999Z</time></trkpt><trkpt lat="44.85213264975681" lon="9.662314258911898"><ele>410.0</ele><time>2026-05-03T07:23:36.999Z</time></trkpt><trkpt lat="44.8519979799418" lon="9.662275114793761"><ele>410.0</ele><time>2026-05-03T07:23:37.999Z</time></trkpt><trkpt lat="44.851872864363216" lon="9.662231927768438"><ele>410.0</ele><time>2026-05-03T07:23:38.999Z</time></trkpt><trkpt lat="44.85176437459996" lon="9.662196117651048"><ele>410.0</ele><time>2026-05-03T07:23:39.999Z</time></trkpt><trkpt lat="44.85167360419068" lon="9.662162611889011"><ele>411.4</ele><time>2026-05-03T07:23:40.999Z</time></trkpt><trkpt lat="44.851567543428274" lon="9.662124756002669"><ele>412.8</ele><time>2026-05-03T07:23:41.999Z</time></trkpt><trkpt lat="44.85146221703968" lon="9.66209912247976"><ele>414.20000000000005</ele><time>2026-05-03T07:23:42.999Z</time></trkpt><trkpt lat="44.851359177059216" lon="9.662116202434882"><ele>415.6</ele><time>2026-05-03T07:23:43.999Z</time></trkpt><trkpt lat="44.851281609063456" lon="9.662193732343018"><ele>417.0</ele><time>2026-05-03T07:23:44.999Z</time></trkpt><trkpt lat="44.85123063102992" lon="9.662309458417724"><ele>417.0</ele><time>2026-05-03T07:23:45.999Z</time></trkpt><trkpt lat="44.851194898434045" lon="9.662474214020023"><ele>417.0</ele><time>2026-05-03T07:23:46.999Z</time></trkpt><trkpt lat="44.851150497825586" lon="9.662626196928622"><ele>417.0</ele><time>2026-05-03T07:23:47.999Z</time></trkpt><trkpt lat="44.85108654512654" lon="9.662756576103966"><ele>417.0</ele><time>2026-05-03T07:23:48.999Z</time></trkpt><trkpt lat="44.85101492770756" lon="9.662876402092106"><ele>418.0</ele><time>2026-05-03T07:23:49.999Z</time></trkpt><trkpt lat="44.85092670888294" lon="9.662973644097116"><ele>419.0</ele><time>2026-05-03T07:23:50.999Z</time></trkpt><trkpt lat="44.85082077411431" lon="9.663048178961777"><ele>420.0</ele><time>2026-05-03T07:23:51.999Z</time></trkpt><trkpt lat="44.85069669753019" lon="9.663088031368716"><ele>421.0</ele><time>2026-05-03T07:23:52.999Z</time></trkpt><trkpt lat="44.850554946044134" lon="9.663099431678376"><ele>421.0</ele><time>2026-05-03T07:23:53.999Z</time></trkpt><trkpt lat="44.850408100847034" lon="9.663108472595988"><ele>421.0</ele><time>2026-05-03T07:23:54.999Z</time></trkpt><trkpt lat="44.85026932099354" lon="9.663114015410754"><ele>421.0</ele><time>2026-05-03T07:23:55.999Z</time></trkpt><trkpt lat="44.85013025417982" lon="9.663100365719599"><ele>421.0</ele><time>2026-05-03T07:23:56.999Z</time></trkpt><trkpt lat="44.84999740051876" lon="9.663077335712703"><ele>422.0</ele><time>2026-05-03T07:23:57.999Z</time></trkpt><trkpt lat="44.84987092801093" lon="9.663045651911874"><ele>423.0</ele><time>2026-05-03T07:23:58.999Z</time></trkpt><trkpt lat="44.84974386516073" lon="9.662999151130498"><ele>424.0</ele><time>2026-05-03T07:23:59.999Z</time></trkpt><trkpt lat="44.84960945026788" lon="9.662931787986281"><ele>425.0</ele><time>2026-05-03T07:24:00.998Z</time></trkpt><trkpt lat="44.849488913429646" lon="9.662851993527417"><ele>425.75</ele><time>2026-05-03T07:24:01.998Z</time></trkpt><trkpt lat="44.84937727749454" lon="9.662780093036485"><ele>426.5</ele><time>2026-05-03T07:24:02.998Z</time></trkpt><trkpt lat="44.849259708130084" lon="9.662733814384948"><ele>427.25</ele><time>2026-05-03T07:24:03.998Z</time></trkpt><trkpt lat="44.84913500249801" lon="9.662726069275728"><ele>428.0</ele><time>2026-05-03T07:24:04.998Z</time></trkpt><trkpt lat="44.849006849008354" lon="9.662764575127326"><ele>428.5</ele><time>2026-05-03T07:24:05.998Z</time></trkpt><trkpt lat="44.84888227371046" lon="9.662836523298402"><ele>429.0</ele><time>2026-05-03T07:24:06.998Z</time></trkpt><trkpt lat="44.848754651753076" lon="9.662914320407767"><ele>429.5</ele><time>2026-05-03T07:24:07.998Z</time></trkpt><trkpt lat="44.84863067079024" lon="9.662942197185224"><ele>430.0</ele><time>2026-05-03T07:24:08.998Z</time></trkpt><trkpt lat="44.848495233893004" lon="9.662934364796795"><ele>431.25</ele><time>2026-05-03T07:24:09.998Z</time></trkpt><trkpt lat="44.84835902473855" lon="9.662893694272807"><ele>432.5</ele><time>2026-05-03T07:24:10.998Z</time></trkpt><trkpt lat="44.8482230035696" lon="9.662838176387437"><ele>433.75</ele><time>2026-05-03T07:24:11.998Z</time></trkpt><trkpt lat="44.84809247505973" lon="9.662792580408642"><ele>435.0</ele><time>2026-05-03T07:24:12.998Z</time></trkpt><trkpt lat="44.847958975824284" lon="9.662745369341328"><ele>435.33333333333337</ele><time>2026-05-03T07:24:13.998Z</time></trkpt><trkpt lat="44.847818878207605" lon="9.662686806477259"><ele>435.6666666666667</ele><time>2026-05-03T07:24:14.998Z</time></trkpt><trkpt lat="44.84766170227008" lon="9.66262295343679"><ele>436.0</ele><time>2026-05-03T07:24:15.998Z</time></trkpt><trkpt lat="44.84752651417255" lon="9.662568226433692"><ele>438.5</ele><time>2026-05-03T07:24:16.998Z</time></trkpt><trkpt lat="44.84740336863741" lon="9.662510705809224"><ele>441.0</ele><time>2026-05-03T07:24:17.998Z</time></trkpt><trkpt lat="44.84728307856119" lon="9.662433664591846"><ele>443.5</ele><time>2026-05-03T07:24:18.998Z</time></trkpt><trkpt lat="44.84716532106831" lon="9.662354630334649"><ele>446.0</ele><time>2026-05-03T07:24:19.998Z</time></trkpt><trkpt lat="44.847042337879664" lon="9.662305899538438"><ele>446.0</ele><time>2026-05-03T07:24:20.998Z</time></trkpt><trkpt lat="44.846919623978565" lon="9.662302861645136"><ele>446.0</ele><time>2026-05-03T07:24:21.998Z</time></trkpt><trkpt lat="44.84680205307403" lon="9.662339556456825"><ele>446.0</ele><time>2026-05-03T07:24:22.998Z</time></trkpt><trkpt lat="44.84668455626599" lon="9.662372101064216"><ele>446.0</ele><time>2026-05-03T07:24:23.998Z</time></trkpt><trkpt lat="44.846557343049824" lon="9.662356396151747"><ele>446.25</ele><time>2026-05-03T07:24:24.998Z</time></trkpt><trkpt lat="44.84644224411862" lon="9.662273093612944"><ele>446.5</ele><time>2026-05-03T07:24:25.998Z</time></trkpt><trkpt lat="44.84633453206759" lon="9.66213731841954"><ele>446.75</ele><time>2026-05-03T07:24:26.998Z</time></trkpt><trkpt lat="44.84624343670603" lon="9.662001570568465"><ele>447.0</ele><time>2026-05-03T07:24:27.998Z</time></trkpt><trkpt lat="44.84615875326669" lon="9.661866004840984"><ele>447.0</ele><time>2026-05-03T07:24:28.998Z</time></trkpt><trkpt lat="44.84608150517359" lon="9.661722697637758"><ele>447.0</ele><time>2026-05-03T07:24:29.998Z</time></trkpt><trkpt lat="44.84600489927191" lon="9.661576312223564"><ele>447.0</ele><time>2026-05-03T07:24:30.998Z</time></trkpt><trkpt lat="44.84592573431601" lon="9.661429791993939"><ele>447.0</ele><time>2026-05-03T07:24:31.998Z</time></trkpt><trkpt lat="44.84584194715276" lon="9.661286479148158"><ele>448.75</ele><time>2026-05-03T07:24:32.998Z</time></trkpt><trkpt lat="44.84574606825152" lon="9.661147464451993"><ele>450.5</ele><time>2026-05-03T07:24:33.998Z</time></trkpt><trkpt lat="44.84564112568828" lon="9.661011632210611"><ele>452.25</ele><time>2026-05-03T07:24:34.998Z</time></trkpt><trkpt lat="44.845529089223035" lon="9.660882346068009"><ele>454.0</ele><time>2026-05-03T07:24:35.998Z</time></trkpt><trkpt lat="44.845413689046424" lon="9.660756153470611"><ele>454.0</ele><time>2026-05-03T07:24:36.998Z</time></trkpt><trkpt lat="44.84529796106603" lon="9.660633846636028"><ele>454.0</ele><time>2026-05-03T07:24:37.998Z</time></trkpt><trkpt lat="44.84518368045904" lon="9.660523415337178"><ele>454.0</ele><time>2026-05-03T07:24:38.998Z</time></trkpt><trkpt lat="44.845072784629956" lon="9.660420209769521"><ele>454.0</ele><time>2026-05-03T07:24:39.998Z</time></trkpt><trkpt lat="44.84496111891427" lon="9.660316097659324"><ele>454.5</ele><time>2026-05-03T07:24:40.998Z</time></trkpt><trkpt lat="44.84484605477141" lon="9.660210245727873"><ele>455.0</ele><time>2026-05-03T07:24:42Z</time></trkpt><trkpt lat="44.84471461418932" lon="9.660107893760133"><ele>455.5</ele><time>2026-05-03T07:24:43Z</time></trkpt><trkpt lat="44.84456629949993" lon="9.660028202375651"><ele>456.0</ele><time>2026-05-03T07:24:44Z</time></trkpt><trkpt lat="44.84441181995879" lon="9.659976131437316"><ele>454.66666666666663</ele><time>2026-05-03T07:24:45Z</time></trkpt><trkpt lat="44.844254554245104" lon="9.659934766861161"><ele>453.3333333333333</ele><time>2026-05-03T07:24:46Z</time></trkpt><trkpt lat="44.84409481180328" lon="9.659880308872216"><ele>452.0</ele><time>2026-05-03T07:24:47Z</time></trkpt><trkpt lat="44.84394336808669" lon="9.65981142999434"><ele>452.0</ele><time>2026-05-03T07:24:48Z</time></trkpt><trkpt lat="44.84380166629499" lon="9.659739758656137"><ele>452.0</ele><time>2026-05-03T07:24:49Z</time></trkpt><trkpt lat="44.84365531642359" lon="9.659668321327231"><ele>452.0</ele><time>2026-05-03T07:24:50Z</time></trkpt><trkpt lat="44.84351898370179" lon="9.659609583641346"><ele>452.0</ele><time>2026-05-03T07:24:51Z</time></trkpt><trkpt lat="44.84339043417713" lon="9.659563556618473"><ele>452.0</ele><time>2026-05-03T07:24:52Z</time></trkpt><trkpt lat="44.84326407352657" lon="9.65951377613181"><ele>452.0</ele><time>2026-05-03T07:24:53Z</time></trkpt><trkpt lat="44.843130052509906" lon="9.659458891231012"><ele>452.0</ele><time>2026-05-03T07:24:54Z</time></trkpt><trkpt lat="44.84299116030481" lon="9.659393459557442"><ele>452.0</ele><time>2026-05-03T07:24:55Z</time></trkpt><trkpt lat="44.84287536572188" lon="9.659335009783497"><ele>453.0</ele><time>2026-05-03T07:24:56Z</time></trkpt><trkpt lat="44.842768706780966" lon="9.659281182196475"><ele>454.00000000000006</ele><time>2026-05-03T07:24:57Z</time></trkpt><trkpt lat="44.84267000792556" lon="9.659225195764371"><ele>455.00000000000006</ele><time>2026-05-03T07:24:58Z</time></trkpt><trkpt lat="44.8425833220827" lon="9.659191122613986"><ele>456.0</ele><time>2026-05-03T07:24:59Z</time></trkpt><trkpt lat="44.84249804307094" lon="9.65914659979122"><ele>457.0</ele><time>2026-05-03T07:25:00Z</time></trkpt><trkpt lat="44.842430906778844" lon="9.659119873810768"><ele>457.00000000000006</ele><time>2026-05-03T07:25:01Z</time></trkpt><trkpt lat="44.84235895241136" lon="9.659142087033425"><ele>457.0</ele><time>2026-05-03T07:25:03Z</time></trkpt><trkpt lat="44.842338537066354" lon="9.659240769389807"><ele>457.0</ele><time>2026-05-03T07:26:00.999Z</time></trkpt><trkpt lat="44.842286154775095" lon="9.65938608933789"><ele>457.0</ele><time>2026-05-03T07:26:02.999Z</time></trkpt><trkpt lat="44.8422430260653" lon="9.659474537209997"><ele>457.00000000000006</ele><time>2026-05-03T07:26:03.999Z</time></trkpt><trkpt lat="44.84219434828678" lon="9.65955833492794"><ele>457.0</ele><time>2026-05-03T07:26:04.999Z</time></trkpt><trkpt lat="44.84214232153931" lon="9.659639536475211"><ele>457.0</ele><time>2026-05-03T07:26:05.999Z</time></trkpt><trkpt lat="44.842083387763395" lon="9.659717551345144"><ele>457.00000000000006</ele><time>2026-05-03T07:26:06.999Z</time></trkpt><trkpt lat="44.84201282973429" lon="9.65980334499917"><ele>457.00000000000006</ele><time>2026-05-03T07:26:07.999Z</time></trkpt><trkpt lat="44.841914057470426" lon="9.659886796689955"><ele>457.0</ele><time>2026-05-03T07:26:08.999Z</time></trkpt><trkpt lat="44.8418158514487" lon="9.659941559140343"><ele>457.0</ele><time>2026-05-03T07:26:09.998Z</time></trkpt><trkpt lat="44.84172747952445" lon="9.659978541622012"><ele>459.8</ele><time>2026-05-03T07:26:10.998Z</time></trkpt><trkpt lat="44.84163971439144" lon="9.660015841285464"><ele>462.6</ele><time>2026-05-03T07:26:11.998Z</time></trkpt><trkpt lat="44.841554246320754" lon="9.66004147310668"><ele>465.40000000000003</ele><time>2026-05-03T07:26:12.998Z</time></trkpt><trkpt lat="44.84146892001844" lon="9.660044622642687"><ele>468.20000000000005</ele><time>2026-05-03T07:26:13.998Z</time></trkpt><trkpt lat="44.84136639008579" lon="9.660029963279246"><ele>471.0</ele><time>2026-05-03T07:26:14.998Z</time></trkpt><trkpt lat="44.841253081219456" lon="9.660014960985496"><ele>471.0</ele><time>2026-05-03T07:26:15.998Z</time></trkpt><trkpt lat="44.84113305712977" lon="9.660026244116269"><ele>471.0</ele><time>2026-05-03T07:26:16.998Z</time></trkpt><trkpt lat="44.84101281694214" lon="9.660060922706673"><ele>471.0</ele><time>2026-05-03T07:26:17.998Z</time></trkpt><trkpt lat="44.840911664126445" lon="9.660098298987302"><ele>471.0</ele><time>2026-05-03T07:26:18.998Z</time></trkpt><trkpt lat="44.84082326101887" lon="9.660130647194773"><ele>471.0</ele><time>2026-05-03T07:26:19.998Z</time></trkpt><trkpt lat="44.84074197713798" lon="9.660167865218762"><ele>471.20000000000005</ele><time>2026-05-03T07:26:20.998Z</time></trkpt><trkpt lat="44.84067369711601" lon="9.660239116263751"><ele>471.40000000000003</ele><time>2026-05-03T07:26:21.998Z</time></trkpt><trkpt lat="44.840620198226944" lon="9.660336903749599"><ele>471.6</ele><time>2026-05-03T07:26:22.998Z</time></trkpt><trkpt lat="44.840583335052926" lon="9.66047378920728"><ele>471.8</ele><time>2026-05-03T07:26:23.998Z</time></trkpt><trkpt lat="44.84052633294724" lon="9.660627557543155"><ele>472.0</ele><time>2026-05-03T07:26:24.998Z</time></trkpt><trkpt lat="44.840450705307724" lon="9.660793187888487"><ele>471.25</ele><time>2026-05-03T07:26:25.998Z</time></trkpt><trkpt lat="44.84038334526535" lon="9.660955008207525"><ele>470.5</ele><time>2026-05-03T07:26:26.998Z</time></trkpt><trkpt lat="44.840324473452675" lon="9.661108516036858"><ele>469.75</ele><time>2026-05-03T07:26:27.998Z</time></trkpt><trkpt lat="44.840272509343734" lon="9.661247295143859"><ele>469.0</ele><time>2026-05-03T07:26:28.998Z</time></trkpt><trkpt lat="44.84022023986341" lon="9.661386097015981"><ele>470.5</ele><time>2026-05-03T07:26:29.998Z</time></trkpt><trkpt lat="44.840164080517965" lon="9.66153486709301"><ele>472.0</ele><time>2026-05-03T07:26:30.998Z</time></trkpt><trkpt lat="44.84010446673455" lon="9.66168437467098"><ele>473.5</ele><time>2026-05-03T07:26:31.998Z</time></trkpt><trkpt lat="44.84003462542349" lon="9.661824612621043"><ele>475.0</ele><time>2026-05-03T07:26:32.998Z</time></trkpt><trkpt lat="44.83995735688304" lon="9.661946604772936"><ele>474.75</ele><time>2026-05-03T07:26:33.998Z</time></trkpt><trkpt lat="44.83986970195314" lon="9.662047623938522"><ele>474.5</ele><time>2026-05-03T07:26:34.998Z</time></trkpt><trkpt lat="44.83976655585797" lon="9.662124298492225"><ele>474.25</ele><time>2026-05-03T07:26:35.998Z</time></trkpt><trkpt lat="44.83965399857707" lon="9.662171388377802"><ele>474.0</ele><time>2026-05-03T07:26:36.998Z</time></trkpt><trkpt lat="44.839539955115406" lon="9.66221258416885"><ele>474.0</ele><time>2026-05-03T07:26:37.998Z</time></trkpt><trkpt lat="44.839432211868335" lon="9.66226155402259"><ele>474.0</ele><time>2026-05-03T07:26:38.998Z</time></trkpt><trkpt lat="44.83934925463367" lon="9.662312675261633"><ele>474.0</ele><time>2026-05-03T07:26:39.998Z</time></trkpt><trkpt lat="44.83928003878748" lon="9.662369048542232"><ele>474.0</ele><time>2026-05-03T07:26:40.998Z</time></trkpt><trkpt lat="44.839218606930004" lon="9.662424629167699"><ele>474.0</ele><time>2026-05-03T07:26:41.998Z</time></trkpt><trkpt lat="44.83916095366049" lon="9.662467721307355"><ele>474.0</ele><time>2026-05-03T07:26:42.998Z</time></trkpt><trkpt lat="44.83905824097224" lon="9.662542570286833"><ele>473.2857142857142</ele><time>2026-05-03T07:26:44.998Z</time></trkpt><trkpt lat="44.83899778545353" lon="9.66257930924881"><ele>472.57142857142856</ele><time>2026-05-03T07:26:45.998Z</time></trkpt><trkpt lat="44.838936056971995" lon="9.662618836152776"><ele>471.85714285714283</ele><time>2026-05-03T07:26:46.998Z</time></trkpt><trkpt lat="44.83886997352773" lon="9.662658753921761"><ele>471.1428571428571</ele><time>2026-05-03T07:26:48Z</time></trkpt><trkpt lat="44.83879235321276" lon="9.662708372372732"><ele>470.42857142857144</ele><time>2026-05-03T07:26:49Z</time></trkpt><trkpt lat="44.838722078226986" lon="9.662753303582381"><ele>469.7142857142857</ele><time>2026-05-03T07:26:50Z</time></trkpt><trkpt lat="44.83865482436997" lon="9.662789812718888"><ele>469.0</ele><time>2026-05-03T07:26:51Z</time></trkpt><trkpt lat="44.83858299058199" lon="9.66282652886116"><ele>469.00000000000006</ele><time>2026-05-03T07:26:52Z</time></trkpt><trkpt lat="44.83852057659877" lon="9.662871548284292"><ele>469.0</ele><time>2026-05-03T07:26:53Z</time></trkpt><trkpt lat="44.83847459163059" lon="9.662932911842582"><ele>469.0</ele><time>2026-05-03T07:26:54Z</time></trkpt><trkpt lat="44.83843014822427" lon="9.663025977850772"><ele>469.0</ele><time>2026-05-03T07:26:55Z</time></trkpt><trkpt lat="44.83839839400987" lon="9.663143129518879"><ele>469.00000000000006</ele><time>2026-05-03T07:26:56Z</time></trkpt><trkpt lat="44.838383208842686" lon="9.663264320834521"><ele>469.0</ele><time>2026-05-03T07:26:57Z</time></trkpt><trkpt lat="44.83837097881515" lon="9.663364848273007"><ele>469.6</ele><time>2026-05-03T07:26:58Z</time></trkpt><trkpt lat="44.83835644961037" lon="9.66350917444689"><ele>470.2</ele><time>2026-05-03T07:27:00Z</time></trkpt><trkpt lat="44.838323695297" lon="9.663648082624096"><ele>470.80000000000007</ele><time>2026-05-03T07:27:02Z</time></trkpt><trkpt lat="44.8382261255767" lon="9.663705537182416"><ele>471.40000000000003</ele><time>2026-05-03T07:27:04Z</time></trkpt><trkpt lat="44.83815975255482" lon="9.663661785058858"><ele>472.0</ele><time>2026-05-03T07:27:05Z</time></trkpt><trkpt lat="44.838094712157286" lon="9.663565874621069"><ele>473.1666666666667</ele><time>2026-05-03T07:27:06Z</time></trkpt><trkpt lat="44.8380342257715" lon="9.663461818499536"><ele>474.33333333333337</ele><time>2026-05-03T07:27:07Z</time></trkpt><trkpt lat="44.837981227647205" lon="9.663376815916566"><ele>475.5</ele><time>2026-05-03T07:27:08Z</time></trkpt><trkpt lat="44.837886997487786" lon="9.663315930579385"><ele>476.66666666666663</ele><time>2026-05-03T07:27:10Z</time></trkpt><trkpt lat="44.837820749036496" lon="9.66339301727313"><ele>477.8333333333333</ele><time>2026-05-03T07:27:12Z</time></trkpt><trkpt lat="44.837794387053975" lon="9.663485165197192"><ele>479.0</ele><time>2026-05-03T07:27:13Z</time></trkpt><trkpt lat="44.83778951037061" lon="9.663592764525008"><ele>477.6</ele><time>2026-05-03T07:27:14Z</time></trkpt><trkpt lat="44.83778088375497" lon="9.663725173781675"><ele>476.2</ele><time>2026-05-03T07:27:15Z</time></trkpt><trkpt lat="44.837754234304555" lon="9.663875281573914"><ele>474.80000000000007</ele><time>2026-05-03T07:27:16Z</time></trkpt><trkpt lat="44.83773027153616" lon="9.664015511003539"><ele>473.40000000000003</ele><time>2026-05-03T07:27:17Z</time></trkpt><trkpt lat="44.83771423388086" lon="9.664149525606161"><ele>472.0</ele><time>2026-05-03T07:27:18Z</time></trkpt><trkpt lat="44.83770901494607" lon="9.664282174344018"><ele>472.00000000000006</ele><time>2026-05-03T07:27:19Z</time></trkpt><trkpt lat="44.83770587672661" lon="9.664401916485497"><ele>472.0</ele><time>2026-05-03T07:27:20Z</time></trkpt><trkpt lat="44.83769645400834" lon="9.66450537959272"><ele>472.0</ele><time>2026-05-03T07:27:21Z</time></trkpt><trkpt lat="44.83767432817052" lon="9.664590360318268"><ele>472.0</ele><time>2026-05-03T07:27:22Z</time></trkpt><trkpt lat="44.83762053371032" lon="9.664697411519047"><ele>472.00000000000006</ele><time>2026-05-03T07:27:22.999Z</time></trkpt><trkpt lat="44.83754439787723" lon="9.66478809669281"><ele>472.0</ele><time>2026-05-03T07:27:23.999Z</time></trkpt><trkpt lat="44.83746454621346" lon="9.664876454852411"><ele>468.6</ele><time>2026-05-03T07:27:24.999Z</time></trkpt><trkpt lat="44.837399160833805" lon="9.664970871715385"><ele>465.20000000000005</ele><time>2026-05-03T07:27:25.999Z</time></trkpt><trkpt lat="44.83734026565353" lon="9.665078414914662"><ele>461.8</ele><time>2026-05-03T07:27:26.999Z</time></trkpt><trkpt lat="44.837283141308944" lon="9.665180833427536"><ele>458.4</ele><time>2026-05-03T07:27:27.999Z</time></trkpt><trkpt lat="44.83722838006176" lon="9.665290821897232"><ele>455.0</ele><time>2026-05-03T07:27:28.999Z</time></trkpt><trkpt lat="44.837185377501214" lon="9.665412075730584"><ele>453.49999999999994</ele><time>2026-05-03T07:27:29.999Z</time></trkpt><trkpt lat="44.837151610607705" lon="9.665526692474076"><ele>452.0</ele><time>2026-05-03T07:27:30.999Z</time></trkpt><trkpt lat="44.837135966684706" lon="9.665634136680568"><ele>450.5</ele><time>2026-05-03T07:27:31.999Z</time></trkpt><trkpt lat="44.837147442764305" lon="9.665735131159117"><ele>449.0</ele><time>2026-05-03T07:27:32.999Z</time></trkpt><trkpt lat="44.837178976684925" lon="9.665862734983955"><ele>447.49999999999994</ele><time>2026-05-03T07:27:33.999Z</time></trkpt><trkpt lat="44.83723694390252" lon="9.665935977504"><ele>446.0</ele><time>2026-05-03T07:27:34.999Z</time></trkpt><trkpt lat="44.83730305020284" lon="9.665984138536519"><ele>445.99999999999994</ele><time>2026-05-03T07:27:35.999Z</time></trkpt><trkpt lat="44.837367747724116" lon="9.66603045242322"><ele>446.0</ele><time>2026-05-03T07:27:36.999Z</time></trkpt><trkpt lat="44.83742209240617" lon="9.666075373846294"><ele>446.0</ele><time>2026-05-03T07:27:37.999Z</time></trkpt><trkpt lat="44.837473521125396" lon="9.666173682464084"><ele>446.0</ele><time>2026-05-03T07:27:39.999Z</time></trkpt><trkpt lat="44.83744656894771" lon="9.666313950976507"><ele>445.99999999999994</ele><time>2026-05-03T07:27:41.999Z</time></trkpt><trkpt lat="44.83733321572014" lon="9.666382435987192"><ele>446.0</ele><time>2026-05-03T07:27:43.999Z</time></trkpt><trkpt lat="44.837267498952755" lon="9.666372882287918"><ele>445.99999999999994</ele><time>2026-05-03T07:27:44.999Z</time></trkpt><trkpt lat="44.837158651756646" lon="9.666321432978366"><ele>446.0</ele><time>2026-05-03T07:27:46.999Z</time></trkpt><trkpt lat="44.83707616503066" lon="9.666275317010403"><ele>446.0</ele><time>2026-05-03T07:27:48.999Z</time></trkpt><trkpt lat="44.83699824389623" lon="9.666255432504274"><ele>446.0</ele><time>2026-05-03T07:27:50.999Z</time></trkpt><trkpt lat="44.836925851166285" lon="9.66621758074029"><ele>445.99999999999994</ele><time>2026-05-03T07:27:52.999Z</time></trkpt><trkpt lat="44.83688002991312" lon="9.666139994391713"><ele>446.0</ele><time>2026-05-03T07:27:54.999Z</time></trkpt><trkpt lat="44.83683207096231" lon="9.666066754666742"><ele>443.8333333333333</ele><time>2026-05-03T07:27:56.999Z</time></trkpt><trkpt lat="44.83678502693798" lon="9.665963508467389"><ele>441.66666666666663</ele><time>2026-05-03T07:27:58.999Z</time></trkpt><trkpt lat="44.836756347325874" lon="9.665855700175175"><ele>439.5</ele><time>2026-05-03T07:28:00.999Z</time></trkpt><trkpt lat="44.836709432857496" lon="9.665776258617878"><ele>437.33333333333337</ele><time>2026-05-03T07:28:02.999Z</time></trkpt><trkpt lat="44.83663800144331" lon="9.665688608237822"><ele>435.1666666666667</ele><time>2026-05-03T07:28:04.999Z</time></trkpt><trkpt lat="44.83655245663726" lon="9.66559324727888"><ele>433.0</ele><time>2026-05-03T07:28:06.999Z</time></trkpt><trkpt lat="44.83648174745446" lon="9.665461835966317"><ele>433.00000000000006</ele><time>2026-05-03T07:28:08.999Z</time></trkpt><trkpt lat="44.83644022174548" lon="9.665303097726941"><ele>433.0</ele><time>2026-05-03T07:28:10.999Z</time></trkpt><trkpt lat="44.8364223306149" lon="9.665209256200166"><ele>433.0</ele><time>2026-05-03T07:28:11.999Z</time></trkpt><trkpt lat="44.836400319523" lon="9.665121749846044"><ele>433.0</ele><time>2026-05-03T07:28:12.999Z</time></trkpt><trkpt lat="44.836355562664465" lon="9.664993731726858"><ele>433.00000000000006</ele><time>2026-05-03T07:28:14.999Z</time></trkpt><trkpt lat="44.83628096985968" lon="9.664917634420538"><ele>433.0</ele><time>2026-05-03T07:28:16.999Z</time></trkpt><trkpt lat="44.83619994995412" lon="9.664910090666583"><ele>433.1666666666667</ele><time>2026-05-03T07:28:19.998Z</time></trkpt><trkpt lat="44.83615066531329" lon="9.664974972074399"><ele>433.33333333333337</ele><time>2026-05-03T07:28:26.998Z</time></trkpt><trkpt lat="44.83606892959299" lon="9.665023926695223"><ele>433.5</ele><time>2026-05-03T07:28:28.998Z</time></trkpt><trkpt lat="44.83595585643335" lon="9.665089819370554"><ele>433.66666666666663</ele><time>2026-05-03T07:28:30.998Z</time></trkpt><trkpt lat="44.83589988963393" lon="9.665148672718622"><ele>433.8333333333333</ele><time>2026-05-03T07:28:31.998Z</time></trkpt><trkpt lat="44.835851292115436" lon="9.66522638231984"><ele>434.0</ele><time>2026-05-03T07:28:32.998Z</time></trkpt><trkpt lat="44.83580740968702" lon="9.66531744963642"><ele>429.8333333333333</ele><time>2026-05-03T07:28:33.998Z</time></trkpt><trkpt lat="44.83576194637759" lon="9.665402172429957"><ele>425.66666666666663</ele><time>2026-05-03T07:28:34.998Z</time></trkpt><trkpt lat="44.835708861139445" lon="9.665480845945421"><ele>421.5</ele><time>2026-05-03T07:28:35.998Z</time></trkpt><trkpt lat="44.83564971415176" lon="9.665557955001013"><ele>417.33333333333337</ele><time>2026-05-03T07:28:36.998Z</time></trkpt><trkpt lat="44.835595821096156" lon="9.665635895684707"><ele>413.1666666666667</ele><time>2026-05-03T07:28:37.998Z</time></trkpt><trkpt lat="44.83554947162799" lon="9.665716812680543"><ele>409.0</ele><time>2026-05-03T07:28:38.998Z</time></trkpt><trkpt lat="44.83550619853555" lon="9.665804750944655"><ele>409.0</ele><time>2026-05-03T07:28:39.998Z</time></trkpt><trkpt lat="44.83545720721208" lon="9.665889541342128"><ele>409.0</ele><time>2026-05-03T07:28:40.998Z</time></trkpt><trkpt lat="44.83540623635387" lon="9.665959057725397"><ele>409.0</ele><time>2026-05-03T07:28:41.998Z</time></trkpt><trkpt lat="44.83534761455616" lon="9.666100466546474"><ele>409.0</ele><time>2026-05-03T07:28:43.998Z</time></trkpt><trkpt lat="44.83536998654963" lon="9.666286633527513"><ele>409.0</ele><time>2026-05-03T07:28:45.998Z</time></trkpt><trkpt lat="44.8353872635597" lon="9.666413513865608"><ele>408.00000000000006</ele><time>2026-05-03T07:28:46.998Z</time></trkpt><trkpt lat="44.835393811881545" lon="9.666548013529484"><ele>407.0</ele><time>2026-05-03T07:28:47.998Z</time></trkpt><trkpt lat="44.835389794032764" lon="9.666679294979504"><ele>406.0</ele><time>2026-05-03T07:28:48.998Z</time></trkpt><trkpt lat="44.835379633349426" lon="9.666802622694476"><ele>405.0</ele><time>2026-05-03T07:28:49.998Z</time></trkpt><trkpt lat="44.83536605822999" lon="9.666911148147427"><ele>404.00000000000006</ele><time>2026-05-03T07:28:50.998Z</time></trkpt><trkpt lat="44.83534794670312" lon="9.667017985323705"><ele>403.0</ele><time>2026-05-03T07:28:51.998Z</time></trkpt><trkpt lat="44.83532870421209" lon="9.667112567334609"><ele>402.0</ele><time>2026-05-03T07:28:52.998Z</time></trkpt><trkpt lat="44.83529375629896" lon="9.66726968825391"><ele>401.0</ele><time>2026-05-03T07:28:55Z</time></trkpt><trkpt lat="44.83524974159359" lon="9.667378630905914"><ele>400.0</ele><time>2026-05-03T07:28:57Z</time></trkpt><trkpt lat="44.835181613397296" lon="9.66745824771124"><ele>399.0</ele><time>2026-05-03T07:28:59Z</time></trkpt><trkpt lat="44.83514648654659" lon="9.667563537600895"><ele>398.0</ele><time>2026-05-03T07:29:10Z</time></trkpt><trkpt lat="44.83509818852351" lon="9.667701124513249"><ele>395.99999999999994</ele><time>2026-05-03T07:29:12Z</time></trkpt><trkpt lat="44.835066993225546" lon="9.667790793275449"><ele>394.0</ele><time>2026-05-03T07:29:13Z</time></trkpt><trkpt lat="44.83503514725517" lon="9.66788625187166"><ele>392.0</ele><time>2026-05-03T07:29:14Z</time></trkpt><trkpt lat="44.83500784392588" lon="9.667978686577195"><ele>390.0</ele><time>2026-05-03T07:29:15Z</time></trkpt><trkpt lat="44.83498101188544" lon="9.668067786279346"><ele>388.0</ele><time>2026-05-03T07:29:16Z</time></trkpt><trkpt lat="44.83495849668913" lon="9.668153504842627"><ele>385.99999999999994</ele><time>2026-05-03T07:29:17Z</time></trkpt><trkpt lat="44.83493982062658" lon="9.66824064942765"><ele>384.0</ele><time>2026-05-03T07:29:18Z</time></trkpt><trkpt lat="44.83492962916799" lon="9.668329996151298"><ele>384.0</ele><time>2026-05-03T07:29:19Z</time></trkpt><trkpt lat="44.83492062373019" lon="9.668420404910567"><ele>384.0</ele><time>2026-05-03T07:29:20Z</time></trkpt><trkpt lat="44.83488754974534" lon="9.668611384067175"><ele>384.0</ele><time>2026-05-03T07:29:22Z</time></trkpt><trkpt lat="44.83485975936259" lon="9.668720612204975"><ele>384.0</ele><time>2026-05-03T07:29:23Z</time></trkpt><trkpt lat="44.834842818699684" lon="9.668841917332577"><ele>384.0</ele><time>2026-05-03T07:29:24Z</time></trkpt><trkpt lat="44.834834572856764" lon="9.668961653029955"><ele>382.3333333333333</ele><time>2026-05-03T07:29:25Z</time></trkpt><trkpt lat="44.83483577214047" lon="9.669086823369854"><ele>380.6666666666667</ele><time>2026-05-03T07:29:25.999Z</time></trkpt><trkpt lat="44.83483093645202" lon="9.669197304884902"><ele>379.0</ele><time>2026-05-03T07:29:26.999Z</time></trkpt><trkpt lat="44.83480781529977" lon="9.669293207617358"><ele>377.33333333333337</ele><time>2026-05-03T07:29:27.999Z</time></trkpt><trkpt lat="44.83480964542422" lon="9.669460492652828"><ele>375.6666666666667</ele><time>2026-05-03T07:29:29.999Z</time></trkpt><trkpt lat="44.834831187591476" lon="9.669552906694758"><ele>374.0</ele><time>2026-05-03T07:29:30.999Z</time></trkpt><trkpt lat="44.834862954745596" lon="9.669655016508816"><ele>372.33333333333337</ele><time>2026-05-03T07:29:31.999Z</time></trkpt><trkpt lat="44.83489521314562" lon="9.669752936956998"><ele>370.6666666666667</ele><time>2026-05-03T07:29:32.999Z</time></trkpt><trkpt lat="44.834925176897" lon="9.669840963272978"><ele>369.0</ele><time>2026-05-03T07:29:33.999Z</time></trkpt><trkpt lat="44.834963305800215" lon="9.669925755441797"><ele>367.3333333333333</ele><time>2026-05-03T07:29:34.999Z</time></trkpt><trkpt lat="44.83500881271582" lon="9.670026512409201"><ele>365.66666666666663</ele><time>2026-05-03T07:29:35.999Z</time></trkpt><trkpt lat="44.83504752857584" lon="9.67012741533369"><ele>364.0</ele><time>2026-05-03T07:29:36.999Z</time></trkpt><trkpt lat="44.83507322517807" lon="9.670217245358106"><ele>364.5</ele><time>2026-05-03T07:29:37.999Z</time></trkpt><trkpt lat="44.835098221965104" lon="9.670303582812767"><ele>365.0</ele><time>2026-05-03T07:29:38.999Z</time></trkpt><trkpt lat="44.83511749115132" lon="9.670397623980955"><ele>365.5</ele><time>2026-05-03T07:29:39.999Z</time></trkpt><trkpt lat="44.83513274844422" lon="9.670510749780991"><ele>366.0</ele><time>2026-05-03T07:29:40.999Z</time></trkpt><trkpt lat="44.83514129777399" lon="9.670616658492024"><ele>366.5</ele><time>2026-05-03T07:29:41.999Z</time></trkpt><trkpt lat="44.835165233769516" lon="9.670780111973228"><ele>367.0</ele><time>2026-05-03T07:29:43.999Z</time></trkpt><trkpt lat="44.83517056987994" lon="9.670880637080481"><ele>367.0</ele><time>2026-05-03T07:29:44.999Z</time></trkpt><trkpt lat="44.83518858858434" lon="9.6709728446678"><ele>367.0</ele><time>2026-05-03T07:29:45.999Z</time></trkpt><trkpt lat="44.83522372288289" lon="9.671053088193833"><ele>367.0</ele><time>2026-05-03T07:29:46.999Z</time></trkpt><trkpt lat="44.83529915233434" lon="9.671155659147242"><ele>367.0</ele><time>2026-05-03T07:29:48.999Z</time></trkpt><trkpt lat="44.83535374860325" lon="9.671200037949292"><ele>367.0</ele><time>2026-05-03T07:29:49.999Z</time></trkpt><trkpt lat="44.835459058371285" lon="9.671279906714043"><ele>367.0</ele><time>2026-05-03T07:29:51.999Z</time></trkpt><trkpt lat="44.83550798765054" lon="9.671375143599356"><ele>364.5</ele><time>2026-05-03T07:29:53.999Z</time></trkpt><trkpt lat="44.83557962166208" lon="9.671488647140073"><ele>362.0</ele><time>2026-05-03T07:29:55.999Z</time></trkpt><trkpt lat="44.835618308087795" lon="9.671559135981882"><ele>359.5</ele><time>2026-05-03T07:29:56.999Z</time></trkpt><trkpt lat="44.83566744094936" lon="9.671666473557567"><ele>357.0</ele><time>2026-05-03T07:29:58.999Z</time></trkpt><trkpt lat="44.83561672315878" lon="9.671723222038242"><ele>354.5</ele><time>2026-05-03T07:30:00.999Z</time></trkpt><trkpt lat="44.83549549724875" lon="9.671753414230594"><ele>352.0</ele><time>2026-05-03T07:30:02.999Z</time></trkpt><trkpt lat="44.83538765031469" lon="9.67182900850233"><ele>352.0</ele><time>2026-05-03T07:30:04.999Z</time></trkpt><trkpt lat="44.83529739104484" lon="9.67180478188335"><ele>352.0</ele><time>2026-05-03T07:30:06.999Z</time></trkpt><trkpt lat="44.83522349304371" lon="9.671734702766397"><ele>352.0</ele><time>2026-05-03T07:30:08.999Z</time></trkpt><trkpt lat="44.83514328459294" lon="9.671697353132231"><ele>352.0</ele><time>2026-05-03T07:30:11.999Z</time></trkpt><trkpt lat="44.83508263046048" lon="9.671792433601022"><ele>352.0</ele><time>2026-05-03T07:30:14.999Z</time></trkpt><trkpt lat="44.83513106322187" lon="9.671887158317706"><ele>352.0</ele><time>2026-05-03T07:30:16.999Z</time></trkpt><trkpt lat="44.835177285967255" lon="9.671967875150925"><ele>351.3333333333333</ele><time>2026-05-03T07:30:18.999Z</time></trkpt><trkpt lat="44.83520418652454" lon="9.672049254344731"><ele>350.66666666666663</ele><time>2026-05-03T07:30:19.999Z</time></trkpt><trkpt lat="44.83521674604294" lon="9.672170797200499"><ele>350.0</ele><time>2026-05-03T07:30:21.999Z</time></trkpt><trkpt lat="44.83525246806043" lon="9.6722783815405"><ele>349.3333333333333</ele><time>2026-05-03T07:30:23.999Z</time></trkpt><trkpt lat="44.83528580816093" lon="9.672367726630064"><ele>348.6666666666667</ele><time>2026-05-03T07:30:24.998Z</time></trkpt><trkpt lat="44.835326298693445" lon="9.672466422203412"><ele>348.0</ele><time>2026-05-03T07:30:25.998Z</time></trkpt><trkpt lat="44.835397816785765" lon="9.67254951280789"><ele>348.0</ele><time>2026-05-03T07:30:26.998Z</time></trkpt><trkpt lat="44.835489711005295" lon="9.67263687754953"><ele>348.0</ele><time>2026-05-03T07:30:27.998Z</time></trkpt><trkpt lat="44.8355848076843" lon="9.672723982124884"><ele>348.0</ele><time>2026-05-03T07:30:28.998Z</time></trkpt><trkpt lat="44.83566063878699" lon="9.67281126839833"><ele>348.0</ele><time>2026-05-03T07:30:29.998Z</time></trkpt><trkpt lat="44.83569766085433" lon="9.672883557049357"><ele>348.0</ele><time>2026-05-03T07:30:30.998Z</time></trkpt><trkpt lat="44.83572936809791" lon="9.672982626056504"><ele>351.59999999999997</ele><time>2026-05-03T07:30:31.998Z</time></trkpt><trkpt lat="44.835759925284925" lon="9.673080325616864"><ele>355.2</ele><time>2026-05-03T07:30:32.998Z</time></trkpt><trkpt lat="44.83579396986079" lon="9.673180811938341"><ele>358.8</ele><time>2026-05-03T07:30:33.998Z</time></trkpt><trkpt lat="44.83581733293208" lon="9.67328915050937"><ele>362.4</ele><time>2026-05-03T07:30:34.998Z</time></trkpt><trkpt lat="44.835843822474864" lon="9.673415654536004"><ele>366.0</ele><time>2026-05-03T07:30:35.998Z</time></trkpt><trkpt lat="44.83594611250661" lon="9.6735532824714"><ele>366.8</ele><time>2026-05-03T07:30:37.998Z</time></trkpt><trkpt lat="44.836034186029046" lon="9.67360471578733"><ele>367.6</ele><time>2026-05-03T07:30:38.998Z</time></trkpt><trkpt lat="44.83614793125315" lon="9.673660105581988"><ele>368.4</ele><time>2026-05-03T07:30:39.998Z</time></trkpt><trkpt lat="44.836228787907125" lon="9.673720095092666"><ele>369.2</ele><time>2026-05-03T07:30:40.998Z</time></trkpt><trkpt lat="44.83630578662903" lon="9.673857982798745"><ele>370.0</ele><time>2026-05-03T07:30:41.998Z</time></trkpt><trkpt lat="44.836383186438226" lon="9.674005665210384"><ele>370.0</ele><time>2026-05-03T07:30:42.998Z</time></trkpt><trkpt lat="44.83646107689688" lon="9.67417777585092"><ele>370.0</ele><time>2026-05-03T07:30:43.998Z</time></trkpt><trkpt lat="44.836528929967486" lon="9.674343530802656"><ele>370.0</ele><time>2026-05-03T07:30:44.998Z</time></trkpt><trkpt lat="44.836579568232054" lon="9.674493007317523"><ele>370.0</ele><time>2026-05-03T07:30:45.998Z</time></trkpt><trkpt lat="44.83663177481974" lon="9.674619081881913"><ele>368.6</ele><time>2026-05-03T07:30:46.998Z</time></trkpt><trkpt lat="44.83667730090226" lon="9.674758965227975"><ele>367.2</ele><time>2026-05-03T07:30:47.998Z</time></trkpt><trkpt lat="44.83671883060974" lon="9.674830013840058"><ele>365.79999999999995</ele><time>2026-05-03T07:30:48.998Z</time></trkpt><trkpt lat="44.836778177964305" lon="9.674927719841842"><ele>364.4</ele><time>2026-05-03T07:30:49.998Z</time></trkpt><trkpt lat="44.83681747811994" lon="9.67503130182354"><ele>363.0</ele><time>2026-05-03T07:30:50.998Z</time></trkpt><trkpt lat="44.83690219714785" lon="9.675187068027297"><ele>364.1666666666667</ele><time>2026-05-03T07:30:51.998Z</time></trkpt><trkpt lat="44.83697661533882" lon="9.675318551648477"><ele>365.3333333333333</ele><time>2026-05-03T07:30:52.998Z</time></trkpt><trkpt lat="44.837005698584974" lon="9.675412730128993"><ele>366.5</ele><time>2026-05-03T07:30:53.998Z</time></trkpt><trkpt lat="44.83703988485463" lon="9.675494775648"><ele>367.66666666666663</ele><time>2026-05-03T07:30:54.998Z</time></trkpt><trkpt lat="44.83705392201751" lon="9.675583536467599"><ele>368.8333333333333</ele><time>2026-05-03T07:30:56.998Z</time></trkpt><trkpt lat="44.83708015612447" lon="9.675686108891506"><ele>370.0</ele><time>2026-05-03T07:31:21Z</time></trkpt><trkpt lat="44.83702642263037" lon="9.67584925772331"><ele>370.0</ele><time>2026-05-03T07:31:22.999Z</time></trkpt><trkpt lat="44.836947234444885" lon="9.675894658397816"><ele>370.0</ele><time>2026-05-03T07:31:23.999Z</time></trkpt><trkpt lat="44.83684543987582" lon="9.675938586658607"><ele>370.0</ele><time>2026-05-03T07:31:24.999Z</time></trkpt><trkpt lat="44.83678867379523" lon="9.676045760037661"><ele>370.0</ele><time>2026-05-03T07:31:26.999Z</time></trkpt><trkpt lat="44.83676747176785" lon="9.676132844493072"><ele>370.0</ele><time>2026-05-03T07:31:27.999Z</time></trkpt><trkpt lat="44.83673799700416" lon="9.676270268958039"><ele>371.4</ele><time>2026-05-03T07:31:29.999Z</time></trkpt><trkpt lat="44.836720867571046" lon="9.676421503017176"><ele>372.8</ele><time>2026-05-03T07:31:31.999Z</time></trkpt><trkpt lat="44.83674603114984" lon="9.676577012965835"><ele>374.20000000000005</ele><time>2026-05-03T07:31:33.999Z</time></trkpt><trkpt lat="44.836770647930265" lon="9.676662441622467"><ele>375.6</ele><time>2026-05-03T07:31:34.999Z</time></trkpt><trkpt lat="44.83680413799775" lon="9.676808555211055"><ele>377.0</ele><time>2026-05-03T07:31:36.999Z</time></trkpt><trkpt lat="44.83680233665948" lon="9.676901082993815"><ele>378.33333333333337</ele><time>2026-05-03T07:31:38.999Z</time></trkpt><trkpt lat="44.83674479560193" lon="9.676942190004592"><ele>379.6666666666667</ele><time>2026-05-03T07:31:41.999Z</time></trkpt><trkpt lat="44.83662325057011" lon="9.676837960977954"><ele>381.0</ele><time>2026-05-03T07:31:43.999Z</time></trkpt><trkpt lat="44.836561585380515" lon="9.676767552111219"><ele>382.33333333333337</ele><time>2026-05-03T07:31:44.999Z</time></trkpt><trkpt lat="44.83649526732678" lon="9.676700643786296"><ele>383.6666666666667</ele><time>2026-05-03T07:31:45.999Z</time></trkpt><trkpt lat="44.836437865711616" lon="9.676655734134044"><ele>385.0</ele><time>2026-05-03T07:31:46.999Z</time></trkpt><trkpt lat="44.83637178432782" lon="9.676610539552957"><ele>386.0</ele><time>2026-05-03T07:31:47.999Z</time></trkpt><trkpt lat="44.83631548904679" lon="9.676545763883471"><ele>387.0</ele><time>2026-05-03T07:31:48.999Z</time></trkpt><trkpt lat="44.83626115484433" lon="9.676477943869424"><ele>388.0</ele><time>2026-05-03T07:31:49.999Z</time></trkpt><trkpt lat="44.836214425577836" lon="9.676403117457376"><ele>389.0</ele><time>2026-05-03T07:31:50.999Z</time></trkpt><trkpt lat="44.83617560768233" lon="9.676318697004392"><ele>390.0</ele><time>2026-05-03T07:31:51.999Z</time></trkpt><trkpt lat="44.83614522817251" lon="9.67621804149146"><ele>391.0</ele><time>2026-05-03T07:31:52.999Z</time></trkpt><trkpt lat="44.8361251574579" lon="9.676107019670955"><ele>392.0</ele><time>2026-05-03T07:31:53.999Z</time></trkpt><trkpt lat="44.8361033945115" lon="9.675993943569068"><ele>391.99999999999994</ele><time>2026-05-03T07:31:54.999Z</time></trkpt><trkpt lat="44.836075391884336" lon="9.675876528830415"><ele>392.0</ele><time>2026-05-03T07:31:55.999Z</time></trkpt><trkpt lat="44.83604845035658" lon="9.675759901312675"><ele>392.0</ele><time>2026-05-03T07:31:56.999Z</time></trkpt><trkpt lat="44.83602332589772" lon="9.675663920878687"><ele>392.0</ele><time>2026-05-03T07:31:57.999Z</time></trkpt><trkpt lat="44.835977606411454" lon="9.675591509032763"><ele>391.99999999999994</ele><time>2026-05-03T07:31:58.999Z</time></trkpt><trkpt lat="44.83590307644478" lon="9.67555343532828"><ele>392.0</ele><time>2026-05-03T07:31:59.999Z</time></trkpt><trkpt lat="44.835818762450955" lon="9.67551015486896"><ele>395.25</ele><time>2026-05-03T07:32:00.999Z</time></trkpt><trkpt lat="44.835701292848675" lon="9.675513214282738"><ele>398.5</ele><time>2026-05-03T07:32:01.999Z</time></trkpt><trkpt lat="44.83557928452578" lon="9.675531204754122"><ele>401.75</ele><time>2026-05-03T07:32:02.999Z</time></trkpt><trkpt lat="44.835458504539936" lon="9.67554576362346"><ele>405.0</ele><time>2026-05-03T07:32:03.999Z</time></trkpt><trkpt lat="44.835340434931666" lon="9.675548784941588"><ele>405.0</ele><time>2026-05-03T07:32:04.999Z</time></trkpt><trkpt lat="44.835235039498244" lon="9.675551376113866"><ele>405.0</ele><time>2026-05-03T07:32:05.999Z</time></trkpt><trkpt lat="44.83513422410354" lon="9.675566982070537"><ele>405.0</ele><time>2026-05-03T07:32:06.999Z</time></trkpt><trkpt lat="44.835035238955015" lon="9.675596112064248"><ele>405.0</ele><time>2026-05-03T07:32:07.999Z</time></trkpt><trkpt lat="44.83492647773793" lon="9.67561942596099"><ele>405.0</ele><time>2026-05-03T07:32:08.998Z</time></trkpt><trkpt lat="44.83480583816266" lon="9.675648259658884"><ele>404.75</ele><time>2026-05-03T07:32:09.998Z</time></trkpt><trkpt lat="44.83466844383193" lon="9.675682462935692"><ele>404.5</ele><time>2026-05-03T07:32:10.998Z</time></trkpt><trkpt lat="44.834529920472654" lon="9.675723023216962"><ele>404.25</ele><time>2026-05-03T07:32:11.998Z</time></trkpt><trkpt lat="44.83440268542789" lon="9.67574697505561"><ele>404.0</ele><time>2026-05-03T07:32:12.998Z</time></trkpt><trkpt lat="44.834284232667954" lon="9.675753838321087"><ele>404.0</ele><time>2026-05-03T07:32:13.998Z</time></trkpt><trkpt lat="44.83417224598901" lon="9.6757410320706"><ele>404.0</ele><time>2026-05-03T07:32:14.998Z</time></trkpt><trkpt lat="44.834057364836376" lon="9.675713668871792"><ele>404.0</ele><time>2026-05-03T07:32:15.998Z</time></trkpt><trkpt lat="44.833939216775136" lon="9.675672567077061"><ele>404.0</ele><time>2026-05-03T07:32:16.998Z</time></trkpt><trkpt lat="44.83383294701247" lon="9.675634278076673"><ele>403.99999999999994</ele><time>2026-05-03T07:32:17.998Z</time></trkpt><trkpt lat="44.83373872850269" lon="9.675602567805058"><ele>404.0</ele><time>2026-05-03T07:32:18.998Z</time></trkpt><trkpt lat="44.833654168565445" lon="9.675580592415322"><ele>404.0</ele><time>2026-05-03T07:32:19.998Z</time></trkpt><trkpt lat="44.83357862349145" lon="9.675562655653968"><ele>404.0</ele><time>2026-05-03T07:32:20.998Z</time></trkpt><trkpt lat="44.83351167082056" lon="9.67554088894846"><ele>403.99999999999994</ele><time>2026-05-03T07:32:21.998Z</time></trkpt><trkpt lat="44.833447058478335" lon="9.675500284195326"><ele>404.0</ele><time>2026-05-03T07:32:22.998Z</time></trkpt><trkpt lat="44.833382179137644" lon="9.675450696616807"><ele>403.79999999999995</ele><time>2026-05-03T07:32:23.998Z</time></trkpt><trkpt lat="44.83331525736153" lon="9.67537863571132"><ele>403.59999999999997</ele><time>2026-05-03T07:32:24.998Z</time></trkpt><trkpt lat="44.83323369304534" lon="9.675302839389742"><ele>403.4</ele><time>2026-05-03T07:32:25.998Z</time></trkpt><trkpt lat="44.83312797907106" lon="9.675230949472848"><ele>403.2</ele><time>2026-05-03T07:32:26.998Z</time></trkpt><trkpt lat="44.833020631969966" lon="9.675170335715796"><ele>403.0</ele><time>2026-05-03T07:32:27.998Z</time></trkpt><trkpt lat="44.83291953841142" lon="9.675104794777397"><ele>401.5</ele><time>2026-05-03T07:32:28.998Z</time></trkpt><trkpt lat="44.83282512982895" lon="9.675036467746013"><ele>400.0</ele><time>2026-05-03T07:32:29.998Z</time></trkpt><trkpt lat="44.832740691937424" lon="9.674957286230665"><ele>398.5</ele><time>2026-05-03T07:32:30.998Z</time></trkpt><trkpt lat="44.83265143828398" lon="9.674844106001819"><ele>397.0</ele><time>2026-05-03T07:32:31.998Z</time></trkpt><trkpt lat="44.83256610538042" lon="9.674710005535093"><ele>397.20000000000005</ele><time>2026-05-03T07:32:32.998Z</time></trkpt><trkpt lat="44.832481035657246" lon="9.674576943765496"><ele>397.4</ele><time>2026-05-03T07:32:33.998Z</time></trkpt><trkpt lat="44.83240647007311" lon="9.674454557495183"><ele>397.6</ele><time>2026-05-03T07:32:34.998Z</time></trkpt><trkpt lat="44.83234727087173" lon="9.674339926407992"><ele>397.79999999999995</ele><time>2026-05-03T07:32:35.998Z</time></trkpt><trkpt lat="44.8322941542113" lon="9.67421573432705"><ele>398.0</ele><time>2026-05-03T07:32:36.998Z</time></trkpt><trkpt lat="44.832231985526164" lon="9.674074806731035"><ele>398.0</ele><time>2026-05-03T07:32:37.998Z</time></trkpt><trkpt lat="44.832159583750936" lon="9.673918228400233"><ele>398.0</ele><time>2026-05-03T07:32:38.998Z</time></trkpt><trkpt lat="44.83207990245248" lon="9.673751578884646"><ele>398.0</ele><time>2026-05-03T07:32:39.998Z</time></trkpt><trkpt lat="44.83200238798817" lon="9.673592253947964"><ele>398.0</ele><time>2026-05-03T07:32:40.998Z</time></trkpt><trkpt lat="44.83194111985904" lon="9.673468628466384"><ele>398.59999999999997</ele><time>2026-05-03T07:32:41.998Z</time></trkpt><trkpt lat="44.83188665367014" lon="9.673382799046632"><ele>399.2</ele><time>2026-05-03T07:32:42.998Z</time></trkpt><trkpt lat="44.83181982061827" lon="9.67334852260459"><ele>399.8</ele><time>2026-05-03T07:32:43.998Z</time></trkpt><trkpt lat="44.8317360501032" lon="9.673361669075694"><ele>400.4</ele><time>2026-05-03T07:32:44.998Z</time></trkpt><trkpt lat="44.831630010510395" lon="9.673407838909915"><ele>401.0</ele><time>2026-05-03T07:32:45.998Z</time></trkpt><trkpt lat="44.83150209405938" lon="9.673454346132505"><ele>405.25</ele><time>2026-05-03T07:32:46.998Z</time></trkpt><trkpt lat="44.8313626585642" lon="9.673479698866773"><ele>409.5</ele><time>2026-05-03T07:32:47.998Z</time></trkpt><trkpt lat="44.831232892076756" lon="9.673497724813565"><ele>413.75</ele><time>2026-05-03T07:32:48.998Z</time></trkpt><trkpt lat="44.831127231980766" lon="9.67351498047571"><ele>418.0</ele><time>2026-05-03T07:32:49.998Z</time></trkpt><trkpt lat="44.83104962837319" lon="9.673549265134486"><ele>416.79999999999995</ele><time>2026-05-03T07:32:50.998Z</time></trkpt><trkpt lat="44.83099338965299" lon="9.673629083575308"><ele>415.6</ele><time>2026-05-03T07:32:51.998Z</time></trkpt><trkpt lat="44.83093951637334" lon="9.673744636993401"><ele>414.4</ele><time>2026-05-03T07:32:52.998Z</time></trkpt><trkpt lat="44.83087694227807" lon="9.673891352033932"><ele>413.20000000000005</ele><time>2026-05-03T07:32:53.998Z</time></trkpt><trkpt lat="44.830824134322896" lon="9.67402537080913"><ele>412.0</ele><time>2026-05-03T07:32:54.998Z</time></trkpt><trkpt lat="44.83077788304429" lon="9.674105892132035"><ele>416.0</ele><time>2026-05-03T07:32:55.998Z</time></trkpt><trkpt lat="44.830683617493364" lon="9.674133873533757"><ele>420.0</ele><time>2026-05-03T07:32:57.998Z</time></trkpt><trkpt lat="44.83056189145119" lon="9.674064624528526"><ele>424.00000000000006</ele><time>2026-05-03T07:32:59.998Z</time></trkpt><trkpt lat="44.83046938523902" lon="9.674025173768001"><ele>428.0</ele><time>2026-05-03T07:33:00.998Z</time></trkpt><trkpt lat="44.8303528302752" lon="9.67398683004625"><ele>432.0</ele><time>2026-05-03T07:33:01.998Z</time></trkpt><trkpt lat="44.83022294779714" lon="9.67394714493948"><ele>433.0</ele><time>2026-05-03T07:33:02.998Z</time></trkpt><trkpt lat="44.830088653647834" lon="9.673896451891592"><ele>434.0</ele><time>2026-05-03T07:33:03.998Z</time></trkpt><trkpt lat="44.82996601208554" lon="9.673833039096708"><ele>435.0</ele><time>2026-05-03T07:33:04.998Z</time></trkpt><trkpt lat="44.82985270849678" lon="9.673752974122952"><ele>436.0</ele><time>2026-05-03T07:33:05.999Z</time></trkpt><trkpt lat="44.82974935694246" lon="9.673648869763976"><ele>436.75</ele><time>2026-05-03T07:33:06.999Z</time></trkpt><trkpt lat="44.82964339941991" lon="9.673522716698882"><ele>437.5</ele><time>2026-05-03T07:33:07.999Z</time></trkpt><trkpt lat="44.82954851934245" lon="9.673398625075983"><ele>438.25</ele><time>2026-05-03T07:33:08.999Z</time></trkpt><trkpt lat="44.8294728449697" lon="9.673292952166177"><ele>439.0</ele><time>2026-05-03T07:33:09.999Z</time></trkpt><trkpt lat="44.82939908836819" lon="9.67322835623652"><ele>439.00000000000006</ele><time>2026-05-03T07:33:10.999Z</time></trkpt><trkpt lat="44.829325291617025" lon="9.673209656051366"><ele>439.0</ele><time>2026-05-03T07:33:11.999Z</time></trkpt><trkpt lat="44.829254609526814" lon="9.673232437941609"><ele>439.0</ele><time>2026-05-03T07:33:13Z</time></trkpt><trkpt lat="44.8291784364612" lon="9.673300584408379"><ele>439.0</ele><time>2026-05-03T07:33:14Z</time></trkpt><trkpt lat="44.82908163088855" lon="9.673367381944125"><ele>439.00000000000006</ele><time>2026-05-03T07:33:15Z</time></trkpt><trkpt lat="44.828989988622205" lon="9.673403550698517"><ele>439.0</ele><time>2026-05-03T07:33:16Z</time></trkpt><trkpt lat="44.82888845139906" lon="9.673400489241551"><ele>443.5</ele><time>2026-05-03T07:33:17Z</time></trkpt><trkpt lat="44.82876385260976" lon="9.673372316452117"><ele>448.0</ele><time>2026-05-03T07:33:18Z</time></trkpt><trkpt lat="44.82862477927618" lon="9.673344332129842"><ele>452.5</ele><time>2026-05-03T07:33:19Z</time></trkpt><trkpt lat="44.828491317035414" lon="9.673338936054087"><ele>457.0</ele><time>2026-05-03T07:33:20Z</time></trkpt><trkpt lat="44.82837212249053" lon="9.673333456546159"><ele>458.20000000000005</ele><time>2026-05-03T07:33:21Z</time></trkpt><trkpt lat="44.82826932089141" lon="9.673312011588902"><ele>459.40000000000003</ele><time>2026-05-03T07:33:22Z</time></trkpt><trkpt lat="44.82817578845515" lon="9.673262730873349"><ele>460.59999999999997</ele><time>2026-05-03T07:33:23Z</time></trkpt><trkpt lat="44.82807596018372" lon="9.673196842025893"><ele>461.79999999999995</ele><time>2026-05-03T07:33:24Z</time></trkpt><trkpt lat="44.82799117534895" lon="9.673124002477866"><ele>463.0</ele><time>2026-05-03T07:33:25Z</time></trkpt><trkpt lat="44.82792198556395" lon="9.673093876277491"><ele>463.00000000000006</ele><time>2026-05-03T07:33:26Z</time></trkpt><trkpt lat="44.82785453499432" lon="9.673091353822338"><ele>463.0</ele><time>2026-05-03T07:33:27Z</time></trkpt><trkpt lat="44.827785012144965" lon="9.673117305358186"><ele>463.0</ele><time>2026-05-03T07:33:28Z</time></trkpt><trkpt lat="44.827716022141416" lon="9.673152085577687"><ele>463.0</ele><time>2026-05-03T07:33:29Z</time></trkpt><trkpt lat="44.82764314747416" lon="9.673175955372647"><ele>463.00000000000006</ele><time>2026-05-03T07:33:30Z</time></trkpt><trkpt lat="44.827543565543834" lon="9.673194770508587"><ele>463.0</ele><time>2026-05-03T07:33:31Z</time></trkpt><trkpt lat="44.82742276979226" lon="9.673237696080593"><ele>465.6666666666667</ele><time>2026-05-03T07:33:32Z</time></trkpt><trkpt lat="44.82728755940214" lon="9.67332727263286"><ele>468.33333333333337</ele><time>2026-05-03T07:33:33Z</time></trkpt><trkpt lat="44.827139412792384" lon="9.673419752064827"><ele>471.0</ele><time>2026-05-03T07:33:34Z</time></trkpt><trkpt lat="44.827011293028626" lon="9.673507157221733"><ele>471.0</ele><time>2026-05-03T07:33:35Z</time></trkpt><trkpt lat="44.826913819939136" lon="9.673594844818894"><ele>471.0</ele><time>2026-05-03T07:33:36Z</time></trkpt><trkpt lat="44.826836231085075" lon="9.673682477416484"><ele>471.0</ele><time>2026-05-03T07:33:37Z</time></trkpt><trkpt lat="44.826759727174284" lon="9.67373065771341"><ele>471.0</ele><time>2026-05-03T07:33:38Z</time></trkpt><trkpt lat="44.826666692724714" lon="9.673710497740247"><ele>471.0</ele><time>2026-05-03T07:33:39Z</time></trkpt><trkpt lat="44.82656271050783" lon="9.673651484007738"><ele>473.25</ele><time>2026-05-03T07:33:40Z</time></trkpt><trkpt lat="44.826451839465356" lon="9.673567220792455"><ele>475.5</ele><time>2026-05-03T07:33:41Z</time></trkpt><trkpt lat="44.82633367917631" lon="9.673474672419575"><ele>477.75</ele><time>2026-05-03T07:33:42Z</time></trkpt><trkpt lat="44.826205606078666" lon="9.673389857842592"><ele>480.0</ele><time>2026-05-03T07:33:43Z</time></trkpt><trkpt lat="44.826086301284256" lon="9.673298207911179"><ele>480.0</ele><time>2026-05-03T07:33:44Z</time></trkpt><trkpt lat="44.825993658577524" lon="9.673185049271588"><ele>480.0</ele><time>2026-05-03T07:33:44.999Z</time></trkpt><trkpt lat="44.82592407114752" lon="9.673052470403125"><ele>480.0</ele><time>2026-05-03T07:33:45.999Z</time></trkpt><trkpt lat="44.82586213506042" lon="9.672923406620457"><ele>480.0</ele><time>2026-05-03T07:33:46.999Z</time></trkpt><trkpt lat="44.8257810139567" lon="9.672818715062345"><ele>482.5</ele><time>2026-05-03T07:33:47.999Z</time></trkpt><trkpt lat="44.82567336619152" lon="9.672733982088083"><ele>485.0</ele><time>2026-05-03T07:33:48.999Z</time></trkpt><trkpt lat="44.82555232175295" lon="9.672648132038331"><ele>487.5</ele><time>2026-05-03T07:33:49.999Z</time></trkpt><trkpt lat="44.82543550741242" lon="9.672542135945385"><ele>490.0</ele><time>2026-05-03T07:33:50.999Z</time></trkpt><trkpt lat="44.8253319156872" lon="9.672407586763708"><ele>490.0</ele><time>2026-05-03T07:33:51.999Z</time></trkpt><trkpt lat="44.825232979264776" lon="9.672255612992112"><ele>490.0</ele><time>2026-05-03T07:33:52.999Z</time></trkpt><trkpt lat="44.82512774444831" lon="9.67211526772179"><ele>490.0</ele><time>2026-05-03T07:33:53.999Z</time></trkpt><trkpt lat="44.825027318085866" lon="9.671999620812219"><ele>490.0</ele><time>2026-05-03T07:33:54.999Z</time></trkpt><trkpt lat="44.82493161281261" lon="9.671906481700166"><ele>493.25</ele><time>2026-05-03T07:33:55.999Z</time></trkpt><trkpt lat="44.82483532777282" lon="9.67181648870938"><ele>496.5</ele><time>2026-05-03T07:33:56.999Z</time></trkpt><trkpt lat="44.82475345939552" lon="9.671688401512055"><ele>499.75</ele><time>2026-05-03T07:33:57.999Z</time></trkpt><trkpt lat="44.82467561091498" lon="9.671558211388799"><ele>503.0</ele><time>2026-05-03T07:33:58.999Z</time></trkpt><trkpt lat="44.82460709130971" lon="9.671411992618152"><ele>503.0</ele><time>2026-05-03T07:33:59.999Z</time></trkpt><trkpt lat="44.824537810657375" lon="9.671266185175048"><ele>503.0</ele><time>2026-05-03T07:34:00.999Z</time></trkpt><trkpt lat="44.82444861861853" lon="9.671138773225485"><ele>503.0</ele><time>2026-05-03T07:34:01.999Z</time></trkpt><trkpt lat="44.824331265948516" lon="9.671028139731765"><ele>503.0</ele><time>2026-05-03T07:34:02.999Z</time></trkpt><trkpt lat="44.82419690882238" lon="9.670934096871607"><ele>505.75</ele><time>2026-05-03T07:34:03.999Z</time></trkpt><trkpt lat="44.824075781230434" lon="9.670836437568207"><ele>508.5</ele><time>2026-05-03T07:34:04.999Z</time></trkpt><trkpt lat="44.823980264466215" lon="9.670728190245214"><ele>511.25</ele><time>2026-05-03T07:34:05.999Z</time></trkpt><trkpt lat="44.82387998297847" lon="9.67063326646175"><ele>514.0</ele><time>2026-05-03T07:34:06.999Z</time></trkpt><trkpt lat="44.823772927139515" lon="9.670568993287675"><ele>514.0</ele><time>2026-05-03T07:34:07.999Z</time></trkpt><trkpt lat="44.823646275582426" lon="9.670506284076975"><ele>514.0</ele><time>2026-05-03T07:34:08.999Z</time></trkpt><trkpt lat="44.823506004993" lon="9.670458083887388"><ele>514.0</ele><time>2026-05-03T07:34:09.999Z</time></trkpt><trkpt lat="44.8233503979443" lon="9.670415365350781"><ele>514.0</ele><time>2026-05-03T07:34:10.999Z</time></trkpt><trkpt lat="44.823199569395605" lon="9.670374389057022"><ele>515.5</ele><time>2026-05-03T07:34:11.999Z</time></trkpt><trkpt lat="44.82305687755909" lon="9.670326441285493"><ele>517.0</ele><time>2026-05-03T07:34:12.999Z</time></trkpt><trkpt lat="44.822928951053974" lon="9.670279205701576"><ele>518.5</ele><time>2026-05-03T07:34:13.999Z</time></trkpt><trkpt lat="44.82280514300454" lon="9.670222982533284"><ele>520.0</ele><time>2026-05-03T07:34:14.999Z</time></trkpt><trkpt lat="44.82268673741854" lon="9.67016446329607"><ele>521.0</ele><time>2026-05-03T07:34:15.999Z</time></trkpt><trkpt lat="44.82256654991021" lon="9.67010483638613"><ele>522.0</ele><time>2026-05-03T07:34:16.999Z</time></trkpt><trkpt lat="44.82243785645456" lon="9.670043114290126"><ele>523.0</ele><time>2026-05-03T07:34:17.999Z</time></trkpt><trkpt lat="44.8223084841819" lon="9.669976303991092"><ele>524.0</ele><time>2026-05-03T07:34:18.999Z</time></trkpt><trkpt lat="44.82218344827844" lon="9.669890612462112"><ele>524.0</ele><time>2026-05-03T07:34:19.999Z</time></trkpt><trkpt lat="44.82207226896718" lon="9.669770090602906"><ele>524.0</ele><time>2026-05-03T07:34:20.999Z</time></trkpt><trkpt lat="44.82198073725416" lon="9.669620135183289"><ele>524.0</ele><time>2026-05-03T07:34:21.999Z</time></trkpt><trkpt lat="44.8219099843206" lon="9.669437003177585"><ele>524.0</ele><time>2026-05-03T07:34:22.999Z</time></trkpt><trkpt lat="44.82186062202249" lon="9.66924296527129"><ele>525.25</ele><time>2026-05-03T07:34:23.999Z</time></trkpt><trkpt lat="44.82181352580901" lon="9.669080539803934"><ele>526.5</ele><time>2026-05-03T07:34:24.999Z</time></trkpt><trkpt lat="44.8217455145427" lon="9.668928635105486"><ele>527.75</ele><time>2026-05-03T07:34:25.999Z</time></trkpt><trkpt lat="44.82166353754373" lon="9.66878175095107"><ele>529.0</ele><time>2026-05-03T07:34:26.999Z</time></trkpt><trkpt lat="44.821578230072234" lon="9.668635762019658"><ele>528.5</ele><time>2026-05-03T07:34:27.999Z</time></trkpt><trkpt lat="44.82149827136174" lon="9.668489508954453"><ele>528.0</ele><time>2026-05-03T07:34:28.999Z</time></trkpt><trkpt lat="44.82142083659698" lon="9.668344655787438"><ele>527.5</ele><time>2026-05-03T07:34:29.999Z</time></trkpt><trkpt lat="44.82134034773837" lon="9.668204623456681"><ele>527.0</ele><time>2026-05-03T07:34:30.999Z</time></trkpt><trkpt lat="44.821260828363435" lon="9.668066947969727"><ele>527.0</ele><time>2026-05-03T07:34:31.999Z</time></trkpt><trkpt lat="44.82118605993554" lon="9.6679295548911"><ele>527.0</ele><time>2026-05-03T07:34:32.999Z</time></trkpt><trkpt lat="44.82111609797306" lon="9.667783549787515"><ele>527.0</ele><time>2026-05-03T07:34:33.999Z</time></trkpt><trkpt lat="44.821057058433404" lon="9.667625065063273"><ele>527.0</ele><time>2026-05-03T07:34:34.999Z</time></trkpt><trkpt lat="44.82100272534856" lon="9.667459974460915"><ele>528.0</ele><time>2026-05-03T07:34:35.999Z</time></trkpt><trkpt lat="44.82094430547168" lon="9.667293098471271"><ele>529.0</ele><time>2026-05-03T07:34:36.999Z</time></trkpt><trkpt lat="44.82088522721585" lon="9.667136823745539"><ele>530.0</ele><time>2026-05-03T07:34:37.999Z</time></trkpt><trkpt lat="44.82082548229757" lon="9.666986359850757"><ele>531.0</ele><time>2026-05-03T07:34:38.999Z</time></trkpt><trkpt lat="44.82077101965757" lon="9.666849992951011"><ele>531.0</ele><time>2026-05-03T07:34:39.999Z</time></trkpt><trkpt lat="44.82072454196848" lon="9.66670479204093"><ele>531.0</ele><time>2026-05-03T07:34:40.999Z</time></trkpt><trkpt lat="44.82070040132494" lon="9.66654836285214"><ele>531.0</ele><time>2026-05-03T07:34:41.999Z</time></trkpt><trkpt lat="44.82071248627866" lon="9.666408888364996"><ele>531.0</ele><time>2026-05-03T07:34:42.999Z</time></trkpt><trkpt lat="44.82076341824316" lon="9.666270656793058"><ele>531.0</ele><time>2026-05-03T07:34:43.999Z</time></trkpt><trkpt lat="44.82081829062903" lon="9.666159799034615"><ele>529.4</ele><time>2026-05-03T07:34:44.999Z</time></trkpt><trkpt lat="44.8208356084962" lon="9.666035993705465"><ele>527.8</ele><time>2026-05-03T07:34:45.999Z</time></trkpt><trkpt lat="44.82081567396653" lon="9.665900249727239"><ele>526.1999999999999</ele><time>2026-05-03T07:34:46.999Z</time></trkpt><trkpt lat="44.82075539246253" lon="9.665760765043816"><ele>524.6</ele><time>2026-05-03T07:34:47.999Z</time></trkpt><trkpt lat="44.82066999786317" lon="9.665624523511188"><ele>523.0</ele><time>2026-05-03T07:34:48.999Z</time></trkpt><trkpt lat="44.82057300261891" lon="9.665523476851801"><ele>523.0</ele><time>2026-05-03T07:34:49.999Z</time></trkpt><trkpt lat="44.820456039447535" lon="9.665460956498206"><ele>523.0</ele><time>2026-05-03T07:34:50.999Z</time></trkpt><trkpt lat="44.82033523883093" lon="9.665429918514013"><ele>523.0</ele><time>2026-05-03T07:34:51.998Z</time></trkpt><trkpt lat="44.820211420272" lon="9.665429599955129"><ele>523.0</ele><time>2026-05-03T07:34:52.998Z</time></trkpt><trkpt lat="44.82009514952726" lon="9.66543413861191"><ele>522.0</ele><time>2026-05-03T07:34:53.998Z</time></trkpt><trkpt lat="44.81998137573957" lon="9.665419653242893"><ele>521.0</ele><time>2026-05-03T07:34:54.998Z</time></trkpt><trkpt lat="44.81987688909774" lon="9.665414275062828"><ele>520.0</ele><time>2026-05-03T07:34:55.998Z</time></trkpt><trkpt lat="44.81976966471495" lon="9.665424681797681"><ele>519.0</ele><time>2026-05-03T07:34:56.998Z</time></trkpt><trkpt lat="44.81966456391203" lon="9.665475214118558"><ele>518.0</ele><time>2026-05-03T07:34:57.998Z</time></trkpt><trkpt lat="44.81956873175329" lon="9.66555560363614"><ele>518.0</ele><time>2026-05-03T07:34:58.998Z</time></trkpt><trkpt lat="44.81948349495656" lon="9.66564414028532"><ele>518.0</ele><time>2026-05-03T07:34:59.998Z</time></trkpt><trkpt lat="44.81939063203066" lon="9.665713365079398"><ele>518.0</ele><time>2026-05-03T07:35:00.998Z</time></trkpt><trkpt lat="44.819277933678485" lon="9.665763149438122"><ele>518.0</ele><time>2026-05-03T07:35:01.998Z</time></trkpt><trkpt lat="44.81916147898068" lon="9.665786810818894"><ele>518.0</ele><time>2026-05-03T07:35:02.998Z</time></trkpt><trkpt lat="44.81905506351172" lon="9.665803300217032"><ele>516.5</ele><time>2026-05-03T07:35:03.998Z</time></trkpt><trkpt lat="44.818969065155386" lon="9.665795822104114"><ele>515.0</ele><time>2026-05-03T07:35:04.998Z</time></trkpt><trkpt lat="44.81889268217966" lon="9.665765136111698"><ele>513.5</ele><time>2026-05-03T07:35:05.998Z</time></trkpt><trkpt lat="44.81883541475898" lon="9.665716536364355"><ele>512.0</ele><time>2026-05-03T07:35:06.998Z</time></trkpt><trkpt lat="44.81877233079184" lon="9.665630044843386"><ele>510.49999999999994</ele><time>2026-05-03T07:35:08.998Z</time></trkpt><trkpt lat="44.81868353006596" lon="9.665557831263461"><ele>509.0</ele><time>2026-05-03T07:35:10.998Z</time></trkpt><trkpt lat="44.81859152813958" lon="9.665520211221695"><ele>508.99999999999994</ele><time>2026-05-03T07:35:13Z</time></trkpt><trkpt lat="44.81855567507503" lon="9.665428743321609"><ele>509.0</ele><time>2026-05-03T07:35:24Z</time></trkpt><trkpt lat="44.818538053732496" lon="9.66528785684336"><ele>509.0</ele><time>2026-05-03T07:35:26Z</time></trkpt><trkpt lat="44.81852626637508" lon="9.665195638174227"><ele>509.0</ele><time>2026-05-03T07:35:27Z</time></trkpt><trkpt lat="44.81855201081072" lon="9.665098712135235"><ele>508.99999999999994</ele><time>2026-05-03T07:35:28Z</time></trkpt><trkpt lat="44.81859705505984" lon="9.664974575990357"><ele>509.0</ele><time>2026-05-03T07:35:29Z</time></trkpt><trkpt lat="44.81862192660936" lon="9.664853085141466"><ele>508.79999999999995</ele><time>2026-05-03T07:35:30Z</time></trkpt><trkpt lat="44.818637575772485" lon="9.664740994067051"><ele>508.59999999999997</ele><time>2026-05-03T07:35:31Z</time></trkpt><trkpt lat="44.81866564244765" lon="9.664588014992756"><ele>508.4</ele><time>2026-05-03T07:35:33Z</time></trkpt><trkpt lat="44.81869220230944" lon="9.664421928093796"><ele>508.2</ele><time>2026-05-03T07:35:35Z</time></trkpt><trkpt lat="44.818745925022455" lon="9.664335842862064"><ele>508.0</ele><time>2026-05-03T07:35:36Z</time></trkpt><trkpt lat="44.818786524904844" lon="9.66425149726666"><ele>509.33333333333337</ele><time>2026-05-03T07:35:37Z</time></trkpt><trkpt lat="44.81883470156782" lon="9.664139697317443"><ele>510.6666666666667</ele><time>2026-05-03T07:35:38Z</time></trkpt><trkpt lat="44.81888118327813" lon="9.664033628084027"><ele>512.0</ele><time>2026-05-03T07:35:39Z</time></trkpt><trkpt lat="44.81890657513853" lon="9.663922221932829"><ele>513.3333333333334</ele><time>2026-05-03T07:35:40Z</time></trkpt><trkpt lat="44.81889776885474" lon="9.663818363419773"><ele>514.6666666666666</ele><time>2026-05-03T07:35:41Z</time></trkpt><trkpt lat="44.81887118265387" lon="9.66371840420467"><ele>516.0</ele><time>2026-05-03T07:35:42Z</time></trkpt><trkpt lat="44.81884915355286" lon="9.663611228498258"><ele>517.8</ele><time>2026-05-03T07:35:43Z</time></trkpt><trkpt lat="44.818794534250124" lon="9.663522461917438"><ele>519.6</ele><time>2026-05-03T07:35:45Z</time></trkpt><trkpt lat="44.81874950792736" lon="9.66342981288306"><ele>521.4</ele><time>2026-05-03T07:35:46Z</time></trkpt><trkpt lat="44.81873100532481" lon="9.663284683083853"><ele>523.2</ele><time>2026-05-03T07:35:47Z</time></trkpt><trkpt lat="44.818715595558885" lon="9.663165746694037"><ele>525.0</ele><time>2026-05-03T07:35:48Z</time></trkpt><trkpt lat="44.8186761956495" lon="9.663030947056479"><ele>525.0</ele><time>2026-05-03T07:35:49Z</time></trkpt><trkpt lat="44.81863720342376" lon="9.662928479498616"><ele>525.0</ele><time>2026-05-03T07:35:50Z</time></trkpt><trkpt lat="44.81858172061875" lon="9.66287218750656"><ele>525.0</ele><time>2026-05-03T07:35:51Z</time></trkpt><trkpt lat="44.8185413373639" lon="9.662798089031115"><ele>525.0</ele><time>2026-05-03T07:35:51.999Z</time></trkpt><trkpt lat="44.818449568561824" lon="9.662682052361394"><ele>525.0</ele><time>2026-05-03T07:35:53.999Z</time></trkpt><trkpt lat="44.81834227380194" lon="9.662584090846687"><ele>530.0</ele><time>2026-05-03T07:35:55.999Z</time></trkpt><trkpt lat="44.81827995889607" lon="9.662542731937831"><ele>535.0</ele><time>2026-05-03T07:35:56.999Z</time></trkpt><trkpt lat="44.81818546486803" lon="9.662552115793952"><ele>540.0</ele><time>2026-05-03T07:35:58.999Z</time></trkpt><trkpt lat="44.818088114246095" lon="9.662589271391852"><ele>545.0</ele><time>2026-05-03T07:36:00.999Z</time></trkpt><trkpt lat="44.81796917793366" lon="9.662506969834569"><ele>550.0</ele><time>2026-05-03T07:36:02.999Z</time></trkpt><trkpt lat="44.81793242129296" lon="9.662409408463459"><ele>550.0</ele><time>2026-05-03T07:36:03.999Z</time></trkpt><trkpt lat="44.81790240636033" lon="9.662274450980979"><ele>550.0</ele><time>2026-05-03T07:36:04.999Z</time></trkpt><trkpt lat="44.81786306649093" lon="9.662113722490119"><ele>550.0</ele><time>2026-05-03T07:36:05.999Z</time></trkpt><trkpt lat="44.81780125489994" lon="9.661953051003442"><ele>550.0</ele><time>2026-05-03T07:36:06.999Z</time></trkpt><trkpt lat="44.817723126695334" lon="9.661802629252026"><ele>551.5</ele><time>2026-05-03T07:36:07.999Z</time></trkpt><trkpt lat="44.817626565920996" lon="9.661626223544921"><ele>553.0</ele><time>2026-05-03T07:36:08.999Z</time></trkpt><trkpt lat="44.81753673303281" lon="9.661451592649625"><ele>554.5</ele><time>2026-05-03T07:36:09.999Z</time></trkpt><trkpt lat="44.81746722589701" lon="9.66131296239424"><ele>556.0</ele><time>2026-05-03T07:36:10.999Z</time></trkpt><trkpt lat="44.81740731503096" lon="9.661220543399274"><ele>556.0</ele><time>2026-05-03T07:36:11.999Z</time></trkpt><trkpt lat="44.817346119632816" lon="9.661175980113445"><ele>556.0</ele><time>2026-05-03T07:36:12.999Z</time></trkpt><trkpt lat="44.81728434687173" lon="9.6611497768792"><ele>556.0</ele><time>2026-05-03T07:36:13.999Z</time></trkpt><trkpt lat="44.81721783417573" lon="9.661117662629032"><ele>556.0</ele><time>2026-05-03T07:36:14.999Z</time></trkpt><trkpt lat="44.817127719102274" lon="9.66104900396536"><ele>556.0</ele><time>2026-05-03T07:36:15.999Z</time></trkpt><trkpt lat="44.817020910035474" lon="9.660947523850659"><ele>556.0</ele><time>2026-05-03T07:36:16.999Z</time></trkpt><trkpt lat="44.8169266585107" lon="9.660831984449404"><ele>556.75</ele><time>2026-05-03T07:36:17.999Z</time></trkpt><trkpt lat="44.81684119766369" lon="9.660705619899847"><ele>557.5</ele><time>2026-05-03T07:36:18.999Z</time></trkpt><trkpt lat="44.81675387455303" lon="9.660564312145711"><ele>558.25</ele><time>2026-05-03T07:36:19.999Z</time></trkpt><trkpt lat="44.81667851128204" lon="9.660430196510418"><ele>559.0</ele><time>2026-05-03T07:36:20.999Z</time></trkpt><trkpt lat="44.81661354971504" lon="9.660300978170046"><ele>561.0</ele><time>2026-05-03T07:36:21.999Z</time></trkpt><trkpt lat="44.81655661205814" lon="9.660165794187963"><ele>563.0</ele><time>2026-05-03T07:36:22.999Z</time></trkpt><trkpt lat="44.816512099072646" lon="9.660038367070308"><ele>565.0</ele><time>2026-05-03T07:36:23.999Z</time></trkpt><trkpt lat="44.81647341672241" lon="9.659919024777853"><ele>567.0</ele><time>2026-05-03T07:36:24.999Z</time></trkpt><trkpt lat="44.81641997318312" lon="9.659806404450269"><ele>569.0</ele><time>2026-05-03T07:36:25.999Z</time></trkpt><trkpt lat="44.81635331899646" lon="9.659712273929898"><ele>569.0</ele><time>2026-05-03T07:36:26.999Z</time></trkpt><trkpt lat="44.816275256436526" lon="9.659621978787534"><ele>569.0</ele><time>2026-05-03T07:36:27.999Z</time></trkpt><trkpt lat="44.81617824114815" lon="9.659537266463607"><ele>569.0</ele><time>2026-05-03T07:36:28.999Z</time></trkpt><trkpt lat="44.81607967233401" lon="9.659467111935493"><ele>569.0</ele><time>2026-05-03T07:36:29.999Z</time></trkpt><trkpt lat="44.815998006241074" lon="9.65941227185576"><ele>569.0</ele><time>2026-05-03T07:36:30.999Z</time></trkpt><trkpt lat="44.81592135598991" lon="9.659372329080094"><ele>569.4</ele><time>2026-05-03T07:36:31.999Z</time></trkpt><trkpt lat="44.815831967947645" lon="9.65932553146328"><ele>569.8</ele><time>2026-05-03T07:36:32.999Z</time></trkpt><trkpt lat="44.81574532713675" lon="9.65926749573369"><ele>570.2</ele><time>2026-05-03T07:36:33.999Z</time></trkpt><trkpt lat="44.81566310901012" lon="9.659199789725491"><ele>570.6</ele><time>2026-05-03T07:36:34.999Z</time></trkpt><trkpt lat="44.81558527666703" lon="9.659111792559262"><ele>571.0</ele><time>2026-05-03T07:36:35.999Z</time></trkpt><trkpt lat="44.81551159588069" lon="9.65900721625445"><ele>571.0</ele><time>2026-05-03T07:36:36.999Z</time></trkpt><trkpt lat="44.81544006628264" lon="9.658894262073764"><ele>571.0</ele><time>2026-05-03T07:36:37.999Z</time></trkpt><trkpt lat="44.815369133618034" lon="9.658773984966828"><ele>571.0</ele><time>2026-05-03T07:36:38.999Z</time></trkpt><trkpt lat="44.81529853732596" lon="9.658662563699467"><ele>571.0</ele><time>2026-05-03T07:36:39.999Z</time></trkpt><trkpt lat="44.8152475947795" lon="9.658582806813119"><ele>571.0</ele><time>2026-05-03T07:36:40.999Z</time></trkpt><trkpt lat="44.815191473580896" lon="9.658498409421846"><ele>570.8</ele><time>2026-05-03T07:36:41.999Z</time></trkpt><trkpt lat="44.815136822623394" lon="9.65842443118942"><ele>570.6</ele><time>2026-05-03T07:36:42.999Z</time></trkpt><trkpt lat="44.815067919736016" lon="9.658345134302687"><ele>570.4</ele><time>2026-05-03T07:36:43.999Z</time></trkpt><trkpt lat="44.81498246811193" lon="9.658260929390647"><ele>570.2</ele><time>2026-05-03T07:36:44.999Z</time></trkpt><trkpt lat="44.814893131496966" lon="9.658164789302333"><ele>570.0</ele><time>2026-05-03T07:36:45.999Z</time></trkpt><trkpt lat="44.8148024478535" lon="9.658062650812685"><ele>570.0</ele><time>2026-05-03T07:36:46.999Z</time></trkpt><trkpt lat="44.81473720835436" lon="9.657976640360042"><ele>570.0</ele><time>2026-05-03T07:36:47.999Z</time></trkpt><trkpt lat="44.814675189114396" lon="9.657902011410346"><ele>570.0</ele><time>2026-05-03T07:36:48.999Z</time></trkpt><trkpt lat="44.814601307360284" lon="9.657822720623509"><ele>570.0</ele><time>2026-05-03T07:36:49.999Z</time></trkpt><trkpt lat="44.814525314580735" lon="9.657730427860862"><ele>570.0</ele><time>2026-05-03T07:36:50.999Z</time></trkpt><trkpt lat="44.81446329572402" lon="9.65764007455586"><ele>570.8</ele><time>2026-05-03T07:36:51.999Z</time></trkpt><trkpt lat="44.814407310317215" lon="9.657582105855532"><ele>571.6</ele><time>2026-05-03T07:36:52.999Z</time></trkpt><trkpt lat="44.814331894032826" lon="9.657544290154126"><ele>572.4</ele><time>2026-05-03T07:36:53.999Z</time></trkpt><trkpt lat="44.8142481939533" lon="9.657460487806883"><ele>573.2</ele><time>2026-05-03T07:36:54.999Z</time></trkpt><trkpt lat="44.814166664609445" lon="9.657311573520257"><ele>574.0</ele><time>2026-05-03T07:36:55.999Z</time></trkpt><trkpt lat="44.8141065499905" lon="9.657138607276229"><ele>575.25</ele><time>2026-05-03T07:36:56.998Z</time></trkpt><trkpt lat="44.81406380397105" lon="9.656968822586878"><ele>576.5</ele><time>2026-05-03T07:36:57.998Z</time></trkpt><trkpt lat="44.814027616135526" lon="9.65679682181147"><ele>577.75</ele><time>2026-05-03T07:36:58.998Z</time></trkpt><trkpt lat="44.81398616225566" lon="9.656635047008672"><ele>579.0</ele><time>2026-05-03T07:36:59.998Z</time></trkpt><trkpt lat="44.81393751360007" lon="9.656480308170991"><ele>581.2</ele><time>2026-05-03T07:37:00.998Z</time></trkpt><trkpt lat="44.813894745672904" lon="9.656334785632513"><ele>583.4</ele><time>2026-05-03T07:37:01.998Z</time></trkpt><trkpt lat="44.813858645567684" lon="9.656204757042673"><ele>585.6</ele><time>2026-05-03T07:37:02.998Z</time></trkpt><trkpt lat="44.813814719658495" lon="9.65608590243731"><ele>587.8</ele><time>2026-05-03T07:37:03.998Z</time></trkpt><trkpt lat="44.813758646972126" lon="9.655974170214542"><ele>590.0</ele><time>2026-05-03T07:37:04.998Z</time></trkpt><trkpt lat="44.81368565013311" lon="9.65587670103461"><ele>590.0</ele><time>2026-05-03T07:37:05.998Z</time></trkpt><trkpt lat="44.813610652706345" lon="9.655784333188798"><ele>590.0</ele><time>2026-05-03T07:37:06.998Z</time></trkpt><trkpt lat="44.81355466419214" lon="9.655683349517153"><ele>590.0</ele><time>2026-05-03T07:37:07.998Z</time></trkpt><trkpt lat="44.813520019461315" lon="9.655558130550647"><ele>590.0</ele><time>2026-05-03T07:37:08.998Z</time></trkpt><trkpt lat="44.813504949297645" lon="9.655403446164495"><ele>590.0</ele><time>2026-05-03T07:37:09.998Z</time></trkpt><trkpt lat="44.8134924828736" lon="9.65524477830929"><ele>590.2</ele><time>2026-05-03T07:37:10.998Z</time></trkpt><trkpt lat="44.81348439587262" lon="9.655089163725043"><ele>590.4</ele><time>2026-05-03T07:37:11.998Z</time></trkpt><trkpt lat="44.81347537020145" lon="9.654938621978317"><ele>590.6</ele><time>2026-05-03T07:37:12.998Z</time></trkpt><trkpt lat="44.81346991063028" lon="9.654804517590232"><ele>590.8</ele><time>2026-05-03T07:37:13.998Z</time></trkpt><trkpt lat="44.813464658684474" lon="9.654690104682048"><ele>591.0</ele><time>2026-05-03T07:37:14.998Z</time></trkpt><trkpt lat="44.81344711438464" lon="9.65459659632081"><ele>591.0</ele><time>2026-05-03T07:37:15.998Z</time></trkpt><trkpt lat="44.81334476740303" lon="9.654475478834714"><ele>591.0</ele><time>2026-05-03T07:37:18Z</time></trkpt><trkpt lat="44.813263404028994" lon="9.65444885915583"><ele>591.0</ele><time>2026-05-03T07:37:19Z</time></trkpt><trkpt lat="44.81317299640566" lon="9.654427881634815"><ele>591.0</ele><time>2026-05-03T07:37:20Z</time></trkpt><trkpt lat="44.81308406906888" lon="9.654428619584904"><ele>591.0</ele><time>2026-05-03T07:37:21Z</time></trkpt><trkpt lat="44.812995645746675" lon="9.654456429001703"><ele>591.0</ele><time>2026-05-03T07:37:22Z</time></trkpt><trkpt lat="44.81291932079764" lon="9.65450672466377"><ele>591.0</ele><time>2026-05-03T07:37:23Z</time></trkpt><trkpt lat="44.81284823631453" lon="9.654587240781655"><ele>591.0</ele><time>2026-05-03T07:37:24Z</time></trkpt><trkpt lat="44.812781808951584" lon="9.654677623929409"><ele>591.0</ele><time>2026-05-03T07:37:25Z</time></trkpt><trkpt lat="44.81272743114921" lon="9.654744536686826"><ele>591.0</ele><time>2026-05-03T07:37:26Z</time></trkpt><trkpt lat="44.81263546827115" lon="9.654801548528335"><ele>591.0</ele><time>2026-05-03T07:37:28Z</time></trkpt><trkpt lat="44.812522319660026" lon="9.654726635719621"><ele>589.3333333333334</ele><time>2026-05-03T07:37:30Z</time></trkpt><trkpt lat="44.81248511721011" lon="9.654634502486442"><ele>587.6666666666666</ele><time>2026-05-03T07:37:31Z</time></trkpt><trkpt lat="44.812453576653866" lon="9.65454508930955"><ele>586.0</ele><time>2026-05-03T07:37:32Z</time></trkpt><trkpt lat="44.81240401000405" lon="9.654477824354435"><ele>584.3333333333333</ele><time>2026-05-03T07:37:33Z</time></trkpt><trkpt lat="44.812332767211394" lon="9.654444740084271"><ele>582.6666666666666</ele><time>2026-05-03T07:37:34Z</time></trkpt><trkpt lat="44.81224971366933" lon="9.654453268643957"><ele>581.0</ele><time>2026-05-03T07:37:35Z</time></trkpt><trkpt lat="44.812154901605545" lon="9.65449297035872"><ele>581.0</ele><time>2026-05-03T07:37:36Z</time></trkpt><trkpt lat="44.812037949556725" lon="9.65456527335385"><ele>581.0</ele><time>2026-05-03T07:37:37Z</time></trkpt><trkpt lat="44.81190919632689" lon="9.654658787023937"><ele>581.0</ele><time>2026-05-03T07:37:38Z</time></trkpt><trkpt lat="44.811784011624205" lon="9.654746636468465"><ele>581.0</ele><time>2026-05-03T07:37:39Z</time></trkpt><trkpt lat="44.8116575008223" lon="9.654797133024552"><ele>579.5</ele><time>2026-05-03T07:37:40Z</time></trkpt><trkpt lat="44.811533392174525" lon="9.654813220625833"><ele>578.0</ele><time>2026-05-03T07:37:41Z</time></trkpt><trkpt lat="44.81141697554791" lon="9.654815134586418"><ele>576.5</ele><time>2026-05-03T07:37:42Z</time></trkpt><trkpt lat="44.811313647587674" lon="9.654798268661208"><ele>575.0</ele><time>2026-05-03T07:37:43Z</time></trkpt><trkpt lat="44.811206666923624" lon="9.654777184149326"><ele>575.0</ele><time>2026-05-03T07:37:44Z</time></trkpt><trkpt lat="44.81109011980539" lon="9.654737082074586"><ele>575.0</ele><time>2026-05-03T07:37:45Z</time></trkpt><trkpt lat="44.810970100414444" lon="9.65468755367728"><ele>575.0</ele><time>2026-05-03T07:37:46Z</time></trkpt><trkpt lat="44.81086078901524" lon="9.654654818484119"><ele>575.0</ele><time>2026-05-03T07:37:47Z</time></trkpt><trkpt lat="44.810764305489336" lon="9.654621440154639"><ele>575.2</ele><time>2026-05-03T07:37:48Z</time></trkpt><trkpt lat="44.810671624835486" lon="9.654552776201992"><ele>575.4</ele><time>2026-05-03T07:37:49Z</time></trkpt><trkpt lat="44.810578758967225" lon="9.654493498099754"><ele>575.6</ele><time>2026-05-03T07:37:50Z</time></trkpt><trkpt lat="44.81047497052451" lon="9.654473362216038"><ele>575.8</ele><time>2026-05-03T07:37:51Z</time></trkpt><trkpt lat="44.81037783202301" lon="9.654483591212076"><ele>576.0</ele><time>2026-05-03T07:37:52Z</time></trkpt><trkpt lat="44.81027839384372" lon="9.654516076879313"><ele>576.0</ele><time>2026-05-03T07:37:53Z</time></trkpt><trkpt lat="44.81018868601482" lon="9.654544765049954"><ele>576.0</ele><time>2026-05-03T07:37:54Z</time></trkpt><trkpt lat="44.810114150195155" lon="9.654565275715727"><ele>576.0</ele><time>2026-05-03T07:37:55Z</time></trkpt><trkpt lat="44.81004116446866" lon="9.654596312985632"><ele>576.0</ele><time>2026-05-03T07:37:56Z</time></trkpt><trkpt lat="44.809974605167696" lon="9.654650909016475"><ele>576.0</ele><time>2026-05-03T07:37:57Z</time></trkpt><trkpt lat="44.8099082851971" lon="9.65472264936899"><ele>576.0</ele><time>2026-05-03T07:37:58Z</time></trkpt><trkpt lat="44.80984544190726" lon="9.654805263360586"><ele>577.8333333333334</ele><time>2026-05-03T07:37:59Z</time></trkpt><trkpt lat="44.80978945972501" lon="9.654895630761194"><ele>579.6666666666666</ele><time>2026-05-03T07:38:00Z</time></trkpt><trkpt lat="44.809740516101925" lon="9.654993238099308"><ele>581.5</ele><time>2026-05-03T07:38:00.999Z</time></trkpt><trkpt lat="44.8096898652153" lon="9.655079357115385"><ele>583.3333333333333</ele><time>2026-05-03T07:38:01.999Z</time></trkpt><trkpt lat="44.809577090327814" lon="9.655111098474217"><ele>585.1666666666666</ele><time>2026-05-03T07:38:03.999Z</time></trkpt><trkpt lat="44.80950932740325" lon="9.655072785573017"><ele>587.0</ele><time>2026-05-03T07:38:04.999Z</time></trkpt><trkpt lat="44.809443129419265" lon="9.655000153679044"><ele>587.0</ele><time>2026-05-03T07:38:05.999Z</time></trkpt><trkpt lat="44.80937998905898" lon="9.654900127502648"><ele>587.0</ele><time>2026-05-03T07:38:06.999Z</time></trkpt><trkpt lat="44.80930956929694" lon="9.654788819942512"><ele>587.0</ele><time>2026-05-03T07:38:07.999Z</time></trkpt><trkpt lat="44.80922738824339" lon="9.654669350625392"><ele>587.0</ele><time>2026-05-03T07:38:08.999Z</time></trkpt><trkpt lat="44.80915086913012" lon="9.654565860312982"><ele>587.0</ele><time>2026-05-03T07:38:09.999Z</time></trkpt><trkpt lat="44.80907576356966" lon="9.654488336136398"><ele>589.1666666666666</ele><time>2026-05-03T07:38:10.999Z</time></trkpt><trkpt lat="44.80899029480923" lon="9.6544375992938"><ele>591.3333333333333</ele><time>2026-05-03T07:38:11.999Z</time></trkpt><trkpt lat="44.808902557497404" lon="9.654397056534727"><ele>593.5</ele><time>2026-05-03T07:38:12.999Z</time></trkpt><trkpt lat="44.80882005911662" lon="9.654342994331975"><ele>595.6666666666666</ele><time>2026-05-03T07:38:13.999Z</time></trkpt><trkpt lat="44.80874287939862" lon="9.654279164800927"><ele>597.8333333333334</ele><time>2026-05-03T07:38:14.999Z</time></trkpt><trkpt lat="44.80867976891017" lon="9.654208739812326"><ele>600.0</ele><time>2026-05-03T07:38:15.999Z</time></trkpt><trkpt lat="44.80863269373243" lon="9.65412759262506"><ele>600.0</ele><time>2026-05-03T07:38:16.999Z</time></trkpt><trkpt lat="44.80860199701923" lon="9.65403503959471"><ele>600.0</ele><time>2026-05-03T07:38:17.999Z</time></trkpt><trkpt lat="44.808584601878245" lon="9.653932464362255"><ele>600.0</ele><time>2026-05-03T07:38:18.999Z</time></trkpt><trkpt lat="44.80858686255277" lon="9.653825445852389"><ele>600.0</ele><time>2026-05-03T07:38:19.999Z</time></trkpt><trkpt lat="44.80858610611432" lon="9.653719004450044"><ele>600.0</ele><time>2026-05-03T07:38:20.999Z</time></trkpt><trkpt lat="44.808512581160954" lon="9.653595884639397"><ele>600.0</ele><time>2026-05-03T07:38:22.999Z</time></trkpt><trkpt lat="44.808406506927376" lon="9.653582679127748"><ele>602.5</ele><time>2026-05-03T07:38:24.999Z</time></trkpt><trkpt lat="44.808350115662755" lon="9.653623898401348"><ele>605.0</ele><time>2026-05-03T07:38:25.999Z</time></trkpt><trkpt lat="44.8082961396733" lon="9.653688869381472"><ele>607.5</ele><time>2026-05-03T07:38:26.999Z</time></trkpt><trkpt lat="44.80824452103488" lon="9.653775616122878"><ele>610.0</ele><time>2026-05-03T07:38:27.999Z</time></trkpt><trkpt lat="44.80820010513916" lon="9.653870108395845"><ele>612.5</ele><time>2026-05-03T07:38:28.999Z</time></trkpt><trkpt lat="44.8081607004361" lon="9.65397163586106"><ele>615.0</ele><time>2026-05-03T07:38:29.999Z</time></trkpt><trkpt lat="44.80812091379585" lon="9.654076734612504"><ele>615.0</ele><time>2026-05-03T07:38:30.999Z</time></trkpt><trkpt lat="44.808079989478784" lon="9.654184032843666"><ele>615.0</ele><time>2026-05-03T07:38:31.999Z</time></trkpt><trkpt lat="44.808040825655745" lon="9.654286561109602"><ele>615.0</ele><time>2026-05-03T07:38:32.999Z</time></trkpt><trkpt lat="44.807991602169416" lon="9.654398638364473"><ele>615.0</ele><time>2026-05-03T07:38:33.999Z</time></trkpt><trkpt lat="44.807946834715295" lon="9.654519766707814"><ele>615.0</ele><time>2026-05-03T07:38:34.999Z</time></trkpt><trkpt lat="44.80792131772942" lon="9.654648216100357"><ele>614.8333333333334</ele><time>2026-05-03T07:38:35.999Z</time></trkpt><trkpt lat="44.807906130414935" lon="9.654774018726142"><ele>614.6666666666666</ele><time>2026-05-03T07:38:36.999Z</time></trkpt><trkpt lat="44.80788407099292" lon="9.654899213987411"><ele>614.5</ele><time>2026-05-03T07:38:37.999Z</time></trkpt><trkpt lat="44.807869508550546" lon="9.655023300536532"><ele>614.3333333333333</ele><time>2026-05-03T07:38:38.999Z</time></trkpt><trkpt lat="44.80785947669722" lon="9.655146884288678"><ele>614.1666666666666</ele><time>2026-05-03T07:38:39.999Z</time></trkpt><trkpt lat="44.80783106741067" lon="9.655260355611848"><ele>614.0</ele><time>2026-05-03T07:38:40.999Z</time></trkpt><trkpt lat="44.807782208171524" lon="9.65534785120703"><ele>614.0</ele><time>2026-05-03T07:38:41.999Z</time></trkpt><trkpt lat="44.80772301226733" lon="9.655426179470101"><ele>614.0</ele><time>2026-05-03T07:38:42.999Z</time></trkpt><trkpt lat="44.80767181577177" lon="9.655514816143976"><ele>614.0</ele><time>2026-05-03T07:38:43.999Z</time></trkpt><trkpt lat="44.807649546231794" lon="9.655607488228247"><ele>614.0</ele><time>2026-05-03T07:38:44.999Z</time></trkpt><trkpt lat="44.80766458142495" lon="9.65571445792892"><ele>614.0</ele><time>2026-05-03T07:38:45.999Z</time></trkpt><trkpt lat="44.80770506669871" lon="9.655810929297493"><ele>614.0</ele><time>2026-05-03T07:38:46.999Z</time></trkpt><trkpt lat="44.8077687908586" lon="9.65589551514075"><ele>614.0</ele><time>2026-05-03T07:38:47.999Z</time></trkpt><trkpt lat="44.80783047945698" lon="9.655990583707446"><ele>614.0</ele><time>2026-05-03T07:38:48.999Z</time></trkpt><trkpt lat="44.807876625360706" lon="9.656105173032715"><ele>614.0</ele><time>2026-05-03T07:38:49.999Z</time></trkpt><trkpt lat="44.80789251540226" lon="9.656204881391346"><ele>614.0</ele><time>2026-05-03T07:38:50.999Z</time></trkpt><trkpt lat="44.807875404994014" lon="9.656303077852094"><ele>614.0</ele><time>2026-05-03T07:38:51.999Z</time></trkpt><trkpt lat="44.80783183487172" lon="9.656394090541768"><ele>614.0</ele><time>2026-05-03T07:38:52.999Z</time></trkpt><trkpt lat="44.80776335895026" lon="9.656488193268874"><ele>614.25</ele><time>2026-05-03T07:38:53.999Z</time></trkpt><trkpt lat="44.807680665206334" lon="9.656603770505981"><ele>614.5</ele><time>2026-05-03T07:38:54.999Z</time></trkpt><trkpt lat="44.80761233687549" lon="9.65672635827519"><ele>614.75</ele><time>2026-05-03T07:38:55.999Z</time></trkpt><trkpt lat="44.807558333868215" lon="9.656867600716131"><ele>615.0</ele><time>2026-05-03T07:38:56.999Z</time></trkpt><trkpt lat="44.807503913734735" lon="9.657010225403912"><ele>620.5</ele><time>2026-05-03T07:38:57.999Z</time></trkpt><trkpt lat="44.8074693121995" lon="9.65712514224881"><ele>626.0</ele><time>2026-05-03T07:38:58.999Z</time></trkpt><trkpt lat="44.80743443618172" lon="9.65722032762658"><ele>631.5</ele><time>2026-05-03T07:38:59.999Z</time></trkpt><trkpt lat="44.80738268580483" lon="9.65730468981043"><ele>637.0</ele><time>2026-05-03T07:39:00.999Z</time></trkpt><trkpt lat="44.80732049707346" lon="9.657372050911052"><ele>642.5</ele><time>2026-05-03T07:39:01.999Z</time></trkpt><trkpt lat="44.80727104930637" lon="9.657444344595474"><ele>648.0</ele><time>2026-05-03T07:39:02.999Z</time></trkpt><trkpt lat="44.807254275192506" lon="9.657543988114544"><ele>648.0</ele><time>2026-05-03T07:39:03.999Z</time></trkpt><trkpt lat="44.80727291142598" lon="9.657669819448044"><ele>648.0</ele><time>2026-05-03T07:39:04.999Z</time></trkpt><trkpt lat="44.80733148316171" lon="9.657799434813183"><ele>648.0</ele><time>2026-05-03T07:39:05.999Z</time></trkpt><trkpt lat="44.8073983846879" lon="9.657905346677515"><ele>648.0</ele><time>2026-05-03T07:39:06.999Z</time></trkpt><trkpt lat="44.80743831871964" lon="9.658009441631657"><ele>648.0</ele><time>2026-05-03T07:39:07.998Z</time></trkpt><trkpt lat="44.80744128389579" lon="9.658107193681642"><ele>647.2</ele><time>2026-05-03T07:39:08.998Z</time></trkpt><trkpt lat="44.8074173103348" lon="9.658191420930349"><ele>646.4</ele><time>2026-05-03T07:39:09.998Z</time></trkpt><trkpt lat="44.80735516892076" lon="9.658254843482485"><ele>645.6</ele><time>2026-05-03T07:39:10.998Z</time></trkpt><trkpt lat="44.80725019509372" lon="9.658306797902057"><ele>644.8000000000001</ele><time>2026-05-03T07:39:11.998Z</time></trkpt><trkpt lat="44.80710865035097" lon="9.658347188976128"><ele>644.0</ele><time>2026-05-03T07:39:12.998Z</time></trkpt><trkpt lat="44.806972728829194" lon="9.658433235776915"><ele>644.0</ele><time>2026-05-03T07:39:13.998Z</time></trkpt><trkpt lat="44.80686605096945" lon="9.658517652053858"><ele>644.0</ele><time>2026-05-03T07:39:14.998Z</time></trkpt><trkpt lat="44.806776286446386" lon="9.658607118310112"><ele>644.0</ele><time>2026-05-03T07:39:15.998Z</time></trkpt><trkpt lat="44.80668846524707" lon="9.65864622813896"><ele>644.0</ele><time>2026-05-03T07:39:16.998Z</time></trkpt><trkpt lat="44.806595305614884" lon="9.658640593661108"><ele>644.0</ele><time>2026-05-03T07:39:17.998Z</time></trkpt><trkpt lat="44.80648936771815" lon="9.658627242500735"><ele>647.2</ele><time>2026-05-03T07:39:18.998Z</time></trkpt><trkpt lat="44.80638217335208" lon="9.658600874879259"><ele>650.4000000000001</ele><time>2026-05-03T07:39:19.998Z</time></trkpt><trkpt lat="44.806281467691484" lon="9.658580134560026"><ele>653.6</ele><time>2026-05-03T07:39:20.998Z</time></trkpt><trkpt lat="44.8061844158976" lon="9.658545623298746"><ele>656.8</ele><time>2026-05-03T07:39:21.998Z</time></trkpt><trkpt lat="44.80608141002269" lon="9.658487116603414"><ele>660.0</ele><time>2026-05-03T07:39:22.998Z</time></trkpt><trkpt lat="44.805970605391096" lon="9.658416432775391"><ele>660.0</ele><time>2026-05-03T07:39:24Z</time></trkpt><trkpt lat="44.80585423252422" lon="9.65837054292129"><ele>660.0</ele><time>2026-05-03T07:39:25Z</time></trkpt><trkpt lat="44.80575560766855" lon="9.658344159917688"><ele>660.0</ele><time>2026-05-03T07:39:26Z</time></trkpt><trkpt lat="44.80564959917367" lon="9.658361696160313"><ele>660.0</ele><time>2026-05-03T07:39:27Z</time></trkpt><trkpt lat="44.80553077187312" lon="9.658400205116175"><ele>660.0</ele><time>2026-05-03T07:39:28Z</time></trkpt><trkpt lat="44.805407652795616" lon="9.658362813986356"><ele>660.0</ele><time>2026-05-03T07:39:29Z</time></trkpt><trkpt lat="44.805298275794264" lon="9.658322523210963"><ele>660.0</ele><time>2026-05-03T07:39:30Z</time></trkpt><trkpt lat="44.80520610776232" lon="9.658320723762301"><ele>660.0</ele><time>2026-05-03T07:39:31Z</time></trkpt><trkpt lat="44.80511416944709" lon="9.658379932053426"><ele>660.0</ele><time>2026-05-03T07:39:32Z</time></trkpt><trkpt lat="44.805023948805875" lon="9.658442110058736"><ele>660.75</ele><time>2026-05-03T07:39:33Z</time></trkpt><trkpt lat="44.80491022876416" lon="9.658501850792955"><ele>661.5</ele><time>2026-05-03T07:39:34Z</time></trkpt><trkpt lat="44.80479375590746" lon="9.658533102715083"><ele>662.25</ele><time>2026-05-03T07:39:35Z</time></trkpt><trkpt lat="44.80468255978089" lon="9.658566919250681"><ele>663.0</ele><time>2026-05-03T07:39:36Z</time></trkpt><trkpt lat="44.80458855610159" lon="9.658624959620406"><ele>660.8333333333334</ele><time>2026-05-03T07:39:37Z</time></trkpt><trkpt lat="44.8045292931572" lon="9.658693703434365"><ele>658.6666666666666</ele><time>2026-05-03T07:39:38Z</time></trkpt><trkpt lat="44.80448780308491" lon="9.65878094465518"><ele>656.5</ele><time>2026-05-03T07:39:39Z</time></trkpt><trkpt lat="44.80449008900938" lon="9.658882940514413"><ele>654.3333333333333</ele><time>2026-05-03T07:39:40Z</time></trkpt><trkpt lat="44.80451936968043" lon="9.658997103511751"><ele>652.1666666666666</ele><time>2026-05-03T07:39:41Z</time></trkpt><trkpt lat="44.80457476636626" lon="9.659114079602102"><ele>650.0</ele><time>2026-05-03T07:39:42Z</time></trkpt><trkpt lat="44.804627571455185" lon="9.659247437507164"><ele>650.0</ele><time>2026-05-03T07:39:43Z</time></trkpt><trkpt lat="44.80468169780755" lon="9.659438423466964"><ele>650.0</ele><time>2026-05-03T07:39:44Z</time></trkpt><trkpt lat="44.80471226062398" lon="9.659599125858113"><ele>650.0</ele><time>2026-05-03T07:39:45Z</time></trkpt><trkpt lat="44.80473726981934" lon="9.659741225507569"><ele>650.0</ele><time>2026-05-03T07:39:46Z</time></trkpt><trkpt lat="44.804739859432864" lon="9.65988301004663"><ele>650.8</ele><time>2026-05-03T07:39:47Z</time></trkpt><trkpt lat="44.80473268202823" lon="9.660048941680289"><ele>651.6</ele><time>2026-05-03T07:39:48Z</time></trkpt><trkpt lat="44.80471688961069" lon="9.660207807380768"><ele>652.4000000000001</ele><time>2026-05-03T07:39:49Z</time></trkpt><trkpt lat="44.80469951830234" lon="9.660326100489264"><ele>653.2</ele><time>2026-05-03T07:39:50Z</time></trkpt><trkpt lat="44.80465603212475" lon="9.660445244086143"><ele>654.0</ele><time>2026-05-03T07:39:52Z</time></trkpt><trkpt lat="44.8045896774222" lon="9.660492017711723"><ele>655.6</ele><time>2026-05-03T07:39:54Z</time></trkpt><trkpt lat="44.80444693931998" lon="9.66048566266703"><ele>657.2</ele><time>2026-05-03T07:39:56Z</time></trkpt><trkpt lat="44.804365229618334" lon="9.6604475796338"><ele>658.8000000000001</ele><time>2026-05-03T07:39:57Z</time></trkpt><trkpt lat="44.80426751486473" lon="9.660393914043233"><ele>660.4000000000001</ele><time>2026-05-03T07:39:58Z</time></trkpt><trkpt lat="44.804175631893486" lon="9.660310316419439"><ele>662.0</ele><time>2026-05-03T07:39:59Z</time></trkpt><trkpt lat="44.80408866100912" lon="9.660189009826633"><ele>665.0</ele><time>2026-05-03T07:40:00Z</time></trkpt><trkpt lat="44.804012287897564" lon="9.66005104390575"><ele>668.0</ele><time>2026-05-03T07:40:01Z</time></trkpt><trkpt lat="44.80393240499416" lon="9.659883588078275"><ele>671.0</ele><time>2026-05-03T07:40:02Z</time></trkpt><trkpt lat="44.80384512745813" lon="9.65970051016653"><ele>674.0</ele><time>2026-05-03T07:40:03Z</time></trkpt><trkpt lat="44.803780568682" lon="9.659555187906518"><ele>673.75</ele><time>2026-05-03T07:40:04Z</time></trkpt><trkpt lat="44.80373977271775" lon="9.659416019929012"><ele>673.5</ele><time>2026-05-03T07:40:05Z</time></trkpt><trkpt lat="44.80370500561234" lon="9.659254256663504"><ele>673.25</ele><time>2026-05-03T07:40:06Z</time></trkpt><trkpt lat="44.80367474321821" lon="9.659062702652452"><ele>673.0</ele><time>2026-05-03T07:40:06.999Z</time></trkpt><trkpt lat="44.80365844275713" lon="9.658878359499369"><ele>673.0</ele><time>2026-05-03T07:40:07.999Z</time></trkpt><trkpt lat="44.80363091982728" lon="9.65872904003197"><ele>673.0</ele><time>2026-05-03T07:40:08.999Z</time></trkpt><trkpt lat="44.80358409184436" lon="9.658587641880175"><ele>673.0</ele><time>2026-05-03T07:40:09.999Z</time></trkpt><trkpt lat="44.80351484318833" lon="9.658459092307194"><ele>673.0</ele><time>2026-05-03T07:40:10.999Z</time></trkpt><trkpt lat="44.803435916981506" lon="9.658340333682581"><ele>675.4</ele><time>2026-05-03T07:40:11.999Z</time></trkpt><trkpt lat="44.80334819300946" lon="9.658217628883937"><ele>677.8</ele><time>2026-05-03T07:40:12.999Z</time></trkpt><trkpt lat="44.803265757822416" lon="9.65810279138571"><ele>680.2</ele><time>2026-05-03T07:40:13.999Z</time></trkpt><trkpt lat="44.803189406257985" lon="9.658004566617969"><ele>682.6</ele><time>2026-05-03T07:40:14.999Z</time></trkpt><trkpt lat="44.803130230979846" lon="9.657894075046272"><ele>685.0</ele><time>2026-05-03T07:40:15.999Z</time></trkpt><trkpt lat="44.80308267904863" lon="9.657763235504147"><ele>687.4</ele><time>2026-05-03T07:40:16.999Z</time></trkpt><trkpt lat="44.803055709216096" lon="9.657623250512994"><ele>689.8</ele><time>2026-05-03T07:40:17.999Z</time></trkpt><trkpt lat="44.8030355357501" lon="9.657509294688575"><ele>692.2</ele><time>2026-05-03T07:40:18.999Z</time></trkpt><trkpt lat="44.80299730518877" lon="9.657418665255886"><ele>694.6</ele><time>2026-05-03T07:40:19.999Z</time></trkpt><trkpt lat="44.80292941931029" lon="9.65734673127392"><ele>697.0</ele><time>2026-05-03T07:40:20.999Z</time></trkpt><trkpt lat="44.80283433428082" lon="9.657286921069222"><ele>697.0</ele><time>2026-05-03T07:40:21.999Z</time></trkpt><trkpt lat="44.8027278515288" lon="9.657214430788493"><ele>697.0</ele><time>2026-05-03T07:40:22.999Z</time></trkpt><trkpt lat="44.8026206386587" lon="9.657104504779367"><ele>697.0</ele><time>2026-05-03T07:40:23.999Z</time></trkpt><trkpt lat="44.80253739709083" lon="9.657003998182343"><ele>697.0</ele><time>2026-05-03T07:40:24.999Z</time></trkpt><trkpt lat="44.80246540546339" lon="9.656939692959849"><ele>697.0</ele><time>2026-05-03T07:40:25.999Z</time></trkpt><trkpt lat="44.802372500273535" lon="9.65692067507189"><ele>697.0</ele><time>2026-05-03T07:40:26.999Z</time></trkpt><trkpt lat="44.802260699578156" lon="9.65694316988051"><ele>697.0</ele><time>2026-05-03T07:40:27.999Z</time></trkpt><trkpt lat="44.80214021628834" lon="9.656970602879792"><ele>697.0</ele><time>2026-05-03T07:40:28.999Z</time></trkpt><trkpt lat="44.80203113308833" lon="9.656976485289436"><ele>697.0</ele><time>2026-05-03T07:40:29.999Z</time></trkpt><trkpt lat="44.801939079068376" lon="9.656953984058287"><ele>697.0</ele><time>2026-05-03T07:40:30.999Z</time></trkpt><trkpt lat="44.80186238313596" lon="9.656905735024568"><ele>700.5</ele><time>2026-05-03T07:40:31.999Z</time></trkpt><trkpt lat="44.801783827009146" lon="9.656817486120975"><ele>704.0</ele><time>2026-05-03T07:40:32.999Z</time></trkpt><trkpt lat="44.801712081422636" lon="9.656691568205266"><ele>707.5</ele><time>2026-05-03T07:40:33.999Z</time></trkpt><trkpt lat="44.801629266236105" lon="9.65655326524687"><ele>711.0</ele><time>2026-05-03T07:40:34.999Z</time></trkpt><trkpt lat="44.80153678156399" lon="9.656441322938576"><ele>711.0</ele><time>2026-05-03T07:40:35.999Z</time></trkpt><trkpt lat="44.80143699126817" lon="9.656350276569775"><ele>711.0</ele><time>2026-05-03T07:40:36.999Z</time></trkpt><trkpt lat="44.801319428779" lon="9.656288758965488"><ele>711.0</ele><time>2026-05-03T07:40:37.999Z</time></trkpt><trkpt lat="44.80118593400413" lon="9.65625583472721"><ele>711.0</ele><time>2026-05-03T07:40:38.999Z</time></trkpt><trkpt lat="44.801043950619885" lon="9.656220837938973"><ele>711.75</ele><time>2026-05-03T07:40:39.999Z</time></trkpt><trkpt lat="44.80090809533874" lon="9.656159541689354"><ele>712.5</ele><time>2026-05-03T07:40:40.999Z</time></trkpt><trkpt lat="44.800797212957775" lon="9.656087157733698"><ele>713.25</ele><time>2026-05-03T07:40:41.999Z</time></trkpt><trkpt lat="44.80069991394901" lon="9.656025957909739"><ele>714.0</ele><time>2026-05-03T07:40:42.999Z</time></trkpt><trkpt lat="44.80060871221935" lon="9.656006831421633"><ele>714.0</ele><time>2026-05-03T07:40:43.999Z</time></trkpt><trkpt lat="44.800513158979825" lon="9.656026203404293"><ele>714.0</ele><time>2026-05-03T07:40:44.999Z</time></trkpt><trkpt lat="44.800413234728595" lon="9.65605705303035"><ele>714.0</ele><time>2026-05-03T07:40:45.999Z</time></trkpt><trkpt lat="44.800313145739985" lon="9.656091047376204"><ele>714.0</ele><time>2026-05-03T07:40:46.999Z</time></trkpt><trkpt lat="44.80023175645568" lon="9.656147603146023"><ele>714.0</ele><time>2026-05-03T07:40:47.999Z</time></trkpt><trkpt lat="44.80017520390616" lon="9.656233822045412"><ele>716.1666666666666</ele><time>2026-05-03T07:40:48.999Z</time></trkpt><trkpt lat="44.80013955598117" lon="9.656341771941165"><ele>718.3333333333334</ele><time>2026-05-03T07:40:49.999Z</time></trkpt><trkpt lat="44.80011981893808" lon="9.65646391194281"><ele>720.5</ele><time>2026-05-03T07:40:50.999Z</time></trkpt><trkpt lat="44.80012501188483" lon="9.656610176327243"><ele>722.6666666666667</ele><time>2026-05-03T07:40:51.999Z</time></trkpt><trkpt lat="44.80010663626522" lon="9.656738939136297"><ele>724.8333333333334</ele><time>2026-05-03T07:40:52.999Z</time></trkpt><trkpt lat="44.800058796768404" lon="9.656819615463334"><ele>727.0</ele><time>2026-05-03T07:40:53.999Z</time></trkpt><trkpt lat="44.799997501140595" lon="9.656855930592084"><ele>727.0</ele><time>2026-05-03T07:40:54.999Z</time></trkpt><trkpt lat="44.79993077489713" lon="9.656850161204087"><ele>727.0</ele><time>2026-05-03T07:40:55.999Z</time></trkpt><trkpt lat="44.799863192246484" lon="9.656795996189565"><ele>727.0</ele><time>2026-05-03T07:40:56.999Z</time></trkpt><trkpt lat="44.79979296456022" lon="9.656699982839605"><ele>727.0</ele><time>2026-05-03T07:40:57.999Z</time></trkpt><trkpt lat="44.79970949708467" lon="9.656580486426883"><ele>727.0</ele><time>2026-05-03T07:40:58.999Z</time></trkpt><trkpt lat="44.799619882042734" lon="9.656455880735756"><ele>727.0</ele><time>2026-05-03T07:40:59.999Z</time></trkpt><trkpt lat="44.799520690470466" lon="9.65632469989331"><ele>727.0</ele><time>2026-05-03T07:41:00.999Z</time></trkpt><trkpt lat="44.79940073856235" lon="9.656172819314982"><ele>727.0</ele><time>2026-05-03T07:41:01.999Z</time></trkpt><trkpt lat="44.79928909732459" lon="9.656004315005532"><ele>728.75</ele><time>2026-05-03T07:41:02.999Z</time></trkpt><trkpt lat="44.799193461837696" lon="9.65583836920997"><ele>730.5</ele><time>2026-05-03T07:41:03.999Z</time></trkpt><trkpt lat="44.799111753472786" lon="9.655685716581104"><ele>732.25</ele><time>2026-05-03T07:41:04.999Z</time></trkpt><trkpt lat="44.79904075189763" lon="9.655545417939381"><ele>734.0</ele><time>2026-05-03T07:41:05.999Z</time></trkpt><trkpt lat="44.798970479849096" lon="9.655422308400697"><ele>734.0</ele><time>2026-05-03T07:41:06.999Z</time></trkpt><trkpt lat="44.79888378447878" lon="9.655320778011795"><ele>734.0</ele><time>2026-05-03T07:41:07.999Z</time></trkpt><trkpt lat="44.79880026180571" lon="9.655220039952148"><ele>734.0</ele><time>2026-05-03T07:41:08.999Z</time></trkpt><trkpt lat="44.798726208533004" lon="9.655119595386374"><ele>734.0</ele><time>2026-05-03T07:41:09.999Z</time></trkpt><trkpt lat="44.79865487747997" lon="9.655022016631683"><ele>734.0</ele><time>2026-05-03T07:41:10.999Z</time></trkpt><trkpt lat="44.798586786066686" lon="9.654937524285689"><ele>733.5</ele><time>2026-05-03T07:41:11.999Z</time></trkpt><trkpt lat="44.79850927652694" lon="9.654861456744488"><ele>733.0</ele><time>2026-05-03T07:41:12.999Z</time></trkpt><trkpt lat="44.798433305247215" lon="9.654803405920067"><ele>732.5</ele><time>2026-05-03T07:41:13.999Z</time></trkpt><trkpt lat="44.79836267808621" lon="9.65477207678165"><ele>732.0</ele><time>2026-05-03T07:41:14.998Z</time></trkpt><trkpt lat="44.7983033270381" lon="9.65474164190252"><ele>731.5</ele><time>2026-05-03T07:41:15.998Z</time></trkpt><trkpt lat="44.798229356810424" lon="9.654702143967976"><ele>731.0</ele><time>2026-05-03T07:41:17.998Z</time></trkpt><trkpt lat="44.79814705159213" lon="9.654660857049942"><ele>731.0</ele><time>2026-05-03T07:41:35Z</time></trkpt><trkpt lat="44.79807221341857" lon="9.654608474124988"><ele>731.0</ele><time>2026-05-03T07:41:36Z</time></trkpt><trkpt lat="44.797987553512115" lon="9.654547531304251"><ele>731.0</ele><time>2026-05-03T07:41:37Z</time></trkpt><trkpt lat="44.79788223991499" lon="9.65444630145491"><ele>731.0</ele><time>2026-05-03T07:41:38Z</time></trkpt><trkpt lat="44.79777369834677" lon="9.65433695341654"><ele>731.0</ele><time>2026-05-03T07:41:39Z</time></trkpt><trkpt lat="44.79767232803111" lon="9.654205896177844"><ele>731.5999999999999</ele><time>2026-05-03T07:41:40Z</time></trkpt><trkpt lat="44.79759929308779" lon="9.654077771455913"><ele>732.2</ele><time>2026-05-03T07:41:41Z</time></trkpt><trkpt lat="44.797539788114875" lon="9.65396112099908"><ele>732.8</ele><time>2026-05-03T07:41:42Z</time></trkpt><trkpt lat="44.797477385981594" lon="9.65385949460731"><ele>733.4000000000001</ele><time>2026-05-03T07:41:43Z</time></trkpt><trkpt lat="44.79740765699133" lon="9.653779766290018"><ele>734.0</ele><time>2026-05-03T07:41:44Z</time></trkpt><trkpt lat="44.79732200694895" lon="9.653718929788633"><ele>734.0</ele><time>2026-05-03T07:41:45Z</time></trkpt><trkpt lat="44.79721423568216" lon="9.653674794552687"><ele>734.0</ele><time>2026-05-03T07:41:46Z</time></trkpt><trkpt lat="44.79708703579083" lon="9.653636069373002"><ele>734.0</ele><time>2026-05-03T07:41:47Z</time></trkpt><trkpt lat="44.79697723411699" lon="9.653601254382338"><ele>734.0</ele><time>2026-05-03T07:41:48Z</time></trkpt><trkpt lat="44.796882479262244" lon="9.65354573654669"><ele>733.25</ele><time>2026-05-03T07:41:49Z</time></trkpt><trkpt lat="44.79679906444917" lon="9.65345787080592"><ele>732.5</ele><time>2026-05-03T07:41:50Z</time></trkpt><trkpt lat="44.79672458039866" lon="9.653334853823184"><ele>731.75</ele><time>2026-05-03T07:41:51Z</time></trkpt><trkpt lat="44.79666444011847" lon="9.653174777153152"><ele>731.0</ele><time>2026-05-03T07:41:52Z</time></trkpt><trkpt lat="44.79661361943087" lon="9.65304357799491"><ele>731.0</ele><time>2026-05-03T07:41:53Z</time></trkpt><trkpt lat="44.79654411543398" lon="9.652949390775731"><ele>731.0</ele><time>2026-05-03T07:41:54Z</time></trkpt><trkpt lat="44.796456502972475" lon="9.65289545251426"><ele>731.0</ele><time>2026-05-03T07:41:55Z</time></trkpt><trkpt lat="44.79634888077315" lon="9.652870197393213"><ele>731.0</ele><time>2026-05-03T07:41:56Z</time></trkpt><trkpt lat="44.796208667828594" lon="9.652828075848278"><ele>731.0</ele><time>2026-05-03T07:41:57Z</time></trkpt><trkpt lat="44.796063884970394" lon="9.65279128564143"><ele>728.5</ele><time>2026-05-03T07:41:58Z</time></trkpt><trkpt lat="44.79592945302292" lon="9.652757008434891"><ele>726.0</ele><time>2026-05-03T07:41:59Z</time></trkpt><trkpt lat="44.7958089272693" lon="9.652729118113243"><ele>723.5</ele><time>2026-05-03T07:42:00Z</time></trkpt><trkpt lat="44.79569601504833" lon="9.65269609463758"><ele>721.0</ele><time>2026-05-03T07:42:01Z</time></trkpt><trkpt lat="44.79557630590334" lon="9.652643724306849"><ele>721.0</ele><time>2026-05-03T07:42:02Z</time></trkpt><trkpt lat="44.79544220855519" lon="9.65257206831669"><ele>721.0</ele><time>2026-05-03T07:42:03Z</time></trkpt><trkpt lat="44.7952915989448" lon="9.652520699377018"><ele>721.0</ele><time>2026-05-03T07:42:04Z</time></trkpt><trkpt lat="44.79515448368125" lon="9.652495565541626"><ele>721.0</ele><time>2026-05-03T07:42:05Z</time></trkpt><trkpt lat="44.79502778453141" lon="9.652465558422685"><ele>719.75</ele><time>2026-05-03T07:42:06Z</time></trkpt><trkpt lat="44.79489382158982" lon="9.652413376211054"><ele>718.5</ele><time>2026-05-03T07:42:07Z</time></trkpt><trkpt lat="44.79476377544384" lon="9.652350321114158"><ele>717.25</ele><time>2026-05-03T07:42:08Z</time></trkpt><trkpt lat="44.79464528714204" lon="9.652304509295105"><ele>716.0</ele><time>2026-05-03T07:42:09Z</time></trkpt><trkpt lat="44.794530982163444" lon="9.652287862561892"><ele>716.0</ele><time>2026-05-03T07:42:10Z</time></trkpt><trkpt lat="44.79441043951513" lon="9.652303187317335"><ele>716.0</ele><time>2026-05-03T07:42:11Z</time></trkpt><trkpt lat="44.79428021770574" lon="9.652347670785838"><ele>716.0</ele><time>2026-05-03T07:42:11.999Z</time></trkpt><trkpt lat="44.794169249714585" lon="9.65240449504715"><ele>716.0</ele><time>2026-05-03T07:42:12.999Z</time></trkpt><trkpt lat="44.79407986707598" lon="9.652441255649936"><ele>715.8</ele><time>2026-05-03T07:42:13.999Z</time></trkpt><trkpt lat="44.794004543685766" lon="9.652431981420346"><ele>715.5999999999999</ele><time>2026-05-03T07:42:14.999Z</time></trkpt><trkpt lat="44.79393190555001" lon="9.652385906862857"><ele>715.4</ele><time>2026-05-03T07:42:15.999Z</time></trkpt><trkpt lat="44.79385108872021" lon="9.652306898493908"><ele>715.2</ele><time>2026-05-03T07:42:16.999Z</time></trkpt><trkpt lat="44.79375677698735" lon="9.652205421221545"><ele>715.0</ele><time>2026-05-03T07:42:17.999Z</time></trkpt><trkpt lat="44.79363666876186" lon="9.652081808023217"><ele>714.0</ele><time>2026-05-03T07:42:18.999Z</time></trkpt><trkpt lat="44.793513771730645" lon="9.651948628851343"><ele>713.0</ele><time>2026-05-03T07:42:19.999Z</time></trkpt><trkpt lat="44.79339940896288" lon="9.651820108729797"><ele>712.0</ele><time>2026-05-03T07:42:20.999Z</time></trkpt><trkpt lat="44.79330334074024" lon="9.651719996946884"><ele>711.0</ele><time>2026-05-03T07:42:21.999Z</time></trkpt><trkpt lat="44.79321836110439" lon="9.651649238485717"><ele>712.3333333333334</ele><time>2026-05-03T07:42:22.999Z</time></trkpt><trkpt lat="44.793138554008685" lon="9.651600893007915"><ele>713.6666666666666</ele><time>2026-05-03T07:42:23.999Z</time></trkpt><trkpt lat="44.7930625562036" lon="9.651559409436725"><ele>715.0</ele><time>2026-05-03T07:42:24.999Z</time></trkpt><trkpt lat="44.792996986591234" lon="9.651524080194937"><ele>716.3333333333333</ele><time>2026-05-03T07:42:25.999Z</time></trkpt><trkpt lat="44.792916851155084" lon="9.651477239246407"><ele>717.6666666666666</ele><time>2026-05-03T07:42:27.999Z</time></trkpt><trkpt lat="44.792828076305746" lon="9.651409899251101"><ele>719.0</ele><time>2026-05-03T07:42:29.999Z</time></trkpt><trkpt lat="44.79277138288797" lon="9.651362148619643"><ele>719.0</ele><time>2026-05-03T07:42:30.999Z</time></trkpt><trkpt lat="44.79270816095092" lon="9.651287598881996"><ele>719.0</ele><time>2026-05-03T07:42:31.999Z</time></trkpt><trkpt lat="44.792646134192886" lon="9.651204446276981"><ele>719.0</ele><time>2026-05-03T07:42:32.999Z</time></trkpt><trkpt lat="44.792580020189604" lon="9.651127364169493"><ele>719.0</ele><time>2026-05-03T07:42:33.999Z</time></trkpt><trkpt lat="44.79249900649613" lon="9.651050362420344"><ele>719.0</ele><time>2026-05-03T07:42:34.999Z</time></trkpt><trkpt lat="44.79240831954976" lon="9.650976951494407"><ele>720.75</ele><time>2026-05-03T07:42:35.999Z</time></trkpt><trkpt lat="44.79231112564052" lon="9.650905203335903"><ele>722.5</ele><time>2026-05-03T07:42:36.999Z</time></trkpt><trkpt lat="44.79219620278057" lon="9.65082565872392"><ele>724.25</ele><time>2026-05-03T07:42:37.999Z</time></trkpt><trkpt lat="44.79207838006198" lon="9.650751623467924"><ele>726.0</ele><time>2026-05-03T07:42:38.999Z</time></trkpt><trkpt lat="44.79196278162511" lon="9.650673987414491"><ele>726.0</ele><time>2026-05-03T07:42:39.999Z</time></trkpt><trkpt lat="44.79185451386378" lon="9.650606050235858"><ele>726.0</ele><time>2026-05-03T07:42:40.999Z</time></trkpt><trkpt lat="44.79175766729424" lon="9.650542163611995"><ele>726.0</ele><time>2026-05-03T07:42:41.999Z</time></trkpt><trkpt lat="44.79167695382879" lon="9.650462822457714"><ele>726.0</ele><time>2026-05-03T07:42:42.999Z</time></trkpt><trkpt lat="44.791597428434486" lon="9.650352847022777"><ele>726.0</ele><time>2026-05-03T07:42:43.999Z</time></trkpt><trkpt lat="44.79150551733423" lon="9.650232295300988"><ele>727.4</ele><time>2026-05-03T07:42:44.999Z</time></trkpt><trkpt lat="44.79141130848154" lon="9.650130836082967"><ele>728.8</ele><time>2026-05-03T07:42:45.999Z</time></trkpt><trkpt lat="44.79133706409608" lon="9.650026857314991"><ele>730.1999999999999</ele><time>2026-05-03T07:42:46.999Z</time></trkpt><trkpt lat="44.79128195286792" lon="9.649907515682985"><ele>731.5999999999999</ele><time>2026-05-03T07:42:47.999Z</time></trkpt><trkpt lat="44.79122468154821" lon="9.649775352026703"><ele>733.0</ele><time>2026-05-03T07:42:48.999Z</time></trkpt><trkpt lat="44.79116129163589" lon="9.649628877133614"><ele>733.0</ele><time>2026-05-03T07:42:49.999Z</time></trkpt><trkpt lat="44.79108447858579" lon="9.649509653942625"><ele>733.0</ele><time>2026-05-03T07:42:50.999Z</time></trkpt><trkpt lat="44.79100483507166" lon="9.649456676689642"><ele>733.0</ele><time>2026-05-03T07:42:51.999Z</time></trkpt><trkpt lat="44.79092194430714" lon="9.649441285947464"><ele>733.0</ele><time>2026-05-03T07:42:52.999Z</time></trkpt><trkpt lat="44.79082948557306" lon="9.649447038683812"><ele>733.0</ele><time>2026-05-03T07:42:53.999Z</time></trkpt><trkpt lat="44.79071578416657" lon="9.649472420192762"><ele>729.25</ele><time>2026-05-03T07:42:54.999Z</time></trkpt><trkpt lat="44.79060064333053" lon="9.649503529687594"><ele>725.5</ele><time>2026-05-03T07:42:55.999Z</time></trkpt><trkpt lat="44.790487913257216" lon="9.649526988567322"><ele>721.75</ele><time>2026-05-03T07:42:56.999Z</time></trkpt><trkpt lat="44.790379208451974" lon="9.649546205643215"><ele>718.0</ele><time>2026-05-03T07:42:57.999Z</time></trkpt><trkpt lat="44.790271185650134" lon="9.649564966839309"><ele>716.5999999999999</ele><time>2026-05-03T07:42:58.999Z</time></trkpt><trkpt lat="44.790167977389146" lon="9.649577059175499"><ele>715.1999999999999</ele><time>2026-05-03T07:42:59.999Z</time></trkpt><trkpt lat="44.79006900115144" lon="9.649575419775019"><ele>713.8</ele><time>2026-05-03T07:43:00.999Z</time></trkpt><trkpt lat="44.789969268077066" lon="9.64957216407333"><ele>712.4</ele><time>2026-05-03T07:43:01.999Z</time></trkpt><trkpt lat="44.789863900360494" lon="9.64954171153012"><ele>711.0</ele><time>2026-05-03T07:43:02.999Z</time></trkpt><trkpt lat="44.78973755071001" lon="9.649483247089151"><ele>711.4</ele><time>2026-05-03T07:43:03.999Z</time></trkpt><trkpt lat="44.78962011388436" lon="9.649427701706559"><ele>711.8</ele><time>2026-05-03T07:43:04.999Z</time></trkpt><trkpt lat="44.789513245565765" lon="9.64937667730657"><ele>712.1999999999999</ele><time>2026-05-03T07:43:05.999Z</time></trkpt><trkpt lat="44.789434032644145" lon="9.64930384558711"><ele>712.5999999999999</ele><time>2026-05-03T07:43:06.999Z</time></trkpt><trkpt lat="44.78937906965091" lon="9.64921788237489"><ele>713.0</ele><time>2026-05-03T07:43:07.999Z</time></trkpt><trkpt lat="44.78931690170358" lon="9.649090697001174"><ele>713.0</ele><time>2026-05-03T07:43:08.999Z</time></trkpt><trkpt lat="44.78926079035363" lon="9.648913887177807"><ele>713.0</ele><time>2026-05-03T07:43:09.999Z</time></trkpt><trkpt lat="44.78919585203197" lon="9.648735420016031"><ele>713.0</ele><time>2026-05-03T07:43:10.999Z</time></trkpt><trkpt lat="44.789117743075806" lon="9.648583104519961"><ele>713.0</ele><time>2026-05-03T07:43:11.999Z</time></trkpt><trkpt lat="44.78902762017481" lon="9.648455875943107"><ele>713.75</ele><time>2026-05-03T07:43:12.999Z</time></trkpt><trkpt lat="44.78893337424208" lon="9.648335284429852"><ele>714.5</ele><time>2026-05-03T07:43:13.999Z</time></trkpt><trkpt lat="44.78884627020337" lon="9.648193596864193"><ele>715.25</ele><time>2026-05-03T07:43:14.999Z</time></trkpt><trkpt lat="44.78876676909192" lon="9.648041844876236"><ele>716.0</ele><time>2026-05-03T07:43:15.999Z</time></trkpt><trkpt lat="44.78869283475187" lon="9.647897666391483"><ele>714.5999999999999</ele><time>2026-05-03T07:43:16.999Z</time></trkpt><trkpt lat="44.78861661679719" lon="9.64777853988152"><ele>713.2</ele><time>2026-05-03T07:43:17.999Z</time></trkpt><trkpt lat="44.78853048709557" lon="9.647702951984218"><ele>711.8</ele><time>2026-05-03T07:43:18.999Z</time></trkpt><trkpt lat="44.78842590435803" lon="9.64764171313493"><ele>710.4000000000001</ele><time>2026-05-03T07:43:19.999Z</time></trkpt><trkpt lat="44.788324103865925" lon="9.647601268009042"><ele>709.0</ele><time>2026-05-03T07:43:20.999Z</time></trkpt><trkpt lat="44.78820144886708" lon="9.647551561958748"><ele>705.5</ele><time>2026-05-03T07:43:21.998Z</time></trkpt><trkpt lat="44.78807704024575" lon="9.647485562956975"><ele>702.0</ele><time>2026-05-03T07:43:22.998Z</time></trkpt><trkpt lat="44.787955527476925" lon="9.647403405180553"><ele>698.5</ele><time>2026-05-03T07:43:23.998Z</time></trkpt><trkpt lat="44.78783492133019" lon="9.647313921122933"><ele>695.0</ele><time>2026-05-03T07:43:24.998Z</time></trkpt><trkpt lat="44.787717080492534" lon="9.647232150930266"><ele>693.0</ele><time>2026-05-03T07:43:25.998Z</time></trkpt><trkpt lat="44.7876033325777" lon="9.647161076704743"><ele>691.0</ele><time>2026-05-03T07:43:26.998Z</time></trkpt><trkpt lat="44.78749395439283" lon="9.647092430017004"><ele>689.0</ele><time>2026-05-03T07:43:27.998Z</time></trkpt><trkpt lat="44.78738566587309" lon="9.647026187375483"><ele>687.0</ele><time>2026-05-03T07:43:28.998Z</time></trkpt><trkpt lat="44.78726463147348" lon="9.646973471675704"><ele>687.0</ele><time>2026-05-03T07:43:29.998Z</time></trkpt><trkpt lat="44.78712583652317" lon="9.646940405086145"><ele>687.0</ele><time>2026-05-03T07:43:30.998Z</time></trkpt><trkpt lat="44.78698965924862" lon="9.646941185500676"><ele>687.0</ele><time>2026-05-03T07:43:31.998Z</time></trkpt><trkpt lat="44.78686168796636" lon="9.646958950627576"><ele>687.0</ele><time>2026-05-03T07:43:32.998Z</time></trkpt><trkpt lat="44.78675274930809" lon="9.646965090542322"><ele>686.8333333333334</ele><time>2026-05-03T07:43:33.998Z</time></trkpt><trkpt lat="44.78665946566505" lon="9.646930247435506"><ele>686.6666666666666</ele><time>2026-05-03T07:43:34.998Z</time></trkpt><trkpt lat="44.786582136781504" lon="9.64686463833267"><ele>686.5</ele><time>2026-05-03T07:43:36Z</time></trkpt><trkpt lat="44.78652092394704" lon="9.646796700862925"><ele>686.3333333333333</ele><time>2026-05-03T07:43:37Z</time></trkpt><trkpt lat="44.786452562086744" lon="9.64673969310482"><ele>686.1666666666666</ele><time>2026-05-03T07:43:38Z</time></trkpt><trkpt lat="44.78637197066578" lon="9.646692268168612"><ele>686.0</ele><time>2026-05-03T07:43:39Z</time></trkpt><trkpt lat="44.786255538683456" lon="9.646646853195083"><ele>686.0</ele><time>2026-05-03T07:43:40Z</time></trkpt><trkpt lat="44.786116741184145" lon="9.646597918131974"><ele>686.0</ele><time>2026-05-03T07:43:41Z</time></trkpt><trkpt lat="44.785977697811184" lon="9.646550145588675"><ele>686.0</ele><time>2026-05-03T07:43:42Z</time></trkpt><trkpt lat="44.78584984278025" lon="9.6465085765386"><ele>686.0</ele><time>2026-05-03T07:43:43Z</time></trkpt><trkpt lat="44.785753783067264" lon="9.646474363942131"><ele>685.2857142857143</ele><time>2026-05-03T07:43:44Z</time></trkpt><trkpt lat="44.78567751379307" lon="9.646447630699022"><ele>684.5714285714286</ele><time>2026-05-03T07:43:45Z</time></trkpt><trkpt lat="44.78561360986124" lon="9.646429301828123"><ele>683.8571428571429</ele><time>2026-05-03T07:43:46Z</time></trkpt><trkpt lat="44.78554882265788" lon="9.64644525151801"><ele>683.1428571428571</ele><time>2026-05-03T07:43:49Z</time></trkpt><trkpt lat="44.78547785188703" lon="9.646446866155879"><ele>682.4285714285714</ele><time>2026-05-03T07:43:53Z</time></trkpt><trkpt lat="44.78538296267039" lon="9.646453192643516"><ele>681.7142857142858</ele><time>2026-05-03T07:44:00Z</time></trkpt><trkpt lat="44.785314938677224" lon="9.646455622843067"><ele>681.0</ele><time>2026-05-03T07:44:01Z</time></trkpt><trkpt lat="44.78523180764286" lon="9.646432976047427"><ele>681.5</ele><time>2026-05-03T07:44:02Z</time></trkpt><trkpt lat="44.7851694408904" lon="9.646399468723986"><ele>682.0</ele><time>2026-05-03T07:44:03Z</time></trkpt><trkpt lat="44.785056805767226" lon="9.64635698462441"><ele>682.5</ele><time>2026-05-03T07:44:05Z</time></trkpt><trkpt lat="44.78500084827501" lon="9.646309453668268"><ele>683.0</ele><time>2026-05-03T07:44:06Z</time></trkpt><trkpt lat="44.78489910139786" lon="9.646221596283597"><ele>683.5</ele><time>2026-05-03T07:44:08Z</time></trkpt><trkpt lat="44.7848575569715" lon="9.646151618942845"><ele>684.0</ele><time>2026-05-03T07:44:09Z</time></trkpt><trkpt lat="44.784831117715946" lon="9.646064809179768"><ele>685.4000000000001</ele><time>2026-05-03T07:44:10Z</time></trkpt><trkpt lat="44.784771378010404" lon="9.646014933677822"><ele>686.8</ele><time>2026-05-03T07:44:12Z</time></trkpt><trkpt lat="44.784683131898824" lon="9.645952357836181"><ele>688.2</ele><time>2026-05-03T07:44:15Z</time></trkpt><trkpt lat="44.78462985159916" lon="9.645904734252548"><ele>689.5999999999999</ele><time>2026-05-03T07:44:16Z</time></trkpt><trkpt lat="44.784528205417544" lon="9.645776963794637"><ele>691.0</ele><time>2026-05-03T07:44:18Z</time></trkpt><trkpt lat="44.784457371954105" lon="9.645704220618693"><ele>691.0</ele><time>2026-05-03T07:44:19Z</time></trkpt><trkpt lat="44.78435600317872" lon="9.64558008942273"><ele>691.0</ele><time>2026-05-03T07:44:21Z</time></trkpt><trkpt lat="44.784296048718986" lon="9.645520774983977"><ele>691.0</ele><time>2026-05-03T07:44:22Z</time></trkpt><trkpt lat="44.78421358712666" lon="9.645437179496847"><ele>691.0</ele><time>2026-05-03T07:44:23Z</time></trkpt><trkpt lat="44.78414152646756" lon="9.645369810361188"><ele>691.0</ele><time>2026-05-03T07:44:24Z</time></trkpt><trkpt lat="44.78403005054036" lon="9.6453047146786"><ele>692.1999999999999</ele><time>2026-05-03T07:44:25.999Z</time></trkpt><trkpt lat="44.78392409903034" lon="9.645180090636414"><ele>693.4</ele><time>2026-05-03T07:44:27.999Z</time></trkpt><trkpt lat="44.78383247852685" lon="9.64513255943621"><ele>694.6</ele><time>2026-05-03T07:44:28.999Z</time></trkpt><trkpt lat="44.78375701905105" lon="9.645115831941002"><ele>695.8</ele><time>2026-05-03T07:44:29.999Z</time></trkpt><trkpt lat="44.783690618834505" lon="9.645110511160636"><ele>697.0</ele><time>2026-05-03T07:44:30.999Z</time></trkpt><trkpt lat="44.783577272495485" lon="9.645073879081647"><ele>697.5</ele><time>2026-05-03T07:44:32.999Z</time></trkpt><trkpt lat="44.78346364307195" lon="9.645071616148185"><ele>698.0</ele><time>2026-05-03T07:44:33.999Z</time></trkpt><trkpt lat="44.783324728340965" lon="9.645044195602964"><ele>698.5</ele><time>2026-05-03T07:44:34.999Z</time></trkpt><trkpt lat="44.78321752580274" lon="9.64503467821863"><ele>699.0</ele><time>2026-05-03T07:44:35.999Z</time></trkpt><trkpt lat="44.78312448532457" lon="9.64506730875399"><ele>699.0</ele><time>2026-05-03T07:44:36.999Z</time></trkpt><trkpt lat="44.783045710629686" lon="9.645120233952657"><ele>699.0</ele><time>2026-05-03T07:44:37.999Z</time></trkpt><trkpt lat="44.78296853736464" lon="9.645215432993854"><ele>699.0</ele><time>2026-05-03T07:44:38.999Z</time></trkpt><trkpt lat="44.782880221496285" lon="9.645322413748955"><ele>699.0</ele><time>2026-05-03T07:44:39.999Z</time></trkpt><trkpt lat="44.78279762152436" lon="9.645366514856066"><ele>699.0</ele><time>2026-05-03T07:44:40.999Z</time></trkpt><trkpt lat="44.78273203433598" lon="9.645408684999019"><ele>698.5</ele><time>2026-05-03T07:44:41.999Z</time></trkpt><trkpt lat="44.78268158478731" lon="9.645482576700417"><ele>698.0</ele><time>2026-05-03T07:44:42.999Z</time></trkpt><trkpt lat="44.782629348056" lon="9.645562564416691"><ele>697.5</ele><time>2026-05-03T07:44:43.999Z</time></trkpt><trkpt lat="44.78255586177417" lon="9.64563885178855"><ele>697.0</ele><time>2026-05-03T07:44:44.999Z</time></trkpt><trkpt lat="44.7824818039752" lon="9.64569498727666"><ele>696.5</ele><time>2026-05-03T07:44:45.999Z</time></trkpt><trkpt lat="44.7824174688404" lon="9.645701743846521"><ele>696.0</ele><time>2026-05-03T07:44:46.999Z</time></trkpt><trkpt lat="44.782337900273724" lon="9.645701350596662"><ele>698.0</ele><time>2026-05-03T07:44:47.999Z</time></trkpt><trkpt lat="44.782261662580765" lon="9.645723494721636"><ele>700.0</ele><time>2026-05-03T07:44:48.999Z</time></trkpt><trkpt lat="44.782194377713154" lon="9.64578062229091"><ele>702.0</ele><time>2026-05-03T07:44:49.999Z</time></trkpt><trkpt lat="44.78212938533536" lon="9.645865717872532"><ele>704.0</ele><time>2026-05-03T07:44:50.999Z</time></trkpt><trkpt lat="44.78206010430667" lon="9.645957997211303"><ele>706.0</ele><time>2026-05-03T07:44:51.999Z</time></trkpt><trkpt lat="44.782001462605415" lon="9.646024724556716"><ele>708.0</ele><time>2026-05-03T07:44:52.999Z</time></trkpt><trkpt lat="44.78193793888547" lon="9.646078502464663"><ele>708.0</ele><time>2026-05-03T07:44:53.999Z</time></trkpt><trkpt lat="44.78185933994585" lon="9.646103407603588"><ele>708.0</ele><time>2026-05-03T07:44:54.999Z</time></trkpt><trkpt lat="44.781789821448406" lon="9.646101453884572"><ele>708.0</ele><time>2026-05-03T07:44:55.999Z</time></trkpt><trkpt lat="44.78170450616662" lon="9.646115031884959"><ele>708.0</ele><time>2026-05-03T07:44:56.999Z</time></trkpt><trkpt lat="44.78159727359572" lon="9.646168962600347"><ele>708.0</ele><time>2026-05-03T07:44:57.999Z</time></trkpt><trkpt lat="44.781518578925244" lon="9.646231025266495"><ele>708.0</ele><time>2026-05-03T07:44:58.999Z</time></trkpt><trkpt lat="44.78145293570065" lon="9.64640579963282"><ele>709.4</ele><time>2026-05-03T07:45:00.999Z</time></trkpt><trkpt lat="44.781390088381656" lon="9.646526755870816"><ele>710.8</ele><time>2026-05-03T07:45:01.999Z</time></trkpt><trkpt lat="44.78134652942904" lon="9.646613274722162"><ele>712.2</ele><time>2026-05-03T07:45:02.999Z</time></trkpt><trkpt lat="44.78123336056655" lon="9.646671607366848"><ele>713.6</ele><time>2026-05-03T07:45:04.999Z</time></trkpt><trkpt lat="44.781126954277575" lon="9.646661885475115"><ele>715.0</ele><time>2026-05-03T07:45:05.999Z</time></trkpt><trkpt lat="44.78100503120591" lon="9.64665273385421"><ele>716.0</ele><time>2026-05-03T07:45:06.999Z</time></trkpt><trkpt lat="44.78090543305117" lon="9.646661249379196"><ele>717.0</ele><time>2026-05-03T07:45:07.999Z</time></trkpt><trkpt lat="44.78083224671957" lon="9.646684594050415"><ele>718.0</ele><time>2026-05-03T07:45:08.999Z</time></trkpt><trkpt lat="44.78076815294074" lon="9.646712000867366"><ele>719.0</ele><time>2026-05-03T07:45:09.999Z</time></trkpt><trkpt lat="44.78066983868064" lon="9.646751147034914"><ele>720.0</ele><time>2026-05-03T07:45:11.999Z</time></trkpt><trkpt lat="44.78059137432652" lon="9.646773247223926"><ele>721.0</ele><time>2026-05-03T07:45:14.999Z</time></trkpt><trkpt lat="44.78051824466196" lon="9.64679104804386"><ele>721.0</ele><time>2026-05-03T07:45:16.999Z</time></trkpt><trkpt lat="44.78041037054499" lon="9.646796836312426"><ele>721.0</ele><time>2026-05-03T07:45:18.999Z</time></trkpt><trkpt lat="44.780305809504654" lon="9.646805665544088"><ele>721.0</ele><time>2026-05-03T07:45:20.999Z</time></trkpt><trkpt lat="44.78019498588697" lon="9.646820112937167"><ele>721.0</ele><time>2026-05-03T07:45:22.999Z</time></trkpt><trkpt lat="44.78008200836718" lon="9.646874978820254"><ele>721.0</ele><time>2026-05-03T07:45:24.999Z</time></trkpt><trkpt lat="44.780019181550315" lon="9.646922656360406"><ele>720.0</ele><time>2026-05-03T07:45:25.999Z</time></trkpt><trkpt lat="44.77991971685108" lon="9.647032413883226"><ele>719.0</ele><time>2026-05-03T07:45:27.999Z</time></trkpt><trkpt lat="44.779843170371876" lon="9.647164819402136"><ele>718.0</ele><time>2026-05-03T07:45:29.999Z</time></trkpt><trkpt lat="44.77978268954099" lon="9.647256450801246"><ele>717.0</ele><time>2026-05-03T07:45:31.999Z</time></trkpt><trkpt lat="44.77972932680178" lon="9.647320346725913"><ele>716.0</ele><time>2026-05-03T07:45:33.999Z</time></trkpt><trkpt lat="44.77967555933113" lon="9.647393114946048"><ele>716.0</ele><time>2026-05-03T07:45:35.999Z</time></trkpt><trkpt lat="44.77958981341433" lon="9.647463814353195"><ele>716.0</ele><time>2026-05-03T07:45:37.998Z</time></trkpt><trkpt lat="44.77952369284638" lon="9.647492727675562"><ele>716.0</ele><time>2026-05-03T07:45:38.998Z</time></trkpt><trkpt lat="44.779449587302324" lon="9.64751670046482"><ele>716.0</ele><time>2026-05-03T07:45:39.998Z</time></trkpt><trkpt lat="44.77936023519024" lon="9.647555643908397"><ele>716.0</ele><time>2026-05-03T07:45:40.998Z</time></trkpt><trkpt lat="44.7792858627121" lon="9.647624867644806"><ele>716.0</ele><time>2026-05-03T07:45:42Z</time></trkpt><trkpt lat="44.779193967231485" lon="9.647671343052163"><ele>716.4</ele><time>2026-05-03T07:45:43Z</time></trkpt><trkpt lat="44.77910720151357" lon="9.647691571862376"><ele>716.8</ele><time>2026-05-03T07:45:44Z</time></trkpt><trkpt lat="44.77902241408112" lon="9.6477843800517"><ele>717.1999999999999</ele><time>2026-05-03T07:45:46Z</time></trkpt><trkpt lat="44.77895355552033" lon="9.64783025254143"><ele>717.5999999999999</ele><time>2026-05-03T07:45:47Z</time></trkpt><trkpt lat="44.77887475193318" lon="9.647849243211054"><ele>718.0</ele><time>2026-05-03T07:45:48Z</time></trkpt><trkpt lat="44.77877281875438" lon="9.647851703631755"><ele>718.0</ele><time>2026-05-03T07:45:49Z</time></trkpt><trkpt lat="44.77869294459969" lon="9.647864941175275"><ele>718.0</ele><time>2026-05-03T07:45:50Z</time></trkpt><trkpt lat="44.778628483598325" lon="9.647896303463089"><ele>718.0</ele><time>2026-05-03T07:45:51Z</time></trkpt><trkpt lat="44.778537315597454" lon="9.647924552209737"><ele>718.0</ele><time>2026-05-03T07:45:52Z</time></trkpt><trkpt lat="44.778408207201146" lon="9.647962225603182"><ele>718.0</ele><time>2026-05-03T07:45:53Z</time></trkpt><trkpt lat="44.77833679063451" lon="9.648023463132828"><ele>718.8333333333334</ele><time>2026-05-03T07:45:54Z</time></trkpt><trkpt lat="44.77829103605004" lon="9.648084502665624"><ele>719.6666666666667</ele><time>2026-05-03T07:45:56Z</time></trkpt><trkpt lat="44.77824131846024" lon="9.64814627721026"><ele>720.5</ele><time>2026-05-03T07:45:58Z</time></trkpt><trkpt lat="44.7781371075542" lon="9.648263790793466"><ele>721.3333333333334</ele><time>2026-05-03T07:46:00Z</time></trkpt><trkpt lat="44.77805072197533" lon="9.648266406657054"><ele>722.1666666666666</ele><time>2026-05-03T07:46:02Z</time></trkpt><trkpt lat="44.77795149035944" lon="9.648277449633595"><ele>723.0</ele><time>2026-05-03T07:46:04Z</time></trkpt><trkpt lat="44.77788064851473" lon="9.64826146674279"><ele>723.0</ele><time>2026-05-03T07:46:05Z</time></trkpt><trkpt lat="44.77781973470621" lon="9.648232925566466"><ele>723.0</ele><time>2026-05-03T07:46:06Z</time></trkpt><trkpt lat="44.77769004410616" lon="9.648271055802214"><ele>723.0</ele><time>2026-05-03T07:46:08Z</time></trkpt><trkpt lat="44.77760989624993" lon="9.64829372305371"><ele>723.0</ele><time>2026-05-03T07:46:09Z</time></trkpt><trkpt lat="44.777526650219514" lon="9.64831720645055"><ele>723.0</ele><time>2026-05-03T07:46:10Z</time></trkpt><trkpt lat="44.77741985619775" lon="9.648334523296798"><ele>722.2</ele><time>2026-05-03T07:46:12Z</time></trkpt><trkpt lat="44.77731131711774" lon="9.648300720538508"><ele>721.4</ele><time>2026-05-03T07:46:14Z</time></trkpt><trkpt lat="44.777199110670296" lon="9.648281860060965"><ele>720.6</ele><time>2026-05-03T07:46:16Z</time></trkpt><trkpt lat="44.77706674900245" lon="9.64822351625601"><ele>719.8000000000001</ele><time>2026-05-03T07:46:18Z</time></trkpt><trkpt lat="44.77698167006935" lon="9.648215444371804"><ele>719.0</ele><time>2026-05-03T07:46:19Z</time></trkpt><trkpt lat="44.77690593589881" lon="9.648251499081569"><ele>719.4000000000001</ele><time>2026-05-03T07:46:20Z</time></trkpt><trkpt lat="44.77681192481172" lon="9.648263045370795"><ele>719.8</ele><time>2026-05-03T07:46:21Z</time></trkpt><trkpt lat="44.77673100330325" lon="9.648236842299031"><ele>720.2</ele><time>2026-05-03T07:46:22Z</time></trkpt><trkpt lat="44.77666117817396" lon="9.64821788694865"><ele>720.5999999999999</ele><time>2026-05-03T07:46:23Z</time></trkpt><trkpt lat="44.77655055365452" lon="9.648194120129402"><ele>721.0</ele><time>2026-05-03T07:46:25Z</time></trkpt><trkpt lat="44.77641957622933" lon="9.648252266484072"><ele>721.0</ele><time>2026-05-03T07:46:27Z</time></trkpt><trkpt lat="44.77629775558443" lon="9.648333907772988"><ele>721.0</ele><time>2026-05-03T07:46:28Z</time></trkpt><trkpt lat="44.77618366141433" lon="9.648416314402972"><ele>721.0</ele><time>2026-05-03T07:46:29Z</time></trkpt><trkpt lat="44.77611854413542" lon="9.648451355439946"><ele>721.0</ele><time>2026-05-03T07:46:30Z</time></trkpt><trkpt lat="44.776005708796454" lon="9.648510276540263"><ele>720.1666666666667</ele><time>2026-05-03T07:46:31.999Z</time></trkpt><trkpt lat="44.775893990984095" lon="9.648556004440806"><ele>719.3333333333334</ele><time>2026-05-03T07:46:33.999Z</time></trkpt><trkpt lat="44.77579796603303" lon="9.648607393646785"><ele>718.5</ele><time>2026-05-03T07:46:35.999Z</time></trkpt><trkpt lat="44.77577453369469" lon="9.648698714544485"><ele>717.6666666666666</ele><time>2026-05-03T07:46:37.999Z</time></trkpt><trkpt lat="44.77582471255047" lon="9.648767003041876"><ele>716.8333333333333</ele><time>2026-05-03T07:47:11.999Z</time></trkpt><trkpt lat="44.77576942058414" lon="9.648721117832105"><ele>716.0</ele><time>2026-05-03T07:48:20Z</time></trkpt><trkpt lat="44.775683495208945" lon="9.648730420131319"><ele>715.75</ele><time>2026-05-03T07:48:57.999Z</time></trkpt><trkpt lat="44.77558456882347" lon="9.648729185495908"><ele>715.5</ele><time>2026-05-03T07:48:58.999Z</time></trkpt><trkpt lat="44.775452019882415" lon="9.648728433635839"><ele>715.25</ele><time>2026-05-03T07:48:59.999Z</time></trkpt><trkpt lat="44.77531476923408" lon="9.648721006688755"><ele>715.0</ele><time>2026-05-03T07:49:00.999Z</time></trkpt><trkpt lat="44.7751852068464" lon="9.64869156154974"><ele>714.8</ele><time>2026-05-03T07:49:01.999Z</time></trkpt><trkpt lat="44.77507207962234" lon="9.648666810012003"><ele>714.6</ele><time>2026-05-03T07:49:02.999Z</time></trkpt><trkpt lat="44.774968324977486" lon="9.648641951599753"><ele>714.4000000000001</ele><time>2026-05-03T07:49:03.999Z</time></trkpt><trkpt lat="44.77486864876923" lon="9.648614882861727"><ele>714.2</ele><time>2026-05-03T07:49:04.999Z</time></trkpt><trkpt lat="44.7747724484663" lon="9.648594742937458"><ele>714.0</ele><time>2026-05-03T07:49:05.999Z</time></trkpt><trkpt lat="44.77467524432654" lon="9.64857618823729"><ele>714.5</ele><time>2026-05-03T07:49:06.999Z</time></trkpt><trkpt lat="44.77455461273578" lon="9.648548033046353"><ele>715.0</ele><time>2026-05-03T07:49:07.999Z</time></trkpt><trkpt lat="44.77442240219975" lon="9.648504095592308"><ele>715.5</ele><time>2026-05-03T07:49:08.999Z</time></trkpt><trkpt lat="44.77431279056545" lon="9.64844230104924"><ele>716.0</ele><time>2026-05-03T07:49:09.999Z</time></trkpt><trkpt lat="44.77420979410365" lon="9.648385711252173"><ele>716.0</ele><time>2026-05-03T07:49:10.999Z</time></trkpt><trkpt lat="44.77410383347317" lon="9.64833877061248"><ele>716.0</ele><time>2026-05-03T07:49:11.999Z</time></trkpt><trkpt lat="44.77399558206885" lon="9.64829961329534"><ele>716.0</ele><time>2026-05-03T07:49:12.999Z</time></trkpt><trkpt lat="44.77388550169984" lon="9.648264809036073"><ele>716.0</ele><time>2026-05-03T07:49:13.999Z</time></trkpt><trkpt lat="44.773771087494545" lon="9.648224423847186"><ele>716.0</ele><time>2026-05-03T07:49:14.999Z</time></trkpt><trkpt lat="44.77365222757965" lon="9.648177344473934"><ele>716.0</ele><time>2026-05-03T07:49:15.999Z</time></trkpt><trkpt lat="44.773529698607" lon="9.648138011445504"><ele>716.0</ele><time>2026-05-03T07:49:16.999Z</time></trkpt><trkpt lat="44.77340192472165" lon="9.648110069540218"><ele>716.0</ele><time>2026-05-03T07:49:17.999Z</time></trkpt><trkpt lat="44.77328101092923" lon="9.648087924840617"><ele>716.75</ele><time>2026-05-03T07:49:18.999Z</time></trkpt><trkpt lat="44.77315268310281" lon="9.648048972076127"><ele>717.5</ele><time>2026-05-03T07:49:19.999Z</time></trkpt><trkpt lat="44.77302657578394" lon="9.648009436551385"><ele>718.25</ele><time>2026-05-03T07:49:20.999Z</time></trkpt><trkpt lat="44.77290517807184" lon="9.647972773355688"><ele>719.0</ele><time>2026-05-03T07:49:21.999Z</time></trkpt><trkpt lat="44.77278254408643" lon="9.647933240028088"><ele>719.75</ele><time>2026-05-03T07:49:22.999Z</time></trkpt><trkpt lat="44.77265979757276" lon="9.647890777291282"><ele>720.5</ele><time>2026-05-03T07:49:23.999Z</time></trkpt><trkpt lat="44.772529189905065" lon="9.647843226493878"><ele>721.25</ele><time>2026-05-03T07:49:24.999Z</time></trkpt><trkpt lat="44.7724095734473" lon="9.647804701905914"><ele>722.0</ele><time>2026-05-03T07:49:25.999Z</time></trkpt><trkpt lat="44.772287736376384" lon="9.647785198181912"><ele>722.0</ele><time>2026-05-03T07:49:26.999Z</time></trkpt><trkpt lat="44.77217216249314" lon="9.647807676412539"><ele>722.0</ele><time>2026-05-03T07:49:27.999Z</time></trkpt><trkpt lat="44.77206555936601" lon="9.647855658747435"><ele>722.0</ele><time>2026-05-03T07:49:28.999Z</time></trkpt><trkpt lat="44.77196533901901" lon="9.647930640823976"><ele>722.0</ele><time>2026-05-03T07:49:29.999Z</time></trkpt><trkpt lat="44.77187423211281" lon="9.64801866252377"><ele>723.8</ele><time>2026-05-03T07:49:30.999Z</time></trkpt><trkpt lat="44.77178602502097" lon="9.648122408447732"><ele>725.6</ele><time>2026-05-03T07:49:31.999Z</time></trkpt><trkpt lat="44.77169848423427" lon="9.648228655013549"><ele>727.4</ele><time>2026-05-03T07:49:32.999Z</time></trkpt><trkpt lat="44.771612360025216" lon="9.648333919183228"><ele>729.1999999999999</ele><time>2026-05-03T07:49:33.999Z</time></trkpt><trkpt lat="44.771527130481914" lon="9.648419430347031"><ele>731.0</ele><time>2026-05-03T07:49:34.999Z</time></trkpt><trkpt lat="44.771435677849425" lon="9.648493088645317"><ele>731.0</ele><time>2026-05-03T07:49:35.999Z</time></trkpt><trkpt lat="44.77133464830863" lon="9.648549893461599"><ele>731.0</ele><time>2026-05-03T07:49:36.999Z</time></trkpt><trkpt lat="44.7712180020687" lon="9.648589801446645"><ele>731.0</ele><time>2026-05-03T07:49:37.999Z</time></trkpt><trkpt lat="44.77109598354738" lon="9.64862618515863"><ele>731.0</ele><time>2026-05-03T07:49:38.999Z</time></trkpt><trkpt lat="44.77096844779558" lon="9.648666129842333"><ele>731.5</ele><time>2026-05-03T07:49:39.999Z</time></trkpt><trkpt lat="44.77083238185916" lon="9.648712676851753"><ele>732.0</ele><time>2026-05-03T07:49:40.999Z</time></trkpt><trkpt lat="44.770697387099055" lon="9.64876854960443"><ele>732.5</ele><time>2026-05-03T07:49:41.999Z</time></trkpt><trkpt lat="44.770566371893906" lon="9.648827492918091"><ele>733.0</ele><time>2026-05-03T07:49:42.999Z</time></trkpt><trkpt lat="44.770440980926374" lon="9.64888513850149"><ele>733.0</ele><time>2026-05-03T07:49:43.999Z</time></trkpt><trkpt lat="44.77031534645646" lon="9.648944470316655"><ele>733.0</ele><time>2026-05-03T07:49:44.999Z</time></trkpt><trkpt lat="44.77019548450247" lon="9.649016081587437"><ele>733.0</ele><time>2026-05-03T07:49:45.999Z</time></trkpt><trkpt lat="44.770082142772814" lon="9.649108848699024"><ele>733.0</ele><time>2026-05-03T07:49:46.999Z</time></trkpt><trkpt lat="44.769976805702754" lon="9.649229557113141"><ele>736.5</ele><time>2026-05-03T07:49:47.998Z</time></trkpt><trkpt lat="44.76986451080276" lon="9.649371784618937"><ele>740.0</ele><time>2026-05-03T07:49:48.998Z</time></trkpt><trkpt lat="44.76975035362969" lon="9.649520964786143"><ele>743.5</ele><time>2026-05-03T07:49:49.998Z</time></trkpt><trkpt lat="44.76964952019714" lon="9.649637593369262"><ele>747.0</ele><time>2026-05-03T07:49:50.998Z</time></trkpt><trkpt lat="44.76955171542486" lon="9.649724459735737"><ele>747.0</ele><time>2026-05-03T07:49:51.998Z</time></trkpt><trkpt lat="44.76945248158696" lon="9.649798689707112"><ele>747.0</ele><time>2026-05-03T07:49:52.998Z</time></trkpt><trkpt lat="44.76934997550463" lon="9.649848593066347"><ele>747.0</ele><time>2026-05-03T07:49:54Z</time></trkpt><trkpt lat="44.769245546456546" lon="9.649856645658753"><ele>747.0</ele><time>2026-05-03T07:49:55Z</time></trkpt><trkpt lat="44.76912950098902" lon="9.649816610254296"><ele>747.0</ele><time>2026-05-03T07:49:56Z</time></trkpt><trkpt lat="44.769005610714956" lon="9.649737416284964"><ele>749.0</ele><time>2026-05-03T07:49:57Z</time></trkpt><trkpt lat="44.76887236242471" lon="9.649643923924296"><ele>751.0</ele><time>2026-05-03T07:49:58Z</time></trkpt><trkpt lat="44.768721064769274" lon="9.649565901010273"><ele>753.0</ele><time>2026-05-03T07:49:59Z</time></trkpt><trkpt lat="44.76858039121833" lon="9.649545683474667"><ele>754.25</ele><time>2026-05-03T07:50:00Z</time></trkpt><trkpt lat="44.76844704025724" lon="9.649557469066043"><ele>755.5</ele><time>2026-05-03T07:50:01Z</time></trkpt><trkpt lat="44.768314639942766" lon="9.649610931283716"><ele>756.75</ele><time>2026-05-03T07:50:02Z</time></trkpt><trkpt lat="44.76816969072016" lon="9.649699177788262"><ele>758.0</ele><time>2026-05-03T07:50:03Z</time></trkpt><trkpt lat="44.76803232116077" lon="9.649782536093626"><ele>758.0</ele><time>2026-05-03T07:50:04Z</time></trkpt><trkpt lat="44.76790675539747" lon="9.649855108096169"><ele>758.0</ele><time>2026-05-03T07:50:05Z</time></trkpt><trkpt lat="44.76777976603041" lon="9.649930710526272"><ele>758.0</ele><time>2026-05-03T07:50:06Z</time></trkpt><trkpt lat="44.767651127169344" lon="9.650008151174472"><ele>758.0</ele><time>2026-05-03T07:50:07Z</time></trkpt><trkpt lat="44.76752598445065" lon="9.650081603297988"><ele>758.25</ele><time>2026-05-03T07:50:08Z</time></trkpt><trkpt lat="44.76740919357959" lon="9.650160225497526"><ele>758.5</ele><time>2026-05-03T07:50:09Z</time></trkpt><trkpt lat="44.76730180390924" lon="9.650260703362196"><ele>758.75</ele><time>2026-05-03T07:50:10Z</time></trkpt><trkpt lat="44.76719363063843" lon="9.650351649057573"><ele>759.0</ele><time>2026-05-03T07:50:11Z</time></trkpt><trkpt lat="44.76707535301531" lon="9.65039244928692"><ele>759.0</ele><time>2026-05-03T07:50:12Z</time></trkpt><trkpt lat="44.766942591517086" lon="9.650436291517691"><ele>759.0</ele><time>2026-05-03T07:50:13Z</time></trkpt><trkpt lat="44.76679664286514" lon="9.650456756523425"><ele>759.0</ele><time>2026-05-03T07:50:14Z</time></trkpt><trkpt lat="44.76664444773713" lon="9.65045805944268"><ele>759.0</ele><time>2026-05-03T07:50:15Z</time></trkpt><trkpt lat="44.76651013485534" lon="9.650454126960408"><ele>761.25</ele><time>2026-05-03T07:50:16Z</time></trkpt><trkpt lat="44.766384858691914" lon="9.650460148630579"><ele>763.5</ele><time>2026-05-03T07:50:17Z</time></trkpt><trkpt lat="44.76626532961866" lon="9.650500610350955"><ele>765.75</ele><time>2026-05-03T07:50:18Z</time></trkpt><trkpt lat="44.76616578967159" lon="9.650569776047744"><ele>768.0</ele><time>2026-05-03T07:50:19Z</time></trkpt><trkpt lat="44.76609203835744" lon="9.650655332387402"><ele>768.0</ele><time>2026-05-03T07:50:20Z</time></trkpt><trkpt lat="44.766037593138364" lon="9.650733162249793"><ele>768.0</ele><time>2026-05-03T07:50:21Z</time></trkpt><trkpt lat="44.76596368000831" lon="9.650826463046913"><ele>768.0</ele><time>2026-05-03T07:50:23Z</time></trkpt><trkpt lat="44.765863947253365" lon="9.650831917107109"><ele>768.0</ele><time>2026-05-03T07:50:25Z</time></trkpt><trkpt lat="44.76576672206808" lon="9.650787898125412"><ele>768.0</ele><time>2026-05-03T07:50:27Z</time></trkpt><trkpt lat="44.765731227058446" lon="9.650658528611347"><ele>769.3333333333334</ele><time>2026-05-03T07:50:29Z</time></trkpt><trkpt lat="44.76573901013619" lon="9.65056725691216"><ele>770.6666666666667</ele><time>2026-05-03T07:50:30Z</time></trkpt><trkpt lat="44.7657641712451" lon="9.650476961958855"><ele>772.0</ele><time>2026-05-03T07:50:31Z</time></trkpt><trkpt lat="44.7658122054892" lon="9.650394426346375"><ele>773.3333333333334</ele><time>2026-05-03T07:50:32Z</time></trkpt><trkpt lat="44.76587527892927" lon="9.650334653416046"><ele>774.6666666666667</ele><time>2026-05-03T07:50:33Z</time></trkpt><trkpt lat="44.7659481464136" lon="9.65028251982687"><ele>776.0</ele><time>2026-05-03T07:50:34Z</time></trkpt><trkpt lat="44.76602703573377" lon="9.650240714302024"><ele>776.8</ele><time>2026-05-03T07:50:35Z</time></trkpt><trkpt lat="44.76611389606332" lon="9.650199056558536"><ele>777.5999999999999</ele><time>2026-05-03T07:50:36Z</time></trkpt><trkpt lat="44.7662005279941" lon="9.65013625325853"><ele>778.4</ele><time>2026-05-03T07:50:37Z</time></trkpt><trkpt lat="44.76628167298428" lon="9.650056235631066"><ele>779.2</ele><time>2026-05-03T07:50:38Z</time></trkpt><trkpt lat="44.76635836401416" lon="9.649968279130936"><ele>780.0</ele><time>2026-05-03T07:50:39Z</time></trkpt><trkpt lat="44.76643179462416" lon="9.649872811131083"><ele>780.0</ele><time>2026-05-03T07:50:40Z</time></trkpt><trkpt lat="44.76650547232422" lon="9.649774321915002"><ele>780.0</ele><time>2026-05-03T07:50:41Z</time></trkpt><trkpt lat="44.76658174481806" lon="9.649669000713562"><ele>780.0</ele><time>2026-05-03T07:50:42Z</time></trkpt><trkpt lat="44.766659868704075" lon="9.649568999897877"><ele>780.0</ele><time>2026-05-03T07:50:43Z</time></trkpt><trkpt lat="44.766732821545396" lon="9.649478122555202"><ele>780.0</ele><time>2026-05-03T07:50:43.999Z</time></trkpt><trkpt lat="44.76680681154405" lon="9.649383379917868"><ele>780.6</ele><time>2026-05-03T07:50:44.999Z</time></trkpt><trkpt lat="44.76688427312038" lon="9.649288124279977"><ele>781.2</ele><time>2026-05-03T07:50:45.999Z</time></trkpt><trkpt lat="44.766966836224015" lon="9.64920371826342"><ele>781.8</ele><time>2026-05-03T07:50:46.999Z</time></trkpt><trkpt lat="44.76705263111077" lon="9.649117408977238"><ele>782.4</ele><time>2026-05-03T07:50:47.999Z</time></trkpt><trkpt lat="44.767141410354306" lon="9.649028898430808"><ele>783.0</ele><time>2026-05-03T07:50:48.999Z</time></trkpt><trkpt lat="44.76722553526508" lon="9.648933105379687"><ele>783.0</ele><time>2026-05-03T07:50:49.999Z</time></trkpt><trkpt lat="44.767301619622266" lon="9.648837234085196"><ele>783.0</ele><time>2026-05-03T07:50:50.999Z</time></trkpt><trkpt lat="44.767363405183175" lon="9.64873333351039"><ele>783.0</ele><time>2026-05-03T07:50:51.999Z</time></trkpt><trkpt lat="44.76740457812765" lon="9.648628318808228"><ele>783.0</ele><time>2026-05-03T07:50:52.999Z</time></trkpt><trkpt lat="44.7674301888283" lon="9.648533527324341"><ele>783.0</ele><time>2026-05-03T07:50:53.999Z</time></trkpt><trkpt lat="44.76742381846919" lon="9.648385398224034"><ele>782.6666666666666</ele><time>2026-05-03T07:50:55.999Z</time></trkpt><trkpt lat="44.76745872286986" lon="9.648296385453607"><ele>782.3333333333333</ele><time>2026-05-03T07:50:58.999Z</time></trkpt><trkpt lat="44.76752120113729" lon="9.648263747167572"><ele>782.0</ele><time>2026-05-03T07:51:04.999Z</time></trkpt><trkpt lat="44.76760550923597" lon="9.648227271074935"><ele>781.6666666666666</ele><time>2026-05-03T07:51:06.999Z</time></trkpt><trkpt lat="44.767714233467245" lon="9.648227807478403"><ele>781.3333333333333</ele><time>2026-05-03T07:51:08.999Z</time></trkpt><trkpt lat="44.767799799822264" lon="9.648246448131884"><ele>781.0</ele><time>2026-05-03T07:51:10.999Z</time></trkpt><trkpt lat="44.767909834658894" lon="9.648270635205977"><ele>781.0</ele><time>2026-05-03T07:51:12.999Z</time></trkpt><trkpt lat="44.768019206438154" lon="9.648256689081947"><ele>781.0</ele><time>2026-05-03T07:51:14.999Z</time></trkpt><trkpt lat="44.7681481713943" lon="9.648239978373963"><ele>781.0</ele><time>2026-05-03T07:51:16.999Z</time></trkpt><trkpt lat="44.7682197854296" lon="9.648218396872194"><ele>781.0</ele><time>2026-05-03T07:51:17.999Z</time></trkpt><trkpt lat="44.76829444175075" lon="9.648176222882059"><ele>781.0</ele><time>2026-05-03T07:51:18.999Z</time></trkpt><trkpt lat="44.76836180880771" lon="9.648134921395842"><ele>780.9999999999999</ele><time>2026-05-03T07:51:19.999Z</time></trkpt><trkpt lat="44.768429419391865" lon="9.648106597291928"><ele>781.0</ele><time>2026-05-03T07:51:20.999Z</time></trkpt><trkpt lat="44.76849585624531" lon="9.648076942177065"><ele>781.0</ele><time>2026-05-03T07:51:21.999Z</time></trkpt><trkpt lat="44.76859820863994" lon="9.648018302307785"><ele>781.0</ele><time>2026-05-03T07:51:23.999Z</time></trkpt><trkpt lat="44.76869727421633" lon="9.647970687833405"><ele>780.9999999999999</ele><time>2026-05-03T07:51:25.999Z</time></trkpt><trkpt lat="44.768763693149296" lon="9.647921389639167"><ele>781.0</ele><time>2026-05-03T07:51:27.999Z</time></trkpt><trkpt lat="44.768854346210105" lon="9.647852663202356"><ele>778.9999999999999</ele><time>2026-05-03T07:51:29.999Z</time></trkpt><trkpt lat="44.768962072328776" lon="9.647761969697877"><ele>777.0</ele><time>2026-05-03T07:51:31.999Z</time></trkpt><trkpt lat="44.76902204655648" lon="9.647717589677987"><ele>775.0</ele><time>2026-05-03T07:51:32.999Z</time></trkpt><trkpt lat="44.76907296100969" lon="9.647653352900633"><ele>773.0</ele><time>2026-05-03T07:51:33.999Z</time></trkpt><trkpt lat="44.769123655321145" lon="9.647593898277137"><ele>770.9999999999999</ele><time>2026-05-03T07:51:34.999Z</time></trkpt><trkpt lat="44.76920898289381" lon="9.64752274134964"><ele>769.0</ele><time>2026-05-03T07:51:36.999Z</time></trkpt><trkpt lat="44.76927368813796" lon="9.647444666538506"><ele>768.9999999999999</ele><time>2026-05-03T07:51:38.999Z</time></trkpt><trkpt lat="44.76933718857803" lon="9.647410885144993"><ele>769.0</ele><time>2026-05-03T07:51:40.999Z</time></trkpt><trkpt lat="44.769442593933505" lon="9.64738647847925"><ele>769.0</ele><time>2026-05-03T07:51:42.999Z</time></trkpt><trkpt lat="44.76951141064797" lon="9.647375322232847"><ele>769.0</ele><time>2026-05-03T07:51:44.999Z</time></trkpt><trkpt lat="44.76959297988146" lon="9.647359165779525"><ele>768.9999999999999</ele><time>2026-05-03T07:51:46.999Z</time></trkpt><trkpt lat="44.76965790431774" lon="9.64732824055972"><ele>769.0</ele><time>2026-05-03T07:51:48.999Z</time></trkpt><trkpt lat="44.769706760028704" lon="9.647248176739057"><ele>767.4999999999999</ele><time>2026-05-03T07:52:04Z</time></trkpt><trkpt lat="44.76978212932906" lon="9.64715702816777"><ele>766.0</ele><time>2026-05-03T07:52:09Z</time></trkpt><trkpt lat="44.769847381777765" lon="9.647098347272369"><ele>764.5</ele><time>2026-05-03T07:52:11Z</time></trkpt><trkpt lat="44.76992462555425" lon="9.64705671169531"><ele>763.0</ele><time>2026-05-03T07:52:13Z</time></trkpt><trkpt lat="44.7699718623905" lon="9.646984897673017"><ele>761.5</ele><time>2026-05-03T07:52:15Z</time></trkpt><trkpt lat="44.7700610827585" lon="9.64692860234607"><ele>760.0</ele><time>2026-05-03T07:52:17Z</time></trkpt><trkpt lat="44.77012195324172" lon="9.6468717091511"><ele>759.7142857142858</ele><time>2026-05-03T07:52:19Z</time></trkpt><trkpt lat="44.77018375536523" lon="9.646827481266541"><ele>759.4285714285714</ele><time>2026-05-03T07:52:21Z</time></trkpt><trkpt lat="44.77025433607544" lon="9.64680416998727"><ele>759.1428571428571</ele><time>2026-05-03T07:52:23Z</time></trkpt><trkpt lat="44.77031353855478" lon="9.64675228054151"><ele>758.8571428571429</ele><time>2026-05-03T07:52:25Z</time></trkpt><trkpt lat="44.7703645893611" lon="9.646699911435814"><ele>758.5714285714286</ele><time>2026-05-03T07:52:28Z</time></trkpt><trkpt lat="44.77043561869599" lon="9.646658733976624"><ele>758.2857142857143</ele><time>2026-05-03T07:52:30Z</time></trkpt><trkpt lat="44.77050426904851" lon="9.646637434643957"><ele>758.0</ele><time>2026-05-03T07:52:32Z</time></trkpt><trkpt lat="44.77058535760138" lon="9.646619547154712"><ele>756.0</ele><time>2026-05-03T07:52:36Z</time></trkpt><trkpt lat="44.77064767400556" lon="9.64655878475402"><ele>754.0</ele><time>2026-05-03T07:52:40Z</time></trkpt><trkpt lat="44.770721061332054" lon="9.646555634449323"><ele>752.0</ele><time>2026-05-03T07:52:44Z</time></trkpt><trkpt lat="44.77079472698157" lon="9.646502666290337"><ele>750.0</ele><time>2026-05-03T07:52:46.999Z</time></trkpt><trkpt lat="44.77088780717486" lon="9.646499176645843"><ele>748.0</ele><time>2026-05-03T07:52:47.999Z</time></trkpt><trkpt lat="44.77101089862485" lon="9.646435466024029"><ele>744.8</ele><time>2026-05-03T07:52:49.999Z</time></trkpt><trkpt lat="44.77107582124506" lon="9.646358873948415"><ele>741.5999999999999</ele><time>2026-05-03T07:52:51.999Z</time></trkpt><trkpt lat="44.771088599607474" lon="9.646219480005792"><ele>738.4000000000001</ele><time>2026-05-03T07:52:53.999Z</time></trkpt><trkpt lat="44.77117020035318" lon="9.64608931706162"><ele>735.2</ele><time>2026-05-03T07:52:55.999Z</time></trkpt><trkpt lat="44.77119311616141" lon="9.645962734701412"><ele>732.0</ele><time>2026-05-03T07:52:57.999Z</time></trkpt><trkpt lat="44.771267432185496" lon="9.645903389318246"><ele>731.8</ele><time>2026-05-03T07:52:59.999Z</time></trkpt><trkpt lat="44.771307110162354" lon="9.645791778362089"><ele>731.6</ele><time>2026-05-03T07:53:01.999Z</time></trkpt><trkpt lat="44.77137373845172" lon="9.645674303153257"><ele>731.4</ele><time>2026-05-03T07:53:03.999Z</time></trkpt><trkpt lat="44.771465194332656" lon="9.645608990477909"><ele>731.1999999999999</ele><time>2026-05-03T07:53:05.999Z</time></trkpt><trkpt lat="44.77155546049059" lon="9.645578701165062"><ele>731.0</ele><time>2026-05-03T07:53:07.999Z</time></trkpt><trkpt lat="44.77160388543837" lon="9.645505105081407"><ele>731.0</ele><time>2026-05-03T07:53:10.999Z</time></trkpt><trkpt lat="44.77168335698892" lon="9.645511300616986"><ele>731.0</ele><time>2026-05-03T07:53:13.999Z</time></trkpt><trkpt lat="44.77174578688829" lon="9.645494209492085"><ele>731.0</ele><time>2026-05-03T07:53:15.999Z</time></trkpt><trkpt lat="44.77188982123767" lon="9.64543161206609"><ele>731.0</ele><time>2026-05-03T07:53:17.999Z</time></trkpt><trkpt lat="44.771984870340894" lon="9.645401145121344"><ele>731.0</ele><time>2026-05-03T07:53:19.999Z</time></trkpt><trkpt lat="44.772090321923855" lon="9.645348619699078"><ele>728.1999999999999</ele><time>2026-05-03T07:53:21.999Z</time></trkpt><trkpt lat="44.7721521085182" lon="9.645324941631698"><ele>725.4</ele><time>2026-05-03T07:53:22.999Z</time></trkpt><trkpt lat="44.77227130393195" lon="9.645322930342726"><ele>722.6</ele><time>2026-05-03T07:53:24.999Z</time></trkpt><trkpt lat="44.77237408092388" lon="9.645268861117673"><ele>719.8</ele><time>2026-05-03T07:53:26.999Z</time></trkpt><trkpt lat="44.77248298793798" lon="9.645219595711318"><ele>717.0</ele><time>2026-05-03T07:53:28.999Z</time></trkpt><trkpt lat="44.772575703560385" lon="9.645212900692202"><ele>717.0</ele><time>2026-05-03T07:53:30.999Z</time></trkpt><trkpt lat="44.772638691777836" lon="9.645167233444488"><ele>717.0</ele><time>2026-05-03T07:53:33.999Z</time></trkpt><trkpt lat="44.772583618645825" lon="9.645034318642034"><ele>717.0</ele><time>2026-05-03T07:53:43.999Z</time></trkpt><trkpt lat="44.772591130082475" lon="9.644872437296414"><ele>717.0</ele><time>2026-05-03T07:53:45.999Z</time></trkpt><trkpt lat="44.77263069549565" lon="9.644801266376057"><ele>717.0</ele><time>2026-05-03T07:53:46.999Z</time></trkpt><trkpt lat="44.772689964332365" lon="9.644735776198027"><ele>717.0</ele><time>2026-05-03T07:53:47.999Z</time></trkpt><trkpt lat="44.77274575458671" lon="9.644684734332705"><ele>715.2</ele><time>2026-05-03T07:53:48.999Z</time></trkpt><trkpt lat="44.77276094190403" lon="9.644520555432242"><ele>713.4000000000001</ele><time>2026-05-03T07:53:50.999Z</time></trkpt><trkpt lat="44.77268186820598" lon="9.644384171866852"><ele>711.5999999999999</ele><time>2026-05-03T07:53:52.999Z</time></trkpt><trkpt lat="44.7726338414218" lon="9.644291446773444"><ele>709.8</ele><time>2026-05-03T07:53:53.999Z</time></trkpt><trkpt lat="44.7725942501702" lon="9.644190375072185"><ele>708.0</ele><time>2026-05-03T07:53:54.999Z</time></trkpt><trkpt lat="44.7725417764653" lon="9.644120668675514"><ele>708.0</ele><time>2026-05-03T07:53:55.999Z</time></trkpt><trkpt lat="44.77249520348947" lon="9.644054887840733"><ele>708.0</ele><time>2026-05-03T07:53:56.999Z</time></trkpt><trkpt lat="44.77242037317656" lon="9.643912691469874"><ele>708.0</ele><time>2026-05-03T07:53:58.999Z</time></trkpt><trkpt lat="44.77235441193834" lon="9.643794171975367"><ele>708.0</ele><time>2026-05-03T07:54:00.999Z</time></trkpt><trkpt lat="44.772274635309174" lon="9.643707279420203"><ele>708.0</ele><time>2026-05-03T07:54:02.998Z</time></trkpt><trkpt lat="44.772312778466734" lon="9.643619092320865"><ele>707.4</ele><time>2026-05-03T07:54:04.998Z</time></trkpt><trkpt lat="44.772333170115395" lon="9.64350487682699"><ele>706.8</ele><time>2026-05-03T07:54:07Z</time></trkpt><trkpt lat="44.77232027274724" lon="9.643361247179168"><ele>706.2</ele><time>2026-05-03T07:54:09Z</time></trkpt><trkpt lat="44.77240446929604" lon="9.643252092141907"><ele>705.6</ele><time>2026-05-03T07:54:11Z</time></trkpt><trkpt lat="44.77243007877473" lon="9.643161360044807"><ele>705.0</ele><time>2026-05-03T07:54:12Z</time></trkpt><trkpt lat="44.77249188635789" lon="9.64305546809385"><ele>705.0</ele><time>2026-05-03T07:54:14Z</time></trkpt><trkpt lat="44.77259762569004" lon="9.643028176547942"><ele>705.0</ele><time>2026-05-03T07:54:16Z</time></trkpt><trkpt lat="44.7726864980701" lon="9.642972132357531"><ele>705.0</ele><time>2026-05-03T07:54:18Z</time></trkpt><trkpt lat="44.77276463494337" lon="9.642880025641652"><ele>705.0</ele><time>2026-05-03T07:54:20Z</time></trkpt><trkpt lat="44.772862280237206" lon="9.642817520525837"><ele>705.0</ele><time>2026-05-03T07:54:22Z</time></trkpt><trkpt lat="44.7729409163605" lon="9.64274596324798"><ele>702.0</ele><time>2026-05-03T07:54:24Z</time></trkpt><trkpt lat="44.77304031363914" lon="9.642679675033229"><ele>699.0</ele><time>2026-05-03T07:54:26Z</time></trkpt><trkpt lat="44.77308647103797" lon="9.642565853266865"><ele>696.0</ele><time>2026-05-03T07:54:28Z</time></trkpt><trkpt lat="44.773160938653" lon="9.642467143245883"><ele>693.0</ele><time>2026-05-03T07:54:30Z</time></trkpt><trkpt lat="44.77321895139028" lon="9.64236388770889"><ele>690.0</ele><time>2026-05-03T07:54:32Z</time></trkpt><trkpt lat="44.773313421806705" lon="9.642321119300517"><ele>690.0</ele><time>2026-05-03T07:54:34Z</time></trkpt><trkpt lat="44.77338111850511" lon="9.64224437224754"><ele>690.0</ele><time>2026-05-03T07:54:37Z</time></trkpt><trkpt lat="44.77342209237038" lon="9.64213951965926"><ele>690.0</ele><time>2026-05-03T07:54:39Z</time></trkpt><trkpt lat="44.773478936964324" lon="9.642061831775406"><ele>690.0</ele><time>2026-05-03T07:54:41Z</time></trkpt><trkpt lat="44.77354245848598" lon="9.642010456671134"><ele>690.0</ele><time>2026-05-03T07:54:44Z</time></trkpt><trkpt lat="44.77360706030864" lon="9.642004353657297"><ele>690.0</ele><time>2026-05-03T07:54:49Z</time></trkpt><trkpt lat="44.77367459993372" lon="9.64201012082965"><ele>685.8333333333334</ele><time>2026-05-03T07:54:53Z</time></trkpt><trkpt lat="44.77372641062954" lon="9.64193664518041"><ele>681.6666666666666</ele><time>2026-05-03T07:54:55.999Z</time></trkpt><trkpt lat="44.773792213958885" lon="9.641909679701206"><ele>677.5</ele><time>2026-05-03T07:56:43Z</time></trkpt><trkpt lat="44.77384754085832" lon="9.641806202491887"><ele>673.3333333333333</ele><time>2026-05-03T07:56:46Z</time></trkpt><trkpt lat="44.773908886816294" lon="9.641734474306842"><ele>669.1666666666666</ele><time>2026-05-03T07:56:49Z</time></trkpt><trkpt lat="44.773951733387335" lon="9.641649323708789"><ele>665.0</ele><time>2026-05-03T07:56:54Z</time></trkpt><trkpt lat="44.773934360283306" lon="9.641563439158814"><ele>665.0</ele><time>2026-05-03T07:56:56Z</time></trkpt><trkpt lat="44.7739276394391" lon="9.641445942633586"><ele>665.0</ele><time>2026-05-03T07:57:26.999Z</time></trkpt><trkpt lat="44.77388265201632" lon="9.64137884086882"><ele>665.0</ele><time>2026-05-03T07:57:52.999Z</time></trkpt><trkpt lat="44.773881654041496" lon="9.641282080830505"><ele>665.0</ele><time>2026-05-03T07:58:01.999Z</time></trkpt><trkpt lat="44.77390119308138" lon="9.641189490443168"><ele>665.0</ele><time>2026-05-03T07:58:57Z</time></trkpt><trkpt lat="44.77390188417075" lon="9.64109556051938"><ele>665.0</ele><time>2026-05-03T07:59:00Z</time></trkpt><trkpt lat="44.77390535461362" lon="9.640952424427772"><ele>664.4</ele><time>2026-05-03T07:59:10Z</time></trkpt><trkpt lat="44.77388496007" lon="9.64084447153921"><ele>663.8</ele><time>2026-05-03T07:59:11Z</time></trkpt><trkpt lat="44.773866800247696" lon="9.640686844158655"><ele>663.2</ele><time>2026-05-03T07:59:12Z</time></trkpt><trkpt lat="44.773860869360746" lon="9.640570540279661"><ele>662.6</ele><time>2026-05-03T07:59:13Z</time></trkpt><trkpt lat="44.773808903537066" lon="9.640439288463089"><ele>662.0</ele><time>2026-05-03T07:59:15Z</time></trkpt><trkpt lat="44.7737763623776" lon="9.640355599156248"><ele>661.4000000000001</ele><time>2026-05-03T07:59:16Z</time></trkpt><trkpt lat="44.7737503523923" lon="9.640210945513147"><ele>660.8000000000001</ele><time>2026-05-03T07:59:18Z</time></trkpt><trkpt lat="44.77374325279776" lon="9.640086027149009"><ele>660.2</ele><time>2026-05-03T07:59:19Z</time></trkpt><trkpt lat="44.77374246825991" lon="9.639966623931768"><ele>659.6</ele><time>2026-05-03T07:59:20Z</time></trkpt><trkpt lat="44.773733146233184" lon="9.639863925449227"><ele>659.0</ele><time>2026-05-03T07:59:21Z</time></trkpt><trkpt lat="44.773750589070794" lon="9.639691884711702"><ele>659.0</ele><time>2026-05-03T07:59:22.999Z</time></trkpt><trkpt lat="44.77373996959599" lon="9.639596290094177"><ele>659.0</ele><time>2026-05-03T07:59:23.999Z</time></trkpt><trkpt lat="44.77373177731879" lon="9.63949169487701"><ele>659.0</ele><time>2026-05-03T07:59:24.999Z</time></trkpt><trkpt lat="44.77372308340216" lon="9.63938112434199"><ele>659.0</ele><time>2026-05-03T07:59:25.999Z</time></trkpt><trkpt lat="44.773692261794324" lon="9.639296397137308"><ele>659.0</ele><time>2026-05-03T07:59:26.999Z</time></trkpt><trkpt lat="44.77358647345083" lon="9.639189373380937"><ele>659.0</ele><time>2026-05-03T07:59:28.999Z</time></trkpt><trkpt lat="44.773547786911614" lon="9.639102552305493"><ele>662.1666666666666</ele><time>2026-05-03T07:59:29.999Z</time></trkpt><trkpt lat="44.77350823113551" lon="9.638921335589464"><ele>665.3333333333333</ele><time>2026-05-03T07:59:31.999Z</time></trkpt><trkpt lat="44.7734971019489" lon="9.638823506672358"><ele>668.5</ele><time>2026-05-03T07:59:32.999Z</time></trkpt><trkpt lat="44.7734907229342" lon="9.638717212447624"><ele>671.6666666666666</ele><time>2026-05-03T07:59:33.999Z</time></trkpt><trkpt lat="44.77346718985757" lon="9.6386247832186"><ele>674.8333333333334</ele><time>2026-05-03T07:59:34.999Z</time></trkpt><trkpt lat="44.773443331572786" lon="9.638523132685147"><ele>678.0</ele><time>2026-05-03T07:59:35.999Z</time></trkpt><trkpt lat="44.773384730467136" lon="9.638377993662223"><ele>678.0</ele><time>2026-05-03T07:59:37.999Z</time></trkpt><trkpt lat="44.77338374359885" lon="9.638285372440569"><ele>678.0</ele><time>2026-05-03T07:59:38.999Z</time></trkpt><trkpt lat="44.77340756672917" lon="9.638193606047423"><ele>678.0</ele><time>2026-05-03T07:59:39.999Z</time></trkpt><trkpt lat="44.77342735563063" lon="9.638107665496324"><ele>678.0</ele><time>2026-05-03T07:59:40.999Z</time></trkpt><trkpt lat="44.77345992590821" lon="9.638022800395145"><ele>678.0</ele><time>2026-05-03T07:59:41.999Z</time></trkpt><trkpt lat="44.77348318572143" lon="9.637929651615273"><ele>678.0</ele><time>2026-05-03T07:59:42.999Z</time></trkpt><trkpt lat="44.77350251231333" lon="9.637828415630581"><ele>678.0</ele><time>2026-05-03T07:59:43.999Z</time></trkpt><trkpt lat="44.77349194844332" lon="9.637668440047145"><ele>677.0</ele><time>2026-05-03T07:59:45.999Z</time></trkpt><trkpt lat="44.77347608127245" lon="9.637577179593933"><ele>676.0</ele><time>2026-05-03T07:59:46.999Z</time></trkpt><trkpt lat="44.77346390142201" lon="9.637411646746775"><ele>675.0</ele><time>2026-05-03T07:59:48.999Z</time></trkpt><trkpt lat="44.77346021044232" lon="9.637229681880214"><ele>674.0</ele><time>2026-05-03T07:59:50.999Z</time></trkpt><trkpt lat="44.77348751330146" lon="9.637074749102089"><ele>673.0</ele><time>2026-05-03T07:59:52.999Z</time></trkpt><trkpt lat="44.77350406485697" lon="9.636973154550859"><ele>666.0</ele><time>2026-05-03T07:59:54.999Z</time></trkpt><trkpt lat="44.773593525493844" lon="9.63686093219153"><ele>659.0</ele><time>2026-05-03T07:59:56.999Z</time></trkpt><trkpt lat="44.7736314020096" lon="9.636783310157448"><ele>652.0</ele><time>2026-05-03T07:59:57.999Z</time></trkpt><trkpt lat="44.77366447481279" lon="9.636707408639941"><ele>645.0</ele><time>2026-05-03T07:59:58.999Z</time></trkpt><trkpt lat="44.77372387404764" lon="9.636592459327012"><ele>638.0</ele><time>2026-05-03T08:00:00.999Z</time></trkpt><trkpt lat="44.77375728863447" lon="9.636457621316454"><ele>638.0</ele><time>2026-05-03T08:00:02.999Z</time></trkpt><trkpt lat="44.77380532969566" lon="9.636336366144723"><ele>638.0</ele><time>2026-05-03T08:00:04.999Z</time></trkpt><trkpt lat="44.77383972464936" lon="9.636211229995446"><ele>638.0</ele><time>2026-05-03T08:00:06.999Z</time></trkpt><trkpt lat="44.7738360533801" lon="9.636077603915693"><ele>638.0</ele><time>2026-05-03T08:00:08.999Z</time></trkpt><trkpt lat="44.77383621214031" lon="9.635926941878566"><ele>638.0</ele><time>2026-05-03T08:00:10.999Z</time></trkpt><trkpt lat="44.77383615297726" lon="9.635770883357056"><ele>637.8333333333333</ele><time>2026-05-03T08:00:12.999Z</time></trkpt><trkpt lat="44.773822960629154" lon="9.635615956122903"><ele>637.6666666666666</ele><time>2026-05-03T08:00:14.999Z</time></trkpt><trkpt lat="44.77385340472955" lon="9.635463837070986"><ele>637.5</ele><time>2026-05-03T08:00:16.999Z</time></trkpt><trkpt lat="44.773863218296036" lon="9.635374067334775"><ele>637.3333333333334</ele><time>2026-05-03T08:00:17.999Z</time></trkpt><trkpt lat="44.77386382062839" lon="9.635265051589002"><ele>637.1666666666667</ele><time>2026-05-03T08:00:18.999Z</time></trkpt><trkpt lat="44.773863367621594" lon="9.63515030667941"><ele>637.0</ele><time>2026-05-03T08:00:19.999Z</time></trkpt><trkpt lat="44.77388458514958" lon="9.635053432097358"><ele>637.0</ele><time>2026-05-03T08:00:20.999Z</time></trkpt><trkpt lat="44.77392681447838" lon="9.634929230142108"><ele>637.0</ele><time>2026-05-03T08:00:22.999Z</time></trkpt><trkpt lat="44.7739282492025" lon="9.634723263365126"><ele>637.0</ele><time>2026-05-03T08:00:25Z</time></trkpt><trkpt lat="44.773921855733434" lon="9.634622865388254"><ele>637.0</ele><time>2026-05-03T08:00:26Z</time></trkpt><trkpt lat="44.77391328922718" lon="9.634526803596227"><ele>637.0</ele><time>2026-05-03T08:00:27Z</time></trkpt><trkpt lat="44.773911110307345" lon="9.634381092492356"><ele>636.6</ele><time>2026-05-03T08:00:29Z</time></trkpt><trkpt lat="44.77391308721295" lon="9.634239384641473"><ele>636.2</ele><time>2026-05-03T08:00:31Z</time></trkpt><trkpt lat="44.77395129929358" lon="9.634097960721263"><ele>635.8</ele><time>2026-05-03T08:00:33Z</time></trkpt><trkpt lat="44.774001958630215" lon="9.634000859967145"><ele>635.4</ele><time>2026-05-03T08:00:35Z</time></trkpt><trkpt lat="44.77402519094513" lon="9.633891783737978"><ele>635.0</ele><time>2026-05-03T08:00:37Z</time></trkpt><trkpt lat="44.77405436867581" lon="9.633719713937626"><ele>634.1666666666666</ele><time>2026-05-03T08:00:39Z</time></trkpt><trkpt lat="44.774065833768034" lon="9.633621042186062"><ele>633.3333333333333</ele><time>2026-05-03T08:00:40Z</time></trkpt><trkpt lat="44.774095662201546" lon="9.63354232732082"><ele>632.5</ele><time>2026-05-03T08:00:41Z</time></trkpt><trkpt lat="44.774113750065" lon="9.633443662568126"><ele>631.6666666666666</ele><time>2026-05-03T08:00:42Z</time></trkpt><trkpt lat="44.77413229900678" lon="9.633267967692568"><ele>630.8333333333334</ele><time>2026-05-03T08:00:44Z</time></trkpt><trkpt lat="44.77412964537789" lon="9.633177111856142"><ele>630.0</ele><time>2026-05-03T08:00:45Z</time></trkpt><trkpt lat="44.774148184039205" lon="9.633086006733283"><ele>630.0</ele><time>2026-05-03T08:00:46Z</time></trkpt><trkpt lat="44.774110307435905" lon="9.63293861343527"><ele>630.0</ele><time>2026-05-03T08:00:48Z</time></trkpt><trkpt lat="44.774063085026285" lon="9.63278340767836"><ele>630.0</ele><time>2026-05-03T08:00:50Z</time></trkpt><trkpt lat="44.77402070386654" lon="9.632669950809058"><ele>630.0</ele><time>2026-05-03T08:00:52Z</time></trkpt><trkpt lat="44.77401973517759" lon="9.632549124404479"><ele>630.0</ele><time>2026-05-03T08:00:54Z</time></trkpt><trkpt lat="44.77401861571441" lon="9.63238948814202"><ele>627.8</ele><time>2026-05-03T08:00:56Z</time></trkpt><trkpt lat="44.77399274868868" lon="9.632227165909221"><ele>625.6</ele><time>2026-05-03T08:00:58Z</time></trkpt><trkpt lat="44.773959117971565" lon="9.632107605724844"><ele>623.4</ele><time>2026-05-03T08:01:00Z</time></trkpt><trkpt lat="44.77392413392079" lon="9.631984335259684"><ele>621.2</ele><time>2026-05-03T08:01:02Z</time></trkpt><trkpt lat="44.77389501119765" lon="9.63188499119957"><ele>619.0</ele><time>2026-05-03T08:01:05Z</time></trkpt><trkpt lat="44.77387168542202" lon="9.631740434447671"><ele>617.0</ele><time>2026-05-03T08:01:07Z</time></trkpt><trkpt lat="44.773853021134755" lon="9.631605549842446"><ele>615.0</ele><time>2026-05-03T08:01:09Z</time></trkpt><trkpt lat="44.77383949338373" lon="9.631473243190426"><ele>613.0</ele><time>2026-05-03T08:01:10.999Z</time></trkpt><trkpt lat="44.773867269909964" lon="9.63133768914255"><ele>611.0</ele><time>2026-05-03T08:01:12.999Z</time></trkpt><trkpt lat="44.77393453841182" lon="9.631231928816854"><ele>609.0</ele><time>2026-05-03T08:01:14.999Z</time></trkpt><trkpt lat="44.773972210430756" lon="9.631095642093243"><ele>607.6666666666666</ele><time>2026-05-03T08:01:16.999Z</time></trkpt><trkpt lat="44.773975176701605" lon="9.630981494638904"><ele>606.3333333333334</ele><time>2026-05-03T08:01:18.999Z</time></trkpt><trkpt lat="44.77397609177763" lon="9.630862327073771"><ele>605.0</ele><time>2026-05-03T08:01:21.999Z</time></trkpt><trkpt lat="44.77399907425408" lon="9.630743279027746"><ele>603.6666666666667</ele><time>2026-05-03T08:01:24.999Z</time></trkpt><trkpt lat="44.77401927475605" lon="9.630631571755252"><ele>602.3333333333334</ele><time>2026-05-03T08:01:27.999Z</time></trkpt><trkpt lat="44.77404012766657" lon="9.630532988131144"><ele>601.0</ele><time>2026-05-03T08:01:29.999Z</time></trkpt><trkpt lat="44.77402281347988" lon="9.630429126404309"><ele>601.0</ele><time>2026-05-03T08:01:31.999Z</time></trkpt><trkpt lat="44.773990920671416" lon="9.630352053291672"><ele>601.0</ele><time>2026-05-03T08:01:33.999Z</time></trkpt><trkpt lat="44.77399429372277" lon="9.630237723818656"><ele>601.0</ele><time>2026-05-03T08:01:35.999Z</time></trkpt><trkpt lat="44.7739912760302" lon="9.630127596793121"><ele>601.0</ele><time>2026-05-03T08:01:38.999Z</time></trkpt><trkpt lat="44.773997811193134" lon="9.6300009079659"><ele>601.0</ele><time>2026-05-03T08:01:40.999Z</time></trkpt><trkpt lat="44.773991324183655" lon="9.629900841138348"><ele>601.0</ele><time>2026-05-03T08:01:42.999Z</time></trkpt><trkpt lat="44.7739763466446" lon="9.62980769683578"><ele>598.8</ele><time>2026-05-03T08:01:43.999Z</time></trkpt><trkpt lat="44.773964302340154" lon="9.629648397048038"><ele>596.6</ele><time>2026-05-03T08:01:44.999Z</time></trkpt><trkpt lat="44.77397076651814" lon="9.629494553207254"><ele>594.4</ele><time>2026-05-03T08:01:46.999Z</time></trkpt><trkpt lat="44.77399640352328" lon="9.629367139276598"><ele>592.2</ele><time>2026-05-03T08:01:48.999Z</time></trkpt><trkpt lat="44.773955881802785" lon="9.629264299787863"><ele>590.0</ele><time>2026-05-03T08:01:50.999Z</time></trkpt><trkpt lat="44.77394165111077" lon="9.629159057777047"><ele>588.8</ele><time>2026-05-03T08:01:52.999Z</time></trkpt><trkpt lat="44.77391978852462" lon="9.629047447803293"><ele>587.6</ele><time>2026-05-03T08:01:54.999Z</time></trkpt><trkpt lat="44.773932202903005" lon="9.628948867035003"><ele>586.4</ele><time>2026-05-03T08:01:56.999Z</time></trkpt><trkpt lat="44.77394730761338" lon="9.62883176937356"><ele>585.2</ele><time>2026-05-03T08:01:58.999Z</time></trkpt><trkpt lat="44.77397641209491" lon="9.628642844619478"><ele>584.0</ele><time>2026-05-03T08:02:00.999Z</time></trkpt><trkpt lat="44.773979750847154" lon="9.62847337416876"><ele>583.0</ele><time>2026-05-03T08:02:02.999Z</time></trkpt><trkpt lat="44.77398749913381" lon="9.62833752780903"><ele>582.0</ele><time>2026-05-03T08:02:04.999Z</time></trkpt><trkpt lat="44.77398280689016" lon="9.628200660875963"><ele>581.0</ele><time>2026-05-03T08:02:21.999Z</time></trkpt><trkpt lat="44.7739931471194" lon="9.62806946864878"><ele>580.0</ele><time>2026-05-03T08:02:23.999Z</time></trkpt><trkpt lat="44.77400861577485" lon="9.627956691195859"><ele>579.0</ele><time>2026-05-03T08:02:25.998Z</time></trkpt><trkpt lat="44.773978177429385" lon="9.627806956010694"><ele>577.5714285714286</ele><time>2026-05-03T08:02:27.998Z</time></trkpt><trkpt lat="44.77394590196367" lon="9.627719190414656"><ele>576.1428571428571</ele><time>2026-05-03T08:02:28.998Z</time></trkpt><trkpt lat="44.77391549661845" lon="9.627621170389595"><ele>574.7142857142858</ele><time>2026-05-03T08:02:30Z</time></trkpt><trkpt lat="44.77388820174092" lon="9.62754045236581"><ele>573.2857142857142</ele><time>2026-05-03T08:02:31Z</time></trkpt><trkpt lat="44.773854148117834" lon="9.62745539379922"><ele>571.8571428571429</ele><time>2026-05-03T08:02:32Z</time></trkpt><trkpt lat="44.77384000859684" lon="9.627363708387957"><ele>570.4285714285714</ele><time>2026-05-03T08:02:33Z</time></trkpt><trkpt lat="44.773842880175366" lon="9.62727313622976"><ele>569.0</ele><time>2026-05-03T08:02:34Z</time></trkpt><trkpt lat="44.773827885638184" lon="9.627178714809771"><ele>569.0000000000001</ele><time>2026-05-03T08:02:35Z</time></trkpt><trkpt lat="44.773792694037176" lon="9.6270853166597"><ele>569.0</ele><time>2026-05-03T08:02:36Z</time></trkpt><trkpt lat="44.773753266606654" lon="9.627000231194707"><ele>569.0</ele><time>2026-05-03T08:02:37Z</time></trkpt><trkpt lat="44.77371853857359" lon="9.626903916316875"><ele>569.0</ele><time>2026-05-03T08:02:38Z</time></trkpt><trkpt lat="44.77368496132835" lon="9.626807691605933"><ele>569.0</ele><time>2026-05-03T08:02:39Z</time></trkpt><trkpt lat="44.7736692569897" lon="9.626704423391631"><ele>569.0000000000001</ele><time>2026-05-03T08:02:40Z</time></trkpt><trkpt lat="44.77365959545554" lon="9.626605591682289"><ele>569.0</ele><time>2026-05-03T08:02:41Z</time></trkpt><trkpt lat="44.77365467279538" lon="9.626499231453531"><ele>567.1666666666666</ele><time>2026-05-03T08:02:42Z</time></trkpt><trkpt lat="44.77364325908523" lon="9.626409081459645"><ele>565.3333333333333</ele><time>2026-05-03T08:02:43Z</time></trkpt><trkpt lat="44.77360620088463" lon="9.626263224452147"><ele>563.5</ele><time>2026-05-03T08:02:45Z</time></trkpt><trkpt lat="44.77358084845586" lon="9.626164875548211"><ele>561.6666666666666</ele><time>2026-05-03T08:02:47Z</time></trkpt><trkpt lat="44.77354161056941" lon="9.626058210304318"><ele>559.8333333333334</ele><time>2026-05-03T08:02:50Z</time></trkpt><trkpt lat="44.77351472586855" lon="9.625969373221164"><ele>558.0</ele><time>2026-05-03T08:02:53Z</time></trkpt><trkpt lat="44.773473128869426" lon="9.625863094368592"><ele>555.8333333333334</ele><time>2026-05-03T08:02:56Z</time></trkpt><trkpt lat="44.77342488664294" lon="9.625741759624894"><ele>553.6666666666666</ele><time>2026-05-03T08:02:58Z</time></trkpt><trkpt lat="44.773359767675515" lon="9.62564252932764"><ele>551.5</ele><time>2026-05-03T08:03:01Z</time></trkpt><trkpt lat="44.77330944526495" lon="9.625585315615217"><ele>549.3333333333333</ele><time>2026-05-03T08:03:03Z</time></trkpt><trkpt lat="44.77323988772018" lon="9.625541979036342"><ele>547.1666666666666</ele><time>2026-05-03T08:03:05Z</time></trkpt><trkpt lat="44.77320775245793" lon="9.62545416712866"><ele>545.0</ele><time>2026-05-03T08:03:07Z</time></trkpt><trkpt lat="44.77321165590009" lon="9.625321742894192"><ele>542.8</ele><time>2026-05-03T08:03:09Z</time></trkpt><trkpt lat="44.77322335969338" lon="9.625153661698667"><ele>540.6</ele><time>2026-05-03T08:03:11Z</time></trkpt><trkpt lat="44.77323215994075" lon="9.62504557221728"><ele>538.4</ele><time>2026-05-03T08:03:17.999Z</time></trkpt><trkpt lat="44.77324386281113" lon="9.624863297160898"><ele>536.2</ele><time>2026-05-03T08:03:21.999Z</time></trkpt><trkpt lat="44.77328069427173" lon="9.624766094371806"><ele>534.0</ele><time>2026-05-03T08:03:22.999Z</time></trkpt><trkpt lat="44.77330815712337" lon="9.624640923643758"><ele>534.0</ele><time>2026-05-03T08:03:24.999Z</time></trkpt><trkpt lat="44.77332448900941" lon="9.624492289263948"><ele>534.0</ele><time>2026-05-03T08:03:26.999Z</time></trkpt><trkpt lat="44.77333409431811" lon="9.624402393615403"><ele>534.0</ele><time>2026-05-03T08:03:27.999Z</time></trkpt><trkpt lat="44.7733458789034" lon="9.62431432699913"><ele>534.0</ele><time>2026-05-03T08:03:28.999Z</time></trkpt><trkpt lat="44.77341797765098" lon="9.624185232428783"><ele>534.0</ele><time>2026-05-03T08:03:30.999Z</time></trkpt><trkpt lat="44.77348836171733" lon="9.62403947109874"><ele>530.4</ele><time>2026-05-03T08:03:32.999Z</time></trkpt><trkpt lat="44.77353300037048" lon="9.623931003266865"><ele>526.8</ele><time>2026-05-03T08:03:33.999Z</time></trkpt><trkpt lat="44.77358022548098" lon="9.623826825264397"><ele>523.2</ele><time>2026-05-03T08:03:34.999Z</time></trkpt><trkpt lat="44.773629526562154" lon="9.623708701308942"><ele>519.6</ele><time>2026-05-03T08:03:35.999Z</time></trkpt><trkpt lat="44.77367442301248" lon="9.623561586999378"><ele>516.0</ele><time>2026-05-03T08:03:36.999Z</time></trkpt><trkpt lat="44.77371414995621" lon="9.623434184189053"><ele>515.1666666666666</ele><time>2026-05-03T08:03:37.999Z</time></trkpt><trkpt lat="44.77374660592962" lon="9.62331742078158"><ele>514.3333333333334</ele><time>2026-05-03T08:03:38.999Z</time></trkpt><trkpt lat="44.77377866489254" lon="9.623210515853492"><ele>513.5</ele><time>2026-05-03T08:03:39.999Z</time></trkpt><trkpt lat="44.77380941389987" lon="9.623097497251683"><ele>512.6666666666667</ele><time>2026-05-03T08:03:40.999Z</time></trkpt><trkpt lat="44.77384422315716" lon="9.62297570729704"><ele>511.83333333333337</ele><time>2026-05-03T08:03:41.999Z</time></trkpt><trkpt lat="44.773875913629766" lon="9.62286268303752"><ele>511.0</ele><time>2026-05-03T08:03:42.999Z</time></trkpt><trkpt lat="44.77390139545444" lon="9.622763406673883"><ele>510.00000000000006</ele><time>2026-05-03T08:03:43.999Z</time></trkpt><trkpt lat="44.77392481767267" lon="9.622677680358812"><ele>509.0</ele><time>2026-05-03T08:03:44.999Z</time></trkpt><trkpt lat="44.77396463542356" lon="9.622523320857471"><ele>508.0</ele><time>2026-05-03T08:03:46.999Z</time></trkpt><trkpt lat="44.773988096557325" lon="9.622432559281663"><ele>507.0</ele><time>2026-05-03T08:03:47.999Z</time></trkpt><trkpt lat="44.774031813550955" lon="9.622336317748923"><ele>506.00000000000006</ele><time>2026-05-03T08:03:48.999Z</time></trkpt><trkpt lat="44.77409017680014" lon="9.622228523928747"><ele>505.0</ele><time>2026-05-03T08:03:49.999Z</time></trkpt><trkpt lat="44.77414566058062" lon="9.62210766700973"><ele>505.00000000000006</ele><time>2026-05-03T08:03:50.999Z</time></trkpt><trkpt lat="44.77418863841333" lon="9.622004239986682"><ele>505.0</ele><time>2026-05-03T08:03:51.999Z</time></trkpt><trkpt lat="44.77422247196798" lon="9.621923010385991"><ele>505.0</ele><time>2026-05-03T08:03:52.999Z</time></trkpt><trkpt lat="44.77425102897117" lon="9.621832028903041"><ele>505.0</ele><time>2026-05-03T08:03:53.999Z</time></trkpt><trkpt lat="44.774275000752525" lon="9.621749559005389"><ele>505.00000000000006</ele><time>2026-05-03T08:03:54.999Z</time></trkpt><trkpt lat="44.77430206888404" lon="9.62164082231969"><ele>505.0</ele><time>2026-05-03T08:03:55.999Z</time></trkpt><trkpt lat="44.77433708986994" lon="9.621512905613441"><ele>502.4</ele><time>2026-05-03T08:03:56.999Z</time></trkpt><trkpt lat="44.77437103065653" lon="9.62137693647022"><ele>499.8</ele><time>2026-05-03T08:03:57.999Z</time></trkpt><trkpt lat="44.774408504115954" lon="9.621251439648637"><ele>497.20000000000005</ele><time>2026-05-03T08:03:58.999Z</time></trkpt><trkpt lat="44.77444151391592" lon="9.621130357855783"><ele>494.6</ele><time>2026-05-03T08:03:59.999Z</time></trkpt><trkpt lat="44.77449028090494" lon="9.621025709195067"><ele>492.0</ele><time>2026-05-03T08:04:00.999Z</time></trkpt><trkpt lat="44.77453284276635" lon="9.620915720935237"><ele>491.3333333333333</ele><time>2026-05-03T08:04:01.999Z</time></trkpt><trkpt lat="44.77457079534901" lon="9.6208025182734"><ele>490.66666666666663</ele><time>2026-05-03T08:04:02.999Z</time></trkpt><trkpt lat="44.774595554486574" lon="9.620684595777652"><ele>490.0</ele><time>2026-05-03T08:04:03.999Z</time></trkpt><trkpt lat="44.77461690143318" lon="9.620571550364462"><ele>489.3333333333333</ele><time>2026-05-03T08:04:04.999Z</time></trkpt><trkpt lat="44.77464699756023" lon="9.620456504788491"><ele>488.66666666666663</ele><time>2026-05-03T08:04:05.999Z</time></trkpt><trkpt lat="44.77468187214465" lon="9.620337771735954"><ele>488.0</ele><time>2026-05-03T08:04:06.999Z</time></trkpt><trkpt lat="44.77470634439808" lon="9.620250146089436"><ele>487.1428571428571</ele><time>2026-05-03T08:04:07.999Z</time></trkpt><trkpt lat="44.77472613775307" lon="9.620161790267964"><ele>486.2857142857143</ele><time>2026-05-03T08:04:08.999Z</time></trkpt><trkpt lat="44.774746084318224" lon="9.620063132225932"><ele>485.42857142857144</ele><time>2026-05-03T08:04:09.999Z</time></trkpt><trkpt lat="44.774760139679344" lon="9.619970538760407"><ele>484.57142857142856</ele><time>2026-05-03T08:04:10.999Z</time></trkpt><trkpt lat="44.77477601993174" lon="9.619875871243764"><ele>483.7142857142858</ele><time>2026-05-03T08:04:11.999Z</time></trkpt><trkpt lat="44.77479578616783" lon="9.61978726352093"><ele>482.8571428571429</ele><time>2026-05-03T08:04:12.999Z</time></trkpt><trkpt lat="44.77483082712921" lon="9.619696683127039"><ele>482.0</ele><time>2026-05-03T08:04:13.999Z</time></trkpt><trkpt lat="44.774876227076604" lon="9.619595105344342"><ele>481.99999999999994</ele><time>2026-05-03T08:04:14.999Z</time></trkpt><trkpt lat="44.774911252737496" lon="9.619500205570914"><ele>482.0</ele><time>2026-05-03T08:04:15.999Z</time></trkpt><trkpt lat="44.77495751484699" lon="9.619419806654175"><ele>482.0</ele><time>2026-05-03T08:04:16.999Z</time></trkpt><trkpt lat="44.775008280814944" lon="9.619344912829705"><ele>482.0</ele><time>2026-05-03T08:04:17.999Z</time></trkpt><trkpt lat="44.77507076834947" lon="9.619181769042713"><ele>481.99999999999994</ele><time>2026-05-03T08:04:19.999Z</time></trkpt><trkpt lat="44.775110189375475" lon="9.619090417800678"><ele>482.0</ele><time>2026-05-03T08:04:20.999Z</time></trkpt><trkpt lat="44.77514203326323" lon="9.619003264854383"><ele>479.49999999999994</ele><time>2026-05-03T08:04:21.999Z</time></trkpt><trkpt lat="44.77517051704779" lon="9.618913803989514"><ele>477.0</ele><time>2026-05-03T08:04:22.999Z</time></trkpt><trkpt lat="44.77519016277337" lon="9.61882070338002"><ele>474.5</ele><time>2026-05-03T08:04:23.999Z</time></trkpt><trkpt lat="44.77521079729674" lon="9.618731117307982"><ele>472.0</ele><time>2026-05-03T08:04:24.999Z</time></trkpt><trkpt lat="44.77522222370253" lon="9.618636891461573"><ele>469.49999999999994</ele><time>2026-05-03T08:04:25.999Z</time></trkpt><trkpt lat="44.77524583619634" lon="9.61847190858138"><ele>467.0</ele><time>2026-05-03T08:04:27.999Z</time></trkpt><trkpt lat="44.77527963711772" lon="9.618346104657373"><ele>464.49999999999994</ele><time>2026-05-03T08:04:29.999Z</time></trkpt><trkpt lat="44.775286947253576" lon="9.618220875642123"><ele>462.0</ele><time>2026-05-03T08:04:33.999Z</time></trkpt><trkpt lat="44.775310058058864" lon="9.618088645871602"><ele>459.5</ele><time>2026-05-03T08:04:36Z</time></trkpt><trkpt lat="44.77534324715624" lon="9.617979344291875"><ele>457.0</ele><time>2026-05-03T08:04:38Z</time></trkpt><trkpt lat="44.7753765744413" lon="9.617857509432296"><ele>454.49999999999994</ele><time>2026-05-03T08:04:40Z</time></trkpt><trkpt lat="44.775409212389114" lon="9.61774914444569"><ele>452.0</ele><time>2026-05-03T08:04:42Z</time></trkpt><trkpt lat="44.77543262974055" lon="9.61766242322372"><ele>450.49999999999994</ele><time>2026-05-03T08:04:44Z</time></trkpt><trkpt lat="44.77545328224879" lon="9.617567639007245"><ele>449.0</ele><time>2026-05-03T08:05:08Z</time></trkpt><trkpt lat="44.77545547768932" lon="9.6174568669159"><ele>447.5</ele><time>2026-05-03T08:05:10Z</time></trkpt><trkpt lat="44.77545776606429" lon="9.617355138227135"><ele>446.0</ele><time>2026-05-03T08:05:11Z</time></trkpt><trkpt lat="44.7754548854721" lon="9.617222695773531"><ele>444.49999999999994</ele><time>2026-05-03T08:05:12Z</time></trkpt><trkpt lat="44.77546089434662" lon="9.617091610841758"><ele>443.0</ele><time>2026-05-03T08:05:13Z</time></trkpt><trkpt lat="44.775481982340665" lon="9.61695977453996"><ele>440.59999999999997</ele><time>2026-05-03T08:05:14Z</time></trkpt><trkpt lat="44.77549941951512" lon="9.61682385799234"><ele>438.19999999999993</ele><time>2026-05-03T08:05:15Z</time></trkpt><trkpt lat="44.77551669042152" lon="9.616686119020791"><ele>435.8</ele><time>2026-05-03T08:05:16Z</time></trkpt><trkpt lat="44.775532353482355" lon="9.616547213524242"><ele>433.4</ele><time>2026-05-03T08:05:17Z</time></trkpt><trkpt lat="44.77553812203192" lon="9.616409023702904"><ele>431.0</ele><time>2026-05-03T08:05:18Z</time></trkpt><trkpt lat="44.77553617369475" lon="9.616256232810231"><ele>429.49999999999994</ele><time>2026-05-03T08:05:19Z</time></trkpt><trkpt lat="44.77551344488499" lon="9.616116154920123"><ele>428.0</ele><time>2026-05-03T08:05:20Z</time></trkpt><trkpt lat="44.775483651967086" lon="9.61599948960585"><ele>426.5</ele><time>2026-05-03T08:05:21Z</time></trkpt><trkpt lat="44.77545041862885" lon="9.615897807841625"><ele>425.0</ele><time>2026-05-03T08:05:22Z</time></trkpt><trkpt lat="44.77541508938144" lon="9.61580605297467"><ele>423.49999999999994</ele><time>2026-05-03T08:05:23Z</time></trkpt><trkpt lat="44.77535749799131" lon="9.615706967037136"><ele>422.0</ele><time>2026-05-03T08:05:24Z</time></trkpt><trkpt lat="44.77529188924946" lon="9.615641293664773"><ele>422.0</ele><time>2026-05-03T08:05:24.999Z</time></trkpt><trkpt lat="44.77521130057364" lon="9.61555232869403"><ele>422.0</ele><time>2026-05-03T08:05:26.999Z</time></trkpt><trkpt lat="44.77519019601331" lon="9.615401246759177"><ele>422.0</ele><time>2026-05-03T08:05:28.999Z</time></trkpt><trkpt lat="44.77519909802956" lon="9.615257982450723"><ele>422.0</ele><time>2026-05-03T08:05:30.999Z</time></trkpt><trkpt lat="44.77523740334145" lon="9.615085825257442"><ele>422.0</ele><time>2026-05-03T08:05:32.999Z</time></trkpt><trkpt lat="44.77524568429935" lon="9.61498820607851"><ele>420.0</ele><time>2026-05-03T08:05:33.999Z</time></trkpt><trkpt lat="44.77525584869277" lon="9.614870450278776"><ele>418.0</ele><time>2026-05-03T08:05:34.999Z</time></trkpt><trkpt lat="44.77524732221585" lon="9.614734568021673"><ele>416.0</ele><time>2026-05-03T08:05:35.999Z</time></trkpt><trkpt lat="44.7752250742573" lon="9.614600082060063"><ele>414.0</ele><time>2026-05-03T08:05:36.999Z</time></trkpt><trkpt lat="44.775194043065504" lon="9.61446607206892"><ele>412.0</ele><time>2026-05-03T08:05:37.999Z</time></trkpt><trkpt lat="44.77516467965974" lon="9.614336897874733"><ele>409.8</ele><time>2026-05-03T08:05:38.999Z</time></trkpt><trkpt lat="44.77512685493809" lon="9.614216149146712"><ele>407.6</ele><time>2026-05-03T08:05:39.999Z</time></trkpt><trkpt lat="44.775071834544484" lon="9.6140995101492"><ele>405.40000000000003</ele><time>2026-05-03T08:05:40.999Z</time></trkpt><trkpt lat="44.775011403363486" lon="9.613995066105833"><ele>403.20000000000005</ele><time>2026-05-03T08:05:41.999Z</time></trkpt><trkpt lat="44.7749337794401" lon="9.613889468394074"><ele>401.0</ele><time>2026-05-03T08:05:42.999Z</time></trkpt><trkpt lat="44.77486292692306" lon="9.613763983290497"><ele>398.6</ele><time>2026-05-03T08:05:43.999Z</time></trkpt><trkpt lat="44.77480262580034" lon="9.61362626678976"><ele>396.20000000000005</ele><time>2026-05-03T08:05:44.999Z</time></trkpt><trkpt lat="44.774745463353504" lon="9.61351071023364"><ele>393.79999999999995</ele><time>2026-05-03T08:05:45.999Z</time></trkpt><trkpt lat="44.77466465055898" lon="9.6134199033753"><ele>391.4</ele><time>2026-05-03T08:05:46.999Z</time></trkpt><trkpt lat="44.7745848684091" lon="9.613368657040674"><ele>389.0</ele><time>2026-05-03T08:05:47.999Z</time></trkpt><trkpt lat="44.77454018957542" lon="9.613298155137716"><ele>388.99999999999994</ele><time>2026-05-03T08:05:48.999Z</time></trkpt><trkpt lat="44.77452227628737" lon="9.613204689207496"><ele>389.0</ele><time>2026-05-03T08:05:49.999Z</time></trkpt><trkpt lat="44.774532252556206" lon="9.613092460725502"><ele>389.0</ele><time>2026-05-03T08:05:50.999Z</time></trkpt><trkpt lat="44.77456027902704" lon="9.612985677496996"><ele>389.0</ele><time>2026-05-03T08:05:51.999Z</time></trkpt><trkpt lat="44.77457718092876" lon="9.61285761760004"><ele>388.99999999999994</ele><time>2026-05-03T08:05:52.999Z</time></trkpt><trkpt lat="44.77459167539053" lon="9.61272694196077"><ele>389.0</ele><time>2026-05-03T08:05:53.999Z</time></trkpt><trkpt lat="44.7746075479715" lon="9.612593489305661"><ele>387.2</ele><time>2026-05-03T08:05:54.999Z</time></trkpt><trkpt lat="44.77461990155153" lon="9.612460927737125"><ele>385.4</ele><time>2026-05-03T08:05:55.999Z</time></trkpt><trkpt lat="44.774625429620514" lon="9.612338354113943"><ele>383.6</ele><time>2026-05-03T08:05:56.999Z</time></trkpt><trkpt lat="44.77463252402888" lon="9.612207221091245"><ele>381.8</ele><time>2026-05-03T08:05:57.999Z</time></trkpt><trkpt lat="44.77464810071425" lon="9.612082161328587"><ele>380.0</ele><time>2026-05-03T08:05:58.999Z</time></trkpt><trkpt lat="44.774672431679186" lon="9.611965349253245"><ele>378.83333333333337</ele><time>2026-05-03T08:05:59.999Z</time></trkpt><trkpt lat="44.77469992773817" lon="9.611846583354032"><ele>377.6666666666667</ele><time>2026-05-03T08:06:00.999Z</time></trkpt><trkpt lat="44.774727847338454" lon="9.611729482886052"><ele>376.5</ele><time>2026-05-03T08:06:01.999Z</time></trkpt><trkpt lat="44.774740170218166" lon="9.6116131678158"><ele>375.3333333333333</ele><time>2026-05-03T08:06:02.999Z</time></trkpt><trkpt lat="44.774736520335914" lon="9.611493698764882"><ele>374.16666666666663</ele><time>2026-05-03T08:06:03.999Z</time></trkpt><trkpt lat="44.77472343640488" lon="9.611388335711593"><ele>373.0</ele><time>2026-05-03T08:06:04.999Z</time></trkpt><trkpt lat="44.77472257559401" lon="9.611287273947989"><ele>373.0</ele><time>2026-05-03T08:06:05.999Z</time></trkpt><trkpt lat="44.77474052339476" lon="9.611186225976304"><ele>373.0</ele><time>2026-05-03T08:06:06.999Z</time></trkpt><trkpt lat="44.77476934043785" lon="9.61108745468302"><ele>373.0</ele><time>2026-05-03T08:06:07.999Z</time></trkpt><trkpt lat="44.77482378434944" lon="9.61101866359681"><ele>373.0</ele><time>2026-05-03T08:06:08.999Z</time></trkpt><trkpt lat="44.774906750530214" lon="9.610993185253275"><ele>373.0</ele><time>2026-05-03T08:06:09.999Z</time></trkpt><trkpt lat="44.7749970002752" lon="9.610993878739862"><ele>373.0</ele><time>2026-05-03T08:06:10.999Z</time></trkpt><trkpt lat="44.775086745655315" lon="9.611022527847558"><ele>372.5</ele><time>2026-05-03T08:06:11.999Z</time></trkpt><trkpt lat="44.77517098100847" lon="9.611048968175526"><ele>372.0</ele><time>2026-05-03T08:06:12.999Z</time></trkpt><trkpt lat="44.77528272470764" lon="9.611022458199045"><ele>371.5</ele><time>2026-05-03T08:06:14.999Z</time></trkpt><trkpt lat="44.77531800487397" lon="9.610939295516266"><ele>371.0</ele><time>2026-05-03T08:06:15.999Z</time></trkpt><trkpt lat="44.77532439342476" lon="9.610824998720894"><ele>370.5</ele><time>2026-05-03T08:06:16.999Z</time></trkpt><trkpt lat="44.77532833415459" lon="9.610704284649612"><ele>370.0</ele><time>2026-05-03T08:06:17.999Z</time></trkpt><trkpt lat="44.77533820954104" lon="9.61056808805001"><ele>368.8</ele><time>2026-05-03T08:06:18.999Z</time></trkpt><trkpt lat="44.77534463714108" lon="9.610420510299004"><ele>367.6</ele><time>2026-05-03T08:06:19.999Z</time></trkpt><trkpt lat="44.77535326950035" lon="9.610269920553742"><ele>366.4</ele><time>2026-05-03T08:06:20.999Z</time></trkpt><trkpt lat="44.775363545228785" lon="9.610109600075926"><ele>365.2</ele><time>2026-05-03T08:06:21.999Z</time></trkpt><trkpt lat="44.775372419460425" lon="9.609942222150574"><ele>364.0</ele><time>2026-05-03T08:06:22.999Z</time></trkpt><trkpt lat="44.77538182814944" lon="9.609787945900038"><ele>362.3333333333333</ele><time>2026-05-03T08:06:23.999Z</time></trkpt><trkpt lat="44.775391386049364" lon="9.609659086603555"><ele>360.66666666666663</ele><time>2026-05-03T08:06:24.999Z</time></trkpt><trkpt lat="44.77539980055618" lon="9.609529891822767"><ele>359.0</ele><time>2026-05-03T08:06:25.999Z</time></trkpt><trkpt lat="44.775411440628595" lon="9.6094254774397"><ele>357.3333333333333</ele><time>2026-05-03T08:06:26.999Z</time></trkpt><trkpt lat="44.77543036317123" lon="9.609327813348017"><ele>355.6666666666667</ele><time>2026-05-03T08:06:27.999Z</time></trkpt><trkpt lat="44.775463757036114" lon="9.609172851155508"><ele>354.0</ele><time>2026-05-03T08:06:29.999Z</time></trkpt><trkpt lat="44.775498535386276" lon="9.609065107597647"><ele>352.6</ele><time>2026-05-03T08:06:31.999Z</time></trkpt><trkpt lat="44.77561267091062" lon="9.608955993264283"><ele>351.2</ele><time>2026-05-03T08:06:33.999Z</time></trkpt><trkpt lat="44.775676268744334" lon="9.608857721358147"><ele>349.8</ele><time>2026-05-03T08:06:34.999Z</time></trkpt><trkpt lat="44.77573097113365" lon="9.608753417449554"><ele>348.40000000000003</ele><time>2026-05-03T08:06:35.999Z</time></trkpt><trkpt lat="44.77578646581352" lon="9.608635791866753"><ele>347.0</ele><time>2026-05-03T08:06:36.999Z</time></trkpt><trkpt lat="44.77583607533148" lon="9.608523092189039"><ele>345.40000000000003</ele><time>2026-05-03T08:06:37.999Z</time></trkpt><trkpt lat="44.77589330157998" lon="9.608414528363843"><ele>343.8</ele><time>2026-05-03T08:06:38.999Z</time></trkpt><trkpt lat="44.77594574534156" lon="9.608309378884849"><ele>342.2</ele><time>2026-05-03T08:06:39.999Z</time></trkpt><trkpt lat="44.77599983256587" lon="9.608204221841875"><ele>340.6</ele><time>2026-05-03T08:06:40.999Z</time></trkpt><trkpt lat="44.776050722471794" lon="9.608092217483286"><ele>339.0</ele><time>2026-05-03T08:06:42Z</time></trkpt><trkpt lat="44.77609748354726" lon="9.607976000651597"><ele>337.8333333333333</ele><time>2026-05-03T08:06:43Z</time></trkpt><trkpt lat="44.77612880926692" lon="9.607868615720191"><ele>336.6666666666667</ele><time>2026-05-03T08:06:44Z</time></trkpt><trkpt lat="44.77614940483448" lon="9.607755510563456"><ele>335.5</ele><time>2026-05-03T08:06:45Z</time></trkpt><trkpt lat="44.77616603296792" lon="9.607642649194712"><ele>334.33333333333337</ele><time>2026-05-03T08:06:46Z</time></trkpt><trkpt lat="44.7761778998888" lon="9.607545906706916"><ele>333.1666666666667</ele><time>2026-05-03T08:06:47Z</time></trkpt><trkpt lat="44.776191806653564" lon="9.60740524266769"><ele>332.0</ele><time>2026-05-03T08:06:49Z</time></trkpt><trkpt lat="44.77620325761173" lon="9.607295320031334"><ele>331.40000000000003</ele><time>2026-05-03T08:06:52Z</time></trkpt><trkpt lat="44.7762170299592" lon="9.60720416491121"><ele>330.8</ele><time>2026-05-03T08:06:54Z</time></trkpt><trkpt lat="44.77621482536398" lon="9.607083114717867"><ele>330.2</ele><time>2026-05-03T08:06:56Z</time></trkpt><trkpt lat="44.77620886356908" lon="9.60694231223693"><ele>329.6</ele><time>2026-05-03T08:06:58Z</time></trkpt><trkpt lat="44.77621068227156" lon="9.606799826078943"><ele>329.0</ele><time>2026-05-03T08:07:00Z</time></trkpt><trkpt lat="44.77622159587193" lon="9.606647244437097"><ele>328.2</ele><time>2026-05-03T08:07:02Z</time></trkpt><trkpt lat="44.77623641807857" lon="9.60649674218964"><ele>327.4</ele><time>2026-05-03T08:07:04Z</time></trkpt><trkpt lat="44.77624122507462" lon="9.606322048178267"><ele>326.6</ele><time>2026-05-03T08:07:06Z</time></trkpt><trkpt lat="44.77624695219247" lon="9.606227698205501"><ele>325.8</ele><time>2026-05-03T08:07:07Z</time></trkpt><trkpt lat="44.77625576187148" lon="9.606055584065318"><ele>325.0</ele><time>2026-05-03T08:07:09Z</time></trkpt><trkpt lat="44.77626319070095" lon="9.605885784105457"><ele>325.0</ele><time>2026-05-03T08:07:11Z</time></trkpt><trkpt lat="44.77627108637635" lon="9.605737672537224"><ele>325.0</ele><time>2026-05-03T08:07:13Z</time></trkpt><trkpt lat="44.77625769951102" lon="9.605603600127978"><ele>325.0</ele><time>2026-05-03T08:07:15Z</time></trkpt><trkpt lat="44.77617472445229" lon="9.605544702312512"><ele>325.0</ele><time>2026-05-03T08:07:17Z</time></trkpt><trkpt lat="44.77604913374446" lon="9.605548493059775"><ele>325.0</ele><time>2026-05-03T08:07:19Z</time></trkpt><trkpt lat="44.77597854525026" lon="9.605546421674262"><ele>325.3333333333333</ele><time>2026-05-03T08:07:20Z</time></trkpt><trkpt lat="44.775902629956306" lon="9.605543600811874"><ele>325.66666666666663</ele><time>2026-05-03T08:07:21Z</time></trkpt><trkpt lat="44.775823870551356" lon="9.60553806755446"><ele>326.0</ele><time>2026-05-03T08:07:22Z</time></trkpt><trkpt lat="44.775736437936764" lon="9.605531717467294"><ele>326.3333333333333</ele><time>2026-05-03T08:07:23Z</time></trkpt><trkpt lat="44.77565064300882" lon="9.605525670264678"><ele>326.6666666666667</ele><time>2026-05-03T08:07:24Z</time></trkpt><trkpt lat="44.7755535719085" lon="9.60551817058123"><ele>327.0</ele><time>2026-05-03T08:07:25Z</time></trkpt><trkpt lat="44.775460193725785" lon="9.605503755568638"><ele>327.0</ele><time>2026-05-03T08:07:26Z</time></trkpt><trkpt lat="44.77537356286292" lon="9.60548117183178"><ele>327.0</ele><time>2026-05-03T08:07:27Z</time></trkpt><trkpt lat="44.775286374115495" lon="9.605457653251126"><ele>327.0</ele><time>2026-05-03T08:07:28Z</time></trkpt><trkpt lat="44.775196451310784" lon="9.605435473790667"><ele>327.0</ele><time>2026-05-03T08:07:28.999Z</time></trkpt><trkpt lat="44.77510462111381" lon="9.605412456283386"><ele>327.0</ele><time>2026-05-03T08:07:29.999Z</time></trkpt><trkpt lat="44.77501376366558" lon="9.605392318265773"><ele>326.8333333333333</ele><time>2026-05-03T08:07:30.999Z</time></trkpt><trkpt lat="44.77492661059499" lon="9.605374732874028"><ele>326.6666666666667</ele><time>2026-05-03T08:07:31.999Z</time></trkpt><trkpt lat="44.77484543807039" lon="9.605353092549509"><ele>326.5</ele><time>2026-05-03T08:07:32.999Z</time></trkpt><trkpt lat="44.77477164982252" lon="9.60532883328353"><ele>326.33333333333337</ele><time>2026-05-03T08:07:33.999Z</time></trkpt><trkpt lat="44.774685319311516" lon="9.605294233559022"><ele>326.1666666666667</ele><time>2026-05-03T08:07:35.999Z</time></trkpt><trkpt lat="44.77461937592255" lon="9.605238308792249"><ele>326.0</ele><time>2026-05-03T08:07:38.999Z</time></trkpt><trkpt lat="44.77457375278224" lon="9.605167944007878"><ele>326.33333333333337</ele><time>2026-05-03T08:07:41.999Z</time></trkpt><trkpt lat="44.77463804157048" lon="9.60520918992466"><ele>326.6666666666667</ele><time>2026-05-03T08:10:21.999Z</time></trkpt><trkpt lat="44.77459610309311" lon="9.605112686490662"><ele>327.0</ele><time>2026-05-03T08:12:24.999Z</time></trkpt><trkpt lat="44.77457370448932" lon="9.60523023931298"><ele>327.3333333333333</ele><time>2026-05-03T08:16:41.999Z</time></trkpt><trkpt lat="44.774482047421216" lon="9.605229594366733"><ele>327.66666666666663</ele><time>2026-05-03T08:17:03.999Z</time></trkpt><trkpt lat="44.774382027919664" lon="9.605197335935202"><ele>328.0</ele><time>2026-05-03T08:17:06.999Z</time></trkpt><trkpt lat="44.77426192735394" lon="9.605172357289868"><ele>328.3333333333333</ele><time>2026-05-03T08:17:08.999Z</time></trkpt><trkpt lat="44.774191094364326" lon="9.60514906226775"><ele>328.66666666666663</ele><time>2026-05-03T08:17:09.999Z</time></trkpt><trkpt lat="44.77410446968842" lon="9.60511863937397"><ele>329.0</ele><time>2026-05-03T08:17:10.999Z</time></trkpt><trkpt lat="44.774016794590366" lon="9.605089110134726"><ele>329.3333333333333</ele><time>2026-05-03T08:17:12Z</time></trkpt><trkpt lat="44.77392653866965" lon="9.605050886531755"><ele>329.6666666666667</ele><time>2026-05-03T08:17:13Z</time></trkpt><trkpt lat="44.77383477397626" lon="9.605013945741259"><ele>330.0</ele><time>2026-05-03T08:17:14Z</time></trkpt><trkpt lat="44.77374587377307" lon="9.60497463785764"><ele>330.0</ele><time>2026-05-03T08:17:15Z</time></trkpt><trkpt lat="44.7736551785068" lon="9.6049274522197"><ele>330.0</ele><time>2026-05-03T08:17:16Z</time></trkpt><trkpt lat="44.773568553976204" lon="9.604880411641796"><ele>330.0</ele><time>2026-05-03T08:17:17Z</time></trkpt><trkpt lat="44.77347993630945" lon="9.604830870954551"><ele>330.0</ele><time>2026-05-03T08:17:18Z</time></trkpt><trkpt lat="44.77339067112114" lon="9.604788790254588"><ele>330.0</ele><time>2026-05-03T08:17:19Z</time></trkpt><trkpt lat="44.77329604362726" lon="9.604742196389152"><ele>330.5</ele><time>2026-05-03T08:17:20Z</time></trkpt><trkpt lat="44.773183430955505" lon="9.604687429028703"><ele>331.0</ele><time>2026-05-03T08:17:21Z</time></trkpt><trkpt lat="44.77305033771456" lon="9.604615947759571"><ele>331.5</ele><time>2026-05-03T08:17:22Z</time></trkpt><trkpt lat="44.77292205378068" lon="9.604538868117316"><ele>332.0</ele><time>2026-05-03T08:17:23Z</time></trkpt><trkpt lat="44.772792238924836" lon="9.604452858528678"><ele>334.0</ele><time>2026-05-03T08:17:24Z</time></trkpt><trkpt lat="44.77268422716087" lon="9.604363399042207"><ele>336.0</ele><time>2026-05-03T08:17:25Z</time></trkpt><trkpt lat="44.77258291666806" lon="9.604278426683903"><ele>338.0</ele><time>2026-05-03T08:17:26Z</time></trkpt><trkpt lat="44.772503638188205" lon="9.60417555515958"><ele>340.0</ele><time>2026-05-03T08:17:27Z</time></trkpt><trkpt lat="44.77243641560061" lon="9.60403946854859"><ele>340.0</ele><time>2026-05-03T08:17:28Z</time></trkpt><trkpt lat="44.772397256305155" lon="9.603879882954104"><ele>340.0</ele><time>2026-05-03T08:17:29Z</time></trkpt><trkpt lat="44.77239141762628" lon="9.60371910081024"><ele>340.0</ele><time>2026-05-03T08:17:30Z</time></trkpt><trkpt lat="44.77239157907452" lon="9.603547392021738"><ele>340.0</ele><time>2026-05-03T08:17:31Z</time></trkpt><trkpt lat="44.77237565463579" lon="9.603370598323849"><ele>341.4</ele><time>2026-05-03T08:17:32Z</time></trkpt><trkpt lat="44.77233133170926" lon="9.603216419976647"><ele>342.8</ele><time>2026-05-03T08:17:33Z</time></trkpt><trkpt lat="44.772261071321815" lon="9.603098096220075"><ele>344.20000000000005</ele><time>2026-05-03T08:17:34Z</time></trkpt><trkpt lat="44.77217244601273" lon="9.603011885687447"><ele>345.6</ele><time>2026-05-03T08:17:35Z</time></trkpt><trkpt lat="44.77207405384745" lon="9.602945057634562"><ele>347.0</ele><time>2026-05-03T08:17:36Z</time></trkpt><trkpt lat="44.77196353376973" lon="9.602900218487749"><ele>346.75</ele><time>2026-05-03T08:17:37Z</time></trkpt><trkpt lat="44.771848638078346" lon="9.602861210807031"><ele>346.5</ele><time>2026-05-03T08:17:38Z</time></trkpt><trkpt lat="44.77173431144888" lon="9.602836078843545"><ele>346.25</ele><time>2026-05-03T08:17:39Z</time></trkpt><trkpt lat="44.77162424436219" lon="9.60281980199266"><ele>346.0</ele><time>2026-05-03T08:17:40Z</time></trkpt><trkpt lat="44.7715171118199" lon="9.602808661948622"><ele>348.4</ele><time>2026-05-03T08:17:41Z</time></trkpt><trkpt lat="44.771412735744086" lon="9.60278805237966"><ele>350.8</ele><time>2026-05-03T08:17:42Z</time></trkpt><trkpt lat="44.77132889089527" lon="9.602703057274384"><ele>353.2</ele><time>2026-05-03T08:17:43Z</time></trkpt><trkpt lat="44.771259387952746" lon="9.602581928953072"><ele>355.59999999999997</ele><time>2026-05-03T08:17:44Z</time></trkpt><trkpt lat="44.77120970856639" lon="9.602440408038623"><ele>358.0</ele><time>2026-05-03T08:17:45Z</time></trkpt><trkpt lat="44.771157028613715" lon="9.602298746215034"><ele>358.0</ele><time>2026-05-03T08:17:46Z</time></trkpt><trkpt lat="44.77109800473744" lon="9.60216801612135"><ele>358.0</ele><time>2026-05-03T08:17:47Z</time></trkpt><trkpt lat="44.77102423053278" lon="9.60206349956057"><ele>358.0</ele><time>2026-05-03T08:17:48Z</time></trkpt><trkpt lat="44.770931951669894" lon="9.601998485538783"><ele>358.0</ele><time>2026-05-03T08:17:49Z</time></trkpt><trkpt lat="44.77082933989636" lon="9.601991640870455"><ele>358.0</ele><time>2026-05-03T08:17:50Z</time></trkpt><trkpt lat="44.77072508651543" lon="9.602053534826597"><ele>358.59999999999997</ele><time>2026-05-03T08:17:51Z</time></trkpt><trkpt lat="44.77062939491685" lon="9.602172059882411"><ele>359.2</ele><time>2026-05-03T08:17:52Z</time></trkpt><trkpt lat="44.77053980130921" lon="9.602260150401492"><ele>359.8</ele><time>2026-05-03T08:17:53Z</time></trkpt><trkpt lat="44.770442433379785" lon="9.602269580219364"><ele>360.4</ele><time>2026-05-03T08:17:54Z</time></trkpt><trkpt lat="44.77033206865218" lon="9.602244456145934"><ele>361.0</ele><time>2026-05-03T08:17:55Z</time></trkpt><trkpt lat="44.770222546717726" lon="9.602207606266722"><ele>360.25</ele><time>2026-05-03T08:17:56Z</time></trkpt><trkpt lat="44.77011745308022" lon="9.602142768623564"><ele>359.5</ele><time>2026-05-03T08:17:57Z</time></trkpt><trkpt lat="44.77002437063944" lon="9.602060892004594"><ele>358.75</ele><time>2026-05-03T08:17:58Z</time></trkpt><trkpt lat="44.7699538206031" lon="9.601941383913342"><ele>358.0</ele><time>2026-05-03T08:17:59Z</time></trkpt><trkpt lat="44.76991298710949" lon="9.60178283358056"><ele>360.75</ele><time>2026-05-03T08:18:00Z</time></trkpt><trkpt lat="44.76989303902652" lon="9.601612928885762"><ele>363.5</ele><time>2026-05-03T08:18:01Z</time></trkpt><trkpt lat="44.76986932496482" lon="9.60144001910701"><ele>366.25</ele><time>2026-05-03T08:18:02Z</time></trkpt><trkpt lat="44.76983151573608" lon="9.60127306208179"><ele>369.0</ele><time>2026-05-03T08:18:03Z</time></trkpt><trkpt lat="44.769781939908725" lon="9.601108962362346"><ele>370.5</ele><time>2026-05-03T08:18:04Z</time></trkpt><trkpt lat="44.76973303186703" lon="9.600968107974142"><ele>372.0</ele><time>2026-05-03T08:18:05Z</time></trkpt><trkpt lat="44.76968149073868" lon="9.60082663519993"><ele>373.5</ele><time>2026-05-03T08:18:06Z</time></trkpt><trkpt lat="44.769621891033275" lon="9.600685852222377"><ele>375.0</ele><time>2026-05-03T08:18:07Z</time></trkpt><trkpt lat="44.76954343490682" lon="9.600561885450738"><ele>375.0</ele><time>2026-05-03T08:18:08Z</time></trkpt><trkpt lat="44.769444292255756" lon="9.600465060272525"><ele>375.0</ele><time>2026-05-03T08:18:09Z</time></trkpt><trkpt lat="44.76932802698016" lon="9.600400795500748"><ele>375.0</ele><time>2026-05-03T08:18:10Z</time></trkpt><trkpt lat="44.76920267874057" lon="9.600344515902165"><ele>375.0</ele><time>2026-05-03T08:18:11Z</time></trkpt><trkpt lat="44.76908682799365" lon="9.600270038803478"><ele>376.5</ele><time>2026-05-03T08:18:12Z</time></trkpt><trkpt lat="44.76897054524688" lon="9.600203585238118"><ele>378.0</ele><time>2026-05-03T08:18:13Z</time></trkpt><trkpt lat="44.768855584209945" lon="9.600142834138344"><ele>379.5</ele><time>2026-05-03T08:18:14Z</time></trkpt><trkpt lat="44.76874188253556" lon="9.600076460481537"><ele>381.0</ele><time>2026-05-03T08:18:15Z</time></trkpt><trkpt lat="44.768624765468296" lon="9.600023285766348"><ele>381.25</ele><time>2026-05-03T08:18:16Z</time></trkpt><trkpt lat="44.76850353352916" lon="9.599991256921966"><ele>381.5</ele><time>2026-05-03T08:18:17Z</time></trkpt><trkpt lat="44.768381704393754" lon="9.599976712264255"><ele>381.75</ele><time>2026-05-03T08:18:18Z</time></trkpt><trkpt lat="44.768255638588485" lon="9.59996253066348"><ele>382.0</ele><time>2026-05-03T08:18:19Z</time></trkpt><trkpt lat="44.76812467008536" lon="9.599928836919538"><ele>382.0</ele><time>2026-05-03T08:18:20Z</time></trkpt><trkpt lat="44.76800510129172" lon="9.599865385646307"><ele>382.0</ele><time>2026-05-03T08:18:21Z</time></trkpt><trkpt lat="44.76788629541375" lon="9.599803587273165"><ele>382.0</ele><time>2026-05-03T08:18:22Z</time></trkpt><trkpt lat="44.76776468776727" lon="9.599760956281328"><ele>382.0</ele><time>2026-05-03T08:18:23Z</time></trkpt><trkpt lat="44.767640576710626" lon="9.599751771445597"><ele>381.0</ele><time>2026-05-03T08:18:24Z</time></trkpt><trkpt lat="44.767519972981184" lon="9.599738498519871"><ele>380.0</ele><time>2026-05-03T08:18:25Z</time></trkpt><trkpt lat="44.767408585905045" lon="9.599699214030514"><ele>379.0</ele><time>2026-05-03T08:18:26Z</time></trkpt><trkpt lat="44.76730630960425" lon="9.599639429213882"><ele>378.0</ele><time>2026-05-03T08:18:27Z</time></trkpt><trkpt lat="44.767205629343835" lon="9.599548206778971"><ele>381.5</ele><time>2026-05-03T08:18:28Z</time></trkpt><trkpt lat="44.76711329347237" lon="9.599442984120087"><ele>385.0</ele><time>2026-05-03T08:18:29Z</time></trkpt><trkpt lat="44.76701398460841" lon="9.599329347471482"><ele>388.5</ele><time>2026-05-03T08:18:29.999Z</time></trkpt><trkpt lat="44.76691451743219" lon="9.599208424839867"><ele>392.0</ele><time>2026-05-03T08:18:30.999Z</time></trkpt><trkpt lat="44.766812197059664" lon="9.599091678092678"><ele>392.0</ele><time>2026-05-03T08:18:31.999Z</time></trkpt><trkpt lat="44.766706831865946" lon="9.598981246746117"><ele>392.0</ele><time>2026-05-03T08:18:32.999Z</time></trkpt><trkpt lat="44.766594043418436" lon="9.59888295686791"><ele>392.0</ele><time>2026-05-03T08:18:33.999Z</time></trkpt><trkpt lat="44.766468793770535" lon="9.59880683319035"><ele>392.0</ele><time>2026-05-03T08:18:34.999Z</time></trkpt><trkpt lat="44.76633227298005" lon="9.59875134697731"><ele>392.0</ele><time>2026-05-03T08:18:35.999Z</time></trkpt><trkpt lat="44.76619303133646" lon="9.59869793191613"><ele>392.0</ele><time>2026-05-03T08:18:36.999Z</time></trkpt><trkpt lat="44.7660546198007" lon="9.598645297483507"><ele>392.0</ele><time>2026-05-03T08:18:37.999Z</time></trkpt><trkpt lat="44.7659202599174" lon="9.598590300553097"><ele>392.0</ele><time>2026-05-03T08:18:38.999Z</time></trkpt><trkpt lat="44.76578961005059" lon="9.598535867157922"><ele>394.0</ele><time>2026-05-03T08:18:39.999Z</time></trkpt><trkpt lat="44.765657656574646" lon="9.598478594240222"><ele>396.0</ele><time>2026-05-03T08:18:40.999Z</time></trkpt><trkpt lat="44.76552415638593" lon="9.59841039742377"><ele>398.0</ele><time>2026-05-03T08:18:41.999Z</time></trkpt><trkpt lat="44.76538773582591" lon="9.598328548602458"><ele>400.0</ele><time>2026-05-03T08:18:42.999Z</time></trkpt><trkpt lat="44.76524702380166" lon="9.598248865740542"><ele>398.0</ele><time>2026-05-03T08:18:43.999Z</time></trkpt><trkpt lat="44.765099355163464" lon="9.598177607921818"><ele>396.0</ele><time>2026-05-03T08:18:44.999Z</time></trkpt><trkpt lat="44.76495525952141" lon="9.598130665863822"><ele>394.0</ele><time>2026-05-03T08:18:45.999Z</time></trkpt><trkpt lat="44.76481518890513" lon="9.598106139886276"><ele>392.0</ele><time>2026-05-03T08:18:46.999Z</time></trkpt><trkpt lat="44.76467522033536" lon="9.598099757394582"><ele>392.0</ele><time>2026-05-03T08:18:47.999Z</time></trkpt><trkpt lat="44.76453548012681" lon="9.598121827625537"><ele>392.0</ele><time>2026-05-03T08:18:48.999Z</time></trkpt><trkpt lat="44.76439790210545" lon="9.598163810940553"><ele>392.0</ele><time>2026-05-03T08:18:49.999Z</time></trkpt><trkpt lat="44.764255926319564" lon="9.598200596924213"><ele>392.0</ele><time>2026-05-03T08:18:50.999Z</time></trkpt><trkpt lat="44.764111132384095" lon="9.598229004078766"><ele>392.25</ele><time>2026-05-03T08:18:51.999Z</time></trkpt><trkpt lat="44.76396324355374" lon="9.598250077717712"><ele>392.5</ele><time>2026-05-03T08:18:52.999Z</time></trkpt><trkpt lat="44.763815065809794" lon="9.598262071094219"><ele>392.75</ele><time>2026-05-03T08:18:53.999Z</time></trkpt><trkpt lat="44.76368253507999" lon="9.598254000959928"><ele>393.0</ele><time>2026-05-03T08:18:54.999Z</time></trkpt><trkpt lat="44.76356968297521" lon="9.598211100975083"><ele>392.0</ele><time>2026-05-03T08:18:55.999Z</time></trkpt><trkpt lat="44.763481652403854" lon="9.598123705816219"><ele>391.0</ele><time>2026-05-03T08:18:56.999Z</time></trkpt><trkpt lat="44.7634417363809" lon="9.597996176398459"><ele>390.0</ele><time>2026-05-03T08:18:57.999Z</time></trkpt><trkpt lat="44.76343499966581" lon="9.597842131922304"><ele>389.0</ele><time>2026-05-03T08:18:58.999Z</time></trkpt><trkpt lat="44.76344631481336" lon="9.597672007692129"><ele>388.0</ele><time>2026-05-03T08:18:59.999Z</time></trkpt><trkpt lat="44.76343269076495" lon="9.597486638957184"><ele>390.0</ele><time>2026-05-03T08:19:00.999Z</time></trkpt><trkpt lat="44.76339772226813" lon="9.597353076083145"><ele>392.0</ele><time>2026-05-03T08:19:01.999Z</time></trkpt><trkpt lat="44.76337640302" lon="9.597260704139327"><ele>394.0</ele><time>2026-05-03T08:19:02.999Z</time></trkpt><trkpt lat="44.763416387958124" lon="9.597120627607854"><ele>396.0</ele><time>2026-05-03T08:19:04.999Z</time></trkpt><trkpt lat="44.7634997312415" lon="9.597078211935326"><ele>398.0</ele><time>2026-05-03T08:19:06.999Z</time></trkpt><trkpt lat="44.763620420489715" lon="9.597140289910865"><ele>400.0</ele><time>2026-05-03T08:19:15.999Z</time></trkpt><trkpt lat="44.76368773041169" lon="9.597220805571892"><ele>402.0</ele><time>2026-05-03T08:19:16.999Z</time></trkpt><trkpt lat="44.763727981616164" lon="9.597349612115819"><ele>404.0</ele><time>2026-05-03T08:19:18.001Z</time></trkpt><trkpt lat="44.76374728319158" lon="9.597451341592022"><ele>406.0</ele><time>2026-05-03T08:19:19.001Z</time></trkpt><trkpt lat="44.763813991799935" lon="9.59753310565451"><ele>408.0</ele><time>2026-05-03T08:19:21.001Z</time></trkpt><trkpt lat="44.76394793658686" lon="9.597499315392074"><ele>408.0</ele><time>2026-05-03T08:19:23.001Z</time></trkpt><trkpt lat="44.76401475673956" lon="9.597410454436197"><ele>408.0</ele><time>2026-05-03T08:19:24.001Z</time></trkpt><trkpt lat="44.76405369517492" lon="9.597263454272483"><ele>408.0</ele><time>2026-05-03T08:19:25Z</time></trkpt><trkpt lat="44.76407824418592" lon="9.597065873987427"><ele>408.0</ele><time>2026-05-03T08:19:26Z</time></trkpt><trkpt lat="44.76412364010274" lon="9.596908823667768"><ele>410.59999999999997</ele><time>2026-05-03T08:19:27Z</time></trkpt><trkpt lat="44.76419661187842" lon="9.596824537273772"><ele>413.2</ele><time>2026-05-03T08:19:28Z</time></trkpt><trkpt lat="44.764292716051564" lon="9.596782723744107"><ele>415.8</ele><time>2026-05-03T08:19:29Z</time></trkpt><trkpt lat="44.764401184725884" lon="9.596750277707516"><ele>418.4</ele><time>2026-05-03T08:19:30Z</time></trkpt><trkpt lat="44.76452537420326" lon="9.596712604657027"><ele>421.0</ele><time>2026-05-03T08:19:31Z</time></trkpt><trkpt lat="44.76463598306222" lon="9.59668481883846"><ele>422.20000000000005</ele><time>2026-05-03T08:19:32Z</time></trkpt><trkpt lat="44.76473626513986" lon="9.596649429557031"><ele>423.40000000000003</ele><time>2026-05-03T08:19:33Z</time></trkpt><trkpt lat="44.764825482080276" lon="9.596599408659596"><ele>424.6</ele><time>2026-05-03T08:19:34Z</time></trkpt><trkpt lat="44.76489146766005" lon="9.596526255759393"><ele>425.8</ele><time>2026-05-03T08:19:35Z</time></trkpt><trkpt lat="44.76492046727919" lon="9.596422665063798"><ele>427.0</ele><time>2026-05-03T08:19:36Z</time></trkpt><trkpt lat="44.76489977129622" lon="9.596302412369395"><ele>427.0</ele><time>2026-05-03T08:19:37Z</time></trkpt><trkpt lat="44.76484278155152" lon="9.596204847617551"><ele>427.00000000000006</ele><time>2026-05-03T08:19:38Z</time></trkpt><trkpt lat="44.764757959072924" lon="9.596142110631913"><ele>427.00000000000006</ele><time>2026-05-03T08:19:39Z</time></trkpt><trkpt lat="44.764637967722706" lon="9.59613018939277"><ele>427.0</ele><time>2026-05-03T08:19:40Z</time></trkpt><trkpt lat="44.764513412931386" lon="9.596130866857338"><ele>427.0</ele><time>2026-05-03T08:19:41Z</time></trkpt><trkpt lat="44.764410394740885" lon="9.596118789823521"><ele>428.0</ele><time>2026-05-03T08:19:42Z</time></trkpt><trkpt lat="44.76431322153051" lon="9.596074423078942"><ele>429.0</ele><time>2026-05-03T08:19:43Z</time></trkpt><trkpt lat="44.76422090594426" lon="9.595992510007212"><ele>430.0</ele><time>2026-05-03T08:19:44Z</time></trkpt><trkpt lat="44.76413637444561" lon="9.595875631677993"><ele>431.0</ele><time>2026-05-03T08:19:45Z</time></trkpt><trkpt lat="44.76405585720894" lon="9.595735497306219"><ele>431.0</ele><time>2026-05-03T08:19:46Z</time></trkpt><trkpt lat="44.763974342009675" lon="9.59558839051702"><ele>431.0</ele><time>2026-05-03T08:19:47Z</time></trkpt><trkpt lat="44.76388915572485" lon="9.595452035283698"><ele>431.0</ele><time>2026-05-03T08:19:48Z</time></trkpt><trkpt lat="44.76379829070506" lon="9.595317986524309"><ele>431.0</ele><time>2026-05-03T08:19:49Z</time></trkpt><trkpt lat="44.76370980871407" lon="9.595191120887183"><ele>433.5</ele><time>2026-05-03T08:19:50Z</time></trkpt><trkpt lat="44.76362870845203" lon="9.5950573284045"><ele>436.0</ele><time>2026-05-03T08:19:51Z</time></trkpt><trkpt lat="44.763550295809495" lon="9.5949319063544"><ele>438.5</ele><time>2026-05-03T08:19:52Z</time></trkpt><trkpt lat="44.76347225517608" lon="9.594810879217064"><ele>441.0</ele><time>2026-05-03T08:19:53Z</time></trkpt><trkpt lat="44.76339581402043" lon="9.59466724736795"><ele>442.20000000000005</ele><time>2026-05-03T08:19:54Z</time></trkpt><trkpt lat="44.76332968354548" lon="9.594504382196456"><ele>443.40000000000003</ele><time>2026-05-03T08:19:55Z</time></trkpt><trkpt lat="44.76328476271847" lon="9.594355648117235"><ele>444.6</ele><time>2026-05-03T08:19:56Z</time></trkpt><trkpt lat="44.7632535130796" lon="9.59421870776842"><ele>445.8</ele><time>2026-05-03T08:19:57Z</time></trkpt><trkpt lat="44.76324082536334" lon="9.594096505511528"><ele>447.0</ele><time>2026-05-03T08:19:58Z</time></trkpt><trkpt lat="44.76324932180956" lon="9.593990246021951"><ele>447.0</ele><time>2026-05-03T08:19:59Z</time></trkpt><trkpt lat="44.76327871471952" lon="9.593894834055996"><ele>447.00000000000006</ele><time>2026-05-03T08:20:00Z</time></trkpt><trkpt lat="44.76332350189231" lon="9.59375305617677"><ele>447.00000000000006</ele><time>2026-05-03T08:20:02Z</time></trkpt><trkpt lat="44.76336438590257" lon="9.593635374249066"><ele>447.0</ele><time>2026-05-03T08:20:04Z</time></trkpt><trkpt lat="44.76338061284201" lon="9.59353250713438"><ele>447.0</ele><time>2026-05-03T08:20:06Z</time></trkpt><trkpt lat="44.76337096685511" lon="9.593381163325352"><ele>448.8</ele><time>2026-05-03T08:20:08Z</time></trkpt><trkpt lat="44.76332206895165" lon="9.593309421083957"><ele>450.6</ele><time>2026-05-03T08:20:09Z</time></trkpt><trkpt lat="44.76323825911374" lon="9.593251333647085"><ele>452.40000000000003</ele><time>2026-05-03T08:20:10Z</time></trkpt><trkpt lat="44.76313917866416" lon="9.59318946170437"><ele>454.20000000000005</ele><time>2026-05-03T08:20:11Z</time></trkpt><trkpt lat="44.7630312965763" lon="9.59315938615437"><ele>456.0</ele><time>2026-05-03T08:20:12Z</time></trkpt><trkpt lat="44.76290991152729" lon="9.593138707711912"><ele>456.0</ele><time>2026-05-03T08:20:13Z</time></trkpt><trkpt lat="44.76277922586035" lon="9.593113469473858"><ele>456.0</ele><time>2026-05-03T08:20:14Z</time></trkpt><trkpt lat="44.76265523306293" lon="9.593094077874209"><ele>456.0</ele><time>2026-05-03T08:20:15Z</time></trkpt><trkpt lat="44.76252311304987" lon="9.593077821210038"><ele>456.0</ele><time>2026-05-03T08:20:16Z</time></trkpt><trkpt lat="44.762397423696356" lon="9.59306075896736"><ele>455.5</ele><time>2026-05-03T08:20:17Z</time></trkpt><trkpt lat="44.762287811069804" lon="9.593032715327096"><ele>455.0</ele><time>2026-05-03T08:20:18Z</time></trkpt><trkpt lat="44.76220397160233" lon="9.592977629528653"><ele>454.5</ele><time>2026-05-03T08:20:19Z</time></trkpt><trkpt lat="44.76215781650189" lon="9.592899205411907"><ele>454.0</ele><time>2026-05-03T08:20:20Z</time></trkpt><trkpt lat="44.76214890855685" lon="9.592810595877568"><ele>453.5</ele><time>2026-05-03T08:20:21Z</time></trkpt><trkpt lat="44.76217511638279" lon="9.592715560068543"><ele>453.0</ele><time>2026-05-03T08:20:22Z</time></trkpt><trkpt lat="44.76225354122956" lon="9.592633048133495"><ele>456.5</ele><time>2026-05-03T08:20:23Z</time></trkpt><trkpt lat="44.76235042174003" lon="9.592561048704571"><ele>460.0</ele><time>2026-05-03T08:20:24Z</time></trkpt><trkpt lat="44.762463539578384" lon="9.592488579825856"><ele>463.5</ele><time>2026-05-03T08:20:25Z</time></trkpt><trkpt lat="44.76256077379699" lon="9.59241770834235"><ele>467.0</ele><time>2026-05-03T08:20:26Z</time></trkpt><trkpt lat="44.762661431106096" lon="9.592349263679273"><ele>466.66666666666663</ele><time>2026-05-03T08:20:27Z</time></trkpt><trkpt lat="44.762751437991994" lon="9.592279907924238"><ele>466.3333333333333</ele><time>2026-05-03T08:20:28Z</time></trkpt><trkpt lat="44.76281819740287" lon="9.592200469141593"><ele>466.0</ele><time>2026-05-03T08:20:29Z</time></trkpt><trkpt lat="44.762858500166494" lon="9.592106483347415"><ele>465.66666666666663</ele><time>2026-05-03T08:20:30Z</time></trkpt><trkpt lat="44.76288502395741" lon="9.592003540365637"><ele>465.3333333333333</ele><time>2026-05-03T08:20:32Z</time></trkpt><trkpt lat="44.76297019643768" lon="9.592013218610807"><ele>465.0</ele><time>2026-05-03T08:20:35Z</time></trkpt><trkpt lat="44.76305992388352" lon="9.592013454800714"><ele>465.0</ele><time>2026-05-03T08:20:36.999Z</time></trkpt><trkpt lat="44.76312269616322" lon="9.591996054346358"><ele>465.0</ele><time>2026-05-03T08:20:40.999Z</time></trkpt><trkpt lat="44.763193193422765" lon="9.592005819006237"><ele>465.0</ele><time>2026-05-03T08:20:47.999Z</time></trkpt><trkpt lat="44.76326199965129" lon="9.59200758261632"><ele>465.0</ele><time>2026-05-03T08:20:48.999Z</time></trkpt><trkpt lat="44.7633425510559" lon="9.59205265746466"><ele>465.0</ele><time>2026-05-03T08:20:49.999Z</time></trkpt><trkpt lat="44.76341727241226" lon="9.59210782658604"><ele>465.0</ele><time>2026-05-03T08:20:50.999Z</time></trkpt><trkpt lat="44.763481902372156" lon="9.592178599953629"><ele>466.1428571428571</ele><time>2026-05-03T08:20:51.999Z</time></trkpt><trkpt lat="44.76354747458878" lon="9.592227454766485"><ele>467.28571428571433</ele><time>2026-05-03T08:20:52.999Z</time></trkpt><trkpt lat="44.76360994095813" lon="9.592265460421034"><ele>468.42857142857144</ele><time>2026-05-03T08:20:53.999Z</time></trkpt><trkpt lat="44.763674397350194" lon="9.592262638224359"><ele>469.57142857142856</ele><time>2026-05-03T08:20:54.999Z</time></trkpt><trkpt lat="44.76375072595812" lon="9.592228878999883"><ele>470.71428571428567</ele><time>2026-05-03T08:20:55.999Z</time></trkpt><trkpt lat="44.7638195033696" lon="9.59217637859837"><ele>471.8571428571429</ele><time>2026-05-03T08:20:56.999Z</time></trkpt><trkpt lat="44.76387957621047" lon="9.59209810463528"><ele>473.0</ele><time>2026-05-03T08:20:57.999Z</time></trkpt><trkpt lat="44.763951317694755" lon="9.592010255159687"><ele>474.8333333333333</ele><time>2026-05-03T08:20:58.999Z</time></trkpt><trkpt lat="44.76402143191612" lon="9.591929610041134"><ele>476.66666666666663</ele><time>2026-05-03T08:20:59.999Z</time></trkpt><trkpt lat="44.764094388510195" lon="9.591900472176965"><ele>478.5</ele><time>2026-05-03T08:21:00.999Z</time></trkpt><trkpt lat="44.764177722373574" lon="9.59190086664833"><ele>480.33333333333337</ele><time>2026-05-03T08:21:01.999Z</time></trkpt><trkpt lat="44.76426189317991" lon="9.59189642753688"><ele>482.1666666666667</ele><time>2026-05-03T08:21:02.999Z</time></trkpt><trkpt lat="44.76433774903307" lon="9.591879841162937"><ele>484.0</ele><time>2026-05-03T08:21:03.999Z</time></trkpt><trkpt lat="44.76440998124675" lon="9.59186818407325"><ele>487.4</ele><time>2026-05-03T08:21:04.999Z</time></trkpt><trkpt lat="44.76447063386072" lon="9.59189346092438"><ele>490.79999999999995</ele><time>2026-05-03T08:21:05.999Z</time></trkpt><trkpt lat="44.764563369901474" lon="9.591948968011724"><ele>494.20000000000005</ele><time>2026-05-03T08:21:06.999Z</time></trkpt><trkpt lat="44.76462225855618" lon="9.59202912643613"><ele>497.6</ele><time>2026-05-03T08:21:07.999Z</time></trkpt><trkpt lat="44.76468736068109" lon="9.592147157095019"><ele>501.0</ele><time>2026-05-03T08:21:08.999Z</time></trkpt><trkpt lat="44.76475042982657" lon="9.592282687615961"><ele>501.0</ele><time>2026-05-03T08:21:09.999Z</time></trkpt><trkpt lat="44.76481401440769" lon="9.592393643788416"><ele>501.0</ele><time>2026-05-03T08:21:10.999Z</time></trkpt><trkpt lat="44.764870454920505" lon="9.592496541708938"><ele>501.0</ele><time>2026-05-03T08:21:11.999Z</time></trkpt><trkpt lat="44.764903043091124" lon="9.59263167070093"><ele>501.0</ele><time>2026-05-03T08:21:12.999Z</time></trkpt><trkpt lat="44.764929345566046" lon="9.59275887950643"><ele>501.0</ele><time>2026-05-03T08:21:13.999Z</time></trkpt><trkpt lat="44.76495668601799" lon="9.592887250586315"><ele>499.6</ele><time>2026-05-03T08:21:14.999Z</time></trkpt><trkpt lat="44.76498245046093" lon="9.593018753436244"><ele>498.20000000000005</ele><time>2026-05-03T08:21:15.999Z</time></trkpt><trkpt lat="44.76501350618528" lon="9.593157332285529"><ele>496.79999999999995</ele><time>2026-05-03T08:21:16.999Z</time></trkpt><trkpt lat="44.76504211112877" lon="9.59329371508918"><ele>495.4</ele><time>2026-05-03T08:21:17.999Z</time></trkpt><trkpt lat="44.76507055207098" lon="9.593430821052111"><ele>494.0</ele><time>2026-05-03T08:21:18.999Z</time></trkpt><trkpt lat="44.76510453795087" lon="9.593571800734688"><ele>492.4</ele><time>2026-05-03T08:21:19.999Z</time></trkpt><trkpt lat="44.765154265309526" lon="9.593697847102902"><ele>490.79999999999995</ele><time>2026-05-03T08:21:20.999Z</time></trkpt><trkpt lat="44.76520620043247" lon="9.593824247444564"><ele>489.20000000000005</ele><time>2026-05-03T08:21:21.999Z</time></trkpt><trkpt lat="44.76526244976487" lon="9.593958342971934"><ele>487.6</ele><time>2026-05-03T08:21:22.999Z</time></trkpt><trkpt lat="44.76531180132994" lon="9.594082478609652"><ele>486.0</ele><time>2026-05-03T08:21:24.001Z</time></trkpt><trkpt lat="44.76535385741108" lon="9.594192635980583"><ele>490.0</ele><time>2026-05-03T08:21:25.001Z</time></trkpt><trkpt lat="44.76540597198182" lon="9.59429091640284"><ele>494.0</ele><time>2026-05-03T08:21:26.001Z</time></trkpt><trkpt lat="44.76545985047976" lon="9.594351674683786"><ele>498.0</ele><time>2026-05-03T08:21:27.001Z</time></trkpt><trkpt lat="44.765551777159786" lon="9.594406953689939"><ele>502.0</ele><time>2026-05-03T08:21:29Z</time></trkpt><trkpt lat="44.76565861448128" lon="9.594475120106297"><ele>506.0</ele><time>2026-05-03T08:21:31Z</time></trkpt><trkpt lat="44.76572365125597" lon="9.594535717601103"><ele>505.99999999999994</ele><time>2026-05-03T08:21:32Z</time></trkpt><trkpt lat="44.76577793865811" lon="9.594627280609709"><ele>506.0</ele><time>2026-05-03T08:21:33Z</time></trkpt><trkpt lat="44.76582970396892" lon="9.594739864890172"><ele>506.0</ele><time>2026-05-03T08:21:34Z</time></trkpt><trkpt lat="44.76587510754807" lon="9.594828621620907"><ele>506.0</ele><time>2026-05-03T08:21:35Z</time></trkpt><trkpt lat="44.76592889372798" lon="9.594916158427802"><ele>505.99999999999994</ele><time>2026-05-03T08:21:36Z</time></trkpt><trkpt lat="44.76600304758464" lon="9.594988439501625"><ele>506.0</ele><time>2026-05-03T08:21:37Z</time></trkpt><trkpt lat="44.76608620574923" lon="9.595033953066652"><ele>510.3333333333333</ele><time>2026-05-03T08:21:38Z</time></trkpt><trkpt lat="44.76617464821754" lon="9.595062594750559"><ele>514.6666666666666</ele><time>2026-05-03T08:21:39Z</time></trkpt><trkpt lat="44.7662828800868" lon="9.595088590418023"><ele>519.0</ele><time>2026-05-03T08:21:40Z</time></trkpt><trkpt lat="44.76636774118333" lon="9.595113161448214"><ele>523.3333333333334</ele><time>2026-05-03T08:21:41Z</time></trkpt><trkpt lat="44.766446426315454" lon="9.595149786481525"><ele>527.6666666666667</ele><time>2026-05-03T08:21:42Z</time></trkpt><trkpt lat="44.766518490349426" lon="9.59518531165793"><ele>532.0</ele><time>2026-05-03T08:21:43Z</time></trkpt><trkpt lat="44.76657405042838" lon="9.595262842660725"><ele>529.0</ele><time>2026-05-03T08:21:44Z</time></trkpt><trkpt lat="44.76664781319517" lon="9.595360526310607"><ele>526.0</ele><time>2026-05-03T08:21:45Z</time></trkpt><trkpt lat="44.76672147269092" lon="9.595443584307588"><ele>523.0</ele><time>2026-05-03T08:21:46Z</time></trkpt><trkpt lat="44.76683030183972" lon="9.595469947248588"><ele>520.0</ele><time>2026-05-03T08:21:48Z</time></trkpt><trkpt lat="44.76690963421163" lon="9.595459080254189"><ele>517.0</ele><time>2026-05-03T08:21:49Z</time></trkpt><trkpt lat="44.76698899115314" lon="9.59542824289315"><ele>517.0</ele><time>2026-05-03T08:21:50Z</time></trkpt><trkpt lat="44.76706254997734" lon="9.595358500325494"><ele>517.0</ele><time>2026-05-03T08:21:51Z</time></trkpt><trkpt lat="44.76711980251177" lon="9.595233126412179"><ele>517.0</ele><time>2026-05-03T08:21:52Z</time></trkpt><trkpt lat="44.767174278042035" lon="9.595090245192434"><ele>517.0</ele><time>2026-05-03T08:21:53Z</time></trkpt><trkpt lat="44.767225245082265" lon="9.594959297822607"><ele>517.0</ele><time>2026-05-03T08:21:54Z</time></trkpt><trkpt lat="44.76723658746447" lon="9.594860307828318"><ele>521.5</ele><time>2026-05-03T08:21:55Z</time></trkpt><trkpt lat="44.7672178141648" lon="9.594738376932776"><ele>526.0</ele><time>2026-05-03T08:21:56Z</time></trkpt><trkpt lat="44.76717563436073" lon="9.59457241119706"><ele>530.5</ele><time>2026-05-03T08:21:57Z</time></trkpt><trkpt lat="44.7671403686467" lon="9.594390243619806"><ele>535.0</ele><time>2026-05-03T08:21:58Z</time></trkpt><trkpt lat="44.76713087737584" lon="9.594223005744979"><ele>536.8333333333334</ele><time>2026-05-03T08:21:59Z</time></trkpt><trkpt lat="44.76712468310766" lon="9.594088131940941"><ele>538.6666666666667</ele><time>2026-05-03T08:22:00Z</time></trkpt><trkpt lat="44.76714456726181" lon="9.593968134306333"><ele>540.5</ele><time>2026-05-03T08:22:01Z</time></trkpt><trkpt lat="44.76717694592023" lon="9.593871249796194"><ele>542.3333333333334</ele><time>2026-05-03T08:22:02Z</time></trkpt><trkpt lat="44.76721512303727" lon="9.593776443809265"><ele>544.1666666666666</ele><time>2026-05-03T08:22:03Z</time></trkpt><trkpt lat="44.767233850886235" lon="9.593677857274688"><ele>546.0</ele><time>2026-05-03T08:22:04Z</time></trkpt><trkpt lat="44.76725689797129" lon="9.593581311046144"><ele>547.8</ele><time>2026-05-03T08:22:05Z</time></trkpt><trkpt lat="44.767295099362634" lon="9.593453552040058"><ele>549.6</ele><time>2026-05-03T08:22:07Z</time></trkpt><trkpt lat="44.767296329153" lon="9.593347283338725"><ele>551.4</ele><time>2026-05-03T08:22:15Z</time></trkpt><trkpt lat="44.76728160778138" lon="9.593194997651404"><ele>553.2</ele><time>2026-05-03T08:22:17Z</time></trkpt><trkpt lat="44.76723554032832" lon="9.593063975200442"><ele>555.0</ele><time>2026-05-03T08:22:19Z</time></trkpt><trkpt lat="44.76716533402241" lon="9.592916768999737"><ele>557.0</ele><time>2026-05-03T08:22:21Z</time></trkpt><trkpt lat="44.76714897572799" lon="9.592819527846657"><ele>559.0</ele><time>2026-05-03T08:22:22Z</time></trkpt><trkpt lat="44.767056352737896" lon="9.592712482276047"><ele>561.0</ele><time>2026-05-03T08:22:24Z</time></trkpt><trkpt lat="44.767003700839766" lon="9.59259884973128"><ele>563.0</ele><time>2026-05-03T08:22:25Z</time></trkpt><trkpt lat="44.76697557047143" lon="9.592479961213622"><ele>565.0</ele><time>2026-05-03T08:22:26Z</time></trkpt><trkpt lat="44.76696776731258" lon="9.592391720923876"><ele>567.0</ele><time>2026-05-03T08:22:27Z</time></trkpt><trkpt lat="44.76697857236013" lon="9.59223782757423"><ele>567.0</ele><time>2026-05-03T08:22:28Z</time></trkpt><trkpt lat="44.766967600527366" lon="9.592097301527938"><ele>567.0</ele><time>2026-05-03T08:22:29Z</time></trkpt><trkpt lat="44.76695489206495" lon="9.591962648879962"><ele>567.0</ele><time>2026-05-03T08:22:30Z</time></trkpt><trkpt lat="44.76688363697119" lon="9.591799456689166"><ele>567.0</ele><time>2026-05-03T08:22:32Z</time></trkpt><trkpt lat="44.76680023507155" lon="9.591707119909081"><ele>567.0</ele><time>2026-05-03T08:22:34Z</time></trkpt><trkpt lat="44.766766531526024" lon="9.59159958476237"><ele>569.2</ele><time>2026-05-03T08:22:35Z</time></trkpt><trkpt lat="44.76671362972025" lon="9.591484443428609"><ele>571.4000000000001</ele><time>2026-05-03T08:22:36Z</time></trkpt><trkpt lat="44.76665125758406" lon="9.591422316382545"><ele>573.5999999999999</ele><time>2026-05-03T08:22:37Z</time></trkpt><trkpt lat="44.76657702596673" lon="9.591281209901085"><ele>575.8</ele><time>2026-05-03T08:22:39Z</time></trkpt><trkpt lat="44.766505653413724" lon="9.591197804039277"><ele>578.0</ele><time>2026-05-03T08:22:39.999Z</time></trkpt><trkpt lat="44.76643825881729" lon="9.591057927277005"><ele>580.5</ele><time>2026-05-03T08:22:41.999Z</time></trkpt><trkpt lat="44.766433744923546" lon="9.590866597803634"><ele>583.0</ele><time>2026-05-03T08:22:43.999Z</time></trkpt><trkpt lat="44.76640472862659" lon="9.590713220106052"><ele>585.5</ele><time>2026-05-03T08:22:45.999Z</time></trkpt><trkpt lat="44.76636991664149" lon="9.59050489050457"><ele>588.0</ele><time>2026-05-03T08:22:47.999Z</time></trkpt><trkpt lat="44.766363467016696" lon="9.590392400404392"><ele>588.6666666666666</ele><time>2026-05-03T08:22:48.999Z</time></trkpt><trkpt lat="44.76635132494946" lon="9.590279909304162"><ele>589.3333333333334</ele><time>2026-05-03T08:22:49.999Z</time></trkpt><trkpt lat="44.76631627951035" lon="9.590197708485922"><ele>590.0</ele><time>2026-05-03T08:22:50.999Z</time></trkpt><trkpt lat="44.766268276871536" lon="9.590102552991372"><ele>590.6666666666667</ele><time>2026-05-03T08:22:51.999Z</time></trkpt><trkpt lat="44.76621961791335" lon="9.589965979132302"><ele>591.3333333333334</ele><time>2026-05-03T08:22:52.999Z</time></trkpt><trkpt lat="44.76616063129307" lon="9.589867457152135"><ele>592.0</ele><time>2026-05-03T08:22:53.999Z</time></trkpt><trkpt lat="44.76612571733982" lon="9.589778667543797"><ele>592.0</ele><time>2026-05-03T08:22:54.999Z</time></trkpt><trkpt lat="44.76610434093553" lon="9.589645269183045"><ele>592.0</ele><time>2026-05-03T08:22:55.999Z</time></trkpt><trkpt lat="44.7660754224592" lon="9.589540257359163"><ele>592.0</ele><time>2026-05-03T08:22:56.999Z</time></trkpt><trkpt lat="44.766062620098154" lon="9.589433623854989"><ele>592.0</ele><time>2026-05-03T08:22:57.999Z</time></trkpt><trkpt lat="44.766061484361174" lon="9.589331363667991"><ele>592.0</ele><time>2026-05-03T08:22:58.999Z</time></trkpt><trkpt lat="44.76604602882448" lon="9.589167929177279"><ele>592.0</ele><time>2026-05-03T08:23:00.999Z</time></trkpt><trkpt lat="44.76599780387947" lon="9.589017610632075"><ele>592.1666666666667</ele><time>2026-05-03T08:23:02.999Z</time></trkpt><trkpt lat="44.76597711003756" lon="9.588932276766077"><ele>592.3333333333334</ele><time>2026-05-03T08:23:03.999Z</time></trkpt><trkpt lat="44.76595056894079" lon="9.588811650654092"><ele>592.5</ele><time>2026-05-03T08:23:05.999Z</time></trkpt><trkpt lat="44.76586562713197" lon="9.588795549296677"><ele>592.6666666666666</ele><time>2026-05-03T08:23:10.999Z</time></trkpt><trkpt lat="44.76578963492271" lon="9.58878565042352"><ele>592.8333333333333</ele><time>2026-05-03T08:23:11.999Z</time></trkpt><trkpt lat="44.76575148346158" lon="9.58867539762409"><ele>593.0</ele><time>2026-05-03T08:23:13.999Z</time></trkpt><trkpt lat="44.76572093536039" lon="9.588547326041052"><ele>595.5</ele><time>2026-05-03T08:23:15.999Z</time></trkpt><trkpt lat="44.765721505737126" lon="9.588423304075338"><ele>598.0</ele><time>2026-05-03T08:23:17.999Z</time></trkpt><trkpt lat="44.765799249914025" lon="9.58829155366045"><ele>600.5</ele><time>2026-05-03T08:23:19.999Z</time></trkpt><trkpt lat="44.765827508016336" lon="9.588209008564888"><ele>603.0</ele><time>2026-05-03T08:23:20.999Z</time></trkpt><trkpt lat="44.76583264233811" lon="9.58811865245408"><ele>605.5</ele><time>2026-05-03T08:23:21.999Z</time></trkpt><trkpt lat="44.76581983352092" lon="9.587968382607263"><ele>608.0</ele><time>2026-05-03T08:23:23.999Z</time></trkpt><trkpt lat="44.7658047901272" lon="9.587833503150534"><ele>610.8</ele><time>2026-05-03T08:23:25.999Z</time></trkpt><trkpt lat="44.76580095301715" lon="9.587735131374572"><ele>613.5999999999999</ele><time>2026-05-03T08:23:27.999Z</time></trkpt><trkpt lat="44.76585850509303" lon="9.587583381831852"><ele>616.4000000000001</ele><time>2026-05-03T08:23:30Z</time></trkpt><trkpt lat="44.76590287305379" lon="9.58745348734321"><ele>619.2</ele><time>2026-05-03T08:23:31Z</time></trkpt><trkpt lat="44.7659372030484" lon="9.587342699340422"><ele>622.0</ele><time>2026-05-03T08:23:32Z</time></trkpt><trkpt lat="44.7659519930639" lon="9.587213070486621"><ele>622.0</ele><time>2026-05-03T08:23:34Z</time></trkpt><trkpt lat="44.76595628322788" lon="9.587106847482687"><ele>622.0</ele><time>2026-05-03T08:23:36Z</time></trkpt><trkpt lat="44.766000547923234" lon="9.586934868056321"><ele>622.0</ele><time>2026-05-03T08:23:38Z</time></trkpt><trkpt lat="44.76603966256424" lon="9.586833301772794"><ele>622.0</ele><time>2026-05-03T08:23:39Z</time></trkpt><trkpt lat="44.766053834486264" lon="9.586692448246515"><ele>622.0</ele><time>2026-05-03T08:23:41Z</time></trkpt><trkpt lat="44.76611926001212" lon="9.58668045461828"><ele>629.0</ele><time>2026-05-03T08:23:43Z</time></trkpt><trkpt lat="44.7661923669073" lon="9.586588449952721"><ele>636.0</ele><time>2026-05-03T08:23:46Z</time></trkpt><trkpt lat="44.76653127077365" lon="9.586357316796798"><ele>636.0</ele><time>2026-05-03T08:23:48Z</time></trkpt><trkpt lat="44.766596590449474" lon="9.58632549797548"><ele>636.0</ele><time>2026-05-03T08:23:49Z</time></trkpt><trkpt lat="44.76666477688276" lon="9.586299668004687"><ele>636.0</ele><time>2026-05-03T08:23:50Z</time></trkpt><trkpt lat="44.76677001821797" lon="9.586259920367896"><ele>636.0</ele><time>2026-05-03T08:23:52Z</time></trkpt><trkpt lat="44.76682434232467" lon="9.586198996659942"><ele>636.0</ele><time>2026-05-03T08:23:53Z</time></trkpt><trkpt lat="44.76689268053486" lon="9.586153121034107"><ele>636.0</ele><time>2026-05-03T08:23:54Z</time></trkpt><trkpt lat="44.766932349529625" lon="9.586250625363375"><ele>637.6</ele><time>2026-05-03T08:23:56Z</time></trkpt><trkpt lat="44.76698546164" lon="9.586325752602697"><ele>639.2</ele><time>2026-05-03T08:23:58Z</time></trkpt><trkpt lat="44.76702825280902" lon="9.586396027384406"><ele>640.8000000000001</ele><time>2026-05-03T08:24:22Z</time></trkpt><trkpt lat="44.76711937988667" lon="9.586466084023348"><ele>642.4000000000001</ele><time>2026-05-03T08:24:24Z</time></trkpt><trkpt lat="44.767227052502996" lon="9.586559884034079"><ele>644.0</ele><time>2026-05-03T08:24:26Z</time></trkpt><trkpt lat="44.76730392659167" lon="9.586596455937876"><ele>644.0</ele><time>2026-05-03T08:24:27Z</time></trkpt><trkpt lat="44.76740648811738" lon="9.58664703424795"><ele>644.0</ele><time>2026-05-03T08:24:28Z</time></trkpt><trkpt lat="44.7674961858817" lon="9.586721096255012"><ele>644.0</ele><time>2026-05-03T08:24:29Z</time></trkpt><trkpt lat="44.767586617762035" lon="9.586777645950274"><ele>644.0</ele><time>2026-05-03T08:24:30Z</time></trkpt><trkpt lat="44.76765212582217" lon="9.586803153821096"><ele>644.0</ele><time>2026-05-03T08:24:31Z</time></trkpt><trkpt lat="44.76771320263055" lon="9.586850315421048"><ele>644.0</ele><time>2026-05-03T08:24:31.999Z</time></trkpt><trkpt lat="44.76775383309815" lon="9.586950593738196"><ele>643.4000000000001</ele><time>2026-05-03T08:24:32.999Z</time></trkpt><trkpt lat="44.767812899731126" lon="9.58701519039224"><ele>642.8</ele><time>2026-05-03T08:24:33.999Z</time></trkpt><trkpt lat="44.767882261632316" lon="9.587077320676483"><ele>642.2</ele><time>2026-05-03T08:24:34.999Z</time></trkpt><trkpt lat="44.767967248394825" lon="9.587130171023329"><ele>641.5999999999999</ele><time>2026-05-03T08:24:35.999Z</time></trkpt><trkpt lat="44.76805016660741" lon="9.587196134607174"><ele>641.0</ele><time>2026-05-03T08:24:36.999Z</time></trkpt><trkpt lat="44.76813819218804" lon="9.58729683521341"><ele>641.0</ele><time>2026-05-03T08:24:37.999Z</time></trkpt><trkpt lat="44.76820306585097" lon="9.587362416180351"><ele>641.0</ele><time>2026-05-03T08:24:38.999Z</time></trkpt><trkpt lat="44.76825956029925" lon="9.587403695265884"><ele>641.0</ele><time>2026-05-03T08:24:39.999Z</time></trkpt><trkpt lat="44.76832922541908" lon="9.58740732021568"><ele>641.0</ele><time>2026-05-03T08:24:41.999Z</time></trkpt><trkpt lat="44.76830622329179" lon="9.58731065916467"><ele>641.0</ele><time>2026-05-03T08:24:45.999Z</time></trkpt><trkpt lat="44.76823018900116" lon="9.587184990650064"><ele>641.0</ele><time>2026-05-03T08:24:47.999Z</time></trkpt><trkpt lat="44.76817992712457" lon="9.587103970941614"><ele>641.0</ele><time>2026-05-03T08:24:48.999Z</time></trkpt><trkpt lat="44.768144098616666" lon="9.587028764112977"><ele>641.0</ele><time>2026-05-03T08:24:49.999Z</time></trkpt><trkpt lat="44.7681199989973" lon="9.586938817665224"><ele>641.0</ele><time>2026-05-03T08:24:50.999Z</time></trkpt><trkpt lat="44.76813170840034" lon="9.586791793358037"><ele>641.0</ele><time>2026-05-03T08:24:52.999Z</time></trkpt><trkpt lat="44.768162765085485" lon="9.58670524883385"><ele>641.0</ele><time>2026-05-03T08:24:53.999Z</time></trkpt><trkpt lat="44.768196589152815" lon="9.586621185028925"><ele>641.0</ele><time>2026-05-03T08:24:54.999Z</time></trkpt><trkpt lat="44.768232430772024" lon="9.586496513157892"><ele>643.1999999999999</ele><time>2026-05-03T08:24:56.999Z</time></trkpt><trkpt lat="44.76824603327105" lon="9.586349004036181"><ele>645.4</ele><time>2026-05-03T08:24:58.999Z</time></trkpt><trkpt lat="44.768258723399185" lon="9.586216498327818"><ele>647.6</ele><time>2026-05-03T08:24:59.999Z</time></trkpt><trkpt lat="44.768291568152726" lon="9.586074380662106"><ele>649.8</ele><time>2026-05-03T08:25:00.999Z</time></trkpt><trkpt lat="44.76830080052829" lon="9.585982010419292"><ele>652.0</ele><time>2026-05-03T08:25:01.999Z</time></trkpt><trkpt lat="44.768289429926384" lon="9.585833500249212"><ele>653.1666666666667</ele><time>2026-05-03T08:25:18.999Z</time></trkpt><trkpt lat="44.76829424906997" lon="9.585708213410305"><ele>654.3333333333334</ele><time>2026-05-03T08:25:19.999Z</time></trkpt><trkpt lat="44.768301530492245" lon="9.585591745059318"><ele>655.5</ele><time>2026-05-03T08:25:20.999Z</time></trkpt><trkpt lat="44.768339892045326" lon="9.5854753703321"><ele>656.6666666666666</ele><time>2026-05-03T08:25:21.999Z</time></trkpt><trkpt lat="44.7683583028047" lon="9.58532825912684"><ele>657.8333333333333</ele><time>2026-05-03T08:25:22.999Z</time></trkpt><trkpt lat="44.768366564299725" lon="9.585229954259729"><ele>659.0</ele><time>2026-05-03T08:25:23.999Z</time></trkpt><trkpt lat="44.768364389394904" lon="9.58512001070439"><ele>659.6666666666666</ele><time>2026-05-03T08:25:24.999Z</time></trkpt><trkpt lat="44.76837821274413" lon="9.585017619414264"><ele>660.3333333333333</ele><time>2026-05-03T08:25:25.999Z</time></trkpt><trkpt lat="44.76840836894995" lon="9.58490636379937"><ele>661.0</ele><time>2026-05-03T08:25:26.999Z</time></trkpt><trkpt lat="44.768455624903766" lon="9.58480184902816"><ele>661.6666666666666</ele><time>2026-05-03T08:25:27.999Z</time></trkpt><trkpt lat="44.76847907509881" lon="9.584700682661383"><ele>662.3333333333334</ele><time>2026-05-03T08:25:28.999Z</time></trkpt><trkpt lat="44.7685296267456" lon="9.584537395477907"><ele>663.0</ele><time>2026-05-03T08:25:29.999Z</time></trkpt><trkpt lat="44.76855027096519" lon="9.58441333370095"><ele>663.0</ele><time>2026-05-03T08:25:30.999Z</time></trkpt><trkpt lat="44.768578236499486" lon="9.584301832699087"><ele>663.0</ele><time>2026-05-03T08:25:31.999Z</time></trkpt><trkpt lat="44.76864717661336" lon="9.584187878103567"><ele>663.0</ele><time>2026-05-03T08:25:32.999Z</time></trkpt><trkpt lat="44.76868939441385" lon="9.584092930595835"><ele>663.0</ele><time>2026-05-03T08:25:33.999Z</time></trkpt><trkpt lat="44.76874493538921" lon="9.583992608771627"><ele>663.0</ele><time>2026-05-03T08:25:34.999Z</time></trkpt><trkpt lat="44.768779423425556" lon="9.583898186918436"><ele>663.0</ele><time>2026-05-03T08:25:36Z</time></trkpt><trkpt lat="44.768833162681794" lon="9.583792217367073"><ele>663.0</ele><time>2026-05-03T08:25:37Z</time></trkpt><trkpt lat="44.76889221337829" lon="9.583689773391702"><ele>663.0</ele><time>2026-05-03T08:25:38Z</time></trkpt><trkpt lat="44.76893413194798" lon="9.583541497430854"><ele>663.0</ele><time>2026-05-03T08:25:39Z</time></trkpt><trkpt lat="44.76896500615348" lon="9.583415401208278"><ele>663.0</ele><time>2026-05-03T08:25:40Z</time></trkpt><trkpt lat="44.76898396508865" lon="9.583282178808968"><ele>663.0</ele><time>2026-05-03T08:25:42Z</time></trkpt><trkpt lat="44.76889502544186" lon="9.58321744313578"><ele>663.0</ele><time>2026-05-03T08:25:44Z</time></trkpt><trkpt lat="44.768834348047044" lon="9.583274713718396"><ele>663.0</ele><time>2026-05-03T08:25:46Z</time></trkpt><trkpt lat="44.76879969820244" lon="9.58335809411638"><ele>663.0</ele><time>2026-05-03T08:25:47Z</time></trkpt><trkpt lat="44.76875880163674" lon="9.583457216842032"><ele>663.0</ele><time>2026-05-03T08:25:48Z</time></trkpt><trkpt lat="44.768739884372984" lon="9.583628986653968"><ele>663.0</ele><time>2026-05-03T08:25:50Z</time></trkpt><trkpt lat="44.768672491734435" lon="9.583740207667988"><ele>663.0</ele><time>2026-05-03T08:25:51Z</time></trkpt><trkpt lat="44.76860978294742" lon="9.58381660501888"><ele>663.0</ele><time>2026-05-03T08:25:52Z</time></trkpt><trkpt lat="44.76854935116322" lon="9.58388415895337"><ele>663.0</ele><time>2026-05-03T08:25:53Z</time></trkpt><trkpt lat="44.76848931977728" lon="9.583975174936764"><ele>663.0</ele><time>2026-05-03T08:25:54Z</time></trkpt><trkpt lat="44.76843353853789" lon="9.584063995582081"><ele>663.0</ele><time>2026-05-03T08:25:55Z</time></trkpt><trkpt lat="44.768372653524075" lon="9.58415656327573"><ele>663.0</ele><time>2026-05-03T08:25:56Z</time></trkpt><trkpt lat="44.76832667193203" lon="9.584231156991537"><ele>667.8333333333334</ele><time>2026-05-03T08:25:57Z</time></trkpt><trkpt lat="44.76824749900209" lon="9.584304761087397"><ele>672.6666666666666</ele><time>2026-05-03T08:25:59Z</time></trkpt><trkpt lat="44.76816505724032" lon="9.58430190052963"><ele>677.5</ele><time>2026-05-03T08:26:01Z</time></trkpt><trkpt lat="44.76813838877584" lon="9.584127946377246"><ele>682.3333333333333</ele><time>2026-05-03T08:26:03Z</time></trkpt><trkpt lat="44.76815389504605" lon="9.584027563361918"><ele>687.1666666666666</ele><time>2026-05-03T08:26:04Z</time></trkpt><trkpt lat="44.76815153730931" lon="9.583932030486439"><ele>692.0</ele><time>2026-05-03T08:26:05Z</time></trkpt><trkpt lat="44.76813750401611" lon="9.583814983159565"><ele>692.0</ele><time>2026-05-03T08:26:06Z</time></trkpt><trkpt lat="44.768130558151576" lon="9.583702063608786"><ele>692.0</ele><time>2026-05-03T08:26:07Z</time></trkpt><trkpt lat="44.7681201264503" lon="9.583591668571517"><ele>692.0</ele><time>2026-05-03T08:26:08Z</time></trkpt><trkpt lat="44.76809223988079" lon="9.583479387786282"><ele>692.0</ele><time>2026-05-03T08:26:09Z</time></trkpt><trkpt lat="44.76806847668115" lon="9.583354912317239"><ele>692.0</ele><time>2026-05-03T08:26:10Z</time></trkpt><trkpt lat="44.76808792519608" lon="9.583261081228542"><ele>692.0</ele><time>2026-05-03T08:26:11Z</time></trkpt><trkpt lat="44.76807445257247" lon="9.58310266087669"><ele>694.1666666666666</ele><time>2026-05-03T08:26:13Z</time></trkpt><trkpt lat="44.768026346156034" lon="9.582992348057598"><ele>696.3333333333333</ele><time>2026-05-03T08:26:14Z</time></trkpt><trkpt lat="44.76801985997039" lon="9.582866507137298"><ele>698.5</ele><time>2026-05-03T08:26:15Z</time></trkpt><trkpt lat="44.76802752267966" lon="9.582768761518869"><ele>700.6666666666666</ele><time>2026-05-03T08:26:16Z</time></trkpt><trkpt lat="44.768006835020486" lon="9.582682907650632"><ele>702.8333333333334</ele><time>2026-05-03T08:26:17Z</time></trkpt><trkpt lat="44.76799415724118" lon="9.582527903577533"><ele>705.0</ele><time>2026-05-03T08:26:19Z</time></trkpt><trkpt lat="44.76799654922244" lon="9.58240772918205"><ele>707.25</ele><time>2026-05-03T08:26:20Z</time></trkpt><trkpt lat="44.76792186757967" lon="9.582268434702362"><ele>709.5</ele><time>2026-05-03T08:26:22Z</time></trkpt><trkpt lat="44.76783593578077" lon="9.582158741302166"><ele>711.75</ele><time>2026-05-03T08:26:23Z</time></trkpt><trkpt lat="44.76774281886479" lon="9.582040669412887"><ele>714.0</ele><time>2026-05-03T08:26:24Z</time></trkpt><trkpt lat="44.76768041487548" lon="9.581955290502068"><ele>716.1666666666666</ele><time>2026-05-03T08:26:25Z</time></trkpt><trkpt lat="44.76758116979596" lon="9.581927693416146"><ele>718.3333333333334</ele><time>2026-05-03T08:26:27Z</time></trkpt><trkpt lat="44.76753000013275" lon="9.581862186522047"><ele>720.5</ele><time>2026-05-03T08:26:49.999Z</time></trkpt><trkpt lat="44.76744057683132" lon="9.581910510756698"><ele>722.6666666666667</ele><time>2026-05-03T08:26:52.999Z</time></trkpt><trkpt lat="44.76736268401056" lon="9.581946083309985"><ele>724.8333333333334</ele><time>2026-05-03T08:26:53.999Z</time></trkpt><trkpt lat="44.767283810528696" lon="9.581934654002783"><ele>727.0</ele><time>2026-05-03T08:26:54.999Z</time></trkpt><trkpt lat="44.76721495211548" lon="9.581908462341373"><ele>727.0</ele><time>2026-05-03T08:26:55.999Z</time></trkpt><trkpt lat="44.767143918161054" lon="9.581904180218164"><ele>727.0</ele><time>2026-05-03T08:26:56.999Z</time></trkpt><trkpt lat="44.7670675791023" lon="9.58188138772407"><ele>727.0</ele><time>2026-05-03T08:26:57.999Z</time></trkpt><trkpt lat="44.766995381184095" lon="9.581847922299874"><ele>727.0</ele><time>2026-05-03T08:26:58.999Z</time></trkpt><trkpt lat="44.766927110591226" lon="9.581881019937313"><ele>727.0</ele><time>2026-05-03T08:26:59.999Z</time></trkpt><trkpt lat="44.766839939506" lon="9.581900821147888"><ele>727.0</ele><time>2026-05-03T08:27:00.999Z</time></trkpt><trkpt lat="44.76671721082665" lon="9.58182279756942"><ele>729.6666666666667</ele><time>2026-05-03T08:27:02.999Z</time></trkpt><trkpt lat="44.766619292354946" lon="9.581714367075547"><ele>732.3333333333334</ele><time>2026-05-03T08:27:04.999Z</time></trkpt><trkpt lat="44.76652929229382" lon="9.581701455732523"><ele>735.0</ele><time>2026-05-03T08:27:05.999Z</time></trkpt><trkpt lat="44.76646774364651" lon="9.581644855393195"><ele>737.6666666666666</ele><time>2026-05-03T08:27:07.999Z</time></trkpt><trkpt lat="44.76645337218744" lon="9.58155408555447"><ele>740.3333333333333</ele><time>2026-05-03T08:27:08.999Z</time></trkpt><trkpt lat="44.76641838679171" lon="9.581438164662545"><ele>743.0</ele><time>2026-05-03T08:27:09.999Z</time></trkpt><trkpt lat="44.766382697669506" lon="9.581330255566394"><ele>743.0</ele><time>2026-05-03T08:27:10.999Z</time></trkpt><trkpt lat="44.766353409688975" lon="9.581227963661338"><ele>743.0</ele><time>2026-05-03T08:27:11.999Z</time></trkpt><trkpt lat="44.76636137816075" lon="9.58111130092044"><ele>743.0</ele><time>2026-05-03T08:27:12.999Z</time></trkpt><trkpt lat="44.76639644262963" lon="9.581013720982094"><ele>743.0</ele><time>2026-05-03T08:27:13.999Z</time></trkpt><trkpt lat="44.76645179735486" lon="9.580935012285124"><ele>743.0</ele><time>2026-05-03T08:27:14.999Z</time></trkpt><trkpt lat="44.76651166197471" lon="9.580835244582511"><ele>743.0</ele><time>2026-05-03T08:27:15.999Z</time></trkpt><trkpt lat="44.766565386123474" lon="9.580722573598635"><ele>742.8</ele><time>2026-05-03T08:27:16.999Z</time></trkpt><trkpt lat="44.7666325907646" lon="9.580648137593618"><ele>742.5999999999999</ele><time>2026-05-03T08:27:17.999Z</time></trkpt><trkpt lat="44.76669313614541" lon="9.580563034366824"><ele>742.4000000000001</ele><time>2026-05-03T08:27:18.999Z</time></trkpt><trkpt lat="44.76670532751128" lon="9.580470372010131"><ele>742.2</ele><time>2026-05-03T08:27:19.999Z</time></trkpt><trkpt lat="44.76669886672438" lon="9.580274609729756"><ele>742.0</ele><time>2026-05-03T08:27:21.999Z</time></trkpt><trkpt lat="44.766668180948784" lon="9.580143891591353"><ele>742.0</ele><time>2026-05-03T08:27:22.999Z</time></trkpt><trkpt lat="44.76663145146975" lon="9.580047775239416"><ele>742.0</ele><time>2026-05-03T08:27:23.999Z</time></trkpt><trkpt lat="44.76659862197722" lon="9.579937319996269"><ele>742.0</ele><time>2026-05-03T08:27:24.999Z</time></trkpt><trkpt lat="44.76657641997726" lon="9.579820977391462"><ele>742.0</ele><time>2026-05-03T08:27:25.999Z</time></trkpt><trkpt lat="44.76658855732892" lon="9.579665830105156"><ele>742.0</ele><time>2026-05-03T08:27:26.999Z</time></trkpt><trkpt lat="44.76661113109122" lon="9.579553970521678"><ele>742.0</ele><time>2026-05-03T08:27:27.999Z</time></trkpt><trkpt lat="44.766647621512206" lon="9.579440890620086"><ele>742.0</ele><time>2026-05-03T08:27:28.999Z</time></trkpt><trkpt lat="44.76668198105949" lon="9.579334779629084"><ele>742.0</ele><time>2026-05-03T08:27:29.999Z</time></trkpt><trkpt lat="44.76673951477225" lon="9.579242802212587"><ele>742.0</ele><time>2026-05-03T08:27:30.999Z</time></trkpt><trkpt lat="44.76681432569081" lon="9.579150856634879"><ele>742.0</ele><time>2026-05-03T08:27:31.999Z</time></trkpt><trkpt lat="44.76687448253474" lon="9.579031686206083"><ele>742.0</ele><time>2026-05-03T08:27:32.999Z</time></trkpt><trkpt lat="44.76692849153797" lon="9.578924599233574"><ele>742.0</ele><time>2026-05-03T08:27:33.999Z</time></trkpt><trkpt lat="44.7669811115196" lon="9.57882081850566"><ele>742.0</ele><time>2026-05-03T08:27:34.999Z</time></trkpt><trkpt lat="44.76701103300376" lon="9.578730970150874"><ele>742.0</ele><time>2026-05-03T08:27:35.999Z</time></trkpt><trkpt lat="44.767057112678536" lon="9.578637619011179"><ele>742.0</ele><time>2026-05-03T08:27:37.999Z</time></trkpt><trkpt lat="44.76710369817716" lon="9.578572870369062"><ele>742.0</ele><time>2026-05-03T08:27:50Z</time></trkpt><trkpt lat="44.7671856976592" lon="9.578450674749163"><ele>742.0</ele><time>2026-05-03T08:27:57Z</time></trkpt><trkpt lat="44.767260559630216" lon="9.57832749902682"><ele>744.8</ele><time>2026-05-03T08:27:59Z</time></trkpt><trkpt lat="44.76727847282337" lon="9.578147188663044"><ele>747.6</ele><time>2026-05-03T08:28:01Z</time></trkpt><trkpt lat="44.76735574159299" lon="9.578056421271764"><ele>750.4</ele><time>2026-05-03T08:28:03Z</time></trkpt><trkpt lat="44.767443037737316" lon="9.577960770942733"><ele>753.1999999999999</ele><time>2026-05-03T08:28:05Z</time></trkpt><trkpt lat="44.76750416201916" lon="9.577842271884837"><ele>756.0</ele><time>2026-05-03T08:28:07Z</time></trkpt><trkpt lat="44.76752724795798" lon="9.577735716196106"><ele>756.6666666666666</ele><time>2026-05-03T08:28:08Z</time></trkpt><trkpt lat="44.76755978291366" lon="9.577658221337426"><ele>757.3333333333334</ele><time>2026-05-03T08:28:09Z</time></trkpt><trkpt lat="44.7675977059952" lon="9.577582117277565"><ele>758.0</ele><time>2026-05-03T08:28:10Z</time></trkpt><trkpt lat="44.76762771247088" lon="9.577491058750207"><ele>758.6666666666667</ele><time>2026-05-03T08:28:11Z</time></trkpt><trkpt lat="44.76765726644875" lon="9.577401345259254"><ele>759.3333333333334</ele><time>2026-05-03T08:28:12Z</time></trkpt><trkpt lat="44.767700962072404" lon="9.577324497285316"><ele>760.0</ele><time>2026-05-03T08:28:13Z</time></trkpt><trkpt lat="44.76779189206613" lon="9.577221229299989"><ele>760.0</ele><time>2026-05-03T08:28:14Z</time></trkpt><trkpt lat="44.76787499296987" lon="9.577131401788643"><ele>760.0</ele><time>2026-05-03T08:28:15Z</time></trkpt><trkpt lat="44.76791877999427" lon="9.57696147815851"><ele>760.0</ele><time>2026-05-03T08:28:17Z</time></trkpt><trkpt lat="44.767919964929135" lon="9.576871508179892"><ele>760.0</ele><time>2026-05-03T08:28:18Z</time></trkpt><trkpt lat="44.76793312229341" lon="9.576777178148612"><ele>760.0</ele><time>2026-05-03T08:28:19Z</time></trkpt><trkpt lat="44.76799839480893" lon="9.576683480025073"><ele>762.3333333333334</ele><time>2026-05-03T08:28:21Z</time></trkpt><trkpt lat="44.76799143130159" lon="9.576532598842588"><ele>764.6666666666667</ele><time>2026-05-03T08:28:23Z</time></trkpt><trkpt lat="44.767989100411235" lon="9.576443545542695"><ele>767.0</ele><time>2026-05-03T08:28:24Z</time></trkpt><trkpt lat="44.76800527118751" lon="9.576356644252668"><ele>769.3333333333334</ele><time>2026-05-03T08:28:25Z</time></trkpt><trkpt lat="44.76803514579029" lon="9.576268117954545"><ele>771.6666666666666</ele><time>2026-05-03T08:28:26Z</time></trkpt><trkpt lat="44.76806638210555" lon="9.57615336268148"><ele>774.0</ele><time>2026-05-03T08:28:27Z</time></trkpt><trkpt lat="44.76808705948511" lon="9.576044722848497"><ele>778.4000000000001</ele><time>2026-05-03T08:28:28Z</time></trkpt><trkpt lat="44.7681776449421" lon="9.575912736962781"><ele>782.8</ele><time>2026-05-03T08:28:30Z</time></trkpt><trkpt lat="44.76825034974415" lon="9.575849795054372"><ele>787.2</ele><time>2026-05-03T08:28:31Z</time></trkpt><trkpt lat="44.76831904879544" lon="9.575759875334851"><ele>791.5999999999999</ele><time>2026-05-03T08:28:32Z</time></trkpt><trkpt lat="44.76837411948338" lon="9.57562130856326"><ele>796.0</ele><time>2026-05-03T08:28:34Z</time></trkpt><trkpt lat="44.76838911452155" lon="9.575530190939057"><ele>796.0</ele><time>2026-05-03T08:28:35Z</time></trkpt><trkpt lat="44.768408462043475" lon="9.575426865497958"><ele>796.0</ele><time>2026-05-03T08:28:36Z</time></trkpt><trkpt lat="44.76840721348883" lon="9.575307480794438"><ele>796.0</ele><time>2026-05-03T08:28:37Z</time></trkpt><trkpt lat="44.768433807072675" lon="9.575171479168812"><ele>796.0</ele><time>2026-05-03T08:28:38.999Z</time></trkpt><trkpt lat="44.76850363402233" lon="9.575035579750079"><ele>796.0</ele><time>2026-05-03T08:28:40.999Z</time></trkpt><trkpt lat="44.76855368108359" lon="9.574929113854349"><ele>797.1666666666666</ele><time>2026-05-03T08:28:42.999Z</time></trkpt><trkpt lat="44.76860583988275" lon="9.57482166742526"><ele>798.3333333333333</ele><time>2026-05-03T08:28:44.999Z</time></trkpt><trkpt lat="44.7685729915149" lon="9.574739739026867"><ele>799.5</ele><time>2026-05-03T08:28:45.999Z</time></trkpt><trkpt lat="44.76851302957856" lon="9.57462179255096"><ele>800.6666666666667</ele><time>2026-05-03T08:28:47.999Z</time></trkpt><trkpt lat="44.76844634644299" lon="9.574523026719893"><ele>801.8333333333334</ele><time>2026-05-03T08:28:48.999Z</time></trkpt><trkpt lat="44.76843428154446" lon="9.574429537392104"><ele>803.0</ele><time>2026-05-03T08:28:49.999Z</time></trkpt><trkpt lat="44.768346828215" lon="9.574321628514614"><ele>807.0</ele><time>2026-05-03T08:28:51.999Z</time></trkpt><trkpt lat="44.76829997119158" lon="9.574191312300027"><ele>811.0</ele><time>2026-05-03T08:28:53.999Z</time></trkpt><trkpt lat="44.76829012892501" lon="9.574098145540493"><ele>815.0</ele><time>2026-05-03T08:28:54.999Z</time></trkpt><trkpt lat="44.768281641331896" lon="9.573928522256226"><ele>819.0</ele><time>2026-05-03T08:28:56.999Z</time></trkpt><trkpt lat="44.768304706524184" lon="9.573833550408704"><ele>823.0</ele><time>2026-05-03T08:28:57.999Z</time></trkpt><trkpt lat="44.7683553406739" lon="9.573730730992395"><ele>825.0</ele><time>2026-05-03T08:28:58.999Z</time></trkpt><trkpt lat="44.76842231922573" lon="9.573615491043089"><ele>827.0</ele><time>2026-05-03T08:28:59.999Z</time></trkpt><trkpt lat="44.76849935200253" lon="9.57347960184247"><ele>829.0</ele><time>2026-05-03T08:29:00.999Z</time></trkpt><trkpt lat="44.76853957038295" lon="9.573372724391557"><ele>831.0</ele><time>2026-05-03T08:29:01.999Z</time></trkpt><trkpt lat="44.76857050904074" lon="9.573271842104292"><ele>833.0</ele><time>2026-05-03T08:29:02.999Z</time></trkpt><trkpt lat="44.768574388827474" lon="9.573165052998561"><ele>833.0000000000001</ele><time>2026-05-03T08:29:03.999Z</time></trkpt><trkpt lat="44.76856305431937" lon="9.573067251379364"><ele>833.0</ele><time>2026-05-03T08:29:04.999Z</time></trkpt><trkpt lat="44.76850310791353" lon="9.572939804420932"><ele>833.0</ele><time>2026-05-03T08:29:06.999Z</time></trkpt><trkpt lat="44.76844578045261" lon="9.572860730653584"><ele>833.0</ele><time>2026-05-03T08:29:07.999Z</time></trkpt><trkpt lat="44.76841051827868" lon="9.572759720370046"><ele>833.0000000000001</ele><time>2026-05-03T08:29:08.999Z</time></trkpt><trkpt lat="44.76842023501001" lon="9.572659379599093"><ele>833.0</ele><time>2026-05-03T08:29:09.999Z</time></trkpt><trkpt lat="44.7684521976092" lon="9.572575380981492"><ele>835.1666666666667</ele><time>2026-05-03T08:29:10.999Z</time></trkpt><trkpt lat="44.768479630589184" lon="9.57247169482018"><ele>837.3333333333334</ele><time>2026-05-03T08:29:11.999Z</time></trkpt><trkpt lat="44.76850795944103" lon="9.572340502408055"><ele>839.5</ele><time>2026-05-03T08:29:12.999Z</time></trkpt><trkpt lat="44.76853395883306" lon="9.572239246973973"><ele>841.6666666666667</ele><time>2026-05-03T08:29:13.999Z</time></trkpt><trkpt lat="44.768577586934235" lon="9.572168749207872"><ele>843.8333333333334</ele><time>2026-05-03T08:29:15.999Z</time></trkpt><trkpt lat="44.768654350360315" lon="9.572185745462376"><ele>846.0</ele><time>2026-05-03T08:29:18.999Z</time></trkpt><trkpt lat="44.76871882917537" lon="9.572205931930554"><ele>846.8</ele><time>2026-05-03T08:29:39.999Z</time></trkpt><trkpt lat="44.768798689587" lon="9.572143686851788"><ele>847.5999999999999</ele><time>2026-05-03T08:29:41.999Z</time></trkpt><trkpt lat="44.76884960014017" lon="9.572078437656607"><ele>848.4</ele><time>2026-05-03T08:29:42.999Z</time></trkpt><trkpt lat="44.768917168747095" lon="9.571975725797428"><ele>849.2</ele><time>2026-05-03T08:29:43.999Z</time></trkpt><trkpt lat="44.7689953937076" lon="9.571874957696913"><ele>850.0</ele><time>2026-05-03T08:29:44.999Z</time></trkpt><trkpt lat="44.76908642356599" lon="9.571784212805635"><ele>852.1666666666666</ele><time>2026-05-03T08:29:45.999Z</time></trkpt><trkpt lat="44.7691717722076" lon="9.57169618710489"><ele>854.3333333333333</ele><time>2026-05-03T08:29:46.998Z</time></trkpt><trkpt lat="44.769231492847695" lon="9.57160647318772"><ele>856.5</ele><time>2026-05-03T08:29:48Z</time></trkpt><trkpt lat="44.769276427423414" lon="9.57152064966809"><ele>858.6666666666667</ele><time>2026-05-03T08:29:49Z</time></trkpt><trkpt lat="44.76933923399165" lon="9.57145219340129"><ele>860.8333333333334</ele><time>2026-05-03T08:29:50Z</time></trkpt><trkpt lat="44.769426703436984" lon="9.571398720026119"><ele>863.0</ele><time>2026-05-03T08:29:51Z</time></trkpt><trkpt lat="44.76951292808791" lon="9.571384900298785"><ele>864.6666666666667</ele><time>2026-05-03T08:29:52Z</time></trkpt><trkpt lat="44.76959737127473" lon="9.571412636772047"><ele>866.3333333333334</ele><time>2026-05-03T08:29:53Z</time></trkpt><trkpt lat="44.769684324997634" lon="9.571442451670562"><ele>868.0</ele><time>2026-05-03T08:29:54Z</time></trkpt><trkpt lat="44.76977460250868" lon="9.571443688494563"><ele>869.6666666666667</ele><time>2026-05-03T08:29:55Z</time></trkpt><trkpt lat="44.769867095409346" lon="9.571422708648655"><ele>871.3333333333334</ele><time>2026-05-03T08:29:56Z</time></trkpt><trkpt lat="44.76994677366845" lon="9.57137698909792"><ele>873.0</ele><time>2026-05-03T08:29:57Z</time></trkpt><trkpt lat="44.77001585787543" lon="9.57131862739719"><ele>873.0</ele><time>2026-05-03T08:29:58Z</time></trkpt><trkpt lat="44.77008028452004" lon="9.57124945406009"><ele>873.0</ele><time>2026-05-03T08:29:59Z</time></trkpt><trkpt lat="44.77012720477155" lon="9.571169634955895"><ele>873.0</ele><time>2026-05-03T08:30:00Z</time></trkpt><trkpt lat="44.77015971355434" lon="9.571065832651588"><ele>873.0</ele><time>2026-05-03T08:30:01Z</time></trkpt><trkpt lat="44.77019424418533" lon="9.57095962314904"><ele>873.0</ele><time>2026-05-03T08:30:02Z</time></trkpt><trkpt lat="44.77027270770834" lon="9.570859446916032"><ele>873.0</ele><time>2026-05-03T08:30:04Z</time></trkpt><trkpt lat="44.770327881559766" lon="9.57091880739242"><ele>874.4</ele><time>2026-05-03T08:30:07Z</time></trkpt><trkpt lat="44.77040311618044" lon="9.571059634156503"><ele>875.8</ele><time>2026-05-03T08:30:09Z</time></trkpt><trkpt lat="44.770480008933106" lon="9.571138167176741"><ele>877.2</ele><time>2026-05-03T08:30:10Z</time></trkpt><trkpt lat="44.770538895603686" lon="9.57119712161813"><ele>878.6</ele><time>2026-05-03T08:30:11Z</time></trkpt><trkpt lat="44.77060898043006" lon="9.571192629039299"><ele>880.0</ele><time>2026-05-03T08:30:12Z</time></trkpt><trkpt lat="44.770686867255236" lon="9.571259803357567"><ele>880.0</ele><time>2026-05-03T08:30:13Z</time></trkpt><trkpt lat="44.77073654849592" lon="9.571342729894406"><ele>880.0</ele><time>2026-05-03T08:30:14Z</time></trkpt><trkpt lat="44.7707839934253" lon="9.571471674374527"><ele>880.0</ele><time>2026-05-03T08:30:15Z</time></trkpt><trkpt lat="44.77086426383465" lon="9.571599777669089"><ele>880.0</ele><time>2026-05-03T08:30:16Z</time></trkpt><trkpt lat="44.770965183591976" lon="9.571746072309756"><ele>880.0</ele><time>2026-05-03T08:30:17Z</time></trkpt><trkpt lat="44.77105854298223" lon="9.571879453084243"><ele>881.8</ele><time>2026-05-03T08:30:18Z</time></trkpt><trkpt lat="44.7711056278477" lon="9.57199688788943"><ele>883.6</ele><time>2026-05-03T08:30:19Z</time></trkpt><trkpt lat="44.771159391860934" lon="9.572077277603197"><ele>885.4000000000001</ele><time>2026-05-03T08:30:20Z</time></trkpt><trkpt lat="44.771173909461844" lon="9.57217163943223"><ele>887.2</ele><time>2026-05-03T08:30:22Z</time></trkpt><trkpt lat="44.77122523928885" lon="9.572279206587933"><ele>889.0</ele><time>2026-05-03T08:30:23Z</time></trkpt><trkpt lat="44.77128378572938" lon="9.572440381995106"><ele>889.0</ele><time>2026-05-03T08:30:24Z</time></trkpt><trkpt lat="44.77132898384133" lon="9.572643992026988"><ele>889.0000000000001</ele><time>2026-05-03T08:30:25Z</time></trkpt><trkpt lat="44.77137232046309" lon="9.572785951597224"><ele>889.0000000000001</ele><time>2026-05-03T08:30:26Z</time></trkpt><trkpt lat="44.77139651506254" lon="9.572884583700764"><ele>889.0</ele><time>2026-05-03T08:30:27Z</time></trkpt><trkpt lat="44.771427821656395" lon="9.572972785333143"><ele>889.0</ele><time>2026-05-03T08:30:28Z</time></trkpt><trkpt lat="44.77148125136231" lon="9.573085738414344"><ele>886.5</ele><time>2026-05-03T08:30:30Z</time></trkpt><trkpt lat="44.77157891560221" lon="9.57308767979751"><ele>884.0</ele><time>2026-05-03T08:30:32Z</time></trkpt><trkpt lat="44.771737370317965" lon="9.573170582717626"><ele>881.5</ele><time>2026-05-03T08:30:34Z</time></trkpt><trkpt lat="44.771881806882575" lon="9.573135069518884"><ele>879.0</ele><time>2026-05-03T08:30:36Z</time></trkpt><trkpt lat="44.77195724321657" lon="9.573099683904235"><ele>878.2</ele><time>2026-05-03T08:30:37Z</time></trkpt><trkpt lat="44.772035440539874" lon="9.573050654447425"><ele>877.4000000000001</ele><time>2026-05-03T08:30:38Z</time></trkpt><trkpt lat="44.77211883096754" lon="9.572994109651173"><ele>876.6</ele><time>2026-05-03T08:30:39Z</time></trkpt><trkpt lat="44.77223463935991" lon="9.572871188375123"><ele>875.8</ele><time>2026-05-03T08:30:40Z</time></trkpt><trkpt lat="44.77230198500335" lon="9.572784241696924"><ele>875.0</ele><time>2026-05-03T08:30:40.999Z</time></trkpt><trkpt lat="44.772355130931594" lon="9.572729396197959"><ele>873.8</ele><time>2026-05-03T08:30:41.999Z</time></trkpt><trkpt lat="44.772440260512795" lon="9.572644936038367"><ele>872.6</ele><time>2026-05-03T08:30:43.999Z</time></trkpt><trkpt lat="44.77254657998766" lon="9.572598300633116"><ele>871.4000000000001</ele><time>2026-05-03T08:30:45.999Z</time></trkpt><trkpt lat="44.77259467548571" lon="9.572505461556672"><ele>870.2</ele><time>2026-05-03T08:30:46.999Z</time></trkpt><trkpt lat="44.77266042489326" lon="9.572382180667207"><ele>869.0</ele><time>2026-05-03T08:30:47.999Z</time></trkpt><trkpt lat="44.77271627639364" lon="9.572303599174735"><ele>869.0</ele><time>2026-05-03T08:30:48.999Z</time></trkpt><trkpt lat="44.77280715373088" lon="9.572202215572315"><ele>869.0000000000001</ele><time>2026-05-03T08:30:50.999Z</time></trkpt><trkpt lat="44.77288664163552" lon="9.572201914021282"><ele>869.0000000000001</ele><time>2026-05-03T08:30:51.999Z</time></trkpt><trkpt lat="44.77298164440724" lon="9.572107091694496"><ele>869.0</ele><time>2026-05-03T08:30:53.999Z</time></trkpt><trkpt lat="44.773035547051926" lon="9.572023641178992"><ele>869.0</ele><time>2026-05-03T08:30:54.999Z</time></trkpt><trkpt lat="44.77311351029314" lon="9.571897708549317"><ele>873.6</ele><time>2026-05-03T08:30:55.999Z</time></trkpt><trkpt lat="44.77316176607348" lon="9.571836182967202"><ele>878.2</ele><time>2026-05-03T08:30:56.999Z</time></trkpt><trkpt lat="44.77322249562844" lon="9.57174286995253"><ele>882.8000000000001</ele><time>2026-05-03T08:30:58.999Z</time></trkpt><trkpt lat="44.77329419378192" lon="9.57163567701388"><ele>887.4000000000001</ele><time>2026-05-03T08:31:00.999Z</time></trkpt><trkpt lat="44.77335865186246" lon="9.571456376854755"><ele>892.0</ele><time>2026-05-03T08:31:02.999Z</time></trkpt><trkpt lat="44.77341050515544" lon="9.571357491081011"><ele>892.0</ele><time>2026-05-03T08:31:03.999Z</time></trkpt><trkpt lat="44.77346927943335" lon="9.571195269930152"><ele>892.0</ele><time>2026-05-03T08:31:05.999Z</time></trkpt><trkpt lat="44.773498047010804" lon="9.571072569006098"><ele>892.0</ele><time>2026-05-03T08:31:06.999Z</time></trkpt><trkpt lat="44.77353214579643" lon="9.570984469200065"><ele>892.0</ele><time>2026-05-03T08:31:07.999Z</time></trkpt><trkpt lat="44.77353960552092" lon="9.570841343677408"><ele>892.0</ele><time>2026-05-03T08:31:09.999Z</time></trkpt><trkpt lat="44.773609998719266" lon="9.570697609627326"><ele>892.2</ele><time>2026-05-03T08:31:11.999Z</time></trkpt><trkpt lat="44.77365571049122" lon="9.570635181154085"><ele>892.4000000000001</ele><time>2026-05-03T08:31:12.999Z</time></trkpt><trkpt lat="44.773722340040756" lon="9.570593993443882"><ele>892.5999999999999</ele><time>2026-05-03T08:31:14.999Z</time></trkpt><trkpt lat="44.773811034718875" lon="9.570539170558055"><ele>892.8</ele><time>2026-05-03T08:31:16.999Z</time></trkpt><trkpt lat="44.773866577271825" lon="9.57045385678846"><ele>893.0</ele><time>2026-05-03T08:31:18.999Z</time></trkpt><trkpt lat="44.774028872578796" lon="9.570279871553982"><ele>893.0</ele><time>2026-05-03T08:31:19.999Z</time></trkpt><trkpt lat="44.774113171348525" lon="9.57026158393481"><ele>893.0</ele><time>2026-05-03T08:31:20.999Z</time></trkpt><trkpt lat="44.774184456620915" lon="9.570264951759698"><ele>893.0</ele><time>2026-05-03T08:31:22.999Z</time></trkpt><trkpt lat="44.77431803165875" lon="9.570125192244019"><ele>893.0</ele><time>2026-05-03T08:31:24.999Z</time></trkpt><trkpt lat="44.77438253040448" lon="9.570090547705691"><ele>893.0</ele><time>2026-05-03T08:31:25.999Z</time></trkpt><trkpt lat="44.77442683449697" lon="9.56989083118726"><ele>891.8</ele><time>2026-05-03T08:31:27.999Z</time></trkpt><trkpt lat="44.77449493997415" lon="9.569847975448129"><ele>890.5999999999999</ele><time>2026-05-03T08:31:29.999Z</time></trkpt><trkpt lat="44.77456955068311" lon="9.56990367450551"><ele>889.4000000000001</ele><time>2026-05-03T08:31:31.999Z</time></trkpt><trkpt lat="44.77465162806279" lon="9.57005618943887"><ele>888.2</ele><time>2026-05-03T08:31:33.999Z</time></trkpt><trkpt lat="44.77475113938128" lon="9.57018411908531"><ele>887.0</ele><time>2026-05-03T08:31:34.999Z</time></trkpt><trkpt lat="44.774815933004774" lon="9.570248860407546"><ele>887.0</ele><time>2026-05-03T08:31:35.999Z</time></trkpt><trkpt lat="44.7749108642328" lon="9.570247789016848"><ele>887.0</ele><time>2026-05-03T08:31:36.999Z</time></trkpt><trkpt lat="44.77497495438949" lon="9.570247539284747"><ele>887.0</ele><time>2026-05-03T08:31:37.999Z</time></trkpt><trkpt lat="44.77510441037046" lon="9.570207407888308"><ele>887.0</ele><time>2026-05-03T08:31:39.999Z</time></trkpt><trkpt lat="44.77519852807542" lon="9.570188792850432"><ele>887.0</ele><time>2026-05-03T08:31:40.999Z</time></trkpt><trkpt lat="44.775309764479914" lon="9.570167642560726"><ele>884.8333333333334</ele><time>2026-05-03T08:31:42.999Z</time></trkpt><trkpt lat="44.77537799008357" lon="9.57013146950057"><ele>882.6666666666667</ele><time>2026-05-03T08:31:44.999Z</time></trkpt><trkpt lat="44.77545053866111" lon="9.570161607385456"><ele>880.5</ele><time>2026-05-03T08:31:50.998Z</time></trkpt><trkpt lat="44.77549633340453" lon="9.570236117811355"><ele>878.3333333333333</ele><time>2026-05-03T08:31:55Z</time></trkpt><trkpt lat="44.77558355727815" lon="9.570314254718895"><ele>876.1666666666666</ele><time>2026-05-03T08:32:10Z</time></trkpt><trkpt lat="44.7756713830614" lon="9.570370579499848"><ele>874.0</ele><time>2026-05-03T08:32:12Z</time></trkpt><trkpt lat="44.775773324176605" lon="9.570453328015624"><ele>871.8333333333333</ele><time>2026-05-03T08:32:14Z</time></trkpt><trkpt lat="44.77582975317538" lon="9.570515360689992"><ele>869.6666666666666</ele><time>2026-05-03T08:32:15Z</time></trkpt><trkpt lat="44.77595406422877" lon="9.57048355723301"><ele>867.5</ele><time>2026-05-03T08:32:17Z</time></trkpt><trkpt lat="44.77603539786675" lon="9.570527020202466"><ele>865.3333333333333</ele><time>2026-05-03T08:32:18Z</time></trkpt><trkpt lat="44.77611449267669" lon="9.570556748008146"><ele>863.1666666666666</ele><time>2026-05-03T08:32:19Z</time></trkpt><trkpt lat="44.77618407671425" lon="9.570583236354992"><ele>861.0</ele><time>2026-05-03T08:32:20Z</time></trkpt><trkpt lat="44.77625122726222" lon="9.570633103108268"><ele>858.8333333333334</ele><time>2026-05-03T08:32:21Z</time></trkpt><trkpt lat="44.776308124000124" lon="9.570715795309205"><ele>856.6666666666667</ele><time>2026-05-03T08:32:22Z</time></trkpt><trkpt lat="44.776361750558756" lon="9.570785542677342"><ele>854.5</ele><time>2026-05-03T08:32:23Z</time></trkpt><trkpt lat="44.77640752801743" lon="9.570848949586445"><ele>852.3333333333334</ele><time>2026-05-03T08:32:24Z</time></trkpt><trkpt lat="44.77646048838865" lon="9.570896904351919"><ele>850.1666666666667</ele><time>2026-05-03T08:32:25Z</time></trkpt><trkpt lat="44.77657386207239" lon="9.570973048284719"><ele>848.0</ele><time>2026-05-03T08:32:27Z</time></trkpt><trkpt lat="44.776638519469735" lon="9.570985893567766"><ele>848.0000000000001</ele><time>2026-05-03T08:32:28Z</time></trkpt><trkpt lat="44.776705258650864" lon="9.570987197176548"><ele>848.0</ele><time>2026-05-03T08:32:29Z</time></trkpt><trkpt lat="44.776774925390285" lon="9.570992085455362"><ele>848.0</ele><time>2026-05-03T08:32:30Z</time></trkpt><trkpt lat="44.77684764032237" lon="9.571018679334939"><ele>848.0</ele><time>2026-05-03T08:32:31Z</time></trkpt><trkpt lat="44.776927810745754" lon="9.571012689822306"><ele>848.0000000000001</ele><time>2026-05-03T08:32:32Z</time></trkpt><trkpt lat="44.777030887119835" lon="9.571025907900086"><ele>848.0</ele><time>2026-05-03T08:32:34Z</time></trkpt><trkpt lat="44.77709478072151" lon="9.570999780727798"><ele>845.6666666666667</ele><time>2026-05-03T08:32:35Z</time></trkpt><trkpt lat="44.77715529021044" lon="9.570940135966456"><ele>843.3333333333334</ele><time>2026-05-03T08:32:36Z</time></trkpt><trkpt lat="44.77721665676249" lon="9.570898074695643"><ele>841.0</ele><time>2026-05-03T08:32:37Z</time></trkpt><trkpt lat="44.77732193775398" lon="9.57086758923718"><ele>838.6666666666667</ele><time>2026-05-03T08:32:39Z</time></trkpt><trkpt lat="44.777378299805214" lon="9.570802691054295"><ele>836.3333333333334</ele><time>2026-05-03T08:32:40Z</time></trkpt><trkpt lat="44.77747967593492" lon="9.570754327136815"><ele>834.0</ele><time>2026-05-03T08:32:41.999Z</time></trkpt><trkpt lat="44.777533054884145" lon="9.570599248109458"><ele>834.0</ele><time>2026-05-03T08:32:43.999Z</time></trkpt><trkpt lat="44.77751058173823" lon="9.57041414647601"><ele>834.0</ele><time>2026-05-03T08:32:45.999Z</time></trkpt><trkpt lat="44.77747334051607" lon="9.570295929958302"><ele>834.0</ele><time>2026-05-03T08:32:46.999Z</time></trkpt><trkpt lat="44.777470504631" lon="9.570134240920789"><ele>834.0</ele><time>2026-05-03T08:32:48.999Z</time></trkpt><trkpt lat="44.77753259593552" lon="9.570047684090378"><ele>834.0</ele><time>2026-05-03T08:32:50.999Z</time></trkpt><trkpt lat="44.777609990874325" lon="9.57000801619919"><ele>828.0</ele><time>2026-05-03T08:32:52.999Z</time></trkpt><trkpt lat="44.777716511858706" lon="9.569984476353474"><ele>822.0</ele><time>2026-05-03T08:32:54.999Z</time></trkpt><trkpt lat="44.7778099413309" lon="9.570063195020195"><ele>816.0</ele><time>2026-05-03T08:32:56.999Z</time></trkpt><trkpt lat="44.77788440124308" lon="9.570149660424692"><ele>810.0</ele><time>2026-05-03T08:32:58.999Z</time></trkpt><trkpt lat="44.77799011428752" lon="9.570222115563322"><ele>804.0</ele><time>2026-05-03T08:33:00.999Z</time></trkpt><trkpt lat="44.77809377224311" lon="9.570151120912238"><ele>804.0</ele><time>2026-05-03T08:33:02.999Z</time></trkpt><trkpt lat="44.77813173671419" lon="9.570073460152956"><ele>804.0</ele><time>2026-05-03T08:33:03.999Z</time></trkpt><trkpt lat="44.77820249588822" lon="9.569930211887037"><ele>804.0</ele><time>2026-05-03T08:33:05.999Z</time></trkpt><trkpt lat="44.77829571240256" lon="9.569926598686942"><ele>804.0</ele><time>2026-05-03T08:33:07.999Z</time></trkpt><trkpt lat="44.778346720211836" lon="9.569994181142885"><ele>804.0</ele><time>2026-05-03T08:33:08.999Z</time></trkpt><trkpt lat="44.77838397890045" lon="9.570067939120563"><ele>804.0</ele><time>2026-05-03T08:33:09.999Z</time></trkpt><trkpt lat="44.778420879131964" lon="9.570139820228473"><ele>804.0</ele><time>2026-05-03T08:33:10.999Z</time></trkpt><trkpt lat="44.77851539380052" lon="9.570227346805494"><ele>804.0</ele><time>2026-05-03T08:33:12.999Z</time></trkpt><trkpt lat="44.77858872805147" lon="9.57032689803041"><ele>804.0</ele><time>2026-05-03T08:33:14.999Z</time></trkpt><trkpt lat="44.77867684214681" lon="9.570338034788515"><ele>804.0</ele><time>2026-05-03T08:33:16.999Z</time></trkpt><trkpt lat="44.77875603392242" lon="9.57027442291557"><ele>804.0</ele><time>2026-05-03T08:33:18.999Z</time></trkpt><trkpt lat="44.77877406933732" lon="9.570164036706752"><ele>801.0</ele><time>2026-05-03T08:33:20.999Z</time></trkpt><trkpt lat="44.778841338423895" lon="9.570075488343518"><ele>798.0</ele><time>2026-05-03T08:33:21.999Z</time></trkpt><trkpt lat="44.77891000455993" lon="9.570042015530298"><ele>795.0</ele><time>2026-05-03T08:33:22.999Z</time></trkpt><trkpt lat="44.77899599717859" lon="9.569995636468898"><ele>792.0</ele><time>2026-05-03T08:33:24.999Z</time></trkpt><trkpt lat="44.7790988779673" lon="9.569952778284406"><ele>789.0</ele><time>2026-05-03T08:33:26.999Z</time></trkpt><trkpt lat="44.7791823789263" lon="9.56996730965466"><ele>786.0</ele><time>2026-05-03T08:33:28.999Z</time></trkpt><trkpt lat="44.77928297717954" lon="9.5699571633158"><ele>786.0</ele><time>2026-05-03T08:33:30.999Z</time></trkpt><trkpt lat="44.77935655748245" lon="9.569872746628747"><ele>786.0</ele><time>2026-05-03T08:33:32.999Z</time></trkpt><trkpt lat="44.77939938320195" lon="9.569804223563724"><ele>786.0</ele><time>2026-05-03T08:33:34.999Z</time></trkpt><trkpt lat="44.77938851120934" lon="9.569689502125899"><ele>786.0</ele><time>2026-05-03T08:33:41.999Z</time></trkpt><trkpt lat="44.779339647467715" lon="9.569626672339467"><ele>786.0</ele><time>2026-05-03T08:33:45.999Z</time></trkpt><trkpt lat="44.779266801311365" lon="9.56955189493648"><ele>786.0</ele><time>2026-05-03T08:34:03Z</time></trkpt><trkpt lat="44.77920637755032" lon="9.569496699875739"><ele>784.8333333333334</ele><time>2026-05-03T08:34:04Z</time></trkpt><trkpt lat="44.779149561442225" lon="9.569428031220207"><ele>783.6666666666667</ele><time>2026-05-03T08:34:05Z</time></trkpt><trkpt lat="44.77908823445204" lon="9.569354704019622"><ele>782.5</ele><time>2026-05-03T08:34:06Z</time></trkpt><trkpt lat="44.77903609393917" lon="9.569263311111442"><ele>781.3333333333334</ele><time>2026-05-03T08:34:07Z</time></trkpt><trkpt lat="44.778985347457905" lon="9.569181467744954"><ele>780.1666666666667</ele><time>2026-05-03T08:34:08Z</time></trkpt><trkpt lat="44.7789277746621" lon="9.56909119188277"><ele>779.0</ele><time>2026-05-03T08:34:09Z</time></trkpt><trkpt lat="44.77890075096323" lon="9.568997275655233"><ele>779.0000000000001</ele><time>2026-05-03T08:34:10Z</time></trkpt><trkpt lat="44.778855510635324" lon="9.568891493513982"><ele>779.0</ele><time>2026-05-03T08:34:11Z</time></trkpt><trkpt lat="44.77881384786531" lon="9.568807440946737"><ele>779.0</ele><time>2026-05-03T08:34:12Z</time></trkpt><trkpt lat="44.77880619228249" lon="9.568675416358673"><ele>779.0</ele><time>2026-05-03T08:34:14Z</time></trkpt><trkpt lat="44.77878797989824" lon="9.568578494821528"><ele>779.0000000000001</ele><time>2026-05-03T08:34:16Z</time></trkpt><trkpt lat="44.778756832338246" lon="9.568435303943142"><ele>779.0</ele><time>2026-05-03T08:34:18Z</time></trkpt><trkpt lat="44.77872219842506" lon="9.568347655079204"><ele>779.0000000000001</ele><time>2026-05-03T08:34:19Z</time></trkpt><trkpt lat="44.77866444704842" lon="9.568252975936874"><ele>779.0</ele><time>2026-05-03T08:34:20Z</time></trkpt><trkpt lat="44.778606763462584" lon="9.568181197887041"><ele>779.0</ele><time>2026-05-03T08:34:21Z</time></trkpt><trkpt lat="44.7785545504691" lon="9.56810551928725"><ele>779.0</ele><time>2026-05-03T08:34:22Z</time></trkpt><trkpt lat="44.77850464739416" lon="9.5680030073037"><ele>779.0000000000001</ele><time>2026-05-03T08:34:24Z</time></trkpt><trkpt lat="44.77843494063951" lon="9.567934423209742"><ele>779.0</ele><time>2026-05-03T08:34:26Z</time></trkpt><trkpt lat="44.778377670629936" lon="9.567876784141948"><ele>781.6666666666667</ele><time>2026-05-03T08:34:27Z</time></trkpt><trkpt lat="44.77830579245805" lon="9.567814957702433"><ele>784.3333333333334</ele><time>2026-05-03T08:34:28Z</time></trkpt><trkpt lat="44.77822424571834" lon="9.567742145389683"><ele>787.0</ele><time>2026-05-03T08:34:29Z</time></trkpt><trkpt lat="44.77816183751481" lon="9.567674027478251"><ele>789.6666666666667</ele><time>2026-05-03T08:34:30Z</time></trkpt><trkpt lat="44.77812119061432" lon="9.5675835527176"><ele>792.3333333333334</ele><time>2026-05-03T08:34:31Z</time></trkpt><trkpt lat="44.77808094530912" lon="9.567512629477458"><ele>795.0</ele><time>2026-05-03T08:34:32Z</time></trkpt><trkpt lat="44.778039571054265" lon="9.56743667421287"><ele>795.0</ele><time>2026-05-03T08:34:33Z</time></trkpt><trkpt lat="44.77796511631459" lon="9.567313606995112"><ele>795.0</ele><time>2026-05-03T08:34:35Z</time></trkpt><trkpt lat="44.77788986340458" lon="9.567273315042437"><ele>795.0</ele><time>2026-05-03T08:34:36Z</time></trkpt><trkpt lat="44.777810916433076" lon="9.567207627265722"><ele>795.0</ele><time>2026-05-03T08:34:37Z</time></trkpt><trkpt lat="44.777761017708315" lon="9.567149550312966"><ele>795.0</ele><time>2026-05-03T08:34:38Z</time></trkpt><trkpt lat="44.77771333137079" lon="9.567084188575164"><ele>795.0</ele><time>2026-05-03T08:34:39Z</time></trkpt><trkpt lat="44.777643064280994" lon="9.566955956194906"><ele>799.0</ele><time>2026-05-03T08:34:41Z</time></trkpt><trkpt lat="44.777656596462535" lon="9.566804814124291"><ele>803.0</ele><time>2026-05-03T08:34:43Z</time></trkpt><trkpt lat="44.7776506020662" lon="9.56670410329845"><ele>807.0</ele><time>2026-05-03T08:34:44Z</time></trkpt><trkpt lat="44.77764785506124" lon="9.566591181507233"><ele>811.0</ele><time>2026-05-03T08:34:45Z</time></trkpt><trkpt lat="44.77763019625879" lon="9.566495894170338"><ele>815.0</ele><time>2026-05-03T08:34:46Z</time></trkpt><trkpt lat="44.777594357533516" lon="9.566400791123955"><ele>819.0</ele><time>2026-05-03T08:34:46.999Z</time></trkpt><trkpt lat="44.77754432078084" lon="9.56630165979542"><ele>819.0</ele><time>2026-05-03T08:34:47.999Z</time></trkpt><trkpt lat="44.77751850028221" lon="9.566205017713276"><ele>819.0</ele><time>2026-05-03T08:34:48.999Z</time></trkpt><trkpt lat="44.777506718529374" lon="9.566107359835328"><ele>819.0</ele><time>2026-05-03T08:34:49.999Z</time></trkpt><trkpt lat="44.77750045008291" lon="9.56601257781892"><ele>819.0</ele><time>2026-05-03T08:34:50.999Z</time></trkpt><trkpt lat="44.77754966723359" lon="9.565837016837497"><ele>819.0</ele><time>2026-05-03T08:34:52.999Z</time></trkpt><trkpt lat="44.777565313956124" lon="9.5657278265146"><ele>819.0</ele><time>2026-05-03T08:34:53.999Z</time></trkpt><trkpt lat="44.777567651743674" lon="9.565568147075515"><ele>820.0</ele><time>2026-05-03T08:34:55.999Z</time></trkpt><trkpt lat="44.77754688847559" lon="9.565482835074429"><ele>821.0</ele><time>2026-05-03T08:34:56.999Z</time></trkpt><trkpt lat="44.77747333797112" lon="9.56530628330968"><ele>822.0</ele><time>2026-05-03T08:34:58.999Z</time></trkpt><trkpt lat="44.77743221445739" lon="9.565215887642328"><ele>823.0</ele><time>2026-05-03T08:34:59.999Z</time></trkpt><trkpt lat="44.77742368795301" lon="9.565056644506678"><ele>824.0</ele><time>2026-05-03T08:35:01.999Z</time></trkpt><trkpt lat="44.77740150210992" lon="9.564972395253042"><ele>824.3333333333334</ele><time>2026-05-03T08:35:02.999Z</time></trkpt><trkpt lat="44.77733674380038" lon="9.564902474263228"><ele>824.6666666666667</ele><time>2026-05-03T08:35:04.999Z</time></trkpt><trkpt lat="44.77735092554633" lon="9.564754177382161"><ele>825.0</ele><time>2026-05-03T08:35:05.999Z</time></trkpt><trkpt lat="44.77732700250398" lon="9.564657878030042"><ele>825.3333333333333</ele><time>2026-05-03T08:35:06.999Z</time></trkpt><trkpt lat="44.77730071773987" lon="9.564555949882207"><ele>825.6666666666666</ele><time>2026-05-03T08:35:07.999Z</time></trkpt><trkpt lat="44.77725164897094" lon="9.564485426049654"><ele>826.0</ele><time>2026-05-03T08:35:09.999Z</time></trkpt><trkpt lat="44.7772921136836" lon="9.564377276197225"><ele>827.3333333333333</ele><time>2026-05-03T08:35:12.999Z</time></trkpt><trkpt lat="44.7773044616338" lon="9.564230045464438"><ele>828.6666666666666</ele><time>2026-05-03T08:35:15.999Z</time></trkpt><trkpt lat="44.77731637257558" lon="9.564103365584515"><ele>830.0</ele><time>2026-05-03T08:35:16.999Z</time></trkpt><trkpt lat="44.777329066847514" lon="9.564007857347693"><ele>831.3333333333333</ele><time>2026-05-03T08:35:17.999Z</time></trkpt><trkpt lat="44.777339697686514" lon="9.563889997350351"><ele>832.6666666666666</ele><time>2026-05-03T08:35:18.999Z</time></trkpt><trkpt lat="44.777329725308896" lon="9.563779396792052"><ele>834.0</ele><time>2026-05-03T08:35:19.999Z</time></trkpt><trkpt lat="44.77732713620663" lon="9.563672924875956"><ele>835.0</ele><time>2026-05-03T08:35:30.999Z</time></trkpt><trkpt lat="44.77730909034328" lon="9.563552531244436"><ele>836.0</ele><time>2026-05-03T08:35:33.999Z</time></trkpt><trkpt lat="44.777256202489696" lon="9.563460018598297"><ele>837.0</ele><time>2026-05-03T08:35:36.999Z</time></trkpt><trkpt lat="44.7772492742265" lon="9.563365965384756"><ele>838.0</ele><time>2026-05-03T08:35:39.999Z</time></trkpt><trkpt lat="44.77729069730919" lon="9.563293308929826"><ele>839.0</ele><time>2026-05-03T08:35:41.999Z</time></trkpt><trkpt lat="44.77735433159368" lon="9.563231995686829"><ele>840.0</ele><time>2026-05-03T08:35:42.999Z</time></trkpt><trkpt lat="44.77739146284762" lon="9.563154465202466"><ele>841.0</ele><time>2026-05-03T08:35:43.999Z</time></trkpt><trkpt lat="44.777391580990496" lon="9.563056046003963"><ele>840.9999999999999</ele><time>2026-05-03T08:35:45.999Z</time></trkpt><trkpt lat="44.77744051431899" lon="9.562978859568544"><ele>841.0</ele><time>2026-05-03T08:35:47.999Z</time></trkpt><trkpt lat="44.77746568321018" lon="9.562827605005225"><ele>841.0</ele><time>2026-05-03T08:35:50.999Z</time></trkpt><trkpt lat="44.77745687610421" lon="9.562700778097271"><ele>841.0</ele><time>2026-05-03T08:35:52.998Z</time></trkpt><trkpt lat="44.77744349335028" lon="9.562606758446726"><ele>840.9999999999999</ele><time>2026-05-03T08:35:54.998Z</time></trkpt><trkpt lat="44.77739369478261" lon="9.562542104984564"><ele>841.0</ele><time>2026-05-03T08:35:56.998Z</time></trkpt><trkpt lat="44.77721184411569" lon="9.56175500094533"><ele>842.4999999999999</ele><time>2026-05-03T08:35:59.998Z</time></trkpt><trkpt lat="44.77719932475416" lon="9.561628114573702"><ele>844.0</ele><time>2026-05-03T08:36:01.998Z</time></trkpt><trkpt lat="44.77717897732484" lon="9.561498608010481"><ele>845.5</ele><time>2026-05-03T08:36:04.998Z</time></trkpt><trkpt lat="44.77717553769675" lon="9.561396199593096"><ele>847.0</ele><time>2026-05-03T08:36:07Z</time></trkpt><trkpt lat="44.777155373152326" lon="9.56129334997405"><ele>848.4999999999999</ele><time>2026-05-03T08:36:19Z</time></trkpt><trkpt lat="44.77709339284959" lon="9.561237842212373"><ele>850.0</ele><time>2026-05-03T08:37:27.999Z</time></trkpt><trkpt lat="44.777084209191045" lon="9.561110108827538"><ele>850.2857142857142</ele><time>2026-05-03T08:37:29.999Z</time></trkpt><trkpt lat="44.77711803472752" lon="9.561021298663244"><ele>850.5714285714286</ele><time>2026-05-03T08:37:30.999Z</time></trkpt><trkpt lat="44.77717703126609" lon="9.560943363883268"><ele>850.8571428571429</ele><time>2026-05-03T08:37:32.999Z</time></trkpt><trkpt lat="44.77724091243554" lon="9.560905120396162"><ele>851.1428571428571</ele><time>2026-05-03T08:37:36.999Z</time></trkpt><trkpt lat="44.777275567579075" lon="9.56083056031133"><ele>851.4285714285714</ele><time>2026-05-03T08:37:38.999Z</time></trkpt><trkpt lat="44.77730026758574" lon="9.560742978998736"><ele>851.7142857142857</ele><time>2026-05-03T08:37:41.999Z</time></trkpt><trkpt lat="44.77734258260428" lon="9.560668650114561"><ele>852.0</ele><time>2026-05-03T08:37:45.999Z</time></trkpt><trkpt lat="44.77739423094691" lon="9.560591694049997"><ele>851.9999999999999</ele><time>2026-05-03T08:38:00.998Z</time></trkpt><trkpt lat="44.77744288671966" lon="9.560535313694515"><ele>852.0</ele><time>2026-05-03T08:38:40Z</time></trkpt><trkpt lat="44.77749248771887" lon="9.5604625189584"><ele>852.0</ele><time>2026-05-03T08:39:02.999Z</time></trkpt><trkpt lat="44.77751537124015" lon="9.560373133858963"><ele>852.0</ele><time>2026-05-03T08:39:10.999Z</time></trkpt><trkpt lat="44.7775339887584" lon="9.560283112182514"><ele>852.0</ele><time>2026-05-03T08:39:25.999Z</time></trkpt><trkpt lat="44.77754609985509" lon="9.560182599299855"><ele>851.9999999999999</ele><time>2026-05-03T08:39:32.999Z</time></trkpt><trkpt lat="44.777537604596354" lon="9.560055002479054"><ele>852.0</ele><time>2026-05-03T08:39:37.999Z</time></trkpt><trkpt lat="44.77753789664442" lon="9.559917646378915"><ele>854.0</ele><time>2026-05-03T08:39:39.999Z</time></trkpt><trkpt lat="44.777518291367294" lon="9.559808298361826"><ele>856.0</ele><time>2026-05-03T08:39:41.999Z</time></trkpt><trkpt lat="44.777473321814384" lon="9.559667873298146"><ele>858.0</ele><time>2026-05-03T08:39:43.999Z</time></trkpt><trkpt lat="44.777415205572474" lon="9.559601173549602"><ele>860.0</ele><time>2026-05-03T08:39:45.999Z</time></trkpt><trkpt lat="44.77732463836161" lon="9.559511984813195"><ele>862.0</ele><time>2026-05-03T08:39:47.999Z</time></trkpt><trkpt lat="44.777253340813864" lon="9.559416959042474"><ele>862.0</ele><time>2026-05-03T08:39:49.999Z</time></trkpt><trkpt lat="44.77718209245032" lon="9.559288574526322"><ele>862.0</ele><time>2026-05-03T08:39:51.999Z</time></trkpt><trkpt lat="44.7771286034124" lon="9.559213281868917"><ele>862.0</ele><time>2026-05-03T08:39:53.999Z</time></trkpt><trkpt lat="44.777108746489674" lon="9.55912750489273"><ele>862.0</ele><time>2026-05-03T08:39:56.999Z</time></trkpt><trkpt lat="44.77705106310631" lon="9.559015112106746"><ele>862.0</ele><time>2026-05-03T08:44:32Z</time></trkpt><trkpt lat="44.776999103796506" lon="9.558882972693942"><ele>861.9999999999999</ele><time>2026-05-03T08:44:34Z</time></trkpt><trkpt lat="44.77698325964951" lon="9.558791743537439"><ele>862.0</ele><time>2026-05-03T08:44:36Z</time></trkpt><trkpt lat="44.776912142867424" lon="9.558749438950404"><ele>862.0</ele><time>2026-05-03T08:44:39Z</time></trkpt><trkpt lat="44.776834130759454" lon="9.558699203307565"><ele>862.0</ele><time>2026-05-03T08:44:42Z</time></trkpt><trkpt lat="44.7767993849257" lon="9.558603441219095"><ele>861.9999999999999</ele><time>2026-05-03T08:44:44Z</time></trkpt><trkpt lat="44.776760894366056" lon="9.558494895783308"><ele>862.0</ele><time>2026-05-03T08:44:46Z</time></trkpt><trkpt lat="44.776714058210906" lon="9.558353476794226"><ele>863.8</ele><time>2026-05-03T08:44:48Z</time></trkpt><trkpt lat="44.77669815090494" lon="9.55820848952282"><ele>865.6</ele><time>2026-05-03T08:44:50Z</time></trkpt><trkpt lat="44.77664435185457" lon="9.558045975935391"><ele>867.3999999999999</ele><time>2026-05-03T08:44:52Z</time></trkpt><trkpt lat="44.776590825411304" lon="9.55797560722357"><ele>869.1999999999999</ele><time>2026-05-03T08:44:53Z</time></trkpt><trkpt lat="44.77650042075272" lon="9.557917604290566"><ele>871.0</ele><time>2026-05-03T08:44:54Z</time></trkpt><trkpt lat="44.7764108819168" lon="9.557868083950458"><ele>871.0</ele><time>2026-05-03T08:44:55Z</time></trkpt><trkpt lat="44.776337484050224" lon="9.557841546438953"><ele>871.0</ele><time>2026-05-03T08:44:56Z</time></trkpt><trkpt lat="44.77627371152704" lon="9.557821929746815"><ele>871.0</ele><time>2026-05-03T08:44:57Z</time></trkpt><trkpt lat="44.77616349006729" lon="9.557800689719926"><ele>871.0</ele><time>2026-05-03T08:44:59Z</time></trkpt><trkpt lat="44.776100655904166" lon="9.557789905919432"><ele>871.0</ele><time>2026-05-03T08:45:00Z</time></trkpt><trkpt lat="44.77603711940046" lon="9.557781915106718"><ele>871.0</ele><time>2026-05-03T08:45:01Z</time></trkpt><trkpt lat="44.77597300955035" lon="9.557775563844071"><ele>871.0</ele><time>2026-05-03T08:45:02Z</time></trkpt><trkpt lat="44.775907221244175" lon="9.557765658277216"><ele>873.3333333333333</ele><time>2026-05-03T08:45:03Z</time></trkpt><trkpt lat="44.775837935596186" lon="9.557743076250201"><ele>875.6666666666666</ele><time>2026-05-03T08:45:04Z</time></trkpt><trkpt lat="44.775767885863" lon="9.557716921856878"><ele>878.0</ele><time>2026-05-03T08:45:05Z</time></trkpt><trkpt lat="44.77569714761801" lon="9.55770839718289"><ele>880.3333333333333</ele><time>2026-05-03T08:45:06Z</time></trkpt><trkpt lat="44.775631484868214" lon="9.557719028051917"><ele>882.6666666666666</ele><time>2026-05-03T08:45:07Z</time></trkpt><trkpt lat="44.77552867852081" lon="9.557737963018647"><ele>885.0</ele><time>2026-05-03T08:45:09Z</time></trkpt><trkpt lat="44.77542913828779" lon="9.557730836876745"><ele>885.0</ele><time>2026-05-03T08:45:11Z</time></trkpt><trkpt lat="44.77536306572675" lon="9.55772537971526"><ele>885.0</ele><time>2026-05-03T08:45:13Z</time></trkpt><trkpt lat="44.775309869028234" lon="9.55764027019862"><ele>885.0</ele><time>2026-05-03T08:45:16Z</time></trkpt><trkpt lat="44.775335101667594" lon="9.557555373998914"><ele>885.0</ele><time>2026-05-03T08:45:17Z</time></trkpt><trkpt lat="44.775366057818495" lon="9.557400454705924"><ele>885.0</ele><time>2026-05-03T08:45:19Z</time></trkpt><trkpt lat="44.77538376779982" lon="9.557256465418643"><ele>885.0</ele><time>2026-05-03T08:45:20.999Z</time></trkpt><trkpt lat="44.775378274142845" lon="9.557118752418997"><ele>883.6</ele><time>2026-05-03T08:45:22.999Z</time></trkpt><trkpt lat="44.7753938256461" lon="9.556974690961324"><ele>882.2</ele><time>2026-05-03T08:45:24.999Z</time></trkpt><trkpt lat="44.775416693451994" lon="9.556851438975439"><ele>880.8</ele><time>2026-05-03T08:45:26.999Z</time></trkpt><trkpt lat="44.77542374765181" lon="9.556747377581146"><ele>879.4</ele><time>2026-05-03T08:45:28.999Z</time></trkpt><trkpt lat="44.7754642693139" lon="9.556581548142404"><ele>878.0</ele><time>2026-05-03T08:45:30.999Z</time></trkpt><trkpt lat="44.77548879710958" lon="9.556486139583399"><ele>878.0000000000001</ele><time>2026-05-03T08:45:31.999Z</time></trkpt><trkpt lat="44.77552792484609" lon="9.556379607233694"><ele>878.0</ele><time>2026-05-03T08:45:33.999Z</time></trkpt><trkpt lat="44.77551437563396" lon="9.556276758245268"><ele>878.0</ele><time>2026-05-03T08:45:35.999Z</time></trkpt><trkpt lat="44.77554923786197" lon="9.5561907339965"><ele>878.0</ele><time>2026-05-03T08:45:37.999Z</time></trkpt><trkpt lat="44.7755670595232" lon="9.556083501377875"><ele>878.0000000000001</ele><time>2026-05-03T08:45:40.999Z</time></trkpt><trkpt lat="44.77558666854141" lon="9.555993389162117"><ele>878.0</ele><time>2026-05-03T08:45:41.999Z</time></trkpt><trkpt lat="44.775642796112564" lon="9.555914708136772"><ele>878.1666666666667</ele><time>2026-05-03T08:45:43.999Z</time></trkpt><trkpt lat="44.77570681755329" lon="9.555871019814827"><ele>878.3333333333334</ele><time>2026-05-03T08:45:44.999Z</time></trkpt><trkpt lat="44.77581246010993" lon="9.5557676596552"><ele>878.5</ele><time>2026-05-03T08:45:46.999Z</time></trkpt><trkpt lat="44.77586997995998" lon="9.555724117368321"><ele>878.6666666666667</ele><time>2026-05-03T08:45:47.999Z</time></trkpt><trkpt lat="44.7759408959234" lon="9.555648540808694"><ele>878.8333333333334</ele><time>2026-05-03T08:45:57.999Z</time></trkpt><trkpt lat="44.77602216827206" lon="9.555608365184778"><ele>879.0</ele><time>2026-05-03T08:45:59.999Z</time></trkpt><trkpt lat="44.77613367161015" lon="9.555592033439181"><ele>878.0</ele><time>2026-05-03T08:46:01.999Z</time></trkpt><trkpt lat="44.77617929092865" lon="9.555524419848386"><ele>877.0</ele><time>2026-05-03T08:46:02.999Z</time></trkpt><trkpt lat="44.77621175032119" lon="9.555423211653412"><ele>876.0</ele><time>2026-05-03T08:46:03.999Z</time></trkpt><trkpt lat="44.77624948885766" lon="9.555310299418567"><ele>875.0</ele><time>2026-05-03T08:46:04.999Z</time></trkpt><trkpt lat="44.77630064168586" lon="9.555229915762888"><ele>874.0</ele><time>2026-05-03T08:46:05.999Z</time></trkpt><trkpt lat="44.77633168516247" lon="9.555148410885328"><ele>873.0</ele><time>2026-05-03T08:46:06.999Z</time></trkpt><trkpt lat="44.77634547343557" lon="9.555057603173966"><ele>872.0</ele><time>2026-05-03T08:46:07.999Z</time></trkpt><trkpt lat="44.77641625940717" lon="9.554921620450301"><ele>872.0</ele><time>2026-05-03T08:46:09.999Z</time></trkpt><trkpt lat="44.77646823709136" lon="9.554865531410325"><ele>872.0</ele><time>2026-05-03T08:46:10.999Z</time></trkpt><trkpt lat="44.776563638978125" lon="9.55475189366264"><ele>872.0</ele><time>2026-05-03T08:46:12.999Z</time></trkpt><trkpt lat="44.776666296326006" lon="9.554646940594917"><ele>872.0</ele><time>2026-05-03T08:46:14.999Z</time></trkpt><trkpt lat="44.77672994101095" lon="9.554588897038803"><ele>872.0</ele><time>2026-05-03T08:46:15.999Z</time></trkpt><trkpt lat="44.77679796842374" lon="9.55449481284497"><ele>872.6</ele><time>2026-05-03T08:46:17.998Z</time></trkpt><trkpt lat="44.77688125566246" lon="9.554455396292893"><ele>873.2</ele><time>2026-05-03T08:46:22.998Z</time></trkpt><trkpt lat="44.77697725724414" lon="9.554381088731473"><ele>873.8</ele><time>2026-05-03T08:46:25.998Z</time></trkpt><trkpt lat="44.77708020762941" lon="9.554287189271337"><ele>874.4</ele><time>2026-05-03T08:46:26.998Z</time></trkpt><trkpt lat="44.77712018146391" lon="9.55420678653468"><ele>875.0</ele><time>2026-05-03T08:46:27.998Z</time></trkpt><trkpt lat="44.77718402039721" lon="9.554086033759408"><ele>875.0000000000001</ele><time>2026-05-03T08:46:29.998Z</time></trkpt><trkpt lat="44.77729408800312" lon="9.554035817898068"><ele>875.0</ele><time>2026-05-03T08:46:31.998Z</time></trkpt><trkpt lat="44.77737274291317" lon="9.553995591090949"><ele>875.0</ele><time>2026-05-03T08:46:32.998Z</time></trkpt><trkpt lat="44.777432005969956" lon="9.553935669541815"><ele>875.0</ele><time>2026-05-03T08:46:33.998Z</time></trkpt><trkpt lat="44.7774760474081" lon="9.55385937533433"><ele>875.0000000000001</ele><time>2026-05-03T08:46:34.998Z</time></trkpt><trkpt lat="44.77752074038556" lon="9.553772452187106"><ele>875.0</ele><time>2026-05-03T08:46:36Z</time></trkpt><trkpt lat="44.77756094163365" lon="9.553655908847869"><ele>875.1666666666667</ele><time>2026-05-03T08:46:37Z</time></trkpt><trkpt lat="44.77760714068106" lon="9.55354794256595"><ele>875.3333333333334</ele><time>2026-05-03T08:46:38Z</time></trkpt><trkpt lat="44.777645337172956" lon="9.553444731781784"><ele>875.5</ele><time>2026-05-03T08:46:39Z</time></trkpt><trkpt lat="44.777694146374" lon="9.553359090925746"><ele>875.6666666666667</ele><time>2026-05-03T08:46:40Z</time></trkpt><trkpt lat="44.77773692190712" lon="9.553287774032455"><ele>875.8333333333334</ele><time>2026-05-03T08:46:41Z</time></trkpt><trkpt lat="44.77777869901439" lon="9.55318637915064"><ele>876.0</ele><time>2026-05-03T08:46:43Z</time></trkpt><trkpt lat="44.77780581567498" lon="9.55309517949842"><ele>875.0</ele><time>2026-05-03T08:46:45Z</time></trkpt><trkpt lat="44.77790180347473" lon="9.553072078046396"><ele>873.9999999999999</ele><time>2026-05-03T08:47:43.999Z</time></trkpt><trkpt lat="44.77798508753295" lon="9.55309117982954"><ele>872.9999999999999</ele><time>2026-05-03T08:47:45.999Z</time></trkpt><trkpt lat="44.77812228403534" lon="9.553065671850813"><ele>872.0</ele><time>2026-05-03T08:47:47.999Z</time></trkpt><trkpt lat="44.77821149668623" lon="9.553034962935023"><ele>871.0</ele><time>2026-05-03T08:47:48.999Z</time></trkpt><trkpt lat="44.77831608475635" lon="9.55298324960615"><ele>871.0</ele><time>2026-05-03T08:47:49.999Z</time></trkpt><trkpt lat="44.778429739239265" lon="9.552947327233696"><ele>871.0</ele><time>2026-05-03T08:47:50.999Z</time></trkpt><trkpt lat="44.7785595100362" lon="9.55292554943213"><ele>871.0</ele><time>2026-05-03T08:47:51.999Z</time></trkpt><trkpt lat="44.77870228903396" lon="9.552922634451063"><ele>871.0</ele><time>2026-05-03T08:47:52.999Z</time></trkpt><trkpt lat="44.77882428353253" lon="9.552915770597618"><ele>869.0</ele><time>2026-05-03T08:47:53.999Z</time></trkpt><trkpt lat="44.7789395627664" lon="9.552901448218286"><ele>866.9999999999999</ele><time>2026-05-03T08:47:54.999Z</time></trkpt><trkpt lat="44.77904006803753" lon="9.55284985589552"><ele>864.9999999999999</ele><time>2026-05-03T08:47:55.999Z</time></trkpt><trkpt lat="44.77913898697997" lon="9.552781002766524"><ele>863.0</ele><time>2026-05-03T08:47:56.999Z</time></trkpt><trkpt lat="44.77923114601498" lon="9.552719002028757"><ele>861.0</ele><time>2026-05-03T08:47:57.999Z</time></trkpt><trkpt lat="44.77932314409684" lon="9.552679064028073"><ele>858.3333333333334</ele><time>2026-05-03T08:47:58.999Z</time></trkpt><trkpt lat="44.779404960184124" lon="9.552679333495899"><ele>855.6666666666667</ele><time>2026-05-03T08:47:59.999Z</time></trkpt><trkpt lat="44.77948399373152" lon="9.552712561719085"><ele>853.0</ele><time>2026-05-03T08:48:00.999Z</time></trkpt><trkpt lat="44.7795494481851" lon="9.552793446685321"><ele>850.3333333333334</ele><time>2026-05-03T08:48:01.999Z</time></trkpt><trkpt lat="44.77957934889795" lon="9.552911967086208"><ele>847.6666666666667</ele><time>2026-05-03T08:48:02.999Z</time></trkpt><trkpt lat="44.77957602647539" lon="9.553042655750787"><ele>845.0</ele><time>2026-05-03T08:48:03.999Z</time></trkpt><trkpt lat="44.779537810118256" lon="9.553170791761959"><ele>845.0</ele><time>2026-05-03T08:48:04.999Z</time></trkpt><trkpt lat="44.779473216485464" lon="9.553342724809774"><ele>845.0</ele><time>2026-05-03T08:48:05.999Z</time></trkpt><trkpt lat="44.7794055316974" lon="9.553528647172778"><ele>845.0</ele><time>2026-05-03T08:48:06.999Z</time></trkpt><trkpt lat="44.77935756602259" lon="9.553702016900207"><ele>845.0</ele><time>2026-05-03T08:48:07.999Z</time></trkpt><trkpt lat="44.77934074536637" lon="9.55382017575865"><ele>845.5000000000001</ele><time>2026-05-03T08:48:08.999Z</time></trkpt><trkpt lat="44.77930432528152" lon="9.55391400645482"><ele>846.0</ele><time>2026-05-03T08:48:09.999Z</time></trkpt><trkpt lat="44.77933166038042" lon="9.554058393894168"><ele>846.5</ele><time>2026-05-03T08:48:11.999Z</time></trkpt><trkpt lat="44.779383495267055" lon="9.55411612114276"><ele>847.0</ele><time>2026-05-03T08:48:12.999Z</time></trkpt><trkpt lat="44.77945951278946" lon="9.554149240016075"><ele>847.5000000000001</ele><time>2026-05-03T08:48:13.998Z</time></trkpt><trkpt lat="44.77954839930573" lon="9.55412880214514"><ele>848.0</ele><time>2026-05-03T08:48:14.998Z</time></trkpt><trkpt lat="44.779630627468826" lon="9.554043148856243"><ele>847.25</ele><time>2026-05-03T08:48:15.998Z</time></trkpt><trkpt lat="44.77970643793746" lon="9.55391290880822"><ele>846.5</ele><time>2026-05-03T08:48:16.998Z</time></trkpt><trkpt lat="44.77979431028388" lon="9.553765567461042"><ele>845.75</ele><time>2026-05-03T08:48:17.998Z</time></trkpt><trkpt lat="44.779892771362434" lon="9.553669368773274"><ele>845.0</ele><time>2026-05-03T08:48:18.998Z</time></trkpt><trkpt lat="44.78000411903367" lon="9.553612278817884"><ele>845.0</ele><time>2026-05-03T08:48:19.998Z</time></trkpt><trkpt lat="44.780127318179396" lon="9.553556521706613"><ele>845.0</ele><time>2026-05-03T08:48:20.998Z</time></trkpt><trkpt lat="44.7802386589034" lon="9.553489949274526"><ele>845.0</ele><time>2026-05-03T08:48:21.998Z</time></trkpt><trkpt lat="44.78033769439055" lon="9.553424678217413"><ele>845.0</ele><time>2026-05-03T08:48:22.998Z</time></trkpt><trkpt lat="44.780438739649135" lon="9.553347523932482"><ele>840.8</ele><time>2026-05-03T08:48:23.998Z</time></trkpt><trkpt lat="44.78054208618366" lon="9.553278581548955"><ele>836.6</ele><time>2026-05-03T08:48:24.998Z</time></trkpt><trkpt lat="44.780635341167965" lon="9.55322154941817"><ele>832.4000000000001</ele><time>2026-05-03T08:48:25.998Z</time></trkpt><trkpt lat="44.78070703948795" lon="9.553148615255415"><ele>828.2</ele><time>2026-05-03T08:48:26.998Z</time></trkpt><trkpt lat="44.78077517820934" lon="9.553074233557682"><ele>824.0</ele><time>2026-05-03T08:48:27.998Z</time></trkpt><trkpt lat="44.78082432108588" lon="9.552996491925665"><ele>824.0000000000001</ele><time>2026-05-03T08:48:28.998Z</time></trkpt><trkpt lat="44.7808556640378" lon="9.552912387367865"><ele>824.0</ele><time>2026-05-03T08:48:29.998Z</time></trkpt><trkpt lat="44.78092046695998" lon="9.552834699043391"><ele>824.0</ele><time>2026-05-03T08:48:31.998Z</time></trkpt><trkpt lat="44.780996785055706" lon="9.552908254595158"><ele>824.0</ele><time>2026-05-03T08:48:33.998Z</time></trkpt><trkpt lat="44.7810084518749" lon="9.553065770155902"><ele>824.0000000000001</ele><time>2026-05-03T08:48:35.998Z</time></trkpt><trkpt lat="44.780981457256566" lon="9.55315570677717"><ele>824.0</ele><time>2026-05-03T08:48:36.998Z</time></trkpt><trkpt lat="44.780932156717455" lon="9.553251457237362"><ele>824.0</ele><time>2026-05-03T08:48:37.998Z</time></trkpt><trkpt lat="44.78089170717626" lon="9.553331034106105"><ele>824.0</ele><time>2026-05-03T08:48:38.998Z</time></trkpt><trkpt lat="44.78087592787589" lon="9.553457258895154"><ele>824.0</ele><time>2026-05-03T08:48:40.998Z</time></trkpt><trkpt lat="44.78097858000207" lon="9.55350731320185"><ele>824.0</ele><time>2026-05-03T08:48:43Z</time></trkpt><trkpt lat="44.78105446822794" lon="9.553475753757613"><ele>824.0</ele><time>2026-05-03T08:48:44Z</time></trkpt><trkpt lat="44.78115389894197" lon="9.55339198775473"><ele>818.0</ele><time>2026-05-03T08:48:45Z</time></trkpt><trkpt lat="44.78127797214938" lon="9.553296557728874"><ele>812.0</ele><time>2026-05-03T08:48:46Z</time></trkpt><trkpt lat="44.78142647458315" lon="9.553199806414412"><ele>806.0</ele><time>2026-05-03T08:48:47Z</time></trkpt><trkpt lat="44.78158279063345" lon="9.553130603607324"><ele>806.0</ele><time>2026-05-03T08:48:48Z</time></trkpt><trkpt lat="44.78172672400993" lon="9.553085066484426"><ele>806.0</ele><time>2026-05-03T08:48:49Z</time></trkpt><trkpt lat="44.781864893996406" lon="9.553053545330487"><ele>806.0</ele><time>2026-05-03T08:48:50Z</time></trkpt><trkpt lat="44.78200399308455" lon="9.553017380900732"><ele>806.0</ele><time>2026-05-03T08:48:51Z</time></trkpt><trkpt lat="44.78213965940354" lon="9.55297281022746"><ele>801.6666666666667</ele><time>2026-05-03T08:48:52Z</time></trkpt><trkpt lat="44.782276555287275" lon="9.55292806984375"><ele>797.3333333333333</ele><time>2026-05-03T08:48:53Z</time></trkpt><trkpt lat="44.78241299767934" lon="9.55289015668874"><ele>793.0</ele><time>2026-05-03T08:48:54Z</time></trkpt><trkpt lat="44.7825881086494" lon="9.552851919201844"><ele>790.0</ele><time>2026-05-03T08:48:55Z</time></trkpt><trkpt lat="44.78276694896593" lon="9.55282159257328"><ele>787.0</ele><time>2026-05-03T08:48:56Z</time></trkpt><trkpt lat="44.782923583418224" lon="9.55280241134195"><ele>784.0</ele><time>2026-05-03T08:48:57Z</time></trkpt><trkpt lat="44.78306413320417" lon="9.552769990073585"><ele>784.0</ele><time>2026-05-03T08:48:58Z</time></trkpt><trkpt lat="44.783203556651316" lon="9.552727307711782"><ele>784.0</ele><time>2026-05-03T08:48:59Z</time></trkpt><trkpt lat="44.783343749921556" lon="9.552690729869528"><ele>784.0</ele><time>2026-05-03T08:49:00Z</time></trkpt><trkpt lat="44.783488935444595" lon="9.552669991125235"><ele>784.0</ele><time>2026-05-03T08:49:01Z</time></trkpt><trkpt lat="44.78363695000518" lon="9.55264609147441"><ele>783.0</ele><time>2026-05-03T08:49:02Z</time></trkpt><trkpt lat="44.783782279113" lon="9.552629724919337"><ele>782.0</ele><time>2026-05-03T08:49:03Z</time></trkpt><trkpt lat="44.783923877985686" lon="9.552620633059906"><ele>781.0</ele><time>2026-05-03T08:49:04Z</time></trkpt><trkpt lat="44.78405647700216" lon="9.552603476291319"><ele>780.0</ele><time>2026-05-03T08:49:05Z</time></trkpt><trkpt lat="44.78418683926443" lon="9.552592102337838"><ele>780.0</ele><time>2026-05-03T08:49:06Z</time></trkpt><trkpt lat="44.78430041886963" lon="9.552569906812876"><ele>780.0</ele><time>2026-05-03T08:49:07Z</time></trkpt><trkpt lat="44.78436367365618" lon="9.552544852670662"><ele>780.0</ele><time>2026-05-03T08:49:08Z</time></trkpt><trkpt lat="44.78442601024183" lon="9.552497442607935"><ele>780.0</ele><time>2026-05-03T08:49:11Z</time></trkpt><trkpt lat="44.78438567472595" lon="9.552391495124146"><ele>780.0</ele><time>2026-05-03T08:49:13Z</time></trkpt><trkpt lat="44.784318429507096" lon="9.552338188445638"><ele>780.0</ele><time>2026-05-03T08:49:14Z</time></trkpt><trkpt lat="44.78427065548541" lon="9.552231452746907"><ele>780.0</ele><time>2026-05-03T08:49:16Z</time></trkpt><trkpt lat="44.784330984691785" lon="9.552114463002397"><ele>780.0</ele><time>2026-05-03T08:49:18Z</time></trkpt><trkpt lat="44.78437506777469" lon="9.552040244610673"><ele>780.0</ele><time>2026-05-03T08:49:19Z</time></trkpt><trkpt lat="44.784396172313805" lon="9.551899286874521"><ele>780.0</ele><time>2026-05-03T08:49:21Z</time></trkpt><trkpt lat="44.784487147693355" lon="9.55187610626142"><ele>780.0</ele><time>2026-05-03T08:49:23Z</time></trkpt><trkpt lat="44.7846151914331" lon="9.551886309140702"><ele>779.2</ele><time>2026-05-03T08:49:25Z</time></trkpt><trkpt lat="44.784702728363584" lon="9.55183727127706"><ele>778.4</ele><time>2026-05-03T08:49:27Z</time></trkpt><trkpt lat="44.78475777168678" lon="9.551780839988416"><ele>777.5999999999999</ele><time>2026-05-03T08:49:44.999Z</time></trkpt><trkpt lat="44.78486701090748" lon="9.551743298316774"><ele>776.8</ele><time>2026-05-03T08:49:46.999Z</time></trkpt><trkpt lat="44.78496119428642" lon="9.551726764173992"><ele>776.0</ele><time>2026-05-03T08:49:48.999Z</time></trkpt><trkpt lat="44.785049301881" lon="9.551648344456291"><ele>776.0000000000001</ele><time>2026-05-03T08:49:50.999Z</time></trkpt><trkpt lat="44.78510910495123" lon="9.551619430487547"><ele>776.0</ele><time>2026-05-03T08:49:51.999Z</time></trkpt><trkpt lat="44.785177693679366" lon="9.551621906636294"><ele>776.0</ele><time>2026-05-03T08:49:52.999Z</time></trkpt><trkpt lat="44.785265580672224" lon="9.551606540796465"><ele>776.0</ele><time>2026-05-03T08:49:54.999Z</time></trkpt><trkpt lat="44.785370060086315" lon="9.551610476806369"><ele>776.0000000000001</ele><time>2026-05-03T08:49:56.999Z</time></trkpt><trkpt lat="44.785461920265256" lon="9.551625414379508"><ele>776.0</ele><time>2026-05-03T08:49:58.999Z</time></trkpt><trkpt lat="44.78552631680343" lon="9.551622990101272"><ele>774.5000000000001</ele><time>2026-05-03T08:49:59.999Z</time></trkpt><trkpt lat="44.78560425623595" lon="9.551634252860786"><ele>773.0</ele><time>2026-05-03T08:50:00.999Z</time></trkpt><trkpt lat="44.785666184911264" lon="9.551655837537213"><ele>771.5</ele><time>2026-05-03T08:50:01.999Z</time></trkpt><trkpt lat="44.785729941334814" lon="9.551691621615674"><ele>770.0</ele><time>2026-05-03T08:50:03.999Z</time></trkpt><trkpt lat="44.78585309314194" lon="9.55168439781906"><ele>768.5</ele><time>2026-05-03T08:50:05.999Z</time></trkpt><trkpt lat="44.7859411918031" lon="9.551684158771568"><ele>767.0</ele><time>2026-05-03T08:50:06.999Z</time></trkpt><trkpt lat="44.78604123651434" lon="9.551711620025397"><ele>766.0</ele><time>2026-05-03T08:50:08.999Z</time></trkpt><trkpt lat="44.786109142159845" lon="9.551742756138214"><ele>765.0</ele><time>2026-05-03T08:50:10.999Z</time></trkpt><trkpt lat="44.786218885817725" lon="9.551744137735339"><ele>764.0</ele><time>2026-05-03T08:50:12.999Z</time></trkpt><trkpt lat="44.78629319987274" lon="9.551743331791949"><ele>763.0</ele><time>2026-05-03T08:50:13.999Z</time></trkpt><trkpt lat="44.78636685721875" lon="9.55174860859697"><ele>762.0</ele><time>2026-05-03T08:50:14.999Z</time></trkpt><trkpt lat="44.78645715483194" lon="9.551791577206513"><ele>761.0</ele><time>2026-05-03T08:50:16.999Z</time></trkpt><trkpt lat="44.78653520794228" lon="9.551783586054734"><ele>761.0</ele><time>2026-05-03T08:50:18.999Z</time></trkpt><trkpt lat="44.7865976840226" lon="9.551749406428042"><ele>761.0</ele><time>2026-05-03T08:50:20.999Z</time></trkpt><trkpt lat="44.7866315287337" lon="9.551662222618356"><ele>761.0</ele><time>2026-05-03T08:50:22.999Z</time></trkpt><trkpt lat="44.78669201741284" lon="9.551577196785212"><ele>761.0</ele><time>2026-05-03T08:50:24.998Z</time></trkpt><trkpt lat="44.78681120490102" lon="9.55150657690593"><ele>761.0</ele><time>2026-05-03T08:50:26.998Z</time></trkpt><trkpt lat="44.78687957898611" lon="9.551493750914068"><ele>761.0</ele><time>2026-05-03T08:50:27.998Z</time></trkpt><trkpt lat="44.78694555584907" lon="9.551508533523105"><ele>760.8</ele><time>2026-05-03T08:50:28.998Z</time></trkpt><trkpt lat="44.78704209253307" lon="9.55154281169298"><ele>760.5999999999999</ele><time>2026-05-03T08:50:30.998Z</time></trkpt><trkpt lat="44.7871215285607" lon="9.551601698732584"><ele>760.4</ele><time>2026-05-03T08:50:33.998Z</time></trkpt><trkpt lat="44.78719055284995" lon="9.551618754040934"><ele>760.2</ele><time>2026-05-03T08:50:35.998Z</time></trkpt><trkpt lat="44.78728553224191" lon="9.551582617533812"><ele>760.0</ele><time>2026-05-03T08:50:37.998Z</time></trkpt><trkpt lat="44.787377829839116" lon="9.55152492373073"><ele>760.0</ele><time>2026-05-03T08:50:54Z</time></trkpt><trkpt lat="44.78743912110231" lon="9.551491610139935"><ele>760.0</ele><time>2026-05-03T08:50:55Z</time></trkpt><trkpt lat="44.7875236964401" lon="9.551450972664957"><ele>760.0</ele><time>2026-05-03T08:50:56Z</time></trkpt><trkpt lat="44.787600791045804" lon="9.551385996135567"><ele>760.0</ele><time>2026-05-03T08:50:57Z</time></trkpt><trkpt lat="44.78768944675868" lon="9.551294862447405"><ele>760.0</ele><time>2026-05-03T08:50:58Z</time></trkpt><trkpt lat="44.78776094512308" lon="9.55123902724556"><ele>760.0</ele><time>2026-05-03T08:50:59Z</time></trkpt><trkpt lat="44.7878272399214" lon="9.551200841898003"><ele>761.6666666666667</ele><time>2026-05-03T08:51:00Z</time></trkpt><trkpt lat="44.787927752069635" lon="9.551089130533603"><ele>763.3333333333334</ele><time>2026-05-03T08:51:02Z</time></trkpt><trkpt lat="44.78798181752361" lon="9.55101385015686"><ele>765.0</ele><time>2026-05-03T08:51:03Z</time></trkpt><trkpt lat="44.788034643011976" lon="9.55095441243976"><ele>766.6666666666667</ele><time>2026-05-03T08:51:04Z</time></trkpt><trkpt lat="44.788085692613144" lon="9.550894401283303"><ele>768.3333333333334</ele><time>2026-05-03T08:51:05Z</time></trkpt><trkpt lat="44.78814459992196" lon="9.55084252551764"><ele>770.0</ele><time>2026-05-03T08:51:06Z</time></trkpt><trkpt lat="44.78820365337883" lon="9.550787668500206"><ele>770.0000000000001</ele><time>2026-05-03T08:51:07Z</time></trkpt><trkpt lat="44.78826915143986" lon="9.550736318290147"><ele>770.0</ele><time>2026-05-03T08:51:08Z</time></trkpt><trkpt lat="44.78833397108805" lon="9.550678854036224"><ele>770.0</ele><time>2026-05-03T08:51:09Z</time></trkpt><trkpt lat="44.78839835303902" lon="9.550617473411615"><ele>770.0</ele><time>2026-05-03T08:51:10Z</time></trkpt><trkpt lat="44.788471736992534" lon="9.55054219909418"><ele>770.0000000000001</ele><time>2026-05-03T08:51:11Z</time></trkpt><trkpt lat="44.78854650500837" lon="9.550487310278413"><ele>770.0</ele><time>2026-05-03T08:51:12Z</time></trkpt><trkpt lat="44.78862674099971" lon="9.550455745572426"><ele>770.3333333333334</ele><time>2026-05-03T08:51:13Z</time></trkpt><trkpt lat="44.78870020812361" lon="9.55043103038462"><ele>770.6666666666667</ele><time>2026-05-03T08:51:14Z</time></trkpt><trkpt lat="44.788758114035566" lon="9.550396179614973"><ele>771.0</ele><time>2026-05-03T08:51:15Z</time></trkpt><trkpt lat="44.78880782270499" lon="9.550337892479964"><ele>771.3333333333333</ele><time>2026-05-03T08:51:16Z</time></trkpt><trkpt lat="44.78886869047579" lon="9.55026699920815"><ele>771.6666666666666</ele><time>2026-05-03T08:51:17Z</time></trkpt><trkpt lat="44.788943349023675" lon="9.550191461492156"><ele>772.0</ele><time>2026-05-03T08:51:18Z</time></trkpt><trkpt lat="44.78902471191177" lon="9.550129892116516"><ele>772.0</ele><time>2026-05-03T08:51:19Z</time></trkpt><trkpt lat="44.789104321599005" lon="9.550080522455803"><ele>772.0</ele><time>2026-05-03T08:51:20Z</time></trkpt><trkpt lat="44.78917314098947" lon="9.55003262266181"><ele>772.0</ele><time>2026-05-03T08:51:21Z</time></trkpt><trkpt lat="44.789233082937066" lon="9.549988856258537"><ele>772.0</ele><time>2026-05-03T08:51:22Z</time></trkpt><trkpt lat="44.78936251566023" lon="9.549933986816203"><ele>772.0</ele><time>2026-05-03T08:51:24Z</time></trkpt><trkpt lat="44.78944897033039" lon="9.549917219342856"><ele>771.6</ele><time>2026-05-03T08:51:25Z</time></trkpt><trkpt lat="44.789538174354995" lon="9.549868783454022"><ele>771.2</ele><time>2026-05-03T08:51:26Z</time></trkpt><trkpt lat="44.78963020670862" lon="9.549819731541396"><ele>770.8</ele><time>2026-05-03T08:51:27Z</time></trkpt><trkpt lat="44.78972896915225" lon="9.549782628666607"><ele>770.4</ele><time>2026-05-03T08:51:28Z</time></trkpt><trkpt lat="44.78980355058487" lon="9.549777280973855"><ele>770.0</ele><time>2026-05-03T08:51:28.999Z</time></trkpt><trkpt lat="44.789921079831856" lon="9.54981185981521"><ele>770.0</ele><time>2026-05-03T08:51:30.999Z</time></trkpt><trkpt lat="44.78998830688821" lon="9.549822519282426"><ele>770.0</ele><time>2026-05-03T08:51:31.999Z</time></trkpt><trkpt lat="44.79005318589802" lon="9.549779708691263"><ele>770.0</ele><time>2026-05-03T08:51:32.999Z</time></trkpt><trkpt lat="44.79010904970471" lon="9.549694448998862"><ele>770.0</ele><time>2026-05-03T08:51:33.999Z</time></trkpt><trkpt lat="44.79016162904074" lon="9.549613336692166"><ele>770.0</ele><time>2026-05-03T08:51:34.999Z</time></trkpt><trkpt lat="44.79021105184762" lon="9.54954479669562"><ele>770.0</ele><time>2026-05-03T08:51:35.999Z</time></trkpt><trkpt lat="44.790270510087836" lon="9.549500447455255"><ele>770.0</ele><time>2026-05-03T08:51:36.999Z</time></trkpt><trkpt lat="44.79036623285377" lon="9.549466010168919"><ele>768.8</ele><time>2026-05-03T08:51:37.999Z</time></trkpt><trkpt lat="44.790472624533905" lon="9.549436901009585"><ele>767.6</ele><time>2026-05-03T08:51:38.999Z</time></trkpt><trkpt lat="44.79054406638021" lon="9.549430547499854"><ele>766.4000000000001</ele><time>2026-05-03T08:51:39.999Z</time></trkpt><trkpt lat="44.79065673240548" lon="9.549436637124977"><ele>765.2</ele><time>2026-05-03T08:51:41.999Z</time></trkpt><trkpt lat="44.79075032563503" lon="9.549382881615147"><ele>764.0</ele><time>2026-05-03T08:51:42.999Z</time></trkpt><trkpt lat="44.79084588481756" lon="9.549301713077087"><ele>764.0</ele><time>2026-05-03T08:51:43.999Z</time></trkpt><trkpt lat="44.79093135623231" lon="9.549253782346863"><ele>764.0</ele><time>2026-05-03T08:51:44.999Z</time></trkpt><trkpt lat="44.791014538348485" lon="9.549218859988855"><ele>764.0</ele><time>2026-05-03T08:51:45.999Z</time></trkpt><trkpt lat="44.79109624963964" lon="9.549176960466252"><ele>764.0</ele><time>2026-05-03T08:51:46.999Z</time></trkpt><trkpt lat="44.79118335849754" lon="9.549162758104439"><ele>764.0</ele><time>2026-05-03T08:51:47.999Z</time></trkpt><trkpt lat="44.79125562890633" lon="9.549129550437003"><ele>764.0</ele><time>2026-05-03T08:51:48.999Z</time></trkpt><trkpt lat="44.79131191742442" lon="9.549078644747913"><ele>766.6</ele><time>2026-05-03T08:51:49.999Z</time></trkpt><trkpt lat="44.79136874917663" lon="9.549017583010265"><ele>769.2</ele><time>2026-05-03T08:51:50.999Z</time></trkpt><trkpt lat="44.79143866260692" lon="9.548977481241199"><ele>771.8000000000001</ele><time>2026-05-03T08:51:51.999Z</time></trkpt><trkpt lat="44.791506234220755" lon="9.548938096378745"><ele>774.4000000000001</ele><time>2026-05-03T08:51:52.999Z</time></trkpt><trkpt lat="44.791614563854424" lon="9.548876608294634"><ele>777.0</ele><time>2026-05-03T08:51:54.999Z</time></trkpt><trkpt lat="44.79172022840364" lon="9.548803924422645"><ele>777.0</ele><time>2026-05-03T08:51:56.999Z</time></trkpt><trkpt lat="44.79181342734824" lon="9.548864584610756"><ele>777.0</ele><time>2026-05-03T08:51:58.999Z</time></trkpt><trkpt lat="44.79195056373219" lon="9.548890028377972"><ele>777.0</ele><time>2026-05-03T08:52:00.999Z</time></trkpt><trkpt lat="44.79205522307765" lon="9.54887659743683"><ele>777.0</ele><time>2026-05-03T08:52:01.999Z</time></trkpt><trkpt lat="44.792144177999816" lon="9.548897388740786"><ele>777.0</ele><time>2026-05-03T08:52:02.999Z</time></trkpt><trkpt lat="44.792211294260106" lon="9.548940298091066"><ele>778.8333333333334</ele><time>2026-05-03T08:52:03.999Z</time></trkpt><trkpt lat="44.792285426347384" lon="9.548959226314198"><ele>780.6666666666667</ele><time>2026-05-03T08:52:04.999Z</time></trkpt><trkpt lat="44.792363882761215" lon="9.548966799931076"><ele>782.5</ele><time>2026-05-03T08:52:05.999Z</time></trkpt><trkpt lat="44.7924362611864" lon="9.548947301432486"><ele>784.3333333333334</ele><time>2026-05-03T08:52:06.999Z</time></trkpt><trkpt lat="44.792508203511225" lon="9.548918592010184"><ele>786.1666666666667</ele><time>2026-05-03T08:52:07.999Z</time></trkpt><trkpt lat="44.79257422766712" lon="9.548916411172623"><ele>788.0</ele><time>2026-05-03T08:52:08.999Z</time></trkpt><trkpt lat="44.792659185758374" lon="9.548935759388732"><ele>790.1666666666667</ele><time>2026-05-03T08:52:09.999Z</time></trkpt><trkpt lat="44.79274279807274" lon="9.548954673679242"><ele>792.3333333333334</ele><time>2026-05-03T08:52:10.999Z</time></trkpt><trkpt lat="44.79280995889506" lon="9.548981282933507"><ele>794.5</ele><time>2026-05-03T08:52:11.999Z</time></trkpt><trkpt lat="44.7928719654819" lon="9.549027207658355"><ele>796.6666666666667</ele><time>2026-05-03T08:52:12.999Z</time></trkpt><trkpt lat="44.79296923880494" lon="9.549026831986795"><ele>798.8333333333334</ele><time>2026-05-03T08:52:14.999Z</time></trkpt><trkpt lat="44.793039521346024" lon="9.549006210208747"><ele>801.0</ele><time>2026-05-03T08:52:15.999Z</time></trkpt><trkpt lat="44.793146866781086" lon="9.549020011923947"><ele>801.0</ele><time>2026-05-03T08:52:17.999Z</time></trkpt><trkpt lat="44.793233729449966" lon="9.54909404895343"><ele>801.0</ele><time>2026-05-03T08:52:19.999Z</time></trkpt><trkpt lat="44.79328535889721" lon="9.549257174386849"><ele>801.0</ele><time>2026-05-03T08:52:21.999Z</time></trkpt><trkpt lat="44.793303882266635" lon="9.549345006640907"><ele>801.0</ele><time>2026-05-03T08:52:22.999Z</time></trkpt><trkpt lat="44.793378372631636" lon="9.549440600028417"><ele>801.0</ele><time>2026-05-03T08:52:24.998Z</time></trkpt><trkpt lat="44.79344605400288" lon="9.54943993696813"><ele>803.5999999999999</ele><time>2026-05-03T08:52:25.998Z</time></trkpt><trkpt lat="44.79356088650975" lon="9.549407610466037"><ele>806.2</ele><time>2026-05-03T08:52:27.998Z</time></trkpt><trkpt lat="44.79363845207276" lon="9.549421541171364"><ele>808.8</ele><time>2026-05-03T08:52:28.998Z</time></trkpt><trkpt lat="44.79372820143432" lon="9.549438107393255"><ele>811.4000000000001</ele><time>2026-05-03T08:52:30.998Z</time></trkpt><trkpt lat="44.79377632641988" lon="9.549553915298086"><ele>814.0</ele><time>2026-05-03T08:52:32.998Z</time></trkpt><trkpt lat="44.79384078286876" lon="9.549675220536754"><ele>815.3333333333333</ele><time>2026-05-03T08:52:34.998Z</time></trkpt><trkpt lat="44.7939013187636" lon="9.549704772549385"><ele>816.6666666666666</ele><time>2026-05-03T08:52:35.998Z</time></trkpt><trkpt lat="44.7940257638426" lon="9.549747797851447"><ele>818.0</ele><time>2026-05-03T08:52:37.998Z</time></trkpt><trkpt lat="44.79409393483941" lon="9.54978334508033"><ele>819.3333333333333</ele><time>2026-05-03T08:52:38.998Z</time></trkpt><trkpt lat="44.79416560933084" lon="9.5497945661701"><ele>820.6666666666666</ele><time>2026-05-03T08:52:39.998Z</time></trkpt><trkpt lat="44.79422265315305" lon="9.549838139810253"><ele>822.0</ele><time>2026-05-03T08:52:40.998Z</time></trkpt><trkpt lat="44.794238969028534" lon="9.549959462668912"><ele>822.0</ele><time>2026-05-03T08:52:42.998Z</time></trkpt><trkpt lat="44.79431885541845" lon="9.550008987625649"><ele>822.0</ele><time>2026-05-03T08:52:44.998Z</time></trkpt><trkpt lat="44.79442092119265" lon="9.549994491344421"><ele>822.0</ele><time>2026-05-03T08:52:46.998Z</time></trkpt><trkpt lat="44.794489777739486" lon="9.549937586249053"><ele>822.0</ele><time>2026-05-03T08:52:47.998Z</time></trkpt><trkpt lat="44.794562999050655" lon="9.54990015507427"><ele>822.0</ele><time>2026-05-03T08:52:48.998Z</time></trkpt><trkpt lat="44.79467542170933" lon="9.549934172929808"><ele>824.5</ele><time>2026-05-03T08:52:50.998Z</time></trkpt><trkpt lat="44.79473325688609" lon="9.549985550045488"><ele>827.0</ele><time>2026-05-03T08:52:51.998Z</time></trkpt><trkpt lat="44.79482594592771" lon="9.54995373241912"><ele>829.5</ele><time>2026-05-03T08:52:54Z</time></trkpt><trkpt lat="44.794934253456354" lon="9.549970850555708"><ele>832.0</ele><time>2026-05-03T08:52:56Z</time></trkpt><trkpt lat="44.79498663802819" lon="9.550027441302333"><ele>834.5</ele><time>2026-05-03T08:52:57Z</time></trkpt><trkpt lat="44.79506820495721" lon="9.55007529106478"><ele>837.0</ele><time>2026-05-03T08:52:59Z</time></trkpt><trkpt lat="44.7951321248748" lon="9.55005726755527"><ele>838.1666666666666</ele><time>2026-05-03T08:53:00Z</time></trkpt><trkpt lat="44.79521991943967" lon="9.550065615140575"><ele>839.3333333333333</ele><time>2026-05-03T08:53:02Z</time></trkpt><trkpt lat="44.795271279206865" lon="9.55011750560654"><ele>840.5</ele><time>2026-05-03T08:53:03Z</time></trkpt><trkpt lat="44.79534790662823" lon="9.550147635353714"><ele>841.6666666666666</ele><time>2026-05-03T08:53:04Z</time></trkpt><trkpt lat="44.795423086998795" lon="9.550137144280397"><ele>842.8333333333333</ele><time>2026-05-03T08:53:05Z</time></trkpt><trkpt lat="44.79550436431936" lon="9.550162534243169"><ele>844.0</ele><time>2026-05-03T08:53:07Z</time></trkpt><trkpt lat="44.79558826695072" lon="9.550132744752622"><ele>843.9999999999999</ele><time>2026-05-03T08:53:10Z</time></trkpt><trkpt lat="44.795685784105636" lon="9.550199472730174"><ele>844.0</ele><time>2026-05-03T08:53:12Z</time></trkpt><trkpt lat="44.79572476231038" lon="9.550274294399385"><ele>844.0</ele><time>2026-05-03T08:53:13Z</time></trkpt><trkpt lat="44.7957779429215" lon="9.55033977138383"><ele>844.0</ele><time>2026-05-03T08:53:15Z</time></trkpt><trkpt lat="44.79582055699436" lon="9.550414709054309"><ele>843.9999999999999</ele><time>2026-05-03T08:53:20Z</time></trkpt><trkpt lat="44.79585600866097" lon="9.550517560679799"><ele>844.0</ele><time>2026-05-03T08:53:24Z</time></trkpt><trkpt lat="44.795900688563734" lon="9.550602067246666"><ele>843.8333333333333</ele><time>2026-05-03T08:53:27Z</time></trkpt><trkpt lat="44.795916495493756" lon="9.550690908098925"><ele>843.6666666666666</ele><time>2026-05-03T08:53:29Z</time></trkpt><trkpt lat="44.79597669370462" lon="9.550785621495608"><ele>843.5</ele><time>2026-05-03T08:53:31Z</time></trkpt><trkpt lat="44.79599513451429" lon="9.550877847044104"><ele>843.3333333333333</ele><time>2026-05-03T08:53:36Z</time></trkpt><trkpt lat="44.796029693278115" lon="9.55097088316547"><ele>843.1666666666666</ele><time>2026-05-03T08:53:38Z</time></trkpt><trkpt lat="44.79606293946912" lon="9.551052942190328"><ele>843.0</ele><time>2026-05-03T08:53:39.999Z</time></trkpt><trkpt lat="44.79608675632862" lon="9.551234699810697"><ele>843.0</ele><time>2026-05-03T08:54:04.999Z</time></trkpt><trkpt lat="44.79607112227539" lon="9.551349447432797"><ele>843.0</ele><time>2026-05-03T08:54:05.999Z</time></trkpt><trkpt lat="44.796078958653666" lon="9.55148066474457"><ele>843.0</ele><time>2026-05-03T08:54:06.999Z</time></trkpt><trkpt lat="44.796086637880485" lon="9.551638824867085"><ele>843.0</ele><time>2026-05-03T08:54:08.999Z</time></trkpt><trkpt lat="44.79613825709567" lon="9.551690042809472"><ele>843.0</ele><time>2026-05-03T08:54:12.999Z</time></trkpt><trkpt lat="44.79615614415159" lon="9.551821335380168"><ele>843.0</ele><time>2026-05-03T08:54:14.999Z</time></trkpt><trkpt lat="44.796217049682646" lon="9.551997381282964"><ele>843.8333333333334</ele><time>2026-05-03T08:54:16.999Z</time></trkpt><trkpt lat="44.79626192481702" lon="9.552091396179058"><ele>844.6666666666667</ele><time>2026-05-03T08:54:17.999Z</time></trkpt><trkpt lat="44.79629415989714" lon="9.552193165861468"><ele>845.5</ele><time>2026-05-03T08:54:18.999Z</time></trkpt><trkpt lat="44.79633156574116" lon="9.55230715538741"><ele>846.3333333333334</ele><time>2026-05-03T08:54:20.999Z</time></trkpt><trkpt lat="44.79634055396793" lon="9.552398334553821"><ele>847.1666666666667</ele><time>2026-05-03T08:54:21.999Z</time></trkpt><trkpt lat="44.79638632674798" lon="9.552559369903342"><ele>848.0</ele><time>2026-05-03T08:54:23.999Z</time></trkpt><trkpt lat="44.79640253732644" lon="9.552680014614388"><ele>848.0</ele><time>2026-05-03T08:54:24.999Z</time></trkpt><trkpt lat="44.79642659543151" lon="9.552814347554628"><ele>848.0</ele><time>2026-05-03T08:54:25.999Z</time></trkpt><trkpt lat="44.796460498466466" lon="9.552937579629008"><ele>848.0</ele><time>2026-05-03T08:54:26.999Z</time></trkpt><trkpt lat="44.796507968802864" lon="9.553051568510307"><ele>848.0</ele><time>2026-05-03T08:54:27.999Z</time></trkpt><trkpt lat="44.79653154898232" lon="9.553160764713757"><ele>848.0</ele><time>2026-05-03T08:54:28.999Z</time></trkpt><trkpt lat="44.79654471516419" lon="9.553277881364231"><ele>847.5999999999999</ele><time>2026-05-03T08:54:29.999Z</time></trkpt><trkpt lat="44.79659634896268" lon="9.553401559508258"><ele>847.1999999999999</ele><time>2026-05-03T08:54:31.999Z</time></trkpt><trkpt lat="44.7965990978622" lon="9.553568299388987"><ele>846.8</ele><time>2026-05-03T08:54:34.999Z</time></trkpt><trkpt lat="44.79661197457925" lon="9.553675216572787"><ele>846.4</ele><time>2026-05-03T08:54:35.998Z</time></trkpt><trkpt lat="44.79666355346572" lon="9.553794219486905"><ele>846.0</ele><time>2026-05-03T08:54:36.998Z</time></trkpt><trkpt lat="44.79670410955324" lon="9.553874430938938"><ele>845.1999999999999</ele><time>2026-05-03T08:54:37.998Z</time></trkpt><trkpt lat="44.79671394681666" lon="9.554025775610105"><ele>844.4</ele><time>2026-05-03T08:54:39.998Z</time></trkpt><trkpt lat="44.796741605727306" lon="9.554160586720377"><ele>843.6</ele><time>2026-05-03T08:54:40.998Z</time></trkpt><trkpt lat="44.796775515233314" lon="9.554274292268099"><ele>842.8</ele><time>2026-05-03T08:54:41.998Z</time></trkpt><trkpt lat="44.79682803319312" lon="9.554373084383869"><ele>842.0</ele><time>2026-05-03T08:54:42.998Z</time></trkpt><trkpt lat="44.796892480498606" lon="9.554437463637491"><ele>842.3333333333334</ele><time>2026-05-03T08:54:43.998Z</time></trkpt><trkpt lat="44.796983761943764" lon="9.554501879780068"><ele>842.6666666666667</ele><time>2026-05-03T08:54:44.998Z</time></trkpt><trkpt lat="44.79706979822139" lon="9.554569205226631"><ele>843.0</ele><time>2026-05-03T08:54:45.998Z</time></trkpt><trkpt lat="44.797131476584795" lon="9.554626661427095"><ele>843.3333333333333</ele><time>2026-05-03T08:54:46.998Z</time></trkpt><trkpt lat="44.79717715473529" lon="9.554703419619827"><ele>843.6666666666666</ele><time>2026-05-03T08:54:48.998Z</time></trkpt><trkpt lat="44.79720235754543" lon="9.554805943901401"><ele>844.0</ele><time>2026-05-03T08:54:50.998Z</time></trkpt><trkpt lat="44.7973465879282" lon="9.554855241656547"><ele>843.9999999999999</ele><time>2026-05-03T08:54:52.998Z</time></trkpt><trkpt lat="44.797399216163605" lon="9.554911978431958"><ele>844.0</ele><time>2026-05-03T08:54:53.998Z</time></trkpt><trkpt lat="44.79746617632241" lon="9.555032517316095"><ele>844.0</ele><time>2026-05-03T08:54:55.998Z</time></trkpt><trkpt lat="44.797539986442565" lon="9.555078462041429"><ele>844.0</ele><time>2026-05-03T08:54:56.998Z</time></trkpt><trkpt lat="44.79762779491893" lon="9.555113074280447"><ele>843.9999999999999</ele><time>2026-05-03T08:54:57.998Z</time></trkpt><trkpt lat="44.79770497558999" lon="9.555158968556203"><ele>844.0</ele><time>2026-05-03T08:54:58.998Z</time></trkpt><trkpt lat="44.79776267476862" lon="9.555218733792096"><ele>844.2</ele><time>2026-05-03T08:55:00Z</time></trkpt><trkpt lat="44.797839066484315" lon="9.555275052392949"><ele>844.4000000000001</ele><time>2026-05-03T08:55:01Z</time></trkpt><trkpt lat="44.79791450104126" lon="9.555348724423451"><ele>844.6</ele><time>2026-05-03T08:55:03Z</time></trkpt><trkpt lat="44.79804558291885" lon="9.555436661147134"><ele>844.8</ele><time>2026-05-03T08:55:05Z</time></trkpt><trkpt lat="44.79813029197264" lon="9.555452143392076"><ele>845.0</ele><time>2026-05-03T08:55:06Z</time></trkpt><trkpt lat="44.798235256944714" lon="9.555466707115249"><ele>844.0</ele><time>2026-05-03T08:55:08Z</time></trkpt><trkpt lat="44.79829653620438" lon="9.555488370874908"><ele>843.0</ele><time>2026-05-03T08:55:09Z</time></trkpt><trkpt lat="44.79835601747326" lon="9.55551745699542"><ele>842.0</ele><time>2026-05-03T08:55:10Z</time></trkpt><trkpt lat="44.79846289038306" lon="9.555543685798742"><ele>841.0</ele><time>2026-05-03T08:55:12Z</time></trkpt><trkpt lat="44.79856638646345" lon="9.555463761688566"><ele>840.0</ele><time>2026-05-03T08:55:14Z</time></trkpt><trkpt lat="44.79865626220047" lon="9.555406739470397"><ele>840.0</ele><time>2026-05-03T08:55:16Z</time></trkpt><trkpt lat="44.79873661241672" lon="9.555372484689684"><ele>840.0</ele><time>2026-05-03T08:55:17Z</time></trkpt><trkpt lat="44.79881710237253" lon="9.555350835754648"><ele>840.0</ele><time>2026-05-03T08:55:18Z</time></trkpt><trkpt lat="44.79889162746914" lon="9.555352387453972"><ele>840.0</ele><time>2026-05-03T08:55:19Z</time></trkpt><trkpt lat="44.7989657081586" lon="9.555352358491161"><ele>840.0</ele><time>2026-05-03T08:55:20Z</time></trkpt><trkpt lat="44.79906660332865" lon="9.555335746084252"><ele>840.0</ele><time>2026-05-03T08:55:22Z</time></trkpt><trkpt lat="44.7991636891342" lon="9.555261964133123"><ele>839.2</ele><time>2026-05-03T08:55:24Z</time></trkpt><trkpt lat="44.799230976742294" lon="9.55525431745408"><ele>838.4</ele><time>2026-05-03T08:55:25Z</time></trkpt><trkpt lat="44.799324757448474" lon="9.555229466475293"><ele>837.5999999999999</ele><time>2026-05-03T08:55:26Z</time></trkpt><trkpt lat="44.79941751180389" lon="9.555192692470179"><ele>836.8</ele><time>2026-05-03T08:55:27Z</time></trkpt><trkpt lat="44.799564506344296" lon="9.555162858895555"><ele>836.0</ele><time>2026-05-03T08:55:29Z</time></trkpt><trkpt lat="44.79965171259272" lon="9.555165273447699"><ele>834.3333333333334</ele><time>2026-05-03T08:55:30Z</time></trkpt><trkpt lat="44.799723071899564" lon="9.555184190687772"><ele>832.6666666666667</ele><time>2026-05-03T08:55:31Z</time></trkpt><trkpt lat="44.799786624143536" lon="9.555187199528614"><ele>831.0</ele><time>2026-05-03T08:55:32Z</time></trkpt><trkpt lat="44.7998848617421" lon="9.5552341588579"><ele>829.3333333333333</ele><time>2026-05-03T08:56:51.998Z</time></trkpt><trkpt lat="44.799992827801645" lon="9.555289649581168"><ele>827.6666666666666</ele><time>2026-05-03T08:56:53.998Z</time></trkpt><trkpt lat="44.800069617322215" lon="9.555321350818652"><ele>826.0</ele><time>2026-05-03T08:56:54.998Z</time></trkpt><trkpt lat="44.800123301424" lon="9.555371147895626"><ele>822.5999999999999</ele><time>2026-05-03T08:56:55.998Z</time></trkpt><trkpt lat="44.800219818623354" lon="9.55548595569798"><ele>819.2</ele><time>2026-05-03T08:56:57.998Z</time></trkpt><trkpt lat="44.80029172351393" lon="9.555579621953852"><ele>815.8</ele><time>2026-05-03T08:56:59.998Z</time></trkpt><trkpt lat="44.80033801977906" lon="9.555655674759166"><ele>812.4000000000001</ele><time>2026-05-03T08:57:01.998Z</time></trkpt><trkpt lat="44.80037880725632" lon="9.555734531995103"><ele>809.0</ele><time>2026-05-03T08:57:03.998Z</time></trkpt><trkpt lat="44.80045592957493" lon="9.555810451635164"><ele>809.0</ele><time>2026-05-03T08:57:06Z</time></trkpt><trkpt lat="44.80054862976568" lon="9.555842904261823"><ele>809.0</ele><time>2026-05-03T08:57:08Z</time></trkpt><trkpt lat="44.800658158076914" lon="9.555843450900507"><ele>809.0</ele><time>2026-05-03T08:57:10Z</time></trkpt><trkpt lat="44.80075759668671" lon="9.55586192265825"><ele>809.0</ele><time>2026-05-03T08:57:12Z</time></trkpt><trkpt lat="44.80080278273101" lon="9.556000305000188"><ele>809.0</ele><time>2026-05-03T08:57:14Z</time></trkpt><trkpt lat="44.80085603326684" lon="9.55612556610022"><ele>809.0</ele><time>2026-05-03T08:57:16Z</time></trkpt><trkpt lat="44.80093113646668" lon="9.556177735498805"><ele>809.0</ele><time>2026-05-03T08:57:18Z</time></trkpt><trkpt lat="44.801024217699165" lon="9.556184956222364"><ele>809.0</ele><time>2026-05-03T08:57:20Z</time></trkpt><trkpt lat="44.80113964685357" lon="9.556247745418217"><ele>809.0</ele><time>2026-05-03T08:57:22Z</time></trkpt><trkpt lat="44.80119969619998" lon="9.556277894189085"><ele>809.0</ele><time>2026-05-03T08:57:23Z</time></trkpt><trkpt lat="44.801315365315" lon="9.556301122542086"><ele>803.2</ele><time>2026-05-03T08:57:25Z</time></trkpt><trkpt lat="44.80136318624764" lon="9.556373175164625"><ele>797.4000000000001</ele><time>2026-05-03T08:57:30Z</time></trkpt><trkpt lat="44.80132400289231" lon="9.556455668837923"><ele>791.6</ele><time>2026-05-03T08:57:36Z</time></trkpt><trkpt lat="44.8012199943374" lon="9.556500440026904"><ele>785.8</ele><time>2026-05-03T08:57:38Z</time></trkpt><trkpt lat="44.801123608867535" lon="9.55654311373174"><ele>780.0</ele><time>2026-05-03T08:57:40Z</time></trkpt><trkpt lat="44.80101679810936" lon="9.556609563987678"><ele>778.4</ele><time>2026-05-03T08:57:42Z</time></trkpt><trkpt lat="44.80092407063636" lon="9.55669833409657"><ele>776.8</ele><time>2026-05-03T08:57:44Z</time></trkpt><trkpt lat="44.80086568428357" lon="9.556804440938164"><ele>775.2</ele><time>2026-05-03T08:57:46Z</time></trkpt><trkpt lat="44.80081814442477" lon="9.5569415165999"><ele>773.6</ele><time>2026-05-03T08:57:47.999Z</time></trkpt><trkpt lat="44.800777178670906" lon="9.557042732185357"><ele>772.0</ele><time>2026-05-03T08:57:49.999Z</time></trkpt><trkpt lat="44.80074007923719" lon="9.557135469898478"><ele>771.9999999999999</ele><time>2026-05-03T08:58:00.999Z</time></trkpt><trkpt lat="44.8006939803297" lon="9.557228672502909"><ele>772.0</ele><time>2026-05-03T08:58:02.999Z</time></trkpt><trkpt lat="44.80071425112701" lon="9.557331004925771"><ele>772.0</ele><time>2026-05-03T08:58:04.999Z</time></trkpt><trkpt lat="44.800742914108554" lon="9.557470018504317"><ele>772.0</ele><time>2026-05-03T08:58:06.999Z</time></trkpt><trkpt lat="44.80071399310749" lon="9.557551001216796"><ele>771.9999999999999</ele><time>2026-05-03T08:58:08.999Z</time></trkpt><trkpt lat="44.80062746324741" lon="9.557604606577117"><ele>772.0</ele><time>2026-05-03T08:58:10.999Z</time></trkpt><trkpt lat="44.800609308854064" lon="9.557689763650448"><ele>771.9999999999999</ele><time>2026-05-03T08:58:14.999Z</time></trkpt><trkpt lat="44.800677148664874" lon="9.55771455114096"><ele>772.0</ele><time>2026-05-03T08:58:16.999Z</time></trkpt><trkpt lat="44.800786854978085" lon="9.557709747949422"><ele>772.0</ele><time>2026-05-03T08:58:18.999Z</time></trkpt><trkpt lat="44.80089860792117" lon="9.557627013196795"><ele>772.0</ele><time>2026-05-03T08:58:20.999Z</time></trkpt><trkpt lat="44.80095484363001" lon="9.557578715226928"><ele>771.9999999999999</ele><time>2026-05-03T08:58:21.999Z</time></trkpt><trkpt lat="44.801011107428025" lon="9.557532717045447"><ele>772.0</ele><time>2026-05-03T08:58:22.999Z</time></trkpt><trkpt lat="44.80107001412413" lon="9.55749659441274"><ele>768.2</ele><time>2026-05-03T08:58:23.999Z</time></trkpt><trkpt lat="44.80113635069106" lon="9.557476391487818"><ele>764.4000000000001</ele><time>2026-05-03T08:58:24.999Z</time></trkpt><trkpt lat="44.80124882159996" lon="9.557435523059615"><ele>760.5999999999999</ele><time>2026-05-03T08:58:26.999Z</time></trkpt><trkpt lat="44.80136030524755" lon="9.557370387925586"><ele>756.8</ele><time>2026-05-03T08:58:28.999Z</time></trkpt><trkpt lat="44.80141696598786" lon="9.557330319324695"><ele>753.0</ele><time>2026-05-03T08:58:29.999Z</time></trkpt><trkpt lat="44.80151570121489" lon="9.557273801683616"><ele>753.0</ele><time>2026-05-03T08:58:31.999Z</time></trkpt><trkpt lat="44.80157958282194" lon="9.55725150867238"><ele>753.0</ele><time>2026-05-03T08:58:32.999Z</time></trkpt><trkpt lat="44.80170571269026" lon="9.55721052933037"><ele>753.0</ele><time>2026-05-03T08:58:34.999Z</time></trkpt><trkpt lat="44.80183060980233" lon="9.557180439215085"><ele>753.0</ele><time>2026-05-03T08:58:36.999Z</time></trkpt><trkpt lat="44.801945038038376" lon="9.557187441236643"><ele>753.0</ele><time>2026-05-03T08:58:38.999Z</time></trkpt><trkpt lat="44.80204554255451" lon="9.557261356725549"><ele>751.8333333333334</ele><time>2026-05-03T08:58:40.999Z</time></trkpt><trkpt lat="44.80210083908307" lon="9.557337247142392"><ele>750.6666666666666</ele><time>2026-05-03T08:58:41.999Z</time></trkpt><trkpt lat="44.802161836203936" lon="9.55741126328545"><ele>749.5</ele><time>2026-05-03T08:58:42.998Z</time></trkpt><trkpt lat="44.80224730246441" lon="9.55744390278371"><ele>748.3333333333333</ele><time>2026-05-03T08:58:44.998Z</time></trkpt><trkpt lat="44.80215865002094" lon="9.557520446275744"><ele>747.1666666666666</ele><time>2026-05-03T08:58:47.998Z</time></trkpt><trkpt lat="44.80209429233123" lon="9.55750222630806"><ele>746.0</ele><time>2026-05-03T08:58:48.998Z</time></trkpt><trkpt lat="44.801970760545174" lon="9.557522018094444"><ele>746.0</ele><time>2026-05-03T08:58:50.998Z</time></trkpt><trkpt lat="44.80188947854968" lon="9.557576999091081"><ele>746.0</ele><time>2026-05-03T08:58:52.998Z</time></trkpt><trkpt lat="44.80187651661042" lon="9.557676655843569"><ele>746.0</ele><time>2026-05-03T08:58:54.998Z</time></trkpt><trkpt lat="44.8018901285231" lon="9.557765600065478"><ele>746.0</ele><time>2026-05-03T08:58:56.998Z</time></trkpt><trkpt lat="44.80196119494349" lon="9.557839302125032"><ele>746.0</ele><time>2026-05-03T08:58:58.998Z</time></trkpt><trkpt lat="44.80201012086723" lon="9.557898197011522"><ele>746.0</ele><time>2026-05-03T08:58:59.998Z</time></trkpt><trkpt lat="44.802047891201845" lon="9.557972995119496"><ele>746.0</ele><time>2026-05-03T08:59:00.998Z</time></trkpt><trkpt lat="44.80210255429232" lon="9.55811563199012"><ele>742.0</ele><time>2026-05-03T08:59:02.998Z</time></trkpt><trkpt lat="44.802165184015585" lon="9.558180690795508"><ele>738.0</ele><time>2026-05-03T08:59:04.998Z</time></trkpt><trkpt lat="44.80233971066931" lon="9.55820241831855"><ele>734.0</ele><time>2026-05-03T08:59:24Z</time></trkpt><trkpt lat="44.80242329861404" lon="9.55814291068508"><ele>730.0</ele><time>2026-05-03T08:59:25Z</time></trkpt><trkpt lat="44.802508586530585" lon="9.55805429668943"><ele>730.0</ele><time>2026-05-03T08:59:26Z</time></trkpt><trkpt lat="44.80258121839547" lon="9.557982528899117"><ele>730.0</ele><time>2026-05-03T08:59:27Z</time></trkpt><trkpt lat="44.802652171584434" lon="9.557942162242615"><ele>730.0</ele><time>2026-05-03T08:59:28Z</time></trkpt><trkpt lat="44.80272169937365" lon="9.557936276955324"><ele>730.0</ele><time>2026-05-03T08:59:29Z</time></trkpt><trkpt lat="44.80281784704619" lon="9.557941594614363"><ele>730.0</ele><time>2026-05-03T08:59:31Z</time></trkpt><trkpt lat="44.802881868827896" lon="9.55781203537657"><ele>730.0</ele><time>2026-05-03T08:59:33Z</time></trkpt><trkpt lat="44.80287569803985" lon="9.557717618415252"><ele>729.0</ele><time>2026-05-03T08:59:34Z</time></trkpt><trkpt lat="44.80284752488558" lon="9.557610193270932"><ele>728.0</ele><time>2026-05-03T08:59:35Z</time></trkpt><trkpt lat="44.8028027465122" lon="9.557371695736617"><ele>727.0</ele><time>2026-05-03T08:59:37Z</time></trkpt><trkpt lat="44.80280955478337" lon="9.557193391394605"><ele>726.0</ele><time>2026-05-03T08:59:38Z</time></trkpt><trkpt lat="44.80284065246548" lon="9.55699079340993"><ele>725.5</ele><time>2026-05-03T08:59:39Z</time></trkpt><trkpt lat="44.80284788677749" lon="9.556813635470752"><ele>725.0</ele><time>2026-05-03T08:59:40Z</time></trkpt><trkpt lat="44.8028111763837" lon="9.55664778424207"><ele>724.5</ele><time>2026-05-03T08:59:41Z</time></trkpt><trkpt lat="44.80275869246089" lon="9.55644692492334"><ele>724.0</ele><time>2026-05-03T08:59:42Z</time></trkpt><trkpt lat="44.80270146001984" lon="9.556287628603096"><ele>727.3333333333334</ele><time>2026-05-03T08:59:43Z</time></trkpt><trkpt lat="44.802662440118354" lon="9.556186690415462"><ele>730.6666666666667</ele><time>2026-05-03T08:59:44Z</time></trkpt><trkpt lat="44.80260288955417" lon="9.556110087377254"><ele>734.0</ele><time>2026-05-03T08:59:45Z</time></trkpt><trkpt lat="44.80252469580758" lon="9.556055984252248"><ele>737.3333333333334</ele><time>2026-05-03T08:59:46Z</time></trkpt><trkpt lat="44.80245249222866" lon="9.556018783087792"><ele>740.6666666666666</ele><time>2026-05-03T08:59:47Z</time></trkpt><trkpt lat="44.80238767142231" lon="9.555953596350845"><ele>744.0</ele><time>2026-05-03T08:59:48Z</time></trkpt><trkpt lat="44.802341358199946" lon="9.555850260009992"><ele>744.0</ele><time>2026-05-03T08:59:49Z</time></trkpt><trkpt lat="44.8023131094771" lon="9.555709032959617"><ele>744.0</ele><time>2026-05-03T08:59:50Z</time></trkpt><trkpt lat="44.802303541414744" lon="9.555523202149587"><ele>744.0</ele><time>2026-05-03T08:59:51Z</time></trkpt><trkpt lat="44.80230511599303" lon="9.555277758355725"><ele>744.0</ele><time>2026-05-03T08:59:52Z</time></trkpt><trkpt lat="44.80231534336087" lon="9.555032032792626"><ele>744.0</ele><time>2026-05-03T08:59:53Z</time></trkpt><trkpt lat="44.80232711696778" lon="9.554800113352174"><ele>744.0</ele><time>2026-05-03T08:59:54Z</time></trkpt><trkpt lat="44.80233990700758" lon="9.554593155863374"><ele>744.0</ele><time>2026-05-03T08:59:54.999Z</time></trkpt><trkpt lat="44.80235107845596" lon="9.554394465720454"><ele>744.0</ele><time>2026-05-03T08:59:55.999Z</time></trkpt><trkpt lat="44.802374709142526" lon="9.554226432011593"><ele>744.0</ele><time>2026-05-03T08:59:56.999Z</time></trkpt><trkpt lat="44.80241882772919" lon="9.554087804491909"><ele>744.0</ele><time>2026-05-03T08:59:57.999Z</time></trkpt><trkpt lat="44.80248142361928" lon="9.55392869822238"><ele>744.0</ele><time>2026-05-03T08:59:58.999Z</time></trkpt><trkpt lat="44.802532018741424" lon="9.553766613857704"><ele>744.4000000000001</ele><time>2026-05-03T08:59:59.999Z</time></trkpt><trkpt lat="44.80256826705416" lon="9.55364500585186"><ele>744.8</ele><time>2026-05-03T09:00:00.999Z</time></trkpt><trkpt lat="44.80257996638307" lon="9.553497993224774"><ele>745.2</ele><time>2026-05-03T09:00:02.999Z</time></trkpt><trkpt lat="44.80253119484779" lon="9.553380480994978"><ele>745.5999999999999</ele><time>2026-05-03T09:00:04.999Z</time></trkpt><trkpt lat="44.802476267625686" lon="9.553257243807018"><ele>746.0</ele><time>2026-05-03T09:00:06.999Z</time></trkpt><trkpt lat="44.80241440536782" lon="9.553134722322088"><ele>746.0</ele><time>2026-05-03T09:00:08.999Z</time></trkpt><trkpt lat="44.80235688130029" lon="9.553021376349287"><ele>746.0</ele><time>2026-05-03T09:00:10.999Z</time></trkpt><trkpt lat="44.80231412581" lon="9.55295572875454"><ele>746.0</ele><time>2026-05-03T09:00:14.999Z</time></trkpt><trkpt lat="44.802246625145955" lon="9.552873121704849"><ele>746.0</ele><time>2026-05-03T09:00:26.999Z</time></trkpt><trkpt lat="44.8021609971822" lon="9.552759078253061"><ele>746.0</ele><time>2026-05-03T09:00:28.999Z</time></trkpt><trkpt lat="44.80207238678297" lon="9.552694585944716"><ele>745.4</ele><time>2026-05-03T09:00:30.999Z</time></trkpt><trkpt lat="44.80202436557695" lon="9.55259442330458"><ele>744.8</ele><time>2026-05-03T09:00:33.999Z</time></trkpt><trkpt lat="44.8020626087302" lon="9.552502556843859"><ele>744.1999999999999</ele><time>2026-05-03T09:00:34.999Z</time></trkpt><trkpt lat="44.80213228378381" lon="9.552391604859897"><ele>743.5999999999999</ele><time>2026-05-03T09:00:35.999Z</time></trkpt><trkpt lat="44.80220311777843" lon="9.552276502494601"><ele>743.0</ele><time>2026-05-03T09:00:36.999Z</time></trkpt><trkpt lat="44.80225380238088" lon="9.552162788216048"><ele>743.0</ele><time>2026-05-03T09:00:37.999Z</time></trkpt><trkpt lat="44.80229538212716" lon="9.55206016965172"><ele>743.0</ele><time>2026-05-03T09:00:38.999Z</time></trkpt><trkpt lat="44.80233262903127" lon="9.551971937025618"><ele>743.0</ele><time>2026-05-03T09:00:39.999Z</time></trkpt><trkpt lat="44.802364970766064" lon="9.551887306436695"><ele>743.0</ele><time>2026-05-03T09:00:40.999Z</time></trkpt><trkpt lat="44.80240202413451" lon="9.551805502420795"><ele>743.0</ele><time>2026-05-03T09:00:41.999Z</time></trkpt><trkpt lat="44.80244994354287" lon="9.551734145239989"><ele>743.0</ele><time>2026-05-03T09:00:42.999Z</time></trkpt><trkpt lat="44.802495930473555" lon="9.551673435635545"><ele>743.0</ele><time>2026-05-03T09:00:43.999Z</time></trkpt><trkpt lat="44.802528524095" lon="9.551530061733489"><ele>741.5</ele><time>2026-05-03T09:00:45.999Z</time></trkpt><trkpt lat="44.802558550577096" lon="9.551440731616333"><ele>740.0</ele><time>2026-05-03T09:00:46.999Z</time></trkpt><trkpt lat="44.80258238880235" lon="9.551342593302042"><ele>738.5</ele><time>2026-05-03T09:00:47.999Z</time></trkpt><trkpt lat="44.80260988189771" lon="9.551256239064452"><ele>737.0</ele><time>2026-05-03T09:00:48.999Z</time></trkpt><trkpt lat="44.802593724217424" lon="9.551130489313985"><ele>735.5</ele><time>2026-05-03T09:00:50.998Z</time></trkpt><trkpt lat="44.802499705733624" lon="9.551018979915643"><ele>734.0</ele><time>2026-05-03T09:00:52.998Z</time></trkpt><trkpt lat="44.80239623162342" lon="9.550953787373793"><ele>732.0</ele><time>2026-05-03T09:00:54.998Z</time></trkpt><trkpt lat="44.80227025367894" lon="9.550946131105082"><ele>730.0</ele><time>2026-05-03T09:00:56.998Z</time></trkpt><trkpt lat="44.802187984637726" lon="9.550943939602345"><ele>728.0</ele><time>2026-05-03T09:00:57.998Z</time></trkpt><trkpt lat="44.80210596445355" lon="9.550928365692545"><ele>726.0</ele><time>2026-05-03T09:00:58.998Z</time></trkpt><trkpt lat="44.8020410907816" lon="9.550910188920177"><ele>724.0</ele><time>2026-05-03T09:00:59.998Z</time></trkpt><trkpt lat="44.80197803322595" lon="9.550865873580458"><ele>722.0</ele><time>2026-05-03T09:01:02.998Z</time></trkpt><trkpt lat="44.80199189026929" lon="9.55076712362999"><ele>722.0</ele><time>2026-05-03T09:01:04.998Z</time></trkpt><trkpt lat="44.80204603106767" lon="9.550704332224782"><ele>722.0</ele><time>2026-05-03T09:01:06.998Z</time></trkpt><trkpt lat="44.802140221483526" lon="9.550652014046793"><ele>722.0</ele><time>2026-05-03T09:01:08.998Z</time></trkpt><trkpt lat="44.802237501542606" lon="9.550581449515214"><ele>722.0</ele><time>2026-05-03T09:01:10.998Z</time></trkpt><trkpt lat="44.802326095643394" lon="9.550512011531115"><ele>722.0</ele><time>2026-05-03T09:01:12.998Z</time></trkpt><trkpt lat="44.80241582705239" lon="9.550461129272165"><ele>722.0</ele><time>2026-05-03T09:01:14.998Z</time></trkpt><trkpt lat="44.80252403284847" lon="9.550415498777577"><ele>722.0</ele><time>2026-05-03T09:01:16.998Z</time></trkpt><trkpt lat="44.80260691862934" lon="9.550377535786074"><ele>722.0</ele><time>2026-05-03T09:01:19Z</time></trkpt><trkpt lat="44.802688712287996" lon="9.550432089788428"><ele>722.0</ele><time>2026-05-03T09:01:21Z</time></trkpt><trkpt lat="44.80272799901613" lon="9.550517799636692"><ele>722.0</ele><time>2026-05-03T09:01:23Z</time></trkpt><trkpt lat="44.802749281459235" lon="9.550646301033709"><ele>721.0</ele><time>2026-05-03T09:01:25Z</time></trkpt><trkpt lat="44.80278278057217" lon="9.550780982386135"><ele>720.0</ele><time>2026-05-03T09:01:27Z</time></trkpt><trkpt lat="44.80280527639017" lon="9.550913401381255"><ele>719.0</ele><time>2026-05-03T09:01:28Z</time></trkpt><trkpt lat="44.80283972847416" lon="9.551058527146012"><ele>718.0</ele><time>2026-05-03T09:01:29Z</time></trkpt><trkpt lat="44.80288569281745" lon="9.551193860442062"><ele>717.0</ele><time>2026-05-03T09:01:30Z</time></trkpt><trkpt lat="44.802931175078186" lon="9.55127239228522"><ele>717.0</ele><time>2026-05-03T09:01:31Z</time></trkpt><trkpt lat="44.80309192694475" lon="9.551342127688237"><ele>717.0</ele><time>2026-05-03T09:01:33Z</time></trkpt><trkpt lat="44.80323168570787" lon="9.551397545676497"><ele>717.0</ele><time>2026-05-03T09:01:34Z</time></trkpt><trkpt lat="44.80335332955257" lon="9.551417231434995"><ele>717.0</ele><time>2026-05-03T09:01:35Z</time></trkpt><trkpt lat="44.80343103042621" lon="9.551444071162546"><ele>714.2</ele><time>2026-05-03T09:01:36Z</time></trkpt><trkpt lat="44.803509985539975" lon="9.551519517717388"><ele>711.4000000000001</ele><time>2026-05-03T09:01:37Z</time></trkpt><trkpt lat="44.80357619413869" lon="9.55161563044372"><ele>708.5999999999999</ele><time>2026-05-03T09:01:38Z</time></trkpt><trkpt lat="44.803632632466275" lon="9.551734385237497"><ele>705.8</ele><time>2026-05-03T09:01:39Z</time></trkpt><trkpt lat="44.80366231956996" lon="9.551857400949922"><ele>703.0</ele><time>2026-05-03T09:01:40Z</time></trkpt><trkpt lat="44.80367453232643" lon="9.551986941596692"><ele>703.8</ele><time>2026-05-03T09:01:41Z</time></trkpt><trkpt lat="44.8036743969046" lon="9.552131033756666"><ele>704.5999999999999</ele><time>2026-05-03T09:01:42Z</time></trkpt><trkpt lat="44.80364361396956" lon="9.552298178923975"><ele>705.4000000000001</ele><time>2026-05-03T09:01:43Z</time></trkpt><trkpt lat="44.80360915402004" lon="9.552431084565958"><ele>706.2</ele><time>2026-05-03T09:01:44Z</time></trkpt><trkpt lat="44.80360182121503" lon="9.552520814797502"><ele>707.0</ele><time>2026-05-03T09:01:45Z</time></trkpt><trkpt lat="44.80370155782798" lon="9.55262959507804"><ele>707.0</ele><time>2026-05-03T09:01:47Z</time></trkpt><trkpt lat="44.80378940959317" lon="9.552666322104606"><ele>707.0</ele><time>2026-05-03T09:01:48Z</time></trkpt><trkpt lat="44.80387732652211" lon="9.55274662187845"><ele>707.0</ele><time>2026-05-03T09:01:49Z</time></trkpt><trkpt lat="44.80394732562917" lon="9.55286109017105"><ele>707.0</ele><time>2026-05-03T09:01:50Z</time></trkpt><trkpt lat="44.80401291998055" lon="9.55301462957042"><ele>707.0</ele><time>2026-05-03T09:01:51Z</time></trkpt><trkpt lat="44.80408049959999" lon="9.5531979806247"><ele>709.0</ele><time>2026-05-03T09:01:52Z</time></trkpt><trkpt lat="44.80415570024708" lon="9.553336296118305"><ele>711.0</ele><time>2026-05-03T09:01:53Z</time></trkpt><trkpt lat="44.8042127751252" lon="9.553420429163731"><ele>713.0</ele><time>2026-05-03T09:01:54Z</time></trkpt><trkpt lat="44.80427078276577" lon="9.55335567094358"><ele>715.0</ele><time>2026-05-03T09:01:58.999Z</time></trkpt><trkpt lat="44.80427311999234" lon="9.55321321896962"><ele>717.0</ele><time>2026-05-03T09:02:01.999Z</time></trkpt><trkpt lat="44.804259155559635" lon="9.553051362598444"><ele>717.0</ele><time>2026-05-03T09:02:03.999Z</time></trkpt><trkpt lat="44.804302074862214" lon="9.552875821569968"><ele>717.0</ele><time>2026-05-03T09:02:05.999Z</time></trkpt><trkpt lat="44.804313300612556" lon="9.552787763857717"><ele>717.0</ele><time>2026-05-03T09:02:06.999Z</time></trkpt><trkpt lat="44.80428683686018" lon="9.552674922371795"><ele>717.0</ele><time>2026-05-03T09:02:07.999Z</time></trkpt><trkpt lat="44.80422947595751" lon="9.552565312676665"><ele>717.0</ele><time>2026-05-03T09:02:08.999Z</time></trkpt><trkpt lat="44.80419108137718" lon="9.552457861724502"><ele>715.0</ele><time>2026-05-03T09:02:09.999Z</time></trkpt><trkpt lat="44.80413365922879" lon="9.552349970800842"><ele>713.0</ele><time>2026-05-03T09:02:11.999Z</time></trkpt><trkpt lat="44.80417595373322" lon="9.552230629556782"><ele>711.0</ele><time>2026-05-03T09:02:13.999Z</time></trkpt><trkpt lat="44.80423868292888" lon="9.552166420396341"><ele>709.0</ele><time>2026-05-03T09:02:14.999Z</time></trkpt><trkpt lat="44.804292243072645" lon="9.552113734610842"><ele>707.0</ele><time>2026-05-03T09:02:15.999Z</time></trkpt><trkpt lat="44.80433269736908" lon="9.551928033429528"><ele>703.4000000000001</ele><time>2026-05-03T09:02:17.999Z</time></trkpt><trkpt lat="44.80435149597252" lon="9.551808437272351"><ele>699.8000000000001</ele><time>2026-05-03T09:02:19.999Z</time></trkpt><trkpt lat="44.80435806817319" lon="9.551664589524188"><ele>696.2</ele><time>2026-05-03T09:02:22.999Z</time></trkpt><trkpt lat="44.80440306435796" lon="9.55150966775061"><ele>692.6</ele><time>2026-05-03T09:02:24.999Z</time></trkpt><trkpt lat="44.80445310236411" lon="9.551436782907837"><ele>689.0</ele><time>2026-05-03T09:02:26.999Z</time></trkpt><trkpt lat="44.804526275537164" lon="9.551364925894005"><ele>689.0</ele><time>2026-05-03T09:02:28.999Z</time></trkpt><trkpt lat="44.804622125599096" lon="9.551309119213302"><ele>689.0</ele><time>2026-05-03T09:02:30.999Z</time></trkpt><trkpt lat="44.80468968694214" lon="9.551243883057987"><ele>689.0</ele><time>2026-05-03T09:02:31.999Z</time></trkpt><trkpt lat="44.80475686479522" lon="9.551154048959134"><ele>689.0</ele><time>2026-05-03T09:02:32.999Z</time></trkpt><trkpt lat="44.80481064978569" lon="9.551066014605514"><ele>689.0</ele><time>2026-05-03T09:02:33.999Z</time></trkpt><trkpt lat="44.80483213619895" lon="9.550960558937264"><ele>689.0</ele><time>2026-05-03T09:02:34.999Z</time></trkpt><trkpt lat="44.80484877528631" lon="9.550852613700876"><ele>689.0</ele><time>2026-05-03T09:02:35.999Z</time></trkpt><trkpt lat="44.804895849329505" lon="9.550759895347252"><ele>689.0</ele><time>2026-05-03T09:02:37.999Z</time></trkpt><trkpt lat="44.80496138834441" lon="9.550711567753908"><ele>689.0</ele><time>2026-05-03T09:02:59.998Z</time></trkpt><trkpt lat="44.80504988468502" lon="9.550617836971115"><ele>689.0</ele><time>2026-05-03T09:03:01.998Z</time></trkpt><trkpt lat="44.80512015061434" lon="9.550517096176039"><ele>689.0</ele><time>2026-05-03T09:03:03.998Z</time></trkpt><trkpt lat="44.80518983513118" lon="9.550437370833244"><ele>688.0</ele><time>2026-05-03T09:03:04.998Z</time></trkpt><trkpt lat="44.80527664117668" lon="9.550342805050946"><ele>687.0</ele><time>2026-05-03T09:03:05.998Z</time></trkpt><trkpt lat="44.80536634549141" lon="9.550250372044774"><ele>686.0</ele><time>2026-05-03T09:03:06.998Z</time></trkpt><trkpt lat="44.8054130088939" lon="9.550189227295784"><ele>685.0</ele><time>2026-05-03T09:03:07.998Z</time></trkpt><trkpt lat="44.805486351751135" lon="9.550033204334047"><ele>684.0</ele><time>2026-05-03T09:03:09.998Z</time></trkpt><trkpt lat="44.80551915800471" lon="9.54994168858875"><ele>684.0</ele><time>2026-05-03T09:03:10.998Z</time></trkpt><trkpt lat="44.80556980280526" lon="9.549871181418542"><ele>684.0</ele><time>2026-05-03T09:03:11.998Z</time></trkpt><trkpt lat="44.80564390621917" lon="9.549794882724289"><ele>684.0</ele><time>2026-05-03T09:03:12.998Z</time></trkpt><trkpt lat="44.8057235535322" lon="9.549733527442307"><ele>684.0</ele><time>2026-05-03T09:03:13.998Z</time></trkpt><trkpt lat="44.805819898779056" lon="9.54967917194684"><ele>684.0</ele><time>2026-05-03T09:03:14.998Z</time></trkpt><trkpt lat="44.80591133035337" lon="9.54962155086168"><ele>682.0</ele><time>2026-05-03T09:03:15.998Z</time></trkpt><trkpt lat="44.80600200595854" lon="9.549534652322757"><ele>680.0</ele><time>2026-05-03T09:03:16.998Z</time></trkpt><trkpt lat="44.80608226241781" lon="9.54945378016962"><ele>678.0</ele><time>2026-05-03T09:03:17.998Z</time></trkpt><trkpt lat="44.8061572847757" lon="9.549372564873932"><ele>676.0</ele><time>2026-05-03T09:03:18.998Z</time></trkpt><trkpt lat="44.80623968452337" lon="9.549295104220326"><ele>674.0</ele><time>2026-05-03T09:03:19.998Z</time></trkpt><trkpt lat="44.806320718095265" lon="9.549227614375766"><ele>674.0</ele><time>2026-05-03T09:03:20.998Z</time></trkpt><trkpt lat="44.806392757337235" lon="9.54916965027472"><ele>674.0</ele><time>2026-05-03T09:03:21.998Z</time></trkpt><trkpt lat="44.80647052885912" lon="9.549093447829529"><ele>674.0</ele><time>2026-05-03T09:03:22.998Z</time></trkpt><trkpt lat="44.80654156420225" lon="9.548986760364254"><ele>674.0</ele><time>2026-05-03T09:03:24Z</time></trkpt><trkpt lat="44.80660217953995" lon="9.54890872129141"><ele>674.0</ele><time>2026-05-03T09:03:25Z</time></trkpt><trkpt lat="44.8066771745222" lon="9.54886761203958"><ele>674.0</ele><time>2026-05-03T09:03:26Z</time></trkpt><trkpt lat="44.80678473979436" lon="9.548836292834043"><ele>673.0</ele><time>2026-05-03T09:03:27Z</time></trkpt><trkpt lat="44.80689613883831" lon="9.548819301544189"><ele>672.0</ele><time>2026-05-03T09:03:28Z</time></trkpt><trkpt lat="44.80698194270617" lon="9.548784420151298"><ele>671.0</ele><time>2026-05-03T09:03:29Z</time></trkpt><trkpt lat="44.80703920220923" lon="9.54873085479683"><ele>670.0</ele><time>2026-05-03T09:03:30Z</time></trkpt><trkpt lat="44.80709839975597" lon="9.548557777225437"><ele>669.0</ele><time>2026-05-03T09:03:32Z</time></trkpt><trkpt lat="44.807129305251905" lon="9.548460501726028"><ele>669.0</ele><time>2026-05-03T09:03:33Z</time></trkpt><trkpt lat="44.8071717282056" lon="9.548371336776473"><ele>669.0</ele><time>2026-05-03T09:03:34Z</time></trkpt><trkpt lat="44.80723183328406" lon="9.548300017509277"><ele>669.0</ele><time>2026-05-03T09:03:35Z</time></trkpt><trkpt lat="44.80728094099173" lon="9.54820804144691"><ele>669.0</ele><time>2026-05-03T09:03:36Z</time></trkpt><trkpt lat="44.807323786791706" lon="9.548088503091805"><ele>669.0</ele><time>2026-05-03T09:03:37Z</time></trkpt><trkpt lat="44.8073720198822" lon="9.547962712653526"><ele>669.0</ele><time>2026-05-03T09:03:38Z</time></trkpt><trkpt lat="44.80740411353303" lon="9.547827236322803"><ele>667.0</ele><time>2026-05-03T09:03:39Z</time></trkpt><trkpt lat="44.807422877325116" lon="9.54767828193201"><ele>665.0</ele><time>2026-05-03T09:03:40Z</time></trkpt><trkpt lat="44.80742190358311" lon="9.547528062465409"><ele>663.0</ele><time>2026-05-03T09:03:41Z</time></trkpt><trkpt lat="44.80744147514452" lon="9.547388386079682"><ele>661.0</ele><time>2026-05-03T09:03:42Z</time></trkpt><trkpt lat="44.807467893935" lon="9.54725735784641"><ele>659.0</ele><time>2026-05-03T09:03:43Z</time></trkpt><trkpt lat="44.807493434189084" lon="9.547116163992595"><ele>658.1666666666666</ele><time>2026-05-03T09:03:44Z</time></trkpt><trkpt lat="44.807526531344074" lon="9.546977163824446"><ele>657.3333333333333</ele><time>2026-05-03T09:03:45Z</time></trkpt><trkpt lat="44.80754984010255" lon="9.546852186722345"><ele>656.5</ele><time>2026-05-03T09:03:46Z</time></trkpt><trkpt lat="44.80757047714085" lon="9.546733971491316"><ele>655.6666666666666</ele><time>2026-05-03T09:03:47Z</time></trkpt><trkpt lat="44.807603483500266" lon="9.546632561644392"><ele>654.8333333333334</ele><time>2026-05-03T09:03:48Z</time></trkpt><trkpt lat="44.8076298672753" lon="9.546541891667054"><ele>654.0</ele><time>2026-05-03T09:03:49Z</time></trkpt><trkpt lat="44.80765436874768" lon="9.546384501523141"><ele>652.8333333333334</ele><time>2026-05-03T09:03:51Z</time></trkpt><trkpt lat="44.80770454386449" lon="9.546225653017938"><ele>651.6666666666666</ele><time>2026-05-03T09:03:53Z</time></trkpt><trkpt lat="44.80770819578302" lon="9.54612919098381"><ele>650.5</ele><time>2026-05-03T09:03:54Z</time></trkpt><trkpt lat="44.807760147974804" lon="9.545971407971956"><ele>649.3333333333333</ele><time>2026-05-03T09:03:56Z</time></trkpt><trkpt lat="44.80781717742014" lon="9.545921808385605"><ele>648.1666666666666</ele><time>2026-05-03T09:03:57Z</time></trkpt><trkpt lat="44.80787192757386" lon="9.545873606996931"><ele>647.0</ele><time>2026-05-03T09:03:58Z</time></trkpt><trkpt lat="44.807945544389305" lon="9.545736491213908"><ele>645.5</ele><time>2026-05-03T09:04:00Z</time></trkpt><trkpt lat="44.807979443899484" lon="9.54565095938647"><ele>644.0</ele><time>2026-05-03T09:04:01Z</time></trkpt><trkpt lat="44.80800805420707" lon="9.54555996919227"><ele>642.5</ele><time>2026-05-03T09:04:02Z</time></trkpt><trkpt lat="44.80805008309917" lon="9.54548464786777"><ele>641.0</ele><time>2026-05-03T09:04:03Z</time></trkpt><trkpt lat="44.808110009836774" lon="9.545417686805559"><ele>639.5</ele><time>2026-05-03T09:04:04Z</time></trkpt><trkpt lat="44.80817489537949" lon="9.545330056846051"><ele>638.0</ele><time>2026-05-03T09:04:05Z</time></trkpt><trkpt lat="44.80823495839561" lon="9.545218741223884"><ele>636.6</ele><time>2026-05-03T09:04:06Z</time></trkpt><trkpt lat="44.80828777218784" lon="9.545091565333689"><ele>635.1999999999999</ele><time>2026-05-03T09:04:06.999Z</time></trkpt><trkpt lat="44.808329852484874" lon="9.54497431745336"><ele>633.8</ele><time>2026-05-03T09:04:07.999Z</time></trkpt><trkpt lat="44.808378429464085" lon="9.544866483917357"><ele>632.4</ele><time>2026-05-03T09:04:08.999Z</time></trkpt><trkpt lat="44.808426434691846" lon="9.544761856525223"><ele>631.0</ele><time>2026-05-03T09:04:09.999Z</time></trkpt><trkpt lat="44.80847070447094" lon="9.54461699140722"><ele>630.0</ele><time>2026-05-03T09:04:10.999Z</time></trkpt><trkpt lat="44.80850454503408" lon="9.54446726337065"><ele>629.0</ele><time>2026-05-03T09:04:11.999Z</time></trkpt><trkpt lat="44.808540742967516" lon="9.54435633088341"><ele>628.0</ele><time>2026-05-03T09:04:12.999Z</time></trkpt><trkpt lat="44.80858390548433" lon="9.544265408754713"><ele>627.0</ele><time>2026-05-03T09:04:13.999Z</time></trkpt><trkpt lat="44.80863316600168" lon="9.544195441824487"><ele>626.0</ele><time>2026-05-03T09:04:14.999Z</time></trkpt><trkpt lat="44.80867996890843" lon="9.544093171751639"><ele>625.0</ele><time>2026-05-03T09:04:16.999Z</time></trkpt><trkpt lat="44.80860379900571" lon="9.543985325647691"><ele>625.0</ele><time>2026-05-03T09:04:18.999Z</time></trkpt><trkpt lat="44.80855342372459" lon="9.543923546829962"><ele>625.0</ele><time>2026-05-03T09:04:19.999Z</time></trkpt><trkpt lat="44.80849912961489" lon="9.543783200855783"><ele>625.0</ele><time>2026-05-03T09:04:21.999Z</time></trkpt><trkpt lat="44.80848331762915" lon="9.543666676877159"><ele>625.0</ele><time>2026-05-03T09:04:22.999Z</time></trkpt><trkpt lat="44.80848117520816" lon="9.543563683093414"><ele>625.0</ele><time>2026-05-03T09:04:23.999Z</time></trkpt><trkpt lat="44.808508991912404" lon="9.543409047981882"><ele>623.5</ele><time>2026-05-03T09:04:25.999Z</time></trkpt><trkpt lat="44.80852752134177" lon="9.543321655708032"><ele>622.0</ele><time>2026-05-03T09:04:26.999Z</time></trkpt><trkpt lat="44.808539247806074" lon="9.543230800427692"><ele>620.5</ele><time>2026-05-03T09:04:27.999Z</time></trkpt><trkpt lat="44.80855999426928" lon="9.543083221890834"><ele>619.0</ele><time>2026-05-03T09:04:29.999Z</time></trkpt><trkpt lat="44.808567815073474" lon="9.542991737869599"><ele>617.5</ele><time>2026-05-03T09:04:30.999Z</time></trkpt><trkpt lat="44.80858070729489" lon="9.542886673811166"><ele>616.0</ele><time>2026-05-03T09:04:31.999Z</time></trkpt><trkpt lat="44.808602011114644" lon="9.542750806035254"><ele>614.8333333333334</ele><time>2026-05-03T09:04:32.999Z</time></trkpt><trkpt lat="44.80861178588702" lon="9.542627310372009"><ele>613.6666666666667</ele><time>2026-05-03T09:04:33.999Z</time></trkpt><trkpt lat="44.80858691148988" lon="9.542510747810084"><ele>612.5</ele><time>2026-05-03T09:04:34.999Z</time></trkpt><trkpt lat="44.80858553328421" lon="9.542404871070593"><ele>611.3333333333334</ele><time>2026-05-03T09:04:35.999Z</time></trkpt><trkpt lat="44.808627937066824" lon="9.542277207751928"><ele>610.1666666666666</ele><time>2026-05-03T09:04:37.999Z</time></trkpt><trkpt lat="44.808607809300966" lon="9.542161921471699"><ele>609.0</ele><time>2026-05-03T09:04:40.999Z</time></trkpt><trkpt lat="44.80858339088635" lon="9.54205911223125"><ele>609.0</ele><time>2026-05-03T09:04:42.999Z</time></trkpt><trkpt lat="44.80860175148065" lon="9.541972938485248"><ele>609.0</ele><time>2026-05-03T09:04:43.999Z</time></trkpt><trkpt lat="44.80863243338022" lon="9.541842087181825"><ele>609.0</ele><time>2026-05-03T09:04:44.999Z</time></trkpt><trkpt lat="44.808656513871654" lon="9.541691468055182"><ele>609.0</ele><time>2026-05-03T09:04:45.999Z</time></trkpt><trkpt lat="44.80868467641384" lon="9.541551269900006"><ele>609.0</ele><time>2026-05-03T09:04:47.999Z</time></trkpt><trkpt lat="44.808733445832196" lon="9.541463191177467"><ele>609.0</ele><time>2026-05-03T09:04:48.999Z</time></trkpt><trkpt lat="44.808766754350565" lon="9.54131260279039"><ele>609.0</ele><time>2026-05-03T09:04:49.999Z</time></trkpt><trkpt lat="44.808777828958696" lon="9.54115488039967"><ele>609.0</ele><time>2026-05-03T09:04:50.999Z</time></trkpt><trkpt lat="44.808792960775264" lon="9.541024778060052"><ele>609.0</ele><time>2026-05-03T09:04:51.999Z</time></trkpt><trkpt lat="44.80882515562381" lon="9.540941423497888"><ele>609.0</ele><time>2026-05-03T09:04:52.999Z</time></trkpt><trkpt lat="44.80891072692444" lon="9.540831102902999"><ele>608.8</ele><time>2026-05-03T09:04:54.999Z</time></trkpt><trkpt lat="44.808933978066925" lon="9.5407466304838"><ele>608.5999999999999</ele><time>2026-05-03T09:04:55.999Z</time></trkpt><trkpt lat="44.80895673888579" lon="9.54063849887344"><ele>608.4</ele><time>2026-05-03T09:04:56.999Z</time></trkpt><trkpt lat="44.80896636157925" lon="9.540541132617312"><ele>608.1999999999999</ele><time>2026-05-03T09:04:57.999Z</time></trkpt><trkpt lat="44.809045607252756" lon="9.540392916183045"><ele>608.0</ele><time>2026-05-03T09:04:59.999Z</time></trkpt><trkpt lat="44.80911638876784" lon="9.540277355149728"><ele>607.1999999999999</ele><time>2026-05-03T09:05:01.999Z</time></trkpt><trkpt lat="44.80910574118192" lon="9.540155804672521"><ele>606.4</ele><time>2026-05-03T09:05:02.998Z</time></trkpt><trkpt lat="44.80908470202181" lon="9.539996745368802"><ele>605.5999999999999</ele><time>2026-05-03T09:05:03.998Z</time></trkpt><trkpt lat="44.80909330342564" lon="9.539864437596824"><ele>604.8</ele><time>2026-05-03T09:05:04.998Z</time></trkpt><trkpt lat="44.809130879400406" lon="9.53975514250997"><ele>604.0</ele><time>2026-05-03T09:05:05.998Z</time></trkpt><trkpt lat="44.80916840733281" lon="9.539643214328905"><ele>604.0000000000001</ele><time>2026-05-03T09:05:06.998Z</time></trkpt><trkpt lat="44.809189761089186" lon="9.539552516181448"><ele>604.0</ele><time>2026-05-03T09:05:07.998Z</time></trkpt><trkpt lat="44.809230520006786" lon="9.539481361098265"><ele>604.0</ele><time>2026-05-03T09:05:08.998Z</time></trkpt><trkpt lat="44.80928635175395" lon="9.539422568805554"><ele>604.0</ele><time>2026-05-03T09:05:09.998Z</time></trkpt><trkpt lat="44.80933964797663" lon="9.539366005657323"><ele>604.0</ele><time>2026-05-03T09:05:10.998Z</time></trkpt><trkpt lat="44.80938292034191" lon="9.539285678562557"><ele>604.0000000000001</ele><time>2026-05-03T09:05:11.998Z</time></trkpt><trkpt lat="44.809439411313804" lon="9.539169283215948"><ele>604.0</ele><time>2026-05-03T09:05:12.998Z</time></trkpt><trkpt lat="44.809510911292975" lon="9.539025045189016"><ele>604.0</ele><time>2026-05-03T09:05:13.998Z</time></trkpt><trkpt lat="44.809559227773896" lon="9.538913147266157"><ele>604.0</ele><time>2026-05-03T09:05:14.998Z</time></trkpt><trkpt lat="44.809606835553794" lon="9.538831790395482"><ele>604.0</ele><time>2026-05-03T09:05:15.998Z</time></trkpt><trkpt lat="44.80966790697572" lon="9.538762493294357"><ele>604.0</ele><time>2026-05-03T09:05:16.998Z</time></trkpt><trkpt lat="44.809701785453505" lon="9.53857831332153"><ele>604.0</ele><time>2026-05-03T09:05:18.998Z</time></trkpt><trkpt lat="44.80970573780152" lon="9.538412469058843"><ele>603.6666666666667</ele><time>2026-05-03T09:05:19.998Z</time></trkpt><trkpt lat="44.809715083082686" lon="9.538280444368565"><ele>603.3333333333334</ele><time>2026-05-03T09:05:20.998Z</time></trkpt><trkpt lat="44.80972200830743" lon="9.538182636646761"><ele>603.0</ele><time>2026-05-03T09:05:21.998Z</time></trkpt><trkpt lat="44.80973074399446" lon="9.538087291280002"><ele>602.6666666666666</ele><time>2026-05-03T09:05:22.998Z</time></trkpt><trkpt lat="44.809694227672345" lon="9.537918686246776"><ele>602.3333333333333</ele><time>2026-05-03T09:05:24.998Z</time></trkpt><trkpt lat="44.80966978795689" lon="9.537822473171072"><ele>602.0</ele><time>2026-05-03T09:05:25.998Z</time></trkpt><trkpt lat="44.80966150330929" lon="9.537727739149927"><ele>600.25</ele><time>2026-05-03T09:05:26.998Z</time></trkpt><trkpt lat="44.80967560961656" lon="9.53763770042365"><ele>598.5</ele><time>2026-05-03T09:05:27.998Z</time></trkpt><trkpt lat="44.8097223261324" lon="9.5375162184861"><ele>596.75</ele><time>2026-05-03T09:05:28.998Z</time></trkpt><trkpt lat="44.80981741243872" lon="9.53735646366133"><ele>595.0</ele><time>2026-05-03T09:05:30Z</time></trkpt><trkpt lat="44.809915729824894" lon="9.537203863248989"><ele>595.0</ele><time>2026-05-03T09:05:31Z</time></trkpt><trkpt lat="44.80997565359301" lon="9.537096181557063"><ele>595.0</ele><time>2026-05-03T09:05:32Z</time></trkpt><trkpt lat="44.810019146578966" lon="9.537003634045675"><ele>595.0</ele><time>2026-05-03T09:05:33Z</time></trkpt><trkpt lat="44.81006080871016" lon="9.536907274006055"><ele>595.0</ele><time>2026-05-03T09:05:34Z</time></trkpt><trkpt lat="44.81009741673799" lon="9.536808527863435"><ele>595.0</ele><time>2026-05-03T09:05:35Z</time></trkpt><trkpt lat="44.810133382051504" lon="9.536696460314355"><ele>595.0</ele><time>2026-05-03T09:05:36Z</time></trkpt><trkpt lat="44.81017234888051" lon="9.536571057770894"><ele>595.6</ele><time>2026-05-03T09:05:37Z</time></trkpt><trkpt lat="44.810219234257566" lon="9.536486656038452"><ele>596.2</ele><time>2026-05-03T09:05:38Z</time></trkpt><trkpt lat="44.810280545774575" lon="9.536407181985894"><ele>596.8</ele><time>2026-05-03T09:05:39Z</time></trkpt><trkpt lat="44.81034375428158" lon="9.53631471960788"><ele>597.4</ele><time>2026-05-03T09:05:40Z</time></trkpt><trkpt lat="44.81042153292856" lon="9.536195976102851"><ele>598.0</ele><time>2026-05-03T09:05:41Z</time></trkpt><trkpt lat="44.810492177337444" lon="9.536073425416399"><ele>598.0</ele><time>2026-05-03T09:05:42Z</time></trkpt><trkpt lat="44.810535104043986" lon="9.535969271502893"><ele>598.0</ele><time>2026-05-03T09:05:43Z</time></trkpt><trkpt lat="44.8105648864933" lon="9.535850961669071"><ele>598.0</ele><time>2026-05-03T09:05:44Z</time></trkpt><trkpt lat="44.81059620037163" lon="9.535692372905842"><ele>598.0</ele><time>2026-05-03T09:05:45Z</time></trkpt><trkpt lat="44.81063136623204" lon="9.535564666630723"><ele>598.0</ele><time>2026-05-03T09:05:46Z</time></trkpt><trkpt lat="44.81067851759708" lon="9.535472868103623"><ele>598.0</ele><time>2026-05-03T09:05:47Z</time></trkpt><trkpt lat="44.81074096824645" lon="9.535415456244758"><ele>598.0</ele><time>2026-05-03T09:05:48Z</time></trkpt><trkpt lat="44.81080243654948" lon="9.535337422547316"><ele>598.0</ele><time>2026-05-03T09:05:49Z</time></trkpt><trkpt lat="44.81089039296886" lon="9.535227567644593"><ele>598.0</ele><time>2026-05-03T09:05:50Z</time></trkpt><trkpt lat="44.810957423664334" lon="9.535121263244864"><ele>598.0</ele><time>2026-05-03T09:05:51Z</time></trkpt><trkpt lat="44.81099324007246" lon="9.535013769287998"><ele>596.8</ele><time>2026-05-03T09:05:52Z</time></trkpt><trkpt lat="44.81100540217052" lon="9.534874902746958"><ele>595.5999999999999</ele><time>2026-05-03T09:05:53Z</time></trkpt><trkpt lat="44.81101077624697" lon="9.53473822637278"><ele>594.4000000000001</ele><time>2026-05-03T09:05:54Z</time></trkpt><trkpt lat="44.8110153687693" lon="9.534633795042781"><ele>593.2</ele><time>2026-05-03T09:05:55Z</time></trkpt><trkpt lat="44.81105773659764" lon="9.534476386165702"><ele>592.0</ele><time>2026-05-03T09:05:57Z</time></trkpt><trkpt lat="44.81106975247004" lon="9.534388889830572"><ele>590.1666666666667</ele><time>2026-05-03T09:05:58Z</time></trkpt><trkpt lat="44.81107105824926" lon="9.53429348518987"><ele>588.3333333333334</ele><time>2026-05-03T09:05:59Z</time></trkpt><trkpt lat="44.81110060648255" lon="9.534116324588933"><ele>586.5</ele><time>2026-05-03T09:06:01Z</time></trkpt><trkpt lat="44.81112172340622" lon="9.53403091877148"><ele>584.6666666666666</ele><time>2026-05-03T09:06:02Z</time></trkpt><trkpt lat="44.81114101012471" lon="9.5339339292651"><ele>582.8333333333333</ele><time>2026-05-03T09:06:03Z</time></trkpt><trkpt lat="44.811159892042255" lon="9.533840894061822"><ele>581.0</ele><time>2026-05-03T09:06:04Z</time></trkpt><trkpt lat="44.81119696231908" lon="9.533754768316577"><ele>578.5</ele><time>2026-05-03T09:06:05Z</time></trkpt><trkpt lat="44.811243943564854" lon="9.53367546839341"><ele>576.0</ele><time>2026-05-03T09:06:06Z</time></trkpt><trkpt lat="44.81126946456799" lon="9.533586643541602"><ele>573.5</ele><time>2026-05-03T09:06:07Z</time></trkpt><trkpt lat="44.81126616098666" lon="9.533475901921351"><ele>571.0</ele><time>2026-05-03T09:06:08Z</time></trkpt><trkpt lat="44.81124818029364" lon="9.533365457519901"><ele>568.5</ele><time>2026-05-03T09:06:09Z</time></trkpt><trkpt lat="44.811234537678324" lon="9.533254269379945"><ele>566.0</ele><time>2026-05-03T09:06:09.999Z</time></trkpt><trkpt lat="44.81123147500179" lon="9.533145825478073"><ele>566.0</ele><time>2026-05-03T09:06:10.999Z</time></trkpt><trkpt lat="44.811244811845306" lon="9.533055375723253"><ele>566.0</ele><time>2026-05-03T09:06:11.999Z</time></trkpt><trkpt lat="44.811219502783096" lon="9.532908554320842"><ele>566.0</ele><time>2026-05-03T09:06:13.999Z</time></trkpt><trkpt lat="44.81116462344508" lon="9.532773096437841"><ele>566.0</ele><time>2026-05-03T09:06:15.999Z</time></trkpt><trkpt lat="44.81111336515776" lon="9.532636867710945"><ele>566.0</ele><time>2026-05-03T09:06:17.999Z</time></trkpt><trkpt lat="44.81104092603533" lon="9.532493440964272"><ele>565.0</ele><time>2026-05-03T09:06:19.999Z</time></trkpt><trkpt lat="44.810999900989614" lon="9.532351534792912"><ele>564.0</ele><time>2026-05-03T09:06:21.999Z</time></trkpt><trkpt lat="44.8109843438891" lon="9.532262186688763"><ele>563.0</ele><time>2026-05-03T09:06:22.999Z</time></trkpt><trkpt lat="44.81097140524143" lon="9.53216462300334"><ele>562.0</ele><time>2026-05-03T09:06:23.999Z</time></trkpt><trkpt lat="44.81097115038192" lon="9.532067325874072"><ele>561.0</ele><time>2026-05-03T09:06:24.999Z</time></trkpt><trkpt lat="44.810968135474276" lon="9.53197541432078"><ele>560.0</ele><time>2026-05-03T09:06:25.999Z</time></trkpt><trkpt lat="44.8109399526023" lon="9.53187808932865"><ele>558.7142857142857</ele><time>2026-05-03T09:06:26.999Z</time></trkpt><trkpt lat="44.810922873839175" lon="9.53178653080972"><ele>557.4285714285714</ele><time>2026-05-03T09:06:27.999Z</time></trkpt><trkpt lat="44.810904366593896" lon="9.531679503823884"><ele>556.1428571428571</ele><time>2026-05-03T09:06:28.999Z</time></trkpt><trkpt lat="44.81087977333375" lon="9.531580806878164"><ele>554.8571428571429</ele><time>2026-05-03T09:06:29.999Z</time></trkpt><trkpt lat="44.810852004085575" lon="9.531474867346565"><ele>553.5714285714286</ele><time>2026-05-03T09:06:30.999Z</time></trkpt><trkpt lat="44.810825798631924" lon="9.531373850171034"><ele>552.2857142857142</ele><time>2026-05-03T09:06:31.999Z</time></trkpt><trkpt lat="44.81079917201523" lon="9.531280477396466"><ele>551.0</ele><time>2026-05-03T09:06:32.999Z</time></trkpt><trkpt lat="44.81077007093672" lon="9.531194375301503"><ele>548.6</ele><time>2026-05-03T09:06:33.999Z</time></trkpt><trkpt lat="44.81078405618421" lon="9.53103842107956"><ele>546.2</ele><time>2026-05-03T09:06:35.999Z</time></trkpt><trkpt lat="44.81084625003387" lon="9.530933969955706"><ele>543.8</ele><time>2026-05-03T09:06:37.999Z</time></trkpt><trkpt lat="44.81078969598948" lon="9.530842612552743"><ele>541.4</ele><time>2026-05-03T09:06:40.999Z</time></trkpt><trkpt lat="44.81074912484671" lon="9.53074382630991"><ele>539.0</ele><time>2026-05-03T09:08:25.999Z</time></trkpt><trkpt lat="44.810671199858675" lon="9.530573212072762"><ele>539.0</ele><time>2026-05-03T09:08:27.999Z</time></trkpt><trkpt lat="44.81061961815453" lon="9.530444295707452"><ele>539.0</ele><time>2026-05-03T09:08:28.999Z</time></trkpt><trkpt lat="44.81058117689938" lon="9.530324126953913"><ele>539.0</ele><time>2026-05-03T09:08:29.999Z</time></trkpt><trkpt lat="44.81053143567706" lon="9.530187470975722"><ele>539.0</ele><time>2026-05-03T09:08:30.999Z</time></trkpt><trkpt lat="44.81047484029453" lon="9.53002031105517"><ele>539.0</ele><time>2026-05-03T09:08:31.999Z</time></trkpt><trkpt lat="44.81043173538924" lon="9.52985811016794"><ele>536.8</ele><time>2026-05-03T09:08:32.999Z</time></trkpt><trkpt lat="44.81039488649151" lon="9.529708429103083"><ele>534.5999999999999</ele><time>2026-05-03T09:08:33.999Z</time></trkpt><trkpt lat="44.810362318220974" lon="9.529570679153574"><ele>532.4</ele><time>2026-05-03T09:08:34.999Z</time></trkpt><trkpt lat="44.81032247828785" lon="9.52942166183464"><ele>530.1999999999999</ele><time>2026-05-03T09:08:35.999Z</time></trkpt><trkpt lat="44.81027674104245" lon="9.529274870397272"><ele>528.0</ele><time>2026-05-03T09:08:36.999Z</time></trkpt><trkpt lat="44.81022776017918" lon="9.529145079099516"><ele>526.4</ele><time>2026-05-03T09:08:37.999Z</time></trkpt><trkpt lat="44.81018115551071" lon="9.529029669166366"><ele>524.8</ele><time>2026-05-03T09:08:38.999Z</time></trkpt><trkpt lat="44.810130058295854" lon="9.528900983278133"><ele>523.2</ele><time>2026-05-03T09:08:39.999Z</time></trkpt><trkpt lat="44.810076343484745" lon="9.528761807405543"><ele>521.6</ele><time>2026-05-03T09:08:40.999Z</time></trkpt><trkpt lat="44.81004764826607" lon="9.528625411845177"><ele>520.0</ele><time>2026-05-03T09:08:41.999Z</time></trkpt><trkpt lat="44.810048429926155" lon="9.528479397553532"><ele>518.75</ele><time>2026-05-03T09:08:42.999Z</time></trkpt><trkpt lat="44.81006114801352" lon="9.528310597137269"><ele>517.5</ele><time>2026-05-03T09:08:43.999Z</time></trkpt><trkpt lat="44.81006651264055" lon="9.528127695459924"><ele>516.25</ele><time>2026-05-03T09:08:44.999Z</time></trkpt><trkpt lat="44.81006877787634" lon="9.527965332926126"><ele>515.0</ele><time>2026-05-03T09:08:45.999Z</time></trkpt><trkpt lat="44.81006736979155" lon="9.52779076304251"><ele>514.25</ele><time>2026-05-03T09:08:46.999Z</time></trkpt><trkpt lat="44.81006294828869" lon="9.527618315344753"><ele>513.5</ele><time>2026-05-03T09:08:47.999Z</time></trkpt><trkpt lat="44.810055684344405" lon="9.527455203424388"><ele>512.75</ele><time>2026-05-03T09:08:48.999Z</time></trkpt><trkpt lat="44.8100550671797" lon="9.527290931293619"><ele>512.0</ele><time>2026-05-03T09:08:49.999Z</time></trkpt><trkpt lat="44.81005941547971" lon="9.527128201170168"><ele>510.20000000000005</ele><time>2026-05-03T09:08:50.999Z</time></trkpt><trkpt lat="44.810070780448214" lon="9.526980966117135"><ele>508.40000000000003</ele><time>2026-05-03T09:08:51.999Z</time></trkpt><trkpt lat="44.81007576920801" lon="9.526841311070799"><ele>506.59999999999997</ele><time>2026-05-03T09:08:52.999Z</time></trkpt><trkpt lat="44.810073441191385" lon="9.526711625286739"><ele>504.79999999999995</ele><time>2026-05-03T09:08:53.999Z</time></trkpt><trkpt lat="44.81006829915702" lon="9.526588189293566"><ele>503.0</ele><time>2026-05-03T09:08:54.999Z</time></trkpt><trkpt lat="44.8100509557576" lon="9.526474697922982"><ele>503.0</ele><time>2026-05-03T09:08:55.999Z</time></trkpt><trkpt lat="44.81002692749951" lon="9.526357915770818"><ele>502.99999999999994</ele><time>2026-05-03T09:08:56.999Z</time></trkpt><trkpt lat="44.809998296700556" lon="9.526224465397044"><ele>502.99999999999994</ele><time>2026-05-03T09:08:57.999Z</time></trkpt><trkpt lat="44.80997145065454" lon="9.526079366902158"><ele>503.0</ele><time>2026-05-03T09:08:58.999Z</time></trkpt><trkpt lat="44.80994474838304" lon="9.525939250301573"><ele>503.0</ele><time>2026-05-03T09:08:59.999Z</time></trkpt><trkpt lat="44.809911315261026" lon="9.52579332721219"><ele>502.2</ele><time>2026-05-03T09:09:00.999Z</time></trkpt><trkpt lat="44.80987532273552" lon="9.525646950904479"><ele>501.4</ele><time>2026-05-03T09:09:01.999Z</time></trkpt><trkpt lat="44.80985381765675" lon="9.525499855167762"><ele>500.59999999999997</ele><time>2026-05-03T09:09:02.999Z</time></trkpt><trkpt lat="44.80984343613964" lon="9.525344072023191"><ele>499.79999999999995</ele><time>2026-05-03T09:09:03.999Z</time></trkpt><trkpt lat="44.80982741168159" lon="9.52519096478608"><ele>499.0</ele><time>2026-05-03T09:09:04.999Z</time></trkpt><trkpt lat="44.80978465585025" lon="9.525050236380284"><ele>496.6</ele><time>2026-05-03T09:09:05.999Z</time></trkpt><trkpt lat="44.80973495567797" lon="9.524919443708992"><ele>494.2</ele><time>2026-05-03T09:09:06.999Z</time></trkpt><trkpt lat="44.809686024818745" lon="9.524788825298458"><ele>491.80000000000007</ele><time>2026-05-03T09:09:07.999Z</time></trkpt><trkpt lat="44.809644959618836" lon="9.524661206724753"><ele>489.40000000000003</ele><time>2026-05-03T09:09:08.999Z</time></trkpt><trkpt lat="44.80961029960578" lon="9.524536878969569"><ele>487.0</ele><time>2026-05-03T09:09:09.999Z</time></trkpt><trkpt lat="44.80957346371654" lon="9.524406892589424"><ele>485.0</ele><time>2026-05-03T09:09:10.999Z</time></trkpt><trkpt lat="44.80953240505774" lon="9.524273299615844"><ele>483.00000000000006</ele><time>2026-05-03T09:09:11.999Z</time></trkpt><trkpt lat="44.80948895400314" lon="9.524130662977248"><ele>481.00000000000006</ele><time>2026-05-03T09:09:12.999Z</time></trkpt><trkpt lat="44.809447118056404" lon="9.523998661757465"><ele>479.0</ele><time>2026-05-03T09:09:13.999Z</time></trkpt><trkpt lat="44.80940724759952" lon="9.523874127036558"><ele>477.0</ele><time>2026-05-03T09:09:14.999Z</time></trkpt><trkpt lat="44.80937239208546" lon="9.523752332870407"><ele>477.6</ele><time>2026-05-03T09:09:15.999Z</time></trkpt><trkpt lat="44.80933646175152" lon="9.523633708656929"><ele>478.20000000000005</ele><time>2026-05-03T09:09:16.998Z</time></trkpt><trkpt lat="44.809292460954445" lon="9.5235162623671"><ele>478.8</ele><time>2026-05-03T09:09:17.998Z</time></trkpt><trkpt lat="44.80925634289981" lon="9.52340323140588"><ele>479.4</ele><time>2026-05-03T09:09:18.998Z</time></trkpt><trkpt lat="44.80923271740646" lon="9.52328794483014"><ele>480.0</ele><time>2026-05-03T09:09:19.998Z</time></trkpt><trkpt lat="44.80922136531729" lon="9.523138846784303"><ele>480.0</ele><time>2026-05-03T09:09:20.998Z</time></trkpt><trkpt lat="44.80920831533292" lon="9.522993350817613"><ele>480.0</ele><time>2026-05-03T09:09:21.998Z</time></trkpt><trkpt lat="44.80917947253964" lon="9.52284955286166"><ele>480.0</ele><time>2026-05-03T09:09:22.998Z</time></trkpt><trkpt lat="44.80915335572506" lon="9.522712487033138"><ele>480.0</ele><time>2026-05-03T09:09:23.998Z</time></trkpt><trkpt lat="44.80914097701086" lon="9.522590723341043"><ele>480.0</ele><time>2026-05-03T09:09:24.998Z</time></trkpt><trkpt lat="44.80913171675784" lon="9.522484951082673"><ele>480.2</ele><time>2026-05-03T09:09:25.998Z</time></trkpt><trkpt lat="44.80912677634502" lon="9.52239372979804"><ele>480.4</ele><time>2026-05-03T09:09:26.998Z</time></trkpt><trkpt lat="44.809183013417886" lon="9.522254061094253"><ele>480.6</ele><time>2026-05-03T09:09:28.998Z</time></trkpt><trkpt lat="44.809270319854775" lon="9.522164669246784"><ele>480.8</ele><time>2026-05-03T09:09:30.998Z</time></trkpt><trkpt lat="44.8093220110894" lon="9.52208746571742"><ele>481.0</ele><time>2026-05-03T09:09:32.998Z</time></trkpt><trkpt lat="44.80940906972103" lon="9.521982618602147"><ele>480.25</ele><time>2026-05-03T09:09:34.998Z</time></trkpt><trkpt lat="44.80949178905567" lon="9.521904291565722"><ele>479.5</ele><time>2026-05-03T09:09:35.998Z</time></trkpt><trkpt lat="44.809597359560186" lon="9.5218454214741"><ele>478.75</ele><time>2026-05-03T09:09:36.998Z</time></trkpt><trkpt lat="44.80970471317515" lon="9.521764318335586"><ele>478.0</ele><time>2026-05-03T09:09:37.998Z</time></trkpt><trkpt lat="44.80980464743637" lon="9.521680922755143"><ele>478.0</ele><time>2026-05-03T09:09:38.998Z</time></trkpt><trkpt lat="44.80989464726112" lon="9.521584877510326"><ele>477.99999999999994</ele><time>2026-05-03T09:09:39.998Z</time></trkpt><trkpt lat="44.80998164560368" lon="9.521486753706858"><ele>477.99999999999994</ele><time>2026-05-03T09:09:40.998Z</time></trkpt><trkpt lat="44.81005837432668" lon="9.521383613303113"><ele>478.0</ele><time>2026-05-03T09:09:42Z</time></trkpt><trkpt lat="44.81012759863376" lon="9.521285609379623"><ele>478.0</ele><time>2026-05-03T09:09:43Z</time></trkpt><trkpt lat="44.81017970466411" lon="9.52119644639021"><ele>472.79999999999995</ele><time>2026-05-03T09:09:44Z</time></trkpt><trkpt lat="44.81021769872266" lon="9.521084942955694"><ele>467.59999999999997</ele><time>2026-05-03T09:09:45Z</time></trkpt><trkpt lat="44.810245932973864" lon="9.520960586649847"><ele>462.40000000000003</ele><time>2026-05-03T09:09:46Z</time></trkpt><trkpt lat="44.81026448727016" lon="9.520825996292665"><ele>457.20000000000005</ele><time>2026-05-03T09:09:47Z</time></trkpt><trkpt lat="44.81025698634032" lon="9.520677263480545"><ele>452.0</ele><time>2026-05-03T09:09:48Z</time></trkpt><trkpt lat="44.81025587593224" lon="9.520527377254036"><ele>451.3333333333333</ele><time>2026-05-03T09:09:49Z</time></trkpt><trkpt lat="44.810276023702286" lon="9.52037716373777"><ele>450.66666666666663</ele><time>2026-05-03T09:09:50Z</time></trkpt><trkpt lat="44.81029247115193" lon="9.52023757117923"><ele>450.0</ele><time>2026-05-03T09:09:51Z</time></trkpt><trkpt lat="44.81030181711763" lon="9.520111718990288"><ele>449.33333333333337</ele><time>2026-05-03T09:09:52Z</time></trkpt><trkpt lat="44.81031479462566" lon="9.520011811526889"><ele>448.6666666666667</ele><time>2026-05-03T09:09:53Z</time></trkpt><trkpt lat="44.81034785204007" lon="9.519917666926128"><ele>448.0</ele><time>2026-05-03T09:09:54Z</time></trkpt><trkpt lat="44.810409100357674" lon="9.519847321067688"><ele>448.00000000000006</ele><time>2026-05-03T09:09:55Z</time></trkpt><trkpt lat="44.810469395582295" lon="9.519783768062203"><ele>448.0</ele><time>2026-05-03T09:09:56Z</time></trkpt><trkpt lat="44.81051211753359" lon="9.51970748691237"><ele>448.0</ele><time>2026-05-03T09:09:57Z</time></trkpt><trkpt lat="44.810548699688184" lon="9.51961346694755"><ele>448.0</ele><time>2026-05-03T09:09:58Z</time></trkpt><trkpt lat="44.810587360592336" lon="9.519516371300602"><ele>448.00000000000006</ele><time>2026-05-03T09:09:59Z</time></trkpt><trkpt lat="44.81062322772956" lon="9.519409931790268"><ele>448.0</ele><time>2026-05-03T09:10:00Z</time></trkpt><trkpt lat="44.810632513316556" lon="9.519302244674558"><ele>446.83333333333337</ele><time>2026-05-03T09:10:01Z</time></trkpt><trkpt lat="44.810625384434054" lon="9.519213637559652"><ele>445.6666666666667</ele><time>2026-05-03T09:10:02Z</time></trkpt><trkpt lat="44.810579354109436" lon="9.519147171965592"><ele>444.5</ele><time>2026-05-03T09:10:03Z</time></trkpt><trkpt lat="44.81051417602355" lon="9.519072834087627"><ele>443.33333333333337</ele><time>2026-05-03T09:10:04Z</time></trkpt><trkpt lat="44.8104629502991" lon="9.518972248560011"><ele>442.1666666666667</ele><time>2026-05-03T09:10:05Z</time></trkpt><trkpt lat="44.810428106313495" lon="9.518874978131965"><ele>441.0</ele><time>2026-05-03T09:10:06Z</time></trkpt><trkpt lat="44.81039624488774" lon="9.51877939614059"><ele>440.0</ele><time>2026-05-03T09:10:07Z</time></trkpt><trkpt lat="44.81037255326996" lon="9.518694914863941"><ele>439.0</ele><time>2026-05-03T09:10:08Z</time></trkpt><trkpt lat="44.81035991694353" lon="9.51860095541805"><ele>438.0</ele><time>2026-05-03T09:10:09Z</time></trkpt><trkpt lat="44.81036699260185" lon="9.51848969297461"><ele>437.0</ele><time>2026-05-03T09:10:10Z</time></trkpt><trkpt lat="44.81038614234467" lon="9.518365976844294"><ele>436.0</ele><time>2026-05-03T09:10:11Z</time></trkpt><trkpt lat="44.810408001996045" lon="9.518274194413435"><ele>435.0</ele><time>2026-05-03T09:10:12Z</time></trkpt><trkpt lat="44.81042994261751" lon="9.518177905462652"><ele>434.0</ele><time>2026-05-03T09:10:13Z</time></trkpt><trkpt lat="44.8104533023717" lon="9.518092910201092"><ele>433.99999999999994</ele><time>2026-05-03T09:10:14Z</time></trkpt><trkpt lat="44.81047657915307" lon="9.517988657801933"><ele>434.0</ele><time>2026-05-03T09:10:16Z</time></trkpt><trkpt lat="44.81045017033315" lon="9.51787232118294"><ele>434.0</ele><time>2026-05-03T09:10:34.999Z</time></trkpt><trkpt lat="44.8104282050297" lon="9.517763170030474"><ele>434.0</ele><time>2026-05-03T09:10:35.999Z</time></trkpt><trkpt lat="44.81040777749182" lon="9.517644958435092"><ele>433.99999999999994</ele><time>2026-05-03T09:10:36.999Z</time></trkpt><trkpt lat="44.81039555642526" lon="9.51753382157323"><ele>434.0</ele><time>2026-05-03T09:10:37.999Z</time></trkpt><trkpt lat="44.810380607067074" lon="9.517434762230618"><ele>432.8333333333333</ele><time>2026-05-03T09:10:38.999Z</time></trkpt><trkpt lat="44.81037355421144" lon="9.517345587993336"><ele>431.66666666666663</ele><time>2026-05-03T09:10:39.999Z</time></trkpt><trkpt lat="44.81034854554671" lon="9.517171209752506"><ele>430.5</ele><time>2026-05-03T09:10:41.999Z</time></trkpt><trkpt lat="44.810353640855915" lon="9.517059225177233"><ele>429.33333333333337</ele><time>2026-05-03T09:10:42.999Z</time></trkpt><trkpt lat="44.81035548306444" lon="9.516943429019129"><ele>428.1666666666667</ele><time>2026-05-03T09:10:43.999Z</time></trkpt><trkpt lat="44.81033975984376" lon="9.516829624349317"><ele>427.0</ele><time>2026-05-03T09:10:44.999Z</time></trkpt><trkpt lat="44.810322708495335" lon="9.516718178966768"><ele>423.50000000000006</ele><time>2026-05-03T09:10:45.999Z</time></trkpt><trkpt lat="44.81030439450443" lon="9.516616967822024"><ele>420.0</ele><time>2026-05-03T09:10:46.999Z</time></trkpt><trkpt lat="44.81028379903383" lon="9.516526147757284"><ele>416.5</ele><time>2026-05-03T09:10:47.999Z</time></trkpt><trkpt lat="44.81027021884508" lon="9.516438306151805"><ele>413.0</ele><time>2026-05-03T09:10:48.999Z</time></trkpt><trkpt lat="44.81025920196123" lon="9.516283246490442"><ele>409.50000000000006</ele><time>2026-05-03T09:10:50.999Z</time></trkpt><trkpt lat="44.81030946447397" lon="9.516110686291068"><ele>406.0</ele><time>2026-05-03T09:10:52.999Z</time></trkpt><trkpt lat="44.81033932123844" lon="9.515997355312106"><ele>404.1666666666667</ele><time>2026-05-03T09:10:53.999Z</time></trkpt><trkpt lat="44.81037365956999" lon="9.515885562467528"><ele>402.33333333333337</ele><time>2026-05-03T09:10:54.999Z</time></trkpt><trkpt lat="44.81039157212181" lon="9.515753698812887"><ele>400.5</ele><time>2026-05-03T09:10:55.999Z</time></trkpt><trkpt lat="44.8103995358017" lon="9.51561764397118"><ele>398.66666666666663</ele><time>2026-05-03T09:10:56.999Z</time></trkpt><trkpt lat="44.81042509985836" lon="9.515532063003421"><ele>396.8333333333333</ele><time>2026-05-03T09:10:57.999Z</time></trkpt><trkpt lat="44.81044655742807" lon="9.515414131247548"><ele>395.0</ele><time>2026-05-03T09:10:59.999Z</time></trkpt><trkpt lat="44.810533978658555" lon="9.515375506637495"><ele>394.66666666666663</ele><time>2026-05-03T09:11:02.999Z</time></trkpt><trkpt lat="44.8106081477941" lon="9.515306497102097"><ele>394.3333333333333</ele><time>2026-05-03T09:11:04.999Z</time></trkpt><trkpt lat="44.810645006370024" lon="9.515215226744811"><ele>394.0</ele><time>2026-05-03T09:11:05.999Z</time></trkpt><trkpt lat="44.810700748231596" lon="9.515139980828296"><ele>393.66666666666663</ele><time>2026-05-03T09:11:06.999Z</time></trkpt><trkpt lat="44.81074683516661" lon="9.515032887253428"><ele>393.3333333333333</ele><time>2026-05-03T09:11:07.999Z</time></trkpt><trkpt lat="44.81079312500471" lon="9.514966990114758"><ele>393.0</ele><time>2026-05-03T09:11:08.999Z</time></trkpt><trkpt lat="44.810907844589444" lon="9.514971288502782"><ele>393.0</ele><time>2026-05-03T09:11:11.999Z</time></trkpt><trkpt lat="44.81098625464989" lon="9.514960932948409"><ele>393.0</ele><time>2026-05-03T09:11:12.999Z</time></trkpt><trkpt lat="44.8110555502319" lon="9.514984688494772"><ele>393.0</ele><time>2026-05-03T09:11:13.999Z</time></trkpt><trkpt lat="44.811123500961365" lon="9.515024804597749"><ele>393.0</ele><time>2026-05-03T09:11:14.999Z</time></trkpt><trkpt lat="44.81118888814718" lon="9.51504549054626"><ele>393.0</ele><time>2026-05-03T09:11:15.999Z</time></trkpt><trkpt lat="44.81129886766446" lon="9.515107265971968"><ele>393.0</ele><time>2026-05-03T09:11:17.999Z</time></trkpt><trkpt lat="44.811418335759065" lon="9.515120194927329"><ele>390.3333333333333</ele><time>2026-05-03T09:11:19.998Z</time></trkpt><trkpt lat="44.81153918848599" lon="9.515127545718775"><ele>387.6666666666667</ele><time>2026-05-03T09:11:21.998Z</time></trkpt><trkpt lat="44.811602165030266" lon="9.515140797898878"><ele>385.0</ele><time>2026-05-03T09:11:22.998Z</time></trkpt><trkpt lat="44.81172699980848" lon="9.515149242081064"><ele>382.33333333333337</ele><time>2026-05-03T09:11:24.998Z</time></trkpt><trkpt lat="44.811792133994246" lon="9.515140973961648"><ele>379.6666666666667</ele><time>2026-05-03T09:11:25.998Z</time></trkpt><trkpt lat="44.811851634989736" lon="9.515093514483256"><ele>377.0</ele><time>2026-05-03T09:11:27.998Z</time></trkpt><trkpt lat="44.811904586965376" lon="9.51504513711399"><ele>372.6666666666667</ele><time>2026-05-03T09:11:32.998Z</time></trkpt><trkpt lat="44.81198814313713" lon="9.515038166502157"><ele>368.33333333333337</ele><time>2026-05-03T09:11:37.998Z</time></trkpt><trkpt lat="44.812051014712424" lon="9.515101309768918"><ele>364.0</ele><time>2026-05-03T09:11:40.998Z</time></trkpt><trkpt lat="44.81209245508874" lon="9.515197649812091"><ele>359.6666666666667</ele><time>2026-05-03T09:11:42.998Z</time></trkpt><trkpt lat="44.81217324881334" lon="9.515204021359141"><ele>355.3333333333333</ele><time>2026-05-03T09:11:44.998Z</time></trkpt><trkpt lat="44.81228637670822" lon="9.515208324271082"><ele>351.0</ele><time>2026-05-03T09:11:46.998Z</time></trkpt><trkpt lat="44.81233724473238" lon="9.515123992210015"><ele>351.00000000000006</ele><time>2026-05-03T09:11:49Z</time></trkpt><trkpt lat="44.81235861341973" lon="9.515038639411822"><ele>351.0</ele><time>2026-05-03T09:11:52Z</time></trkpt><trkpt lat="44.81243554521392" lon="9.515054377331692"><ele>351.0</ele><time>2026-05-03T09:11:55Z</time></trkpt><trkpt lat="44.81250764342781" lon="9.515020176647958"><ele>351.0</ele><time>2026-05-03T09:11:58Z</time></trkpt><trkpt lat="44.81252871249607" lon="9.514924215988977"><ele>351.0</ele><time>2026-05-03T09:12:02Z</time></trkpt><trkpt lat="44.81259501530561" lon="9.514860687525136"><ele>351.00000000000006</ele><time>2026-05-03T09:12:05Z</time></trkpt><trkpt lat="44.812661360381206" lon="9.514828032055778"><ele>351.0</ele><time>2026-05-03T09:12:06Z</time></trkpt><trkpt lat="44.812748714541044" lon="9.51473550264307"><ele>346.20000000000005</ele><time>2026-05-03T09:12:07Z</time></trkpt><trkpt lat="44.812810367838146" lon="9.514766467807329"><ele>341.40000000000003</ele><time>2026-05-03T09:12:09Z</time></trkpt><trkpt lat="44.81288907731825" lon="9.514727325273611"><ele>336.6</ele><time>2026-05-03T09:12:11Z</time></trkpt><trkpt lat="44.812962576424205" lon="9.514620187729312"><ele>331.8</ele><time>2026-05-03T09:12:13Z</time></trkpt><trkpt lat="44.81299756145858" lon="9.514495030854896"><ele>327.0</ele><time>2026-05-03T09:12:15Z</time></trkpt><trkpt lat="44.81310350487583" lon="9.514512936777477"><ele>327.0</ele><time>2026-05-03T09:12:17Z</time></trkpt><trkpt lat="44.81316702916121" lon="9.514468737256568"><ele>327.0</ele><time>2026-05-03T09:12:19Z</time></trkpt><trkpt lat="44.81321798094405" lon="9.514316424522605"><ele>327.0</ele><time>2026-05-03T09:12:21Z</time></trkpt><trkpt lat="44.813267886944494" lon="9.514225932755547"><ele>327.0</ele><time>2026-05-03T09:12:23Z</time></trkpt><trkpt lat="44.81331864437609" lon="9.514101691214638"><ele>327.0</ele><time>2026-05-03T09:12:25Z</time></trkpt><trkpt lat="44.8132985841716" lon="9.514015496391526"><ele>327.0</ele><time>2026-05-03T09:12:26Z</time></trkpt><trkpt lat="44.813339254642116" lon="9.513834398953376"><ele>327.0</ele><time>2026-05-03T09:12:28Z</time></trkpt><trkpt lat="44.81335132042815" lon="9.513741346006253"><ele>327.0</ele><time>2026-05-03T09:12:29Z</time></trkpt><trkpt lat="44.813349076868356" lon="9.513641453582714"><ele>327.0</ele><time>2026-05-03T09:12:29.999Z</time></trkpt><trkpt lat="44.813336591796514" lon="9.513550290603732"><ele>327.0</ele><time>2026-05-03T09:12:30.999Z</time></trkpt><trkpt lat="44.81332464475516" lon="9.513445733143907"><ele>327.0</ele><time>2026-05-03T09:12:31.999Z</time></trkpt><trkpt lat="44.81332385102361" lon="9.513326238707096"><ele>327.0</ele><time>2026-05-03T09:12:32.999Z</time></trkpt><trkpt lat="44.81333311299474" lon="9.513232343611852"><ele>327.0</ele><time>2026-05-03T09:12:33.999Z</time></trkpt><trkpt lat="44.81331525046379" lon="9.513141976183029"><ele>325.3333333333333</ele><time>2026-05-03T09:12:35.999Z</time></trkpt><trkpt lat="44.813304497635855" lon="9.513050020096232"><ele>323.6666666666667</ele><time>2026-05-03T09:12:37.999Z</time></trkpt><trkpt lat="44.813318900032094" lon="9.512839204476245"><ele>322.0</ele><time>2026-05-03T09:12:40.999Z</time></trkpt><trkpt lat="44.81332824634313" lon="9.512745014003679"><ele>320.33333333333337</ele><time>2026-05-03T09:12:42.999Z</time></trkpt><trkpt lat="44.81332847660488" lon="9.512650356808644"><ele>318.6666666666667</ele><time>2026-05-03T09:12:44.999Z</time></trkpt><trkpt lat="44.81333610098091" lon="9.512534427743681"><ele>317.0</ele><time>2026-05-03T09:12:46.999Z</time></trkpt><trkpt lat="44.81332361083189" lon="9.512409184571295"><ele>314.4</ele><time>2026-05-03T09:12:48.999Z</time></trkpt><trkpt lat="44.813344241297784" lon="9.512317719975911"><ele>311.79999999999995</ele><time>2026-05-03T09:12:52.999Z</time></trkpt><trkpt lat="44.81342080189276" lon="9.512302480588128"><ele>309.2</ele><time>2026-05-03T09:12:55.999Z</time></trkpt><trkpt lat="44.81358371697882" lon="9.51237592684528"><ele>306.59999999999997</ele><time>2026-05-03T09:13:24.998Z</time></trkpt><trkpt lat="44.81365434368306" lon="9.512502007626319"><ele>304.0</ele><time>2026-05-03T09:13:25.998Z</time></trkpt><trkpt lat="44.81372013515385" lon="9.512683595767065"><ele>301.0</ele><time>2026-05-03T09:13:26.998Z</time></trkpt><trkpt lat="44.81378083169918" lon="9.512843138508961"><ele>298.0</ele><time>2026-05-03T09:13:27.998Z</time></trkpt><trkpt lat="44.813854204822476" lon="9.513018090396736"><ele>295.0</ele><time>2026-05-03T09:13:28.998Z</time></trkpt><trkpt lat="44.81392434608285" lon="9.513117219811516"><ele>292.0</ele><time>2026-05-03T09:13:29.998Z</time></trkpt><trkpt lat="44.81394223005623" lon="9.513250497057744"><ele>292.0</ele><time>2026-05-03T09:13:30.998Z</time></trkpt><trkpt lat="44.813888615505" lon="9.513335699385516"><ele>292.0</ele><time>2026-05-03T09:13:31.998Z</time></trkpt><trkpt lat="44.81384208133617" lon="9.513440396247784"><ele>292.0</ele><time>2026-05-03T09:13:32.998Z</time></trkpt><trkpt lat="44.813812797914494" lon="9.51354243526665"><ele>292.0</ele><time>2026-05-03T09:13:33.998Z</time></trkpt><trkpt lat="44.813808862464384" lon="9.513641511179587"><ele>292.0</ele><time>2026-05-03T09:13:34.998Z</time></trkpt><trkpt lat="44.81383377344521" lon="9.513735719108055"><ele>292.0</ele><time>2026-05-03T09:13:35.998Z</time></trkpt><trkpt lat="44.81388328910407" lon="9.51380077832905"><ele>291.2</ele><time>2026-05-03T09:13:36.998Z</time></trkpt><trkpt lat="44.81397796621899" lon="9.513839870570171"><ele>290.4</ele><time>2026-05-03T09:13:37.998Z</time></trkpt><trkpt lat="44.81409865186269" lon="9.513841215278658"><ele>289.6</ele><time>2026-05-03T09:13:38.998Z</time></trkpt><trkpt lat="44.8141971027914" lon="9.513867772435557"><ele>288.8</ele><time>2026-05-03T09:13:39.998Z</time></trkpt><trkpt lat="44.81429342556124" lon="9.513980047245338"><ele>288.0</ele><time>2026-05-03T09:13:40.998Z</time></trkpt><trkpt lat="44.81437552797007" lon="9.51412038618246"><ele>288.0</ele><time>2026-05-03T09:13:41.998Z</time></trkpt><trkpt lat="44.81446363110024" lon="9.514236696549055"><ele>288.0</ele><time>2026-05-03T09:13:42.998Z</time></trkpt><trkpt lat="44.81455712098597" lon="9.514310899708757"><ele>288.0</ele><time>2026-05-03T09:13:43.998Z</time></trkpt><trkpt lat="44.81464926436464" lon="9.514362610155162"><ele>288.0</ele><time>2026-05-03T09:13:44.998Z</time></trkpt><trkpt lat="44.81473357230233" lon="9.514421907141765"><ele>288.0</ele><time>2026-05-03T09:13:45.998Z</time></trkpt><trkpt lat="44.81480143914402" lon="9.514491882440211"><ele>289.4</ele><time>2026-05-03T09:13:46.998Z</time></trkpt><trkpt lat="44.81483917163271" lon="9.514582783797062"><ele>290.8</ele><time>2026-05-03T09:13:47.998Z</time></trkpt><trkpt lat="44.8148448109559" lon="9.514693800072465"><ele>292.2</ele><time>2026-05-03T09:13:48.998Z</time></trkpt><trkpt lat="44.81483760660389" lon="9.514809791050538"><ele>293.6</ele><time>2026-05-03T09:13:49.998Z</time></trkpt><trkpt lat="44.81488537923931" lon="9.514954656538032"><ele>295.0</ele><time>2026-05-03T09:13:51.998Z</time></trkpt><trkpt lat="44.815017953210194" lon="9.514939435269948"><ele>295.0</ele><time>2026-05-03T09:13:54Z</time></trkpt><trkpt lat="44.81510812673877" lon="9.514862310356683"><ele>295.0</ele><time>2026-05-03T09:13:55Z</time></trkpt><trkpt lat="44.81519829067691" lon="9.514726763130332"><ele>295.0</ele><time>2026-05-03T09:13:56Z</time></trkpt><trkpt lat="44.81526512453433" lon="9.514569332973341"><ele>295.0</ele><time>2026-05-03T09:13:57Z</time></trkpt><trkpt lat="44.81534476002613" lon="9.514415121649668"><ele>295.25</ele><time>2026-05-03T09:13:58Z</time></trkpt><trkpt lat="44.815452286650086" lon="9.514326681099032"><ele>295.5</ele><time>2026-05-03T09:13:59Z</time></trkpt><trkpt lat="44.81555954339591" lon="9.514261252052343"><ele>295.75</ele><time>2026-05-03T09:14:00Z</time></trkpt><trkpt lat="44.815629420883255" lon="9.514129972885945"><ele>296.0</ele><time>2026-05-03T09:14:01Z</time></trkpt><trkpt lat="44.8156516199499" lon="9.513947678479578"><ele>296.0</ele><time>2026-05-03T09:14:02Z</time></trkpt><trkpt lat="44.81567104403959" lon="9.513770824761387"><ele>296.0</ele><time>2026-05-03T09:14:03Z</time></trkpt><trkpt lat="44.81572409411427" lon="9.513610460586506"><ele>296.0</ele><time>2026-05-03T09:14:04Z</time></trkpt><trkpt lat="44.815799097794404" lon="9.51344359591115"><ele>296.0</ele><time>2026-05-03T09:14:05Z</time></trkpt><trkpt lat="44.81587802428457" lon="9.513292845880132"><ele>297.0</ele><time>2026-05-03T09:14:06Z</time></trkpt><trkpt lat="44.81596863252056" lon="9.513167709689935"><ele>298.0</ele><time>2026-05-03T09:14:07Z</time></trkpt><trkpt lat="44.81605733720065" lon="9.513058854151378"><ele>299.0</ele><time>2026-05-03T09:14:08Z</time></trkpt><trkpt lat="44.81610968177811" lon="9.512926173305127"><ele>300.0</ele><time>2026-05-03T09:14:09Z</time></trkpt><trkpt lat="44.81610072686802" lon="9.51276694040762"><ele>297.5</ele><time>2026-05-03T09:14:10Z</time></trkpt><trkpt lat="44.81604762023721" lon="9.512618270636164"><ele>295.0</ele><time>2026-05-03T09:14:11Z</time></trkpt><trkpt lat="44.816029021133424" lon="9.512476112009656"><ele>292.5</ele><time>2026-05-03T09:14:12Z</time></trkpt><trkpt lat="44.81607711955586" lon="9.512310733899579"><ele>290.0</ele><time>2026-05-03T09:14:13Z</time></trkpt><trkpt lat="44.816126834488834" lon="9.512142554711321"><ele>288.25</ele><time>2026-05-03T09:14:14Z</time></trkpt><trkpt lat="44.81615923153186" lon="9.511979017313209"><ele>286.5</ele><time>2026-05-03T09:14:15Z</time></trkpt><trkpt lat="44.81619126124969" lon="9.511827337139678"><ele>284.75</ele><time>2026-05-03T09:14:16Z</time></trkpt><trkpt lat="44.816257037966814" lon="9.511681610265807"><ele>283.0</ele><time>2026-05-03T09:14:17Z</time></trkpt><trkpt lat="44.816330184878304" lon="9.511529093308386"><ele>283.0</ele><time>2026-05-03T09:14:18Z</time></trkpt><trkpt lat="44.816348718033744" lon="9.511362373012629"><ele>283.0</ele><time>2026-05-03T09:14:19Z</time></trkpt><trkpt lat="44.81631903366312" lon="9.511202356267281"><ele>283.0</ele><time>2026-05-03T09:14:20Z</time></trkpt><trkpt lat="44.81626131918581" lon="9.51104939734424"><ele>283.0</ele><time>2026-05-03T09:14:21Z</time></trkpt><trkpt lat="44.81616180007975" lon="9.510909507939088"><ele>282.5</ele><time>2026-05-03T09:14:22Z</time></trkpt><trkpt lat="44.81606513393541" lon="9.51078014866705"><ele>282.0</ele><time>2026-05-03T09:14:23Z</time></trkpt><trkpt lat="44.816024916760995" lon="9.510622372966495"><ele>281.5</ele><time>2026-05-03T09:14:24Z</time></trkpt><trkpt lat="44.81603134204633" lon="9.510447459675738"><ele>281.0</ele><time>2026-05-03T09:14:25Z</time></trkpt><trkpt lat="44.81605345361023" lon="9.51026500085537"><ele>281.0</ele><time>2026-05-03T09:14:26Z</time></trkpt><trkpt lat="44.81606621479456" lon="9.510068227712448"><ele>281.0</ele><time>2026-05-03T09:14:27Z</time></trkpt><trkpt lat="44.816037738060096" lon="9.509876304031588"><ele>281.0</ele><time>2026-05-03T09:14:28Z</time></trkpt><trkpt lat="44.81597058037911" lon="9.509699056520187"><ele>281.0</ele><time>2026-05-03T09:14:29Z</time></trkpt><trkpt lat="44.81588500744582" lon="9.509541013832461"><ele>275.5</ele><time>2026-05-03T09:14:30Z</time></trkpt><trkpt lat="44.81579735116947" lon="9.509398499645949"><ele>270.0</ele><time>2026-05-03T09:14:31Z</time></trkpt><trkpt lat="44.81571893733336" lon="9.509250523655219"><ele>264.5</ele><time>2026-05-03T09:14:32Z</time></trkpt><trkpt lat="44.81566570158423" lon="9.509101206485168"><ele>259.0</ele><time>2026-05-03T09:14:32.999Z</time></trkpt><trkpt lat="44.81563231827667" lon="9.508954173000161"><ele>259.0</ele><time>2026-05-03T09:14:33.999Z</time></trkpt><trkpt lat="44.81561760208216" lon="9.508801888346948"><ele>259.0</ele><time>2026-05-03T09:14:34.999Z</time></trkpt><trkpt lat="44.81563386544189" lon="9.508676114310449"><ele>259.0</ele><time>2026-05-03T09:14:35.999Z</time></trkpt><trkpt lat="44.81569338321762" lon="9.508576512603495"><ele>259.0</ele><time>2026-05-03T09:14:36.999Z</time></trkpt><trkpt lat="44.8157944411919" lon="9.508488705551654"><ele>259.0</ele><time>2026-05-03T09:14:37.999Z</time></trkpt><trkpt lat="44.815925463203925" lon="9.508402568318067"><ele>259.75</ele><time>2026-05-03T09:14:38.999Z</time></trkpt><trkpt lat="44.81605708083509" lon="9.508295258783132"><ele>260.5</ele><time>2026-05-03T09:14:39.999Z</time></trkpt><trkpt lat="44.81615812382949" lon="9.508150780361795"><ele>261.25</ele><time>2026-05-03T09:14:40.999Z</time></trkpt><trkpt lat="44.81622391078827" lon="9.507998550517277"><ele>262.0</ele><time>2026-05-03T09:14:41.999Z</time></trkpt><trkpt lat="44.8162617278018" lon="9.507867481219893"><ele>256.5</ele><time>2026-05-03T09:14:42.999Z</time></trkpt><trkpt lat="44.81632469313983" lon="9.507756282815885"><ele>251.0</ele><time>2026-05-03T09:14:43.999Z</time></trkpt><trkpt lat="44.81642389577146" lon="9.507672019732192"><ele>245.5</ele><time>2026-05-03T09:14:44.999Z</time></trkpt><trkpt lat="44.81655736490981" lon="9.507612794474754"><ele>240.0</ele><time>2026-05-03T09:14:45.999Z</time></trkpt><trkpt lat="44.81668847039052" lon="9.507578699576271"><ele>240.0</ele><time>2026-05-03T09:14:46.999Z</time></trkpt><trkpt lat="44.81680654890117" lon="9.5075323189319"><ele>240.0</ele><time>2026-05-03T09:14:47.999Z</time></trkpt><trkpt lat="44.816906157746246" lon="9.507483140654468"><ele>240.0</ele><time>2026-05-03T09:14:48.999Z</time></trkpt><trkpt lat="44.81698945415898" lon="9.5074667561434"><ele>240.0</ele><time>2026-05-03T09:14:49.999Z</time></trkpt><trkpt lat="44.8170685337772" lon="9.507524246005435"><ele>240.0</ele><time>2026-05-03T09:14:50.999Z</time></trkpt><trkpt lat="44.81713785699525" lon="9.507643707383828"><ele>239.0</ele><time>2026-05-03T09:14:51.999Z</time></trkpt><trkpt lat="44.817214565733636" lon="9.507763350290634"><ele>238.0</ele><time>2026-05-03T09:14:52.999Z</time></trkpt><trkpt lat="44.81731400259768" lon="9.507800525416505"><ele>237.0</ele><time>2026-05-03T09:14:53.999Z</time></trkpt><trkpt lat="44.817424989184936" lon="9.50777046271205"><ele>236.0</ele><time>2026-05-03T09:14:54.999Z</time></trkpt><trkpt lat="44.817540724434366" lon="9.507726271542058"><ele>235.60000000000002</ele><time>2026-05-03T09:14:55.999Z</time></trkpt><trkpt lat="44.81766339199369" lon="9.507738379848188"><ele>235.20000000000002</ele><time>2026-05-03T09:14:56.999Z</time></trkpt><trkpt lat="44.81777189605791" lon="9.50779133786175"><ele>234.79999999999998</ele><time>2026-05-03T09:14:57.999Z</time></trkpt><trkpt lat="44.817855151785785" lon="9.507806288603739"><ele>234.39999999999998</ele><time>2026-05-03T09:14:58.999Z</time></trkpt><trkpt lat="44.81793754030465" lon="9.50774813090226"><ele>234.0</ele><time>2026-05-03T09:14:59.999Z</time></trkpt><trkpt lat="44.8180265935981" lon="9.507641634189266"><ele>234.0</ele><time>2026-05-03T09:15:00.999Z</time></trkpt><trkpt lat="44.818118228867" lon="9.507558121833425"><ele>233.99999999999997</ele><time>2026-05-03T09:15:01.999Z</time></trkpt><trkpt lat="44.81821197259203" lon="9.507517844148332"><ele>233.99999999999997</ele><time>2026-05-03T09:15:02.999Z</time></trkpt><trkpt lat="44.81828571733624" lon="9.507435496990208"><ele>234.0</ele><time>2026-05-03T09:15:03.999Z</time></trkpt><trkpt lat="44.81831918822906" lon="9.507306663255129"><ele>234.0</ele><time>2026-05-03T09:15:04.999Z</time></trkpt><trkpt lat="44.81834957960929" lon="9.507176238713749"><ele>233.39999999999998</ele><time>2026-05-03T09:15:05.999Z</time></trkpt><trkpt lat="44.81839900634839" lon="9.507067253273116"><ele>232.79999999999998</ele><time>2026-05-03T09:15:06.999Z</time></trkpt><trkpt lat="44.8184799613334" lon="9.506990459402068"><ele>232.20000000000002</ele><time>2026-05-03T09:15:07.999Z</time></trkpt><trkpt lat="44.81858211050885" lon="9.506971603732472"><ele>231.60000000000002</ele><time>2026-05-03T09:15:08.999Z</time></trkpt><trkpt lat="44.81869182644168" lon="9.507027805155824"><ele>231.0</ele><time>2026-05-03T09:15:09.999Z</time></trkpt><trkpt lat="44.81879692399994" lon="9.50713491247069"><ele>231.0</ele><time>2026-05-03T09:15:10.999Z</time></trkpt><trkpt lat="44.81888233719299" lon="9.507231338802086"><ele>231.00000000000003</ele><time>2026-05-03T09:15:11.999Z</time></trkpt><trkpt lat="44.81896467101274" lon="9.507274918468859"><ele>231.00000000000003</ele><time>2026-05-03T09:15:12.999Z</time></trkpt><trkpt lat="44.819061350285835" lon="9.507237899694136"><ele>231.0</ele><time>2026-05-03T09:15:13.999Z</time></trkpt><trkpt lat="44.8191508311098" lon="9.507151676931409"><ele>231.0</ele><time>2026-05-03T09:15:14.999Z</time></trkpt><trkpt lat="44.819233081226734" lon="9.507046072517284"><ele>230.4</ele><time>2026-05-03T09:15:15.999Z</time></trkpt><trkpt lat="44.81928264946445" lon="9.506906017750866"><ele>229.8</ele><time>2026-05-03T09:15:16.999Z</time></trkpt><trkpt lat="44.81928652927232" lon="9.506748610337295"><ele>229.20000000000002</ele><time>2026-05-03T09:15:17.999Z</time></trkpt><trkpt lat="44.81929576152568" lon="9.50661060040714"><ele>228.60000000000002</ele><time>2026-05-03T09:15:18.999Z</time></trkpt><trkpt lat="44.81935143135476" lon="9.50650153448916"><ele>228.0</ele><time>2026-05-03T09:15:19.999Z</time></trkpt><trkpt lat="44.81945224459757" lon="9.506402144140472"><ele>228.0</ele><time>2026-05-03T09:15:20.999Z</time></trkpt><trkpt lat="44.81956509026926" lon="9.50630479844325"><ele>228.0</ele><time>2026-05-03T09:15:21.999Z</time></trkpt><trkpt lat="44.81966417395728" lon="9.506212425735503"><ele>228.0</ele><time>2026-05-03T09:15:22.999Z</time></trkpt><trkpt lat="44.81976391414008" lon="9.506147757323061"><ele>228.0</ele><time>2026-05-03T09:15:23.999Z</time></trkpt><trkpt lat="44.81987750805971" lon="9.50612653458692"><ele>224.25</ele><time>2026-05-03T09:15:24.999Z</time></trkpt><trkpt lat="44.81999523233509" lon="9.506144019466248"><ele>220.5</ele><time>2026-05-03T09:15:25.999Z</time></trkpt><trkpt lat="44.82010485894103" lon="9.506127642535514"><ele>216.75</ele><time>2026-05-03T09:15:26.999Z</time></trkpt><trkpt lat="44.82020373917883" lon="9.506050798059809"><ele>213.0</ele><time>2026-05-03T09:15:27.998Z</time></trkpt><trkpt lat="44.82028257138409" lon="9.50594556423826"><ele>213.0</ele><time>2026-05-03T09:15:28.998Z</time></trkpt><trkpt lat="44.82036714479804" lon="9.505862288588759"><ele>213.0</ele><time>2026-05-03T09:15:29.998Z</time></trkpt><trkpt lat="44.82046198942088" lon="9.505810863401884"><ele>213.0</ele><time>2026-05-03T09:15:30.998Z</time></trkpt><trkpt lat="44.82055201673769" lon="9.505747167280688"><ele>213.0</ele><time>2026-05-03T09:15:31.998Z</time></trkpt><trkpt lat="44.8206131281655" lon="9.505647057914002"><ele>213.0</ele><time>2026-05-03T09:15:32.998Z</time></trkpt><trkpt lat="44.820657112775514" lon="9.505525903466344"><ele>213.0</ele><time>2026-05-03T09:15:33.998Z</time></trkpt><trkpt lat="44.82068538287063" lon="9.505424386389556"><ele>213.0</ele><time>2026-05-03T09:15:34.998Z</time></trkpt><trkpt lat="44.82071428386197" lon="9.505299857598215"><ele>213.0</ele><time>2026-05-03T09:15:36.998Z</time></trkpt><trkpt lat="44.82069087107517" lon="9.505140471837256"><ele>213.0</ele><time>2026-05-03T09:15:38.998Z</time></trkpt><trkpt lat="44.820641718748135" lon="9.505045421245296"><ele>213.0</ele><time>2026-05-03T09:15:39.998Z</time></trkpt><trkpt lat="44.82059511326322" lon="9.50497094379536"><ele>213.0</ele><time>2026-05-03T09:15:40.998Z</time></trkpt><trkpt lat="44.82055464213718" lon="9.504881873872"><ele>211.83333333333334</ele><time>2026-05-03T09:15:41.998Z</time></trkpt><trkpt lat="44.82051747560801" lon="9.504784522006533"><ele>210.66666666666669</ele><time>2026-05-03T09:15:42.998Z</time></trkpt><trkpt lat="44.820482017519275" lon="9.504685812218794"><ele>209.5</ele><time>2026-05-03T09:15:43.998Z</time></trkpt><trkpt lat="44.820448646001836" lon="9.504586755917844"><ele>208.33333333333334</ele><time>2026-05-03T09:15:44.998Z</time></trkpt><trkpt lat="44.820417248188676" lon="9.504493306877782"><ele>207.16666666666669</ele><time>2026-05-03T09:15:45.998Z</time></trkpt><trkpt lat="44.820385021557264" lon="9.504400837360313"><ele>206.0</ele><time>2026-05-03T09:15:46.998Z</time></trkpt><trkpt lat="44.82035002114908" lon="9.50430685525183"><ele>205.66666666666669</ele><time>2026-05-03T09:15:47.998Z</time></trkpt><trkpt lat="44.820318365231834" lon="9.504222407206088"><ele>205.33333333333334</ele><time>2026-05-03T09:15:48.998Z</time></trkpt><trkpt lat="44.82028731172801" lon="9.504138928201602"><ele>205.0</ele><time>2026-05-03T09:15:49.998Z</time></trkpt><trkpt lat="44.82023171649999" lon="9.503990907279356"><ele>204.66666666666669</ele><time>2026-05-03T09:15:51.998Z</time></trkpt><trkpt lat="44.820203315053334" lon="9.503908255878624"><ele>204.33333333333334</ele><time>2026-05-03T09:15:52.998Z</time></trkpt><trkpt lat="44.820175726259784" lon="9.50382496863526"><ele>204.0</ele><time>2026-05-03T09:15:53.998Z</time></trkpt><trkpt lat="44.82012358059262" lon="9.503678988617118"><ele>204.0</ele><time>2026-05-03T09:15:55.998Z</time></trkpt><trkpt lat="44.82006860881036" lon="9.503515583331948"><ele>204.0</ele><time>2026-05-03T09:15:57.998Z</time></trkpt><trkpt lat="44.820040491583605" lon="9.503427194768054"><ele>204.0</ele><time>2026-05-03T09:15:58.998Z</time></trkpt><trkpt lat="44.82000993465752" lon="9.503342669640482"><ele>204.0</ele><time>2026-05-03T09:16:00Z</time></trkpt><trkpt lat="44.819951203712634" lon="9.503198464729863"><ele>204.0</ele><time>2026-05-03T09:16:02Z</time></trkpt><trkpt lat="44.81990161958578" lon="9.503066763124334"><ele>204.0</ele><time>2026-05-03T09:16:04Z</time></trkpt><trkpt lat="44.81985629945665" lon="9.502942270874657"><ele>204.0</ele><time>2026-05-03T09:16:06Z</time></trkpt><trkpt lat="44.819802093674454" lon="9.502817429241674"><ele>204.0</ele><time>2026-05-03T09:16:08Z</time></trkpt><trkpt lat="44.81974799783435" lon="9.502682052452537"><ele>204.0</ele><time>2026-05-03T09:16:10Z</time></trkpt><trkpt lat="44.81969249906367" lon="9.50252807300355"><ele>204.0</ele><time>2026-05-03T09:16:12Z</time></trkpt><trkpt lat="44.819645014266655" lon="9.502376157979926"><ele>204.2</ele><time>2026-05-03T09:16:14Z</time></trkpt><trkpt lat="44.819610585702314" lon="9.502224196154357"><ele>204.39999999999998</ele><time>2026-05-03T09:16:16Z</time></trkpt><trkpt lat="44.81961435104567" lon="9.502048265919193"><ele>204.6</ele><time>2026-05-03T09:16:18Z</time></trkpt><trkpt lat="44.81963234145178" lon="9.501945748292382"><ele>204.8</ele><time>2026-05-03T09:16:19Z</time></trkpt><trkpt lat="44.819662155051674" lon="9.501854734127724"><ele>205.0</ele><time>2026-05-03T09:16:20Z</time></trkpt><trkpt lat="44.81972205497366" lon="9.501782453762267"><ele>205.16666666666666</ele><time>2026-05-03T09:16:22Z</time></trkpt><trkpt lat="44.819721626799655" lon="9.501687431212053"><ele>205.33333333333331</ele><time>2026-05-03T09:16:35Z</time></trkpt><trkpt lat="44.81969501053731" lon="9.50157166389925"><ele>205.5</ele><time>2026-05-03T09:16:37Z</time></trkpt><trkpt lat="44.819621126091434" lon="9.501501541389066"><ele>205.66666666666669</ele><time>2026-05-03T09:16:39Z</time></trkpt><trkpt lat="44.81956085006813" lon="9.50136264142722"><ele>205.83333333333334</ele><time>2026-05-03T09:16:41.999Z</time></trkpt><trkpt lat="44.81950946091626" lon="9.50126893393412"><ele>206.0</ele><time>2026-05-03T09:16:43.999Z</time></trkpt><trkpt lat="44.819438504288975" lon="9.501137870488868"><ele>207.16666666666669</ele><time>2026-05-03T09:16:45.999Z</time></trkpt><trkpt lat="44.819387744884445" lon="9.501042384130683"><ele>208.33333333333334</ele><time>2026-05-03T09:16:46.999Z</time></trkpt><trkpt lat="44.819338609343596" lon="9.500963348266362"><ele>209.5</ele><time>2026-05-03T09:16:47.999Z</time></trkpt><trkpt lat="44.81925654355534" lon="9.500877911819167"><ele>210.66666666666669</ele><time>2026-05-03T09:16:48.999Z</time></trkpt><trkpt lat="44.819211380687484" lon="9.50081011788615"><ele>211.83333333333334</ele><time>2026-05-03T09:16:49.999Z</time></trkpt><trkpt lat="44.819211030939165" lon="9.50064765251679"><ele>213.0</ele><time>2026-05-03T09:16:51.999Z</time></trkpt><trkpt lat="44.81926050475213" lon="9.500548254711944"><ele>213.0</ele><time>2026-05-03T09:16:52.999Z</time></trkpt><trkpt lat="44.81931871812929" lon="9.50043232814957"><ele>213.0</ele><time>2026-05-03T09:16:53.999Z</time></trkpt><trkpt lat="44.81937227273395" lon="9.50030790538307"><ele>213.0</ele><time>2026-05-03T09:16:54.999Z</time></trkpt><trkpt lat="44.819414792279346" lon="9.500171512808274"><ele>213.0</ele><time>2026-05-03T09:16:55.999Z</time></trkpt><trkpt lat="44.819415746480395" lon="9.500067368022101"><ele>213.0</ele><time>2026-05-03T09:16:56.999Z</time></trkpt><trkpt lat="44.81933869862654" lon="9.500053226647067"><ele>219.8</ele><time>2026-05-03T09:16:58.999Z</time></trkpt><trkpt lat="44.81927503898597" lon="9.500057335841056"><ele>226.60000000000002</ele><time>2026-05-03T09:16:59.999Z</time></trkpt><trkpt lat="44.81919344151544" lon="9.500099841339548"><ele>233.39999999999998</ele><time>2026-05-03T09:17:00.999Z</time></trkpt><trkpt lat="44.8190924563564" lon="9.500094865728768"><ele>240.2</ele><time>2026-05-03T09:17:01.999Z</time></trkpt><trkpt lat="44.81899922169857" lon="9.500056056326583"><ele>247.0</ele><time>2026-05-03T09:17:02.999Z</time></trkpt><trkpt lat="44.81890598238182" lon="9.499999018042097"><ele>247.0</ele><time>2026-05-03T09:17:03.999Z</time></trkpt><trkpt lat="44.81880012362048" lon="9.49993550125482"><ele>247.0</ele><time>2026-05-03T09:17:04.999Z</time></trkpt><trkpt lat="44.818682455072796" lon="9.49988366992959"><ele>247.0</ele><time>2026-05-03T09:17:05.999Z</time></trkpt><trkpt lat="44.818567370525855" lon="9.499873183496007"><ele>247.0</ele><time>2026-05-03T09:17:06.999Z</time></trkpt><trkpt lat="44.81846675636614" lon="9.499885086714183"><ele>250.2</ele><time>2026-05-03T09:17:07.999Z</time></trkpt><trkpt lat="44.81836695142861" lon="9.499898834861105"><ele>253.39999999999998</ele><time>2026-05-03T09:17:08.999Z</time></trkpt><trkpt lat="44.81827925496778" lon="9.49991424025144"><ele>256.6</ele><time>2026-05-03T09:17:09.999Z</time></trkpt><trkpt lat="44.818194274714365" lon="9.499919317204997"><ele>259.8</ele><time>2026-05-03T09:17:10.999Z</time></trkpt><trkpt lat="44.81810232815859" lon="9.49991482768763"><ele>263.0</ele><time>2026-05-03T09:17:11.999Z</time></trkpt><trkpt lat="44.81801256029248" lon="9.499902551390791"><ele>263.0</ele><time>2026-05-03T09:17:12.999Z</time></trkpt><trkpt lat="44.81791976777736" lon="9.49988211029787"><ele>263.0</ele><time>2026-05-03T09:17:13.999Z</time></trkpt><trkpt lat="44.81782632145173" lon="9.499844451011201"><ele>263.0</ele><time>2026-05-03T09:17:14.999Z</time></trkpt><trkpt lat="44.81772892118695" lon="9.499791269001664"><ele>263.0</ele><time>2026-05-03T09:17:15.999Z</time></trkpt><trkpt lat="44.81761928651763" lon="9.499746998658143"><ele>263.0</ele><time>2026-05-03T09:17:16.999Z</time></trkpt><trkpt lat="44.81748881365159" lon="9.499718964918797"><ele>265.4</ele><time>2026-05-03T09:17:17.999Z</time></trkpt><trkpt lat="44.817362238601376" lon="9.49969129108276"><ele>267.8</ele><time>2026-05-03T09:17:18.999Z</time></trkpt><trkpt lat="44.817262500537595" lon="9.499669290069512"><ele>270.2</ele><time>2026-05-03T09:17:19.999Z</time></trkpt><trkpt lat="44.817165205491435" lon="9.49967317670389"><ele>272.6</ele><time>2026-05-03T09:17:20.999Z</time></trkpt><trkpt lat="44.81707577810542" lon="9.499720901711973"><ele>275.0</ele><time>2026-05-03T09:17:21.999Z</time></trkpt><trkpt lat="44.81699022478859" lon="9.499816854232426"><ele>275.0</ele><time>2026-05-03T09:17:22.999Z</time></trkpt><trkpt lat="44.81687927701445" lon="9.499907616361485"><ele>275.0</ele><time>2026-05-03T09:17:23.999Z</time></trkpt><trkpt lat="44.81676961861517" lon="9.499978163800762"><ele>275.0</ele><time>2026-05-03T09:17:24.999Z</time></trkpt><trkpt lat="44.816685215194795" lon="9.500050717351666"><ele>275.0</ele><time>2026-05-03T09:17:25.999Z</time></trkpt><trkpt lat="44.8166205228498" lon="9.500113036511161"><ele>275.0</ele><time>2026-05-03T09:17:26.999Z</time></trkpt><trkpt lat="44.81653811185484" lon="9.500135488527189"><ele>279.0</ele><time>2026-05-03T09:17:27.999Z</time></trkpt><trkpt lat="44.81645076455617" lon="9.50009337629042"><ele>283.0</ele><time>2026-05-03T09:17:28.999Z</time></trkpt><trkpt lat="44.81636556588633" lon="9.500009025725118"><ele>287.0</ele><time>2026-05-03T09:17:29.999Z</time></trkpt><trkpt lat="44.816285895816414" lon="9.499916951873482"><ele>291.0</ele><time>2026-05-03T09:17:30.999Z</time></trkpt><trkpt lat="44.816193031914395" lon="9.499856131543153"><ele>295.0</ele><time>2026-05-03T09:17:31.999Z</time></trkpt><trkpt lat="44.81609298547323" lon="9.49982555926573"><ele>295.0</ele><time>2026-05-03T09:17:32.999Z</time></trkpt><trkpt lat="44.816002430926794" lon="9.499802487599759"><ele>295.0</ele><time>2026-05-03T09:17:33.999Z</time></trkpt><trkpt lat="44.81592118753465" lon="9.499762523885934"><ele>295.0</ele><time>2026-05-03T09:17:34.999Z</time></trkpt><trkpt lat="44.815861265034854" lon="9.499692380788344"><ele>295.0</ele><time>2026-05-03T09:17:35.998Z</time></trkpt><trkpt lat="44.815810363894975" lon="9.49959670278784"><ele>295.0</ele><time>2026-05-03T09:17:36.998Z</time></trkpt><trkpt lat="44.81577243309081" lon="9.499503652971036"><ele>295.0</ele><time>2026-05-03T09:17:37.998Z</time></trkpt><trkpt lat="44.81567681882867" lon="9.499396202778035"><ele>297.4</ele><time>2026-05-03T09:17:39.998Z</time></trkpt><trkpt lat="44.81560964768632" lon="9.49931196322757"><ele>299.8</ele><time>2026-05-03T09:17:40.998Z</time></trkpt><trkpt lat="44.81553293334638" lon="9.499184814516298"><ele>302.2</ele><time>2026-05-03T09:17:41.998Z</time></trkpt><trkpt lat="44.81546867882908" lon="9.499062984859325"><ele>304.6</ele><time>2026-05-03T09:17:42.998Z</time></trkpt><trkpt lat="44.815408850127696" lon="9.498955351307421"><ele>307.0</ele><time>2026-05-03T09:17:43.998Z</time></trkpt><trkpt lat="44.8153289706052" lon="9.498876868505507"><ele>307.0</ele><time>2026-05-03T09:17:44.998Z</time></trkpt><trkpt lat="44.81523376937545" lon="9.498824574576176"><ele>307.0</ele><time>2026-05-03T09:17:45.998Z</time></trkpt><trkpt lat="44.8151111219465" lon="9.498810725727804"><ele>307.0</ele><time>2026-05-03T09:17:46.998Z</time></trkpt><trkpt lat="44.814982844431945" lon="9.498801891996864"><ele>307.0</ele><time>2026-05-03T09:17:47.998Z</time></trkpt><trkpt lat="44.81485727818269" lon="9.498782778434407"><ele>309.25</ele><time>2026-05-03T09:17:48.998Z</time></trkpt><trkpt lat="44.81474596033481" lon="9.498760500869285"><ele>311.5</ele><time>2026-05-03T09:17:49.998Z</time></trkpt><trkpt lat="44.814630686886545" lon="9.49873645335075"><ele>313.75</ele><time>2026-05-03T09:17:50.998Z</time></trkpt><trkpt lat="44.81451492335934" lon="9.498713035372425"><ele>316.0</ele><time>2026-05-03T09:17:51.998Z</time></trkpt><trkpt lat="44.814389412678395" lon="9.49870273368203"><ele>319.25</ele><time>2026-05-03T09:17:52.998Z</time></trkpt><trkpt lat="44.81425967053681" lon="9.498694009493441"><ele>322.5</ele><time>2026-05-03T09:17:53.998Z</time></trkpt><trkpt lat="44.814129574351455" lon="9.498686915264472"><ele>325.75</ele><time>2026-05-03T09:17:54.998Z</time></trkpt><trkpt lat="44.81399944919132" lon="9.49868552981967"><ele>329.0</ele><time>2026-05-03T09:17:55.998Z</time></trkpt><trkpt lat="44.813868750821044" lon="9.498685579314282"><ele>329.0</ele><time>2026-05-03T09:17:56.998Z</time></trkpt><trkpt lat="44.813741346410026" lon="9.498693871306115"><ele>329.0</ele><time>2026-05-03T09:17:57.998Z</time></trkpt><trkpt lat="44.813613612832164" lon="9.498707848034531"><ele>329.0</ele><time>2026-05-03T09:17:58.998Z</time></trkpt><trkpt lat="44.81348331929796" lon="9.498724312515234"><ele>329.0</ele><time>2026-05-03T09:17:59.998Z</time></trkpt><trkpt lat="44.81335054285948" lon="9.49873683634075"><ele>331.0</ele><time>2026-05-03T09:18:00.998Z</time></trkpt><trkpt lat="44.813233210486544" lon="9.49874657114727"><ele>333.0</ele><time>2026-05-03T09:18:01.998Z</time></trkpt><trkpt lat="44.8131078022511" lon="9.498772245103218"><ele>335.0</ele><time>2026-05-03T09:18:02.998Z</time></trkpt><trkpt lat="44.81297106875301" lon="9.498827261104632"><ele>337.0</ele><time>2026-05-03T09:18:03.998Z</time></trkpt><trkpt lat="44.8128441311851" lon="9.498906403477392"><ele>337.0</ele><time>2026-05-03T09:18:04.998Z</time></trkpt><trkpt lat="44.81274645571579" lon="9.498965561904223"><ele>337.0</ele><time>2026-05-03T09:18:06Z</time></trkpt><trkpt lat="44.812679522161076" lon="9.499009063444017"><ele>337.0</ele><time>2026-05-03T09:18:07Z</time></trkpt><trkpt lat="44.812584801692495" lon="9.49903338458878"><ele>337.0</ele><time>2026-05-03T09:18:09Z</time></trkpt><trkpt lat="44.81250919184266" lon="9.499026618166045"><ele>337.0</ele><time>2026-05-03T09:18:14Z</time></trkpt><trkpt lat="44.8123862208138" lon="9.499003977330434"><ele>340.0</ele><time>2026-05-03T09:18:16Z</time></trkpt><trkpt lat="44.81230046089634" lon="9.498989982604076"><ele>343.0</ele><time>2026-05-03T09:18:17Z</time></trkpt><trkpt lat="44.812193785849196" lon="9.498954721618095"><ele>346.0</ele><time>2026-05-03T09:18:18Z</time></trkpt><trkpt lat="44.81208642924196" lon="9.498903681522183"><ele>349.0</ele><time>2026-05-03T09:18:19Z</time></trkpt><trkpt lat="44.81197854712867" lon="9.498847060109151"><ele>352.0</ele><time>2026-05-03T09:18:20Z</time></trkpt><trkpt lat="44.81187001631414" lon="9.498796070702307"><ele>350.75</ele><time>2026-05-03T09:18:21Z</time></trkpt><trkpt lat="44.81176308998045" lon="9.49874596875329"><ele>349.5</ele><time>2026-05-03T09:18:22Z</time></trkpt><trkpt lat="44.81165683266663" lon="9.49870148631601"><ele>348.25</ele><time>2026-05-03T09:18:23Z</time></trkpt><trkpt lat="44.811540471468696" lon="9.498667411674738"><ele>347.0</ele><time>2026-05-03T09:18:24Z</time></trkpt><trkpt lat="44.81142931393977" lon="9.49865262216628"><ele>347.0</ele><time>2026-05-03T09:18:25Z</time></trkpt><trkpt lat="44.81133126335203" lon="9.498635081640609"><ele>347.0</ele><time>2026-05-03T09:18:26Z</time></trkpt><trkpt lat="44.81123872126807" lon="9.498588540960379"><ele>347.0</ele><time>2026-05-03T09:18:27Z</time></trkpt><trkpt lat="44.81113805925564" lon="9.498512740163456"><ele>347.0</ele><time>2026-05-03T09:18:28Z</time></trkpt><trkpt lat="44.8110464123363" lon="9.498432800582734"><ele>347.0</ele><time>2026-05-03T09:18:29Z</time></trkpt><trkpt lat="44.81095452657111" lon="9.498338487819899"><ele>349.20000000000005</ele><time>2026-05-03T09:18:30Z</time></trkpt><trkpt lat="44.8108750638843" lon="9.498264040040917"><ele>351.4</ele><time>2026-05-03T09:18:31Z</time></trkpt><trkpt lat="44.81078697184572" lon="9.498202036232293"><ele>353.6</ele><time>2026-05-03T09:18:32Z</time></trkpt><trkpt lat="44.81068603280023" lon="9.498140550501025"><ele>355.79999999999995</ele><time>2026-05-03T09:18:33Z</time></trkpt><trkpt lat="44.81057902467313" lon="9.498074451566204"><ele>358.0</ele><time>2026-05-03T09:18:34Z</time></trkpt><trkpt lat="44.81047309417314" lon="9.498012235124884"><ele>358.0</ele><time>2026-05-03T09:18:35Z</time></trkpt><trkpt lat="44.81037255186481" lon="9.49795424448208"><ele>358.0</ele><time>2026-05-03T09:18:36Z</time></trkpt><trkpt lat="44.81028366321013" lon="9.497906546894932"><ele>358.0</ele><time>2026-05-03T09:18:37Z</time></trkpt><trkpt lat="44.810195937283204" lon="9.497870010477252"><ele>358.0</ele><time>2026-05-03T09:18:38Z</time></trkpt><trkpt lat="44.810102728117506" lon="9.497838282370477"><ele>358.0</ele><time>2026-05-03T09:18:39Z</time></trkpt><trkpt lat="44.81001158860692" lon="9.497795659919019"><ele>357.4</ele><time>2026-05-03T09:18:40Z</time></trkpt><trkpt lat="44.80991902070807" lon="9.497732834686014"><ele>356.79999999999995</ele><time>2026-05-03T09:18:41Z</time></trkpt><trkpt lat="44.809822521682726" lon="9.497669484045213"><ele>356.2</ele><time>2026-05-03T09:18:42Z</time></trkpt><trkpt lat="44.80972411593945" lon="9.497618313461976"><ele>355.6</ele><time>2026-05-03T09:18:43Z</time></trkpt><trkpt lat="44.80964290227323" lon="9.49757540195333"><ele>355.0</ele><time>2026-05-03T09:18:44Z</time></trkpt><trkpt lat="44.809575062636064" lon="9.497533986774105"><ele>355.0</ele><time>2026-05-03T09:18:44.999Z</time></trkpt><trkpt lat="44.80950739723116" lon="9.49748822212661"><ele>355.0</ele><time>2026-05-03T09:18:45.999Z</time></trkpt><trkpt lat="44.809423435178836" lon="9.497404418705148"><ele>355.0</ele><time>2026-05-03T09:18:47.999Z</time></trkpt><trkpt lat="44.809343616399836" lon="9.497278930837698"><ele>355.0</ele><time>2026-05-03T09:18:49.999Z</time></trkpt><trkpt lat="44.8092764758741" lon="9.497197568111993"><ele>355.0</ele><time>2026-05-03T09:18:51.999Z</time></trkpt><trkpt lat="44.80920386654423" lon="9.497138236006823"><ele>356.8</ele><time>2026-05-03T09:19:00.999Z</time></trkpt><trkpt lat="44.809112212175606" lon="9.497061491100391"><ele>358.6</ele><time>2026-05-03T09:19:02.999Z</time></trkpt><trkpt lat="44.809065013772184" lon="9.496993268132172"><ele>360.4</ele><time>2026-05-03T09:19:03.999Z</time></trkpt><trkpt lat="44.809009763454725" lon="9.496901330848116"><ele>362.2</ele><time>2026-05-03T09:19:04.999Z</time></trkpt><trkpt lat="44.80892722260539" lon="9.4967969103274"><ele>364.0</ele><time>2026-05-03T09:19:05.999Z</time></trkpt><trkpt lat="44.808841748596464" lon="9.496692152488334"><ele>364.0</ele><time>2026-05-03T09:19:06.999Z</time></trkpt><trkpt lat="44.80875195043974" lon="9.496592590992318"><ele>364.0</ele><time>2026-05-03T09:19:07.999Z</time></trkpt><trkpt lat="44.80867399029716" lon="9.496494925111612"><ele>364.0</ele><time>2026-05-03T09:19:08.999Z</time></trkpt><trkpt lat="44.808597725291214" lon="9.496402703435924"><ele>364.0</ele><time>2026-05-03T09:19:09.999Z</time></trkpt><trkpt lat="44.808528263794194" lon="9.496330674180388"><ele>364.0</ele><time>2026-05-03T09:19:10.999Z</time></trkpt><trkpt lat="44.808441837512426" lon="9.496268944520402"><ele>366.4</ele><time>2026-05-03T09:19:11.999Z</time></trkpt><trkpt lat="44.80839010127659" lon="9.49621753597041"><ele>368.79999999999995</ele><time>2026-05-03T09:19:12.999Z</time></trkpt><trkpt lat="44.808305647332176" lon="9.496165000724016"><ele>371.20000000000005</ele><time>2026-05-03T09:19:13.999Z</time></trkpt><trkpt lat="44.80820782712993" lon="9.496115300567885"><ele>373.6</ele><time>2026-05-03T09:19:14.999Z</time></trkpt><trkpt lat="44.808081525487474" lon="9.496085940611444"><ele>376.0</ele><time>2026-05-03T09:19:15.999Z</time></trkpt><trkpt lat="44.80795351719673" lon="9.496053207476713"><ele>376.0</ele><time>2026-05-03T09:19:16.999Z</time></trkpt><trkpt lat="44.80784341901397" lon="9.496003712307404"><ele>376.0</ele><time>2026-05-03T09:19:17.999Z</time></trkpt><trkpt lat="44.80779547707275" lon="9.495872248936235"><ele>376.0</ele><time>2026-05-03T09:19:19.999Z</time></trkpt><trkpt lat="44.8077896238662" lon="9.49578208661046"><ele>376.0</ele><time>2026-05-03T09:19:20.999Z</time></trkpt><trkpt lat="44.807697908215424" lon="9.49562188236478"><ele>376.0</ele><time>2026-05-03T09:19:22.999Z</time></trkpt><trkpt lat="44.80763153448168" lon="9.49545357194981"><ele>378.0</ele><time>2026-05-03T09:19:23.999Z</time></trkpt><trkpt lat="44.80757977114498" lon="9.495317261243843"><ele>380.0</ele><time>2026-05-03T09:19:24.999Z</time></trkpt><trkpt lat="44.807514881539944" lon="9.495195919335446"><ele>382.0</ele><time>2026-05-03T09:19:25.999Z</time></trkpt><trkpt lat="44.80744034331631" lon="9.49504130485441"><ele>384.0</ele><time>2026-05-03T09:19:26.999Z</time></trkpt><trkpt lat="44.80737028630242" lon="9.494874109746611"><ele>384.0</ele><time>2026-05-03T09:19:27.999Z</time></trkpt><trkpt lat="44.80731410803495" lon="9.494742708854034"><ele>384.0</ele><time>2026-05-03T09:19:28.999Z</time></trkpt><trkpt lat="44.80727395256657" lon="9.49464245650203"><ele>384.0</ele><time>2026-05-03T09:19:29.999Z</time></trkpt><trkpt lat="44.80722280712154" lon="9.494514041489868"><ele>384.0</ele><time>2026-05-03T09:19:30.999Z</time></trkpt><trkpt lat="44.80715689206519" lon="9.49435986897126"><ele>384.0</ele><time>2026-05-03T09:19:31.999Z</time></trkpt><trkpt lat="44.80709391577776" lon="9.494205392801838"><ele>384.2</ele><time>2026-05-03T09:19:32.999Z</time></trkpt><trkpt lat="44.80703446821964" lon="9.494036381711997"><ele>384.4</ele><time>2026-05-03T09:19:33.999Z</time></trkpt><trkpt lat="44.806994956481994" lon="9.493879605537748"><ele>384.6</ele><time>2026-05-03T09:19:34.999Z</time></trkpt><trkpt lat="44.806955172263805" lon="9.493765291427444"><ele>384.8</ele><time>2026-05-03T09:19:35.999Z</time></trkpt><trkpt lat="44.80688720695806" lon="9.493668518706786"><ele>385.0</ele><time>2026-05-03T09:19:36.999Z</time></trkpt><trkpt lat="44.80681068231713" lon="9.493567227534546"><ele>385.0</ele><time>2026-05-03T09:19:37.999Z</time></trkpt><trkpt lat="44.806718155922255" lon="9.493455869584958"><ele>385.0</ele><time>2026-05-03T09:19:38.999Z</time></trkpt><trkpt lat="44.80662799125739" lon="9.493366522223056"><ele>385.0</ele><time>2026-05-03T09:19:39.999Z</time></trkpt><trkpt lat="44.806536188407456" lon="9.493304524980084"><ele>385.0</ele><time>2026-05-03T09:19:40.998Z</time></trkpt><trkpt lat="44.8064089441086" lon="9.49327682039081"><ele>385.0</ele><time>2026-05-03T09:19:41.998Z</time></trkpt><trkpt lat="44.806286070436485" lon="9.493263161142215"><ele>385.0</ele><time>2026-05-03T09:19:42.998Z</time></trkpt><trkpt lat="44.806177822942104" lon="9.493200172867864"><ele>385.0</ele><time>2026-05-03T09:19:43.998Z</time></trkpt><trkpt lat="44.80606668506302" lon="9.493088050574851"><ele>385.0</ele><time>2026-05-03T09:19:44.998Z</time></trkpt><trkpt lat="44.80597958334812" lon="9.492976503453999"><ele>385.2</ele><time>2026-05-03T09:19:45.998Z</time></trkpt><trkpt lat="44.80590700313007" lon="9.492885500828102"><ele>385.4</ele><time>2026-05-03T09:19:46.998Z</time></trkpt><trkpt lat="44.805842536342304" lon="9.49279138857548"><ele>385.6</ele><time>2026-05-03T09:19:47.998Z</time></trkpt><trkpt lat="44.80578006143401" lon="9.492722140611106"><ele>385.8</ele><time>2026-05-03T09:19:48.998Z</time></trkpt><trkpt lat="44.80569691501994" lon="9.492650563129843"><ele>386.0</ele><time>2026-05-03T09:19:49.998Z</time></trkpt><trkpt lat="44.805629192349585" lon="9.492581849199313"><ele>386.0</ele><time>2026-05-03T09:19:50.998Z</time></trkpt><trkpt lat="44.80557973801102" lon="9.492475302674709"><ele>386.0</ele><time>2026-05-03T09:19:51.998Z</time></trkpt><trkpt lat="44.805521556761384" lon="9.492392959531715"><ele>386.0</ele><time>2026-05-03T09:19:52.998Z</time></trkpt><trkpt lat="44.80540835587642" lon="9.492299706898827"><ele>386.0</ele><time>2026-05-03T09:19:53.998Z</time></trkpt><trkpt lat="44.805275296470676" lon="9.492229828373686"><ele>386.0</ele><time>2026-05-03T09:19:54.998Z</time></trkpt><trkpt lat="44.805142121366956" lon="9.492198471310019"><ele>387.0</ele><time>2026-05-03T09:19:55.998Z</time></trkpt><trkpt lat="44.80500478715019" lon="9.492130206913547"><ele>388.0</ele><time>2026-05-03T09:19:56.998Z</time></trkpt><trkpt lat="44.804914046310536" lon="9.492081594213753"><ele>389.0</ele><time>2026-05-03T09:19:57.998Z</time></trkpt><trkpt lat="44.80485385737507" lon="9.492046308719157"><ele>390.0</ele><time>2026-05-03T09:19:58.998Z</time></trkpt><trkpt lat="44.8048340816525" lon="9.491929823842877"><ele>391.0</ele><time>2026-05-03T09:20:00.998Z</time></trkpt><trkpt lat="44.804838464262964" lon="9.491807819006132"><ele>391.00000000000006</ele><time>2026-05-03T09:20:01.998Z</time></trkpt><trkpt lat="44.80481994157661" lon="9.491696631224057"><ele>391.0</ele><time>2026-05-03T09:20:03.998Z</time></trkpt><trkpt lat="44.80472545727466" lon="9.49176041964105"><ele>391.0</ele><time>2026-05-03T09:20:17Z</time></trkpt><trkpt lat="44.80465123027108" lon="9.491801293515707"><ele>391.0</ele><time>2026-05-03T09:20:19Z</time></trkpt><trkpt lat="44.8045860460056" lon="9.491851071936331"><ele>391.00000000000006</ele><time>2026-05-03T09:20:21Z</time></trkpt><trkpt lat="44.80450003821697" lon="9.49189577568755"><ele>391.0</ele><time>2026-05-03T09:20:23Z</time></trkpt><trkpt lat="44.80440857935084" lon="9.491865327517356"><ele>391.00000000000006</ele><time>2026-05-03T09:20:25Z</time></trkpt><trkpt lat="44.8043314532367" lon="9.491841511946172"><ele>391.0</ele><time>2026-05-03T09:20:27Z</time></trkpt><trkpt lat="44.80423329139579" lon="9.491846087151066"><ele>391.0</ele><time>2026-05-03T09:20:29Z</time></trkpt><trkpt lat="44.80418408680277" lon="9.49190413205156"><ele>391.0</ele><time>2026-05-03T09:20:31Z</time></trkpt><trkpt lat="44.8040862918979" lon="9.491909408881366"><ele>391.00000000000006</ele><time>2026-05-03T09:20:33Z</time></trkpt><trkpt lat="44.804023031386" lon="9.491978144099935"><ele>391.0</ele><time>2026-05-03T09:20:36Z</time></trkpt><trkpt lat="44.803956888475305" lon="9.49197065007207"><ele>393.6666666666667</ele><time>2026-05-03T09:20:37Z</time></trkpt><trkpt lat="44.803874703814586" lon="9.491940209776747"><ele>396.33333333333337</ele><time>2026-05-03T09:20:39Z</time></trkpt><trkpt lat="44.803779437131524" lon="9.491925926060112"><ele>399.0</ele><time>2026-05-03T09:20:42Z</time></trkpt><trkpt lat="44.80371036493874" lon="9.491946736217658"><ele>401.66666666666663</ele><time>2026-05-03T09:20:46Z</time></trkpt><trkpt lat="44.803636526450695" lon="9.492008965418453"><ele>404.3333333333333</ele><time>2026-05-03T09:20:50Z</time></trkpt><trkpt lat="44.803582502720275" lon="9.492075399622006"><ele>407.0</ele><time>2026-05-03T09:20:52Z</time></trkpt><trkpt lat="44.80351517644891" lon="9.492166367556646"><ele>409.6</ele><time>2026-05-03T09:20:54Z</time></trkpt><trkpt lat="44.80338874290181" lon="9.492212247096848"><ele>412.20000000000005</ele><time>2026-05-03T09:20:55.999Z</time></trkpt><trkpt lat="44.80330719179176" lon="9.492204345176518"><ele>414.8</ele><time>2026-05-03T09:20:56.999Z</time></trkpt><trkpt lat="44.803243345172994" lon="9.49216622592334"><ele>417.4</ele><time>2026-05-03T09:20:58.999Z</time></trkpt><trkpt lat="44.803145340471154" lon="9.492149138736126"><ele>420.0</ele><time>2026-05-03T09:21:01.999Z</time></trkpt><trkpt lat="44.803073323967034" lon="9.492150514892298"><ele>420.0</ele><time>2026-05-03T09:21:03.999Z</time></trkpt><trkpt lat="44.802883601577825" lon="9.492149919321882"><ele>420.0</ele><time>2026-05-03T09:21:04.999Z</time></trkpt><trkpt lat="44.80278752496545" lon="9.492150510935739"><ele>420.0</ele><time>2026-05-03T09:21:05.999Z</time></trkpt><trkpt lat="44.80271317747425" lon="9.492150930028687"><ele>420.0</ele><time>2026-05-03T09:21:06.999Z</time></trkpt><trkpt lat="44.80256783984508" lon="9.492157146071142"><ele>421.8333333333333</ele><time>2026-05-03T09:21:08.999Z</time></trkpt><trkpt lat="44.802510762946724" lon="9.492196163027058"><ele>423.66666666666663</ele><time>2026-05-03T09:21:09.999Z</time></trkpt><trkpt lat="44.8024324154298" lon="9.49222215667851"><ele>425.5</ele><time>2026-05-03T09:21:10.999Z</time></trkpt><trkpt lat="44.80235474549708" lon="9.492239035680132"><ele>427.3333333333333</ele><time>2026-05-03T09:21:11.999Z</time></trkpt><trkpt lat="44.80226464842752" lon="9.492200411896969"><ele>429.16666666666663</ele><time>2026-05-03T09:21:12.999Z</time></trkpt><trkpt lat="44.80216010286933" lon="9.492196039861263"><ele>431.0</ele><time>2026-05-03T09:21:13.999Z</time></trkpt><trkpt lat="44.802072800641696" lon="9.492199532896757"><ele>431.0</ele><time>2026-05-03T09:21:14.999Z</time></trkpt><trkpt lat="44.801977628865274" lon="9.492161194425133"><ele>431.0</ele><time>2026-05-03T09:21:15.999Z</time></trkpt><trkpt lat="44.80187600443414" lon="9.49209943190341"><ele>431.0</ele><time>2026-05-03T09:21:16.999Z</time></trkpt><trkpt lat="44.80174058008701" lon="9.492083302102905"><ele>431.0</ele><time>2026-05-03T09:21:17.999Z</time></trkpt><trkpt lat="44.801633403763624" lon="9.492054180109948"><ele>433.20000000000005</ele><time>2026-05-03T09:21:18.999Z</time></trkpt><trkpt lat="44.801541294969674" lon="9.492037762122225"><ele>435.40000000000003</ele><time>2026-05-03T09:21:19.999Z</time></trkpt><trkpt lat="44.80145768335648" lon="9.492014038724912"><ele>437.6</ele><time>2026-05-03T09:21:20.999Z</time></trkpt><trkpt lat="44.801376903278125" lon="9.491962415930114"><ele>439.8</ele><time>2026-05-03T09:21:21.999Z</time></trkpt><trkpt lat="44.801287763393766" lon="9.491870083845638"><ele>442.0</ele><time>2026-05-03T09:21:22.999Z</time></trkpt><trkpt lat="44.80115187130819" lon="9.491842727060503"><ele>442.0</ele><time>2026-05-03T09:21:24.999Z</time></trkpt><trkpt lat="44.80108690952427" lon="9.491791062022752"><ele>442.00000000000006</ele><time>2026-05-03T09:21:25.999Z</time></trkpt><trkpt lat="44.80102582202253" lon="9.491730887608556"><ele>442.00000000000006</ele><time>2026-05-03T09:21:26.999Z</time></trkpt><trkpt lat="44.80091465810221" lon="9.491622453430535"><ele>442.0</ele><time>2026-05-03T09:21:28.999Z</time></trkpt><trkpt lat="44.800797978884916" lon="9.491565158567013"><ele>442.0</ele><time>2026-05-03T09:21:29.999Z</time></trkpt><trkpt lat="44.80068694305327" lon="9.491472357860163"><ele>443.75</ele><time>2026-05-03T09:21:30.999Z</time></trkpt><trkpt lat="44.80056970010741" lon="9.491377586009989"><ele>445.5</ele><time>2026-05-03T09:21:31.999Z</time></trkpt><trkpt lat="44.8004469356462" lon="9.491279048703241"><ele>447.25</ele><time>2026-05-03T09:21:32.999Z</time></trkpt><trkpt lat="44.80034835719069" lon="9.491184909253246"><ele>449.0</ele><time>2026-05-03T09:21:33.999Z</time></trkpt><trkpt lat="44.800266583704655" lon="9.491109277999898"><ele>449.16666666666663</ele><time>2026-05-03T09:21:34.999Z</time></trkpt><trkpt lat="44.80018842998974" lon="9.491037306926234"><ele>449.3333333333333</ele><time>2026-05-03T09:21:35.999Z</time></trkpt><trkpt lat="44.800101747249556" lon="9.490965522977703"><ele>449.5</ele><time>2026-05-03T09:21:36.999Z</time></trkpt><trkpt lat="44.80002856418246" lon="9.490900890294522"><ele>449.66666666666663</ele><time>2026-05-03T09:21:37.999Z</time></trkpt><trkpt lat="44.799955259875645" lon="9.490837716580648"><ele>449.8333333333333</ele><time>2026-05-03T09:21:38.999Z</time></trkpt><trkpt lat="44.799890773765" lon="9.49077655287378"><ele>450.0</ele><time>2026-05-03T09:21:39.999Z</time></trkpt><trkpt lat="44.799833403682904" lon="9.490729739218436"><ele>451.2</ele><time>2026-05-03T09:21:40.999Z</time></trkpt><trkpt lat="44.79976918505256" lon="9.49068138206885"><ele>452.4</ele><time>2026-05-03T09:21:41.999Z</time></trkpt><trkpt lat="44.79969113153441" lon="9.490613193786809"><ele>453.6</ele><time>2026-05-03T09:21:42.999Z</time></trkpt><trkpt lat="44.799620270415254" lon="9.49052204632547"><ele>454.8</ele><time>2026-05-03T09:21:43.999Z</time></trkpt><trkpt lat="44.799551548912156" lon="9.490426573659676"><ele>456.0</ele><time>2026-05-03T09:21:44.999Z</time></trkpt><trkpt lat="44.799481191571445" lon="9.490331183713618"><ele>457.1666666666667</ele><time>2026-05-03T09:21:45.999Z</time></trkpt><trkpt lat="44.79942142028368" lon="9.490225697062854"><ele>458.33333333333337</ele><time>2026-05-03T09:21:46.999Z</time></trkpt><trkpt lat="44.79936159924893" lon="9.490117552018196"><ele>459.5</ele><time>2026-05-03T09:21:47.999Z</time></trkpt><trkpt lat="44.79930250144658" lon="9.490033212701242"><ele>460.6666666666667</ele><time>2026-05-03T09:21:48.999Z</time></trkpt><trkpt lat="44.799232602673435" lon="9.489960746901101"><ele>461.83333333333337</ele><time>2026-05-03T09:21:49.999Z</time></trkpt><trkpt lat="44.79917588185874" lon="9.489891662426393"><ele>463.0</ele><time>2026-05-03T09:21:50.998Z</time></trkpt><trkpt lat="44.79916568717591" lon="9.489766795831706"><ele>463.79999999999995</ele><time>2026-05-03T09:21:52.998Z</time></trkpt><trkpt lat="44.79918896690215" lon="9.489650977789443"><ele>464.59999999999997</ele><time>2026-05-03T09:21:53.998Z</time></trkpt><trkpt lat="44.79919896078513" lon="9.489552083671821"><ele>465.40000000000003</ele><time>2026-05-03T09:21:54.998Z</time></trkpt><trkpt lat="44.79913635355355" lon="9.489367303200533"><ele>466.20000000000005</ele><time>2026-05-03T09:21:56.998Z</time></trkpt><trkpt lat="44.79909618071938" lon="9.489256627219737"><ele>467.0</ele><time>2026-05-03T09:21:57.998Z</time></trkpt><trkpt lat="44.799045955708905" lon="9.489201474299852"><ele>467.99999999999994</ele><time>2026-05-03T09:21:59.998Z</time></trkpt><trkpt lat="44.798965066093004" lon="9.489090029073527"><ele>469.0</ele><time>2026-05-03T09:24:19.998Z</time></trkpt><trkpt lat="44.798910916953034" lon="9.489035864335122"><ele>470.0</ele><time>2026-05-03T09:24:20.998Z</time></trkpt><trkpt lat="44.79884016113473" lon="9.488958340185185"><ele>471.0</ele><time>2026-05-03T09:24:21.998Z</time></trkpt><trkpt lat="44.79879024544001" lon="9.488863353788568"><ele>471.99999999999994</ele><time>2026-05-03T09:24:22.998Z</time></trkpt><trkpt lat="44.79875268424843" lon="9.488745007347928"><ele>473.0</ele><time>2026-05-03T09:24:24Z</time></trkpt><trkpt lat="44.798709481866425" lon="9.488621437245383"><ele>474.0</ele><time>2026-05-03T09:24:25Z</time></trkpt><trkpt lat="44.79864077148834" lon="9.488551196343362"><ele>474.99999999999994</ele><time>2026-05-03T09:24:26Z</time></trkpt><trkpt lat="44.798542824034925" lon="9.488500095186065"><ele>475.99999999999994</ele><time>2026-05-03T09:24:27Z</time></trkpt><trkpt lat="44.79842574186859" lon="9.488434203446888"><ele>477.0</ele><time>2026-05-03T09:24:28Z</time></trkpt><trkpt lat="44.79834981170247" lon="9.488386593001024"><ele>478.0</ele><time>2026-05-03T09:24:29Z</time></trkpt><trkpt lat="44.79827491735438" lon="9.488297974917483"><ele>478.83333333333337</ele><time>2026-05-03T09:24:31Z</time></trkpt><trkpt lat="44.79825606537671" lon="9.488155667345692"><ele>479.6666666666667</ele><time>2026-05-03T09:24:33Z</time></trkpt><trkpt lat="44.7981874822622" lon="9.48804354698701"><ele>480.5</ele><time>2026-05-03T09:24:36Z</time></trkpt><trkpt lat="44.79814533628605" lon="9.48797762452772"><ele>481.33333333333337</ele><time>2026-05-03T09:24:37Z</time></trkpt><trkpt lat="44.798104788813106" lon="9.487907334220015"><ele>482.1666666666667</ele><time>2026-05-03T09:24:39Z</time></trkpt><trkpt lat="44.798060099270636" lon="9.487761311882812"><ele>483.0</ele><time>2026-05-03T09:24:41Z</time></trkpt><trkpt lat="44.7980233058876" lon="9.487677368197865"><ele>483.0</ele><time>2026-05-03T09:24:42Z</time></trkpt><trkpt lat="44.79796138146227" lon="9.48760310539505"><ele>483.0</ele><time>2026-05-03T09:24:43Z</time></trkpt><trkpt lat="44.79787397080223" lon="9.487513495611244"><ele>483.0</ele><time>2026-05-03T09:24:44Z</time></trkpt><trkpt lat="44.79774234626768" lon="9.487403310679614"><ele>483.0</ele><time>2026-05-03T09:24:45Z</time></trkpt><trkpt lat="44.797609625297426" lon="9.48729609657091"><ele>484.4</ele><time>2026-05-03T09:24:46Z</time></trkpt><trkpt lat="44.79751763382689" lon="9.487215816497232"><ele>485.79999999999995</ele><time>2026-05-03T09:24:47Z</time></trkpt><trkpt lat="44.7974471459178" lon="9.48715578727193"><ele>487.2</ele><time>2026-05-03T09:24:48Z</time></trkpt><trkpt lat="44.79738421676963" lon="9.487114233420014"><ele>488.6</ele><time>2026-05-03T09:24:50Z</time></trkpt><trkpt lat="44.79732571702594" lon="9.487073710403552"><ele>490.0</ele><time>2026-05-03T09:24:59Z</time></trkpt><trkpt lat="44.79721034765395" lon="9.48700569101779"><ele>490.00000000000006</ele><time>2026-05-03T09:25:01Z</time></trkpt><trkpt lat="44.797146103876564" lon="9.48699415712713"><ele>490.0</ele><time>2026-05-03T09:25:02Z</time></trkpt><trkpt lat="44.79708130907659" lon="9.486968809086028"><ele>490.0</ele><time>2026-05-03T09:25:03Z</time></trkpt><trkpt lat="44.79702069131919" lon="9.486938840154188"><ele>490.0</ele><time>2026-05-03T09:25:04Z</time></trkpt><trkpt lat="44.796952191035665" lon="9.486889198662299"><ele>490.00000000000006</ele><time>2026-05-03T09:25:05Z</time></trkpt><trkpt lat="44.79689503327614" lon="9.486837894734135"><ele>490.0</ele><time>2026-05-03T09:25:06Z</time></trkpt><trkpt lat="44.79681696152286" lon="9.486728038358073"><ele>492.50000000000006</ele><time>2026-05-03T09:25:08Z</time></trkpt><trkpt lat="44.796742967357716" lon="9.486603781521357"><ele>495.0</ele><time>2026-05-03T09:25:09.999Z</time></trkpt><trkpt lat="44.79669567130839" lon="9.486530063615369"><ele>497.5</ele><time>2026-05-03T09:25:10.999Z</time></trkpt><trkpt lat="44.796646800558946" lon="9.486465005395837"><ele>500.0</ele><time>2026-05-03T09:25:11.999Z</time></trkpt><trkpt lat="44.79659469540821" lon="9.486403178593532"><ele>502.50000000000006</ele><time>2026-05-03T09:25:12.999Z</time></trkpt><trkpt lat="44.796548798752724" lon="9.486333208470887"><ele>505.0</ele><time>2026-05-03T09:25:13.999Z</time></trkpt><trkpt lat="44.796499437917554" lon="9.486266898864328"><ele>505.0</ele><time>2026-05-03T09:25:14.999Z</time></trkpt><trkpt lat="44.796376563790574" lon="9.486188525202534"><ele>505.0</ele><time>2026-05-03T09:25:16.999Z</time></trkpt><trkpt lat="44.79625866152917" lon="9.486099305908233"><ele>505.0</ele><time>2026-05-03T09:25:18.999Z</time></trkpt><trkpt lat="44.79619774860887" lon="9.486059800331692"><ele>505.0</ele><time>2026-05-03T09:25:19.999Z</time></trkpt><trkpt lat="44.79611282213836" lon="9.486013542119693"><ele>505.0</ele><time>2026-05-03T09:25:20.999Z</time></trkpt><trkpt lat="44.79602818438208" lon="9.48596500129174"><ele>508.0</ele><time>2026-05-03T09:25:21.999Z</time></trkpt><trkpt lat="44.7959504870798" lon="9.485900459474333"><ele>511.0</ele><time>2026-05-03T09:25:22.999Z</time></trkpt><trkpt lat="44.795891486111316" lon="9.48585709332601"><ele>514.0</ele><time>2026-05-03T09:25:23.999Z</time></trkpt><trkpt lat="44.795783872918996" lon="9.485818879892157"><ele>517.0</ele><time>2026-05-03T09:25:25.999Z</time></trkpt><trkpt lat="44.79571125659986" lon="9.485843820353335"><ele>520.0</ele><time>2026-05-03T09:25:27.999Z</time></trkpt><trkpt lat="44.79560280852806" lon="9.485784200224478"><ele>520.0</ele><time>2026-05-03T09:25:29.999Z</time></trkpt><trkpt lat="44.79552064629401" lon="9.485695782883953"><ele>520.0</ele><time>2026-05-03T09:25:31.999Z</time></trkpt><trkpt lat="44.79536663236717" lon="9.485690998543767"><ele>520.0</ele><time>2026-05-03T09:25:33.999Z</time></trkpt><trkpt lat="44.79530173270502" lon="9.485675412265273"><ele>520.0</ele><time>2026-05-03T09:25:34.999Z</time></trkpt><trkpt lat="44.79523924675366" lon="9.485662655237736"><ele>520.0</ele><time>2026-05-03T09:25:35.999Z</time></trkpt><trkpt lat="44.795117141993934" lon="9.485666707470822"><ele>523.8</ele><time>2026-05-03T09:25:37.999Z</time></trkpt><trkpt lat="44.79503578161075" lon="9.48569980163026"><ele>527.6</ele><time>2026-05-03T09:25:38.999Z</time></trkpt><trkpt lat="44.79492925773962" lon="9.485752057289789"><ele>531.4</ele><time>2026-05-03T09:25:40.999Z</time></trkpt><trkpt lat="44.79483568093539" lon="9.485778604514213"><ele>535.2</ele><time>2026-05-03T09:25:42.999Z</time></trkpt><trkpt lat="44.794755348411485" lon="9.485737126773465"><ele>539.0</ele><time>2026-05-03T09:25:44.999Z</time></trkpt><trkpt lat="44.79467377882496" lon="9.485680593897937"><ele>539.0</ele><time>2026-05-03T09:25:46.999Z</time></trkpt><trkpt lat="44.7945865685206" lon="9.485649036311749"><ele>539.0</ele><time>2026-05-03T09:25:48.999Z</time></trkpt><trkpt lat="44.79451234501758" lon="9.48569465182068"><ele>539.0</ele><time>2026-05-03T09:25:51.999Z</time></trkpt><trkpt lat="44.794507323563685" lon="9.485828224027056"><ele>539.0</ele><time>2026-05-03T09:25:53.999Z</time></trkpt><trkpt lat="44.79452262859106" lon="9.485916821775668"><ele>539.0</ele><time>2026-05-03T09:25:54.999Z</time></trkpt><trkpt lat="44.79454104268915" lon="9.486052344024491"><ele>539.0</ele><time>2026-05-03T09:25:56.999Z</time></trkpt><trkpt lat="44.79446186173022" lon="9.486117004822484"><ele>539.0</ele><time>2026-05-03T09:25:58.999Z</time></trkpt><trkpt lat="44.79437384546634" lon="9.486047282836381"><ele>539.0</ele><time>2026-05-03T09:26:00.999Z</time></trkpt><trkpt lat="44.794290998197376" lon="9.48600742170034"><ele>539.0</ele><time>2026-05-03T09:26:03.998Z</time></trkpt><trkpt lat="44.79420412946254" lon="9.485987059310993"><ele>539.0</ele><time>2026-05-03T09:26:48Z</time></trkpt><trkpt lat="44.794083786375474" lon="9.48591604989114"><ele>539.0</ele><time>2026-05-03T09:26:50Z</time></trkpt><trkpt lat="44.794000841261095" lon="9.485854605314948"><ele>541.4</ele><time>2026-05-03T09:26:51Z</time></trkpt><trkpt lat="44.79392115227602" lon="9.485757803093744"><ele>543.8</ele><time>2026-05-03T09:26:52Z</time></trkpt><trkpt lat="44.79382551508611" lon="9.485673701528329"><ele>546.2</ele><time>2026-05-03T09:26:53Z</time></trkpt><trkpt lat="44.793736389606266" lon="9.485634143954737"><ele>548.6</ele><time>2026-05-03T09:26:54Z</time></trkpt><trkpt lat="44.79366832627799" lon="9.485583137347152"><ele>551.0</ele><time>2026-05-03T09:26:55Z</time></trkpt><trkpt lat="44.79362739105297" lon="9.48548536371374"><ele>550.5</ele><time>2026-05-03T09:26:56Z</time></trkpt><trkpt lat="44.79358860817917" lon="9.48538525561574"><ele>550.0</ele><time>2026-05-03T09:26:57Z</time></trkpt><trkpt lat="44.79353529301992" lon="9.485303444448764"><ele>549.5</ele><time>2026-05-03T09:26:58Z</time></trkpt><trkpt lat="44.79346532140049" lon="9.485243213358698"><ele>549.0</ele><time>2026-05-03T09:26:59Z</time></trkpt><trkpt lat="44.793382307454266" lon="9.48518773946659"><ele>548.5</ele><time>2026-05-03T09:27:00Z</time></trkpt><trkpt lat="44.79329712676044" lon="9.485141981913271"><ele>548.0</ele><time>2026-05-03T09:27:01Z</time></trkpt><trkpt lat="44.79321343235223" lon="9.48510803332904"><ele>550.0</ele><time>2026-05-03T09:27:02Z</time></trkpt><trkpt lat="44.793131111172464" lon="9.485081134479683"><ele>552.0</ele><time>2026-05-03T09:27:03Z</time></trkpt><trkpt lat="44.79305668524009" lon="9.485049205835976"><ele>554.0</ele><time>2026-05-03T09:27:04Z</time></trkpt><trkpt lat="44.792992570678685" lon="9.484979299232165"><ele>556.0</ele><time>2026-05-03T09:27:05Z</time></trkpt><trkpt lat="44.79294232233418" lon="9.4848761517451"><ele>558.0</ele><time>2026-05-03T09:27:06Z</time></trkpt><trkpt lat="44.792900943608764" lon="9.484758639084907"><ele>560.0</ele><time>2026-05-03T09:27:07Z</time></trkpt><trkpt lat="44.79286600983984" lon="9.484666274339723"><ele>560.0</ele><time>2026-05-03T09:27:08Z</time></trkpt><trkpt lat="44.792801596414215" lon="9.484612775268829"><ele>560.0</ele><time>2026-05-03T09:27:09.999Z</time></trkpt><trkpt lat="44.792685181120966" lon="9.484569390718507"><ele>560.0</ele><time>2026-05-03T09:27:11.999Z</time></trkpt><trkpt lat="44.79261207395154" lon="9.484519460271384"><ele>560.0</ele><time>2026-05-03T09:27:12.999Z</time></trkpt><trkpt lat="44.79250665825923" lon="9.484464943506213"><ele>560.0</ele><time>2026-05-03T09:27:14.999Z</time></trkpt><trkpt lat="44.792474435416594" lon="9.484375692636728"><ele>562.3333333333333</ele><time>2026-05-03T09:27:16.999Z</time></trkpt><trkpt lat="44.79246060511332" lon="9.484285272881642"><ele>564.6666666666666</ele><time>2026-05-03T09:27:17.999Z</time></trkpt><trkpt lat="44.79245044269016" lon="9.484196854442812"><ele>567.0</ele><time>2026-05-03T09:27:18.999Z</time></trkpt><trkpt lat="44.79243668997192" lon="9.484078385105677"><ele>569.3333333333334</ele><time>2026-05-03T09:27:19.999Z</time></trkpt><trkpt lat="44.792403318395884" lon="9.483957813194019"><ele>571.6666666666667</ele><time>2026-05-03T09:27:20.999Z</time></trkpt><trkpt lat="44.79236197572896" lon="9.483843659256456"><ele>574.0</ele><time>2026-05-03T09:27:21.999Z</time></trkpt><trkpt lat="44.792335262583535" lon="9.483720448086904"><ele>574.3333333333334</ele><time>2026-05-03T09:27:22.999Z</time></trkpt><trkpt lat="44.79229663274001" lon="9.4836348417389"><ele>574.6666666666667</ele><time>2026-05-03T09:27:23.999Z</time></trkpt><trkpt lat="44.79223641298108" lon="9.483572070610597"><ele>575.0</ele><time>2026-05-03T09:27:24.999Z</time></trkpt><trkpt lat="44.792177158744536" lon="9.483481456168821"><ele>575.3333333333334</ele><time>2026-05-03T09:27:25.999Z</time></trkpt><trkpt lat="44.79211333112462" lon="9.48342163479534"><ele>575.6666666666666</ele><time>2026-05-03T09:27:26.999Z</time></trkpt><trkpt lat="44.79207167601226" lon="9.483316000827154"><ele>576.0</ele><time>2026-05-03T09:27:28.999Z</time></trkpt><trkpt lat="44.79209475985329" lon="9.483158703466895"><ele>576.0</ele><time>2026-05-03T09:27:30.999Z</time></trkpt><trkpt lat="44.79213014549041" lon="9.483022348007266"><ele>576.0</ele><time>2026-05-03T09:27:32.999Z</time></trkpt><trkpt lat="44.79208212496666" lon="9.482940221464204"><ele>576.0</ele><time>2026-05-03T09:27:35.999Z</time></trkpt><trkpt lat="44.79201899984939" lon="9.482829867083598"><ele>576.0</ele><time>2026-05-03T09:27:38.999Z</time></trkpt><trkpt lat="44.79194559181685" lon="9.482736920494661"><ele>576.0</ele><time>2026-05-03T09:27:48.999Z</time></trkpt><trkpt lat="44.7918995261844" lon="9.48265496554221"><ele>577.6666666666666</ele><time>2026-05-03T09:27:50.999Z</time></trkpt><trkpt lat="44.79185860912969" lon="9.482571572390391"><ele>579.3333333333334</ele><time>2026-05-03T09:27:52.999Z</time></trkpt><trkpt lat="44.7917897807123" lon="9.48247765698932"><ele>581.0</ele><time>2026-05-03T09:27:55.999Z</time></trkpt><trkpt lat="44.79173005120248" lon="9.482417420188138"><ele>582.6666666666667</ele><time>2026-05-03T09:27:57.999Z</time></trkpt><trkpt lat="44.79165768325442" lon="9.482364125909692"><ele>584.3333333333334</ele><time>2026-05-03T09:28:00.999Z</time></trkpt><trkpt lat="44.79159120012776" lon="9.482324098963945"><ele>586.0</ele><time>2026-05-03T09:28:02.999Z</time></trkpt><trkpt lat="44.79152035130353" lon="9.482290713066506"><ele>588.3333333333334</ele><time>2026-05-03T09:28:05.998Z</time></trkpt><trkpt lat="44.79144491530355" lon="9.482212408959436"><ele>590.6666666666667</ele><time>2026-05-03T09:28:08.998Z</time></trkpt><trkpt lat="44.79139612142496" lon="9.482148587943643"><ele>593.0</ele><time>2026-05-03T09:28:11.998Z</time></trkpt><trkpt lat="44.791347751353804" lon="9.482090565960467"><ele>595.3333333333334</ele><time>2026-05-03T09:28:19.998Z</time></trkpt><trkpt lat="44.79127078059045" lon="9.48205822292239"><ele>597.6666666666666</ele><time>2026-05-03T09:28:50Z</time></trkpt><trkpt lat="44.79117165772633" lon="9.482050886066181"><ele>600.0</ele><time>2026-05-03T09:28:55Z</time></trkpt><trkpt lat="44.79108408575786" lon="9.4820808337236"><ele>603.0</ele><time>2026-05-03T09:28:57Z</time></trkpt><trkpt lat="44.79099299534302" lon="9.482007746642116"><ele>606.0</ele><time>2026-05-03T09:28:59Z</time></trkpt><trkpt lat="44.79093333979625" lon="9.481959534080593"><ele>609.0</ele><time>2026-05-03T09:29:00Z</time></trkpt><trkpt lat="44.79087205509481" lon="9.481928599486363"><ele>612.0</ele><time>2026-05-03T09:29:01Z</time></trkpt><trkpt lat="44.79079659360503" lon="9.481888381963326"><ele>615.0</ele><time>2026-05-03T09:29:02Z</time></trkpt><trkpt lat="44.7907301582853" lon="9.481854072038598"><ele>618.0</ele><time>2026-05-03T09:29:03Z</time></trkpt><trkpt lat="44.79065762924033" lon="9.481836003631729"><ele>618.0000000000001</ele><time>2026-05-03T09:29:04Z</time></trkpt><trkpt lat="44.790595771494125" lon="9.481802530241168"><ele>618.0</ele><time>2026-05-03T09:29:05Z</time></trkpt><trkpt lat="44.79054221516858" lon="9.481741993639085"><ele>618.0</ele><time>2026-05-03T09:29:06Z</time></trkpt><trkpt lat="44.7904907177036" lon="9.48167495423039"><ele>618.0</ele><time>2026-05-03T09:29:07Z</time></trkpt><trkpt lat="44.79043670964717" lon="9.481609398494715"><ele>618.0</ele><time>2026-05-03T09:29:08Z</time></trkpt><trkpt lat="44.790394525016126" lon="9.481533048278584"><ele>618.0000000000001</ele><time>2026-05-03T09:29:09Z</time></trkpt><trkpt lat="44.79036167623683" lon="9.481437260339572"><ele>618.0</ele><time>2026-05-03T09:29:10Z</time></trkpt><trkpt lat="44.79031193606948" lon="9.48130992072055"><ele>617.8</ele><time>2026-05-03T09:29:12Z</time></trkpt><trkpt lat="44.79026341183709" lon="9.48118066991345"><ele>617.5999999999999</ele><time>2026-05-03T09:29:14Z</time></trkpt><trkpt lat="44.79022624870965" lon="9.481046158696207"><ele>617.4000000000001</ele><time>2026-05-03T09:29:16Z</time></trkpt><trkpt lat="44.79018560564529" lon="9.480908190394162"><ele>617.2</ele><time>2026-05-03T09:29:18Z</time></trkpt><trkpt lat="44.79011197568131" lon="9.480820074538752"><ele>617.0</ele><time>2026-05-03T09:29:19.999Z</time></trkpt><trkpt lat="44.790008940867764" lon="9.48077254095472"><ele>620.1666666666666</ele><time>2026-05-03T09:29:21.999Z</time></trkpt><trkpt lat="44.789910883319195" lon="9.480707173095622"><ele>623.3333333333333</ele><time>2026-05-03T09:29:23.999Z</time></trkpt><trkpt lat="44.789860761703764" lon="9.480645290716936"><ele>626.5</ele><time>2026-05-03T09:29:24.999Z</time></trkpt><trkpt lat="44.78981116513784" lon="9.48058577416132"><ele>629.6666666666666</ele><time>2026-05-03T09:29:25.999Z</time></trkpt><trkpt lat="44.78975792280376" lon="9.48053430801244"><ele>632.8333333333334</ele><time>2026-05-03T09:29:26.999Z</time></trkpt><trkpt lat="44.78963979737136" lon="9.480485031674895"><ele>636.0</ele><time>2026-05-03T09:29:28.999Z</time></trkpt><trkpt lat="44.78956829440513" lon="9.480465073264506"><ele>636.0</ele><time>2026-05-03T09:29:29.999Z</time></trkpt><trkpt lat="44.78949833302272" lon="9.480435650687918"><ele>636.0</ele><time>2026-05-03T09:29:30.999Z</time></trkpt><trkpt lat="44.789421739067706" lon="9.480410255946868"><ele>636.0</ele><time>2026-05-03T09:29:31.999Z</time></trkpt><trkpt lat="44.7893458695748" lon="9.480392452012152"><ele>636.0</ele><time>2026-05-03T09:29:32.999Z</time></trkpt><trkpt lat="44.789276873360855" lon="9.480366134055638"><ele>636.0</ele><time>2026-05-03T09:29:33.999Z</time></trkpt><trkpt lat="44.78918613547057" lon="9.48035297779168"><ele>636.0</ele><time>2026-05-03T09:29:34.999Z</time></trkpt><trkpt lat="44.78912119979606" lon="9.48034470857856"><ele>640.6</ele><time>2026-05-03T09:29:35.999Z</time></trkpt><trkpt lat="44.78899562738833" lon="9.480365555000295"><ele>645.2</ele><time>2026-05-03T09:29:37.999Z</time></trkpt><trkpt lat="44.78895594250151" lon="9.480287436277887"><ele>649.8000000000001</ele><time>2026-05-03T09:29:39.999Z</time></trkpt><trkpt lat="44.78886324142229" lon="9.480178139333832"><ele>654.4000000000001</ele><time>2026-05-03T09:29:41.999Z</time></trkpt><trkpt lat="44.788795045065484" lon="9.480065979508266"><ele>659.0</ele><time>2026-05-03T09:29:43.999Z</time></trkpt><trkpt lat="44.7887601365162" lon="9.479984343353472"><ele>659.0</ele><time>2026-05-03T09:29:44.999Z</time></trkpt><trkpt lat="44.78871800826263" lon="9.479915358962456"><ele>659.0</ele><time>2026-05-03T09:29:45.999Z</time></trkpt><trkpt lat="44.788673529778485" lon="9.479835770335184"><ele>659.0</ele><time>2026-05-03T09:29:46.999Z</time></trkpt><trkpt lat="44.78860026388317" lon="9.479747003956676"><ele>659.0</ele><time>2026-05-03T09:29:47.999Z</time></trkpt><trkpt lat="44.78850150882887" lon="9.479641433667936"><ele>659.0</ele><time>2026-05-03T09:29:48.999Z</time></trkpt><trkpt lat="44.78842724424628" lon="9.47954213092124"><ele>660.4000000000001</ele><time>2026-05-03T09:29:49.999Z</time></trkpt><trkpt lat="44.78835600946164" lon="9.479467505255206"><ele>661.8</ele><time>2026-05-03T09:29:50.999Z</time></trkpt><trkpt lat="44.78826938563901" lon="9.47940312025038"><ele>663.2</ele><time>2026-05-03T09:29:51.999Z</time></trkpt><trkpt lat="44.78817245925767" lon="9.479349050513107"><ele>664.5999999999999</ele><time>2026-05-03T09:29:52.999Z</time></trkpt><trkpt lat="44.78806723875487" lon="9.47926847844165"><ele>666.0</ele><time>2026-05-03T09:29:53.999Z</time></trkpt><trkpt lat="44.787978586919586" lon="9.479201417248776"><ele>666.0</ele><time>2026-05-03T09:29:54.999Z</time></trkpt><trkpt lat="44.78789870423895" lon="9.479136729624269"><ele>666.0</ele><time>2026-05-03T09:29:55.999Z</time></trkpt><trkpt lat="44.787831805565965" lon="9.47906391862034"><ele>666.0</ele><time>2026-05-03T09:29:56.999Z</time></trkpt><trkpt lat="44.78779382800925" lon="9.478975738869448"><ele>666.0</ele><time>2026-05-03T09:29:57.999Z</time></trkpt><trkpt lat="44.78775786583127" lon="9.478870653202975"><ele>666.0</ele><time>2026-05-03T09:29:58.999Z</time></trkpt><trkpt lat="44.78773971987134" lon="9.4787536604827"><ele>666.0</ele><time>2026-05-03T09:29:59.999Z</time></trkpt><trkpt lat="44.787737580219776" lon="9.478616456440554"><ele>667.0</ele><time>2026-05-03T09:30:00.999Z</time></trkpt><trkpt lat="44.78772229645993" lon="9.478521249129397"><ele>668.0</ele><time>2026-05-03T09:30:01.999Z</time></trkpt><trkpt lat="44.78768317731337" lon="9.478442566506057"><ele>669.0</ele><time>2026-05-03T09:30:02.999Z</time></trkpt><trkpt lat="44.787645186701255" lon="9.478368103811208"><ele>670.0</ele><time>2026-05-03T09:30:03.999Z</time></trkpt><trkpt lat="44.787645529191344" lon="9.478275174692504"><ele>671.0</ele><time>2026-05-03T09:30:04.999Z</time></trkpt><trkpt lat="44.78764487040131" lon="9.478153083334298"><ele>672.0</ele><time>2026-05-03T09:30:05.999Z</time></trkpt><trkpt lat="44.787607682330744" lon="9.478059363946787"><ele>673.0</ele><time>2026-05-03T09:30:06.999Z</time></trkpt><trkpt lat="44.78757390465417" lon="9.477959797586779"><ele>676.6666666666667</ele><time>2026-05-03T09:30:07.999Z</time></trkpt><trkpt lat="44.78755064140628" lon="9.477845054507172"><ele>680.3333333333334</ele><time>2026-05-03T09:30:08.999Z</time></trkpt><trkpt lat="44.78753257277938" lon="9.477740611221458"><ele>684.0</ele><time>2026-05-03T09:30:09.999Z</time></trkpt><trkpt lat="44.78753779291542" lon="9.477632256016538"><ele>687.6666666666666</ele><time>2026-05-03T09:30:10.999Z</time></trkpt><trkpt lat="44.787532498619925" lon="9.477531955141762"><ele>691.3333333333333</ele><time>2026-05-03T09:30:12.999Z</time></trkpt><trkpt lat="44.7874703072673" lon="9.477466363504565"><ele>695.0</ele><time>2026-05-03T09:30:13.998Z</time></trkpt><trkpt lat="44.78740067258058" lon="9.477409329754002"><ele>695.0</ele><time>2026-05-03T09:30:14.998Z</time></trkpt><trkpt lat="44.787320577459894" lon="9.477339377487048"><ele>695.0</ele><time>2026-05-03T09:30:15.998Z</time></trkpt><trkpt lat="44.787247275009925" lon="9.477277061883763"><ele>695.0</ele><time>2026-05-03T09:30:16.998Z</time></trkpt><trkpt lat="44.787136568843096" lon="9.477194668832233"><ele>695.0</ele><time>2026-05-03T09:30:17.998Z</time></trkpt><trkpt lat="44.78702885170398" lon="9.477152887247708"><ele>695.0</ele><time>2026-05-03T09:30:18.998Z</time></trkpt><trkpt lat="44.786940064044764" lon="9.477096324354605"><ele>695.8</ele><time>2026-05-03T09:30:19.998Z</time></trkpt><trkpt lat="44.786870349084786" lon="9.477013317598347"><ele>696.6</ele><time>2026-05-03T09:30:20.998Z</time></trkpt><trkpt lat="44.78681134295844" lon="9.4769159534181"><ele>697.4000000000001</ele><time>2026-05-03T09:30:21.998Z</time></trkpt><trkpt lat="44.786767836750535" lon="9.476773272371094"><ele>698.2</ele><time>2026-05-03T09:30:22.998Z</time></trkpt><trkpt lat="44.786753633643315" lon="9.47660255301279"><ele>699.0</ele><time>2026-05-03T09:30:23.998Z</time></trkpt><trkpt lat="44.78673866023092" lon="9.476436328015915"><ele>700.4000000000001</ele><time>2026-05-03T09:30:24.998Z</time></trkpt><trkpt lat="44.786703931205665" lon="9.47629510943073"><ele>701.8</ele><time>2026-05-03T09:30:25.998Z</time></trkpt><trkpt lat="44.78665768259059" lon="9.476135944919685"><ele>703.2</ele><time>2026-05-03T09:30:26.998Z</time></trkpt><trkpt lat="44.7866041239485" lon="9.476010936831477"><ele>704.5999999999999</ele><time>2026-05-03T09:30:27.998Z</time></trkpt><trkpt lat="44.786524669622274" lon="9.475897345121282"><ele>706.0</ele><time>2026-05-03T09:30:28.998Z</time></trkpt><trkpt lat="44.786433012260716" lon="9.475792001666607"><ele>706.5999999999999</ele><time>2026-05-03T09:30:29.998Z</time></trkpt><trkpt lat="44.78635285240776" lon="9.475708468323703"><ele>707.2</ele><time>2026-05-03T09:30:30.998Z</time></trkpt><trkpt lat="44.78629660026729" lon="9.475603032483788"><ele>707.8</ele><time>2026-05-03T09:30:31.998Z</time></trkpt><trkpt lat="44.78625606446321" lon="9.475470725496605"><ele>708.4000000000001</ele><time>2026-05-03T09:30:32.998Z</time></trkpt><trkpt lat="44.78619235571756" lon="9.475332326216325"><ele>709.0</ele><time>2026-05-03T09:30:33.998Z</time></trkpt><trkpt lat="44.786118833223675" lon="9.475229735842696"><ele>709.8333333333334</ele><time>2026-05-03T09:30:34.998Z</time></trkpt><trkpt lat="44.78603352914889" lon="9.475157776626528"><ele>710.6666666666667</ele><time>2026-05-03T09:30:35.998Z</time></trkpt><trkpt lat="44.78593337601922" lon="9.475082630290382"><ele>711.5</ele><time>2026-05-03T09:30:36.998Z</time></trkpt><trkpt lat="44.78587522631427" lon="9.47504401840837"><ele>712.3333333333334</ele><time>2026-05-03T09:30:37.998Z</time></trkpt><trkpt lat="44.78581413815752" lon="9.475136164648069"><ele>713.1666666666666</ele><time>2026-05-03T09:30:39.998Z</time></trkpt><trkpt lat="44.785755585184965" lon="9.475210077813639"><ele>714.0</ele><time>2026-05-03T09:30:42Z</time></trkpt><trkpt lat="44.78570943098197" lon="9.475143715714404"><ele>715.8000000000001</ele><time>2026-05-03T09:30:48Z</time></trkpt><trkpt lat="44.785758532138125" lon="9.475054357387743"><ele>717.6</ele><time>2026-05-03T09:31:15Z</time></trkpt><trkpt lat="44.78576586856615" lon="9.474930815516968"><ele>719.4</ele><time>2026-05-03T09:31:17Z</time></trkpt><trkpt lat="44.78575410911696" lon="9.474810591121964"><ele>721.2</ele><time>2026-05-03T09:31:19Z</time></trkpt><trkpt lat="44.78569323663553" lon="9.474711341602497"><ele>723.0</ele><time>2026-05-03T09:31:53.999Z</time></trkpt><trkpt lat="44.785582742415315" lon="9.474635610275309"><ele>723.6666666666666</ele><time>2026-05-03T09:31:55.999Z</time></trkpt><trkpt lat="44.78551945327547" lon="9.474585425690341"><ele>724.3333333333334</ele><time>2026-05-03T09:31:56.999Z</time></trkpt><trkpt lat="44.78543903882709" lon="9.474527033387293"><ele>725.0</ele><time>2026-05-03T09:31:57.999Z</time></trkpt><trkpt lat="44.785350742025294" lon="9.47448355583069"><ele>725.6666666666667</ele><time>2026-05-03T09:31:58.999Z</time></trkpt><trkpt lat="44.78526255565915" lon="9.474436326567805"><ele>726.3333333333334</ele><time>2026-05-03T09:31:59.999Z</time></trkpt><trkpt lat="44.785177616311394" lon="9.474395687130347"><ele>727.0</ele><time>2026-05-03T09:32:00.999Z</time></trkpt><trkpt lat="44.78509159946064" lon="9.474354648934108"><ele>728.6666666666667</ele><time>2026-05-03T09:32:01.999Z</time></trkpt><trkpt lat="44.78500830193812" lon="9.474309097561218"><ele>730.3333333333334</ele><time>2026-05-03T09:32:02.999Z</time></trkpt><trkpt lat="44.784930626179985" lon="9.47425464374233"><ele>732.0</ele><time>2026-05-03T09:32:03.999Z</time></trkpt><trkpt lat="44.784869616058074" lon="9.474177198609803"><ele>733.6666666666666</ele><time>2026-05-03T09:32:04.999Z</time></trkpt><trkpt lat="44.784843813594165" lon="9.474081706926988"><ele>735.3333333333333</ele><time>2026-05-03T09:32:05.999Z</time></trkpt><trkpt lat="44.78482580440046" lon="9.473971873200115"><ele>737.0</ele><time>2026-05-03T09:32:06.999Z</time></trkpt><trkpt lat="44.78478880927672" lon="9.473868923478644"><ele>737.0</ele><time>2026-05-03T09:32:07.999Z</time></trkpt><trkpt lat="44.78472425036452" lon="9.473781692345588"><ele>737.0</ele><time>2026-05-03T09:32:08.999Z</time></trkpt><trkpt lat="44.78464256131059" lon="9.473706775985084"><ele>737.0</ele><time>2026-05-03T09:32:09.999Z</time></trkpt><trkpt lat="44.784559476371435" lon="9.473631566040405"><ele>737.0</ele><time>2026-05-03T09:32:10.999Z</time></trkpt><trkpt lat="44.784467457151955" lon="9.473543999719858"><ele>737.0</ele><time>2026-05-03T09:32:11.999Z</time></trkpt><trkpt lat="44.78439501885577" lon="9.47345551372539"><ele>737.1666666666666</ele><time>2026-05-03T09:32:12.999Z</time></trkpt><trkpt lat="44.78435817656002" lon="9.473352271344044"><ele>737.3333333333333</ele><time>2026-05-03T09:32:13.998Z</time></trkpt><trkpt lat="44.784334090863894" lon="9.47322169384429"><ele>737.5</ele><time>2026-05-03T09:32:14.998Z</time></trkpt><trkpt lat="44.784309156635906" lon="9.47312077524174"><ele>737.6666666666666</ele><time>2026-05-03T09:32:15.998Z</time></trkpt><trkpt lat="44.784278492683974" lon="9.472998101341258"><ele>737.8333333333334</ele><time>2026-05-03T09:32:16.998Z</time></trkpt><trkpt lat="44.7842772922339" lon="9.47288174927785"><ele>738.0</ele><time>2026-05-03T09:32:17.998Z</time></trkpt><trkpt lat="44.78429912651927" lon="9.472771485636235"><ele>739.0</ele><time>2026-05-03T09:32:18.998Z</time></trkpt><trkpt lat="44.784324483013556" lon="9.472666730021725"><ele>740.0</ele><time>2026-05-03T09:32:19.998Z</time></trkpt><trkpt lat="44.784376865517345" lon="9.472543746729276"><ele>741.0</ele><time>2026-05-03T09:32:21.998Z</time></trkpt><trkpt lat="44.7844203042476" lon="9.472471243160678"><ele>742.0</ele><time>2026-05-03T09:32:22.998Z</time></trkpt><trkpt lat="44.784451343465825" lon="9.472374500014748"><ele>743.0</ele><time>2026-05-03T09:32:23.998Z</time></trkpt><trkpt lat="44.784478410360435" lon="9.472259294157134"><ele>744.0</ele><time>2026-05-03T09:32:24.998Z</time></trkpt><trkpt lat="44.784517529554925" lon="9.472143903696292"><ele>746.0</ele><time>2026-05-03T09:32:25.998Z</time></trkpt><trkpt lat="44.78457136825108" lon="9.47204494603714"><ele>748.0</ele><time>2026-05-03T09:32:26.998Z</time></trkpt><trkpt lat="44.78463703390309" lon="9.471983554419863"><ele>750.0</ele><time>2026-05-03T09:32:27.998Z</time></trkpt><trkpt lat="44.78471107808585" lon="9.47195998668822"><ele>752.0</ele><time>2026-05-03T09:32:28.998Z</time></trkpt><trkpt lat="44.78478789914162" lon="9.471956669755313"><ele>754.0</ele><time>2026-05-03T09:32:29.998Z</time></trkpt><trkpt lat="44.78487458130177" lon="9.47197253206217"><ele>756.0</ele><time>2026-05-03T09:32:30.998Z</time></trkpt><trkpt lat="44.784979343607425" lon="9.471989561551913"><ele>756.0</ele><time>2026-05-03T09:32:31.998Z</time></trkpt><trkpt lat="44.78509225308113" lon="9.471999842096707"><ele>756.0</ele><time>2026-05-03T09:32:32.998Z</time></trkpt><trkpt lat="44.785190808169396" lon="9.471989868285888"><ele>756.0</ele><time>2026-05-03T09:32:33.998Z</time></trkpt><trkpt lat="44.785264793437975" lon="9.471983699974825"><ele>756.0</ele><time>2026-05-03T09:32:34.998Z</time></trkpt><trkpt lat="44.78534750500584" lon="9.471981746613437"><ele>756.0</ele><time>2026-05-03T09:32:35.998Z</time></trkpt><trkpt lat="44.785414785858734" lon="9.4719681691582"><ele>756.0</ele><time>2026-05-03T09:32:36.998Z</time></trkpt><trkpt lat="44.78548322060327" lon="9.47196459991667"><ele>755.5999999999999</ele><time>2026-05-03T09:32:37.998Z</time></trkpt><trkpt lat="44.78558478337807" lon="9.47188973490811"><ele>755.2</ele><time>2026-05-03T09:32:39.998Z</time></trkpt><trkpt lat="44.78562711740068" lon="9.471800456840858"><ele>754.8</ele><time>2026-05-03T09:32:40.998Z</time></trkpt><trkpt lat="44.785709516768854" lon="9.471729458282526"><ele>754.4000000000001</ele><time>2026-05-03T09:32:41.998Z</time></trkpt><trkpt lat="44.78579300792349" lon="9.471681825167263"><ele>754.0</ele><time>2026-05-03T09:32:42.998Z</time></trkpt><trkpt lat="44.78586390195453" lon="9.471634100286726"><ele>754.0</ele><time>2026-05-03T09:32:43.998Z</time></trkpt><trkpt lat="44.78592486987191" lon="9.4715863314154"><ele>754.0</ele><time>2026-05-03T09:32:44.998Z</time></trkpt><trkpt lat="44.78604333042327" lon="9.47145243121375"><ele>754.0</ele><time>2026-05-03T09:32:46.998Z</time></trkpt><trkpt lat="44.78610899674627" lon="9.471370404027207"><ele>754.0</ele><time>2026-05-03T09:32:48Z</time></trkpt><trkpt lat="44.78617360282305" lon="9.47127032438925"><ele>754.0</ele><time>2026-05-03T09:32:49Z</time></trkpt><trkpt lat="44.78623926689197" lon="9.471143661787586"><ele>754.8000000000001</ele><time>2026-05-03T09:32:50Z</time></trkpt><trkpt lat="44.78628978882726" lon="9.470999052087247"><ele>755.6</ele><time>2026-05-03T09:32:51Z</time></trkpt><trkpt lat="44.78632140812213" lon="9.470877408426672"><ele>756.4</ele><time>2026-05-03T09:32:52Z</time></trkpt><trkpt lat="44.78633168738808" lon="9.470753622747253"><ele>757.2</ele><time>2026-05-03T09:32:53Z</time></trkpt><trkpt lat="44.786342252019594" lon="9.470635693656183"><ele>758.0</ele><time>2026-05-03T09:32:54Z</time></trkpt><trkpt lat="44.78634929993927" lon="9.47051211669487"><ele>759.5</ele><time>2026-05-03T09:32:55Z</time></trkpt><trkpt lat="44.78634895115496" lon="9.470378555286056"><ele>761.0</ele><time>2026-05-03T09:32:56Z</time></trkpt><trkpt lat="44.786333557025266" lon="9.470244108877738"><ele>762.5</ele><time>2026-05-03T09:32:57Z</time></trkpt><trkpt lat="44.786359430603035" lon="9.470141958344787"><ele>764.0</ele><time>2026-05-03T09:32:58Z</time></trkpt><trkpt lat="44.786375630716414" lon="9.470047512744136"><ele>765.5</ele><time>2026-05-03T09:32:59Z</time></trkpt><trkpt lat="44.7863825213248" lon="9.46992331705219"><ele>767.0</ele><time>2026-05-03T09:33:00Z</time></trkpt><trkpt lat="44.78638361090288" lon="9.469802580788107"><ele>767.0</ele><time>2026-05-03T09:33:01Z</time></trkpt><trkpt lat="44.78637681224013" lon="9.469694041819547"><ele>767.0</ele><time>2026-05-03T09:33:02Z</time></trkpt><trkpt lat="44.78636469551541" lon="9.469588756820558"><ele>767.0</ele><time>2026-05-03T09:33:03Z</time></trkpt><trkpt lat="44.78634783220308" lon="9.469498030740242"><ele>767.0</ele><time>2026-05-03T09:33:04Z</time></trkpt><trkpt lat="44.786308131810884" lon="9.469377090381936"><ele>767.0</ele><time>2026-05-03T09:33:06Z</time></trkpt><trkpt lat="44.786229915487354" lon="9.469342887334946"><ele>767.0</ele><time>2026-05-03T09:33:14Z</time></trkpt><trkpt lat="44.78617540705589" lon="9.46928551498019"><ele>766.4000000000001</ele><time>2026-05-03T09:33:17Z</time></trkpt><trkpt lat="44.78612000233574" lon="9.469156451577053"><ele>765.8000000000001</ele><time>2026-05-03T09:33:20Z</time></trkpt><trkpt lat="44.78612379070267" lon="9.468996954006746"><ele>765.2</ele><time>2026-05-03T09:33:22Z</time></trkpt><trkpt lat="44.78611672733174" lon="9.468872019260013"><ele>764.6</ele><time>2026-05-03T09:33:24Z</time></trkpt><trkpt lat="44.78610933064272" lon="9.468771848744682"><ele>764.0</ele><time>2026-05-03T09:33:26Z</time></trkpt><trkpt lat="44.7860971561852" lon="9.46866374498162"><ele>764.0</ele><time>2026-05-03T09:33:28Z</time></trkpt><trkpt lat="44.78613467608054" lon="9.468590723849275"><ele>764.0</ele><time>2026-05-03T09:33:29Z</time></trkpt><trkpt lat="44.78619090736001" lon="9.468481805352193"><ele>764.0</ele><time>2026-05-03T09:33:29.999Z</time></trkpt><trkpt lat="44.786233728056615" lon="9.46838391693238"><ele>764.0</ele><time>2026-05-03T09:33:30.999Z</time></trkpt><trkpt lat="44.78626081023529" lon="9.468292808090231"><ele>764.0</ele><time>2026-05-03T09:33:32.999Z</time></trkpt><trkpt lat="44.786306261508464" lon="9.46818303025259"><ele>764.0</ele><time>2026-05-03T09:33:35.999Z</time></trkpt><trkpt lat="44.786330960027364" lon="9.468062035652537"><ele>764.0</ele><time>2026-05-03T09:33:37.999Z</time></trkpt><trkpt lat="44.78636363474737" lon="9.467972426820431"><ele>764.0</ele><time>2026-05-03T09:33:40.999Z</time></trkpt><trkpt lat="44.78638619640737" lon="9.467870062397097"><ele>764.0</ele><time>2026-05-03T09:33:42.999Z</time></trkpt><trkpt lat="44.786421301696656" lon="9.467765683361726"><ele>764.0</ele><time>2026-05-03T09:33:43.999Z</time></trkpt><trkpt lat="44.786459199676145" lon="9.467674101496257"><ele>764.0</ele><time>2026-05-03T09:33:44.999Z</time></trkpt><trkpt lat="44.786492809756545" lon="9.467562708810465"><ele>764.0</ele><time>2026-05-03T09:33:45.999Z</time></trkpt><trkpt lat="44.786512417587154" lon="9.467436693419227"><ele>763.8333333333333</ele><time>2026-05-03T09:33:46.999Z</time></trkpt><trkpt lat="44.786525920828794" lon="9.467349081150507"><ele>763.6666666666666</ele><time>2026-05-03T09:33:47.999Z</time></trkpt><trkpt lat="44.78651124402367" lon="9.467229893549"><ele>763.5</ele><time>2026-05-03T09:33:50.999Z</time></trkpt><trkpt lat="44.786510818395904" lon="9.467141091069314"><ele>763.3333333333334</ele><time>2026-05-03T09:43:46Z</time></trkpt><trkpt lat="44.78650759096631" lon="9.467027471722906"><ele>763.1666666666667</ele><time>2026-05-03T09:43:49Z</time></trkpt><trkpt lat="44.78651209562887" lon="9.466905788116444"><ele>763.0</ele><time>2026-05-03T09:43:51Z</time></trkpt><trkpt lat="44.78650621815354" lon="9.466796460761282"><ele>762.2</ele><time>2026-05-03T09:43:53Z</time></trkpt><trkpt lat="44.786509901167214" lon="9.466657680585078"><ele>761.4</ele><time>2026-05-03T09:43:55Z</time></trkpt><trkpt lat="44.78649776539454" lon="9.466520225005068"><ele>760.6</ele><time>2026-05-03T09:43:56.999Z</time></trkpt><trkpt lat="44.786467872345334" lon="9.466368710903875"><ele>759.8000000000001</ele><time>2026-05-03T09:43:58.999Z</time></trkpt><trkpt lat="44.78645584919008" lon="9.466213441376384"><ele>759.0</ele><time>2026-05-03T09:44:00.999Z</time></trkpt><trkpt lat="44.78641166381899" lon="9.466066734838542"><ele>758.0</ele><time>2026-05-03T09:44:02.999Z</time></trkpt><trkpt lat="44.78636587094123" lon="9.465983402593041"><ele>757.0</ele><time>2026-05-03T09:44:03.999Z</time></trkpt><trkpt lat="44.78631533179862" lon="9.465900796923947"><ele>756.0</ele><time>2026-05-03T09:44:04.999Z</time></trkpt><trkpt lat="44.78626002376255" lon="9.46581420021474"><ele>755.0</ele><time>2026-05-03T09:44:05.999Z</time></trkpt><trkpt lat="44.78621555905382" lon="9.465737997813243"><ele>754.0</ele><time>2026-05-03T09:44:06.999Z</time></trkpt><trkpt lat="44.786237225899164" lon="9.46559776604792"><ele>753.0</ele><time>2026-05-03T09:44:08.999Z</time></trkpt><trkpt lat="44.78623635412351" lon="9.465484685389233"><ele>750.4</ele><time>2026-05-03T09:44:10.999Z</time></trkpt><trkpt lat="44.78620922267281" lon="9.46529610760925"><ele>747.8</ele><time>2026-05-03T09:44:12.999Z</time></trkpt><trkpt lat="44.786191595943215" lon="9.46517640695078"><ele>745.2</ele><time>2026-05-03T09:44:13.999Z</time></trkpt><trkpt lat="44.78616437222402" lon="9.465036866472374"><ele>742.6</ele><time>2026-05-03T09:44:14.999Z</time></trkpt><trkpt lat="44.78613198767625" lon="9.46489818586398"><ele>740.0</ele><time>2026-05-03T09:44:15.999Z</time></trkpt><trkpt lat="44.78609757700145" lon="9.464784834316028"><ele>740.0</ele><time>2026-05-03T09:44:16.999Z</time></trkpt><trkpt lat="44.78608385879645" lon="9.464682699268371"><ele>740.0</ele><time>2026-05-03T09:44:17.999Z</time></trkpt><trkpt lat="44.78604901990895" lon="9.464572050534555"><ele>740.0</ele><time>2026-05-03T09:44:19.999Z</time></trkpt><trkpt lat="44.78599371847069" lon="9.464515831051296"><ele>740.0</ele><time>2026-05-03T09:44:28.999Z</time></trkpt><trkpt lat="44.78588199666801" lon="9.464436802194781"><ele>740.0</ele><time>2026-05-03T09:44:30.999Z</time></trkpt><trkpt lat="44.785821679616724" lon="9.464380550160412"><ele>740.0</ele><time>2026-05-03T09:44:31.999Z</time></trkpt><trkpt lat="44.78573329053343" lon="9.464261859587769"><ele>743.8</ele><time>2026-05-03T09:44:33.999Z</time></trkpt><trkpt lat="44.78568791296085" lon="9.464176324008902"><ele>747.6</ele><time>2026-05-03T09:44:34.999Z</time></trkpt><trkpt lat="44.78562936785167" lon="9.464062392572544"><ele>751.4000000000001</ele><time>2026-05-03T09:44:35.999Z</time></trkpt><trkpt lat="44.78556029354166" lon="9.463952497269133"><ele>755.2</ele><time>2026-05-03T09:44:36.999Z</time></trkpt><trkpt lat="44.78550028642937" lon="9.463841403218009"><ele>759.0</ele><time>2026-05-03T09:44:37.999Z</time></trkpt><trkpt lat="44.785437295050436" lon="9.463744048661685"><ele>759.0</ele><time>2026-05-03T09:44:38.999Z</time></trkpt><trkpt lat="44.78539443709551" lon="9.463660676375131"><ele>759.0</ele><time>2026-05-03T09:44:39.999Z</time></trkpt><trkpt lat="44.78534852060813" lon="9.46356735027259"><ele>759.0</ele><time>2026-05-03T09:44:40.999Z</time></trkpt><trkpt lat="44.785291644676015" lon="9.463486012572735"><ele>759.0</ele><time>2026-05-03T09:44:41.999Z</time></trkpt><trkpt lat="44.785225276165974" lon="9.463419160958999"><ele>759.0</ele><time>2026-05-03T09:44:42.999Z</time></trkpt><trkpt lat="44.785167916577585" lon="9.463364243892448"><ele>759.0</ele><time>2026-05-03T09:44:43.999Z</time></trkpt><trkpt lat="44.785102487663565" lon="9.463344861413253"><ele>763.0</ele><time>2026-05-03T09:44:44.999Z</time></trkpt><trkpt lat="44.78501514915143" lon="9.463192490976922"><ele>767.0</ele><time>2026-05-03T09:44:46.999Z</time></trkpt><trkpt lat="44.78494880767694" lon="9.463115651435501"><ele>771.0</ele><time>2026-05-03T09:44:47.999Z</time></trkpt><trkpt lat="44.78487041846571" lon="9.463078747151316"><ele>775.0</ele><time>2026-05-03T09:44:49.998Z</time></trkpt><trkpt lat="44.78484458376688" lon="9.462967196085504"><ele>779.0</ele><time>2026-05-03T09:44:51.998Z</time></trkpt><trkpt lat="44.78483901481293" lon="9.462817997647763"><ele>779.0</ele><time>2026-05-03T09:44:53.998Z</time></trkpt><trkpt lat="44.784706478730996" lon="9.462632445457086"><ele>779.0</ele><time>2026-05-03T09:44:55.998Z</time></trkpt><trkpt lat="44.784691876086484" lon="9.462528742403899"><ele>779.0</ele><time>2026-05-03T09:44:56.998Z</time></trkpt><trkpt lat="44.784642992302146" lon="9.462426959492277"><ele>779.0</ele><time>2026-05-03T09:45:03.998Z</time></trkpt><trkpt lat="44.784609882979815" lon="9.46232755253288"><ele>779.0</ele><time>2026-05-03T09:45:06.998Z</time></trkpt><trkpt lat="44.78459505162656" lon="9.462236062268918"><ele>779.0000000000001</ele><time>2026-05-03T09:45:09.998Z</time></trkpt><trkpt lat="44.78458067491456" lon="9.462137001115087"><ele>779.0</ele><time>2026-05-03T09:45:11.998Z</time></trkpt><trkpt lat="44.78457092989282" lon="9.462046523536614"><ele>779.0</ele><time>2026-05-03T09:45:13.998Z</time></trkpt><trkpt lat="44.784529022947474" lon="9.461946751827655"><ele>779.0</ele><time>2026-05-03T09:45:14.998Z</time></trkpt><trkpt lat="44.784521881941195" lon="9.461825132338523"><ele>779.0000000000001</ele><time>2026-05-03T09:45:16.998Z</time></trkpt><trkpt lat="44.78449116436857" lon="9.461740191543939"><ele>779.0</ele><time>2026-05-03T09:45:17.998Z</time></trkpt><trkpt lat="44.78444535000584" lon="9.461652580778763"><ele>779.1666666666667</ele><time>2026-05-03T09:45:18.998Z</time></trkpt><trkpt lat="44.78437379312645" lon="9.461639378500303"><ele>779.3333333333334</ele><time>2026-05-03T09:45:19.998Z</time></trkpt><trkpt lat="44.78425035090288" lon="9.461562977419863"><ele>779.5</ele><time>2026-05-03T09:45:21.998Z</time></trkpt><trkpt lat="44.784195146634254" lon="9.461501270097417"><ele>779.6666666666667</ele><time>2026-05-03T09:45:22.998Z</time></trkpt><trkpt lat="44.784171995483796" lon="9.46137860451619"><ele>779.8333333333334</ele><time>2026-05-03T09:45:25Z</time></trkpt><trkpt lat="44.7841511772319" lon="9.461288405943574"><ele>780.0</ele><time>2026-05-03T09:45:26Z</time></trkpt><trkpt lat="44.78405414086395" lon="9.461221190928319"><ele>781.6666666666666</ele><time>2026-05-03T09:45:28Z</time></trkpt><trkpt lat="44.78397607950243" lon="9.461162861593648"><ele>783.3333333333333</ele><time>2026-05-03T09:45:30Z</time></trkpt><trkpt lat="44.78387391956098" lon="9.46116787163833"><ele>785.0</ele><time>2026-05-03T09:45:32Z</time></trkpt><trkpt lat="44.783816992756016" lon="9.461124589444452"><ele>786.6666666666666</ele><time>2026-05-03T09:45:34Z</time></trkpt><trkpt lat="44.78373768458911" lon="9.461029843347434"><ele>788.3333333333333</ele><time>2026-05-03T09:45:36Z</time></trkpt><trkpt lat="44.7836766334112" lon="9.460989050663324"><ele>790.0</ele><time>2026-05-03T09:45:37Z</time></trkpt><trkpt lat="44.78360235652394" lon="9.460886679701254"><ele>789.9999999999999</ele><time>2026-05-03T09:45:39Z</time></trkpt><trkpt lat="44.78355448078466" lon="9.460794289372723"><ele>790.0</ele><time>2026-05-03T09:45:41Z</time></trkpt><trkpt lat="44.78351228770098" lon="9.460678980641388"><ele>790.0</ele><time>2026-05-03T09:45:43Z</time></trkpt><trkpt lat="44.783475934670136" lon="9.460583747108144"><ele>790.0</ele><time>2026-05-03T09:45:45Z</time></trkpt><trkpt lat="44.78347862920543" lon="9.460491884282328"><ele>789.9999999999999</ele><time>2026-05-03T09:45:48Z</time></trkpt><trkpt lat="44.783456208303676" lon="9.460381263210168"><ele>790.0</ele><time>2026-05-03T09:45:50Z</time></trkpt><trkpt lat="44.78341220830492" lon="9.460313536826776"><ele>792.4999999999999</ele><time>2026-05-03T09:45:53Z</time></trkpt><trkpt lat="44.78339572555381" lon="9.46015580855764"><ele>795.0</ele><time>2026-05-03T09:45:55Z</time></trkpt><trkpt lat="44.78336393881451" lon="9.460033507222004"><ele>797.5</ele><time>2026-05-03T09:45:59Z</time></trkpt><trkpt lat="44.783312411623456" lon="9.459968666302355"><ele>800.0</ele><time>2026-05-03T09:46:03Z</time></trkpt><trkpt lat="44.78327833705699" lon="9.459846761676808"><ele>802.4999999999999</ele><time>2026-05-03T09:46:08.999Z</time></trkpt><trkpt lat="44.7832395644409" lon="9.45975736436897"><ele>805.0</ele><time>2026-05-03T09:46:11.999Z</time></trkpt><trkpt lat="44.78323714226403" lon="9.45966144223154"><ele>805.9999999999999</ele><time>2026-05-03T09:46:13.999Z</time></trkpt><trkpt lat="44.783191410180734" lon="9.459550939135772"><ele>807.0</ele><time>2026-05-03T09:46:18.999Z</time></trkpt><trkpt lat="44.78313477796621" lon="9.459436255516096"><ele>808.0</ele><time>2026-05-03T09:46:20.999Z</time></trkpt><trkpt lat="44.78310134622647" lon="9.459346758177334"><ele>809.0</ele><time>2026-05-03T09:46:23.999Z</time></trkpt><trkpt lat="44.78307722369176" lon="9.459251075576885"><ele>809.9999999999999</ele><time>2026-05-03T09:46:25.999Z</time></trkpt><trkpt lat="44.7830574740334" lon="9.459160780818802"><ele>811.0</ele><time>2026-05-03T09:46:27.999Z</time></trkpt><trkpt lat="44.78300327455072" lon="9.45893754126339"><ele>810.9999999999999</ele><time>2026-05-03T09:46:29.999Z</time></trkpt><trkpt lat="44.78296169930896" lon="9.458836711947683"><ele>811.0</ele><time>2026-05-03T09:46:30.999Z</time></trkpt><trkpt lat="44.782923272653356" lon="9.458746167530906"><ele>811.0</ele><time>2026-05-03T09:46:31.999Z</time></trkpt><trkpt lat="44.7828933146772" lon="9.458659367753103"><ele>811.0</ele><time>2026-05-03T09:46:32.999Z</time></trkpt><trkpt lat="44.782884805974774" lon="9.458518823211705"><ele>810.9999999999999</ele><time>2026-05-03T09:46:34.999Z</time></trkpt><trkpt lat="44.782862745852945" lon="9.458363568107714"><ele>811.0</ele><time>2026-05-03T09:46:36.999Z</time></trkpt><trkpt lat="44.78283039153628" lon="9.458272204160979"><ele>811.8</ele><time>2026-05-03T09:46:37.999Z</time></trkpt><trkpt lat="44.7827835875447" lon="9.458155609570992"><ele>812.5999999999999</ele><time>2026-05-03T09:46:38.999Z</time></trkpt><trkpt lat="44.78274807404423" lon="9.458073995498953"><ele>813.4</ele><time>2026-05-03T09:46:39.999Z</time></trkpt><trkpt lat="44.78269975646407" lon="9.457946202881788"><ele>814.2</ele><time>2026-05-03T09:46:41.999Z</time></trkpt><trkpt lat="44.7827614135566" lon="9.457842504733604"><ele>815.0</ele><time>2026-05-03T09:46:44.999Z</time></trkpt><trkpt lat="44.782871978735486" lon="9.457806549243571"><ele>816.6</ele><time>2026-05-03T09:46:46.999Z</time></trkpt><trkpt lat="44.7829864225008" lon="9.457791113495627"><ele>818.2</ele><time>2026-05-03T09:46:48.999Z</time></trkpt><trkpt lat="44.783105590987304" lon="9.457833932345574"><ele>819.8</ele><time>2026-05-03T09:46:50.999Z</time></trkpt><trkpt lat="44.783178220039694" lon="9.457796601750994"><ele>821.4</ele><time>2026-05-03T09:46:52.999Z</time></trkpt><trkpt lat="44.783266182687925" lon="9.457714113345457"><ele>823.0</ele><time>2026-05-03T09:46:54.999Z</time></trkpt><trkpt lat="44.78331136378911" lon="9.457629437205108"><ele>822.9999999999999</ele><time>2026-05-03T09:46:56.999Z</time></trkpt><trkpt lat="44.78331405815359" lon="9.457520852554872"><ele>823.0</ele><time>2026-05-03T09:46:57.999Z</time></trkpt><trkpt lat="44.78332705472618" lon="9.457421585057192"><ele>823.0</ele><time>2026-05-03T09:46:58.999Z</time></trkpt><trkpt lat="44.783365911924804" lon="9.457348678719734"><ele>823.0</ele><time>2026-05-03T09:46:59.998Z</time></trkpt><trkpt lat="44.78342434920974" lon="9.457253604821737"><ele>822.9999999999999</ele><time>2026-05-03T09:47:01.998Z</time></trkpt><trkpt lat="44.7834313752102" lon="9.457141902419988"><ele>823.0</ele><time>2026-05-03T09:47:50Z</time></trkpt><trkpt lat="44.783389389146464" lon="9.457056648689983"><ele>823.0</ele><time>2026-05-03T09:47:53Z</time></trkpt><trkpt lat="44.78333328931188" lon="9.456985573466627"><ele>823.0</ele><time>2026-05-03T09:48:11.999Z</time></trkpt><trkpt lat="44.783270332121326" lon="9.456968158064532"><ele>823.0</ele><time>2026-05-03T09:48:13.999Z</time></trkpt><trkpt lat="44.78322191860522" lon="9.457085372526869"><ele>823.0</ele><time>2026-05-03T09:48:19.999Z</time></trkpt><trkpt lat="44.78309196407559" lon="9.457116904629325"><ele>823.0</ele><time>2026-05-03T09:48:22.999Z</time></trkpt><trkpt lat="44.782986776429816" lon="9.457134447776689"><ele>823.0</ele><time>2026-05-03T09:48:24.999Z</time></trkpt><trkpt lat="44.782797982829564" lon="9.457154855479194"><ele>823.0</ele><time>2026-05-03T09:48:27.999Z</time></trkpt><trkpt lat="44.78273079882505" lon="9.45715978137501"><ele>823.0</ele><time>2026-05-03T09:48:28.999Z</time></trkpt><trkpt lat="44.78266364653025" lon="9.457158977136972"><ele>823.0</ele><time>2026-05-03T09:48:29.999Z</time></trkpt><trkpt lat="44.7825667477694" lon="9.457158086364043"><ele>823.0</ele><time>2026-05-03T09:48:31.999Z</time></trkpt><trkpt lat="44.7824684411537" lon="9.45709078595637"><ele>826.4999999999999</ele><time>2026-05-03T09:48:33.999Z</time></trkpt><trkpt lat="44.78236899338539" lon="9.457039207399918"><ele>830.0</ele><time>2026-05-03T09:48:35.999Z</time></trkpt><trkpt lat="44.78232350784098" lon="9.456962633341842"><ele>833.5</ele><time>2026-05-03T09:48:37.999Z</time></trkpt><trkpt lat="44.78227508617425" lon="9.45686165749929"><ele>837.0</ele><time>2026-05-03T09:49:18.998Z</time></trkpt><trkpt lat="44.78225054520059" lon="9.456747198490277"><ele>840.4999999999999</ele><time>2026-05-03T09:49:22.998Z</time></trkpt><trkpt lat="44.782208296278846" lon="9.456676510840884"><ele>844.0</ele><time>2026-05-03T09:49:24.998Z</time></trkpt><trkpt lat="44.782173097248474" lon="9.456567730062906"><ele>843.9999999999999</ele><time>2026-05-03T09:49:27.998Z</time></trkpt><trkpt lat="44.78212039756574" lon="9.456458484334348"><ele>844.0</ele><time>2026-05-03T09:49:29.998Z</time></trkpt><trkpt lat="44.78206546949984" lon="9.456376389876207"><ele>844.0</ele><time>2026-05-03T09:49:31.998Z</time></trkpt><trkpt lat="44.782053465383534" lon="9.456267973383424"><ele>844.0</ele><time>2026-05-03T09:49:33.998Z</time></trkpt><trkpt lat="44.782043776601995" lon="9.456170304662715"><ele>843.9999999999999</ele><time>2026-05-03T09:49:36Z</time></trkpt><trkpt lat="44.78212847884984" lon="9.456166284814596"><ele>844.0</ele><time>2026-05-03T09:49:48Z</time></trkpt><trkpt lat="44.782249805665785" lon="9.45626786272807"><ele>843.9999999999999</ele><time>2026-05-03T09:50:42.999Z</time></trkpt><trkpt lat="44.78232563479408" lon="9.456326079474817"><ele>844.0</ele><time>2026-05-03T09:50:43.999Z</time></trkpt><trkpt lat="44.78239484602951" lon="9.45636307954305"><ele>844.0</ele><time>2026-05-03T09:50:44.999Z</time></trkpt><trkpt lat="44.7824906949775" lon="9.456415316154699"><ele>844.0</ele><time>2026-05-03T09:50:46.999Z</time></trkpt><trkpt lat="44.78255416223976" lon="9.456467185760198"><ele>843.9999999999999</ele><time>2026-05-03T09:50:48.999Z</time></trkpt><trkpt lat="44.782655629443845" lon="9.456435065243673"><ele>844.0</ele><time>2026-05-03T09:50:50.999Z</time></trkpt><trkpt lat="44.78272811813883" lon="9.456432658068024"><ele>843.0</ele><time>2026-05-03T09:50:52.999Z</time></trkpt><trkpt lat="44.782795839353156" lon="9.456453463734814"><ele>842.0</ele><time>2026-05-03T09:50:54.999Z</time></trkpt><trkpt lat="44.782904457294705" lon="9.456477752531692"><ele>841.0</ele><time>2026-05-03T09:50:56.999Z</time></trkpt><trkpt lat="44.78301271231639" lon="9.456477383598626"><ele>840.0</ele><time>2026-05-03T09:50:58.999Z</time></trkpt><trkpt lat="44.78312570660218" lon="9.456477564770198"><ele>839.0</ele><time>2026-05-03T09:51:00.999Z</time></trkpt><trkpt lat="44.783190087483156" lon="9.456490078466075"><ele>839.0</ele><time>2026-05-03T09:51:01.999Z</time></trkpt><trkpt lat="44.78330668206848" lon="9.456469070401193"><ele>839.0</ele><time>2026-05-03T09:51:03.999Z</time></trkpt><trkpt lat="44.78341787206155" lon="9.456404000757372"><ele>839.0</ele><time>2026-05-03T09:51:05.999Z</time></trkpt><trkpt lat="44.78350819847228" lon="9.456316101470136"><ele>839.0</ele><time>2026-05-03T09:51:07.999Z</time></trkpt><trkpt lat="44.783568613095916" lon="9.456273422982564"><ele>839.0</ele><time>2026-05-03T09:51:08.999Z</time></trkpt><trkpt lat="44.78362930442955" lon="9.456238639424612"><ele>840.8333333333334</ele><time>2026-05-03T09:51:09.999Z</time></trkpt><trkpt lat="44.78369479004724" lon="9.456186373395285"><ele>842.6666666666667</ele><time>2026-05-03T09:51:11.998Z</time></trkpt><trkpt lat="44.783769936304495" lon="9.456179038328829"><ele>844.5</ele><time>2026-05-03T09:51:16.998Z</time></trkpt><trkpt lat="44.78382034781228" lon="9.456104033787476"><ele>846.3333333333333</ele><time>2026-05-03T09:51:27.998Z</time></trkpt><trkpt lat="44.78389320934811" lon="9.456054779170284"><ele>848.1666666666666</ele><time>2026-05-03T09:51:29.998Z</time></trkpt><trkpt lat="44.78400155163636" lon="9.456049102337616"><ele>850.0</ele><time>2026-05-03T09:51:31.998Z</time></trkpt><trkpt lat="44.7841036952553" lon="9.456101238117048"><ele>850.0</ele><time>2026-05-03T09:51:33.998Z</time></trkpt><trkpt lat="44.78414856445251" lon="9.45616686993808"><ele>850.0</ele><time>2026-05-03T09:51:34.998Z</time></trkpt><trkpt lat="44.78425604830277" lon="9.45623610423303"><ele>850.0</ele><time>2026-05-03T09:51:36.998Z</time></trkpt><trkpt lat="44.78432503531147" lon="9.456263354734377"><ele>850.0</ele><time>2026-05-03T09:51:37.998Z</time></trkpt><trkpt lat="44.7844036459619" lon="9.456352823332434"><ele>850.0</ele><time>2026-05-03T09:51:39.998Z</time></trkpt><trkpt lat="44.78450566395068" lon="9.45640109704704"><ele>850.1666666666666</ele><time>2026-05-03T09:51:42Z</time></trkpt><trkpt lat="44.78458611271049" lon="9.456418206755757"><ele>850.3333333333333</ele><time>2026-05-03T09:51:43Z</time></trkpt><trkpt lat="44.784662044293796" lon="9.456437504118282"><ele>850.5</ele><time>2026-05-03T09:51:44Z</time></trkpt><trkpt lat="44.78474538896306" lon="9.456472991211266"><ele>850.6666666666667</ele><time>2026-05-03T09:51:45Z</time></trkpt><trkpt lat="44.78481897525438" lon="9.45650905166692"><ele>850.8333333333334</ele><time>2026-05-03T09:51:46Z</time></trkpt><trkpt lat="44.784915403989764" lon="9.456593599472226"><ele>851.0</ele><time>2026-05-03T09:51:48Z</time></trkpt><trkpt lat="44.78496898549302" lon="9.456643338459925"><ele>851.0000000000001</ele><time>2026-05-03T09:51:49Z</time></trkpt><trkpt lat="44.78503953974948" lon="9.456702000810651"><ele>851.0</ele><time>2026-05-03T09:51:50Z</time></trkpt><trkpt lat="44.78511547723205" lon="9.456741469120733"><ele>851.0</ele><time>2026-05-03T09:51:51Z</time></trkpt><trkpt lat="44.7852135747497" lon="9.456797064037103"><ele>851.0</ele><time>2026-05-03T09:52:01Z</time></trkpt><trkpt lat="44.78528763143354" lon="9.45684925416022"><ele>851.0000000000001</ele><time>2026-05-03T09:52:03Z</time></trkpt><trkpt lat="44.78534317946472" lon="9.4568929410891"><ele>851.0</ele><time>2026-05-03T09:52:04Z</time></trkpt><trkpt lat="44.78541175039637" lon="9.456929971819106"><ele>851.1999999999999</ele><time>2026-05-03T09:52:05Z</time></trkpt><trkpt lat="44.78555318686821" lon="9.457016629412998"><ele>851.4</ele><time>2026-05-03T09:52:07Z</time></trkpt><trkpt lat="44.78561941172952" lon="9.457070008093332"><ele>851.6</ele><time>2026-05-03T09:52:08Z</time></trkpt><trkpt lat="44.78573803556481" lon="9.457164445427281"><ele>851.8</ele><time>2026-05-03T09:52:10Z</time></trkpt><trkpt lat="44.785811323214666" lon="9.457208621890453"><ele>852.0</ele><time>2026-05-03T09:52:11Z</time></trkpt><trkpt lat="44.785868672984996" lon="9.45726479114389"><ele>852.0</ele><time>2026-05-03T09:52:12Z</time></trkpt><trkpt lat="44.78591158140191" lon="9.457344335351024"><ele>852.0</ele><time>2026-05-03T09:52:15Z</time></trkpt><trkpt lat="44.785973844168545" lon="9.457400155969399"><ele>852.0</ele><time>2026-05-03T09:52:18Z</time></trkpt><trkpt lat="44.78601454543077" lon="9.457471723615546"><ele>852.0</ele><time>2026-05-03T09:52:22.999Z</time></trkpt><trkpt lat="44.78608811039695" lon="9.457548709851277"><ele>852.0</ele><time>2026-05-03T09:52:24.999Z</time></trkpt><trkpt lat="44.78615818706596" lon="9.457620322795973"><ele>852.0</ele><time>2026-05-03T09:52:25.999Z</time></trkpt><trkpt lat="44.786227221781886" lon="9.457675872128837"><ele>853.8</ele><time>2026-05-03T09:52:26.999Z</time></trkpt><trkpt lat="44.786296217051515" lon="9.457714572974655"><ele>855.6</ele><time>2026-05-03T09:52:27.999Z</time></trkpt><trkpt lat="44.78638200869081" lon="9.45775546904861"><ele>857.3999999999999</ele><time>2026-05-03T09:52:28.999Z</time></trkpt><trkpt lat="44.786501042144266" lon="9.457795721517458"><ele>859.1999999999999</ele><time>2026-05-03T09:52:29.999Z</time></trkpt><trkpt lat="44.786610264738" lon="9.457815353648346"><ele>861.0</ele><time>2026-05-03T09:52:30.999Z</time></trkpt><trkpt lat="44.78671318743092" lon="9.457828242652528"><ele>861.0</ele><time>2026-05-03T09:52:31.999Z</time></trkpt><trkpt lat="44.78678954970101" lon="9.457852007819552"><ele>861.0</ele><time>2026-05-03T09:52:32.999Z</time></trkpt><trkpt lat="44.78684929911509" lon="9.457898036355916"><ele>861.0</ele><time>2026-05-03T09:52:33.999Z</time></trkpt><trkpt lat="44.78694091184714" lon="9.45794846235746"><ele>861.0</ele><time>2026-05-03T09:52:35.999Z</time></trkpt><trkpt lat="44.78701885506875" lon="9.457981547112775"><ele>861.0</ele><time>2026-05-03T09:52:37.999Z</time></trkpt><trkpt lat="44.787090473385" lon="9.457988391347758"><ele>861.0</ele><time>2026-05-03T09:52:38.999Z</time></trkpt><trkpt lat="44.78716777183535" lon="9.458008049053955"><ele>860.8</ele><time>2026-05-03T09:52:39.999Z</time></trkpt><trkpt lat="44.787233903134094" lon="9.45799110029438"><ele>860.5999999999999</ele><time>2026-05-03T09:52:40.999Z</time></trkpt><trkpt lat="44.78729458717546" lon="9.45795178349945"><ele>860.4</ele><time>2026-05-03T09:52:41.999Z</time></trkpt><trkpt lat="44.78741467228105" lon="9.45791982140318"><ele>860.2</ele><time>2026-05-03T09:52:43.999Z</time></trkpt><trkpt lat="44.78751140577451" lon="9.45784125396579"><ele>860.0</ele><time>2026-05-03T09:52:45.999Z</time></trkpt><trkpt lat="44.78755432006584" lon="9.457730390211038"><ele>860.0</ele><time>2026-05-03T09:52:47.999Z</time></trkpt><trkpt lat="44.78761464391945" lon="9.45769827469506"><ele>860.0</ele><time>2026-05-03T09:52:49.999Z</time></trkpt><trkpt lat="44.7876830573565" lon="9.457724058757947"><ele>860.0</ele><time>2026-05-03T09:52:51.999Z</time></trkpt><trkpt lat="44.78775055724474" lon="9.457768870958855"><ele>860.0</ele><time>2026-05-03T09:52:53.999Z</time></trkpt><trkpt lat="44.78781391554091" lon="9.457800304644664"><ele>860.0</ele><time>2026-05-03T09:52:55.999Z</time></trkpt><trkpt lat="44.78787275503739" lon="9.457848701452955"><ele>860.0</ele><time>2026-05-03T09:52:57.999Z</time></trkpt><trkpt lat="44.78794689528301" lon="9.45789164218898"><ele>860.0</ele><time>2026-05-03T09:53:00.999Z</time></trkpt><trkpt lat="44.788045652029815" lon="9.457933304607351"><ele>855.1428571428571</ele><time>2026-05-03T09:53:03.999Z</time></trkpt><trkpt lat="44.788098523614174" lon="9.457987687082682"><ele>850.2857142857143</ele><time>2026-05-03T09:53:05.999Z</time></trkpt><trkpt lat="44.78813513821032" lon="9.45806567459814"><ele>845.4285714285714</ele><time>2026-05-03T09:53:07.999Z</time></trkpt><trkpt lat="44.788206912091795" lon="9.458063242579588"><ele>840.5714285714286</ele><time>2026-05-03T09:53:09.999Z</time></trkpt><trkpt lat="44.78828011701385" lon="9.4580555415309"><ele>835.7142857142858</ele><time>2026-05-03T09:53:10.999Z</time></trkpt><trkpt lat="44.78836424570438" lon="9.458059445725288"><ele>830.8571428571429</ele><time>2026-05-03T09:53:11.999Z</time></trkpt><trkpt lat="44.78842826066406" lon="9.45809344673337"><ele>826.0</ele><time>2026-05-03T09:53:12.998Z</time></trkpt><trkpt lat="44.78849373565448" lon="9.458076828419784"><ele>816.8</ele><time>2026-05-03T09:53:14.998Z</time></trkpt><trkpt lat="44.78853944600126" lon="9.45794891049452"><ele>807.5999999999999</ele><time>2026-05-03T09:53:16.998Z</time></trkpt><trkpt lat="44.78855569527925" lon="9.457814405423909"><ele>798.4</ele><time>2026-05-03T09:53:18.998Z</time></trkpt><trkpt lat="44.7885387835288" lon="9.457655441690333"><ele>789.2</ele><time>2026-05-03T09:53:20.998Z</time></trkpt><trkpt lat="44.78854295116166" lon="9.45750966059637"><ele>780.0</ele><time>2026-05-03T09:53:22.998Z</time></trkpt><trkpt lat="44.78852825870049" lon="9.457343290246543"><ele>780.0</ele><time>2026-05-03T09:53:24.998Z</time></trkpt><trkpt lat="44.788536598251234" lon="9.457184798948273"><ele>780.0</ele><time>2026-05-03T09:53:26.998Z</time></trkpt><trkpt lat="44.788598559118036" lon="9.457059122297387"><ele>780.0</ele><time>2026-05-03T09:53:28.998Z</time></trkpt><trkpt lat="44.78863413104141" lon="9.456985769912002"><ele>780.0</ele><time>2026-05-03T09:53:30.998Z</time></trkpt><trkpt lat="44.78867991021639" lon="9.456903687799684"><ele>780.0</ele><time>2026-05-03T09:53:34.998Z</time></trkpt><trkpt lat="44.788714068419885" lon="9.456817156418875"><ele>780.0</ele><time>2026-05-03T09:53:37.998Z</time></trkpt><trkpt lat="44.78871930955322" lon="9.456712913935066"><ele>780.2</ele><time>2026-05-03T09:53:39.998Z</time></trkpt><trkpt lat="44.78874390598246" lon="9.456618434131395"><ele>780.4</ele><time>2026-05-03T09:53:42.998Z</time></trkpt><trkpt lat="44.78881022361575" lon="9.456498555849121"><ele>780.5999999999999</ele><time>2026-05-03T09:53:45.998Z</time></trkpt><trkpt lat="44.78884660662642" lon="9.456377145311738"><ele>780.8</ele><time>2026-05-03T09:53:48Z</time></trkpt><trkpt lat="44.788897309866044" lon="9.456251395634466"><ele>781.0</ele><time>2026-05-03T09:53:50Z</time></trkpt><trkpt lat="44.78893858346845" lon="9.45611237746333"><ele>780.9999999999999</ele><time>2026-05-03T09:53:52Z</time></trkpt><trkpt lat="44.78899480421549" lon="9.455996920844205"><ele>781.0</ele><time>2026-05-03T09:53:54Z</time></trkpt><trkpt lat="44.78903471695582" lon="9.455893368787052"><ele>781.0</ele><time>2026-05-03T09:53:56Z</time></trkpt><trkpt lat="44.789092123107224" lon="9.455777670915436"><ele>781.0</ele><time>2026-05-03T09:53:58Z</time></trkpt><trkpt lat="44.78911639738381" lon="9.455659865556356"><ele>780.9999999999999</ele><time>2026-05-03T09:54:00Z</time></trkpt><trkpt lat="44.789112945366234" lon="9.455570764185715"><ele>781.0</ele><time>2026-05-03T09:54:03Z</time></trkpt><trkpt lat="44.78910812118038" lon="9.455477897594097"><ele>779.8</ele><time>2026-05-03T09:54:05Z</time></trkpt><trkpt lat="44.78908602780015" lon="9.455360583794466"><ele>778.5999999999999</ele><time>2026-05-03T09:54:07Z</time></trkpt><trkpt lat="44.78906117490383" lon="9.455236588809928"><ele>777.4</ele><time>2026-05-03T09:54:09Z</time></trkpt><trkpt lat="44.78907438597511" lon="9.455097526735356"><ele>776.2</ele><time>2026-05-03T09:54:11Z</time></trkpt><trkpt lat="44.78910653749715" lon="9.45495734398449"><ele>775.0</ele><time>2026-05-03T09:54:13Z</time></trkpt><trkpt lat="44.789130612994626" lon="9.454820809017844"><ele>774.9999999999999</ele><time>2026-05-03T09:54:15Z</time></trkpt><trkpt lat="44.789134448355846" lon="9.454697576718914"><ele>775.0</ele><time>2026-05-03T09:54:17Z</time></trkpt><trkpt lat="44.789115391723854" lon="9.454588442230117"><ele>775.0</ele><time>2026-05-03T09:54:19Z</time></trkpt><trkpt lat="44.78909772289113" lon="9.45448697252825"><ele>775.0</ele><time>2026-05-03T09:54:21Z</time></trkpt><trkpt lat="44.78914617120862" lon="9.45439636690323"><ele>774.9999999999999</ele><time>2026-05-03T09:54:23Z</time></trkpt><trkpt lat="44.78917664599575" lon="9.454263493312517"><ele>775.0</ele><time>2026-05-03T09:54:26Z</time></trkpt><trkpt lat="44.789184023293465" lon="9.454120056522125"><ele>773.3333333333333</ele><time>2026-05-03T09:54:27.999Z</time></trkpt><trkpt lat="44.789226408796736" lon="9.454002238605312"><ele>771.6666666666666</ele><time>2026-05-03T09:54:29.999Z</time></trkpt><trkpt lat="44.789271850755625" lon="9.453901454889312"><ele>770.0</ele><time>2026-05-03T09:54:31.999Z</time></trkpt><trkpt lat="44.789304242399126" lon="9.453775902366296"><ele>768.3333333333333</ele><time>2026-05-03T09:54:33.999Z</time></trkpt><trkpt lat="44.7893602205546" lon="9.453689864814589"><ele>766.6666666666666</ele><time>2026-05-03T09:54:35.999Z</time></trkpt><trkpt lat="44.78940962254395" lon="9.453634092952264"><ele>765.0</ele><time>2026-05-03T09:54:37.999Z</time></trkpt><trkpt lat="44.789517937019376" lon="9.453617248114632"><ele>761.1666666666666</ele><time>2026-05-03T09:54:39.999Z</time></trkpt><trkpt lat="44.78958518214782" lon="9.453610242810063"><ele>757.3333333333334</ele><time>2026-05-03T09:54:40.999Z</time></trkpt><trkpt lat="44.78963990878713" lon="9.45348481829758"><ele>753.5</ele><time>2026-05-03T09:54:42.999Z</time></trkpt><trkpt lat="44.789642493713636" lon="9.453395887336244"><ele>749.6666666666667</ele><time>2026-05-03T09:54:43.999Z</time></trkpt><trkpt lat="44.78965569139178" lon="9.453235726969577"><ele>745.8333333333334</ele><time>2026-05-03T09:54:45.999Z</time></trkpt><trkpt lat="44.789698881974" lon="9.453170721792757"><ele>742.0</ele><time>2026-05-03T09:54:46.999Z</time></trkpt><trkpt lat="44.789765067167195" lon="9.453052719242429"><ele>741.0</ele><time>2026-05-03T09:54:48.999Z</time></trkpt><trkpt lat="44.789776641797026" lon="9.4529221015433"><ele>740.0</ele><time>2026-05-03T09:54:50.999Z</time></trkpt><trkpt lat="44.78984949203786" lon="9.452846695257609"><ele>739.0</ele><time>2026-05-03T09:54:52.999Z</time></trkpt><trkpt lat="44.78988842505057" lon="9.452756293321746"><ele>738.0</ele><time>2026-05-03T09:54:53.999Z</time></trkpt><trkpt lat="44.78992290760498" lon="9.452677629222034"><ele>737.0</ele><time>2026-05-03T09:54:54.999Z</time></trkpt><trkpt lat="44.78997124267491" lon="9.452543226507046"><ele>736.0</ele><time>2026-05-03T09:54:56.999Z</time></trkpt><trkpt lat="44.789990787310906" lon="9.452456660257264"><ele>736.0</ele><time>2026-05-03T09:54:57.999Z</time></trkpt><trkpt lat="44.79007531903791" lon="9.452336185590106"><ele>736.0</ele><time>2026-05-03T09:54:59.999Z</time></trkpt><trkpt lat="44.79017606719524" lon="9.452250211552371"><ele>736.0</ele><time>2026-05-03T09:55:01.999Z</time></trkpt><trkpt lat="44.79024974203643" lon="9.452121423641856"><ele>736.0</ele><time>2026-05-03T09:55:03.999Z</time></trkpt><trkpt lat="44.79033424134001" lon="9.452004450061606"><ele>734.7142857142858</ele><time>2026-05-03T09:55:05.999Z</time></trkpt><trkpt lat="44.79036247253884" lon="9.451920663825527"><ele>733.4285714285713</ele><time>2026-05-03T09:55:07.999Z</time></trkpt><trkpt lat="44.79041046875159" lon="9.451847030618426"><ele>732.1428571428571</ele><time>2026-05-03T09:56:13Z</time></trkpt><trkpt lat="44.7903897054515" lon="9.451740143739123"><ele>730.8571428571429</ele><time>2026-05-03T09:56:21Z</time></trkpt><trkpt lat="44.79036251901079" lon="9.45164976815627"><ele>729.5714285714287</ele><time>2026-05-03T09:56:30Z</time></trkpt><trkpt lat="44.79027991523861" lon="9.451623515573669"><ele>728.2857142857142</ele><time>2026-05-03T09:57:04.999Z</time></trkpt><trkpt lat="44.79021281384946" lon="9.451591540282738"><ele>727.0</ele><time>2026-05-03T09:57:12.999Z</time></trkpt><trkpt lat="44.79014160054769" lon="9.451558519043385"><ele>726.5714285714286</ele><time>2026-05-03T09:57:21.999Z</time></trkpt><trkpt lat="44.790081613421115" lon="9.451489140509306"><ele>726.1428571428572</ele><time>2026-05-03T09:57:29.998Z</time></trkpt><trkpt lat="44.79005439020628" lon="9.451406904442738"><ele>725.7142857142858</ele><time>2026-05-03T09:57:42.998Z</time></trkpt><trkpt lat="44.79000744283441" lon="9.45133746824977"><ele>725.2857142857142</ele><time>2026-05-03T09:58:10Z</time></trkpt><trkpt lat="44.78994802907889" lon="9.451278487729816"><ele>724.8571428571429</ele><time>2026-05-03T09:58:13Z</time></trkpt><trkpt lat="44.78986216484311" lon="9.451293113065372"><ele>724.4285714285714</ele><time>2026-05-03T09:58:17Z</time></trkpt><trkpt lat="44.78979888424887" lon="9.451259391421921"><ele>724.0</ele><time>2026-05-03T09:58:20Z</time></trkpt><trkpt lat="44.789711842753306" lon="9.451240411257466"><ele>721.8571428571429</ele><time>2026-05-03T09:58:25Z</time></trkpt><trkpt lat="44.789640060536016" lon="9.451242975115886"><ele>719.7142857142857</ele><time>2026-05-03T09:58:30Z</time></trkpt><trkpt lat="44.78958625603895" lon="9.451188673469467"><ele>717.5714285714287</ele><time>2026-05-03T09:58:34Z</time></trkpt><trkpt lat="44.789505586815075" lon="9.451182581988514"><ele>715.4285714285714</ele><time>2026-05-03T09:58:38Z</time></trkpt><trkpt lat="44.78943970357532" lon="9.451225877634064"><ele>713.2857142857143</ele><time>2026-05-03T09:58:40.999Z</time></trkpt><trkpt lat="44.78936066754354" lon="9.45123228998578"><ele>711.1428571428572</ele><time>2026-05-03T09:58:43.999Z</time></trkpt><trkpt lat="44.78928682817245" lon="9.451203164689204"><ele>709.0</ele><time>2026-05-03T09:58:46.999Z</time></trkpt><trkpt lat="44.78923280732218" lon="9.451101446704646"><ele>706.4285714285714</ele><time>2026-05-03T09:58:49.999Z</time></trkpt><trkpt lat="44.78919903604058" lon="9.45100534774393"><ele>703.8571428571429</ele><time>2026-05-03T09:58:52.999Z</time></trkpt><trkpt lat="44.78915143507231" lon="9.450944303084725"><ele>701.2857142857142</ele><time>2026-05-03T09:58:54.999Z</time></trkpt><trkpt lat="44.78910361062438" lon="9.4508615887493"><ele>698.7142857142858</ele><time>2026-05-03T09:58:57.999Z</time></trkpt><trkpt lat="44.78905660527488" lon="9.450785981062925"><ele>696.1428571428571</ele><time>2026-05-03T09:58:59.999Z</time></trkpt><trkpt lat="44.7890124277776" lon="9.450688837966444"><ele>693.5714285714286</ele><time>2026-05-03T09:59:02.999Z</time></trkpt><trkpt lat="44.78896826725244" lon="9.450606100137037"><ele>691.0</ele><time>2026-05-03T09:59:04.999Z</time></trkpt><trkpt lat="44.78891869056515" lon="9.450540908229822"><ele>690.9999999999999</ele><time>2026-05-03T09:59:12.999Z</time></trkpt><trkpt lat="44.78886492939171" lon="9.450489704875137"><ele>691.0</ele><time>2026-05-03T09:59:20.999Z</time></trkpt><trkpt lat="44.788814208559245" lon="9.45042590567491"><ele>691.0</ele><time>2026-05-03T10:00:08Z</time></trkpt><trkpt lat="44.788873908463486" lon="9.450355446792367"><ele>691.0</ele><time>2026-05-03T10:03:16.999Z</time></trkpt><trkpt lat="44.78881181896304" lon="9.450409909758768"><ele>691.0</ele><time>2026-05-03T10:03:38.999Z</time></trkpt><trkpt lat="44.78874458768009" lon="9.450374401838557"><ele>690.9999999999999</ele><time>2026-05-03T10:04:39Z</time></trkpt><trkpt lat="44.7886787620944" lon="9.450393453257583"><ele>691.0</ele><time>2026-05-03T10:04:42Z</time></trkpt><trkpt lat="44.78861546678401" lon="9.45036907248572"><ele>689.3333333333334</ele><time>2026-05-03T10:04:44Z</time></trkpt><trkpt lat="44.788555598442215" lon="9.450326307981284"><ele>687.6666666666667</ele><time>2026-05-03T10:04:46Z</time></trkpt><trkpt lat="44.78849515391191" lon="9.450265593907657"><ele>686.0</ele><time>2026-05-03T10:04:48Z</time></trkpt><trkpt lat="44.78842886173186" lon="9.450307992340392"><ele>684.3333333333334</ele><time>2026-05-03T10:04:50Z</time></trkpt><trkpt lat="44.78836031451555" lon="9.450244234547474"><ele>682.6666666666666</ele><time>2026-05-03T10:04:52Z</time></trkpt><trkpt lat="44.78827840965941" lon="9.450184024213963"><ele>681.0</ele><time>2026-05-03T10:04:54Z</time></trkpt><trkpt lat="44.78821511379404" lon="9.450067869256333"><ele>680.6666666666666</ele><time>2026-05-03T10:04:56Z</time></trkpt><trkpt lat="44.78816930264829" lon="9.449987665015705"><ele>680.3333333333334</ele><time>2026-05-03T10:04:58Z</time></trkpt><trkpt lat="44.788098875218054" lon="9.449967124239041"><ele>680.0</ele><time>2026-05-03T10:05:00.999Z</time></trkpt><trkpt lat="44.78802418741501" lon="9.449907713423926"><ele>679.6666666666667</ele><time>2026-05-03T10:05:02.999Z</time></trkpt><trkpt lat="44.78795422709263" lon="9.449841344085758"><ele>679.3333333333334</ele><time>2026-05-03T10:05:03.999Z</time></trkpt><trkpt lat="44.7878874843936" lon="9.449766782031162"><ele>679.0</ele><time>2026-05-03T10:05:05.999Z</time></trkpt><trkpt lat="44.78782162079849" lon="9.449705532119516"><ele>677.0</ele><time>2026-05-03T10:05:07.999Z</time></trkpt><trkpt lat="44.78775242357138" lon="9.449584519374822"><ele>675.0</ele><time>2026-05-03T10:05:09.999Z</time></trkpt><trkpt lat="44.78769569177657" lon="9.44947855952291"><ele>673.0</ele><time>2026-05-03T10:05:10.999Z</time></trkpt><trkpt lat="44.787662661462505" lon="9.449397946394903"><ele>671.0</ele><time>2026-05-03T10:05:11.999Z</time></trkpt><trkpt lat="44.787572912592616" lon="9.449318493580884"><ele>669.0</ele><time>2026-05-03T10:05:13.999Z</time></trkpt><trkpt lat="44.78756961541812" lon="9.44922887915651"><ele>667.0</ele><time>2026-05-03T10:05:14.999Z</time></trkpt><trkpt lat="44.787513280270396" lon="9.449162084698367"><ele>667.0</ele><time>2026-05-03T10:05:15.999Z</time></trkpt><trkpt lat="44.78747142737751" lon="9.44897976007074"><ele>667.0</ele><time>2026-05-03T10:05:17.999Z</time></trkpt><trkpt lat="44.78749361552506" lon="9.448892362848264"><ele>667.0</ele><time>2026-05-03T10:05:18.999Z</time></trkpt><trkpt lat="44.787466311283644" lon="9.448808774354925"><ele>667.0</ele><time>2026-05-03T10:05:19.999Z</time></trkpt><trkpt lat="44.78739377950985" lon="9.448785133911796"><ele>667.0</ele><time>2026-05-03T10:05:20.999Z</time></trkpt><trkpt lat="44.7873169954621" lon="9.448667719796033"><ele>666.6666666666667</ele><time>2026-05-03T10:05:22.999Z</time></trkpt><trkpt lat="44.78725569517929" lon="9.448523983589338"><ele>666.3333333333334</ele><time>2026-05-03T10:05:24.999Z</time></trkpt><trkpt lat="44.78719888965726" lon="9.448485060199516"><ele>666.0</ele><time>2026-05-03T10:05:25.999Z</time></trkpt><trkpt lat="44.78713393679713" lon="9.448452672490253"><ele>665.6666666666666</ele><time>2026-05-03T10:05:26.999Z</time></trkpt><trkpt lat="44.7870844806631" lon="9.448386262397026"><ele>665.3333333333333</ele><time>2026-05-03T10:05:28.999Z</time></trkpt><trkpt lat="44.78702123585723" lon="9.448308196189709"><ele>665.0</ele><time>2026-05-03T10:05:31.999Z</time></trkpt><trkpt lat="44.78699534246418" lon="9.448156748005275"><ele>665.0</ele><time>2026-05-03T10:05:33.999Z</time></trkpt><trkpt lat="44.78693439592593" lon="9.448030368982845"><ele>665.0</ele><time>2026-05-03T10:05:35.999Z</time></trkpt><trkpt lat="44.78689165273518" lon="9.447905724454357"><ele>665.0</ele><time>2026-05-03T10:05:37.999Z</time></trkpt><trkpt lat="44.78681386704929" lon="9.447768743556676"><ele>665.0</ele><time>2026-05-03T10:05:38.999Z</time></trkpt><trkpt lat="44.78684693453686" lon="9.44761909730166"><ele>665.0</ele><time>2026-05-03T10:05:40.999Z</time></trkpt><trkpt lat="44.78687912766759" lon="9.447506360234632"><ele>664.4</ele><time>2026-05-03T10:05:41.999Z</time></trkpt><trkpt lat="44.7869112062356" lon="9.44739558092331"><ele>663.8</ele><time>2026-05-03T10:05:42.999Z</time></trkpt><trkpt lat="44.78699279925846" lon="9.447221492706962"><ele>663.2</ele><time>2026-05-03T10:05:43.999Z</time></trkpt><trkpt lat="44.787013155253845" lon="9.447101738406039"><ele>662.6</ele><time>2026-05-03T10:05:44.999Z</time></trkpt><trkpt lat="44.78702102713111" lon="9.44699126789373"><ele>662.0</ele><time>2026-05-03T10:05:45.999Z</time></trkpt><trkpt lat="44.78702901706423" lon="9.446883908297691"><ele>660.6</ele><time>2026-05-03T10:05:46.999Z</time></trkpt><trkpt lat="44.78702179328004" lon="9.44672472793361"><ele>659.2</ele><time>2026-05-03T10:05:48.999Z</time></trkpt><trkpt lat="44.78698352755336" lon="9.446570762456703"><ele>657.8</ele><time>2026-05-03T10:05:50.999Z</time></trkpt><trkpt lat="44.78695532560354" lon="9.446486446375548"><ele>656.4</ele><time>2026-05-03T10:05:51.999Z</time></trkpt><trkpt lat="44.78691652150366" lon="9.446396255859819"><ele>655.0</ele><time>2026-05-03T10:05:52.998Z</time></trkpt><trkpt lat="44.7868627774969" lon="9.44630923772533"><ele>655.1666666666667</ele><time>2026-05-03T10:05:53.998Z</time></trkpt><trkpt lat="44.78681928697844" lon="9.446232350773451"><ele>655.3333333333334</ele><time>2026-05-03T10:05:54.998Z</time></trkpt><trkpt lat="44.78674256435642" lon="9.446107727126332"><ele>655.5</ele><time>2026-05-03T10:05:56.998Z</time></trkpt><trkpt lat="44.78669642228187" lon="9.445958381821264"><ele>655.6666666666666</ele><time>2026-05-03T10:05:58.998Z</time></trkpt><trkpt lat="44.786677152114905" lon="9.445871200484362"><ele>655.8333333333333</ele><time>2026-05-03T10:05:59.998Z</time></trkpt><trkpt lat="44.78665174779621" lon="9.445775293425417"><ele>656.0</ele><time>2026-05-03T10:06:00.998Z</time></trkpt><trkpt lat="44.78660309582935" lon="9.44563718865106"><ele>656.0</ele><time>2026-05-03T10:06:02.998Z</time></trkpt><trkpt lat="44.78655364877761" lon="9.4455151275345"><ele>656.0</ele><time>2026-05-03T10:06:04.998Z</time></trkpt><trkpt lat="44.78650905903375" lon="9.445347311538988"><ele>656.0</ele><time>2026-05-03T10:06:06.998Z</time></trkpt><trkpt lat="44.78648494140774" lon="9.445190915861886"><ele>656.0</ele><time>2026-05-03T10:06:08.998Z</time></trkpt><trkpt lat="44.78650240045775" lon="9.445026978142161"><ele>654.5</ele><time>2026-05-03T10:06:10.998Z</time></trkpt><trkpt lat="44.78653370998295" lon="9.444938599972275"><ele>653.0</ele><time>2026-05-03T10:06:11.998Z</time></trkpt><trkpt lat="44.78658009507238" lon="9.444792586710633"><ele>651.5</ele><time>2026-05-03T10:06:13.998Z</time></trkpt><trkpt lat="44.78659682479599" lon="9.444630544290007"><ele>650.0</ele><time>2026-05-03T10:06:15.998Z</time></trkpt><trkpt lat="44.786603230604804" lon="9.444538641163453"><ele>648.5</ele><time>2026-05-03T10:06:16.998Z</time></trkpt><trkpt lat="44.786601427859765" lon="9.444436249247872"><ele>647.0</ele><time>2026-05-03T10:06:17.998Z</time></trkpt><trkpt lat="44.786586887103304" lon="9.44434457257058"><ele>644.4</ele><time>2026-05-03T10:06:18.998Z</time></trkpt><trkpt lat="44.786585315791044" lon="9.444169618802118"><ele>641.8000000000001</ele><time>2026-05-03T10:06:20.998Z</time></trkpt><trkpt lat="44.78658097687151" lon="9.444003985347853"><ele>639.2</ele><time>2026-05-03T10:06:22.998Z</time></trkpt><trkpt lat="44.78654424720203" lon="9.443867957736753"><ele>636.6</ele><time>2026-05-03T10:06:25Z</time></trkpt><trkpt lat="44.786493276236044" lon="9.443764125134951"><ele>634.0</ele><time>2026-05-03T10:06:27Z</time></trkpt><trkpt lat="44.78651436089941" lon="9.443643108442144"><ele>634.0</ele><time>2026-05-03T10:06:29Z</time></trkpt><trkpt lat="44.78655494788967" lon="9.443535516634954"><ele>634.0</ele><time>2026-05-03T10:06:31Z</time></trkpt><trkpt lat="44.786493099395365" lon="9.443504561346698"><ele>634.0</ele><time>2026-05-03T10:06:34Z</time></trkpt><trkpt lat="44.78645778926738" lon="9.44359638353046"><ele>634.0</ele><time>2026-05-03T10:06:36Z</time></trkpt><trkpt lat="44.78645325961621" lon="9.443686005900888"><ele>634.0</ele><time>2026-05-03T10:06:37Z</time></trkpt><trkpt lat="44.78642808817043" lon="9.44377582572127"><ele>634.0</ele><time>2026-05-03T10:06:38Z</time></trkpt><trkpt lat="44.78638930927896" lon="9.443846776210922"><ele>634.0</ele><time>2026-05-03T10:06:39Z</time></trkpt><trkpt lat="44.78632658096174" lon="9.443922073990123"><ele>634.0</ele><time>2026-05-03T10:06:40Z</time></trkpt><trkpt lat="44.786241072849535" lon="9.444011342590008"><ele>634.0</ele><time>2026-05-03T10:06:41Z</time></trkpt><trkpt lat="44.78617785547706" lon="9.44409191409381"><ele>634.0</ele><time>2026-05-03T10:06:42Z</time></trkpt><trkpt lat="44.78611486044567" lon="9.444167482073992"><ele>634.0</ele><time>2026-05-03T10:06:43Z</time></trkpt><trkpt lat="44.78605862458406" lon="9.444246446322948"><ele>634.0</ele><time>2026-05-03T10:06:44Z</time></trkpt><trkpt lat="44.785994613679684" lon="9.444324057971956"><ele>634.0</ele><time>2026-05-03T10:06:45Z</time></trkpt><trkpt lat="44.78593015818044" lon="9.444406936345626"><ele>633.3333333333334</ele><time>2026-05-03T10:06:46Z</time></trkpt><trkpt lat="44.78587864158306" lon="9.444496470030925"><ele>632.6666666666667</ele><time>2026-05-03T10:06:47Z</time></trkpt><trkpt lat="44.78584746497208" lon="9.444590397250806"><ele>632.0</ele><time>2026-05-03T10:06:48Z</time></trkpt><trkpt lat="44.78583550866399" lon="9.444683792027565"><ele>631.3333333333334</ele><time>2026-05-03T10:06:49Z</time></trkpt><trkpt lat="44.78577493023833" lon="9.444782441583287"><ele>630.6666666666666</ele><time>2026-05-03T10:06:51Z</time></trkpt><trkpt lat="44.7856471222717" lon="9.444793353150787"><ele>630.0</ele><time>2026-05-03T10:06:53Z</time></trkpt><trkpt lat="44.78557024388847" lon="9.444933591316818"><ele>630.0</ele><time>2026-05-03T10:06:55Z</time></trkpt><trkpt lat="44.78550729293585" lon="9.445035729128838"><ele>630.0</ele><time>2026-05-03T10:06:56Z</time></trkpt><trkpt lat="44.785408274706114" lon="9.445139780968892"><ele>630.0</ele><time>2026-05-03T10:06:57Z</time></trkpt><trkpt lat="44.785332818490836" lon="9.445221733837746"><ele>630.0</ele><time>2026-05-03T10:06:58Z</time></trkpt><trkpt lat="44.78527263496915" lon="9.445288626878627"><ele>630.0</ele><time>2026-05-03T10:06:59Z</time></trkpt><trkpt lat="44.78517781332592" lon="9.445358859809884"><ele>627.4</ele><time>2026-05-03T10:07:01Z</time></trkpt><trkpt lat="44.78507184656481" lon="9.445289210021805"><ele>624.8</ele><time>2026-05-03T10:07:02.999Z</time></trkpt><trkpt lat="44.78500637930624" lon="9.445238532938795"><ele>622.2</ele><time>2026-05-03T10:07:03.999Z</time></trkpt><trkpt lat="44.78488882149108" lon="9.445298794398648"><ele>619.6</ele><time>2026-05-03T10:07:05.999Z</time></trkpt><trkpt lat="44.78483956647799" lon="9.445365882424129"><ele>617.0</ele><time>2026-05-03T10:07:06.999Z</time></trkpt><trkpt lat="44.784774213587625" lon="9.445462171051782"><ele>618.6666666666666</ele><time>2026-05-03T10:07:08.999Z</time></trkpt><trkpt lat="44.784725614906925" lon="9.445522884184898"><ele>620.3333333333333</ele><time>2026-05-03T10:07:09.999Z</time></trkpt><trkpt lat="44.78467622822895" lon="9.445589139446149"><ele>622.0</ele><time>2026-05-03T10:07:10.999Z</time></trkpt><trkpt lat="44.78460955785121" lon="9.445650598291754"><ele>623.6666666666666</ele><time>2026-05-03T10:07:11.999Z</time></trkpt><trkpt lat="44.78454169597934" lon="9.445700360837595"><ele>625.3333333333334</ele><time>2026-05-03T10:07:12.999Z</time></trkpt><trkpt lat="44.784470143614016" lon="9.4458593086975"><ele>627.0</ele><time>2026-05-03T10:07:14.999Z</time></trkpt><trkpt lat="44.78443181177232" lon="9.445998957420711"><ele>627.0</ele><time>2026-05-03T10:07:15.999Z</time></trkpt><trkpt lat="44.7843847138885" lon="9.446098047337287"><ele>627.0</ele><time>2026-05-03T10:07:16.999Z</time></trkpt><trkpt lat="44.784335583379765" lon="9.446160043026065"><ele>627.0</ele><time>2026-05-03T10:07:17.999Z</time></trkpt><trkpt lat="44.7842104281031" lon="9.446177107380537"><ele>627.0</ele><time>2026-05-03T10:07:19.999Z</time></trkpt><trkpt lat="44.78414137658803" lon="9.446158913924947"><ele>627.0</ele><time>2026-05-03T10:07:20.999Z</time></trkpt><trkpt lat="44.783993287832274" lon="9.446160781079666"><ele>624.5</ele><time>2026-05-03T10:07:22.999Z</time></trkpt><trkpt lat="44.78391612480275" lon="9.446135887134954"><ele>622.0</ele><time>2026-05-03T10:07:23.999Z</time></trkpt><trkpt lat="44.78384755221121" lon="9.446084862354326"><ele>619.5</ele><time>2026-05-03T10:07:24.999Z</time></trkpt><trkpt lat="44.783802373530264" lon="9.446015904352903"><ele>617.0</ele><time>2026-05-03T10:07:25.999Z</time></trkpt><trkpt lat="44.78373746044144" lon="9.445906124435643"><ele>614.5</ele><time>2026-05-03T10:07:27.999Z</time></trkpt><trkpt lat="44.783738449320516" lon="9.445806404390686"><ele>612.0</ele><time>2026-05-03T10:07:29.999Z</time></trkpt><trkpt lat="44.78382647733522" lon="9.4456936225152"><ele>612.0</ele><time>2026-05-03T10:07:31.999Z</time></trkpt><trkpt lat="44.78388522764921" lon="9.445627455992962"><ele>612.0</ele><time>2026-05-03T10:07:32.999Z</time></trkpt><trkpt lat="44.78384097478125" lon="9.445551587522376"><ele>612.0</ele><time>2026-05-03T10:07:35.999Z</time></trkpt><trkpt lat="44.7837344497129" lon="9.445574613200508"><ele>612.0</ele><time>2026-05-03T10:07:37.999Z</time></trkpt><trkpt lat="44.7836218688961" lon="9.445517831737977"><ele>612.0</ele><time>2026-05-03T10:07:39.999Z</time></trkpt><trkpt lat="44.783550106858364" lon="9.445378149239543"><ele>615.6</ele><time>2026-05-03T10:07:41.999Z</time></trkpt><trkpt lat="44.783447823801964" lon="9.445338507848296"><ele>619.2</ele><time>2026-05-03T10:07:43.999Z</time></trkpt><trkpt lat="44.783374279802565" lon="9.44533997677353"><ele>622.8</ele><time>2026-05-03T10:07:45.999Z</time></trkpt><trkpt lat="44.78330895439118" lon="9.44523680385876"><ele>626.4</ele><time>2026-05-03T10:07:47.999Z</time></trkpt><trkpt lat="44.78326137697143" lon="9.44509381681821"><ele>630.0</ele><time>2026-05-03T10:07:49.999Z</time></trkpt><trkpt lat="44.783237374789614" lon="9.444939720886714"><ele>630.0</ele><time>2026-05-03T10:07:51.999Z</time></trkpt><trkpt lat="44.7832123758275" lon="9.444851848050844"><ele>630.0</ele><time>2026-05-03T10:07:52.999Z</time></trkpt><trkpt lat="44.78312080791088" lon="9.444792023204284"><ele>630.0</ele><time>2026-05-03T10:07:54.999Z</time></trkpt><trkpt lat="44.78306171895711" lon="9.444742185995151"><ele>630.0</ele><time>2026-05-03T10:07:55.998Z</time></trkpt><trkpt lat="44.783038724064355" lon="9.444605367783929"><ele>630.0</ele><time>2026-05-03T10:07:57.998Z</time></trkpt><trkpt lat="44.78304921169826" lon="9.444485007472576"><ele>630.0</ele><time>2026-05-03T10:07:58.998Z</time></trkpt><trkpt lat="44.78306813512218" lon="9.444391518218303"><ele>629.4</ele><time>2026-05-03T10:07:59.998Z</time></trkpt><trkpt lat="44.783070925495984" lon="9.444248929254133"><ele>628.8</ele><time>2026-05-03T10:08:01.998Z</time></trkpt><trkpt lat="44.78299939735801" lon="9.444089365400385"><ele>628.2</ele><time>2026-05-03T10:08:03.998Z</time></trkpt><trkpt lat="44.78294605406202" lon="9.444027738197253"><ele>627.6</ele><time>2026-05-03T10:08:04.998Z</time></trkpt><trkpt lat="44.782894039159586" lon="9.443932832634522"><ele>627.0</ele><time>2026-05-03T10:08:05.998Z</time></trkpt><trkpt lat="44.7828425773745" lon="9.443850383161353"><ele>627.0</ele><time>2026-05-03T10:08:06.998Z</time></trkpt><trkpt lat="44.782784481617746" lon="9.443803190258452"><ele>627.0</ele><time>2026-05-03T10:08:07.998Z</time></trkpt><trkpt lat="44.7827399918651" lon="9.443740362461678"><ele>627.0</ele><time>2026-05-03T10:08:08.998Z</time></trkpt><trkpt lat="44.782712167407276" lon="9.443573293675996"><ele>627.0</ele><time>2026-05-03T10:08:10.998Z</time></trkpt><trkpt lat="44.78270174571268" lon="9.443459651217148"><ele>627.0</ele><time>2026-05-03T10:08:11.998Z</time></trkpt><trkpt lat="44.78265929835068" lon="9.443366001892473"><ele>627.0</ele><time>2026-05-03T10:08:12.998Z</time></trkpt><trkpt lat="44.782570748324545" lon="9.443245394905764"><ele>631.3333333333334</ele><time>2026-05-03T10:08:14.998Z</time></trkpt><trkpt lat="44.78251643052424" lon="9.44317853865607"><ele>635.6666666666666</ele><time>2026-05-03T10:08:15.998Z</time></trkpt><trkpt lat="44.782471461831314" lon="9.443102672912126"><ele>640.0</ele><time>2026-05-03T10:08:16.998Z</time></trkpt><trkpt lat="44.78243157537492" lon="9.443005934555643"><ele>644.3333333333333</ele><time>2026-05-03T10:08:17.998Z</time></trkpt><trkpt lat="44.78238052507523" lon="9.442896300205692"><ele>648.6666666666666</ele><time>2026-05-03T10:08:18.998Z</time></trkpt><trkpt lat="44.78232383050543" lon="9.442784145558429"><ele>653.0</ele><time>2026-05-03T10:08:19.998Z</time></trkpt><trkpt lat="44.782253659466285" lon="9.442684528060099"><ele>653.0</ele><time>2026-05-03T10:08:20.998Z</time></trkpt><trkpt lat="44.78219945778349" lon="9.442593845597722"><ele>653.0</ele><time>2026-05-03T10:08:21.998Z</time></trkpt><trkpt lat="44.78214602126509" lon="9.442501486160998"><ele>653.0</ele><time>2026-05-03T10:08:22.998Z</time></trkpt><trkpt lat="44.78208435048067" lon="9.442401892156399"><ele>653.0</ele><time>2026-05-03T10:08:23.998Z</time></trkpt><trkpt lat="44.78202690003222" lon="9.442282513073064"><ele>653.0</ele><time>2026-05-03T10:08:24.998Z</time></trkpt><trkpt lat="44.78198444423948" lon="9.44214580545512"><ele>649.4</ele><time>2026-05-03T10:08:25.998Z</time></trkpt><trkpt lat="44.78195242789448" lon="9.442043041799385"><ele>645.8</ele><time>2026-05-03T10:08:26.998Z</time></trkpt><trkpt lat="44.78192218792901" lon="9.441906448656963"><ele>642.2</ele><time>2026-05-03T10:08:28.998Z</time></trkpt><trkpt lat="44.78184042469234" lon="9.441821623776573"><ele>638.6</ele><time>2026-05-03T10:08:31Z</time></trkpt><trkpt lat="44.781759455438134" lon="9.4417915423476"><ele>635.0</ele><time>2026-05-03T10:08:34Z</time></trkpt><trkpt lat="44.78167871490131" lon="9.441727855061632"><ele>641.4285714285713</ele><time>2026-05-03T10:08:36Z</time></trkpt><trkpt lat="44.78162511158295" lon="9.441673440818057"><ele>647.8571428571429</ele><time>2026-05-03T10:08:37Z</time></trkpt><trkpt lat="44.78153575763296" lon="9.441673459094142"><ele>654.2857142857142</ele><time>2026-05-03T10:08:39Z</time></trkpt><trkpt lat="44.78147363075581" lon="9.441644144957866"><ele>660.7142857142857</ele><time>2026-05-03T10:08:40Z</time></trkpt><trkpt lat="44.78141620216694" lon="9.44157388349641"><ele>667.1428571428571</ele><time>2026-05-03T10:08:41Z</time></trkpt><trkpt lat="44.78136506505307" lon="9.441503011042059"><ele>673.5714285714286</ele><time>2026-05-03T10:08:42Z</time></trkpt><trkpt lat="44.7813064045629" lon="9.441446143367587"><ele>680.0</ele><time>2026-05-03T10:08:43Z</time></trkpt><trkpt lat="44.781239490091906" lon="9.441405942124062"><ele>680.0</ele><time>2026-05-03T10:08:44Z</time></trkpt><trkpt lat="44.7811999127187" lon="9.44130464056189"><ele>680.0</ele><time>2026-05-03T10:08:46Z</time></trkpt><trkpt lat="44.78121849158353" lon="9.441216396705387"><ele>680.0</ele><time>2026-05-03T10:08:47Z</time></trkpt><trkpt lat="44.78125210963615" lon="9.441138582909149"><ele>680.0</ele><time>2026-05-03T10:08:48Z</time></trkpt><trkpt lat="44.78128572390818" lon="9.441061980132243"><ele>680.0</ele><time>2026-05-03T10:08:49Z</time></trkpt><trkpt lat="44.78127844772822" lon="9.440853035773326"><ele>680.0</ele><time>2026-05-03T10:08:52Z</time></trkpt><trkpt lat="44.78127535474032" lon="9.44074851509357"><ele>676.6</ele><time>2026-05-03T10:08:53Z</time></trkpt><trkpt lat="44.78125167183947" lon="9.44063237647365"><ele>673.2</ele><time>2026-05-03T10:08:55Z</time></trkpt><trkpt lat="44.781153678755345" lon="9.440558365500177"><ele>669.8</ele><time>2026-05-03T10:08:58Z</time></trkpt><trkpt lat="44.781087704599074" lon="9.44044203790659"><ele>666.4</ele><time>2026-05-03T10:09:00Z</time></trkpt><trkpt lat="44.78101554801853" lon="9.440373810725243"><ele>663.0</ele><time>2026-05-03T10:09:02Z</time></trkpt><trkpt lat="44.78091465002538" lon="9.440336188318373"><ele>671.4</ele><time>2026-05-03T10:09:04Z</time></trkpt><trkpt lat="44.78081628528958" lon="9.440292929801158"><ele>679.8</ele><time>2026-05-03T10:09:06Z</time></trkpt><trkpt lat="44.78075957647109" lon="9.440221238208228"><ele>688.2</ele><time>2026-05-03T10:09:07Z</time></trkpt><trkpt lat="44.78068708714709" lon="9.440078625893886"><ele>696.6</ele><time>2026-05-03T10:09:08.999Z</time></trkpt><trkpt lat="44.78058328202813" lon="9.439991726495665"><ele>705.0</ele><time>2026-05-03T10:09:10.999Z</time></trkpt><trkpt lat="44.78051007886771" lon="9.439965389605199"><ele>705.0</ele><time>2026-05-03T10:09:11.999Z</time></trkpt><trkpt lat="44.78042863764539" lon="9.439949473684031"><ele>705.0</ele><time>2026-05-03T10:09:12.999Z</time></trkpt><trkpt lat="44.78036406431936" lon="9.439891248881397"><ele>705.0</ele><time>2026-05-03T10:09:13.999Z</time></trkpt><trkpt lat="44.78029394200487" lon="9.43982134134924"><ele>705.0</ele><time>2026-05-03T10:09:14.999Z</time></trkpt><trkpt lat="44.78020259265187" lon="9.439739005786869"><ele>705.0</ele><time>2026-05-03T10:09:15.999Z</time></trkpt><trkpt lat="44.78013659731731" lon="9.439641015895102"><ele>705.0</ele><time>2026-05-03T10:09:16.999Z</time></trkpt><trkpt lat="44.78006340079986" lon="9.439547517455985"><ele>709.2</ele><time>2026-05-03T10:09:17.999Z</time></trkpt><trkpt lat="44.780028913593334" lon="9.439439519591142"><ele>713.4</ele><time>2026-05-03T10:09:18.999Z</time></trkpt><trkpt lat="44.77998002456255" lon="9.439354510298125"><ele>717.5999999999999</ele><time>2026-05-03T10:09:19.999Z</time></trkpt><trkpt lat="44.77987888974528" lon="9.439248713438985"><ele>721.8</ele><time>2026-05-03T10:09:21.999Z</time></trkpt><trkpt lat="44.77979030205954" lon="9.43918310490861"><ele>726.0</ele><time>2026-05-03T10:09:22.999Z</time></trkpt><trkpt lat="44.77973692464048" lon="9.43910189967882"><ele>726.0</ele><time>2026-05-03T10:09:23.999Z</time></trkpt><trkpt lat="44.77967748933106" lon="9.4389706517994"><ele>726.0</ele><time>2026-05-03T10:09:25.999Z</time></trkpt><trkpt lat="44.77958401176469" lon="9.438909039714508"><ele>726.0</ele><time>2026-05-03T10:09:27.999Z</time></trkpt><trkpt lat="44.7795090872636" lon="9.438902660923034"><ele>726.0</ele><time>2026-05-03T10:09:28.999Z</time></trkpt><trkpt lat="44.779430697089765" lon="9.438902742213433"><ele>726.0</ele><time>2026-05-03T10:09:29.999Z</time></trkpt><trkpt lat="44.77932780845196" lon="9.438897912148617"><ele>730.0</ele><time>2026-05-03T10:09:30.999Z</time></trkpt><trkpt lat="44.77925465160076" lon="9.438886077765762"><ele>734.0</ele><time>2026-05-03T10:09:31.999Z</time></trkpt><trkpt lat="44.77914475438329" lon="9.43887265658084"><ele>738.0</ele><time>2026-05-03T10:09:32.999Z</time></trkpt><trkpt lat="44.779080326674084" lon="9.438844840739957"><ele>742.0</ele><time>2026-05-03T10:09:33.999Z</time></trkpt><trkpt lat="44.77896681295324" lon="9.438881889081498"><ele>746.0</ele><time>2026-05-03T10:09:35.999Z</time></trkpt><trkpt lat="44.77889842001996" lon="9.438906180770163"><ele>750.0</ele><time>2026-05-03T10:09:36.999Z</time></trkpt><trkpt lat="44.77883446673852" lon="9.438943147242686"><ele>750.0</ele><time>2026-05-03T10:09:37.999Z</time></trkpt><trkpt lat="44.77876886985203" lon="9.438970873065774"><ele>750.0</ele><time>2026-05-03T10:09:38.999Z</time></trkpt><trkpt lat="44.77869447142142" lon="9.439010256987546"><ele>750.0</ele><time>2026-05-03T10:09:39.999Z</time></trkpt><trkpt lat="44.77860260045257" lon="9.439039013388719"><ele>750.0</ele><time>2026-05-03T10:09:40.999Z</time></trkpt><trkpt lat="44.77851986049209" lon="9.439048983242841"><ele>750.0</ele><time>2026-05-03T10:09:41.999Z</time></trkpt><trkpt lat="44.778391488465815" lon="9.439031196307347"><ele>751.5</ele><time>2026-05-03T10:09:43.999Z</time></trkpt><trkpt lat="44.778325267575056" lon="9.439069456798105"><ele>753.0</ele><time>2026-05-03T10:09:45.999Z</time></trkpt><trkpt lat="44.77822121332896" lon="9.43909746952276"><ele>754.5</ele><time>2026-05-03T10:10:11.998Z</time></trkpt><trkpt lat="44.778141472238495" lon="9.439134483366917"><ele>756.0</ele><time>2026-05-03T10:10:13.998Z</time></trkpt><trkpt lat="44.77809122189933" lon="9.439206341939153"><ele>757.5</ele><time>2026-05-03T10:10:15.998Z</time></trkpt><trkpt lat="44.77807266267951" lon="9.439320352481884"><ele>759.0</ele><time>2026-05-03T10:10:18.998Z</time></trkpt><trkpt lat="44.777998505820825" lon="9.439394967225864"><ele>759.0</ele><time>2026-05-03T10:10:20.998Z</time></trkpt><trkpt lat="44.77789978509469" lon="9.439394350833979"><ele>759.0</ele><time>2026-05-03T10:10:22.998Z</time></trkpt><trkpt lat="44.77783102121993" lon="9.439455152235169"><ele>759.0</ele><time>2026-05-03T10:10:24.998Z</time></trkpt><trkpt lat="44.7777530228171" lon="9.43952359597499"><ele>759.0</ele><time>2026-05-03T10:10:26.998Z</time></trkpt><trkpt lat="44.77768255870377" lon="9.439454760814094"><ele>759.0</ele><time>2026-05-03T10:10:28.998Z</time></trkpt><trkpt lat="44.777628436321194" lon="9.439325512403897"><ele>758.6666666666666</ele><time>2026-05-03T10:10:30.998Z</time></trkpt><trkpt lat="44.77755135570487" lon="9.439340358375613"><ele>758.3333333333334</ele><time>2026-05-03T10:10:32.998Z</time></trkpt><trkpt lat="44.777490244886614" lon="9.439461611778327"><ele>758.0</ele><time>2026-05-03T10:10:34.998Z</time></trkpt><trkpt lat="44.777431188097076" lon="9.439527057253898"><ele>757.6666666666667</ele><time>2026-05-03T10:10:37Z</time></trkpt><trkpt lat="44.777320537671976" lon="9.439495348464382"><ele>757.3333333333334</ele><time>2026-05-03T10:10:39Z</time></trkpt><trkpt lat="44.77726144423374" lon="9.439453371889947"><ele>757.0</ele><time>2026-05-03T10:10:40Z</time></trkpt><trkpt lat="44.77716989657307" lon="9.439405564577765"><ele>757.0</ele><time>2026-05-03T10:10:42Z</time></trkpt><trkpt lat="44.777049130319355" lon="9.439455226142268"><ele>757.0</ele><time>2026-05-03T10:10:44Z</time></trkpt><trkpt lat="44.77698362628728" lon="9.439453012042247"><ele>757.0</ele><time>2026-05-03T10:10:45Z</time></trkpt><trkpt lat="44.776906858033406" lon="9.439466006554214"><ele>757.0</ele><time>2026-05-03T10:10:46Z</time></trkpt><trkpt lat="44.77684270017712" lon="9.439491869120136"><ele>757.0</ele><time>2026-05-03T10:10:47Z</time></trkpt><trkpt lat="44.776766824130334" lon="9.439533810335286"><ele>757.0</ele><time>2026-05-03T10:10:49Z</time></trkpt><trkpt lat="44.776708113626064" lon="9.439468773406512"><ele>761.0</ele><time>2026-05-03T10:10:51Z</time></trkpt><trkpt lat="44.776647693016756" lon="9.439333205393396"><ele>765.0</ele><time>2026-05-03T10:10:53Z</time></trkpt><trkpt lat="44.7765907847823" lon="9.43926991611984"><ele>769.0</ele><time>2026-05-03T10:10:54Z</time></trkpt><trkpt lat="44.77654829954083" lon="9.439131035323724"><ele>773.0</ele><time>2026-05-03T10:10:56Z</time></trkpt><trkpt lat="44.77646284440641" lon="9.439002443618874"><ele>777.0</ele><time>2026-05-03T10:10:58Z</time></trkpt><trkpt lat="44.7764402317633" lon="9.438917320987091"><ele>777.0</ele><time>2026-05-03T10:10:59Z</time></trkpt><trkpt lat="44.776407376134166" lon="9.438841586889378"><ele>777.0</ele><time>2026-05-03T10:11:00Z</time></trkpt><trkpt lat="44.77636042593829" lon="9.43867998966073"><ele>777.0</ele><time>2026-05-03T10:11:02Z</time></trkpt><trkpt lat="44.7763512316537" lon="9.438517549542327"><ele>777.0</ele><time>2026-05-03T10:11:04Z</time></trkpt><trkpt lat="44.776335854568245" lon="9.438406556942349"><ele>777.0</ele><time>2026-05-03T10:11:07Z</time></trkpt><trkpt lat="44.776272221537724" lon="9.43835084799601"><ele>774.8333333333334</ele><time>2026-05-03T10:11:09Z</time></trkpt><trkpt lat="44.7761982136225" lon="9.438348825531975"><ele>772.6666666666666</ele><time>2026-05-03T10:11:12Z</time></trkpt><trkpt lat="44.77612666341133" lon="9.438292710526268"><ele>770.5</ele><time>2026-05-03T10:11:15Z</time></trkpt><trkpt lat="44.7760477227106" lon="9.43827220495392"><ele>768.3333333333333</ele><time>2026-05-03T10:11:17.999Z</time></trkpt><trkpt lat="44.77596407672703" lon="9.438286026029337"><ele>766.1666666666666</ele><time>2026-05-03T10:11:21.999Z</time></trkpt><trkpt lat="44.775900255821455" lon="9.438282085771853"><ele>764.0</ele><time>2026-05-03T10:11:24.999Z</time></trkpt><trkpt lat="44.775848030982914" lon="9.438175392785128"><ele>764.2</ele><time>2026-05-03T10:11:28.999Z</time></trkpt><trkpt lat="44.77578375287226" lon="9.438103687332745"><ele>764.4000000000001</ele><time>2026-05-03T10:11:31.999Z</time></trkpt><trkpt lat="44.775726319590845" lon="9.438049037621148"><ele>764.6</ele><time>2026-05-03T10:11:34.999Z</time></trkpt><trkpt lat="44.77564261841837" lon="9.437993708532208"><ele>764.8</ele><time>2026-05-03T10:11:36.999Z</time></trkpt><trkpt lat="44.77554051180825" lon="9.437926958270742"><ele>765.0</ele><time>2026-05-03T10:11:37.999Z</time></trkpt><trkpt lat="44.775444411902" lon="9.43789733085056"><ele>765.0</ele><time>2026-05-03T10:11:39.999Z</time></trkpt><trkpt lat="44.775371892963115" lon="9.437908291221214"><ele>765.0</ele><time>2026-05-03T10:11:41.999Z</time></trkpt><trkpt lat="44.77529218902164" lon="9.437932658603131"><ele>765.0</ele><time>2026-05-03T10:11:43.999Z</time></trkpt><trkpt lat="44.77523775458684" lon="9.437977624488346"><ele>765.0</ele><time>2026-05-03T10:11:44.999Z</time></trkpt><trkpt lat="44.77516759202047" lon="9.438023242676447"><ele>765.0</ele><time>2026-05-03T10:11:46.999Z</time></trkpt><trkpt lat="44.775091041222566" lon="9.438099574044395"><ele>765.0</ele><time>2026-05-03T10:11:48.999Z</time></trkpt><trkpt lat="44.775031535240096" lon="9.438151429442584"><ele>769.8333333333334</ele><time>2026-05-03T10:11:50.999Z</time></trkpt><trkpt lat="44.77496891960347" lon="9.438193761387398"><ele>774.6666666666667</ele><time>2026-05-03T10:11:51.999Z</time></trkpt><trkpt lat="44.774897554803076" lon="9.438252058911013"><ele>779.5</ele><time>2026-05-03T10:11:52.999Z</time></trkpt><trkpt lat="44.774852355791836" lon="9.438324981368035"><ele>784.3333333333334</ele><time>2026-05-03T10:11:53.999Z</time></trkpt><trkpt lat="44.774764874394336" lon="9.438353457545587"><ele>789.1666666666667</ele><time>2026-05-03T10:11:55.999Z</time></trkpt><trkpt lat="44.77468091731141" lon="9.438414999808625"><ele>794.0</ele><time>2026-05-03T10:11:57.999Z</time></trkpt><trkpt lat="44.77458829362569" lon="9.438498823639215"><ele>794.0000000000001</ele><time>2026-05-03T10:11:59.999Z</time></trkpt><trkpt lat="44.774491572790865" lon="9.438552509123433"><ele>794.0</ele><time>2026-05-03T10:12:01.999Z</time></trkpt><trkpt lat="44.77442645281753" lon="9.438485650829389"><ele>794.0</ele><time>2026-05-03T10:12:03.999Z</time></trkpt><trkpt lat="44.77435020920711" lon="9.438470422593904"><ele>794.0</ele><time>2026-05-03T10:12:05.999Z</time></trkpt><trkpt lat="44.774275259152326" lon="9.43853971777335"><ele>794.0000000000001</ele><time>2026-05-03T10:12:07.999Z</time></trkpt><trkpt lat="44.774207915270814" lon="9.43862503016919"><ele>794.0</ele><time>2026-05-03T10:12:09.999Z</time></trkpt><trkpt lat="44.774142672736055" lon="9.438684881771739"><ele>794.8333333333334</ele><time>2026-05-03T10:12:11.998Z</time></trkpt><trkpt lat="44.77409371506495" lon="9.438741456501974"><ele>795.6666666666667</ele><time>2026-05-03T10:12:13.998Z</time></trkpt><trkpt lat="44.77404016988644" lon="9.43882405756294"><ele>796.5</ele><time>2026-05-03T10:12:15.998Z</time></trkpt><trkpt lat="44.77402649272816" lon="9.438932929515897"><ele>797.3333333333333</ele><time>2026-05-03T10:12:18.998Z</time></trkpt><trkpt lat="44.77395788963912" lon="9.439026134277665"><ele>798.1666666666666</ele><time>2026-05-03T10:12:20.998Z</time></trkpt><trkpt lat="44.773887871255475" lon="9.439110499633841"><ele>799.0</ele><time>2026-05-03T10:12:23.998Z</time></trkpt><trkpt lat="44.77380993289608" lon="9.439136380465241"><ele>798.9999999999999</ele><time>2026-05-03T10:12:26.998Z</time></trkpt><trkpt lat="44.77373007013021" lon="9.439155814235443"><ele>799.0</ele><time>2026-05-03T10:12:28.998Z</time></trkpt><trkpt lat="44.773632861182655" lon="9.439242277206683"><ele>799.0</ele><time>2026-05-03T10:12:30.998Z</time></trkpt><trkpt lat="44.77359218445878" lon="9.439310746544908"><ele>799.0</ele><time>2026-05-03T10:12:31.998Z</time></trkpt><trkpt lat="44.77352587262232" lon="9.439392986173699"><ele>798.9999999999999</ele><time>2026-05-03T10:12:33.998Z</time></trkpt><trkpt lat="44.77345785043787" lon="9.439347087110704"><ele>799.0</ele><time>2026-05-03T10:12:37.998Z</time></trkpt><trkpt lat="44.77340047302915" lon="9.439229388635722"><ele>799.0</ele><time>2026-05-03T10:12:42Z</time></trkpt><trkpt lat="44.77333117303476" lon="9.439099715129881"><ele>799.0</ele><time>2026-05-03T10:12:45Z</time></trkpt><trkpt lat="44.77330055794357" lon="9.438962968364477"><ele>799.0</ele><time>2026-05-03T10:12:47Z</time></trkpt><trkpt lat="44.77332629998111" lon="9.438823935681206"><ele>799.0</ele><time>2026-05-03T10:13:12Z</time></trkpt><trkpt lat="44.7733742158731" lon="9.438762267771938"><ele>799.0</ele><time>2026-05-03T10:13:18Z</time></trkpt><trkpt lat="44.77339837318576" lon="9.438675805657034"><ele>798.4285714285714</ele><time>2026-05-03T10:13:31.999Z</time></trkpt><trkpt lat="44.77338153508822" lon="9.438577602429131"><ele>797.8571428571428</ele><time>2026-05-03T10:13:38.999Z</time></trkpt><trkpt lat="44.77342577062973" lon="9.438474910239858"><ele>797.2857142857142</ele><time>2026-05-03T10:13:40.999Z</time></trkpt><trkpt lat="44.7734236811412" lon="9.43835995431814"><ele>796.7142857142858</ele><time>2026-05-03T10:13:41.999Z</time></trkpt><trkpt lat="44.77343384029998" lon="9.438267473145203"><ele>796.1428571428571</ele><time>2026-05-03T10:13:42.999Z</time></trkpt><trkpt lat="44.773449207465696" lon="9.438180510586976"><ele>795.5714285714286</ele><time>2026-05-03T10:13:44.999Z</time></trkpt><trkpt lat="44.77341482035081" lon="9.438104173414064"><ele>795.0</ele><time>2026-05-03T10:13:47.999Z</time></trkpt><trkpt lat="44.77334235316642" lon="9.438032331280636"><ele>793.2</ele><time>2026-05-03T10:13:50.999Z</time></trkpt><trkpt lat="44.77326945034717" lon="9.437927307031515"><ele>791.4</ele><time>2026-05-03T10:13:52.999Z</time></trkpt><trkpt lat="44.773231087774086" lon="9.43784981752516"><ele>789.5999999999999</ele><time>2026-05-03T10:13:53.999Z</time></trkpt><trkpt lat="44.77318338201136" lon="9.437733443771435"><ele>787.8</ele><time>2026-05-03T10:13:56.999Z</time></trkpt><trkpt lat="44.773142284674044" lon="9.437597305261507"><ele>786.0</ele><time>2026-05-03T10:13:58.999Z</time></trkpt><trkpt lat="44.77310614970398" lon="9.437453980833038"><ele>786.0</ele><time>2026-05-03T10:14:00.999Z</time></trkpt><trkpt lat="44.77309128681213" lon="9.437308253870086"><ele>786.0</ele><time>2026-05-03T10:14:02.999Z</time></trkpt><trkpt lat="44.77303870066655" lon="9.437171123561125"><ele>786.0</ele><time>2026-05-03T10:14:04.999Z</time></trkpt><trkpt lat="44.77294927534957" lon="9.437072545451704"><ele>786.0</ele><time>2026-05-03T10:14:06.999Z</time></trkpt><trkpt lat="44.772899315528754" lon="9.436999524111036"><ele>786.0</ele><time>2026-05-03T10:14:08.999Z</time></trkpt><trkpt lat="44.772857100199154" lon="9.436931994249205"><ele>782.6666666666666</ele><time>2026-05-03T10:14:11.999Z</time></trkpt><trkpt lat="44.77285157737908" lon="9.436832647793182"><ele>779.3333333333334</ele><time>2026-05-03T10:14:15.998Z</time></trkpt><trkpt lat="44.77280851235781" lon="9.436737106153466"><ele>776.0</ele><time>2026-05-03T10:14:17.998Z</time></trkpt><trkpt lat="44.772783082350564" lon="9.436625453128578"><ele>772.6666666666667</ele><time>2026-05-03T10:14:19.998Z</time></trkpt><trkpt lat="44.77273269196659" lon="9.436529364584"><ele>769.3333333333334</ele><time>2026-05-03T10:14:22.998Z</time></trkpt><trkpt lat="44.77271095095002" lon="9.436437097483305"><ele>766.0</ele><time>2026-05-03T10:14:24.998Z</time></trkpt><trkpt lat="44.77270171132881" lon="9.436286696153665"><ele>770.7142857142857</ele><time>2026-05-03T10:14:26.998Z</time></trkpt><trkpt lat="44.772650534827555" lon="9.436218487899072"><ele>775.4285714285713</ele><time>2026-05-03T10:14:27.998Z</time></trkpt><trkpt lat="44.77263960959723" lon="9.436115208654575"><ele>780.1428571428571</ele><time>2026-05-03T10:14:28.998Z</time></trkpt><trkpt lat="44.77262689590656" lon="9.436021247495"><ele>784.8571428571429</ele><time>2026-05-03T10:14:30.998Z</time></trkpt><trkpt lat="44.772589865264784" lon="9.435931769522453"><ele>789.5714285714286</ele><time>2026-05-03T10:15:57.999Z</time></trkpt><trkpt lat="44.77263170614545" lon="9.435863787154894"><ele>794.2857142857143</ele><time>2026-05-03T10:16:04.999Z</time></trkpt><trkpt lat="44.77259698753742" lon="9.435782919098028"><ele>799.0</ele><time>2026-05-03T10:16:48.998Z</time></trkpt><trkpt lat="44.77251733200509" lon="9.435776830218844"><ele>799.0</ele><time>2026-05-03T10:16:51.998Z</time></trkpt><trkpt lat="44.77245189376257" lon="9.435760765748986"><ele>799.0</ele><time>2026-05-03T10:16:56Z</time></trkpt><trkpt lat="44.772396536644706" lon="9.43569513049984"><ele>799.0</ele><time>2026-05-03T10:17:00Z</time></trkpt><trkpt lat="44.77234024745549" lon="9.435628203084228"><ele>799.0</ele><time>2026-05-03T10:17:05Z</time></trkpt><trkpt lat="44.77225828768784" lon="9.43560442366629"><ele>799.0</ele><time>2026-05-03T10:17:09Z</time></trkpt><trkpt lat="44.772189030974566" lon="9.43561788311109"><ele>799.0</ele><time>2026-05-03T10:17:13Z</time></trkpt><trkpt lat="44.77212887021912" lon="9.435674960890527"><ele>799.0</ele><time>2026-05-03T10:17:18Z</time></trkpt><trkpt lat="44.77206803036175" lon="9.435732144316486"><ele>799.0</ele><time>2026-05-03T10:17:22Z</time></trkpt><trkpt lat="44.77200229637516" lon="9.4357945316992"><ele>799.0</ele><time>2026-05-03T10:17:25Z</time></trkpt><trkpt lat="44.77197042136276" lon="9.435876389438395"><ele>799.0</ele><time>2026-05-03T10:17:29Z</time></trkpt><trkpt lat="44.77192414123481" lon="9.435943596347752"><ele>799.0</ele><time>2026-05-03T10:17:34Z</time></trkpt><trkpt lat="44.771866349005286" lon="9.435983318648116"><ele>799.0</ele><time>2026-05-03T10:17:37.999Z</time></trkpt><trkpt lat="44.77179676794734" lon="9.435999905242337"><ele>799.0</ele><time>2026-05-03T10:17:39.999Z</time></trkpt><trkpt lat="44.77172269610166" lon="9.43597908438713"><ele>799.0</ele><time>2026-05-03T10:17:42.999Z</time></trkpt><trkpt lat="44.771664679110614" lon="9.435943137637407"><ele>795.5714285714286</ele><time>2026-05-03T10:17:45.999Z</time></trkpt><trkpt lat="44.771600270843734" lon="9.435909317361856"><ele>792.1428571428571</ele><time>2026-05-03T10:18:04.999Z</time></trkpt><trkpt lat="44.77157486244688" lon="9.435816296969598"><ele>788.7142857142857</ele><time>2026-05-03T10:18:09.999Z</time></trkpt><trkpt lat="44.77154966088928" lon="9.43573236477027"><ele>785.2857142857142</ele><time>2026-05-03T10:18:15.999Z</time></trkpt><trkpt lat="44.771498642563294" lon="9.435679503553851"><ele>781.8571428571429</ele><time>2026-05-03T10:18:23.999Z</time></trkpt><trkpt lat="44.77143420302214" lon="9.435674583609284"><ele>778.4285714285713</ele><time>2026-05-03T10:18:37.998Z</time></trkpt><trkpt lat="44.77137463313219" lon="9.435705019472238"><ele>775.0</ele><time>2026-05-03T10:18:45.998Z</time></trkpt><trkpt lat="44.7713131574048" lon="9.43576047607881"><ele>774.9999999999999</ele><time>2026-05-03T10:18:55.998Z</time></trkpt><trkpt lat="44.771265938351725" lon="9.43581975015463"><ele>775.0</ele><time>2026-05-03T10:18:58.998Z</time></trkpt><trkpt lat="44.77119966495365" lon="9.43586391736795"><ele>775.0</ele><time>2026-05-03T10:19:02Z</time></trkpt><trkpt lat="44.77111092422947" lon="9.435804280845312"><ele>775.0</ele><time>2026-05-03T10:19:05Z</time></trkpt><trkpt lat="44.77105541519793" lon="9.435756698493218"><ele>775.0</ele><time>2026-05-03T10:19:07Z</time></trkpt><trkpt lat="44.770987504398825" lon="9.435725057251432"><ele>774.9999999999999</ele><time>2026-05-03T10:19:09Z</time></trkpt><trkpt lat="44.77092402252654" lon="9.435676433356461"><ele>775.0</ele><time>2026-05-03T10:19:12Z</time></trkpt><trkpt lat="44.77085766660283" lon="9.435604636897708"><ele>771.8333333333333</ele><time>2026-05-03T10:19:15Z</time></trkpt><trkpt lat="44.77081494959049" lon="9.435533232277987"><ele>768.6666666666666</ele><time>2026-05-03T10:19:18Z</time></trkpt><trkpt lat="44.770761247076834" lon="9.435465620149543"><ele>765.5</ele><time>2026-05-03T10:19:21Z</time></trkpt><trkpt lat="44.770711920407486" lon="9.435373151865791"><ele>762.3333333333333</ele><time>2026-05-03T10:19:24Z</time></trkpt><trkpt lat="44.77067130538696" lon="9.435269073462347"><ele>759.1666666666666</ele><time>2026-05-03T10:19:27Z</time></trkpt><trkpt lat="44.77062006805732" lon="9.435173745242802"><ele>756.0</ele><time>2026-05-03T10:19:30Z</time></trkpt><trkpt lat="44.77057130407179" lon="9.43506655605839"><ele>754.5</ele><time>2026-05-03T10:19:33Z</time></trkpt><trkpt lat="44.770523016642144" lon="9.434975893118382"><ele>753.0</ele><time>2026-05-03T10:19:36Z</time></trkpt><trkpt lat="44.77049183333732" lon="9.434885072131927"><ele>751.5</ele><time>2026-05-03T10:19:39Z</time></trkpt><trkpt lat="44.77044882670418" lon="9.434806454241183"><ele>750.0</ele><time>2026-05-03T10:19:43.999Z</time></trkpt><trkpt lat="44.770420357560596" lon="9.434702100494182"><ele>748.5</ele><time>2026-05-03T10:19:46.999Z</time></trkpt><trkpt lat="44.77040260774967" lon="9.434587422410594"><ele>747.0</ele><time>2026-05-03T10:19:49.999Z</time></trkpt><trkpt lat="44.77037558795071" lon="9.43449959393377"><ele>745.8333333333334</ele><time>2026-05-03T10:19:53.999Z</time></trkpt><trkpt lat="44.770361629512514" lon="9.434411599475855"><ele>744.6666666666666</ele><time>2026-05-03T10:19:55.999Z</time></trkpt><trkpt lat="44.77033804612023" lon="9.434318392025213"><ele>743.5</ele><time>2026-05-03T10:19:58.999Z</time></trkpt><trkpt lat="44.770299194021554" lon="9.434231927833487"><ele>742.3333333333333</ele><time>2026-05-03T10:20:01.999Z</time></trkpt><trkpt lat="44.770248725431166" lon="9.434147661325227"><ele>741.1666666666666</ele><time>2026-05-03T10:20:04.999Z</time></trkpt><trkpt lat="44.77020429946109" lon="9.434031574441251"><ele>740.0</ele><time>2026-05-03T10:20:07.999Z</time></trkpt><trkpt lat="44.77015387533945" lon="9.433952815047228"><ele>734.0</ele><time>2026-05-03T10:20:10.999Z</time></trkpt><trkpt lat="44.77005797210768" lon="9.433766492536076"><ele>728.0</ele><time>2026-05-03T10:20:11.999Z</time></trkpt><trkpt lat="44.76998623037015" lon="9.433693082942478"><ele>722.0</ele><time>2026-05-03T10:20:13.999Z</time></trkpt><trkpt lat="44.7699294364058" lon="9.433629961013274"><ele>716.0</ele><time>2026-05-03T10:20:15.999Z</time></trkpt><trkpt lat="44.76985552680016" lon="9.433571432152867"><ele>710.0</ele><time>2026-05-03T10:20:17.999Z</time></trkpt><trkpt lat="44.769781275003695" lon="9.433525316758898"><ele>710.0</ele><time>2026-05-03T10:20:19.999Z</time></trkpt><trkpt lat="44.76970115749687" lon="9.433551035616166"><ele>710.0</ele><time>2026-05-03T10:20:23.999Z</time></trkpt><trkpt lat="44.76964338766365" lon="9.433608545830364"><ele>710.0</ele><time>2026-05-03T10:20:29.999Z</time></trkpt><trkpt lat="44.76959675577588" lon="9.43367963929619"><ele>710.0</ele><time>2026-05-03T10:20:32.999Z</time></trkpt><trkpt lat="44.76954413851364" lon="9.43375801584043"><ele>710.0</ele><time>2026-05-03T10:20:35.998Z</time></trkpt><trkpt lat="44.76947263394088" lon="9.433813885151832"><ele>710.0</ele><time>2026-05-03T10:20:38.998Z</time></trkpt><trkpt lat="44.76938973857984" lon="9.433833946268534"><ele>711.3333333333333</ele><time>2026-05-03T10:20:41.998Z</time></trkpt><trkpt lat="44.76931610847091" lon="9.433864496066507"><ele>712.6666666666666</ele><time>2026-05-03T10:20:45.998Z</time></trkpt><trkpt lat="44.76923943684047" lon="9.433886509595586"><ele>714.0</ele><time>2026-05-03T10:20:49.998Z</time></trkpt><trkpt lat="44.76917015653046" lon="9.433901086433524"><ele>715.3333333333334</ele><time>2026-05-03T10:20:52.998Z</time></trkpt><trkpt lat="44.76909438008499" lon="9.433913853251003"><ele>716.6666666666667</ele><time>2026-05-03T10:20:55.998Z</time></trkpt><trkpt lat="44.76902282707683" lon="9.433906691458212"><ele>718.0</ele><time>2026-05-03T10:20:58.998Z</time></trkpt><trkpt lat="44.76894472653743" lon="9.433890193552376"><ele>718.0</ele><time>2026-05-03T10:21:01.998Z</time></trkpt><trkpt lat="44.76883339826851" lon="9.433856520110094"><ele>718.0</ele><time>2026-05-03T10:21:03.998Z</time></trkpt><trkpt lat="44.768740398982814" lon="9.433835635624394"><ele>718.0</ele><time>2026-05-03T10:21:07Z</time></trkpt><trkpt lat="44.76864453364797" lon="9.433795021714065"><ele>718.0</ele><time>2026-05-03T10:21:11Z</time></trkpt><trkpt lat="44.768607342407655" lon="9.43372152828423"><ele>718.0</ele><time>2026-05-03T10:21:13Z</time></trkpt><trkpt lat="44.768564246544024" lon="9.433621021319397"><ele>714.0</ele><time>2026-05-03T10:21:15Z</time></trkpt><trkpt lat="44.76853285900491" lon="9.433530154245721"><ele>710.0</ele><time>2026-05-03T10:21:18Z</time></trkpt><trkpt lat="44.768447442629224" lon="9.433348261318693"><ele>706.0</ele><time>2026-05-03T10:21:19Z</time></trkpt><trkpt lat="44.76843073864969" lon="9.433212795804561"><ele>702.0</ele><time>2026-05-03T10:21:21Z</time></trkpt><trkpt lat="44.76844120467166" lon="9.433081540373767"><ele>698.0</ele><time>2026-05-03T10:21:24Z</time></trkpt><trkpt lat="44.76847075716401" lon="9.43299889988914"><ele>695.2857142857142</ele><time>2026-05-03T10:21:27Z</time></trkpt><trkpt lat="44.76853505184403" lon="9.432962166370254"><ele>692.5714285714286</ele><time>2026-05-03T10:21:29Z</time></trkpt><trkpt lat="44.76860759961509" lon="9.432937613484098"><ele>689.8571428571429</ele><time>2026-05-03T10:21:34Z</time></trkpt><trkpt lat="44.768677258996696" lon="9.432863288280824"><ele>687.1428571428571</ele><time>2026-05-03T10:21:37Z</time></trkpt><trkpt lat="44.76872835669957" lon="9.432802555697556"><ele>684.4285714285714</ele><time>2026-05-03T10:21:40Z</time></trkpt><trkpt lat="44.76871429726095" lon="9.432712413255894"><ele>681.7142857142857</ele><time>2026-05-03T10:21:52.999Z</time></trkpt><trkpt lat="44.768671996936426" lon="9.432636047496848"><ele>679.0</ele><time>2026-05-03T10:21:57.999Z</time></trkpt><trkpt lat="44.76861039002925" lon="9.432542024493955"><ele>679.0</ele><time>2026-05-03T10:22:02.999Z</time></trkpt><trkpt lat="44.768547004865944" lon="9.432499640051088"><ele>679.0</ele><time>2026-05-03T10:22:06.999Z</time></trkpt><trkpt lat="44.768539580470545" lon="9.432409056457256"><ele>679.0</ele><time>2026-05-03T10:22:13.999Z</time></trkpt><trkpt lat="44.76857790835158" lon="9.43232882958847"><ele>679.0</ele><time>2026-05-03T10:22:18.999Z</time></trkpt><trkpt lat="44.76861009402039" lon="9.432251351069793"><ele>679.0</ele><time>2026-05-03T10:22:23.999Z</time></trkpt><trkpt lat="44.76865712709524" lon="9.43214774969103"><ele>679.0</ele><time>2026-05-03T10:22:26.999Z</time></trkpt><trkpt lat="44.76871115710629" lon="9.432086207323023"><ele>679.0</ele><time>2026-05-03T10:22:29.999Z</time></trkpt><trkpt lat="44.76874162867974" lon="9.432002192308737"><ele>676.0</ele><time>2026-05-03T10:22:32.999Z</time></trkpt><trkpt lat="44.76880914860895" lon="9.431934634339063"><ele>673.0</ele><time>2026-05-03T10:26:28.999Z</time></trkpt><trkpt lat="44.768752135106375" lon="9.43179439691401"><ele>670.0</ele><time>2026-05-03T10:26:31.999Z</time></trkpt><trkpt lat="44.76874869434112" lon="9.431701318486317"><ele>667.0</ele><time>2026-05-03T10:26:33.999Z</time></trkpt><trkpt lat="44.7687533235774" lon="9.431573255215875"><ele>664.0</ele><time>2026-05-03T10:26:36.999Z</time></trkpt><trkpt lat="44.76876382510438" lon="9.431470236151059"><ele>661.0</ele><time>2026-05-03T10:26:38.999Z</time></trkpt><trkpt lat="44.76880604590369" lon="9.43134730966512"><ele>658.3333333333334</ele><time>2026-05-03T10:26:40.999Z</time></trkpt><trkpt lat="44.76882602577533" lon="9.431172522919287"><ele>655.6666666666667</ele><time>2026-05-03T10:26:42.999Z</time></trkpt><trkpt lat="44.76883506554848" lon="9.431072175873272"><ele>653.0</ele><time>2026-05-03T10:26:43.999Z</time></trkpt><trkpt lat="44.76884752877518" lon="9.430979901229314"><ele>650.3333333333334</ele><time>2026-05-03T10:26:44.999Z</time></trkpt><trkpt lat="44.76884322132765" lon="9.430890329793794"><ele>647.6666666666666</ele><time>2026-05-03T10:26:45.999Z</time></trkpt><trkpt lat="44.76882516820127" lon="9.430793706738385"><ele>645.0</ele><time>2026-05-03T10:26:46.999Z</time></trkpt><trkpt lat="44.76880465686033" lon="9.430687914827368"><ele>645.0</ele><time>2026-05-03T10:26:47.999Z</time></trkpt><trkpt lat="44.76877984797678" lon="9.430559902329305"><ele>645.0</ele><time>2026-05-03T10:26:48.999Z</time></trkpt><trkpt lat="44.76874740736345" lon="9.430423430244163"><ele>645.0</ele><time>2026-05-03T10:26:49.999Z</time></trkpt><trkpt lat="44.76872645164587" lon="9.430285781096554"><ele>645.0</ele><time>2026-05-03T10:26:50.999Z</time></trkpt><trkpt lat="44.76870873911581" lon="9.43016603124359"><ele>645.0</ele><time>2026-05-03T10:26:51.999Z</time></trkpt><trkpt lat="44.768685967753854" lon="9.430048308548358"><ele>643.0</ele><time>2026-05-03T10:26:52.999Z</time></trkpt><trkpt lat="44.76866096499727" lon="9.42995053157198"><ele>641.0</ele><time>2026-05-03T10:26:53.999Z</time></trkpt><trkpt lat="44.76863973240732" lon="9.429832088048993"><ele>639.0</ele><time>2026-05-03T10:26:55.999Z</time></trkpt><trkpt lat="44.76866176918532" lon="9.429702650652532"><ele>637.0</ele><time>2026-05-03T10:26:57.998Z</time></trkpt><trkpt lat="44.76863871525992" lon="9.429528770926526"><ele>635.0</ele><time>2026-05-03T10:26:59.998Z</time></trkpt><trkpt lat="44.76860929792493" lon="9.429442669323008"><ele>633.0</ele><time>2026-05-03T10:27:00.998Z</time></trkpt><trkpt lat="44.76856149495168" lon="9.429382298680487"><ele>629.3333333333334</ele><time>2026-05-03T10:27:01.998Z</time></trkpt><trkpt lat="44.76850543481634" lon="9.42926647697234"><ele>625.6666666666666</ele><time>2026-05-03T10:27:03.998Z</time></trkpt><trkpt lat="44.76842235326836" lon="9.429241914762096"><ele>622.0</ele><time>2026-05-03T10:27:05.998Z</time></trkpt><trkpt lat="44.76836051173335" lon="9.429283548690062"><ele>618.3333333333333</ele><time>2026-05-03T10:27:06.998Z</time></trkpt><trkpt lat="44.768297006444634" lon="9.429345943219344"><ele>614.6666666666666</ele><time>2026-05-03T10:27:07.998Z</time></trkpt><trkpt lat="44.76822268982569" lon="9.429399078048272"><ele>611.0</ele><time>2026-05-03T10:27:08.998Z</time></trkpt><trkpt lat="44.76813083535018" lon="9.429381676185395"><ele>611.0</ele><time>2026-05-03T10:27:10.998Z</time></trkpt><trkpt lat="44.7680916444287" lon="9.429278609299368"><ele>611.0</ele><time>2026-05-03T10:27:12.998Z</time></trkpt><trkpt lat="44.76802929443661" lon="9.429123727069657"><ele>611.0</ele><time>2026-05-03T10:27:14.998Z</time></trkpt><trkpt lat="44.767974002495315" lon="9.429040319246266"><ele>611.0</ele><time>2026-05-03T10:27:15.998Z</time></trkpt><trkpt lat="44.76792612162922" lon="9.428982174085467"><ele>611.0</ele><time>2026-05-03T10:27:16.998Z</time></trkpt><trkpt lat="44.76789123165162" lon="9.428891455294062"><ele>611.0</ele><time>2026-05-03T10:27:17.998Z</time></trkpt><trkpt lat="44.76784611448579" lon="9.42877647834638"><ele>609.0</ele><time>2026-05-03T10:27:18.998Z</time></trkpt><trkpt lat="44.76779197551295" lon="9.428634411729421"><ele>607.0</ele><time>2026-05-03T10:27:19.998Z</time></trkpt><trkpt lat="44.767745463626966" lon="9.42850227281457"><ele>605.0</ele><time>2026-05-03T10:27:20.998Z</time></trkpt><trkpt lat="44.767722414104476" lon="9.428400552965382"><ele>603.0</ele><time>2026-05-03T10:27:21.998Z</time></trkpt><trkpt lat="44.76771648389984" lon="9.428228942400548"><ele>601.0</ele><time>2026-05-03T10:27:24Z</time></trkpt><trkpt lat="44.76775000499917" lon="9.428130068788153"><ele>601.0</ele><time>2026-05-03T10:27:25Z</time></trkpt><trkpt lat="44.767783911018306" lon="9.428044375520063"><ele>601.0</ele><time>2026-05-03T10:27:26Z</time></trkpt><trkpt lat="44.76780915564384" lon="9.427961453955664"><ele>601.0</ele><time>2026-05-03T10:27:27Z</time></trkpt><trkpt lat="44.76785231772781" lon="9.427888384467813"><ele>601.0</ele><time>2026-05-03T10:27:28Z</time></trkpt><trkpt lat="44.76788317317591" lon="9.427809637746567"><ele>601.0</ele><time>2026-05-03T10:27:29Z</time></trkpt><trkpt lat="44.767824832253844" lon="9.427672335817462"><ele>601.0</ele><time>2026-05-03T10:27:31Z</time></trkpt><trkpt lat="44.76777781095664" lon="9.427510330093837"><ele>601.0</ele><time>2026-05-03T10:27:32Z</time></trkpt><trkpt lat="44.76772011900325" lon="9.42735767692422"><ele>601.0</ele><time>2026-05-03T10:27:33Z</time></trkpt><trkpt lat="44.76766468174379" lon="9.427232373836297"><ele>601.0</ele><time>2026-05-03T10:27:34Z</time></trkpt><trkpt lat="44.76760079024773" lon="9.427131902082225"><ele>601.0</ele><time>2026-05-03T10:27:35Z</time></trkpt><trkpt lat="44.76754306024302" lon="9.427020413138388"><ele>601.0</ele><time>2026-05-03T10:27:36Z</time></trkpt><trkpt lat="44.76749686032379" lon="9.426915181765144"><ele>600.0</ele><time>2026-05-03T10:27:37Z</time></trkpt><trkpt lat="44.76744095363976" lon="9.426826834255191"><ele>599.0</ele><time>2026-05-03T10:27:38Z</time></trkpt><trkpt lat="44.7673855126448" lon="9.426746129868171"><ele>598.0</ele><time>2026-05-03T10:27:39Z</time></trkpt><trkpt lat="44.767333993484456" lon="9.426662218116679"><ele>597.0</ele><time>2026-05-03T10:27:40Z</time></trkpt><trkpt lat="44.767297541241454" lon="9.426573079572666"><ele>596.0</ele><time>2026-05-03T10:27:41Z</time></trkpt><trkpt lat="44.76727954979444" lon="9.426475619551287"><ele>595.0</ele><time>2026-05-03T10:27:42Z</time></trkpt><trkpt lat="44.76726182678317" lon="9.426366755219307"><ele>594.1666666666667</ele><time>2026-05-03T10:27:43Z</time></trkpt><trkpt lat="44.767240086114604" lon="9.42626417394881"><ele>593.3333333333334</ele><time>2026-05-03T10:27:44Z</time></trkpt><trkpt lat="44.76722417484113" lon="9.42616062014236"><ele>592.5</ele><time>2026-05-03T10:27:45Z</time></trkpt><trkpt lat="44.767205324589284" lon="9.426057168616"><ele>591.6666666666666</ele><time>2026-05-03T10:27:46Z</time></trkpt><trkpt lat="44.767190676861716" lon="9.425948679459093"><ele>590.8333333333333</ele><time>2026-05-03T10:27:47Z</time></trkpt><trkpt lat="44.76718524176317" lon="9.425846368484182"><ele>590.0</ele><time>2026-05-03T10:27:48Z</time></trkpt><trkpt lat="44.76719982957602" lon="9.425740714023554"><ele>590.0</ele><time>2026-05-03T10:27:49Z</time></trkpt><trkpt lat="44.76722033244964" lon="9.425641415592564"><ele>590.0</ele><time>2026-05-03T10:27:50Z</time></trkpt><trkpt lat="44.76724057101476" lon="9.425544763287252"><ele>590.0</ele><time>2026-05-03T10:27:51Z</time></trkpt><trkpt lat="44.76724542073282" lon="9.425401046286128"><ele>590.0</ele><time>2026-05-03T10:27:53Z</time></trkpt><trkpt lat="44.767189411837094" lon="9.425302498494348"><ele>590.0</ele><time>2026-05-03T10:27:55Z</time></trkpt><trkpt lat="44.76714832819453" lon="9.42515643581099"><ele>590.0</ele><time>2026-05-03T10:27:57Z</time></trkpt><trkpt lat="44.76716330143503" lon="9.424996735745584"><ele>588.8</ele><time>2026-05-03T10:27:59Z</time></trkpt><trkpt lat="44.76719119231717" lon="9.42484683102852"><ele>587.6</ele><time>2026-05-03T10:28:01Z</time></trkpt><trkpt lat="44.76719824401402" lon="9.424705300697381"><ele>586.4</ele><time>2026-05-03T10:28:03Z</time></trkpt><trkpt lat="44.76719034568984" lon="9.424560505798759"><ele>585.2</ele><time>2026-05-03T10:28:05Z</time></trkpt><trkpt lat="44.767129548920174" lon="9.424432838640751"><ele>584.0</ele><time>2026-05-03T10:28:07Z</time></trkpt><trkpt lat="44.767066984731166" lon="9.42428925721519"><ele>584.0</ele><time>2026-05-03T10:28:08.999Z</time></trkpt><trkpt lat="44.766951990450515" lon="9.424178313523749"><ele>584.0</ele><time>2026-05-03T10:28:10.999Z</time></trkpt><trkpt lat="44.76687346249695" lon="9.424125787481724"><ele>584.0</ele><time>2026-05-03T10:28:11.999Z</time></trkpt><trkpt lat="44.76679666296165" lon="9.424068104242322"><ele>584.0</ele><time>2026-05-03T10:28:12.999Z</time></trkpt><trkpt lat="44.766727426726284" lon="9.424027623668048"><ele>584.0</ele><time>2026-05-03T10:28:13.999Z</time></trkpt><trkpt lat="44.76661159152707" lon="9.423978059710526"><ele>584.2</ele><time>2026-05-03T10:28:15.999Z</time></trkpt><trkpt lat="44.766521412119424" lon="9.423863995711752"><ele>584.4</ele><time>2026-05-03T10:28:17.999Z</time></trkpt><trkpt lat="44.766476695725274" lon="9.423767794368203"><ele>584.6</ele><time>2026-05-03T10:28:18.999Z</time></trkpt><trkpt lat="44.76643770109535" lon="9.423667545345085"><ele>584.8</ele><time>2026-05-03T10:28:19.999Z</time></trkpt><trkpt lat="44.766388530017416" lon="9.423561742991993"><ele>585.0</ele><time>2026-05-03T10:28:20.999Z</time></trkpt><trkpt lat="44.766335632981615" lon="9.423419045090517"><ele>585.0</ele><time>2026-05-03T10:28:21.999Z</time></trkpt><trkpt lat="44.76628475999448" lon="9.423263186214541"><ele>585.0</ele><time>2026-05-03T10:28:22.999Z</time></trkpt><trkpt lat="44.76624214348211" lon="9.423110941380356"><ele>585.0</ele><time>2026-05-03T10:28:23.999Z</time></trkpt><trkpt lat="44.76620293656953" lon="9.422968840595418"><ele>585.0</ele><time>2026-05-03T10:28:24.999Z</time></trkpt><trkpt lat="44.766162528619965" lon="9.422850453300322"><ele>585.0</ele><time>2026-05-03T10:28:25.999Z</time></trkpt><trkpt lat="44.76612119041531" lon="9.422738686225044"><ele>585.0</ele><time>2026-05-03T10:28:26.999Z</time></trkpt><trkpt lat="44.76608264075737" lon="9.42262346976754"><ele>585.0</ele><time>2026-05-03T10:28:27.999Z</time></trkpt><trkpt lat="44.76605751793395" lon="9.422509490893132"><ele>585.0</ele><time>2026-05-03T10:28:28.999Z</time></trkpt><trkpt lat="44.76605416843569" lon="9.42239099237368"><ele>585.0</ele><time>2026-05-03T10:28:29.999Z</time></trkpt><trkpt lat="44.766065029720785" lon="9.422263429234599"><ele>585.0</ele><time>2026-05-03T10:28:30.999Z</time></trkpt><trkpt lat="44.766070182636696" lon="9.422133034955529"><ele>585.0</ele><time>2026-05-03T10:28:31.999Z</time></trkpt><trkpt lat="44.766063265402735" lon="9.422023415699684"><ele>586.6</ele><time>2026-05-03T10:28:32.999Z</time></trkpt><trkpt lat="44.76601817653915" lon="9.421864937554801"><ele>588.2</ele><time>2026-05-03T10:28:34.999Z</time></trkpt><trkpt lat="44.76598143469633" lon="9.421740831266396"><ele>589.8</ele><time>2026-05-03T10:28:36.999Z</time></trkpt><trkpt lat="44.765927770640786" lon="9.421623957147325"><ele>591.4</ele><time>2026-05-03T10:28:43.999Z</time></trkpt><trkpt lat="44.76586207311393" lon="9.421558972213392"><ele>593.0</ele><time>2026-05-03T10:28:45.999Z</time></trkpt><trkpt lat="44.76575188732858" lon="9.421531597295639"><ele>593.0</ele><time>2026-05-03T10:28:47.999Z</time></trkpt><trkpt lat="44.76564652566087" lon="9.421548130081838"><ele>593.0</ele><time>2026-05-03T10:28:49.999Z</time></trkpt><trkpt lat="44.76556238321649" lon="9.421659668649376"><ele>593.0</ele><time>2026-05-03T10:28:51.999Z</time></trkpt><trkpt lat="44.7655004425041" lon="9.421791374085972"><ele>593.0</ele><time>2026-05-03T10:28:53.999Z</time></trkpt><trkpt lat="44.76538887056365" lon="9.4218176966076"><ele>593.0</ele><time>2026-05-03T10:28:55.999Z</time></trkpt><trkpt lat="44.76531477074843" lon="9.42179111088126"><ele>593.0</ele><time>2026-05-03T10:28:56.999Z</time></trkpt><trkpt lat="44.76523242097084" lon="9.421758670926227"><ele>593.0</ele><time>2026-05-03T10:28:57.999Z</time></trkpt><trkpt lat="44.765145673658715" lon="9.421762021069716"><ele>593.0</ele><time>2026-05-03T10:28:58.999Z</time></trkpt><trkpt lat="44.76505639379598" lon="9.42178675129673"><ele>593.0</ele><time>2026-05-03T10:28:59.999Z</time></trkpt><trkpt lat="44.764977501776315" lon="9.421848705724818"><ele>593.0</ele><time>2026-05-03T10:29:00.999Z</time></trkpt><trkpt lat="44.76488230276369" lon="9.421910876245661"><ele>593.1999999999999</ele><time>2026-05-03T10:29:01.999Z</time></trkpt><trkpt lat="44.76479180819619" lon="9.421971654652364"><ele>593.4</ele><time>2026-05-03T10:29:02.998Z</time></trkpt><trkpt lat="44.76471171570193" lon="9.422041420952095"><ele>593.5999999999999</ele><time>2026-05-03T10:29:03.998Z</time></trkpt><trkpt lat="44.7646430157928" lon="9.422131364777904"><ele>593.8</ele><time>2026-05-03T10:29:04.998Z</time></trkpt><trkpt lat="44.76459361735778" lon="9.422230062956185"><ele>594.0</ele><time>2026-05-03T10:29:05.998Z</time></trkpt><trkpt lat="44.764536119874634" lon="9.422341429240616"><ele>594.0</ele><time>2026-05-03T10:29:06.998Z</time></trkpt><trkpt lat="44.76447922148355" lon="9.422403889961515"><ele>594.0</ele><time>2026-05-03T10:29:07.998Z</time></trkpt><trkpt lat="44.76441563998884" lon="9.42242703834219"><ele>594.0</ele><time>2026-05-03T10:29:08.998Z</time></trkpt><trkpt lat="44.76434022739819" lon="9.422427708516919"><ele>594.0</ele><time>2026-05-03T10:29:09.998Z</time></trkpt><trkpt lat="44.764245450248836" lon="9.422428657088485"><ele>594.0</ele><time>2026-05-03T10:29:10.998Z</time></trkpt><trkpt lat="44.76415933491374" lon="9.422454430576915"><ele>594.0</ele><time>2026-05-03T10:29:11.998Z</time></trkpt><trkpt lat="44.76407052477301" lon="9.422506393885348"><ele>595.6666666666666</ele><time>2026-05-03T10:29:12.998Z</time></trkpt><trkpt lat="44.763982690362056" lon="9.422545915847737"><ele>597.3333333333334</ele><time>2026-05-03T10:29:13.998Z</time></trkpt><trkpt lat="44.76390058386571" lon="9.42257637018483"><ele>599.0</ele><time>2026-05-03T10:29:14.998Z</time></trkpt><trkpt lat="44.763827505671145" lon="9.422606587382528"><ele>600.6666666666667</ele><time>2026-05-03T10:29:15.998Z</time></trkpt><trkpt lat="44.76375264624111" lon="9.42265152914012"><ele>602.3333333333334</ele><time>2026-05-03T10:29:16.998Z</time></trkpt><trkpt lat="44.76368119297555" lon="9.422705002137924"><ele>604.0</ele><time>2026-05-03T10:29:17.998Z</time></trkpt><trkpt lat="44.763624031895795" lon="9.422765619122124"><ele>604.0000000000001</ele><time>2026-05-03T10:29:18.998Z</time></trkpt><trkpt lat="44.76358308834222" lon="9.42283517202207"><ele>604.0</ele><time>2026-05-03T10:29:19.998Z</time></trkpt><trkpt lat="44.763543628242324" lon="9.422919417590736"><ele>604.0</ele><time>2026-05-03T10:29:20.998Z</time></trkpt><trkpt lat="44.76352072390573" lon="9.423021275259016"><ele>604.0</ele><time>2026-05-03T10:29:21.998Z</time></trkpt><trkpt lat="44.763506805959146" lon="9.42311497560153"><ele>604.0</ele><time>2026-05-03T10:29:22.998Z</time></trkpt><trkpt lat="44.76347149282889" lon="9.42319046675784"><ele>604.0000000000001</ele><time>2026-05-03T10:29:23.998Z</time></trkpt><trkpt lat="44.76341881676291" lon="9.423257732403084"><ele>604.0</ele><time>2026-05-03T10:29:24.998Z</time></trkpt><trkpt lat="44.763350941713774" lon="9.423326953116364"><ele>608.0</ele><time>2026-05-03T10:29:25.998Z</time></trkpt><trkpt lat="44.763272832222206" lon="9.423414251642507"><ele>612.0</ele><time>2026-05-03T10:29:26.998Z</time></trkpt><trkpt lat="44.76319928796352" lon="9.42350634260328"><ele>616.0</ele><time>2026-05-03T10:29:27.998Z</time></trkpt><trkpt lat="44.763150917592704" lon="9.423606021493084"><ele>620.0</ele><time>2026-05-03T10:29:28.998Z</time></trkpt><trkpt lat="44.7631206398898" lon="9.423730601220342"><ele>624.0</ele><time>2026-05-03T10:29:30Z</time></trkpt><trkpt lat="44.763108813810184" lon="9.42385461724827"><ele>624.8</ele><time>2026-05-03T10:29:31Z</time></trkpt><trkpt lat="44.76308307256048" lon="9.423958050997404"><ele>625.5999999999999</ele><time>2026-05-03T10:29:32Z</time></trkpt><trkpt lat="44.76303041537736" lon="9.424061988810942"><ele>626.4</ele><time>2026-05-03T10:29:33Z</time></trkpt><trkpt lat="44.76295455030388" lon="9.424171561078552"><ele>627.1999999999999</ele><time>2026-05-03T10:29:34Z</time></trkpt><trkpt lat="44.76285666622458" lon="9.424286595572758"><ele>628.0</ele><time>2026-05-03T10:29:35Z</time></trkpt><trkpt lat="44.76276254303728" lon="9.424402335846247"><ele>628.6</ele><time>2026-05-03T10:29:36Z</time></trkpt><trkpt lat="44.76267835128938" lon="9.424509537408804"><ele>629.1999999999999</ele><time>2026-05-03T10:29:37Z</time></trkpt><trkpt lat="44.76259770624038" lon="9.424604617132088"><ele>629.8</ele><time>2026-05-03T10:29:38Z</time></trkpt><trkpt lat="44.76250960215049" lon="9.424691179681812"><ele>630.4</ele><time>2026-05-03T10:29:39Z</time></trkpt><trkpt lat="44.76241198971229" lon="9.424778458853611"><ele>631.0</ele><time>2026-05-03T10:29:40Z</time></trkpt><trkpt lat="44.762327373957554" lon="9.424841427951637"><ele>633.2</ele><time>2026-05-03T10:29:41Z</time></trkpt><trkpt lat="44.76227639827566" lon="9.424897869911277"><ele>635.4000000000001</ele><time>2026-05-03T10:29:42Z</time></trkpt><trkpt lat="44.76227260749598" lon="9.42502611376861"><ele>637.6</ele><time>2026-05-03T10:29:44Z</time></trkpt><trkpt lat="44.76238185298563" lon="9.425128060094181"><ele>639.8000000000001</ele><time>2026-05-03T10:29:46Z</time></trkpt><trkpt lat="44.76246514642436" lon="9.425132300296287"><ele>642.0</ele><time>2026-05-03T10:29:47Z</time></trkpt><trkpt lat="44.76255511762852" lon="9.425148505557699"><ele>642.0</ele><time>2026-05-03T10:29:48Z</time></trkpt><trkpt lat="44.76262635821492" lon="9.425161961095894"><ele>642.0</ele><time>2026-05-03T10:29:49Z</time></trkpt><trkpt lat="44.762698240950456" lon="9.425200188360781"><ele>642.0</ele><time>2026-05-03T10:29:50Z</time></trkpt><trkpt lat="44.76276730534918" lon="9.425233045363665"><ele>642.0</ele><time>2026-05-03T10:29:51Z</time></trkpt><trkpt lat="44.76284659466828" lon="9.425265520985626"><ele>642.0</ele><time>2026-05-03T10:29:52Z</time></trkpt><trkpt lat="44.76293117656339" lon="9.42529827355265"><ele>642.0</ele><time>2026-05-03T10:29:53Z</time></trkpt><trkpt lat="44.76301039570848" lon="9.425336204803171"><ele>641.1666666666666</ele><time>2026-05-03T10:29:54Z</time></trkpt><trkpt lat="44.76307977900954" lon="9.425379873581663"><ele>640.3333333333334</ele><time>2026-05-03T10:29:55Z</time></trkpt><trkpt lat="44.76312833673858" lon="9.425459084233987"><ele>639.5</ele><time>2026-05-03T10:29:56Z</time></trkpt><trkpt lat="44.76317074880328" lon="9.425562836805687"><ele>638.6666666666667</ele><time>2026-05-03T10:29:57Z</time></trkpt><trkpt lat="44.76321267595383" lon="9.425668810402845"><ele>637.8333333333334</ele><time>2026-05-03T10:29:58Z</time></trkpt><trkpt lat="44.76323965240061" lon="9.425770426903954"><ele>637.0</ele><time>2026-05-03T10:29:59Z</time></trkpt><trkpt lat="44.76327220265408" lon="9.425884232611143"><ele>640.0</ele><time>2026-05-03T10:30:00Z</time></trkpt><trkpt lat="44.76331726341504" lon="9.426011188971653"><ele>643.0</ele><time>2026-05-03T10:30:01Z</time></trkpt><trkpt lat="44.76334059585059" lon="9.426117026151461"><ele>646.0</ele><time>2026-05-03T10:30:02Z</time></trkpt><trkpt lat="44.76333892839174" lon="9.426208688218175"><ele>649.0</ele><time>2026-05-03T10:30:03Z</time></trkpt><trkpt lat="44.76326304301566" lon="9.426339348092133"><ele>652.0</ele><time>2026-05-03T10:30:05Z</time></trkpt><trkpt lat="44.763209817097035" lon="9.426422744753335"><ele>655.0</ele><time>2026-05-03T10:30:06Z</time></trkpt><trkpt lat="44.763163395998745" lon="9.426524591699861"><ele>657.6</ele><time>2026-05-03T10:30:07Z</time></trkpt><trkpt lat="44.76313704888351" lon="9.426645562050155"><ele>660.2</ele><time>2026-05-03T10:30:08Z</time></trkpt><trkpt lat="44.76311237850504" lon="9.426773849394344"><ele>662.8</ele><time>2026-05-03T10:30:09Z</time></trkpt><trkpt lat="44.763079118795616" lon="9.426908614663027"><ele>665.4</ele><time>2026-05-03T10:30:10Z</time></trkpt><trkpt lat="44.763036768971276" lon="9.427031113370992"><ele>668.0</ele><time>2026-05-03T10:30:10.999Z</time></trkpt><trkpt lat="44.7630082376862" lon="9.427152280981407"><ele>670.5999999999999</ele><time>2026-05-03T10:30:11.999Z</time></trkpt><trkpt lat="44.7629744506225" lon="9.427323688961255"><ele>673.1999999999999</ele><time>2026-05-03T10:30:12.999Z</time></trkpt><trkpt lat="44.76294006967868" lon="9.427477900841563"><ele>675.8</ele><time>2026-05-03T10:30:13.999Z</time></trkpt><trkpt lat="44.762918711672704" lon="9.427625915803704"><ele>678.4</ele><time>2026-05-03T10:30:14.999Z</time></trkpt><trkpt lat="44.76291010476004" lon="9.427738176033417"><ele>681.0</ele><time>2026-05-03T10:30:15.999Z</time></trkpt><trkpt lat="44.76293493279042" lon="9.427850295328286"><ele>682.1999999999999</ele><time>2026-05-03T10:30:16.999Z</time></trkpt><trkpt lat="44.76295784527911" lon="9.427993660964678"><ele>683.4</ele><time>2026-05-03T10:30:17.999Z</time></trkpt><trkpt lat="44.76297963359244" lon="9.428132315173665"><ele>684.6</ele><time>2026-05-03T10:30:18.999Z</time></trkpt><trkpt lat="44.76300024700707" lon="9.428266683156798"><ele>685.8</ele><time>2026-05-03T10:30:19.999Z</time></trkpt><trkpt lat="44.76301619008504" lon="9.428389083049785"><ele>687.0</ele><time>2026-05-03T10:30:20.999Z</time></trkpt><trkpt lat="44.763033423280376" lon="9.428518556896137"><ele>687.0</ele><time>2026-05-03T10:30:21.999Z</time></trkpt><trkpt lat="44.76306350605856" lon="9.428649478379501"><ele>687.0</ele><time>2026-05-03T10:30:22.999Z</time></trkpt><trkpt lat="44.76308599435042" lon="9.428772332134452"><ele>687.0</ele><time>2026-05-03T10:30:23.999Z</time></trkpt><trkpt lat="44.763116213157" lon="9.42889244969865"><ele>687.0</ele><time>2026-05-03T10:30:24.999Z</time></trkpt><trkpt lat="44.763140291509906" lon="9.429010954902555"><ele>687.0</ele><time>2026-05-03T10:30:25.999Z</time></trkpt><trkpt lat="44.76316155845889" lon="9.429121217922107"><ele>687.0</ele><time>2026-05-03T10:30:26.999Z</time></trkpt><trkpt lat="44.76318369655368" lon="9.429236143735011"><ele>686.2</ele><time>2026-05-03T10:30:27.999Z</time></trkpt><trkpt lat="44.76321347874456" lon="9.429345104122156"><ele>685.4000000000001</ele><time>2026-05-03T10:30:28.999Z</time></trkpt><trkpt lat="44.763255874528696" lon="9.429459570691739"><ele>684.5999999999999</ele><time>2026-05-03T10:30:29.999Z</time></trkpt><trkpt lat="44.76331951445512" lon="9.42957520789729"><ele>683.8</ele><time>2026-05-03T10:30:30.999Z</time></trkpt><trkpt lat="44.763400956169164" lon="9.429706054207708"><ele>683.0</ele><time>2026-05-03T10:30:31.999Z</time></trkpt><trkpt lat="44.76347741676349" lon="9.429845424354689"><ele>680.4</ele><time>2026-05-03T10:30:32.999Z</time></trkpt><trkpt lat="44.7635534048878" lon="9.429956892322757"><ele>677.8</ele><time>2026-05-03T10:30:33.999Z</time></trkpt><trkpt lat="44.763623179874486" lon="9.430078710327782"><ele>675.2</ele><time>2026-05-03T10:30:34.999Z</time></trkpt><trkpt lat="44.763697974733425" lon="9.430199956023444"><ele>672.6</ele><time>2026-05-03T10:30:35.999Z</time></trkpt><trkpt lat="44.76376890598297" lon="9.430314826663976"><ele>670.0</ele><time>2026-05-03T10:30:36.999Z</time></trkpt><trkpt lat="44.76385550356129" lon="9.430414084109259"><ele>671.6</ele><time>2026-05-03T10:30:37.999Z</time></trkpt><trkpt lat="44.7639333790479" lon="9.430514465369326"><ele>673.2</ele><time>2026-05-03T10:30:38.999Z</time></trkpt><trkpt lat="44.764002297230256" lon="9.430617225411524"><ele>674.8</ele><time>2026-05-03T10:30:39.999Z</time></trkpt><trkpt lat="44.764046065365385" lon="9.43071879341474"><ele>676.4</ele><time>2026-05-03T10:30:40.999Z</time></trkpt><trkpt lat="44.76409072256727" lon="9.430826532372249"><ele>678.0</ele><time>2026-05-03T10:30:41.999Z</time></trkpt><trkpt lat="44.76412312304263" lon="9.430949547013407"><ele>678.0</ele><time>2026-05-03T10:30:42.999Z</time></trkpt><trkpt lat="44.76414991563841" lon="9.431083129997486"><ele>678.0</ele><time>2026-05-03T10:30:43.999Z</time></trkpt><trkpt lat="44.76418903091703" lon="9.431252055010185"><ele>678.0</ele><time>2026-05-03T10:30:44.999Z</time></trkpt><trkpt lat="44.76421842976087" lon="9.43139474700619"><ele>678.0</ele><time>2026-05-03T10:30:45.999Z</time></trkpt><trkpt lat="44.76425042754826" lon="9.431522876166476"><ele>678.0</ele><time>2026-05-03T10:30:46.999Z</time></trkpt><trkpt lat="44.7642881303801" lon="9.431640696898365"><ele>677.25</ele><time>2026-05-03T10:30:47.999Z</time></trkpt><trkpt lat="44.76432851966302" lon="9.431783951994454"><ele>676.5</ele><time>2026-05-03T10:30:48.999Z</time></trkpt><trkpt lat="44.76437203645885" lon="9.431960057619856"><ele>675.75</ele><time>2026-05-03T10:30:49.999Z</time></trkpt><trkpt lat="44.76441252242032" lon="9.432133696421973"><ele>675.0</ele><time>2026-05-03T10:30:50.999Z</time></trkpt><trkpt lat="44.76443511415825" lon="9.432272167970552"><ele>677.3333333333334</ele><time>2026-05-03T10:30:51.999Z</time></trkpt><trkpt lat="44.76444189595409" lon="9.43237807918717"><ele>679.6666666666666</ele><time>2026-05-03T10:30:52.999Z</time></trkpt><trkpt lat="44.76442158350747" lon="9.432477149084045"><ele>682.0</ele><time>2026-05-03T10:30:53.999Z</time></trkpt><trkpt lat="44.76440625507149" lon="9.432572696925307"><ele>684.3333333333333</ele><time>2026-05-03T10:30:54.999Z</time></trkpt><trkpt lat="44.7644135702859" lon="9.432676770798782"><ele>686.6666666666666</ele><time>2026-05-03T10:30:55.999Z</time></trkpt><trkpt lat="44.76443803645685" lon="9.432799774345735"><ele>689.0</ele><time>2026-05-03T10:30:56.999Z</time></trkpt><trkpt lat="44.764467761138874" lon="9.432946645526226"><ele>691.5</ele><time>2026-05-03T10:30:57.999Z</time></trkpt><trkpt lat="44.764507911005076" lon="9.433094800891665"><ele>694.0</ele><time>2026-05-03T10:30:58.999Z</time></trkpt><trkpt lat="44.76455563982432" lon="9.433273516220902"><ele>696.5</ele><time>2026-05-03T10:30:59.999Z</time></trkpt><trkpt lat="44.76459797634887" lon="9.43344968401614"><ele>699.0</ele><time>2026-05-03T10:31:00.999Z</time></trkpt><trkpt lat="44.764621666869765" lon="9.433612708845645"><ele>699.0</ele><time>2026-05-03T10:31:01.999Z</time></trkpt><trkpt lat="44.76463120286152" lon="9.433748323811805"><ele>699.0</ele><time>2026-05-03T10:31:02.999Z</time></trkpt><trkpt lat="44.76464065778511" lon="9.43388327403183"><ele>699.0</ele><time>2026-05-03T10:31:03.999Z</time></trkpt><trkpt lat="44.76465524035437" lon="9.433998289003382"><ele>699.0</ele><time>2026-05-03T10:31:04.999Z</time></trkpt><trkpt lat="44.76465077586433" lon="9.434092154724501"><ele>699.0</ele><time>2026-05-03T10:31:05.998Z</time></trkpt><trkpt lat="44.76464246382801" lon="9.434181574112863"><ele>699.0</ele><time>2026-05-03T10:31:06.998Z</time></trkpt><trkpt lat="44.76463478602813" lon="9.434307072303518"><ele>700.2</ele><time>2026-05-03T10:31:07.998Z</time></trkpt><trkpt lat="44.76461555989312" lon="9.434399781124563"><ele>701.4000000000001</ele><time>2026-05-03T10:31:08.998Z</time></trkpt><trkpt lat="44.764573503003355" lon="9.43454023116526"><ele>702.6</ele><time>2026-05-03T10:31:09.998Z</time></trkpt><trkpt lat="44.76452331774615" lon="9.434712532064955"><ele>703.8</ele><time>2026-05-03T10:31:10.998Z</time></trkpt><trkpt lat="44.76448577215293" lon="9.434892971121943"><ele>705.0</ele><time>2026-05-03T10:31:11.998Z</time></trkpt><trkpt lat="44.76444878131884" lon="9.435081956178506"><ele>706.8</ele><time>2026-05-03T10:31:12.998Z</time></trkpt><trkpt lat="44.76442446006261" lon="9.435213782347155"><ele>708.6</ele><time>2026-05-03T10:31:13.998Z</time></trkpt><trkpt lat="44.76445231767982" lon="9.435373295287253"><ele>710.4000000000001</ele><time>2026-05-03T10:31:15.998Z</time></trkpt><trkpt lat="44.76453282625819" lon="9.435460246063558"><ele>712.2</ele><time>2026-05-03T10:31:17.998Z</time></trkpt><trkpt lat="44.76460553708612" lon="9.435554666960453"><ele>714.0</ele><time>2026-05-03T10:31:19.998Z</time></trkpt><trkpt lat="44.76468193043983" lon="9.43564090844821"><ele>716.5</ele><time>2026-05-03T10:31:23.998Z</time></trkpt><trkpt lat="44.76475841645051" lon="9.435609274431775"><ele>719.0</ele><time>2026-05-03T10:31:25.998Z</time></trkpt><trkpt lat="44.7648290618844" lon="9.4355645576276"><ele>721.5</ele><time>2026-05-03T10:31:27.998Z</time></trkpt><trkpt lat="44.7648842904067" lon="9.435655886517846"><ele>724.0</ele><time>2026-05-03T10:31:30.998Z</time></trkpt><trkpt lat="44.764891690187355" lon="9.435795193800294"><ele>726.5</ele><time>2026-05-03T10:31:32.998Z</time></trkpt><trkpt lat="44.764920137628906" lon="9.435908192014598"><ele>729.0</ele><time>2026-05-03T10:31:34.998Z</time></trkpt><trkpt lat="44.76495305214698" lon="9.436060456580499"><ele>729.0</ele><time>2026-05-03T10:31:37Z</time></trkpt><trkpt lat="44.765011148090444" lon="9.436187878614907"><ele>729.0</ele><time>2026-05-03T10:31:39Z</time></trkpt><trkpt lat="44.76511482519347" lon="9.43618443013563"><ele>729.0</ele><time>2026-05-03T10:31:41Z</time></trkpt><trkpt lat="44.765179327248916" lon="9.436163249930999"><ele>729.0</ele><time>2026-05-03T10:31:42Z</time></trkpt><trkpt lat="44.765253296757336" lon="9.436108296986035"><ele>729.0</ele><time>2026-05-03T10:31:43Z</time></trkpt><trkpt lat="44.765320287381414" lon="9.436094985766895"><ele>729.0</ele><time>2026-05-03T10:31:44Z</time></trkpt><trkpt lat="44.76536668503051" lon="9.436203537386353"><ele>731.6666666666666</ele><time>2026-05-03T10:31:47Z</time></trkpt><trkpt lat="44.765308376273104" lon="9.436326872702114"><ele>734.3333333333334</ele><time>2026-05-03T10:31:50Z</time></trkpt><trkpt lat="44.76530822304692" lon="9.436416109203629"><ele>737.0</ele><time>2026-05-03T10:31:51Z</time></trkpt><trkpt lat="44.765234254015404" lon="9.436555343150594"><ele>739.6666666666667</ele><time>2026-05-03T10:31:52Z</time></trkpt><trkpt lat="44.76519516903758" lon="9.436637782300192"><ele>742.3333333333334</ele><time>2026-05-03T10:31:54Z</time></trkpt><trkpt lat="44.765257531806874" lon="9.436705463237617"><ele>745.0</ele><time>2026-05-03T10:33:26.998Z</time></trkpt><trkpt lat="44.76533636168349" lon="9.436737592391331"><ele>745.6</ele><time>2026-05-03T10:33:28.998Z</time></trkpt><trkpt lat="44.76540265741013" lon="9.43680393421088"><ele>746.2</ele><time>2026-05-03T10:33:40.998Z</time></trkpt><trkpt lat="44.76549035755217" lon="9.436888318137333"><ele>746.8</ele><time>2026-05-03T10:33:44Z</time></trkpt><trkpt lat="44.76558148935923" lon="9.43696648336803"><ele>747.4</ele><time>2026-05-03T10:33:46Z</time></trkpt><trkpt lat="44.765606797877716" lon="9.4371045519207"><ele>748.0</ele><time>2026-05-03T10:33:48Z</time></trkpt><trkpt lat="44.76564101185562" lon="9.437262180508755"><ele>752.0</ele><time>2026-05-03T10:33:50Z</time></trkpt><trkpt lat="44.76568295637405" lon="9.437389616517098"><ele>756.0</ele><time>2026-05-03T10:33:52Z</time></trkpt><trkpt lat="44.765779466300906" lon="9.43749370147544"><ele>760.0</ele><time>2026-05-03T10:33:54Z</time></trkpt><trkpt lat="44.76582148535873" lon="9.437568568121431"><ele>764.0</ele><time>2026-05-03T10:33:55Z</time></trkpt><trkpt lat="44.76585218075132" lon="9.437677510878443"><ele>768.0</ele><time>2026-05-03T10:33:56Z</time></trkpt><trkpt lat="44.76589295156272" lon="9.437785719666154"><ele>768.0</ele><time>2026-05-03T10:33:57Z</time></trkpt><trkpt lat="44.76593979753982" lon="9.437896388296382"><ele>768.0</ele><time>2026-05-03T10:33:58Z</time></trkpt><trkpt lat="44.76597416554905" lon="9.43803349441006"><ele>768.0</ele><time>2026-05-03T10:33:59Z</time></trkpt><trkpt lat="44.76599100906083" lon="9.438235347183308"><ele>768.0</ele><time>2026-05-03T10:34:01Z</time></trkpt><trkpt lat="44.7660037980986" lon="9.438409595142328"><ele>767.2</ele><time>2026-05-03T10:34:02Z</time></trkpt><trkpt lat="44.7660534588998" lon="9.438524661783855"><ele>766.4</ele><time>2026-05-03T10:34:03Z</time></trkpt><trkpt lat="44.766115103445955" lon="9.438670836833188"><ele>765.6</ele><time>2026-05-03T10:34:04Z</time></trkpt><trkpt lat="44.76616914758725" lon="9.438812373988737"><ele>764.8000000000001</ele><time>2026-05-03T10:34:05Z</time></trkpt><trkpt lat="44.76619943926498" lon="9.438942587459305"><ele>764.0</ele><time>2026-05-03T10:34:06Z</time></trkpt><trkpt lat="44.766196968110286" lon="9.439156836886248"><ele>767.5</ele><time>2026-05-03T10:34:08Z</time></trkpt><trkpt lat="44.76620123005311" lon="9.439296960369974"><ele>771.0</ele><time>2026-05-03T10:34:09Z</time></trkpt><trkpt lat="44.766228401862335" lon="9.439439264771172"><ele>774.5</ele><time>2026-05-03T10:34:10Z</time></trkpt><trkpt lat="44.76630260750504" lon="9.439591279552957"><ele>778.0</ele><time>2026-05-03T10:34:11Z</time></trkpt><trkpt lat="44.76638183948861" lon="9.439749287911077"><ele>780.2</ele><time>2026-05-03T10:34:12Z</time></trkpt><trkpt lat="44.76645119985323" lon="9.439863886959465"><ele>782.4</ele><time>2026-05-03T10:34:13Z</time></trkpt><trkpt lat="44.766519162255726" lon="9.439949983662288"><ele>784.6</ele><time>2026-05-03T10:34:14Z</time></trkpt><trkpt lat="44.766587645043664" lon="9.440042783049986"><ele>786.8000000000001</ele><time>2026-05-03T10:34:15Z</time></trkpt><trkpt lat="44.76665762268324" lon="9.440140185516366"><ele>789.0</ele><time>2026-05-03T10:34:16Z</time></trkpt><trkpt lat="44.766702457603294" lon="9.440224468980977"><ele>789.0</ele><time>2026-05-03T10:34:17Z</time></trkpt><trkpt lat="44.76672417944534" lon="9.44033459709314"><ele>789.0</ele><time>2026-05-03T10:34:18Z</time></trkpt><trkpt lat="44.76672721126764" lon="9.440435768391268"><ele>789.0</ele><time>2026-05-03T10:34:19Z</time></trkpt><trkpt lat="44.766723977631166" lon="9.440536783093323"><ele>789.0</ele><time>2026-05-03T10:34:20.999Z</time></trkpt><trkpt lat="44.76676493865785" lon="9.440623456814826"><ele>789.0</ele><time>2026-05-03T10:36:07Z</time></trkpt><trkpt lat="44.766726837049475" lon="9.440741326006812"><ele>789.0</ele><time>2026-05-03T10:36:09Z</time></trkpt><trkpt lat="44.766729560959604" lon="9.440867334431717"><ele>790.6666666666666</ele><time>2026-05-03T10:36:12Z</time></trkpt><trkpt lat="44.766740407316405" lon="9.440967855907866"><ele>792.3333333333333</ele><time>2026-05-03T10:36:14Z</time></trkpt><trkpt lat="44.76677444800793" lon="9.441075401982664"><ele>794.0</ele><time>2026-05-03T10:36:16Z</time></trkpt><trkpt lat="44.76686633763523" lon="9.44112599115445"><ele>795.6666666666666</ele><time>2026-05-03T10:36:18Z</time></trkpt><trkpt lat="44.76694510381461" lon="9.441216437537536"><ele>797.3333333333333</ele><time>2026-05-03T10:36:20Z</time></trkpt><trkpt lat="44.76694102655563" lon="9.441329150221144"><ele>799.0</ele><time>2026-05-03T10:36:22Z</time></trkpt><trkpt lat="44.76698932642284" lon="9.441436635749467"><ele>801.6666666666666</ele><time>2026-05-03T10:36:25Z</time></trkpt><trkpt lat="44.767018761979735" lon="9.441519576654725"><ele>804.3333333333333</ele><time>2026-05-03T10:36:42.999Z</time></trkpt><trkpt lat="44.76706801465349" lon="9.44158238134735"><ele>807.0</ele><time>2026-05-03T10:36:45.999Z</time></trkpt><trkpt lat="44.767112786296146" lon="9.441665860612641"><ele>809.6666666666667</ele><time>2026-05-03T10:36:47.999Z</time></trkpt><trkpt lat="44.76718875674938" lon="9.44177163852079"><ele>812.3333333333334</ele><time>2026-05-03T10:36:50.999Z</time></trkpt><trkpt lat="44.767247309712815" lon="9.44189039336223"><ele>815.0</ele><time>2026-05-03T10:36:52.999Z</time></trkpt><trkpt lat="44.76729896032375" lon="9.442018660768795"><ele>818.6</ele><time>2026-05-03T10:36:54.999Z</time></trkpt><trkpt lat="44.76733336377029" lon="9.442149138376958"><ele>822.2</ele><time>2026-05-03T10:36:56.999Z</time></trkpt><trkpt lat="44.76737194226916" lon="9.442254985975355"><ele>825.8</ele><time>2026-05-03T10:36:58.999Z</time></trkpt><trkpt lat="44.76740631709868" lon="9.442333213973152"><ele>829.4</ele><time>2026-05-03T10:37:02.999Z</time></trkpt><trkpt lat="44.767464467202046" lon="9.442461861020506"><ele>833.0</ele><time>2026-05-03T10:37:03.999Z</time></trkpt><trkpt lat="44.76756234844851" lon="9.442533902563067"><ele>833.0000000000001</ele><time>2026-05-03T10:37:05.999Z</time></trkpt><trkpt lat="44.767647463485794" lon="9.44255966703257"><ele>833.0</ele><time>2026-05-03T10:37:07.999Z</time></trkpt><trkpt lat="44.76772946727571" lon="9.442570532094058"><ele>833.0</ele><time>2026-05-03T10:37:09.999Z</time></trkpt><trkpt lat="44.767795244091495" lon="9.442610731824548"><ele>833.0</ele><time>2026-05-03T10:37:10.999Z</time></trkpt><trkpt lat="44.76790517537411" lon="9.442649361412155"><ele>833.0000000000001</ele><time>2026-05-03T10:37:13.999Z</time></trkpt><trkpt lat="44.76797527171052" lon="9.442695224190954"><ele>833.0</ele><time>2026-05-03T10:37:16.999Z</time></trkpt><trkpt lat="44.768040550678684" lon="9.442780237300395"><ele>833.5000000000001</ele><time>2026-05-03T10:37:19.999Z</time></trkpt><trkpt lat="44.768092997997854" lon="9.442839186790101"><ele>834.0</ele><time>2026-05-03T10:37:27.998Z</time></trkpt><trkpt lat="44.76815730418984" lon="9.442896637820477"><ele>834.5</ele><time>2026-05-03T10:37:30.998Z</time></trkpt><trkpt lat="44.76828282683953" lon="9.44292424662989"><ele>835.0</ele><time>2026-05-03T10:37:33.998Z</time></trkpt><trkpt lat="44.76834826205195" lon="9.442980257431715"><ele>835.5000000000001</ele><time>2026-05-03T10:37:36.998Z</time></trkpt><trkpt lat="44.76842247657759" lon="9.443065850756975"><ele>836.0</ele><time>2026-05-03T10:38:31Z</time></trkpt><trkpt lat="44.76848960827318" lon="9.44314188501077"><ele>837.8333333333334</ele><time>2026-05-03T10:38:42.999Z</time></trkpt><trkpt lat="44.768531968273216" lon="9.443262673413482"><ele>839.6666666666667</ele><time>2026-05-03T10:38:49.999Z</time></trkpt><trkpt lat="44.76851631465665" lon="9.443376087225676"><ele>841.5</ele><time>2026-05-03T10:38:52.999Z</time></trkpt><trkpt lat="44.76851504742072" lon="9.443475509657596"><ele>843.3333333333333</ele><time>2026-05-03T10:38:54.999Z</time></trkpt><trkpt lat="44.76851459693291" lon="9.443573786557733"><ele>845.1666666666666</ele><time>2026-05-03T10:38:57.999Z</time></trkpt><trkpt lat="44.76856562928702" lon="9.443641001657937"><ele>847.0</ele><time>2026-05-03T10:39:00.999Z</time></trkpt><trkpt lat="44.768598083774094" lon="9.443728862522155"><ele>847.8333333333333</ele><time>2026-05-03T10:39:13.999Z</time></trkpt><trkpt lat="44.76866742851754" lon="9.443762914206394"><ele>848.6666666666666</ele><time>2026-05-03T10:39:18.999Z</time></trkpt><trkpt lat="44.76874104912308" lon="9.443854865365584"><ele>849.5</ele><time>2026-05-03T10:39:21.999Z</time></trkpt><trkpt lat="44.768822050657285" lon="9.44395234674643"><ele>850.3333333333333</ele><time>2026-05-03T10:39:24.999Z</time></trkpt><trkpt lat="44.76886656799899" lon="9.444033769770849"><ele>851.1666666666666</ele><time>2026-05-03T10:39:27.998Z</time></trkpt><trkpt lat="44.76891147310347" lon="9.44412450069672"><ele>852.0</ele><time>2026-05-03T10:39:31.998Z</time></trkpt><trkpt lat="44.768929656489554" lon="9.444216905589784"><ele>854.0</ele><time>2026-05-03T10:39:33.998Z</time></trkpt><trkpt lat="44.76893528413188" lon="9.444342568011212"><ele>856.0</ele><time>2026-05-03T10:39:36.998Z</time></trkpt><trkpt lat="44.76900499527355" lon="9.444614332123646"><ele>858.0</ele><time>2026-05-03T10:39:39.998Z</time></trkpt><trkpt lat="44.76904695186364" lon="9.444723406791399"><ele>860.0</ele><time>2026-05-03T10:39:41.998Z</time></trkpt><trkpt lat="44.76910283259653" lon="9.444828635830723"><ele>861.0</ele><time>2026-05-03T10:39:44.998Z</time></trkpt><trkpt lat="44.769150235207746" lon="9.444946652891243"><ele>862.0</ele><time>2026-05-03T10:39:46.998Z</time></trkpt><trkpt lat="44.76918226996084" lon="9.445051044716296"><ele>863.0</ele><time>2026-05-03T10:39:48.998Z</time></trkpt><trkpt lat="44.76924888773538" lon="9.44518160225238"><ele>864.0</ele><time>2026-05-03T10:39:50.998Z</time></trkpt><trkpt lat="44.76930056105289" lon="9.445320857962288"><ele>865.0</ele><time>2026-05-03T10:39:52.998Z</time></trkpt><trkpt lat="44.76931784282526" lon="9.445431217640587"><ele>866.5714285714286</ele><time>2026-05-03T10:39:54.998Z</time></trkpt><trkpt lat="44.769321992085885" lon="9.445524580971822"><ele>868.1428571428571</ele><time>2026-05-03T10:39:56.998Z</time></trkpt><trkpt lat="44.76935010238744" lon="9.445605964090653"><ele>869.7142857142858</ele><time>2026-05-03T10:39:58.998Z</time></trkpt><trkpt lat="44.769350893622224" lon="9.445700238042743"><ele>871.2857142857142</ele><time>2026-05-03T10:40:03Z</time></trkpt><trkpt lat="44.769363887367795" lon="9.445814158718006"><ele>872.8571428571428</ele><time>2026-05-03T10:40:05Z</time></trkpt><trkpt lat="44.769375344500475" lon="9.445909369933679"><ele>874.4285714285714</ele><time>2026-05-03T10:40:07Z</time></trkpt><trkpt lat="44.769420235537446" lon="9.445994214155604"><ele>876.0</ele><time>2026-05-03T10:40:09Z</time></trkpt><trkpt lat="44.769473508668085" lon="9.446077058052847"><ele>876.4</ele><time>2026-05-03T10:40:11Z</time></trkpt><trkpt lat="44.7695447170933" lon="9.446165045085475"><ele>876.8</ele><time>2026-05-03T10:40:13Z</time></trkpt><trkpt lat="44.769607420881144" lon="9.446270223632647"><ele>877.1999999999999</ele><time>2026-05-03T10:40:15Z</time></trkpt><trkpt lat="44.76968676889534" lon="9.446370500606989"><ele>877.5999999999999</ele><time>2026-05-03T10:40:17Z</time></trkpt><trkpt lat="44.76973137383621" lon="9.446476145139346"><ele>878.0</ele><time>2026-05-03T10:40:19Z</time></trkpt><trkpt lat="44.76980644347969" lon="9.44654893410748"><ele>879.5000000000001</ele><time>2026-05-03T10:40:21Z</time></trkpt><trkpt lat="44.76989147787082" lon="9.446576811106334"><ele>881.0</ele><time>2026-05-03T10:40:23Z</time></trkpt><trkpt lat="44.76996326960926" lon="9.446621117312962"><ele>882.5</ele><time>2026-05-03T10:40:24Z</time></trkpt><trkpt lat="44.77003529601228" lon="9.446672172520302"><ele>884.0</ele><time>2026-05-03T10:40:25Z</time></trkpt><trkpt lat="44.77007881534848" lon="9.446754413434427"><ele>885.5000000000001</ele><time>2026-05-03T10:40:26Z</time></trkpt><trkpt lat="44.7701147808091" lon="9.446912106182708"><ele>887.0</ele><time>2026-05-03T10:40:28Z</time></trkpt><trkpt lat="44.7701374348125" lon="9.447013286379606"><ele>887.0000000000001</ele><time>2026-05-03T10:40:29Z</time></trkpt><trkpt lat="44.77016168303874" lon="9.447117635279866"><ele>887.0</ele><time>2026-05-03T10:40:30Z</time></trkpt><trkpt lat="44.77021997112316" lon="9.44723171188751"><ele>887.0</ele><time>2026-05-03T10:40:32Z</time></trkpt><trkpt lat="44.77028942289122" lon="9.447293404687633"><ele>887.0</ele><time>2026-05-03T10:40:34Z</time></trkpt><trkpt lat="44.77034044476845" lon="9.44738473628694"><ele>887.0000000000001</ele><time>2026-05-03T10:40:35Z</time></trkpt><trkpt lat="44.77037532004268" lon="9.447467264578249"><ele>887.0</ele><time>2026-05-03T10:40:36Z</time></trkpt><trkpt lat="44.770400771396" lon="9.44754994477546"><ele>889.2</ele><time>2026-05-03T10:40:37Z</time></trkpt><trkpt lat="44.770438489586155" lon="9.447624637589799"><ele>891.4000000000001</ele><time>2026-05-03T10:40:38Z</time></trkpt><trkpt lat="44.77046222331787" lon="9.447746917469235"><ele>893.5999999999999</ele><time>2026-05-03T10:40:39.999Z</time></trkpt><trkpt lat="44.77041890270937" lon="9.447877696548842"><ele>895.8</ele><time>2026-05-03T10:40:41.999Z</time></trkpt><trkpt lat="44.7704212895276" lon="9.44802752377122"><ele>898.0</ele><time>2026-05-03T10:40:43.999Z</time></trkpt><trkpt lat="44.77036562824807" lon="9.448170722073389"><ele>899.8</ele><time>2026-05-03T10:40:45.999Z</time></trkpt><trkpt lat="44.770381723016705" lon="9.448312888145326"><ele>901.5999999999999</ele><time>2026-05-03T10:40:47.999Z</time></trkpt><trkpt lat="44.77040826252056" lon="9.448408832126255"><ele>903.4000000000001</ele><time>2026-05-03T10:40:48.999Z</time></trkpt><trkpt lat="44.770440245314106" lon="9.448512955421684"><ele>905.2</ele><time>2026-05-03T10:40:49.999Z</time></trkpt><trkpt lat="44.77045924936986" lon="9.448622259369808"><ele>907.0</ele><time>2026-05-03T10:40:50.999Z</time></trkpt><trkpt lat="44.77048280971439" lon="9.448821095980302"><ele>908.9999999999999</ele><time>2026-05-03T10:40:52.999Z</time></trkpt><trkpt lat="44.77051798159952" lon="9.44890962487447"><ele>911.0</ele><time>2026-05-03T10:40:53.999Z</time></trkpt><trkpt lat="44.770549587142334" lon="9.449000233600126"><ele>913.0</ele><time>2026-05-03T10:40:54.999Z</time></trkpt><trkpt lat="44.77059106495412" lon="9.449076033725646"><ele>915.0</ele><time>2026-05-03T10:40:55.999Z</time></trkpt><trkpt lat="44.770662848259164" lon="9.449199276931672"><ele>916.9999999999999</ele><time>2026-05-03T10:40:57.999Z</time></trkpt><trkpt lat="44.770708304598536" lon="9.449336712647572"><ele>919.0</ele><time>2026-05-03T10:40:59.999Z</time></trkpt><trkpt lat="44.770766777957746" lon="9.449471654074614"><ele>918.9999999999999</ele><time>2026-05-03T10:41:01.999Z</time></trkpt><trkpt lat="44.77082884685605" lon="9.449527866196442"><ele>919.0</ele><time>2026-05-03T10:41:03.999Z</time></trkpt><trkpt lat="44.77089016981948" lon="9.44957856325877"><ele>919.0</ele><time>2026-05-03T10:41:24.999Z</time></trkpt><trkpt lat="44.77098490956534" lon="9.44955332038382"><ele>919.0</ele><time>2026-05-03T10:41:26.999Z</time></trkpt><trkpt lat="44.77107776004429" lon="9.449493467514865"><ele>918.9999999999999</ele><time>2026-05-03T10:41:28.999Z</time></trkpt><trkpt lat="44.77116279684135" lon="9.449431881183537"><ele>919.0</ele><time>2026-05-03T10:41:30.999Z</time></trkpt><trkpt lat="44.77122515323715" lon="9.449397193300666"><ele>920.8000000000001</ele><time>2026-05-03T10:41:31.999Z</time></trkpt><trkpt lat="44.77130926490393" lon="9.44936687485122"><ele>922.6000000000001</ele><time>2026-05-03T10:41:32.999Z</time></trkpt><trkpt lat="44.77140391947774" lon="9.44935686604668"><ele>924.4</ele><time>2026-05-03T10:41:33.998Z</time></trkpt><trkpt lat="44.77149371542618" lon="9.44937841040363"><ele>926.2</ele><time>2026-05-03T10:41:34.998Z</time></trkpt><trkpt lat="44.77158264588175" lon="9.449426143625669"><ele>928.0</ele><time>2026-05-03T10:41:35.998Z</time></trkpt><trkpt lat="44.7716696639442" lon="9.44944564620598"><ele>927.9999999999999</ele><time>2026-05-03T10:41:36.998Z</time></trkpt><trkpt lat="44.771754894396125" lon="9.449407986297244"><ele>928.0</ele><time>2026-05-03T10:41:37.998Z</time></trkpt><trkpt lat="44.77181987520991" lon="9.449312256926676"><ele>928.0</ele><time>2026-05-03T10:41:38.998Z</time></trkpt><trkpt lat="44.77186930883486" lon="9.449219628003217"><ele>928.0</ele><time>2026-05-03T10:41:39.998Z</time></trkpt><trkpt lat="44.771927077770705" lon="9.449153227112964"><ele>927.9999999999999</ele><time>2026-05-03T10:41:40.998Z</time></trkpt><trkpt lat="44.77199451221402" lon="9.449102881188347"><ele>928.0</ele><time>2026-05-03T10:41:41.998Z</time></trkpt><trkpt lat="44.77206465643146" lon="9.449061888376256"><ele>928.8333333333333</ele><time>2026-05-03T10:41:42.998Z</time></trkpt><trkpt lat="44.77213992840869" lon="9.44903215334021"><ele>929.6666666666666</ele><time>2026-05-03T10:41:43.998Z</time></trkpt><trkpt lat="44.77222074937115" lon="9.449015379983498"><ele>930.5</ele><time>2026-05-03T10:41:44.998Z</time></trkpt><trkpt lat="44.772304577150436" lon="9.449014697666312"><ele>931.3333333333333</ele><time>2026-05-03T10:41:45.998Z</time></trkpt><trkpt lat="44.77238359317093" lon="9.449031536262876"><ele>932.1666666666666</ele><time>2026-05-03T10:41:46.998Z</time></trkpt><trkpt lat="44.772446843451114" lon="9.449070145987351"><ele>933.0</ele><time>2026-05-03T10:41:47.998Z</time></trkpt><trkpt lat="44.77249452276855" lon="9.449138196899943"><ele>933.0</ele><time>2026-05-03T10:41:48.998Z</time></trkpt><trkpt lat="44.77252770999158" lon="9.449224957323361"><ele>933.0</ele><time>2026-05-03T10:41:49.998Z</time></trkpt><trkpt lat="44.77254385369322" lon="9.449329187596222"><ele>933.0</ele><time>2026-05-03T10:41:50.998Z</time></trkpt><trkpt lat="44.77255263396594" lon="9.449469449438217"><ele>933.0</ele><time>2026-05-03T10:41:51.998Z</time></trkpt><trkpt lat="44.77255768300178" lon="9.449639369649166"><ele>933.0</ele><time>2026-05-03T10:41:52.998Z</time></trkpt><trkpt lat="44.772559020225415" lon="9.449824971452603"><ele>932.0</ele><time>2026-05-03T10:41:53.998Z</time></trkpt><trkpt lat="44.772551571148206" lon="9.45000006112701"><ele>931.0</ele><time>2026-05-03T10:41:54.998Z</time></trkpt><trkpt lat="44.772536784567514" lon="9.450169445582262"><ele>930.0</ele><time>2026-05-03T10:41:55.998Z</time></trkpt><trkpt lat="44.77252244806187" lon="9.450325912123528"><ele>929.0</ele><time>2026-05-03T10:41:56.998Z</time></trkpt><trkpt lat="44.7725163872122" lon="9.450471284624868"><ele>928.2</ele><time>2026-05-03T10:41:57.998Z</time></trkpt><trkpt lat="44.772531000487916" lon="9.45060643078666"><ele>927.4000000000001</ele><time>2026-05-03T10:41:58.998Z</time></trkpt><trkpt lat="44.77256018540772" lon="9.450737438727929"><ele>926.6</ele><time>2026-05-03T10:41:59.998Z</time></trkpt><trkpt lat="44.772588215571346" lon="9.450858780515757"><ele>925.8</ele><time>2026-05-03T10:42:00.998Z</time></trkpt><trkpt lat="44.77260958717783" lon="9.450987080687442"><ele>925.0</ele><time>2026-05-03T10:42:01.998Z</time></trkpt><trkpt lat="44.77262875405774" lon="9.45111525487055"><ele>925.0</ele><time>2026-05-03T10:42:02.998Z</time></trkpt><trkpt lat="44.772648613345034" lon="9.451237328412358"><ele>925.0</ele><time>2026-05-03T10:42:03.998Z</time></trkpt><trkpt lat="44.772668666085224" lon="9.451367401791996"><ele>925.0</ele><time>2026-05-03T10:42:04.998Z</time></trkpt><trkpt lat="44.772687135736405" lon="9.45149962420995"><ele>925.0</ele><time>2026-05-03T10:42:06Z</time></trkpt><trkpt lat="44.77270762133146" lon="9.451625548101838"><ele>925.0</ele><time>2026-05-03T10:42:07Z</time></trkpt><trkpt lat="44.77273117084854" lon="9.451747220323059"><ele>921.8</ele><time>2026-05-03T10:42:08Z</time></trkpt><trkpt lat="44.77278074682827" lon="9.451868568547535"><ele>918.6</ele><time>2026-05-03T10:42:09Z</time></trkpt><trkpt lat="44.772860807283784" lon="9.45197646545984"><ele>915.4000000000001</ele><time>2026-05-03T10:42:10Z</time></trkpt><trkpt lat="44.77294863547375" lon="9.452081336499475"><ele>912.2</ele><time>2026-05-03T10:42:11Z</time></trkpt><trkpt lat="44.77303813844783" lon="9.45217932299031"><ele>909.0</ele><time>2026-05-03T10:42:12Z</time></trkpt><trkpt lat="44.77311753580133" lon="9.452273593324442"><ele>909.0</ele><time>2026-05-03T10:42:13Z</time></trkpt><trkpt lat="44.77319142246787" lon="9.452376118783718"><ele>909.0000000000001</ele><time>2026-05-03T10:42:14Z</time></trkpt><trkpt lat="44.773272040084" lon="9.452478454454527"><ele>909.0000000000001</ele><time>2026-05-03T10:42:15Z</time></trkpt><trkpt lat="44.77335017547206" lon="9.452586709221123"><ele>909.0</ele><time>2026-05-03T10:42:16Z</time></trkpt><trkpt lat="44.7734237058841" lon="9.452703457140506"><ele>909.0</ele><time>2026-05-03T10:42:17Z</time></trkpt><trkpt lat="44.7734932768468" lon="9.452811252797082"><ele>907.2</ele><time>2026-05-03T10:42:18Z</time></trkpt><trkpt lat="44.773560424355786" lon="9.452922010535822"><ele>905.4000000000001</ele><time>2026-05-03T10:42:19Z</time></trkpt><trkpt lat="44.77362454557558" lon="9.453030905071397"><ele>903.6</ele><time>2026-05-03T10:42:20Z</time></trkpt><trkpt lat="44.7736903901992" lon="9.453141775098384"><ele>901.8</ele><time>2026-05-03T10:42:21Z</time></trkpt><trkpt lat="44.77376350933944" lon="9.45323131848375"><ele>900.0</ele><time>2026-05-03T10:42:22Z</time></trkpt><trkpt lat="44.773847368513856" lon="9.453288338298695"><ele>900.0</ele><time>2026-05-03T10:42:23Z</time></trkpt><trkpt lat="44.773944380940144" lon="9.453335920378152"><ele>900.0</ele><time>2026-05-03T10:42:24Z</time></trkpt><trkpt lat="44.77403516748432" lon="9.453371746592449"><ele>900.0</ele><time>2026-05-03T10:42:25Z</time></trkpt><trkpt lat="44.77413142304496" lon="9.453447743177291"><ele>900.0</ele><time>2026-05-03T10:42:26Z</time></trkpt><trkpt lat="44.77420347663815" lon="9.453531602970799"><ele>900.0</ele><time>2026-05-03T10:42:27Z</time></trkpt><trkpt lat="44.77425208596855" lon="9.453630389585351"><ele>900.0</ele><time>2026-05-03T10:42:28Z</time></trkpt><trkpt lat="44.7742997992498" lon="9.453741519750295"><ele>900.0</ele><time>2026-05-03T10:42:29Z</time></trkpt><trkpt lat="44.77437533327397" lon="9.453846294242293"><ele>900.0</ele><time>2026-05-03T10:42:30Z</time></trkpt><trkpt lat="44.77446763689676" lon="9.453892370719412"><ele>900.0</ele><time>2026-05-03T10:42:31Z</time></trkpt><trkpt lat="44.77455891178491" lon="9.45393578149752"><ele>900.0</ele><time>2026-05-03T10:42:32Z</time></trkpt><trkpt lat="44.774631127686" lon="9.45399127827436"><ele>898.3333333333334</ele><time>2026-05-03T10:42:33Z</time></trkpt><trkpt lat="44.77468858045286" lon="9.454072804188543"><ele>896.6666666666667</ele><time>2026-05-03T10:42:34Z</time></trkpt><trkpt lat="44.774724056036284" lon="9.454194220734692"><ele>895.0</ele><time>2026-05-03T10:42:35Z</time></trkpt><trkpt lat="44.77475714527165" lon="9.454282576823"><ele>893.3333333333334</ele><time>2026-05-03T10:42:36Z</time></trkpt><trkpt lat="44.77481617603577" lon="9.454344812024349"><ele>891.6666666666667</ele><time>2026-05-03T10:42:37Z</time></trkpt><trkpt lat="44.774904484506536" lon="9.454371502812394"><ele>890.0</ele><time>2026-05-03T10:42:38Z</time></trkpt><trkpt lat="44.77499402635324" lon="9.454357003772635"><ele>890.0</ele><time>2026-05-03T10:42:39Z</time></trkpt><trkpt lat="44.77508189540802" lon="9.454307061680867"><ele>890.0</ele><time>2026-05-03T10:42:40Z</time></trkpt><trkpt lat="44.775162963959616" lon="9.454241972079783"><ele>890.0</ele><time>2026-05-03T10:42:41Z</time></trkpt><trkpt lat="44.77525233087598" lon="9.454180694211761"><ele>890.0</ele><time>2026-05-03T10:42:42Z</time></trkpt><trkpt lat="44.77533877469856" lon="9.45411755239312"><ele>890.0</ele><time>2026-05-03T10:42:43Z</time></trkpt><trkpt lat="44.77542386912183" lon="9.454062509251111"><ele>887.6</ele><time>2026-05-03T10:42:44Z</time></trkpt><trkpt lat="44.77549546807393" lon="9.454025294066378"><ele>885.2</ele><time>2026-05-03T10:42:45Z</time></trkpt><trkpt lat="44.775610251899046" lon="9.453998243082403"><ele>882.8</ele><time>2026-05-03T10:42:46.999Z</time></trkpt><trkpt lat="44.77570493654269" lon="9.454100836135124"><ele>880.4</ele><time>2026-05-03T10:42:48.999Z</time></trkpt><trkpt lat="44.775734424262325" lon="9.4541897283976"><ele>878.0</ele><time>2026-05-03T10:42:49.999Z</time></trkpt><trkpt lat="44.775776460074425" lon="9.45434340735269"><ele>878.0</ele><time>2026-05-03T10:42:51.999Z</time></trkpt><trkpt lat="44.7758068849785" lon="9.454426365477719"><ele>878.0</ele><time>2026-05-03T10:42:53.999Z</time></trkpt><trkpt lat="44.77584030402547" lon="9.45453996205163"><ele>878.0</ele><time>2026-05-03T10:42:57.999Z</time></trkpt><trkpt lat="44.77587427990132" lon="9.454631936729864"><ele>878.0</ele><time>2026-05-03T10:43:00.999Z</time></trkpt><trkpt lat="44.7759083812849" lon="9.454730439448584"><ele>878.0</ele><time>2026-05-03T10:43:04.999Z</time></trkpt><trkpt lat="44.77593870265282" lon="9.454829431367848"><ele>878.0</ele><time>2026-05-03T10:43:10.999Z</time></trkpt><trkpt lat="44.77589895392352" lon="9.454755956798587"><ele>878.0</ele><time>2026-05-03T10:43:54.998Z</time></trkpt><trkpt lat="44.77585993269901" lon="9.454685455676426"><ele>878.0000000000001</ele><time>2026-05-03T10:44:02.998Z</time></trkpt><trkpt lat="44.77580762392471" lon="9.454631562461461"><ele>878.0</ele><time>2026-05-03T10:47:05.999Z</time></trkpt><trkpt lat="44.775747878916796" lon="9.454666608832003"><ele>878.0</ele><time>2026-05-03T10:51:48.999Z</time></trkpt><trkpt lat="44.77568281119143" lon="9.454634013285725"><ele>878.0</ele><time>2026-05-03T10:52:03.999Z</time></trkpt><trkpt lat="44.775756763720125" lon="9.454588136126477"><ele>878.0000000000001</ele><time>2026-05-03T10:52:39Z</time></trkpt><trkpt lat="44.77569708604837" lon="9.454737491914496"><ele>878.0</ele><time>2026-05-03T10:52:53Z</time></trkpt><trkpt lat="44.77576539326207" lon="9.454608389130355"><ele>878.0</ele><time>2026-05-03T10:53:05.999Z</time></trkpt><trkpt lat="44.77577781867028" lon="9.454695485672808"><ele>878.0</ele><time>2026-05-03T10:56:00.999Z</time></trkpt><trkpt lat="44.77583197070413" lon="9.454747312346983"><ele>878.0</ele><time>2026-05-03T10:57:03.999Z</time></trkpt><trkpt lat="44.775774006278844" lon="9.45468953524828"><ele>878.0</ele><time>2026-05-03T10:58:19.999Z</time></trkpt><trkpt lat="44.7757116941817" lon="9.454738836829595"><ele>878.0</ele><time>2026-05-03T10:58:55.999Z</time></trkpt><trkpt lat="44.77569152051036" lon="9.45464858495678"><ele>878.0</ele><time>2026-05-03T10:59:04.999Z</time></trkpt><trkpt lat="44.77562095899667" lon="9.454647618558282"><ele>878.0</ele><time>2026-05-03T10:59:12Z</time></trkpt><trkpt lat="44.775711743555945" lon="9.45462092511512"><ele>878.0</ele><time>2026-05-03T10:59:27.999Z</time></trkpt><trkpt lat="44.775748571084065" lon="9.454533791132247"><ele>878.0</ele><time>2026-05-03T11:04:50Z</time></trkpt><trkpt lat="44.77581409844435" lon="9.454749750976626"><ele>878.0</ele><time>2026-05-03T11:09:50.538Z</time></trkpt><trkpt lat="44.77578623730294" lon="9.454669564694928"><ele>878.0</ele><time>2026-05-03T11:10:08.999Z</time></trkpt><trkpt lat="44.775695469876844" lon="9.45462406264147"><ele>878.0</ele><time>2026-05-03T11:27:48Z</time></trkpt><trkpt lat="44.77563123619919" lon="9.454607914734904"><ele>878.0</ele><time>2026-05-03T11:27:49Z</time></trkpt><trkpt lat="44.77565763073104" lon="9.454414416699446"><ele>878.0</ele><time>2026-05-03T11:27:50Z</time></trkpt><trkpt lat="44.77565478227595" lon="9.454312691492428"><ele>878.0</ele><time>2026-05-03T11:27:54Z</time></trkpt><trkpt lat="44.77570059350631" lon="9.454477653711262"><ele>878.0</ele><time>2026-05-03T11:27:56Z</time></trkpt><trkpt lat="44.77565264955448" lon="9.454583903751805"><ele>878.0</ele><time>2026-05-03T11:27:58Z</time></trkpt><trkpt lat="44.775721414950596" lon="9.45457323217518"><ele>878.0</ele><time>2026-05-03T11:28:09Z</time></trkpt><trkpt lat="44.77575464542615" lon="9.454665371106556"><ele>878.0</ele><time>2026-05-03T11:37:11.999Z</time></trkpt><trkpt lat="44.77576901229094" lon="9.454569519326819"><ele>878.0</ele><time>2026-05-03T12:30:04.999Z</time></trkpt><trkpt lat="44.775775147182735" lon="9.454475563669794"><ele>878.0</ele><time>2026-05-03T12:30:14.999Z</time></trkpt><trkpt lat="44.775799527460535" lon="9.454558967408657"><ele>878.0</ele><time>2026-05-03T12:31:04Z</time></trkpt><trkpt lat="44.77576389775284" lon="9.454664472049451"><ele>878.0</ele><time>2026-05-03T12:32:45Z</time></trkpt><trkpt lat="44.77579032117771" lon="9.454764748177908"><ele>878.0</ele><time>2026-05-03T12:32:54Z</time></trkpt><trkpt lat="44.77578296339807" lon="9.454663166061644"><ele>877.7142857142857</ele><time>2026-05-03T12:32:59Z</time></trkpt><trkpt lat="44.775847016819895" lon="9.454690700051001"><ele>877.4285714285713</ele><time>2026-05-03T12:41:33Z</time></trkpt><trkpt lat="44.77589796868428" lon="9.454747164251"><ele>877.1428571428571</ele><time>2026-05-03T12:41:42Z</time></trkpt><trkpt lat="44.77593589880493" lon="9.454823777481229"><ele>876.8571428571429</ele><time>2026-05-03T12:41:49Z</time></trkpt><trkpt lat="44.775955969576" lon="9.454915451836913"><ele>876.5714285714286</ele><time>2026-05-03T12:43:23Z</time></trkpt><trkpt lat="44.77593049190051" lon="9.454812821345001"><ele>876.2857142857143</ele><time>2026-05-03T12:43:31Z</time></trkpt><trkpt lat="44.77588405665264" lon="9.454728984098349"><ele>876.0</ele><time>2026-05-03T12:43:35Z</time></trkpt><trkpt lat="44.77583058024832" lon="9.454655272909514"><ele>876.3333333333334</ele><time>2026-05-03T12:44:48.999Z</time></trkpt><trkpt lat="44.77581731069765" lon="9.454528288438555"><ele>876.6666666666667</ele><time>2026-05-03T12:44:52.999Z</time></trkpt><trkpt lat="44.77578338996006" lon="9.454445679050629"><ele>877.0</ele><time>2026-05-03T12:56:09Z</time></trkpt><trkpt lat="44.77575341625949" lon="9.454311638103983"><ele>877.3333333333334</ele><time>2026-05-03T12:58:56.999Z</time></trkpt><trkpt lat="44.77572606432505" lon="9.454208504125216"><ele>877.6666666666667</ele><time>2026-05-03T12:58:58.999Z</time></trkpt><trkpt lat="44.775700236915334" lon="9.454114482355868"><ele>878.0</ele><time>2026-05-03T12:59:00.999Z</time></trkpt><trkpt lat="44.7756421275472" lon="9.45405853502528"><ele>878.0</ele><time>2026-05-03T12:59:02.999Z</time></trkpt><trkpt lat="44.77555412168608" lon="9.454037490007114"><ele>878.0</ele><time>2026-05-03T12:59:04.999Z</time></trkpt><trkpt lat="44.77547065532891" lon="9.454081321507632"><ele>878.0</ele><time>2026-05-03T12:59:06.999Z</time></trkpt><trkpt lat="44.77534851363105" lon="9.45414774401618"><ele>878.0</ele><time>2026-05-03T12:59:08.999Z</time></trkpt><trkpt lat="44.775283198946994" lon="9.454194938974144"><ele>878.0</ele><time>2026-05-03T12:59:09.999Z</time></trkpt><trkpt lat="44.775205421440624" lon="9.4542387941332"><ele>879.7142857142857</ele><time>2026-05-03T12:59:10.999Z</time></trkpt><trkpt lat="44.77512831548014" lon="9.454286786789794"><ele>881.4285714285713</ele><time>2026-05-03T12:59:11.999Z</time></trkpt><trkpt lat="44.7750637541553" lon="9.454334941807783"><ele>883.1428571428571</ele><time>2026-05-03T12:59:12.999Z</time></trkpt><trkpt lat="44.77499763011581" lon="9.454383893183783"><ele>884.8571428571429</ele><time>2026-05-03T12:59:13.999Z</time></trkpt><trkpt lat="44.774928900238166" lon="9.454411755511273"><ele>886.5714285714286</ele><time>2026-05-03T12:59:14.999Z</time></trkpt><trkpt lat="44.77485347723601" lon="9.454407228159868"><ele>888.2857142857143</ele><time>2026-05-03T12:59:15.999Z</time></trkpt><trkpt lat="44.77478761809295" lon="9.454373529706274"><ele>890.0</ele><time>2026-05-03T12:59:16.999Z</time></trkpt><trkpt lat="44.774717132574665" lon="9.454248667365459"><ele>890.0</ele><time>2026-05-03T12:59:18.999Z</time></trkpt><trkpt lat="44.774694375578036" lon="9.454100919668337"><ele>890.0</ele><time>2026-05-03T12:59:20.999Z</time></trkpt><trkpt lat="44.77460917073726" lon="9.453970752641347"><ele>890.0</ele><time>2026-05-03T12:59:22.999Z</time></trkpt><trkpt lat="44.77454230596121" lon="9.453940251950094"><ele>890.0</ele><time>2026-05-03T12:59:23.999Z</time></trkpt><trkpt lat="44.77442537756602" lon="9.453896698717285"><ele>890.0</ele><time>2026-05-03T12:59:25.999Z</time></trkpt><trkpt lat="44.77432357706387" lon="9.45382083734581"><ele>891.6666666666667</ele><time>2026-05-03T12:59:27.999Z</time></trkpt><trkpt lat="44.774263713944144" lon="9.453709718295874"><ele>893.3333333333334</ele><time>2026-05-03T12:59:29.998Z</time></trkpt><trkpt lat="44.7742358321554" lon="9.453619084766936"><ele>895.0</ele><time>2026-05-03T12:59:31.998Z</time></trkpt><trkpt lat="44.77415782569888" lon="9.45358944856933"><ele>896.6666666666667</ele><time>2026-05-03T12:59:34.998Z</time></trkpt><trkpt lat="44.77409796286689" lon="9.453627396184817"><ele>898.3333333333334</ele><time>2026-05-03T12:59:38.998Z</time></trkpt><trkpt lat="44.774000641203315" lon="9.453730534830951"><ele>900.0</ele><time>2026-05-03T12:59:49.998Z</time></trkpt><trkpt lat="44.773895390509246" lon="9.453767059813584"><ele>900.0</ele><time>2026-05-03T12:59:51.998Z</time></trkpt><trkpt lat="44.773787105693295" lon="9.453761703484627"><ele>900.0</ele><time>2026-05-03T12:59:53.998Z</time></trkpt><trkpt lat="44.773665893540965" lon="9.453796679232509"><ele>900.0</ele><time>2026-05-03T12:59:55.998Z</time></trkpt><trkpt lat="44.77360529420276" lon="9.453835023592514"><ele>900.0</ele><time>2026-05-03T12:59:56.998Z</time></trkpt><trkpt lat="44.77353776677153" lon="9.453916180639503"><ele>900.0</ele><time>2026-05-03T12:59:57.998Z</time></trkpt><trkpt lat="44.773474643276764" lon="9.453990717813378"><ele>903.6666666666666</ele><time>2026-05-03T12:59:58.998Z</time></trkpt><trkpt lat="44.77341663703264" lon="9.454064664617409"><ele>907.3333333333333</ele><time>2026-05-03T12:59:59.998Z</time></trkpt><trkpt lat="44.77335860410843" lon="9.454150728586193"><ele>911.0</ele><time>2026-05-03T13:00:01Z</time></trkpt><trkpt lat="44.773317232482796" lon="9.454253126127696"><ele>914.6666666666666</ele><time>2026-05-03T13:00:02Z</time></trkpt><trkpt lat="44.77328236283789" lon="9.454360962423383"><ele>918.3333333333333</ele><time>2026-05-03T13:00:03Z</time></trkpt><trkpt lat="44.77323478294951" lon="9.454440126737135"><ele>922.0</ele><time>2026-05-03T13:00:04Z</time></trkpt><trkpt lat="44.773165344192755" lon="9.454523866573615"><ele>921.9999999999999</ele><time>2026-05-03T13:00:05Z</time></trkpt><trkpt lat="44.773093847267525" lon="9.454612873108646"><ele>922.0</ele><time>2026-05-03T13:00:06Z</time></trkpt><trkpt lat="44.773029897759386" lon="9.454690987043683"><ele>922.0</ele><time>2026-05-03T13:00:07Z</time></trkpt><trkpt lat="44.772978231181476" lon="9.454774600478322"><ele>922.0</ele><time>2026-05-03T13:00:08Z</time></trkpt><trkpt lat="44.77293705968051" lon="9.454860697615889"><ele>921.9999999999999</ele><time>2026-05-03T13:00:09Z</time></trkpt><trkpt lat="44.77292309373105" lon="9.454991081028334"><ele>922.0</ele><time>2026-05-03T13:00:11Z</time></trkpt><trkpt lat="44.77286093791292" lon="9.455104341916165"><ele>923.4000000000001</ele><time>2026-05-03T13:00:13Z</time></trkpt><trkpt lat="44.77275229246085" lon="9.455177344977777"><ele>924.8000000000001</ele><time>2026-05-03T13:00:15Z</time></trkpt><trkpt lat="44.77270261543534" lon="9.45523401833563"><ele>926.2</ele><time>2026-05-03T13:00:16Z</time></trkpt><trkpt lat="44.772658381163964" lon="9.455309625925475"><ele>927.6</ele><time>2026-05-03T13:00:17Z</time></trkpt><trkpt lat="44.77257373082856" lon="9.455398501126389"><ele>929.0</ele><time>2026-05-03T13:00:19Z</time></trkpt><trkpt lat="44.77246375151852" lon="9.455400723913462"><ele>931.0000000000001</ele><time>2026-05-03T13:00:21Z</time></trkpt><trkpt lat="44.77234475264173" lon="9.455382451814272"><ele>933.0</ele><time>2026-05-03T13:00:23Z</time></trkpt><trkpt lat="44.77228102883486" lon="9.455384833289386"><ele>935.0</ele><time>2026-05-03T13:00:24Z</time></trkpt><trkpt lat="44.772211523826485" lon="9.455385240020284"><ele>937.0</ele><time>2026-05-03T13:00:25Z</time></trkpt><trkpt lat="44.77213485486645" lon="9.455401955861484"><ele>939.0000000000001</ele><time>2026-05-03T13:00:26Z</time></trkpt><trkpt lat="44.772046050046896" lon="9.455421727271219"><ele>941.0</ele><time>2026-05-03T13:00:27Z</time></trkpt><trkpt lat="44.77195858339995" lon="9.45543133065215"><ele>940.9999999999999</ele><time>2026-05-03T13:00:28Z</time></trkpt><trkpt lat="44.771881626255535" lon="9.455453394775597"><ele>941.0</ele><time>2026-05-03T13:00:29Z</time></trkpt><trkpt lat="44.771806562007264" lon="9.455493618569582"><ele>940.9999999999999</ele><time>2026-05-03T13:00:30Z</time></trkpt><trkpt lat="44.77174261028423" lon="9.455543197703635"><ele>940.9999999999999</ele><time>2026-05-03T13:00:31Z</time></trkpt><trkpt lat="44.771678702316564" lon="9.455568639057361"><ele>941.0</ele><time>2026-05-03T13:00:32Z</time></trkpt><trkpt lat="44.771614268629776" lon="9.455577474507452"><ele>940.9999999999999</ele><time>2026-05-03T13:00:33Z</time></trkpt><trkpt lat="44.77155185411146" lon="9.45559819718058"><ele>940.9999999999999</ele><time>2026-05-03T13:00:34Z</time></trkpt><trkpt lat="44.77145961075009" lon="9.455718191918987"><ele>944.5000000000001</ele><time>2026-05-03T13:00:36Z</time></trkpt><trkpt lat="44.771406854948594" lon="9.455782463305564"><ele>948.0</ele><time>2026-05-03T13:00:37Z</time></trkpt><trkpt lat="44.77134069392241" lon="9.455829737593133"><ele>951.5</ele><time>2026-05-03T13:00:38Z</time></trkpt><trkpt lat="44.771282991795864" lon="9.45587820049855"><ele>955.0</ele><time>2026-05-03T13:00:39Z</time></trkpt><trkpt lat="44.77121915432264" lon="9.455918476102338"><ele>958.5000000000001</ele><time>2026-05-03T13:00:40Z</time></trkpt><trkpt lat="44.771102109304344" lon="9.455945417551217"><ele>962.0</ele><time>2026-05-03T13:00:41.999Z</time></trkpt><trkpt lat="44.77101807427833" lon="9.456057029783656"><ele>964.3333333333334</ele><time>2026-05-03T13:00:43.999Z</time></trkpt><trkpt lat="44.7709861632736" lon="9.45615469223903"><ele>966.6666666666667</ele><time>2026-05-03T13:00:44.999Z</time></trkpt><trkpt lat="44.770935521326884" lon="9.45622608950446"><ele>969.0</ele><time>2026-05-03T13:00:45.999Z</time></trkpt><trkpt lat="44.77087090859591" lon="9.456272040752513"><ele>971.3333333333333</ele><time>2026-05-03T13:00:46.999Z</time></trkpt><trkpt lat="44.770810730270966" lon="9.456322764642444"><ele>973.6666666666666</ele><time>2026-05-03T13:00:47.999Z</time></trkpt><trkpt lat="44.770697223043015" lon="9.456331147386805"><ele>976.0</ele><time>2026-05-03T13:00:49.999Z</time></trkpt><trkpt lat="44.77062579965599" lon="9.456310111032424"><ele>977.1666666666666</ele><time>2026-05-03T13:00:50.999Z</time></trkpt><trkpt lat="44.7705589263502" lon="9.456321152135622"><ele>978.3333333333333</ele><time>2026-05-03T13:00:51.999Z</time></trkpt><trkpt lat="44.77050574572178" lon="9.45638325749752"><ele>979.5</ele><time>2026-05-03T13:00:52.999Z</time></trkpt><trkpt lat="44.77043437828761" lon="9.456467226539157"><ele>980.6666666666667</ele><time>2026-05-03T13:00:53.999Z</time></trkpt><trkpt lat="44.770361214224" lon="9.456521544402397"><ele>981.8333333333334</ele><time>2026-05-03T13:00:54.999Z</time></trkpt><trkpt lat="44.77028365227197" lon="9.456564712384308"><ele>983.0</ele><time>2026-05-03T13:00:55.999Z</time></trkpt><trkpt lat="44.770212962456945" lon="9.456654161558328"><ele>984.5000000000001</ele><time>2026-05-03T13:00:57.999Z</time></trkpt><trkpt lat="44.77015694066181" lon="9.456734981655414"><ele>986.0</ele><time>2026-05-03T13:00:59.999Z</time></trkpt><trkpt lat="44.77007878843209" lon="9.456714699600628"><ele>987.5</ele><time>2026-05-03T13:01:03.999Z</time></trkpt><trkpt lat="44.770047926807806" lon="9.456582707549982"><ele>989.0</ele><time>2026-05-03T13:01:07.999Z</time></trkpt><trkpt lat="44.770030803467534" lon="9.456466196940104"><ele>990.5000000000001</ele><time>2026-05-03T13:01:09.999Z</time></trkpt><trkpt lat="44.770004910987296" lon="9.456346991512858"><ele>992.0</ele><time>2026-05-03T13:01:11.999Z</time></trkpt><trkpt lat="44.76993796376712" lon="9.45620248013725"><ele>992.0</ele><time>2026-05-03T13:01:13.999Z</time></trkpt><trkpt lat="44.769897412088206" lon="9.45611257851467"><ele>992.0</ele><time>2026-05-03T13:01:14.999Z</time></trkpt><trkpt lat="44.76984325435902" lon="9.455962932641967"><ele>992.0</ele><time>2026-05-03T13:01:16.999Z</time></trkpt><trkpt lat="44.769849807289795" lon="9.455806470243624"><ele>992.0</ele><time>2026-05-03T13:01:18.999Z</time></trkpt><trkpt lat="44.76990001592375" lon="9.455643291798838"><ele>992.0</ele><time>2026-05-03T13:01:20.999Z</time></trkpt><trkpt lat="44.76993137582049" lon="9.455546971530413"><ele>991.8</ele><time>2026-05-03T13:01:21.999Z</time></trkpt><trkpt lat="44.76993978601357" lon="9.455371338634473"><ele>991.6</ele><time>2026-05-03T13:01:23.999Z</time></trkpt><trkpt lat="44.769922322560205" lon="9.455200264327903"><ele>991.3999999999999</ele><time>2026-05-03T13:01:25.999Z</time></trkpt><trkpt lat="44.7699680549496" lon="9.455089226505862"><ele>991.1999999999999</ele><time>2026-05-03T13:01:27.999Z</time></trkpt><trkpt lat="44.76998328536472" lon="9.45498782314652"><ele>991.0</ele><time>2026-05-03T13:01:29.999Z</time></trkpt><trkpt lat="44.76995990626952" lon="9.454870962693784"><ele>990.9999999999999</ele><time>2026-05-03T13:01:32.999Z</time></trkpt><trkpt lat="44.77001706732291" lon="9.454740903008584"><ele>991.0</ele><time>2026-05-03T13:01:34.998Z</time></trkpt><trkpt lat="44.77001625972691" lon="9.454618617099053"><ele>991.0</ele><time>2026-05-03T13:01:36.998Z</time></trkpt><trkpt lat="44.769988672617764" lon="9.454525651858024"><ele>991.0</ele><time>2026-05-03T13:01:38.998Z</time></trkpt><trkpt lat="44.769968775628854" lon="9.454425808421593"><ele>990.9999999999999</ele><time>2026-05-03T13:01:43.998Z</time></trkpt><trkpt lat="44.769962434085144" lon="9.454317073223743"><ele>991.0</ele><time>2026-05-03T13:01:48.998Z</time></trkpt><trkpt lat="44.76995436153072" lon="9.454201575393554"><ele>990.4</ele><time>2026-05-03T13:01:51.998Z</time></trkpt><trkpt lat="44.769929625086036" lon="9.454050593762625"><ele>989.8</ele><time>2026-05-03T13:01:54.998Z</time></trkpt><trkpt lat="44.76997055308311" lon="9.453936663663388"><ele>989.1999999999999</ele><time>2026-05-03T13:01:56.998Z</time></trkpt><trkpt lat="44.77000036783902" lon="9.453854926439133"><ele>988.5999999999999</ele><time>2026-05-03T13:01:57.998Z</time></trkpt><trkpt lat="44.77004485074594" lon="9.453704766716038"><ele>988.0</ele><time>2026-05-03T13:01:59.998Z</time></trkpt><trkpt lat="44.7700303404504" lon="9.45358681348566"><ele>988.0</ele><time>2026-05-03T13:02:03.998Z</time></trkpt><trkpt lat="44.7699575799065" lon="9.45362010366181"><ele>988.0</ele><time>2026-05-03T13:02:07Z</time></trkpt><trkpt lat="44.769887845195214" lon="9.453725664704455"><ele>988.0</ele><time>2026-05-03T13:02:09Z</time></trkpt><trkpt lat="44.76979178281116" lon="9.453785481205186"><ele>988.0</ele><time>2026-05-03T13:02:11Z</time></trkpt><trkpt lat="44.76968195014303" lon="9.453817710799441"><ele>988.0</ele><time>2026-05-03T13:02:13Z</time></trkpt><trkpt lat="44.76961757241598" lon="9.453841011797856"><ele>987.9999999999999</ele><time>2026-05-03T13:02:14Z</time></trkpt><trkpt lat="44.76955788668458" lon="9.453880509247856"><ele>988.0</ele><time>2026-05-03T13:02:15Z</time></trkpt><trkpt lat="44.7694814533989" lon="9.453958129184096"><ele>988.0</ele><time>2026-05-03T13:02:17Z</time></trkpt><trkpt lat="44.76940258513134" lon="9.45400994967484"><ele>988.0</ele><time>2026-05-03T13:02:19Z</time></trkpt><trkpt lat="44.76930349091815" lon="9.454051616807995"><ele>987.9999999999999</ele><time>2026-05-03T13:02:21Z</time></trkpt><trkpt lat="44.76923060445744" lon="9.454056606313486"><ele>988.0</ele><time>2026-05-03T13:02:23Z</time></trkpt><trkpt lat="44.769139019368005" lon="9.454036523846767"><ele>990.5999999999999</ele><time>2026-05-03T13:02:25Z</time></trkpt><trkpt lat="44.76903947760371" lon="9.454088686009996"><ele>993.1999999999999</ele><time>2026-05-03T13:02:27Z</time></trkpt><trkpt lat="44.76897752646403" lon="9.454119494118052"><ele>995.8</ele><time>2026-05-03T13:02:28Z</time></trkpt><trkpt lat="44.768909483700284" lon="9.454135619957114"><ele>998.4</ele><time>2026-05-03T13:02:29Z</time></trkpt><trkpt lat="44.76880295975522" lon="9.45416378281246"><ele>1001.0</ele><time>2026-05-03T13:02:31Z</time></trkpt><trkpt lat="44.76869654374309" lon="9.454178664345264"><ele>1001.0</ele><time>2026-05-03T13:02:33Z</time></trkpt><trkpt lat="44.76861065483171" lon="9.454249453247115"><ele>1000.9999999999999</ele><time>2026-05-03T13:02:35Z</time></trkpt><trkpt lat="44.768600398968054" lon="9.454394678574824"><ele>1000.9999999999999</ele><time>2026-05-03T13:02:37Z</time></trkpt><trkpt lat="44.76861425369737" lon="9.45457699656147"><ele>1001.0</ele><time>2026-05-03T13:02:39Z</time></trkpt><trkpt lat="44.76861260712331" lon="9.45468960859484"><ele>1001.0</ele><time>2026-05-03T13:02:40Z</time></trkpt><trkpt lat="44.76863020849137" lon="9.454795487219231"><ele>1003.0</ele><time>2026-05-03T13:02:41Z</time></trkpt><trkpt lat="44.76862802000856" lon="9.454890310151658"><ele>1004.9999999999999</ele><time>2026-05-03T13:02:42Z</time></trkpt><trkpt lat="44.768627096858225" lon="9.454993134809605"><ele>1006.9999999999999</ele><time>2026-05-03T13:02:43Z</time></trkpt><trkpt lat="44.768629647816404" lon="9.455170718163021"><ele>1009.0</ele><time>2026-05-03T13:02:45Z</time></trkpt><trkpt lat="44.768671500704436" lon="9.455348009605368"><ele>1011.0</ele><time>2026-05-03T13:02:46.999Z</time></trkpt><trkpt lat="44.76868627936586" lon="9.455447848695929"><ele>1011.8333333333334</ele><time>2026-05-03T13:02:47.999Z</time></trkpt><trkpt lat="44.76869190950007" lon="9.455548800730364"><ele>1012.6666666666667</ele><time>2026-05-03T13:02:48.999Z</time></trkpt><trkpt lat="44.7686875979262" lon="9.455658845292325"><ele>1013.5</ele><time>2026-05-03T13:02:49.999Z</time></trkpt><trkpt lat="44.76867053833091" lon="9.455757074180488"><ele>1014.3333333333334</ele><time>2026-05-03T13:02:50.999Z</time></trkpt><trkpt lat="44.768583894719534" lon="9.455901952977397"><ele>1015.1666666666667</ele><time>2026-05-03T13:02:52.999Z</time></trkpt><trkpt lat="44.76854047385327" lon="9.455985044837863"><ele>1016.0</ele><time>2026-05-03T13:02:53.999Z</time></trkpt><trkpt lat="44.768486924504295" lon="9.456067620570492"><ele>1018.3333333333334</ele><time>2026-05-03T13:02:54.999Z</time></trkpt><trkpt lat="44.768445138982344" lon="9.456146542973464"><ele>1020.6666666666667</ele><time>2026-05-03T13:02:55.999Z</time></trkpt><trkpt lat="44.76836810304986" lon="9.45625170877824"><ele>1023.0</ele><time>2026-05-03T13:02:57.999Z</time></trkpt><trkpt lat="44.76829621354579" lon="9.456349491373988"><ele>1025.3333333333333</ele><time>2026-05-03T13:02:59.999Z</time></trkpt><trkpt lat="44.76825382441147" lon="9.456423528161903"><ele>1027.6666666666665</ele><time>2026-05-03T13:03:00.999Z</time></trkpt><trkpt lat="44.768212359004636" lon="9.456549003767893"><ele>1030.0</ele><time>2026-05-03T13:03:02.999Z</time></trkpt><trkpt lat="44.768113059894354" lon="9.456559694991899"><ele>1030.0</ele><time>2026-05-03T13:03:04.999Z</time></trkpt><trkpt lat="44.768053899291644" lon="9.45652908919126"><ele>1030.0</ele><time>2026-05-03T13:03:05.999Z</time></trkpt><trkpt lat="44.76793804686406" lon="9.456513345914829"><ele>1030.0</ele><time>2026-05-03T13:03:07.999Z</time></trkpt><trkpt lat="44.7678601513135" lon="9.456507282237931"><ele>1030.0</ele><time>2026-05-03T13:03:08.999Z</time></trkpt><trkpt lat="44.767793614117906" lon="9.456484616220973"><ele>1030.0</ele><time>2026-05-03T13:03:09.999Z</time></trkpt><trkpt lat="44.767716639277495" lon="9.456451823878387"><ele>1030.0</ele><time>2026-05-03T13:03:11.999Z</time></trkpt><trkpt lat="44.76759165633914" lon="9.456522928940576"><ele>1031.7142857142858</ele><time>2026-05-03T13:03:13.999Z</time></trkpt><trkpt lat="44.767501581867776" lon="9.456521965332838"><ele>1033.4285714285713</ele><time>2026-05-03T13:03:14.999Z</time></trkpt><trkpt lat="44.76743808935742" lon="9.456481914073326"><ele>1035.142857142857</ele><time>2026-05-03T13:03:15.999Z</time></trkpt><trkpt lat="44.767378422510156" lon="9.456439887331227"><ele>1036.857142857143</ele><time>2026-05-03T13:03:16.999Z</time></trkpt><trkpt lat="44.76730979863403" lon="9.45640215973711"><ele>1038.5714285714287</ele><time>2026-05-03T13:03:17.999Z</time></trkpt><trkpt lat="44.76724914996855" lon="9.456368156700831"><ele>1040.2857142857142</ele><time>2026-05-03T13:03:18.999Z</time></trkpt><trkpt lat="44.76718126728936" lon="9.456356211758019"><ele>1042.0</ele><time>2026-05-03T13:03:19.999Z</time></trkpt><trkpt lat="44.76711745690777" lon="9.4563919007617"><ele>1042.0</ele><time>2026-05-03T13:03:20.999Z</time></trkpt><trkpt lat="44.767043052389326" lon="9.456446820575016"><ele>1042.0</ele><time>2026-05-03T13:03:21.999Z</time></trkpt><trkpt lat="44.76696258371214" lon="9.456463255176592"><ele>1042.0</ele><time>2026-05-03T13:03:22.999Z</time></trkpt><trkpt lat="44.76688893044133" lon="9.456466931978614"><ele>1042.0</ele><time>2026-05-03T13:03:23.999Z</time></trkpt><trkpt lat="44.76680929818166" lon="9.456417030555448"><ele>1042.0</ele><time>2026-05-03T13:03:25.999Z</time></trkpt><trkpt lat="44.766741426757285" lon="9.456353936842083"><ele>1042.0</ele><time>2026-05-03T13:03:27.999Z</time></trkpt><trkpt lat="44.76666731707961" lon="9.456367882243232"><ele>1044.1666666666665</ele><time>2026-05-03T13:03:28.999Z</time></trkpt><trkpt lat="44.766598149427764" lon="9.456393469960705"><ele>1046.3333333333333</ele><time>2026-05-03T13:03:29.999Z</time></trkpt><trkpt lat="44.76651274732849" lon="9.456422736244654"><ele>1048.5</ele><time>2026-05-03T13:03:30.999Z</time></trkpt><trkpt lat="44.76642975460091" lon="9.4564168354782"><ele>1050.6666666666667</ele><time>2026-05-03T13:03:31.999Z</time></trkpt><trkpt lat="44.76634430430023" lon="9.456392792285717"><ele>1052.8333333333335</ele><time>2026-05-03T13:03:32.999Z</time></trkpt><trkpt lat="44.766260148226614" lon="9.456380584898977"><ele>1055.0</ele><time>2026-05-03T13:03:33.999Z</time></trkpt><trkpt lat="44.766190095666346" lon="9.456398195449342"><ele>1055.0</ele><time>2026-05-03T13:03:34.999Z</time></trkpt><trkpt lat="44.766087372151794" lon="9.456469402650734"><ele>1055.0</ele><time>2026-05-03T13:03:36.999Z</time></trkpt><trkpt lat="44.76597515521975" lon="9.456581566012146"><ele>1055.0</ele><time>2026-05-03T13:03:38.999Z</time></trkpt><trkpt lat="44.76590665499165" lon="9.456668824912725"><ele>1055.0</ele><time>2026-05-03T13:03:39.998Z</time></trkpt><trkpt lat="44.765826196877335" lon="9.45674217017295"><ele>1055.0</ele><time>2026-05-03T13:03:40.998Z</time></trkpt><trkpt lat="44.7657576441539" lon="9.456827321178404"><ele>1057.5</ele><time>2026-05-03T13:03:41.998Z</time></trkpt><trkpt lat="44.76570113163279" lon="9.456897356748224"><ele>1060.0</ele><time>2026-05-03T13:03:42.998Z</time></trkpt><trkpt lat="44.76562536394525" lon="9.456939233028338"><ele>1062.5</ele><time>2026-05-03T13:03:43.998Z</time></trkpt><trkpt lat="44.765526402382136" lon="9.456963681555852"><ele>1065.0</ele><time>2026-05-03T13:03:44.998Z</time></trkpt><trkpt lat="44.76543804992147" lon="9.456959139375426"><ele>1067.5</ele><time>2026-05-03T13:03:45.998Z</time></trkpt><trkpt lat="44.76535100081723" lon="9.456964158768297"><ele>1070.0</ele><time>2026-05-03T13:03:46.998Z</time></trkpt><trkpt lat="44.76527356303089" lon="9.456992732859481"><ele>1071.3333333333335</ele><time>2026-05-03T13:03:47.998Z</time></trkpt><trkpt lat="44.765188636276285" lon="9.457002748142486"><ele>1072.6666666666667</ele><time>2026-05-03T13:03:48.998Z</time></trkpt><trkpt lat="44.76510140514961" lon="9.457002051808702"><ele>1074.0</ele><time>2026-05-03T13:03:49.998Z</time></trkpt><trkpt lat="44.76501981775691" lon="9.45701563872054"><ele>1075.3333333333333</ele><time>2026-05-03T13:03:50.998Z</time></trkpt><trkpt lat="44.76493145667041" lon="9.457047460524617"><ele>1076.6666666666665</ele><time>2026-05-03T13:03:51.998Z</time></trkpt><trkpt lat="44.76484350135849" lon="9.457080840304235"><ele>1078.0</ele><time>2026-05-03T13:03:52.998Z</time></trkpt><trkpt lat="44.76477286584719" lon="9.457119464431399"><ele>1078.0</ele><time>2026-05-03T13:03:53.998Z</time></trkpt><trkpt lat="44.76470605869031" lon="9.457144922845186"><ele>1078.0</ele><time>2026-05-03T13:03:54.998Z</time></trkpt><trkpt lat="44.764604790549484" lon="9.457108493973891"><ele>1078.0</ele><time>2026-05-03T13:03:56.998Z</time></trkpt><trkpt lat="44.76454677215122" lon="9.457065872360088"><ele>1078.0</ele><time>2026-05-03T13:03:57.998Z</time></trkpt><trkpt lat="44.76448354415323" lon="9.457018575294338"><ele>1078.0</ele><time>2026-05-03T13:03:59.998Z</time></trkpt><trkpt lat="44.76444621047116" lon="9.45710078905464"><ele>1078.0</ele><time>2026-05-03T13:04:09.998Z</time></trkpt><trkpt lat="44.764378812088104" lon="9.457077979974944"><ele>1078.0</ele><time>2026-05-03T13:04:55.999Z</time></trkpt><trkpt lat="44.764310789197744" lon="9.457074674976848"><ele>1079.8333333333333</ele><time>2026-05-03T13:04:59.999Z</time></trkpt><trkpt lat="44.76422728298168" lon="9.457045784795215"><ele>1081.6666666666665</ele><time>2026-05-03T13:05:03.999Z</time></trkpt><trkpt lat="44.76415308408286" lon="9.457016703207893"><ele>1083.5</ele><time>2026-05-03T13:05:05.999Z</time></trkpt><trkpt lat="44.76408907126572" lon="9.456974042817"><ele>1085.3333333333333</ele><time>2026-05-03T13:05:07.999Z</time></trkpt><trkpt lat="44.76403313689659" lon="9.456923542213772"><ele>1087.1666666666667</ele><time>2026-05-03T13:05:13.999Z</time></trkpt><trkpt lat="44.76395290540779" lon="9.45688937319429"><ele>1089.0</ele><time>2026-05-03T13:05:34.999Z</time></trkpt><trkpt lat="44.763903134133145" lon="9.456819319503001"><ele>1089.0</ele><time>2026-05-03T13:05:41.999Z</time></trkpt><trkpt lat="44.76382535849989" lon="9.456770292298089"><ele>1089.0</ele><time>2026-05-03T13:05:54.998Z</time></trkpt><trkpt lat="44.76374066217603" lon="9.456678919826473"><ele>1089.0</ele><time>2026-05-03T13:05:56.998Z</time></trkpt><trkpt lat="44.76365101089377" lon="9.456607124793004"><ele>1089.0</ele><time>2026-05-03T13:05:58.998Z</time></trkpt><trkpt lat="44.76356004334229" lon="9.456553794466943"><ele>1089.0</ele><time>2026-05-03T13:06:02.998Z</time></trkpt><trkpt lat="44.76348285314966" lon="9.456537968983238"><ele>1091.6000000000001</ele><time>2026-05-03T13:06:03.998Z</time></trkpt><trkpt lat="44.76336174889137" lon="9.456480297499095"><ele>1094.2</ele><time>2026-05-03T13:06:05.998Z</time></trkpt><trkpt lat="44.76327539626878" lon="9.456458327409468"><ele>1096.8000000000002</ele><time>2026-05-03T13:06:06.998Z</time></trkpt><trkpt lat="44.76318422240731" lon="9.456427104681122"><ele>1099.4</ele><time>2026-05-03T13:06:07.998Z</time></trkpt><trkpt lat="44.76309850604681" lon="9.456442197479092"><ele>1102.0</ele><time>2026-05-03T13:06:08.998Z</time></trkpt><trkpt lat="44.7630217457253" lon="9.456481085608313"><ele>1102.0</ele><time>2026-05-03T13:06:09.998Z</time></trkpt><trkpt lat="44.762960834745584" lon="9.456523598895187"><ele>1102.0</ele><time>2026-05-03T13:06:10.998Z</time></trkpt><trkpt lat="44.76290390946678" lon="9.45659808287268"><ele>1102.0</ele><time>2026-05-03T13:06:12.998Z</time></trkpt><trkpt lat="44.76283294615373" lon="9.456627032888713"><ele>1102.0</ele><time>2026-05-03T13:07:07.999Z</time></trkpt><trkpt lat="44.76277102523075" lon="9.456721281664334"><ele>1102.0</ele><time>2026-05-03T13:07:15.999Z</time></trkpt><trkpt lat="44.76271032222168" lon="9.456773457917766"><ele>1102.0</ele><time>2026-05-03T13:07:17.999Z</time></trkpt><trkpt lat="44.76263289793459" lon="9.456816594307195"><ele>1102.6</ele><time>2026-05-03T13:07:23.999Z</time></trkpt><trkpt lat="44.76253948015353" lon="9.456844201706783"><ele>1103.2</ele><time>2026-05-03T13:07:27.999Z</time></trkpt><trkpt lat="44.76246681596118" lon="9.456849952272266"><ele>1103.8</ele><time>2026-05-03T13:07:29.999Z</time></trkpt><trkpt lat="44.762355319064845" lon="9.456864972486485"><ele>1104.4</ele><time>2026-05-03T13:07:31.999Z</time></trkpt><trkpt lat="44.762276913527806" lon="9.456961806408408"><ele>1105.0</ele><time>2026-05-03T13:07:33.999Z</time></trkpt><trkpt lat="44.762219350953416" lon="9.45701040470902"><ele>1105.0</ele><time>2026-05-03T13:07:35.999Z</time></trkpt><trkpt lat="44.762142874084624" lon="9.457048884115135"><ele>1105.0</ele><time>2026-05-03T13:07:58.998Z</time></trkpt><trkpt lat="44.76210107638271" lon="9.457151292179711"><ele>1105.0</ele><time>2026-05-03T13:08:00.998Z</time></trkpt><trkpt lat="44.762046845015476" lon="9.457309693014757"><ele>1105.0</ele><time>2026-05-03T13:08:02.998Z</time></trkpt><trkpt lat="44.762012663133625" lon="9.457400944646443"><ele>1105.0</ele><time>2026-05-03T13:08:03.998Z</time></trkpt><trkpt lat="44.761982413404944" lon="9.457486141673423"><ele>1105.0</ele><time>2026-05-03T13:08:04.998Z</time></trkpt><trkpt lat="44.76192177915451" lon="9.457600538420044"><ele>1106.0</ele><time>2026-05-03T13:08:06.998Z</time></trkpt><trkpt lat="44.761861622466554" lon="9.457632731496192"><ele>1107.0</ele><time>2026-05-03T13:08:08.998Z</time></trkpt><trkpt lat="44.76176244897218" lon="9.457654639679564"><ele>1108.0</ele><time>2026-05-03T13:08:10.998Z</time></trkpt><trkpt lat="44.76164113701744" lon="9.457719843302156"><ele>1109.0</ele><time>2026-05-03T13:08:12.998Z</time></trkpt><trkpt lat="44.761516979228794" lon="9.457772847814882"><ele>1110.0</ele><time>2026-05-03T13:08:14.998Z</time></trkpt><trkpt lat="44.76144847429377" lon="9.45776737438879"><ele>1110.0</ele><time>2026-05-03T13:08:15.998Z</time></trkpt><trkpt lat="44.761349031060575" lon="9.457744643187421"><ele>1110.0</ele><time>2026-05-03T13:08:17.998Z</time></trkpt><trkpt lat="44.76129035307389" lon="9.457695241835822"><ele>1110.0</ele><time>2026-05-03T13:08:21.998Z</time></trkpt><trkpt lat="44.761223583943476" lon="9.457688437835825"><ele>1110.0</ele><time>2026-05-03T13:08:37Z</time></trkpt><trkpt lat="44.76115760596597" lon="9.457687076061877"><ele>1110.0</ele><time>2026-05-03T13:09:07Z</time></trkpt><trkpt lat="44.761059433393825" lon="9.457694441510458"><ele>1110.0</ele><time>2026-05-03T13:09:14.999Z</time></trkpt><trkpt lat="44.76097034848243" lon="9.457735806175966"><ele>1109.6666666666667</ele><time>2026-05-03T13:09:16.999Z</time></trkpt><trkpt lat="44.76090431050054" lon="9.457806279259906"><ele>1109.3333333333333</ele><time>2026-05-03T13:09:19.999Z</time></trkpt><trkpt lat="44.760835815521084" lon="9.457828398834621"><ele>1109.0</ele><time>2026-05-03T13:09:49.999Z</time></trkpt><trkpt lat="44.76075595208182" lon="9.457877312952961"><ele>1108.6666666666665</ele><time>2026-05-03T13:09:51.999Z</time></trkpt><trkpt lat="44.76068303022024" lon="9.457849813314333"><ele>1108.3333333333333</ele><time>2026-05-03T13:09:53.999Z</time></trkpt><trkpt lat="44.76061873945353" lon="9.457777073579434"><ele>1108.0</ele><time>2026-05-03T13:09:55.999Z</time></trkpt><trkpt lat="44.760545610379054" lon="9.457794008888497"><ele>1108.0</ele><time>2026-05-03T13:09:58.999Z</time></trkpt><trkpt lat="44.760457270305075" lon="9.457796310463838"><ele>1108.0</ele><time>2026-05-03T13:10:00.999Z</time></trkpt><trkpt lat="44.760392100845856" lon="9.457798604339123"><ele>1108.0</ele><time>2026-05-03T13:10:02.998Z</time></trkpt><trkpt lat="44.76027993239852" lon="9.45783080885272"><ele>1108.0</ele><time>2026-05-03T13:10:04.998Z</time></trkpt><trkpt lat="44.76018360303647" lon="9.457884280199494"><ele>1108.0</ele><time>2026-05-03T13:10:06.998Z</time></trkpt><trkpt lat="44.76010407153238" lon="9.457948090472778"><ele>1110.3333333333333</ele><time>2026-05-03T13:10:08.998Z</time></trkpt><trkpt lat="44.760050515861444" lon="9.458027850798729"><ele>1112.6666666666665</ele><time>2026-05-03T13:10:11.998Z</time></trkpt><trkpt lat="44.76000082882202" lon="9.458091821996678"><ele>1115.0</ele><time>2026-05-03T13:10:13.998Z</time></trkpt><trkpt lat="44.75995246018834" lon="9.4581560868804"><ele>1117.3333333333333</ele><time>2026-05-03T13:10:16.998Z</time></trkpt><trkpt lat="44.75990266976" lon="9.458236080413332"><ele>1119.6666666666667</ele><time>2026-05-03T13:10:20.998Z</time></trkpt><trkpt lat="44.75985091658443" lon="9.458320816087715"><ele>1122.0</ele><time>2026-05-03T13:10:25.998Z</time></trkpt><trkpt lat="44.759798391548976" lon="9.4584422546504"><ele>1122.0</ele><time>2026-05-03T13:10:41Z</time></trkpt><trkpt lat="44.75973675533887" lon="9.458594461700606"><ele>1122.0</ele><time>2026-05-03T13:10:43Z</time></trkpt><trkpt lat="44.75970644989543" lon="9.458700787772711"><ele>1122.0</ele><time>2026-05-03T13:10:44Z</time></trkpt><trkpt lat="44.75966223211186" lon="9.458845988949566"><ele>1122.0</ele><time>2026-05-03T13:10:46Z</time></trkpt><trkpt lat="44.759631517106946" lon="9.458996237572647"><ele>1122.0</ele><time>2026-05-03T13:11:18.999Z</time></trkpt><trkpt lat="44.75960026766938" lon="9.459102614285726"><ele>1125.0</ele><time>2026-05-03T13:11:21.999Z</time></trkpt><trkpt lat="44.75955422091888" lon="9.459182197404997"><ele>1128.0</ele><time>2026-05-03T13:11:23.999Z</time></trkpt><trkpt lat="44.75950904183468" lon="9.459297445966495"><ele>1131.0</ele><time>2026-05-03T13:11:26.999Z</time></trkpt><trkpt lat="44.75948652593238" lon="9.459387535209858"><ele>1134.0</ele><time>2026-05-03T13:11:28.999Z</time></trkpt><trkpt lat="44.75944547705302" lon="9.459497344939969"><ele>1137.0</ele><time>2026-05-03T13:11:31.999Z</time></trkpt><trkpt lat="44.75939277849743" lon="9.459602226159296"><ele>1140.0</ele><time>2026-05-03T13:11:43.999Z</time></trkpt><trkpt lat="44.75937102022931" lon="9.45968783614042"><ele>1143.3333333333333</ele><time>2026-05-03T13:11:47.999Z</time></trkpt><trkpt lat="44.75934558407423" lon="9.459770618342377"><ele>1146.6666666666667</ele><time>2026-05-03T13:11:49.999Z</time></trkpt><trkpt lat="44.75931127361904" lon="9.459864648441311"><ele>1150.0</ele><time>2026-05-03T13:11:51.999Z</time></trkpt><trkpt lat="44.75927419647205" lon="9.459965348219058"><ele>1153.3333333333335</ele><time>2026-05-03T13:11:53.999Z</time></trkpt><trkpt lat="44.759231859923155" lon="9.460071292810929"><ele>1156.6666666666667</ele><time>2026-05-03T13:11:55.999Z</time></trkpt><trkpt lat="44.75918269842355" lon="9.460188146619528"><ele>1160.0</ele><time>2026-05-03T13:11:57.999Z</time></trkpt><trkpt lat="44.75913039668342" lon="9.460323527935152"><ele>1163.2</ele><time>2026-05-03T13:11:59.999Z</time></trkpt><trkpt lat="44.75909249643131" lon="9.460453366803193"><ele>1166.4</ele><time>2026-05-03T13:12:01.998Z</time></trkpt><trkpt lat="44.75902142383936" lon="9.460571983836925"><ele>1169.6</ele><time>2026-05-03T13:12:03.998Z</time></trkpt><trkpt lat="44.75898053631549" lon="9.460663806378395"><ele>1172.8</ele><time>2026-05-03T13:12:05.998Z</time></trkpt><trkpt lat="44.75893891310242" lon="9.460775758062637"><ele>1176.0</ele><time>2026-05-03T13:14:14.998Z</time></trkpt><trkpt lat="44.758890346604076" lon="9.460893883787318"><ele>1176.0</ele><time>2026-05-03T13:14:16.998Z</time></trkpt><trkpt lat="44.75886639355296" lon="9.460987474919364"><ele>1176.0</ele><time>2026-05-03T13:14:17.998Z</time></trkpt><trkpt lat="44.75883540858992" lon="9.461070481325782"><ele>1176.0</ele><time>2026-05-03T13:14:18.998Z</time></trkpt><trkpt lat="44.758799784645355" lon="9.461160967157522"><ele>1176.0</ele><time>2026-05-03T13:14:19.998Z</time></trkpt><trkpt lat="44.75875769375145" lon="9.461290780803074"><ele>1176.0</ele><time>2026-05-03T13:14:21.998Z</time></trkpt><trkpt lat="44.75871491309109" lon="9.46142852166135"><ele>1176.0</ele><time>2026-05-03T13:14:23.998Z</time></trkpt><trkpt lat="44.75864364410125" lon="9.461554029583942"><ele>1176.6666666666667</ele><time>2026-05-03T13:14:25.998Z</time></trkpt><trkpt lat="44.75862192079671" lon="9.46163774622185"><ele>1177.3333333333333</ele><time>2026-05-03T13:14:27.998Z</time></trkpt><trkpt lat="44.758585153538355" lon="9.461719746743832"><ele>1178.0</ele><time>2026-05-03T13:14:29.998Z</time></trkpt><trkpt lat="44.75853900871622" lon="9.461801448350885"><ele>1178.6666666666665</ele><time>2026-05-03T13:14:45Z</time></trkpt><trkpt lat="44.75844847934017" lon="9.461892930341353"><ele>1179.3333333333333</ele><time>2026-05-03T13:14:51Z</time></trkpt><trkpt lat="44.75837184496217" lon="9.462012944436825"><ele>1180.0</ele><time>2026-05-03T13:14:54Z</time></trkpt><trkpt lat="44.75829367983418" lon="9.4620983530272"><ele>1181.2</ele><time>2026-05-03T13:14:56Z</time></trkpt><trkpt lat="44.75825264749359" lon="9.462222446622315"><ele>1182.4</ele><time>2026-05-03T13:14:59Z</time></trkpt><trkpt lat="44.758263970549315" lon="9.462390097475886"><ele>1183.6</ele><time>2026-05-03T13:15:01Z</time></trkpt><trkpt lat="44.75827992034515" lon="9.462482334711488"><ele>1184.8</ele><time>2026-05-03T13:15:02Z</time></trkpt><trkpt lat="44.7583082213048" lon="9.462627141354595"><ele>1186.0</ele><time>2026-05-03T13:15:04Z</time></trkpt><trkpt lat="44.758321076580366" lon="9.462715754381385"><ele>1185.9999999999998</ele><time>2026-05-03T13:15:06Z</time></trkpt><trkpt lat="44.758330380776385" lon="9.462826192472521"><ele>1186.0</ele><time>2026-05-03T13:15:09Z</time></trkpt><trkpt lat="44.7583412697405" lon="9.462924859849561"><ele>1186.0</ele><time>2026-05-03T13:15:12Z</time></trkpt><trkpt lat="44.75839068808506" lon="9.46301710175601"><ele>1186.0</ele><time>2026-05-03T13:15:18Z</time></trkpt><trkpt lat="44.75845358684098" lon="9.463059778197495"><ele>1186.0</ele><time>2026-05-03T13:15:21Z</time></trkpt><trkpt lat="44.75850738423197" lon="9.463118463506541"><ele>1185.9999999999998</ele><time>2026-05-03T13:15:27.999Z</time></trkpt><trkpt lat="44.75854261692917" lon="9.463207449290445"><ele>1186.0</ele><time>2026-05-03T13:15:30.999Z</time></trkpt><trkpt lat="44.75861192557858" lon="9.463249103496052"><ele>1186.3333333333333</ele><time>2026-05-03T13:15:33.999Z</time></trkpt><trkpt lat="44.75865976944399" lon="9.463312855830146"><ele>1186.6666666666665</ele><time>2026-05-03T13:15:36.999Z</time></trkpt><trkpt lat="44.758703037569816" lon="9.463400983794294"><ele>1187.0</ele><time>2026-05-03T13:15:39.999Z</time></trkpt><trkpt lat="44.75874817976479" lon="9.463538644158888"><ele>1187.3333333333333</ele><time>2026-05-03T13:15:41.999Z</time></trkpt><trkpt lat="44.75878673493459" lon="9.463629611782425"><ele>1187.6666666666667</ele><time>2026-05-03T13:15:42.999Z</time></trkpt><trkpt lat="44.75881278082606" lon="9.463739038983654"><ele>1188.0</ele><time>2026-05-03T13:15:43.999Z</time></trkpt><trkpt lat="44.75882624106168" lon="9.463833592637036"><ele>1186.4</ele><time>2026-05-03T13:15:44.999Z</time></trkpt><trkpt lat="44.75883498855489" lon="9.464008085694333"><ele>1184.8</ele><time>2026-05-03T13:15:46.999Z</time></trkpt><trkpt lat="44.758856163663914" lon="9.464147769604377"><ele>1183.2</ele><time>2026-05-03T13:15:48.999Z</time></trkpt><trkpt lat="44.758920998032906" lon="9.464243510526153"><ele>1181.6</ele><time>2026-05-03T13:15:50.999Z</time></trkpt><trkpt lat="44.75902815042745" lon="9.464326517987155"><ele>1180.0</ele><time>2026-05-03T13:15:52.999Z</time></trkpt><trkpt lat="44.759103825218816" lon="9.464373153406866"><ele>1180.0</ele><time>2026-05-03T13:15:53.999Z</time></trkpt><trkpt lat="44.75918353616293" lon="9.464418939796081"><ele>1180.0</ele><time>2026-05-03T13:15:54.999Z</time></trkpt><trkpt lat="44.75920434065442" lon="9.464502867651246"><ele>1180.0</ele><time>2026-05-03T13:15:56.999Z</time></trkpt><trkpt lat="44.75927252796086" lon="9.46463920764498"><ele>1180.0</ele><time>2026-05-03T13:15:58.999Z</time></trkpt><trkpt lat="44.75927157393992" lon="9.464822540975002"><ele>1180.0</ele><time>2026-05-03T13:16:00.999Z</time></trkpt><trkpt lat="44.75924560583226" lon="9.464914271440573"><ele>1178.6</ele><time>2026-05-03T13:16:01.999Z</time></trkpt><trkpt lat="44.75918933478232" lon="9.465077133602588"><ele>1177.2</ele><time>2026-05-03T13:16:03.999Z</time></trkpt><trkpt lat="44.75916871363502" lon="9.465263172764425"><ele>1175.8</ele><time>2026-05-03T13:16:05.999Z</time></trkpt><trkpt lat="44.75913861582649" lon="9.465386175722518"><ele>1174.4</ele><time>2026-05-03T13:16:06.999Z</time></trkpt><trkpt lat="44.759096756033756" lon="9.465496675845074"><ele>1173.0</ele><time>2026-05-03T13:16:07.999Z</time></trkpt><trkpt lat="44.75906019179142" lon="9.465594106379164"><ele>1171.5</ele><time>2026-05-03T13:16:08.999Z</time></trkpt><trkpt lat="44.75903000316602" lon="9.465683684116105"><ele>1170.0</ele><time>2026-05-03T13:16:09.999Z</time></trkpt><trkpt lat="44.7590087075884" lon="9.465782890403759"><ele>1168.5</ele><time>2026-05-03T13:16:10.999Z</time></trkpt><trkpt lat="44.75899344510302" lon="9.46588236376904"><ele>1167.0</ele><time>2026-05-03T13:16:11.999Z</time></trkpt><trkpt lat="44.75897485384678" lon="9.466040175270315"><ele>1165.5</ele><time>2026-05-03T13:16:13.999Z</time></trkpt><trkpt lat="44.75899393048027" lon="9.46613650177632"><ele>1164.0</ele><time>2026-05-03T13:16:14.999Z</time></trkpt><trkpt lat="44.759029227595775" lon="9.466220906403679"><ele>1164.0</ele><time>2026-05-03T13:16:15.999Z</time></trkpt><trkpt lat="44.759080679641585" lon="9.46627375626943"><ele>1164.0</ele><time>2026-05-03T13:16:16.999Z</time></trkpt><trkpt lat="44.75914009929646" lon="9.466322496901151"><ele>1164.0</ele><time>2026-05-03T13:16:17.998Z</time></trkpt><trkpt lat="44.75919881335121" lon="9.466366272075378"><ele>1164.0</ele><time>2026-05-03T13:16:18.998Z</time></trkpt><trkpt lat="44.759256192682514" lon="9.466420389501236"><ele>1164.0</ele><time>2026-05-03T13:16:19.998Z</time></trkpt><trkpt lat="44.759320867309974" lon="9.466473251942983"><ele>1164.0</ele><time>2026-05-03T13:16:20.998Z</time></trkpt><trkpt lat="44.759385030961646" lon="9.466523199416388"><ele>1164.0</ele><time>2026-05-03T13:16:21.998Z</time></trkpt><trkpt lat="44.7594471818745" lon="9.466561191929411"><ele>1161.8333333333333</ele><time>2026-05-03T13:16:22.998Z</time></trkpt><trkpt lat="44.75950761161476" lon="9.466595637815226"><ele>1159.6666666666667</ele><time>2026-05-03T13:16:23.998Z</time></trkpt><trkpt lat="44.75954936465688" lon="9.46667620807891"><ele>1157.5</ele><time>2026-05-03T13:16:25.998Z</time></trkpt><trkpt lat="44.75953300643593" lon="9.466842311883429"><ele>1155.3333333333335</ele><time>2026-05-03T13:16:27.998Z</time></trkpt><trkpt lat="44.75954149027303" lon="9.466935083503712"><ele>1153.1666666666667</ele><time>2026-05-03T13:16:28.998Z</time></trkpt><trkpt lat="44.75953529070801" lon="9.467029008242951"><ele>1151.0</ele><time>2026-05-03T13:16:29.998Z</time></trkpt><trkpt lat="44.75952803162629" lon="9.467198553727645"><ele>1149.6</ele><time>2026-05-03T13:16:31.998Z</time></trkpt><trkpt lat="44.75954152367796" lon="9.467295957199182"><ele>1148.1999999999998</ele><time>2026-05-03T13:16:32.998Z</time></trkpt><trkpt lat="44.759603407495156" lon="9.467405823808257"><ele>1146.8000000000002</ele><time>2026-05-03T13:16:34.998Z</time></trkpt><trkpt lat="44.75966563239184" lon="9.46755134825507"><ele>1145.4</ele><time>2026-05-03T13:16:36.998Z</time></trkpt><trkpt lat="44.759685581726316" lon="9.467692734399767"><ele>1144.0</ele><time>2026-05-03T13:16:38.998Z</time></trkpt><trkpt lat="44.75970078648795" lon="9.467787145582252"><ele>1143.9999999999998</ele><time>2026-05-03T13:16:39.998Z</time></trkpt><trkpt lat="44.75973753664028" lon="9.467887546926116"><ele>1144.0</ele><time>2026-05-03T13:16:40.998Z</time></trkpt><trkpt lat="44.75975154818234" lon="9.468003256180499"><ele>1144.0</ele><time>2026-05-03T13:16:41.998Z</time></trkpt><trkpt lat="44.759766579238224" lon="9.468106741609054"><ele>1144.0</ele><time>2026-05-03T13:16:42.998Z</time></trkpt><trkpt lat="44.75978380787789" lon="9.468199717756809"><ele>1144.0</ele><time>2026-05-03T13:16:43.998Z</time></trkpt><trkpt lat="44.759813754340676" lon="9.46829019755053"><ele>1143.9999999999998</ele><time>2026-05-03T13:16:44.998Z</time></trkpt><trkpt lat="44.759849397620165" lon="9.468377084583935"><ele>1144.0</ele><time>2026-05-03T13:16:45.998Z</time></trkpt><trkpt lat="44.75992077755284" lon="9.468509987845309"><ele>1142.3333333333333</ele><time>2026-05-03T13:16:47.998Z</time></trkpt><trkpt lat="44.75995527955915" lon="9.468661261511583"><ele>1140.6666666666665</ele><time>2026-05-03T13:16:50Z</time></trkpt><trkpt lat="44.76000316096883" lon="9.468719212589196"><ele>1139.0</ele><time>2026-05-03T13:16:51Z</time></trkpt><trkpt lat="44.7600405067315" lon="9.468793148078069"><ele>1137.3333333333333</ele><time>2026-05-03T13:16:52Z</time></trkpt><trkpt lat="44.76007728068654" lon="9.46889990484786"><ele>1135.6666666666667</ele><time>2026-05-03T13:16:53Z</time></trkpt><trkpt lat="44.76010452269455" lon="9.469009573359228"><ele>1134.0</ele><time>2026-05-03T13:16:54Z</time></trkpt><trkpt lat="44.760123972977894" lon="9.469107131694926"><ele>1132.8333333333333</ele><time>2026-05-03T13:16:55Z</time></trkpt><trkpt lat="44.760136823231335" lon="9.469196360543501"><ele>1131.6666666666667</ele><time>2026-05-03T13:16:56Z</time></trkpt><trkpt lat="44.76018345281003" lon="9.469330548867251"><ele>1130.5</ele><time>2026-05-03T13:16:58Z</time></trkpt><trkpt lat="44.7602308936996" lon="9.469396082320834"><ele>1129.3333333333335</ele><time>2026-05-03T13:17:00Z</time></trkpt><trkpt lat="44.760264206360475" lon="9.469521274068065"><ele>1128.1666666666667</ele><time>2026-05-03T13:17:02Z</time></trkpt><trkpt lat="44.760319111504515" lon="9.469600335346888"><ele>1127.0</ele><time>2026-05-03T13:17:04Z</time></trkpt><trkpt lat="44.760385024262526" lon="9.469675570408551"><ele>1124.0</ele><time>2026-05-03T13:17:06Z</time></trkpt><trkpt lat="44.76041668190597" lon="9.469769501303562"><ele>1121.0</ele><time>2026-05-03T13:17:09Z</time></trkpt><trkpt lat="44.76042947773843" lon="9.469856451869532"><ele>1118.0</ele><time>2026-05-03T13:17:11Z</time></trkpt><trkpt lat="44.76044527779596" lon="9.469988412656493"><ele>1115.0</ele><time>2026-05-03T13:17:14Z</time></trkpt><trkpt lat="44.760456372703516" lon="9.470083207403697"><ele>1112.0</ele><time>2026-05-03T13:17:16Z</time></trkpt><trkpt lat="44.76044768040095" lon="9.470207891787421"><ele>1109.0</ele><time>2026-05-03T13:17:18Z</time></trkpt><trkpt lat="44.7604395182674" lon="9.470339029502682"><ele>1107.4</ele><time>2026-05-03T13:17:20Z</time></trkpt><trkpt lat="44.760470269697585" lon="9.47044581522975"><ele>1105.8000000000002</ele><time>2026-05-03T13:17:22Z</time></trkpt><trkpt lat="44.76053320554935" lon="9.470548856616618"><ele>1104.1999999999998</ele><time>2026-05-03T13:17:24Z</time></trkpt><trkpt lat="44.760532599664074" lon="9.470683265046763"><ele>1102.6</ele><time>2026-05-03T13:17:26Z</time></trkpt><trkpt lat="44.76055438309427" lon="9.470798696927341"><ele>1101.0</ele><time>2026-05-03T13:17:27.999Z</time></trkpt><trkpt lat="44.76058771908425" lon="9.470919481664776"><ele>1101.0</ele><time>2026-05-03T13:17:29.999Z</time></trkpt><trkpt lat="44.76064339567496" lon="9.471037965448202"><ele>1101.0</ele><time>2026-05-03T13:17:31.999Z</time></trkpt><trkpt lat="44.76069403662007" lon="9.471165495801882"><ele>1101.0</ele><time>2026-05-03T13:17:33.999Z</time></trkpt><trkpt lat="44.760774537411635" lon="9.471254235674948"><ele>1101.0</ele><time>2026-05-03T13:17:35.999Z</time></trkpt><trkpt lat="44.7608383291771" lon="9.47132439165755"><ele>1101.0</ele><time>2026-05-03T13:17:39.999Z</time></trkpt><trkpt lat="44.76087105121452" lon="9.471421284299959"><ele>1099.0</ele><time>2026-05-03T13:17:42.999Z</time></trkpt><trkpt lat="44.76090140148445" lon="9.47150004027065"><ele>1097.0</ele><time>2026-05-03T13:17:44.999Z</time></trkpt><trkpt lat="44.76094086240444" lon="9.47159184352831"><ele>1095.0</ele><time>2026-05-03T13:17:46.999Z</time></trkpt><trkpt lat="44.76098121743175" lon="9.471698429148274"><ele>1093.0</ele><time>2026-05-03T13:17:48.999Z</time></trkpt><trkpt lat="44.76106483438554" lon="9.471821810862634"><ele>1091.0</ele><time>2026-05-03T13:17:50.999Z</time></trkpt><trkpt lat="44.76113985798557" lon="9.471906903560564"><ele>1089.0</ele><time>2026-05-03T13:17:52.999Z</time></trkpt><trkpt lat="44.76109874498938" lon="9.471992714608566"><ele>1088.0</ele><time>2026-05-03T13:17:55.999Z</time></trkpt><trkpt lat="44.76105994281391" lon="9.47208133212626"><ele>1087.0</ele><time>2026-05-03T13:18:08.999Z</time></trkpt><trkpt lat="44.76100879167129" lon="9.472181574330358"><ele>1086.0</ele><time>2026-05-03T13:18:10.999Z</time></trkpt><trkpt lat="44.760956483693356" lon="9.47228538486342"><ele>1085.0</ele><time>2026-05-03T13:18:12.999Z</time></trkpt><trkpt lat="44.76092279722718" lon="9.47239264504861"><ele>1084.0</ele><time>2026-05-03T13:18:14.999Z</time></trkpt><trkpt lat="44.760943632046946" lon="9.472495075862412"><ele>1083.0</ele><time>2026-05-03T13:18:16.999Z</time></trkpt><trkpt lat="44.760964839524355" lon="9.472579927080789"><ele>1081.0</ele><time>2026-05-03T13:18:19.999Z</time></trkpt><trkpt lat="44.761035850748236" lon="9.472675789626194"><ele>1079.0</ele><time>2026-05-03T13:18:29.998Z</time></trkpt><trkpt lat="44.76109063193043" lon="9.472742340300194"><ele>1077.0</ele><time>2026-05-03T13:18:31.998Z</time></trkpt><trkpt lat="44.76115857830974" lon="9.472826568781974"><ele>1075.0</ele><time>2026-05-03T13:18:34.998Z</time></trkpt><trkpt lat="44.76119652161866" lon="9.472899116956327"><ele>1073.0</ele><time>2026-05-03T13:18:36.998Z</time></trkpt><trkpt lat="44.761197704317574" lon="9.472996721664453"><ele>1071.0</ele><time>2026-05-03T13:18:39.998Z</time></trkpt><trkpt lat="44.76117671727567" lon="9.473088769683534"><ele>1068.6666666666667</ele><time>2026-05-03T13:18:41.998Z</time></trkpt><trkpt lat="44.7611452977248" lon="9.473191314907725"><ele>1066.3333333333333</ele><time>2026-05-03T13:18:43.998Z</time></trkpt><trkpt lat="44.76112905080706" lon="9.473309351336292"><ele>1064.0</ele><time>2026-05-03T13:18:45.998Z</time></trkpt><trkpt lat="44.76108500979947" lon="9.473415241091086"><ele>1061.6666666666665</ele><time>2026-05-03T13:18:48.998Z</time></trkpt><trkpt lat="44.76100064608217" lon="9.473452886710556"><ele>1059.3333333333333</ele><time>2026-05-03T13:18:50.998Z</time></trkpt><trkpt lat="44.760916016456164" lon="9.4735071644387"><ele>1057.0</ele><time>2026-05-03T13:18:52.998Z</time></trkpt><trkpt lat="44.760868633996125" lon="9.473569460654076"><ele>1056.6666666666665</ele><time>2026-05-03T13:18:55Z</time></trkpt><trkpt lat="44.76079515783223" lon="9.47367442888707"><ele>1056.3333333333333</ele><time>2026-05-03T13:18:56Z</time></trkpt><trkpt lat="44.760713618182145" lon="9.473748275379053"><ele>1056.0</ele><time>2026-05-03T13:18:58Z</time></trkpt><trkpt lat="44.76064212204849" lon="9.47380925934123"><ele>1055.6666666666667</ele><time>2026-05-03T13:19:00Z</time></trkpt><trkpt lat="44.76058905148848" lon="9.473901104757106"><ele>1055.3333333333335</ele><time>2026-05-03T13:19:02Z</time></trkpt><trkpt lat="44.76060012480992" lon="9.473992264660883"><ele>1055.0</ele><time>2026-05-03T13:19:04Z</time></trkpt><trkpt lat="44.76062339588265" lon="9.474098361236875"><ele>1052.5</ele><time>2026-05-03T13:19:06Z</time></trkpt><trkpt lat="44.760675814655414" lon="9.474204961667418"><ele>1050.0</ele><time>2026-05-03T13:19:08Z</time></trkpt><trkpt lat="44.76073941410123" lon="9.4743158948105"><ele>1047.5</ele><time>2026-05-03T13:19:10Z</time></trkpt><trkpt lat="44.760785179469394" lon="9.474407073509465"><ele>1045.0</ele><time>2026-05-03T13:19:12Z</time></trkpt><trkpt lat="44.76073140050214" lon="9.474511440191238"><ele>1042.5</ele><time>2026-05-03T13:19:15Z</time></trkpt><trkpt lat="44.76070142061782" lon="9.474605801609181"><ele>1040.0</ele><time>2026-05-03T13:19:17Z</time></trkpt><trkpt lat="44.76065744044359" lon="9.474698481829916"><ele>1037.0</ele><time>2026-05-03T13:19:18Z</time></trkpt><trkpt lat="44.760717543440016" lon="9.474903457438291"><ele>1034.0</ele><time>2026-05-03T13:19:20Z</time></trkpt><trkpt lat="44.76069503000141" lon="9.47501727257406"><ele>1031.0</ele><time>2026-05-03T13:19:22Z</time></trkpt><trkpt lat="44.76060227902247" lon="9.475077534971602"><ele>1028.0</ele><time>2026-05-03T13:19:24Z</time></trkpt><trkpt lat="44.76049907555354" lon="9.475100864180579"><ele>1025.0</ele><time>2026-05-03T13:19:26Z</time></trkpt><trkpt lat="44.760433874569536" lon="9.475080692870113"><ele>1025.0</ele><time>2026-05-03T13:19:27Z</time></trkpt><trkpt lat="44.76030940017276" lon="9.475043134995783"><ele>1025.0</ele><time>2026-05-03T13:19:29Z</time></trkpt><trkpt lat="44.76019942887026" lon="9.47505465067159"><ele>1025.0</ele><time>2026-05-03T13:19:31Z</time></trkpt><trkpt lat="44.76014287042886" lon="9.475008221487832"><ele>1025.0</ele><time>2026-05-03T13:19:31.999Z</time></trkpt><trkpt lat="44.760079290969145" lon="9.47496529388657"><ele>1025.0</ele><time>2026-05-03T13:19:32.999Z</time></trkpt><trkpt lat="44.76000770050885" lon="9.474938412388767"><ele>1025.0</ele><time>2026-05-03T13:19:33.999Z</time></trkpt><trkpt lat="44.75993592649916" lon="9.474955789759656"><ele>1021.2</ele><time>2026-05-03T13:19:34.999Z</time></trkpt><trkpt lat="44.75986784172222" lon="9.47498710882578"><ele>1017.4</ele><time>2026-05-03T13:19:35.999Z</time></trkpt><trkpt lat="44.75975580237166" lon="9.475035213779748"><ele>1013.5999999999999</ele><time>2026-05-03T13:19:37.999Z</time></trkpt><trkpt lat="44.75974793229852" lon="9.475176101944479"><ele>1009.8</ele><time>2026-05-03T13:19:39.999Z</time></trkpt><trkpt lat="44.75968619233709" lon="9.475283035957606"><ele>1006.0</ele><time>2026-05-03T13:19:41.999Z</time></trkpt><trkpt lat="44.7596259591839" lon="9.475336925961965"><ele>1005.9999999999999</ele><time>2026-05-03T13:19:42.999Z</time></trkpt><trkpt lat="44.75956233613766" lon="9.475421753932455"><ele>1006.0</ele><time>2026-05-03T13:19:43.999Z</time></trkpt><trkpt lat="44.7594987112132" lon="9.475547874999464"><ele>1006.0</ele><time>2026-05-03T13:19:44.999Z</time></trkpt><trkpt lat="44.75942631967515" lon="9.475650829146263"><ele>1006.0</ele><time>2026-05-03T13:19:45.999Z</time></trkpt><trkpt lat="44.75936492124593" lon="9.475714513762124"><ele>1005.9999999999999</ele><time>2026-05-03T13:19:46.999Z</time></trkpt><trkpt lat="44.75930055170436" lon="9.475752901426254"><ele>1006.0</ele><time>2026-05-03T13:19:53.999Z</time></trkpt><trkpt lat="44.75922167843871" lon="9.475761632466696"><ele>1003.8333333333333</ele><time>2026-05-03T13:19:55.999Z</time></trkpt><trkpt lat="44.759153005319995" lon="9.475809165314368"><ele>1001.6666666666666</ele><time>2026-05-03T13:20:03.999Z</time></trkpt><trkpt lat="44.75907349668735" lon="9.475870881600462"><ele>999.5</ele><time>2026-05-03T13:20:06.999Z</time></trkpt><trkpt lat="44.75903956100706" lon="9.475948234063251"><ele>997.3333333333333</ele><time>2026-05-03T13:20:57.998Z</time></trkpt><trkpt lat="44.75897651176368" lon="9.476087197326503"><ele>995.1666666666666</ele><time>2026-05-03T13:20:59.998Z</time></trkpt><trkpt lat="44.75892294174259" lon="9.476156137962974"><ele>993.0</ele><time>2026-05-03T13:21:01Z</time></trkpt><trkpt lat="44.75888683992992" lon="9.476239880857765"><ele>990.2</ele><time>2026-05-03T13:21:02Z</time></trkpt><trkpt lat="44.75882689026735" lon="9.476323781354187"><ele>987.4</ele><time>2026-05-03T13:21:04Z</time></trkpt><trkpt lat="44.758732790940094" lon="9.476293583350332"><ele>984.6000000000001</ele><time>2026-05-03T13:21:06Z</time></trkpt><trkpt lat="44.758652900470615" lon="9.47631350038555"><ele>981.8000000000001</ele><time>2026-05-03T13:21:08Z</time></trkpt><trkpt lat="44.758545862203604" lon="9.47635079167053"><ele>979.0</ele><time>2026-05-03T13:21:10Z</time></trkpt><trkpt lat="44.758426863794455" lon="9.47638162420498"><ele>979.0</ele><time>2026-05-03T13:21:12Z</time></trkpt><trkpt lat="44.75831967216992" lon="9.476388827497761"><ele>979.0000000000001</ele><time>2026-05-03T13:21:14Z</time></trkpt><trkpt lat="44.75821797829847" lon="9.476376337498797"><ele>979.0000000000001</ele><time>2026-05-03T13:21:24Z</time></trkpt><trkpt lat="44.75813209413077" lon="9.476300852333646"><ele>979.0</ele><time>2026-05-03T13:21:26Z</time></trkpt><trkpt lat="44.758049329532135" lon="9.476328440679946"><ele>979.0</ele><time>2026-05-03T13:21:28Z</time></trkpt><trkpt lat="44.75798488294532" lon="9.476361399489663"><ele>978.9999999999999</ele><time>2026-05-03T13:21:29Z</time></trkpt><trkpt lat="44.75790258571415" lon="9.47637963958175"><ele>979.0</ele><time>2026-05-03T13:21:30Z</time></trkpt><trkpt lat="44.757829055475305" lon="9.47638027829419"><ele>979.0</ele><time>2026-05-03T13:21:31Z</time></trkpt><trkpt lat="44.757763713971826" lon="9.47637918795388"><ele>979.0</ele><time>2026-05-03T13:21:32Z</time></trkpt><trkpt lat="44.757693862141274" lon="9.476374518975613"><ele>978.9999999999999</ele><time>2026-05-03T13:21:33Z</time></trkpt><trkpt lat="44.757615309369825" lon="9.476357355071627"><ele>979.0</ele><time>2026-05-03T13:21:34Z</time></trkpt><trkpt lat="44.757534136161" lon="9.476330780561437"><ele>978.9999999999999</ele><time>2026-05-03T13:21:35Z</time></trkpt><trkpt lat="44.75745320189876" lon="9.476294101258466"><ele>979.0</ele><time>2026-05-03T13:21:36Z</time></trkpt><trkpt lat="44.75737685657149" lon="9.476251725051618"><ele>979.0</ele><time>2026-05-03T13:21:37Z</time></trkpt><trkpt lat="44.75730085995908" lon="9.476212912346696"><ele>979.0</ele><time>2026-05-03T13:21:38Z</time></trkpt><trkpt lat="44.75722819834985" lon="9.476175412968741"><ele>978.9999999999999</ele><time>2026-05-03T13:21:39Z</time></trkpt><trkpt lat="44.75716069215296" lon="9.4761496517752"><ele>979.0</ele><time>2026-05-03T13:21:40Z</time></trkpt><trkpt lat="44.75709554507971" lon="9.476149053717846"><ele>980.3333333333333</ele><time>2026-05-03T13:21:41Z</time></trkpt><trkpt lat="44.757031676314305" lon="9.476172709620446"><ele>981.6666666666666</ele><time>2026-05-03T13:21:41.999Z</time></trkpt><trkpt lat="44.756970271720114" lon="9.47621113885009"><ele>983.0</ele><time>2026-05-03T13:21:42.999Z</time></trkpt><trkpt lat="44.75689988232867" lon="9.476236890467725"><ele>984.3333333333333</ele><time>2026-05-03T13:21:43.999Z</time></trkpt><trkpt lat="44.75682809905747" lon="9.476248193252506"><ele>985.6666666666666</ele><time>2026-05-03T13:21:44.999Z</time></trkpt><trkpt lat="44.75672232198838" lon="9.476295188991234"><ele>987.0</ele><time>2026-05-03T13:21:46.999Z</time></trkpt><trkpt lat="44.75662671799551" lon="9.476408326934044"><ele>987.0</ele><time>2026-05-03T13:21:48.999Z</time></trkpt><trkpt lat="44.7565680302243" lon="9.476462094025806"><ele>987.0</ele><time>2026-05-03T13:21:49.999Z</time></trkpt><trkpt lat="44.75649715224657" lon="9.47653556523624"><ele>987.0</ele><time>2026-05-03T13:21:50.999Z</time></trkpt><trkpt lat="44.756434663789314" lon="9.476615876981649"><ele>987.0</ele><time>2026-05-03T13:21:51.999Z</time></trkpt><trkpt lat="44.756374120504404" lon="9.476686300080148"><ele>987.0</ele><time>2026-05-03T13:21:52.999Z</time></trkpt><trkpt lat="44.75630469417892" lon="9.476722827560495"><ele>987.0</ele><time>2026-05-03T13:21:53.999Z</time></trkpt><trkpt lat="44.756232865672295" lon="9.476734499535091"><ele>987.0</ele><time>2026-05-03T13:21:54.999Z</time></trkpt><trkpt lat="44.756165321773636" lon="9.476711527274151"><ele>987.0</ele><time>2026-05-03T13:21:55.999Z</time></trkpt><trkpt lat="44.75610174674442" lon="9.476681787522951"><ele>987.0</ele><time>2026-05-03T13:21:56.999Z</time></trkpt><trkpt lat="44.7560375363584" lon="9.476636735690017"><ele>987.0</ele><time>2026-05-03T13:21:57.999Z</time></trkpt><trkpt lat="44.75597173810783" lon="9.476604674763909"><ele>987.0</ele><time>2026-05-03T13:21:58.999Z</time></trkpt><trkpt lat="44.75590219424834" lon="9.476595152339991"><ele>987.0</ele><time>2026-05-03T13:21:59.999Z</time></trkpt><trkpt lat="44.75584108857832" lon="9.47656615833201"><ele>987.0</ele><time>2026-05-03T13:22:00.999Z</time></trkpt><trkpt lat="44.75579529555799" lon="9.476497661325345"><ele>987.4000000000001</ele><time>2026-05-03T13:22:01.999Z</time></trkpt><trkpt lat="44.755705835633876" lon="9.476432128294393"><ele>987.8000000000001</ele><time>2026-05-03T13:22:03.999Z</time></trkpt><trkpt lat="44.75557541270657" lon="9.476459861365486"><ele>988.2</ele><time>2026-05-03T13:22:05.999Z</time></trkpt><trkpt lat="44.755499943978414" lon="9.47647628177781"><ele>988.6</ele><time>2026-05-03T13:22:06.999Z</time></trkpt><trkpt lat="44.75542736160255" lon="9.47652151625054"><ele>989.0</ele><time>2026-05-03T13:22:07.999Z</time></trkpt><trkpt lat="44.755357048236455" lon="9.476572452932938"><ele>989.0</ele><time>2026-05-03T13:22:08.999Z</time></trkpt><trkpt lat="44.755261727777665" lon="9.47664532602302"><ele>989.0</ele><time>2026-05-03T13:22:10.999Z</time></trkpt><trkpt lat="44.75513964726652" lon="9.47667575461791"><ele>989.0</ele><time>2026-05-03T13:22:12.999Z</time></trkpt><trkpt lat="44.75499897049601" lon="9.476697748949576"><ele>989.0</ele><time>2026-05-03T13:22:14.999Z</time></trkpt><trkpt lat="44.75490590004423" lon="9.476689047050913"><ele>990.0</ele><time>2026-05-03T13:22:15.999Z</time></trkpt><trkpt lat="44.75482931416425" lon="9.47667874232858"><ele>991.0000000000001</ele><time>2026-05-03T13:22:16.999Z</time></trkpt><trkpt lat="44.754766139114004" lon="9.476659707913825"><ele>992.0000000000001</ele><time>2026-05-03T13:22:17.999Z</time></trkpt><trkpt lat="44.754677320709675" lon="9.476515802222568"><ele>993.0</ele><time>2026-05-03T13:22:19.999Z</time></trkpt><trkpt lat="44.75461971398926" lon="9.476416508583377"><ele>994.0</ele><time>2026-05-03T13:22:20.999Z</time></trkpt><trkpt lat="44.75454758787639" lon="9.476322184602433"><ele>995.2</ele><time>2026-05-03T13:22:21.999Z</time></trkpt><trkpt lat="44.75446965811331" lon="9.476239978848518"><ele>996.4000000000001</ele><time>2026-05-03T13:22:22.999Z</time></trkpt><trkpt lat="44.75441009679499" lon="9.476152200178754"><ele>997.6</ele><time>2026-05-03T13:22:23.999Z</time></trkpt><trkpt lat="44.75435927001206" lon="9.47609319013539"><ele>998.8</ele><time>2026-05-03T13:22:24.999Z</time></trkpt><trkpt lat="44.75424950167705" lon="9.476086612625691"><ele>1000.0</ele><time>2026-05-03T13:22:26.999Z</time></trkpt><trkpt lat="44.75415757336996" lon="9.476050856553979"><ele>1001.4999999999999</ele><time>2026-05-03T13:22:28.999Z</time></trkpt><trkpt lat="44.754111569275736" lon="9.475962186802223"><ele>1003.0</ele><time>2026-05-03T13:22:37.998Z</time></trkpt><trkpt lat="44.75402720663574" lon="9.475852406594813"><ele>1004.5</ele><time>2026-05-03T13:22:40.998Z</time></trkpt><trkpt lat="44.753985567813984" lon="9.475769930025542"><ele>1006.0</ele><time>2026-05-03T13:22:41.998Z</time></trkpt><trkpt lat="44.753942393975386" lon="9.475666285960886"><ele>1007.4999999999999</ele><time>2026-05-03T13:22:42.998Z</time></trkpt><trkpt lat="44.75388762458501" lon="9.475556167324617"><ele>1009.0</ele><time>2026-05-03T13:22:43.998Z</time></trkpt><trkpt lat="44.753843008826706" lon="9.4754741753788"><ele>1011.9999999999999</ele><time>2026-05-03T13:22:44.998Z</time></trkpt><trkpt lat="44.75379978100046" lon="9.475369046961816"><ele>1015.0</ele><time>2026-05-03T13:22:45.998Z</time></trkpt><trkpt lat="44.75376921581702" lon="9.475260988784733"><ele>1018.0</ele><time>2026-05-03T13:22:46.998Z</time></trkpt><trkpt lat="44.753724182855144" lon="9.475159414576417"><ele>1021.0</ele><time>2026-05-03T13:22:47.998Z</time></trkpt><trkpt lat="44.75366835349527" lon="9.475075261330337"><ele>1023.9999999999999</ele><time>2026-05-03T13:22:48.998Z</time></trkpt><trkpt lat="44.75361168542037" lon="9.474996407086211"><ele>1027.0</ele><time>2026-05-03T13:22:49.998Z</time></trkpt><trkpt lat="44.7535621880179" lon="9.474876903908104"><ele>1027.5</ele><time>2026-05-03T13:22:50.998Z</time></trkpt><trkpt lat="44.75352812134789" lon="9.474770471840056"><ele>1028.0</ele><time>2026-05-03T13:22:51.998Z</time></trkpt><trkpt lat="44.75347289682838" lon="9.474689862722325"><ele>1028.5</ele><time>2026-05-03T13:22:52.998Z</time></trkpt><trkpt lat="44.753411099338386" lon="9.474596194854938"><ele>1029.0</ele><time>2026-05-03T13:22:53.998Z</time></trkpt><trkpt lat="44.753363824889185" lon="9.474489072840319"><ele>1029.5</ele><time>2026-05-03T13:22:54.998Z</time></trkpt><trkpt lat="44.75332310378288" lon="9.474366149660877"><ele>1030.0</ele><time>2026-05-03T13:22:55.998Z</time></trkpt><trkpt lat="44.75329201517049" lon="9.474244469274558"><ele>1030.0</ele><time>2026-05-03T13:22:56.998Z</time></trkpt><trkpt lat="44.75326555359463" lon="9.474120512876654"><ele>1030.0</ele><time>2026-05-03T13:22:57.998Z</time></trkpt><trkpt lat="44.75323414647064" lon="9.474013107459825"><ele>1030.0</ele><time>2026-05-03T13:22:58.998Z</time></trkpt><trkpt lat="44.753211059254426" lon="9.473911855592279"><ele>1030.0</ele><time>2026-05-03T13:22:59.998Z</time></trkpt><trkpt lat="44.75318877912496" lon="9.473808580567617"><ele>1030.0</ele><time>2026-05-03T13:23:00.998Z</time></trkpt><trkpt lat="44.75316178447842" lon="9.473720410384248"><ele>1030.0</ele><time>2026-05-03T13:23:01.998Z</time></trkpt><trkpt lat="44.75308460484682" lon="9.473599359301442"><ele>1030.1666666666665</ele><time>2026-05-03T13:23:03.998Z</time></trkpt><trkpt lat="44.75303208171308" lon="9.473497164456273"><ele>1030.3333333333333</ele><time>2026-05-03T13:23:05.998Z</time></trkpt><trkpt lat="44.752912042810934" lon="9.473427810741082"><ele>1030.5</ele><time>2026-05-03T13:23:08Z</time></trkpt><trkpt lat="44.75284058509445" lon="9.47341716604598"><ele>1030.6666666666667</ele><time>2026-05-03T13:23:09Z</time></trkpt><trkpt lat="44.752759445161345" lon="9.4734130539709"><ele>1030.8333333333335</ele><time>2026-05-03T13:23:10Z</time></trkpt><trkpt lat="44.75269149823413" lon="9.47339493426848"><ele>1031.0</ele><time>2026-05-03T13:23:11Z</time></trkpt><trkpt lat="44.752580476323125" lon="9.473387701019902"><ele>1031.0</ele><time>2026-05-03T13:23:13Z</time></trkpt><trkpt lat="44.75248674117541" lon="9.473325956546466"><ele>1031.0</ele><time>2026-05-03T13:23:15Z</time></trkpt><trkpt lat="44.75240760733229" lon="9.473209557373147"><ele>1031.0</ele><time>2026-05-03T13:23:17Z</time></trkpt><trkpt lat="44.75236029089227" lon="9.473143221705188"><ele>1031.0</ele><time>2026-05-03T13:23:18Z</time></trkpt><trkpt lat="44.752307759025236" lon="9.473072192406875"><ele>1031.0</ele><time>2026-05-03T13:23:19Z</time></trkpt><trkpt lat="44.75226648948064" lon="9.472946832374506"><ele>1032.3999999999999</ele><time>2026-05-03T13:23:21Z</time></trkpt><trkpt lat="44.75226216743948" lon="9.472849623161112"><ele>1033.8</ele><time>2026-05-03T13:23:22Z</time></trkpt><trkpt lat="44.75225874899535" lon="9.472740941217763"><ele>1035.1999999999998</ele><time>2026-05-03T13:23:23Z</time></trkpt><trkpt lat="44.75223324492939" lon="9.472578623238212"><ele>1036.6</ele><time>2026-05-03T13:23:25Z</time></trkpt><trkpt lat="44.75217120431559" lon="9.472430814456898"><ele>1038.0</ele><time>2026-05-03T13:23:27Z</time></trkpt><trkpt lat="44.75211283934053" lon="9.472366529335051"><ele>1038.0</ele><time>2026-05-03T13:23:28Z</time></trkpt><trkpt lat="44.75205622777236" lon="9.472285177929374"><ele>1038.0</ele><time>2026-05-03T13:23:29Z</time></trkpt><trkpt lat="44.752001298486235" lon="9.472201030386485"><ele>1038.0</ele><time>2026-05-03T13:23:30Z</time></trkpt><trkpt lat="44.75194577722617" lon="9.472110262613265"><ele>1038.0</ele><time>2026-05-03T13:23:31Z</time></trkpt><trkpt lat="44.75189891192804" lon="9.472015859728558"><ele>1038.0</ele><time>2026-05-03T13:23:32Z</time></trkpt><trkpt lat="44.751851508738994" lon="9.471923880716975"><ele>1038.0</ele><time>2026-05-03T13:23:33Z</time></trkpt><trkpt lat="44.75180968865464" lon="9.471850614286925"><ele>1038.0</ele><time>2026-05-03T13:23:34Z</time></trkpt><trkpt lat="44.75172568927281" lon="9.471741385877088"><ele>1038.0</ele><time>2026-05-03T13:23:36Z</time></trkpt><trkpt lat="44.751663299175" lon="9.47167371994966"><ele>1038.0</ele><time>2026-05-03T13:23:37Z</time></trkpt><trkpt lat="44.75160294958879" lon="9.471619717083515"><ele>1038.0</ele><time>2026-05-03T13:23:38Z</time></trkpt><trkpt lat="44.751547460469105" lon="9.471563760561706"><ele>1038.0</ele><time>2026-05-03T13:23:39Z</time></trkpt><trkpt lat="44.75149340835341" lon="9.471499303104519"><ele>1038.0</ele><time>2026-05-03T13:23:40Z</time></trkpt><trkpt lat="44.75144051645104" lon="9.471434899170884"><ele>1038.0</ele><time>2026-05-03T13:23:41Z</time></trkpt><trkpt lat="44.75138915835251" lon="9.471365295192346"><ele>1038.0</ele><time>2026-05-03T13:23:42Z</time></trkpt><trkpt lat="44.751338828673795" lon="9.471291445526555"><ele>1038.0</ele><time>2026-05-03T13:23:43Z</time></trkpt><trkpt lat="44.75128783010772" lon="9.471217935575897"><ele>1038.0</ele><time>2026-05-03T13:23:44Z</time></trkpt><trkpt lat="44.75123965118594" lon="9.471151903780743"><ele>1038.0</ele><time>2026-05-03T13:23:45Z</time></trkpt><trkpt lat="44.75115695559716" lon="9.47103198866761"><ele>1038.0</ele><time>2026-05-03T13:23:47Z</time></trkpt><trkpt lat="44.75110612009737" lon="9.470959524151548"><ele>1038.5714285714284</ele><time>2026-05-03T13:23:48Z</time></trkpt><trkpt lat="44.75105320405444" lon="9.470879710749292"><ele>1039.142857142857</ele><time>2026-05-03T13:23:49Z</time></trkpt><trkpt lat="44.75100459397031" lon="9.470791353001772"><ele>1039.7142857142858</ele><time>2026-05-03T13:23:49.999Z</time></trkpt><trkpt lat="44.75096008861996" lon="9.470703550423046"><ele>1040.2857142857142</ele><time>2026-05-03T13:23:50.999Z</time></trkpt><trkpt lat="44.75091516154837" lon="9.470616583501203"><ele>1040.857142857143</ele><time>2026-05-03T13:23:51.999Z</time></trkpt><trkpt lat="44.7508764026444" lon="9.470543070010391"><ele>1041.4285714285713</ele><time>2026-05-03T13:23:52.999Z</time></trkpt><trkpt lat="44.750832306154344" lon="9.470469647233289"><ele>1042.0</ele><time>2026-05-03T13:23:53.999Z</time></trkpt><trkpt lat="44.750779871471" lon="9.470401922050701"><ele>1042.6</ele><time>2026-05-03T13:23:54.999Z</time></trkpt><trkpt lat="44.75073184048628" lon="9.470342226826114"><ele>1043.2</ele><time>2026-05-03T13:23:55.999Z</time></trkpt><trkpt lat="44.75064426255887" lon="9.470211631365592"><ele>1043.8</ele><time>2026-05-03T13:23:57.999Z</time></trkpt><trkpt lat="44.75061377416195" lon="9.470132599266309"><ele>1044.4</ele><time>2026-05-03T13:23:58.999Z</time></trkpt><trkpt lat="44.75057137949696" lon="9.469973461215423"><ele>1045.0</ele><time>2026-05-03T13:24:00.999Z</time></trkpt><trkpt lat="44.750541939493566" lon="9.469828847718006"><ele>1045.0</ele><time>2026-05-03T13:24:02.999Z</time></trkpt><trkpt lat="44.75051760339717" lon="9.469720692299926"><ele>1045.0</ele><time>2026-05-03T13:24:04.999Z</time></trkpt><trkpt lat="44.750498056471436" lon="9.469619421781525"><ele>1045.0</ele><time>2026-05-03T13:24:07.999Z</time></trkpt><trkpt lat="44.750436420184485" lon="9.46954797938651"><ele>1045.0</ele><time>2026-05-03T13:24:28.999Z</time></trkpt><trkpt lat="44.750410129526344" lon="9.469455431379972"><ele>1045.0</ele><time>2026-05-03T13:24:33.999Z</time></trkpt><trkpt lat="44.75039586114324" lon="9.469364144727264"><ele>1045.0</ele><time>2026-05-03T13:24:36.999Z</time></trkpt><trkpt lat="44.75035601708476" lon="9.469270397365504"><ele>1045.0</ele><time>2026-05-03T13:24:40.999Z</time></trkpt><trkpt lat="44.750318801159814" lon="9.469188345478715"><ele>1045.0</ele><time>2026-05-03T13:24:44.998Z</time></trkpt><trkpt lat="44.750287752500626" lon="9.469087699487515"><ele>1045.0</ele><time>2026-05-03T13:24:47.998Z</time></trkpt><trkpt lat="44.75024917016711" lon="9.468976100889382"><ele>1045.0</ele><time>2026-05-03T13:24:50.998Z</time></trkpt><trkpt lat="44.75019573348008" lon="9.468859782152476"><ele>1045.0</ele><time>2026-05-03T13:24:53.998Z</time></trkpt><trkpt lat="44.75011778241337" lon="9.468725912466772"><ele>1045.0</ele><time>2026-05-03T13:24:55.998Z</time></trkpt><trkpt lat="44.750043111335145" lon="9.468607122018419"><ele>1045.0</ele><time>2026-05-03T13:24:57.998Z</time></trkpt><trkpt lat="44.74999150063385" lon="9.468549456151024"><ele>1045.0</ele><time>2026-05-03T13:24:58.998Z</time></trkpt><trkpt lat="44.74991144248058" lon="9.468466330923198"><ele>1045.0</ele><time>2026-05-03T13:25:00.998Z</time></trkpt><trkpt lat="44.74981680607515" lon="9.468347628705414"><ele>1045.0</ele><time>2026-05-03T13:25:02.998Z</time></trkpt><trkpt lat="44.74975117160775" lon="9.468288936261223"><ele>1045.0</ele><time>2026-05-03T13:25:03.998Z</time></trkpt><trkpt lat="44.74969733849028" lon="9.468224190792286"><ele>1045.0</ele><time>2026-05-03T13:25:04.998Z</time></trkpt><trkpt lat="44.74959927523707" lon="9.468123186073754"><ele>1045.0</ele><time>2026-05-03T13:25:06.998Z</time></trkpt><trkpt lat="44.74955763858372" lon="9.468045218433797"><ele>1045.0</ele><time>2026-05-03T13:25:07.998Z</time></trkpt><trkpt lat="44.74945401647987" lon="9.467919091911636"><ele>1045.0</ele><time>2026-05-03T13:25:09.998Z</time></trkpt><trkpt lat="44.74938360951711" lon="9.46783628913578"><ele>1043.5</ele><time>2026-05-03T13:25:10.998Z</time></trkpt><trkpt lat="44.74933994601429" lon="9.467749317955045"><ele>1042.0</ele><time>2026-05-03T13:25:11.998Z</time></trkpt><trkpt lat="44.74928347824187" lon="9.46763413167271"><ele>1040.5</ele><time>2026-05-03T13:25:14Z</time></trkpt><trkpt lat="44.74921233689232" lon="9.467586632769132"><ele>1039.0</ele><time>2026-05-03T13:25:15Z</time></trkpt><trkpt lat="44.74914963821203" lon="9.467548311285409"><ele>1037.5</ele><time>2026-05-03T13:25:16Z</time></trkpt><trkpt lat="44.7490516061686" lon="9.467489647279159"><ele>1036.0</ele><time>2026-05-03T13:25:18Z</time></trkpt><trkpt lat="44.74898041117271" lon="9.467460159254173"><ele>1036.0</ele><time>2026-05-03T13:25:20Z</time></trkpt><trkpt lat="44.74884606547217" lon="9.467406019563846"><ele>1036.0</ele><time>2026-05-03T13:25:22Z</time></trkpt><trkpt lat="44.74876019765394" lon="9.46735960180883"><ele>1036.0</ele><time>2026-05-03T13:25:23Z</time></trkpt><trkpt lat="44.748682560517274" lon="9.467333928920615"><ele>1036.0</ele><time>2026-05-03T13:25:24Z</time></trkpt><trkpt lat="44.74860716743374" lon="9.467320722026262"><ele>1036.0</ele><time>2026-05-03T13:25:25Z</time></trkpt><trkpt lat="44.74853703462514" lon="9.467317248768762"><ele>1034.8333333333333</ele><time>2026-05-03T13:25:26Z</time></trkpt><trkpt lat="44.748468069250066" lon="9.467322897862461"><ele>1033.6666666666665</ele><time>2026-05-03T13:25:27Z</time></trkpt><trkpt lat="44.74838456266065" lon="9.467326374874027"><ele>1032.5</ele><time>2026-05-03T13:25:28Z</time></trkpt><trkpt lat="44.74831280312438" lon="9.467337338843567"><ele>1031.3333333333333</ele><time>2026-05-03T13:25:29Z</time></trkpt><trkpt lat="44.74824766898379" lon="9.467347743886332"><ele>1030.1666666666667</ele><time>2026-05-03T13:25:30Z</time></trkpt><trkpt lat="44.748113668213946" lon="9.467402195704327"><ele>1029.0</ele><time>2026-05-03T13:25:32Z</time></trkpt><trkpt lat="44.74805044866837" lon="9.467424349529837"><ele>1029.0</ele><time>2026-05-03T13:25:33Z</time></trkpt><trkpt lat="44.7479772906599" lon="9.467436454366826"><ele>1029.0</ele><time>2026-05-03T13:25:34Z</time></trkpt><trkpt lat="44.747909647197986" lon="9.46745788629276"><ele>1029.0</ele><time>2026-05-03T13:25:35Z</time></trkpt><trkpt lat="44.74784430284945" lon="9.467475445137522"><ele>1029.0</ele><time>2026-05-03T13:25:36Z</time></trkpt><trkpt lat="44.74778022186939" lon="9.467502311831693"><ele>1029.0</ele><time>2026-05-03T13:25:37Z</time></trkpt><trkpt lat="44.7477165050418" lon="9.467511044063095"><ele>1029.0</ele><time>2026-05-03T13:25:38Z</time></trkpt><trkpt lat="44.74764799218129" lon="9.467510011564544"><ele>1029.0</ele><time>2026-05-03T13:25:39Z</time></trkpt><trkpt lat="44.74757354407846" lon="9.4674940799577"><ele>1028.3333333333333</ele><time>2026-05-03T13:25:40Z</time></trkpt><trkpt lat="44.7475142410451" lon="9.467463724452893"><ele>1027.6666666666667</ele><time>2026-05-03T13:25:41Z</time></trkpt><trkpt lat="44.747443045598004" lon="9.467441638353678"><ele>1027.0</ele><time>2026-05-03T13:25:42Z</time></trkpt><trkpt lat="44.747381302819434" lon="9.467391451151187"><ele>1026.3333333333335</ele><time>2026-05-03T13:25:43Z</time></trkpt><trkpt lat="44.747292450119154" lon="9.467341951086583"><ele>1025.6666666666667</ele><time>2026-05-03T13:25:44Z</time></trkpt><trkpt lat="44.74721866463686" lon="9.467298428355488"><ele>1025.0</ele><time>2026-05-03T13:25:45Z</time></trkpt><trkpt lat="44.74714370461939" lon="9.4672598570081"><ele>1025.0</ele><time>2026-05-03T13:25:46Z</time></trkpt><trkpt lat="44.74705743285434" lon="9.467233839290486"><ele>1025.0</ele><time>2026-05-03T13:25:47Z</time></trkpt><trkpt lat="44.74698291050713" lon="9.467197908705234"><ele>1025.0</ele><time>2026-05-03T13:25:48Z</time></trkpt><trkpt lat="44.746920390925084" lon="9.467160992106917"><ele>1025.0</ele><time>2026-05-03T13:25:49Z</time></trkpt><trkpt lat="44.74681212835873" lon="9.46711910917446"><ele>1025.0</ele><time>2026-05-03T13:25:50.999Z</time></trkpt><trkpt lat="44.74675038587922" lon="9.467099758231493"><ele>1025.0</ele><time>2026-05-03T13:25:51.999Z</time></trkpt><trkpt lat="44.74664853343786" lon="9.467076035862865"><ele>1024.5</ele><time>2026-05-03T13:25:53.999Z</time></trkpt><trkpt lat="44.746559140133805" lon="9.467069647499098"><ele>1024.0</ele><time>2026-05-03T13:25:55.999Z</time></trkpt><trkpt lat="44.7464808394313" lon="9.467085796550432"><ele>1023.5</ele><time>2026-05-03T13:25:57.999Z</time></trkpt><trkpt lat="44.74641092023442" lon="9.467067033911919"><ele>1023.0</ele><time>2026-05-03T13:25:59.999Z</time></trkpt><trkpt lat="44.746328175361576" lon="9.46702747848729"><ele>1022.5000000000001</ele><time>2026-05-03T13:26:01.999Z</time></trkpt><trkpt lat="44.74624804180226" lon="9.46699428879281"><ele>1022.0</ele><time>2026-05-03T13:26:03.999Z</time></trkpt><trkpt lat="44.74617163553773" lon="9.466962377267045"><ele>1022.0000000000001</ele><time>2026-05-03T13:26:16.999Z</time></trkpt><trkpt lat="44.746102683929" lon="9.466939859842459"><ele>1022.0</ele><time>2026-05-03T13:26:31.999Z</time></trkpt><trkpt lat="44.74602003816954" lon="9.4669081166435"><ele>1022.0</ele><time>2026-05-03T13:26:34.999Z</time></trkpt><trkpt lat="44.74595593252618" lon="9.46686573539494"><ele>1022.0</ele><time>2026-05-03T13:26:37.999Z</time></trkpt><trkpt lat="44.7458784194929" lon="9.466818978825025"><ele>1022.0000000000001</ele><time>2026-05-03T13:27:11.998Z</time></trkpt><trkpt lat="44.74579005568883" lon="9.466824123202747"><ele>1022.0</ele><time>2026-05-03T13:27:16.998Z</time></trkpt><trkpt lat="44.7457187721416" lon="9.466830504069664"><ele>1021.8333333333334</ele><time>2026-05-03T13:27:19Z</time></trkpt><trkpt lat="44.745629605953724" lon="9.466822779003127"><ele>1021.6666666666667</ele><time>2026-05-03T13:27:21Z</time></trkpt><trkpt lat="44.745520532373035" lon="9.466811830823849"><ele>1021.5</ele><time>2026-05-03T13:27:23Z</time></trkpt><trkpt lat="44.745442004484154" lon="9.466804559389407"><ele>1021.3333333333333</ele><time>2026-05-03T13:27:25Z</time></trkpt><trkpt lat="44.74537476071592" lon="9.466815529333454"><ele>1021.1666666666666</ele><time>2026-05-03T13:27:28Z</time></trkpt><trkpt lat="44.74528637043207" lon="9.466810475605973"><ele>1021.0</ele><time>2026-05-03T13:27:31Z</time></trkpt><trkpt lat="44.7451967288492" lon="9.466806330323275"><ele>1020.8333333333333</ele><time>2026-05-03T13:27:34Z</time></trkpt><trkpt lat="44.74508764432527" lon="9.4668115435614"><ele>1020.6666666666666</ele><time>2026-05-03T13:27:36Z</time></trkpt><trkpt lat="44.74501573396282" lon="9.466849714277759"><ele>1020.5</ele><time>2026-05-03T13:27:37Z</time></trkpt><trkpt lat="44.74493895546392" lon="9.466893113715981"><ele>1020.3333333333333</ele><time>2026-05-03T13:27:38Z</time></trkpt><trkpt lat="44.74487771510723" lon="9.46694507852562"><ele>1020.1666666666666</ele><time>2026-05-03T13:27:39Z</time></trkpt><trkpt lat="44.744831238964125" lon="9.467076249782828"><ele>1020.0</ele><time>2026-05-03T13:27:41Z</time></trkpt><trkpt lat="44.74474653653566" lon="9.467183443647516"><ele>1018.4</ele><time>2026-05-03T13:27:43Z</time></trkpt><trkpt lat="44.74469344272633" lon="9.467292681575017"><ele>1016.8</ele><time>2026-05-03T13:27:45Z</time></trkpt><trkpt lat="44.74464087969243" lon="9.467386670032807"><ele>1015.2</ele><time>2026-05-03T13:27:47Z</time></trkpt><trkpt lat="44.744562621344606" lon="9.467514911830872"><ele>1013.6</ele><time>2026-05-03T13:27:49Z</time></trkpt><trkpt lat="44.744521707951954" lon="9.467605116225654"><ele>1012.0</ele><time>2026-05-03T13:27:50Z</time></trkpt><trkpt lat="44.74447614093462" lon="9.467708070008138"><ele>1011.9999999999999</ele><time>2026-05-03T13:27:51Z</time></trkpt><trkpt lat="44.74442410090945" lon="9.467803050757759"><ele>1012.0</ele><time>2026-05-03T13:27:52Z</time></trkpt><trkpt lat="44.74434297894476" lon="9.467882493582133"><ele>1012.0</ele><time>2026-05-03T13:27:54Z</time></trkpt><trkpt lat="44.74424142460336" lon="9.467942884397015"><ele>1012.0</ele><time>2026-05-03T13:27:56Z</time></trkpt><trkpt lat="44.74418876640978" lon="9.468014013738626"><ele>1011.9999999999999</ele><time>2026-05-03T13:27:57Z</time></trkpt><trkpt lat="44.74414438072786" lon="9.468092430633192"><ele>1012.0</ele><time>2026-05-03T13:27:58Z</time></trkpt><trkpt lat="44.74410503469714" lon="9.468250635543974"><ele>1012.5714285714287</ele><time>2026-05-03T13:27:59.999Z</time></trkpt><trkpt lat="44.74409748358319" lon="9.468341616207013"><ele>1013.1428571428571</ele><time>2026-05-03T13:28:00.999Z</time></trkpt><trkpt lat="44.74409633417427" lon="9.468436553072703"><ele>1013.7142857142858</ele><time>2026-05-03T13:28:01.999Z</time></trkpt><trkpt lat="44.744085963186535" lon="9.468530815866117"><ele>1014.2857142857143</ele><time>2026-05-03T13:28:02.999Z</time></trkpt><trkpt lat="44.74406543671395" lon="9.468624321627315"><ele>1014.8571428571429</ele><time>2026-05-03T13:28:03.999Z</time></trkpt><trkpt lat="44.74403553219634" lon="9.468708663641666"><ele>1015.4285714285714</ele><time>2026-05-03T13:28:04.999Z</time></trkpt><trkpt lat="44.7439991359229" lon="9.468819409876591"><ele>1016.0</ele><time>2026-05-03T13:28:06.999Z</time></trkpt><trkpt lat="44.744010104318335" lon="9.468934869481448"><ele>1016.0000000000001</ele><time>2026-05-03T13:28:20.999Z</time></trkpt><trkpt lat="44.74399822152451" lon="9.469035274641193"><ele>1016.0</ele><time>2026-05-03T13:28:26.999Z</time></trkpt><trkpt lat="44.74393874466992" lon="9.469120776461574"><ele>1016.0</ele><time>2026-05-03T13:28:30.999Z</time></trkpt><trkpt lat="44.74387804571449" lon="9.469190766314824"><ele>1016.0</ele><time>2026-05-03T13:28:33.999Z</time></trkpt><trkpt lat="44.74384514125413" lon="9.469308529804037"><ele>1016.0000000000001</ele><time>2026-05-03T13:28:35.999Z</time></trkpt><trkpt lat="44.74379482844638" lon="9.46945100278848"><ele>1016.0</ele><time>2026-05-03T13:28:37.999Z</time></trkpt><trkpt lat="44.74376149738305" lon="9.469528517223832"><ele>1015.3333333333334</ele><time>2026-05-03T13:28:38.999Z</time></trkpt><trkpt lat="44.743737867942144" lon="9.469664799823764"><ele>1014.6666666666667</ele><time>2026-05-03T13:28:40.999Z</time></trkpt><trkpt lat="44.743759993592676" lon="9.469758925376476"><ele>1014.0</ele><time>2026-05-03T13:28:42.999Z</time></trkpt><trkpt lat="44.74375260414869" lon="9.46988116260697"><ele>1013.3333333333333</ele><time>2026-05-03T13:28:44.999Z</time></trkpt><trkpt lat="44.74375230975637" lon="9.470011399652298"><ele>1012.6666666666666</ele><time>2026-05-03T13:28:46.999Z</time></trkpt><trkpt lat="44.74375932758621" lon="9.470126348575578"><ele>1012.0</ele><time>2026-05-03T13:28:50.999Z</time></trkpt><trkpt lat="44.74374964019116" lon="9.470253430310468"><ele>1012.0</ele><time>2026-05-03T13:28:52.999Z</time></trkpt><trkpt lat="44.743681790225246" lon="9.47037754681206"><ele>1012.0</ele><time>2026-05-03T13:28:54.998Z</time></trkpt><trkpt lat="44.74361862028365" lon="9.470482389315665"><ele>1012.0</ele><time>2026-05-03T13:28:56.998Z</time></trkpt><trkpt lat="44.743578576335246" lon="9.47060821913305"><ele>1012.0</ele><time>2026-05-03T13:28:58.998Z</time></trkpt><trkpt lat="44.74350388044645" lon="9.470705706501203"><ele>1012.0</ele><time>2026-05-03T13:29:02.998Z</time></trkpt><trkpt lat="44.74345068781717" lon="9.47075811354335"><ele>1014.2</ele><time>2026-05-03T13:29:04.998Z</time></trkpt><trkpt lat="44.74337122485635" lon="9.470844812108972"><ele>1016.4000000000001</ele><time>2026-05-03T13:29:06.998Z</time></trkpt><trkpt lat="44.743319528472064" lon="9.470912237016988"><ele>1018.5999999999999</ele><time>2026-05-03T13:29:07.998Z</time></trkpt><trkpt lat="44.74321257304383" lon="9.470996013245019"><ele>1020.8</ele><time>2026-05-03T13:29:09.998Z</time></trkpt><trkpt lat="44.74312023147099" lon="9.471070354619217"><ele>1023.0</ele><time>2026-05-03T13:29:11.998Z</time></trkpt><trkpt lat="44.74302824712537" lon="9.471232755743953"><ele>1023.0</ele><time>2026-05-03T13:29:13.998Z</time></trkpt><trkpt lat="44.742973513370174" lon="9.471314844101105"><ele>1023.0</ele><time>2026-05-03T13:29:14.998Z</time></trkpt><trkpt lat="44.74292071571383" lon="9.471373370518087"><ele>1023.0</ele><time>2026-05-03T13:29:15.998Z</time></trkpt><trkpt lat="44.74284091268775" lon="9.4714328895056"><ele>1023.0</ele><time>2026-05-03T13:29:17.998Z</time></trkpt><trkpt lat="44.74272807640815" lon="9.471486476737896"><ele>1023.0</ele><time>2026-05-03T13:29:19.998Z</time></trkpt><trkpt lat="44.742637621267725" lon="9.471598283601514"><ele>1023.0</ele><time>2026-05-03T13:29:21.998Z</time></trkpt><trkpt lat="44.74257960698994" lon="9.471658736675831"><ele>1023.0</ele><time>2026-05-03T13:29:22.998Z</time></trkpt><trkpt lat="44.742512568859425" lon="9.47171071392614"><ele>1023.0</ele><time>2026-05-03T13:29:23.998Z</time></trkpt><trkpt lat="44.742453310855346" lon="9.471766222868444"><ele>1023.0</ele><time>2026-05-03T13:29:25Z</time></trkpt><trkpt lat="44.74240203970054" lon="9.47182497948481"><ele>1023.0</ele><time>2026-05-03T13:29:26Z</time></trkpt><trkpt lat="44.742344258648856" lon="9.471889102592307"><ele>1023.0</ele><time>2026-05-03T13:29:27Z</time></trkpt><trkpt lat="44.742250265249" lon="9.471975057020847"><ele>1023.0</ele><time>2026-05-03T13:29:29Z</time></trkpt><trkpt lat="44.742173616821354" lon="9.472045739333488"><ele>1023.0</ele><time>2026-05-03T13:29:31Z</time></trkpt><trkpt lat="44.74210631032457" lon="9.47217199383191"><ele>1023.0</ele><time>2026-05-03T13:29:33Z</time></trkpt><trkpt lat="44.74206495720071" lon="9.472296740562635"><ele>1023.0</ele><time>2026-05-03T13:29:35Z</time></trkpt><trkpt lat="44.74201369162959" lon="9.472407626941735"><ele>1023.0</ele><time>2026-05-03T13:29:37Z</time></trkpt><trkpt lat="44.74197154030669" lon="9.472497322804314"><ele>1022.5999999999999</ele><time>2026-05-03T13:29:39Z</time></trkpt><trkpt lat="44.74191342728855" lon="9.472569975227504"><ele>1022.1999999999999</ele><time>2026-05-03T13:29:41Z</time></trkpt><trkpt lat="44.74188177521431" lon="9.472683234096305"><ele>1021.8</ele><time>2026-05-03T13:29:46Z</time></trkpt><trkpt lat="44.741864780353495" lon="9.472830876465476"><ele>1021.4</ele><time>2026-05-03T13:29:48Z</time></trkpt><trkpt lat="44.74176536694209" lon="9.47290290199013"><ele>1021.0</ele><time>2026-05-03T13:29:51Z</time></trkpt><trkpt lat="44.741666335149" lon="9.47300875266748"><ele>1021.0</ele><time>2026-05-03T13:29:53Z</time></trkpt><trkpt lat="44.741587068468554" lon="9.473129164363245"><ele>1020.9999999999999</ele><time>2026-05-03T13:29:55Z</time></trkpt><trkpt lat="44.74154259811783" lon="9.473271944264404"><ele>1020.9999999999999</ele><time>2026-05-03T13:29:57Z</time></trkpt><trkpt lat="44.741473144888964" lon="9.47336756008246"><ele>1021.0</ele><time>2026-05-03T13:29:59Z</time></trkpt><trkpt lat="44.74142534507971" lon="9.47347620021851"><ele>1021.0</ele><time>2026-05-03T13:30:01Z</time></trkpt><trkpt lat="44.741385905302636" lon="9.473611303826653"><ele>1020.9999999999999</ele><time>2026-05-03T13:30:03Z</time></trkpt><trkpt lat="44.74133698790176" lon="9.473680900581755"><ele>1021.0</ele><time>2026-05-03T13:30:05Z</time></trkpt><trkpt lat="44.74127711998096" lon="9.473709406228142"><ele>1021.0</ele><time>2026-05-03T13:30:08.999Z</time></trkpt><trkpt lat="44.74120129935262" lon="9.473768437279116"><ele>1021.0</ele><time>2026-05-03T13:30:30.999Z</time></trkpt><trkpt lat="44.74111055132822" lon="9.473720928272863"><ele>1020.9999999999999</ele><time>2026-05-03T13:30:33.999Z</time></trkpt><trkpt lat="44.74102487140187" lon="9.473734347232476"><ele>1021.0</ele><time>2026-05-03T13:30:35.999Z</time></trkpt><trkpt lat="44.7409488675902" lon="9.473758961728954"><ele>1020.1666666666666</ele><time>2026-05-03T13:30:37.999Z</time></trkpt><trkpt lat="44.74088483792837" lon="9.473791874887814"><ele>1019.3333333333333</ele><time>2026-05-03T13:30:39.999Z</time></trkpt><trkpt lat="44.74083867195652" lon="9.473872379755482"><ele>1018.5</ele><time>2026-05-03T13:30:41.999Z</time></trkpt><trkpt lat="44.740805223464115" lon="9.473979930586392"><ele>1017.6666666666667</ele><time>2026-05-03T13:30:43.999Z</time></trkpt><trkpt lat="44.740766178459225" lon="9.474107108280222"><ele>1016.8333333333334</ele><time>2026-05-03T13:30:45.999Z</time></trkpt><trkpt lat="44.740726460481596" lon="9.474241984076627"><ele>1016.0</ele><time>2026-05-03T13:30:47.999Z</time></trkpt><trkpt lat="44.74068353167984" lon="9.474355230544582"><ele>1016.0</ele><time>2026-05-03T13:30:49.999Z</time></trkpt><trkpt lat="44.74061107059561" lon="9.474429698746613"><ele>1015.9999999999999</ele><time>2026-05-03T13:30:51.999Z</time></trkpt><trkpt lat="44.74050990186888" lon="9.474447547310074"><ele>1015.9999999999999</ele><time>2026-05-03T13:30:53.999Z</time></trkpt><trkpt lat="44.740419416422085" lon="9.474387457415407"><ele>1016.0</ele><time>2026-05-03T13:30:55.999Z</time></trkpt><trkpt lat="44.74034377944146" lon="9.47429033052325"><ele>1016.0</ele><time>2026-05-03T13:30:57.999Z</time></trkpt><trkpt lat="44.740303442193344" lon="9.474219834572777"><ele>1016.0000000000001</ele><time>2026-05-03T13:30:58.999Z</time></trkpt><trkpt lat="44.7402657958139" lon="9.474139736024322"><ele>1016.0</ele><time>2026-05-03T13:30:59.998Z</time></trkpt><trkpt lat="44.74021104942327" lon="9.474056542256813"><ele>1016.0</ele><time>2026-05-03T13:31:01.998Z</time></trkpt><trkpt lat="44.740145064478305" lon="9.474044157247835"><ele>1016.0</ele><time>2026-05-03T13:31:03.998Z</time></trkpt><trkpt lat="44.740061304293846" lon="9.474039950075255"><ele>1016.0000000000001</ele><time>2026-05-03T13:31:05.998Z</time></trkpt><trkpt lat="44.739955332435066" lon="9.474021391231759"><ele>1016.0</ele><time>2026-05-03T13:31:07.998Z</time></trkpt><trkpt lat="44.739853000085205" lon="9.474002751128841"><ele>1011.5999999999999</ele><time>2026-05-03T13:31:09.998Z</time></trkpt><trkpt lat="44.73976324221836" lon="9.474024416913263"><ele>1007.1999999999999</ele><time>2026-05-03T13:31:11.998Z</time></trkpt><trkpt lat="44.739672841806644" lon="9.474132830816204"><ele>1002.8000000000001</ele><time>2026-05-03T13:31:13.998Z</time></trkpt><trkpt lat="44.73964224612658" lon="9.474268141850093"><ele>998.4000000000001</ele><time>2026-05-03T13:31:15.998Z</time></trkpt><trkpt lat="44.739640340003625" lon="9.474363231285714"><ele>994.0</ele><time>2026-05-03T13:31:16.998Z</time></trkpt><trkpt lat="44.739628963046705" lon="9.474463985674868"><ele>993.9999999999999</ele><time>2026-05-03T13:31:17.998Z</time></trkpt><trkpt lat="44.73961801679762" lon="9.474562491266218"><ele>994.0</ele><time>2026-05-03T13:31:18.998Z</time></trkpt><trkpt lat="44.73961919589779" lon="9.474658565362962"><ele>994.0</ele><time>2026-05-03T13:31:19.998Z</time></trkpt><trkpt lat="44.739627497657295" lon="9.474757352369014"><ele>994.0</ele><time>2026-05-03T13:31:20.998Z</time></trkpt><trkpt lat="44.7396418078716" lon="9.474877706749837"><ele>993.9999999999999</ele><time>2026-05-03T13:31:21.998Z</time></trkpt><trkpt lat="44.739649935043815" lon="9.475003975123565"><ele>994.0</ele><time>2026-05-03T13:31:22.998Z</time></trkpt><trkpt lat="44.73965925950928" lon="9.47510061997657"><ele>993.3333333333333</ele><time>2026-05-03T13:31:23.998Z</time></trkpt><trkpt lat="44.73965862040706" lon="9.475203352229679"><ele>992.6666666666666</ele><time>2026-05-03T13:31:25.998Z</time></trkpt><trkpt lat="44.73964142022828" lon="9.47532412219478"><ele>992.0</ele><time>2026-05-03T13:31:27.998Z</time></trkpt><trkpt lat="44.73962543508135" lon="9.475495525227785"><ele>991.3333333333333</ele><time>2026-05-03T13:31:29.998Z</time></trkpt><trkpt lat="44.73961397789157" lon="9.475592890590049"><ele>990.6666666666666</ele><time>2026-05-03T13:31:31Z</time></trkpt><trkpt lat="44.7395946245505" lon="9.47568825666646"><ele>990.0</ele><time>2026-05-03T13:31:32Z</time></trkpt><trkpt lat="44.73955568222598" lon="9.475840839347663"><ele>989.8</ele><time>2026-05-03T13:31:34Z</time></trkpt><trkpt lat="44.73952055226243" lon="9.475970499394117"><ele>989.6</ele><time>2026-05-03T13:31:36Z</time></trkpt><trkpt lat="44.739488637590185" lon="9.476101582052033"><ele>989.4000000000001</ele><time>2026-05-03T13:31:38Z</time></trkpt><trkpt lat="44.739455500144224" lon="9.476245196027076"><ele>989.2</ele><time>2026-05-03T13:31:40Z</time></trkpt><trkpt lat="44.73940752764367" lon="9.476394373533287"><ele>989.0</ele><time>2026-05-03T13:31:42Z</time></trkpt><trkpt lat="44.73935734834201" lon="9.47652242270119"><ele>984.5000000000001</ele><time>2026-05-03T13:31:44Z</time></trkpt><trkpt lat="44.73931176362255" lon="9.476626169129515"><ele>980.0</ele><time>2026-05-03T13:31:46Z</time></trkpt><trkpt lat="44.73928710881292" lon="9.476737786042259"><ele>975.5</ele><time>2026-05-03T13:31:48Z</time></trkpt><trkpt lat="44.73925234428041" lon="9.476819763774682"><ele>971.0</ele><time>2026-05-03T13:31:50Z</time></trkpt><trkpt lat="44.739210991502624" lon="9.476936062217474"><ele>966.5000000000001</ele><time>2026-05-03T13:31:52Z</time></trkpt><trkpt lat="44.7392068140881" lon="9.4770336263538"><ele>962.0</ele><time>2026-05-03T13:31:54Z</time></trkpt><trkpt lat="44.739267497475225" lon="9.477180541195649"><ele>961.4000000000001</ele><time>2026-05-03T13:31:56Z</time></trkpt><trkpt lat="44.73926550829025" lon="9.477316245307492"><ele>960.8000000000001</ele><time>2026-05-03T13:31:58Z</time></trkpt><trkpt lat="44.739225272363356" lon="9.477472534083928"><ele>960.2</ele><time>2026-05-03T13:32:00Z</time></trkpt><trkpt lat="44.73920901366777" lon="9.477600323000988"><ele>959.6</ele><time>2026-05-03T13:32:02Z</time></trkpt><trkpt lat="44.73921477297591" lon="9.477724614771349"><ele>959.0</ele><time>2026-05-03T13:32:04Z</time></trkpt><trkpt lat="44.73919726059411" lon="9.477854736560747"><ele>957.0000000000001</ele><time>2026-05-03T13:32:06Z</time></trkpt><trkpt lat="44.739188559765054" lon="9.477966168096835"><ele>955.0</ele><time>2026-05-03T13:32:08Z</time></trkpt><trkpt lat="44.73917911514062" lon="9.478076864090017"><ele>953.0</ele><time>2026-05-03T13:32:10Z</time></trkpt><trkpt lat="44.73917149262" lon="9.47821234238235"><ele>951.0</ele><time>2026-05-03T13:32:12Z</time></trkpt><trkpt lat="44.73914153190216" lon="9.478357014497213"><ele>949.0000000000001</ele><time>2026-05-03T13:32:14.999Z</time></trkpt><trkpt lat="44.739152349938756" lon="9.478459441160476"><ele>947.0</ele><time>2026-05-03T13:32:16.999Z</time></trkpt><trkpt lat="44.73914187408596" lon="9.478553197137206"><ele>947.0000000000001</ele><time>2026-05-03T13:32:19.999Z</time></trkpt><trkpt lat="44.739124378493884" lon="9.478653566377117"><ele>947.0</ele><time>2026-05-03T13:32:22.999Z</time></trkpt><trkpt lat="44.73906109103471" lon="9.478655899968087"><ele>947.0</ele><time>2026-05-03T13:32:42.999Z</time></trkpt><trkpt lat="44.73896490052107" lon="9.47855287482534"><ele>947.0</ele><time>2026-05-03T13:32:45.999Z</time></trkpt><trkpt lat="44.73889701143985" lon="9.478506024019222"><ele>947.0000000000001</ele><time>2026-05-03T13:32:46.999Z</time></trkpt><trkpt lat="44.73884837190008" lon="9.47843037698605"><ele>947.0</ele><time>2026-05-03T13:32:47.999Z</time></trkpt><trkpt lat="44.73880388241721" lon="9.478336931388585"><ele>947.0</ele><time>2026-05-03T13:32:48.999Z</time></trkpt><trkpt lat="44.73874749178009" lon="9.478224938019821"><ele>947.0</ele><time>2026-05-03T13:32:49.999Z</time></trkpt><trkpt lat="44.738700310737336" lon="9.478131614828802"><ele>947.0</ele><time>2026-05-03T13:32:50.999Z</time></trkpt><trkpt lat="44.7386526476045" lon="9.478062989540913"><ele>947.0</ele><time>2026-05-03T13:32:51.999Z</time></trkpt><trkpt lat="44.73858249771645" lon="9.47793430688728"><ele>947.0</ele><time>2026-05-03T13:32:53.999Z</time></trkpt><trkpt lat="44.73854287337262" lon="9.47779806527182"><ele>944.1666666666667</ele><time>2026-05-03T13:32:55.999Z</time></trkpt><trkpt lat="44.73847960207157" lon="9.477766771663557"><ele>941.3333333333334</ele><time>2026-05-03T13:32:57.999Z</time></trkpt><trkpt lat="44.738436707527605" lon="9.47783474855167"><ele>938.5</ele><time>2026-05-03T13:32:59.999Z</time></trkpt><trkpt lat="44.73840414851393" lon="9.477972487834933"><ele>935.6666666666667</ele><time>2026-05-03T13:33:01.999Z</time></trkpt><trkpt lat="44.738430794190904" lon="9.478087328929792"><ele>932.8333333333334</ele><time>2026-05-03T13:33:03.999Z</time></trkpt><trkpt lat="44.73843595173032" lon="9.478179837883623"><ele>930.0</ele><time>2026-05-03T13:33:07.998Z</time></trkpt><trkpt lat="44.738359670855495" lon="9.478116478782425"><ele>930.0</ele><time>2026-05-03T13:33:09.998Z</time></trkpt><trkpt lat="44.73831481786243" lon="9.478035495090493"><ele>930.0</ele><time>2026-05-03T13:33:10.998Z</time></trkpt><trkpt lat="44.73826186664844" lon="9.477946353935646"><ele>930.0</ele><time>2026-05-03T13:33:11.998Z</time></trkpt><trkpt lat="44.738219833759715" lon="9.47785949956521"><ele>930.0</ele><time>2026-05-03T13:33:12.998Z</time></trkpt><trkpt lat="44.73817755523228" lon="9.477788388657835"><ele>930.0</ele><time>2026-05-03T13:33:13.998Z</time></trkpt><trkpt lat="44.73813833969751" lon="9.47769906567642"><ele>930.0</ele><time>2026-05-03T13:33:15.998Z</time></trkpt><trkpt lat="44.738111741530204" lon="9.477565232885205"><ele>930.0</ele><time>2026-05-03T13:33:17.998Z</time></trkpt><trkpt lat="44.73803380502393" lon="9.477486458884208"><ele>930.0</ele><time>2026-05-03T13:33:19.998Z</time></trkpt><trkpt lat="44.737913996312294" lon="9.477462014056705"><ele>930.0</ele><time>2026-05-03T13:33:21.998Z</time></trkpt><trkpt lat="44.737820182970566" lon="9.477477219915013"><ele>930.0</ele><time>2026-05-03T13:33:23.998Z</time></trkpt><trkpt lat="44.73773082815021" lon="9.477541014965254"><ele>930.0</ele><time>2026-05-03T13:33:26.998Z</time></trkpt><trkpt lat="44.737685575431605" lon="9.477641940663926"><ele>930.0</ele><time>2026-05-03T13:33:28.998Z</time></trkpt><trkpt lat="44.737724911858" lon="9.477740608284655"><ele>930.0</ele><time>2026-05-03T13:33:32.998Z</time></trkpt><trkpt lat="44.73775780274746" lon="9.477844979443383"><ele>930.0</ele><time>2026-05-03T13:33:33.998Z</time></trkpt><trkpt lat="44.73778795741097" lon="9.47793481954342"><ele>930.0</ele><time>2026-05-03T13:33:34.998Z</time></trkpt><trkpt lat="44.73781743866874" lon="9.478039838448563"><ele>930.0</ele><time>2026-05-03T13:33:35.998Z</time></trkpt><trkpt lat="44.7378431051603" lon="9.478139015837659"><ele>930.0</ele><time>2026-05-03T13:33:37Z</time></trkpt><trkpt lat="44.73786336192671" lon="9.478232986883883"><ele>929.1666666666666</ele><time>2026-05-03T13:33:38Z</time></trkpt><trkpt lat="44.73788394027237" lon="9.47832111842619"><ele>928.3333333333333</ele><time>2026-05-03T13:33:39Z</time></trkpt><trkpt lat="44.73789426306689" lon="9.478464831740068"><ele>927.5</ele><time>2026-05-03T13:33:41Z</time></trkpt><trkpt lat="44.73787172974895" lon="9.478609815120128"><ele>926.6666666666666</ele><time>2026-05-03T13:33:43Z</time></trkpt><trkpt lat="44.73788641843191" lon="9.478757292667987"><ele>925.8333333333333</ele><time>2026-05-03T13:33:45Z</time></trkpt><trkpt lat="44.73790552037568" lon="9.47884292195679"><ele>925.0</ele><time>2026-05-03T13:33:46Z</time></trkpt><trkpt lat="44.737931881869216" lon="9.478934876827966"><ele>923.3333333333333</ele><time>2026-05-03T13:33:47Z</time></trkpt><trkpt lat="44.73795953423516" lon="9.479033504894343"><ele>921.6666666666666</ele><time>2026-05-03T13:33:48Z</time></trkpt><trkpt lat="44.73798962633742" lon="9.47912568585668"><ele>920.0</ele><time>2026-05-03T13:33:49Z</time></trkpt><trkpt lat="44.73801009902575" lon="9.479222038932962"><ele>918.3333333333333</ele><time>2026-05-03T13:33:50Z</time></trkpt><trkpt lat="44.738020657248654" lon="9.47935630630713"><ele>916.6666666666666</ele><time>2026-05-03T13:33:52Z</time></trkpt><trkpt lat="44.737933644808294" lon="9.479457390798538"><ele>915.0</ele><time>2026-05-03T13:33:54Z</time></trkpt><trkpt lat="44.73787502426975" lon="9.47949666169509"><ele>915.0</ele><time>2026-05-03T13:33:55Z</time></trkpt><trkpt lat="44.737815668358046" lon="9.479583615132608"><ele>915.0</ele><time>2026-05-03T13:33:57Z</time></trkpt><trkpt lat="44.73780682856917" lon="9.479709606396769"><ele>915.0</ele><time>2026-05-03T13:33:59Z</time></trkpt><trkpt lat="44.7378588570629" lon="9.479849005611216"><ele>915.0</ele><time>2026-05-03T13:34:01Z</time></trkpt><trkpt lat="44.737908666739806" lon="9.479936558213817"><ele>915.0</ele><time>2026-05-03T13:34:02Z</time></trkpt><trkpt lat="44.73797164654731" lon="9.48002548089097"><ele>913.2857142857143</ele><time>2026-05-03T13:34:03Z</time></trkpt><trkpt lat="44.738015535368945" lon="9.480110068245422"><ele>911.5714285714287</ele><time>2026-05-03T13:34:04Z</time></trkpt><trkpt lat="44.738045512528466" lon="9.480199967992322"><ele>909.8571428571429</ele><time>2026-05-03T13:34:05Z</time></trkpt><trkpt lat="44.7380554792701" lon="9.480296870764212"><ele>908.1428571428571</ele><time>2026-05-03T13:34:06Z</time></trkpt><trkpt lat="44.73808897936115" lon="9.480388472696356"><ele>906.4285714285714</ele><time>2026-05-03T13:34:07Z</time></trkpt><trkpt lat="44.73812894993628" lon="9.480459388002275"><ele>904.7142857142858</ele><time>2026-05-03T13:34:08Z</time></trkpt><trkpt lat="44.73818185946459" lon="9.480548816421042"><ele>903.0</ele><time>2026-05-03T13:34:09Z</time></trkpt><trkpt lat="44.738226454440436" lon="9.480634384079499"><ele>900.8333333333334</ele><time>2026-05-03T13:34:10Z</time></trkpt><trkpt lat="44.73825873183136" lon="9.480711971919536"><ele>898.6666666666667</ele><time>2026-05-03T13:34:11Z</time></trkpt><trkpt lat="44.73827768141261" lon="9.480820023998312"><ele>896.5</ele><time>2026-05-03T13:34:13Z</time></trkpt><trkpt lat="44.73825519023984" lon="9.480926939135793"><ele>894.3333333333334</ele><time>2026-05-03T13:34:16Z</time></trkpt><trkpt lat="44.738218756492756" lon="9.48102498015137"><ele>892.1666666666667</ele><time>2026-05-03T13:34:24.999Z</time></trkpt><trkpt lat="44.738243206173514" lon="9.48114217998916"><ele>890.0</ele><time>2026-05-03T13:34:26.999Z</time></trkpt><trkpt lat="44.73828113164129" lon="9.48127706681791"><ele>889.1666666666667</ele><time>2026-05-03T13:34:28.999Z</time></trkpt><trkpt lat="44.73831829286292" lon="9.481436374724627"><ele>888.3333333333334</ele><time>2026-05-03T13:34:30.999Z</time></trkpt><trkpt lat="44.738330929156945" lon="9.481528846289269"><ele>887.5</ele><time>2026-05-03T13:34:31.999Z</time></trkpt><trkpt lat="44.7383531477919" lon="9.481639682673377"><ele>886.6666666666667</ele><time>2026-05-03T13:34:32.999Z</time></trkpt><trkpt lat="44.73835825666649" lon="9.481763387167527"><ele>885.8333333333334</ele><time>2026-05-03T13:34:33.999Z</time></trkpt><trkpt lat="44.73836615294318" lon="9.481886762652518"><ele>885.0</ele><time>2026-05-03T13:34:34.999Z</time></trkpt><trkpt lat="44.738371560406335" lon="9.482013523169169"><ele>885.3333333333334</ele><time>2026-05-03T13:34:35.999Z</time></trkpt><trkpt lat="44.73837415626519" lon="9.482130222264985"><ele>885.6666666666667</ele><time>2026-05-03T13:34:36.999Z</time></trkpt><trkpt lat="44.73838711506114" lon="9.482239913809524"><ele>886.0</ele><time>2026-05-03T13:34:37.999Z</time></trkpt><trkpt lat="44.73839796807245" lon="9.482357035257534"><ele>886.3333333333334</ele><time>2026-05-03T13:34:38.999Z</time></trkpt><trkpt lat="44.73842962926766" lon="9.482472773019511"><ele>886.6666666666667</ele><time>2026-05-03T13:34:39.999Z</time></trkpt><trkpt lat="44.73844973263738" lon="9.482579010865996"><ele>887.0</ele><time>2026-05-03T13:34:40.999Z</time></trkpt><trkpt lat="44.7384619339011" lon="9.4826884630215"><ele>887.0000000000001</ele><time>2026-05-03T13:34:41.999Z</time></trkpt><trkpt lat="44.73847484910264" lon="9.482790448795653"><ele>887.0</ele><time>2026-05-03T13:34:42.999Z</time></trkpt><trkpt lat="44.73849617090246" lon="9.482893207556241"><ele>887.0</ele><time>2026-05-03T13:34:43.999Z</time></trkpt><trkpt lat="44.73852362576213" lon="9.482991866531089"><ele>887.0</ele><time>2026-05-03T13:34:44.999Z</time></trkpt><trkpt lat="44.738560999565614" lon="9.483088772625681"><ele>887.0000000000001</ele><time>2026-05-03T13:34:45.999Z</time></trkpt><trkpt lat="44.738610736377716" lon="9.48317355405595"><ele>887.0</ele><time>2026-05-03T13:34:46.999Z</time></trkpt><trkpt lat="44.73865874843517" lon="9.4832686338385"><ele>884.8333333333334</ele><time>2026-05-03T13:34:47.999Z</time></trkpt><trkpt lat="44.738680076674605" lon="9.483363125712467"><ele>882.6666666666667</ele><time>2026-05-03T13:34:48.999Z</time></trkpt><trkpt lat="44.73868240538573" lon="9.483477453732974"><ele>880.5</ele><time>2026-05-03T13:34:49.999Z</time></trkpt><trkpt lat="44.73868017477228" lon="9.48360997825253"><ele>878.3333333333333</ele><time>2026-05-03T13:34:50.999Z</time></trkpt><trkpt lat="44.738668396954616" lon="9.483747152956793"><ele>876.1666666666666</ele><time>2026-05-03T13:34:51.999Z</time></trkpt><trkpt lat="44.73865891546874" lon="9.483882688069958"><ele>874.0</ele><time>2026-05-03T13:34:52.999Z</time></trkpt><trkpt lat="44.73866074342431" lon="9.484011437207513"><ele>873.9999999999999</ele><time>2026-05-03T13:34:53.999Z</time></trkpt><trkpt lat="44.73867046440033" lon="9.484135440862719"><ele>874.0</ele><time>2026-05-03T13:34:54.999Z</time></trkpt><trkpt lat="44.73868144434682" lon="9.484248172645316"><ele>874.0</ele><time>2026-05-03T13:34:55.999Z</time></trkpt><trkpt lat="44.738674059145076" lon="9.48435985174551"><ele>874.0</ele><time>2026-05-03T13:34:56.999Z</time></trkpt><trkpt lat="44.73864047344846" lon="9.484461969956058"><ele>873.9999999999999</ele><time>2026-05-03T13:34:57.999Z</time></trkpt><trkpt lat="44.73859707210665" lon="9.484565985609668"><ele>874.0</ele><time>2026-05-03T13:34:58.999Z</time></trkpt><trkpt lat="44.73856344408359" lon="9.484687524301524"><ele>875.0</ele><time>2026-05-03T13:34:59.999Z</time></trkpt><trkpt lat="44.738544084784856" lon="9.484824658168105"><ele>876.0000000000001</ele><time>2026-05-03T13:35:00.999Z</time></trkpt><trkpt lat="44.73854237100458" lon="9.48497101984253"><ele>877.0000000000001</ele><time>2026-05-03T13:35:01.999Z</time></trkpt><trkpt lat="44.73854188105583" lon="9.4851186264303"><ele>878.0</ele><time>2026-05-03T13:35:02.999Z</time></trkpt><trkpt lat="44.73854518941607" lon="9.485259083252219"><ele>879.0</ele><time>2026-05-03T13:35:03.999Z</time></trkpt><trkpt lat="44.73855637705053" lon="9.485395217444669"><ele>880.6</ele><time>2026-05-03T13:35:04.999Z</time></trkpt><trkpt lat="44.7385759286664" lon="9.485545378417893"><ele>882.2</ele><time>2026-05-03T13:35:05.999Z</time></trkpt><trkpt lat="44.73860128718416" lon="9.485683088197472"><ele>883.8000000000001</ele><time>2026-05-03T13:35:06.999Z</time></trkpt><trkpt lat="44.738617814832374" lon="9.485828032139974"><ele>885.4000000000001</ele><time>2026-05-03T13:35:07.999Z</time></trkpt><trkpt lat="44.73863827279511" lon="9.48597656693073"><ele>887.0</ele><time>2026-05-03T13:35:08.999Z</time></trkpt><trkpt lat="44.7386733090867" lon="9.486120477213392"><ele>887.0</ele><time>2026-05-03T13:35:09.999Z</time></trkpt><trkpt lat="44.738722897378956" lon="9.486237103387245"><ele>887.0</ele><time>2026-05-03T13:35:10.999Z</time></trkpt><trkpt lat="44.73878220226174" lon="9.48634897245875"><ele>887.0</ele><time>2026-05-03T13:35:11.998Z</time></trkpt><trkpt lat="44.738846650394784" lon="9.486459524810202"><ele>887.0</ele><time>2026-05-03T13:35:12.998Z</time></trkpt><trkpt lat="44.73891838098207" lon="9.486567433618266"><ele>887.0</ele><time>2026-05-03T13:35:13.998Z</time></trkpt><trkpt lat="44.73898290854126" lon="9.486667275188724"><ele>888.8333333333334</ele><time>2026-05-03T13:35:14.998Z</time></trkpt><trkpt lat="44.739044478565226" lon="9.486743337633188"><ele>890.6666666666667</ele><time>2026-05-03T13:35:15.998Z</time></trkpt><trkpt lat="44.73909524274574" lon="9.486808049097737"><ele>892.5</ele><time>2026-05-03T13:35:16.998Z</time></trkpt><trkpt lat="44.73913886493965" lon="9.486877844565424"><ele>894.3333333333333</ele><time>2026-05-03T13:35:17.998Z</time></trkpt><trkpt lat="44.73916372724957" lon="9.486972448799056"><ele>896.1666666666666</ele><time>2026-05-03T13:35:18.998Z</time></trkpt><trkpt lat="44.73919561636842" lon="9.487076655947606"><ele>898.0</ele><time>2026-05-03T13:35:19.998Z</time></trkpt><trkpt lat="44.739242578501944" lon="9.48719186272817"><ele>897.3333333333333</ele><time>2026-05-03T13:35:20.998Z</time></trkpt><trkpt lat="44.73929573956302" lon="9.487310307295255"><ele>896.6666666666666</ele><time>2026-05-03T13:35:21.998Z</time></trkpt><trkpt lat="44.73934410386951" lon="9.487393778417246"><ele>896.0</ele><time>2026-05-03T13:35:22.998Z</time></trkpt><trkpt lat="44.73941624769671" lon="9.487419969282005"><ele>895.3333333333333</ele><time>2026-05-03T13:35:24.998Z</time></trkpt><trkpt lat="44.73944992065859" lon="9.487523676871765"><ele>894.6666666666666</ele><time>2026-05-03T13:35:28.998Z</time></trkpt><trkpt lat="44.7394164701082" lon="9.487671650812636"><ele>894.0</ele><time>2026-05-03T13:35:30.998Z</time></trkpt><trkpt lat="44.73938799551805" lon="9.487766862737148"><ele>897.0</ele><time>2026-05-03T13:35:31.998Z</time></trkpt><trkpt lat="44.73937185812464" lon="9.487852687807784"><ele>900.0</ele><time>2026-05-03T13:35:32.998Z</time></trkpt><trkpt lat="44.73936229793608" lon="9.487950634959189"><ele>903.0</ele><time>2026-05-03T13:35:33.998Z</time></trkpt><trkpt lat="44.73935029474706" lon="9.488066549335805"><ele>906.0</ele><time>2026-05-03T13:35:34.998Z</time></trkpt><trkpt lat="44.73932918467921" lon="9.488188941633002"><ele>909.0</ele><time>2026-05-03T13:35:35.998Z</time></trkpt><trkpt lat="44.73929801897936" lon="9.488288999914655"><ele>912.0</ele><time>2026-05-03T13:35:36.998Z</time></trkpt><trkpt lat="44.739251621479546" lon="9.488377347784075"><ele>912.2</ele><time>2026-05-03T13:35:37.998Z</time></trkpt><trkpt lat="44.73920055722761" lon="9.488460683518593"><ele>912.4000000000001</ele><time>2026-05-03T13:35:38.998Z</time></trkpt><trkpt lat="44.739149692609644" lon="9.488561665936379"><ele>912.5999999999999</ele><time>2026-05-03T13:35:39.998Z</time></trkpt><trkpt lat="44.73911834565488" lon="9.48868302190312"><ele>912.8</ele><time>2026-05-03T13:35:40.998Z</time></trkpt><trkpt lat="44.73911455783409" lon="9.488825238747804"><ele>913.0</ele><time>2026-05-03T13:35:41.998Z</time></trkpt><trkpt lat="44.73914503243412" lon="9.488960319862153"><ele>912.25</ele><time>2026-05-03T13:35:43Z</time></trkpt><trkpt lat="44.7391854490632" lon="9.489101139158302"><ele>911.5</ele><time>2026-05-03T13:35:44Z</time></trkpt><trkpt lat="44.73922151309235" lon="9.48925468738107"><ele>910.75</ele><time>2026-05-03T13:35:45Z</time></trkpt><trkpt lat="44.739261648243165" lon="9.489409037413601"><ele>910.0</ele><time>2026-05-03T13:35:46Z</time></trkpt><trkpt lat="44.739301981182464" lon="9.489565627229222"><ele>912.25</ele><time>2026-05-03T13:35:47Z</time></trkpt><trkpt lat="44.739350301982014" lon="9.489716521112287"><ele>914.5</ele><time>2026-05-03T13:35:48Z</time></trkpt><trkpt lat="44.73939496147966" lon="9.489864175828368"><ele>916.75</ele><time>2026-05-03T13:35:49Z</time></trkpt><trkpt lat="44.73942991896865" lon="9.49001839495641"><ele>919.0</ele><time>2026-05-03T13:35:50Z</time></trkpt><trkpt lat="44.73946704689744" lon="9.490167764398956"><ele>916.0</ele><time>2026-05-03T13:35:51Z</time></trkpt><trkpt lat="44.73950956390251" lon="9.490307157851165"><ele>913.0000000000001</ele><time>2026-05-03T13:35:52Z</time></trkpt><trkpt lat="44.739538320655655" lon="9.490458694004232"><ele>910.0000000000001</ele><time>2026-05-03T13:35:53Z</time></trkpt><trkpt lat="44.73957224002569" lon="9.490602446929804"><ele>907.0</ele><time>2026-05-03T13:35:54Z</time></trkpt><trkpt lat="44.73960124595273" lon="9.490749975109452"><ele>904.0</ele><time>2026-05-03T13:35:55Z</time></trkpt><trkpt lat="44.73963389474327" lon="9.490904022912895"><ele>904.0</ele><time>2026-05-03T13:35:56Z</time></trkpt><trkpt lat="44.739667195716436" lon="9.49104297217117"><ele>904.0000000000001</ele><time>2026-05-03T13:35:57Z</time></trkpt><trkpt lat="44.73967994173014" lon="9.49118734415949"><ele>904.0000000000001</ele><time>2026-05-03T13:35:58Z</time></trkpt><trkpt lat="44.73968185029044" lon="9.491335352980304"><ele>904.0</ele><time>2026-05-03T13:35:59Z</time></trkpt><trkpt lat="44.73966294260328" lon="9.491488053523998"><ele>904.0</ele><time>2026-05-03T13:36:00Z</time></trkpt><trkpt lat="44.739624871891166" lon="9.491639773155459"><ele>905.2</ele><time>2026-05-03T13:36:01Z</time></trkpt><trkpt lat="44.73957631346069" lon="9.49177783257285"><ele>906.4000000000001</ele><time>2026-05-03T13:36:02Z</time></trkpt><trkpt lat="44.73954434230004" lon="9.491917373959506"><ele>907.6</ele><time>2026-05-03T13:36:03Z</time></trkpt><trkpt lat="44.73953633967972" lon="9.492079214782624"><ele>908.8</ele><time>2026-05-03T13:36:04Z</time></trkpt><trkpt lat="44.739533843123844" lon="9.492235805086498"><ele>910.0</ele><time>2026-05-03T13:36:05Z</time></trkpt><trkpt lat="44.73952989186329" lon="9.492369331200237"><ele>910.1666666666666</ele><time>2026-05-03T13:36:06Z</time></trkpt><trkpt lat="44.739519857798285" lon="9.492485964193733"><ele>910.3333333333333</ele><time>2026-05-03T13:36:07Z</time></trkpt><trkpt lat="44.73951114089185" lon="9.492583577160186"><ele>910.5</ele><time>2026-05-03T13:36:08Z</time></trkpt><trkpt lat="44.73951081803763" lon="9.492685891753066"><ele>910.6666666666667</ele><time>2026-05-03T13:36:09Z</time></trkpt><trkpt lat="44.739501894117154" lon="9.492825742400868"><ele>910.8333333333334</ele><time>2026-05-03T13:36:11Z</time></trkpt><trkpt lat="44.739490867111954" lon="9.492922859906008"><ele>911.0</ele><time>2026-05-03T13:36:13Z</time></trkpt><trkpt lat="44.73946698258251" lon="9.49302682771059"><ele>911.1999999999999</ele><time>2026-05-03T13:37:13.999Z</time></trkpt><trkpt lat="44.73941744736624" lon="9.493113348475005"><ele>911.3999999999999</ele><time>2026-05-03T13:45:58.998Z</time></trkpt><trkpt lat="44.73933875648502" lon="9.493263799542595"><ele>911.6</ele><time>2026-05-03T13:46:00.998Z</time></trkpt><trkpt lat="44.73930543814094" lon="9.493374564604157"><ele>911.8</ele><time>2026-05-03T13:46:01.998Z</time></trkpt><trkpt lat="44.73926479459058" lon="9.493499090559911"><ele>912.0</ele><time>2026-05-03T13:46:02.998Z</time></trkpt><trkpt lat="44.7391857790713" lon="9.493582117069453"><ele>913.8</ele><time>2026-05-03T13:46:03.998Z</time></trkpt><trkpt lat="44.73908944811414" lon="9.493602256674603"><ele>915.6</ele><time>2026-05-03T13:46:04.998Z</time></trkpt><trkpt lat="44.73898723567099" lon="9.493579267817879"><ele>917.3999999999999</ele><time>2026-05-03T13:46:05.998Z</time></trkpt><trkpt lat="44.73887997121828" lon="9.493530661438347"><ele>919.1999999999999</ele><time>2026-05-03T13:46:06.998Z</time></trkpt><trkpt lat="44.73877903186881" lon="9.493527210047194"><ele>921.0</ele><time>2026-05-03T13:46:07.998Z</time></trkpt><trkpt lat="44.73869265028423" lon="9.493592395943734"><ele>921.0</ele><time>2026-05-03T13:46:08.998Z</time></trkpt><trkpt lat="44.738615629150516" lon="9.493692948532235"><ele>920.9999999999999</ele><time>2026-05-03T13:46:09.998Z</time></trkpt><trkpt lat="44.73853690440559" lon="9.493791579104752"><ele>920.9999999999999</ele><time>2026-05-03T13:46:10.998Z</time></trkpt><trkpt lat="44.738452119536554" lon="9.493845800981362"><ele>921.0</ele><time>2026-05-03T13:46:11.998Z</time></trkpt><trkpt lat="44.73836497879174" lon="9.493832979265765"><ele>921.0</ele><time>2026-05-03T13:46:13Z</time></trkpt><trkpt lat="44.738286169059435" lon="9.493761511610352"><ele>920.25</ele><time>2026-05-03T13:46:14Z</time></trkpt><trkpt lat="44.73822333489744" lon="9.493636584056878"><ele>919.5</ele><time>2026-05-03T13:46:15Z</time></trkpt><trkpt lat="44.73817282838423" lon="9.493476877316855"><ele>918.75</ele><time>2026-05-03T13:46:16Z</time></trkpt><trkpt lat="44.738102255778216" lon="9.493307432585159"><ele>918.0</ele><time>2026-05-03T13:46:17Z</time></trkpt><trkpt lat="44.73798931189919" lon="9.493181354299004"><ele>918.0</ele><time>2026-05-03T13:46:18Z</time></trkpt><trkpt lat="44.73786361478715" lon="9.493095012996296"><ele>918.0</ele><time>2026-05-03T13:46:19Z</time></trkpt><trkpt lat="44.7377463046151" lon="9.493017477770271"><ele>918.0</ele><time>2026-05-03T13:46:20Z</time></trkpt><trkpt lat="44.73763724891456" lon="9.492931894220701"><ele>918.0</ele><time>2026-05-03T13:46:21Z</time></trkpt><trkpt lat="44.73753342405331" lon="9.492839397480095"><ele>917.0</ele><time>2026-05-03T13:46:22Z</time></trkpt><trkpt lat="44.73743114728788" lon="9.492750576304832"><ele>916.0</ele><time>2026-05-03T13:46:23Z</time></trkpt><trkpt lat="44.737328518596655" lon="9.492656240202477"><ele>915.0</ele><time>2026-05-03T13:46:24Z</time></trkpt><trkpt lat="44.737221414442864" lon="9.492568135925818"><ele>914.0</ele><time>2026-05-03T13:46:25Z</time></trkpt><trkpt lat="44.7371119436738" lon="9.492480258708389"><ele>914.0</ele><time>2026-05-03T13:46:26Z</time></trkpt><trkpt lat="44.73699778645017" lon="9.49238941236637"><ele>914.0</ele><time>2026-05-03T13:46:27Z</time></trkpt><trkpt lat="44.73688915048702" lon="9.492286507955347"><ele>914.0</ele><time>2026-05-03T13:46:28Z</time></trkpt><trkpt lat="44.73679573140507" lon="9.492170071403955"><ele>914.0</ele><time>2026-05-03T13:46:29Z</time></trkpt><trkpt lat="44.73670734420017" lon="9.49206111525868"><ele>913.75</ele><time>2026-05-03T13:46:30Z</time></trkpt><trkpt lat="44.736599407905594" lon="9.492006585106576"><ele>913.5</ele><time>2026-05-03T13:46:31Z</time></trkpt><trkpt lat="44.73648223391314" lon="9.49201619744795"><ele>913.25</ele><time>2026-05-03T13:46:32Z</time></trkpt><trkpt lat="44.736362351973284" lon="9.492063046707791"><ele>913.0</ele><time>2026-05-03T13:46:33Z</time></trkpt><trkpt lat="44.73623841882731" lon="9.492079913801946"><ele>915.0</ele><time>2026-05-03T13:46:34Z</time></trkpt><trkpt lat="44.736112561374824" lon="9.492090970270768"><ele>917.0</ele><time>2026-05-03T13:46:35Z</time></trkpt><trkpt lat="44.7359844713596" lon="9.492102530888122"><ele>919.0</ele><time>2026-05-03T13:46:36Z</time></trkpt><trkpt lat="44.73585645312518" lon="9.492102867490207"><ele>921.0</ele><time>2026-05-03T13:46:37Z</time></trkpt><trkpt lat="44.735732244743005" lon="9.492087059225334"><ele>921.0</ele><time>2026-05-03T13:46:38Z</time></trkpt><trkpt lat="44.735609110082926" lon="9.492056622614335"><ele>921.0</ele><time>2026-05-03T13:46:39Z</time></trkpt><trkpt lat="44.73549005997726" lon="9.492041303686007"><ele>921.0</ele><time>2026-05-03T13:46:40Z</time></trkpt><trkpt lat="44.73536413269976" lon="9.492066354473108"><ele>921.0</ele><time>2026-05-03T13:46:41Z</time></trkpt><trkpt lat="44.73524127777336" lon="9.49212123098776"><ele>915.25</ele><time>2026-05-03T13:46:42Z</time></trkpt><trkpt lat="44.73511309011249" lon="9.492157137896163"><ele>909.5</ele><time>2026-05-03T13:46:43Z</time></trkpt><trkpt lat="44.73498534177018" lon="9.49217874007932"><ele>903.75</ele><time>2026-05-03T13:46:44Z</time></trkpt><trkpt lat="44.73486408806431" lon="9.492226763796507"><ele>898.0</ele><time>2026-05-03T13:46:45Z</time></trkpt><trkpt lat="44.734768108187424" lon="9.492324801522972"><ele>898.0</ele><time>2026-05-03T13:46:46Z</time></trkpt><trkpt lat="44.734671998868976" lon="9.492422271961749"><ele>898.0</ele><time>2026-05-03T13:46:47Z</time></trkpt><trkpt lat="44.73456105192146" lon="9.492485905690613"><ele>898.0</ele><time>2026-05-03T13:46:48Z</time></trkpt><trkpt lat="44.734459529107575" lon="9.492546689835478"><ele>898.0</ele><time>2026-05-03T13:46:49Z</time></trkpt><trkpt lat="44.73436823304958" lon="9.492619267691992"><ele>899.5999999999999</ele><time>2026-05-03T13:46:50Z</time></trkpt><trkpt lat="44.734284456663055" lon="9.492704780641674"><ele>901.1999999999999</ele><time>2026-05-03T13:46:51Z</time></trkpt><trkpt lat="44.734219063608634" lon="9.492823056166303"><ele>902.8</ele><time>2026-05-03T13:46:51.999Z</time></trkpt><trkpt lat="44.734198121934924" lon="9.492983181699495"><ele>904.4</ele><time>2026-05-03T13:46:52.999Z</time></trkpt><trkpt lat="44.73421211464178" lon="9.493142287400568"><ele>906.0</ele><time>2026-05-03T13:46:53.999Z</time></trkpt><trkpt lat="44.73422122449311" lon="9.493277762180877"><ele>902.8</ele><time>2026-05-03T13:46:54.999Z</time></trkpt><trkpt lat="44.734191720904086" lon="9.493386687049336"><ele>899.5999999999999</ele><time>2026-05-03T13:46:55.999Z</time></trkpt><trkpt lat="44.73411977665817" lon="9.493468604185471"><ele>896.4</ele><time>2026-05-03T13:46:56.999Z</time></trkpt><trkpt lat="44.734018779243364" lon="9.493535851169515"><ele>893.2</ele><time>2026-05-03T13:46:57.999Z</time></trkpt><trkpt lat="44.73391769547484" lon="9.493613977422351"><ele>890.0</ele><time>2026-05-03T13:46:58.999Z</time></trkpt><trkpt lat="44.733839247655574" lon="9.49374284021626"><ele>886.75</ele><time>2026-05-03T13:46:59.999Z</time></trkpt><trkpt lat="44.73378923737698" lon="9.49391155222874"><ele>883.5</ele><time>2026-05-03T13:47:00.999Z</time></trkpt><trkpt lat="44.73376498352813" lon="9.49408497248257"><ele>880.25</ele><time>2026-05-03T13:47:01.999Z</time></trkpt><trkpt lat="44.733756281077454" lon="9.494252085013336"><ele>877.0</ele><time>2026-05-03T13:47:02.999Z</time></trkpt><trkpt lat="44.73373390929902" lon="9.4944129045205"><ele>877.0</ele><time>2026-05-03T13:47:03.999Z</time></trkpt><trkpt lat="44.7336839656066" lon="9.494554234401885"><ele>877.0</ele><time>2026-05-03T13:47:04.999Z</time></trkpt><trkpt lat="44.733599082586785" lon="9.494657657261767"><ele>877.0</ele><time>2026-05-03T13:47:05.999Z</time></trkpt><trkpt lat="44.733489735384325" lon="9.49469282654107"><ele>877.0</ele><time>2026-05-03T13:47:06.999Z</time></trkpt><trkpt lat="44.73337682833528" lon="9.494669122486691"><ele>878.5</ele><time>2026-05-03T13:47:07.999Z</time></trkpt><trkpt lat="44.73326782830294" lon="9.494572340266446"><ele>880.0</ele><time>2026-05-03T13:47:08.999Z</time></trkpt><trkpt lat="44.733164013069015" lon="9.494490431047518"><ele>881.5</ele><time>2026-05-03T13:47:09.999Z</time></trkpt><trkpt lat="44.73305206297558" lon="9.494391897580888"><ele>883.0</ele><time>2026-05-03T13:47:10.999Z</time></trkpt><trkpt lat="44.732940297152126" lon="9.494303739511258"><ele>883.0</ele><time>2026-05-03T13:47:11.999Z</time></trkpt><trkpt lat="44.73283285995476" lon="9.494225123794939"><ele>883.0</ele><time>2026-05-03T13:47:12.999Z</time></trkpt><trkpt lat="44.73273552793005" lon="9.494136613440535"><ele>883.0</ele><time>2026-05-03T13:47:13.999Z</time></trkpt><trkpt lat="44.732656726990164" lon="9.494026468517065"><ele>883.0</ele><time>2026-05-03T13:47:14.999Z</time></trkpt><trkpt lat="44.73261491297336" lon="9.493887642972506"><ele>881.2</ele><time>2026-05-03T13:47:15.999Z</time></trkpt><trkpt lat="44.73257171589774" lon="9.493776771944642"><ele>879.4</ele><time>2026-05-03T13:47:16.999Z</time></trkpt><trkpt lat="44.73249555595549" lon="9.493706428024787"><ele>877.6000000000001</ele><time>2026-05-03T13:47:17.999Z</time></trkpt><trkpt lat="44.73238952115395" lon="9.493709560308526"><ele>875.8000000000001</ele><time>2026-05-03T13:47:18.999Z</time></trkpt><trkpt lat="44.73227011214704" lon="9.493748938707018"><ele>874.0</ele><time>2026-05-03T13:47:19.999Z</time></trkpt><trkpt lat="44.732148097559524" lon="9.493810726259486"><ele>874.0</ele><time>2026-05-03T13:47:20.999Z</time></trkpt><trkpt lat="44.732024155504405" lon="9.49387214018548"><ele>874.0</ele><time>2026-05-03T13:47:21.999Z</time></trkpt><trkpt lat="44.73190012346419" lon="9.493917588386577"><ele>874.0</ele><time>2026-05-03T13:47:22.999Z</time></trkpt><trkpt lat="44.73179257491157" lon="9.493990796355275"><ele>874.0</ele><time>2026-05-03T13:47:23.999Z</time></trkpt><trkpt lat="44.73170516579427" lon="9.494112782273996"><ele>873.0</ele><time>2026-05-03T13:47:24.999Z</time></trkpt><trkpt lat="44.73161814607914" lon="9.494223722983998"><ele>872.0000000000001</ele><time>2026-05-03T13:47:25.999Z</time></trkpt><trkpt lat="44.73152788708114" lon="9.494309957535426"><ele>871.0000000000001</ele><time>2026-05-03T13:47:26.999Z</time></trkpt><trkpt lat="44.73142910149916" lon="9.49436663830391"><ele>870.0</ele><time>2026-05-03T13:47:27.999Z</time></trkpt><trkpt lat="44.73133543237834" lon="9.494374095070421"><ele>869.0</ele><time>2026-05-03T13:47:28.999Z</time></trkpt><trkpt lat="44.73124656225876" lon="9.494347184948651"><ele>869.0</ele><time>2026-05-03T13:47:29.999Z</time></trkpt><trkpt lat="44.731159511503954" lon="9.494269394463952"><ele>869.0</ele><time>2026-05-03T13:47:30.999Z</time></trkpt><trkpt lat="44.73107159149857" lon="9.49415268542878"><ele>869.0</ele><time>2026-05-03T13:47:31.999Z</time></trkpt><trkpt lat="44.73098339532189" lon="9.494020731566389"><ele>869.0</ele><time>2026-05-03T13:47:32.999Z</time></trkpt><trkpt lat="44.73090084341142" lon="9.493887037301421"><ele>869.3333333333334</ele><time>2026-05-03T13:47:33.999Z</time></trkpt><trkpt lat="44.730826239491144" lon="9.49376271421843"><ele>869.6666666666667</ele><time>2026-05-03T13:47:34.999Z</time></trkpt><trkpt lat="44.730760040895625" lon="9.493656661004232"><ele>870.0</ele><time>2026-05-03T13:47:35.999Z</time></trkpt><trkpt lat="44.73069933363962" lon="9.493577558450857"><ele>870.3333333333333</ele><time>2026-05-03T13:47:36.999Z</time></trkpt><trkpt lat="44.73063478116683" lon="9.493520870231666"><ele>870.6666666666666</ele><time>2026-05-03T13:47:37.999Z</time></trkpt><trkpt lat="44.73057424102554" lon="9.49347793278425"><ele>871.0</ele><time>2026-05-03T13:47:38.999Z</time></trkpt><trkpt lat="44.730494300463064" lon="9.49347917479141"><ele>870.9999999999999</ele><time>2026-05-03T13:47:40.999Z</time></trkpt><trkpt lat="44.73048456888795" lon="9.493572259134567"><ele>871.0</ele><time>2026-05-03T13:47:42.999Z</time></trkpt><trkpt lat="44.730532165327666" lon="9.493707927889538"><ele>871.0</ele><time>2026-05-03T13:47:44.999Z</time></trkpt><trkpt lat="44.7305696715443" lon="9.493800003069431"><ele>871.0</ele><time>2026-05-03T13:47:45.999Z</time></trkpt><trkpt lat="44.73060628352343" lon="9.493894564282362"><ele>870.9999999999999</ele><time>2026-05-03T13:47:46.998Z</time></trkpt><trkpt lat="44.73063757238688" lon="9.493983596583318"><ele>871.0</ele><time>2026-05-03T13:47:47.998Z</time></trkpt><trkpt lat="44.73066734377645" lon="9.494072219421836"><ele>869.1666666666666</ele><time>2026-05-03T13:47:48.998Z</time></trkpt><trkpt lat="44.730699442836055" lon="9.494164249104806"><ele>867.3333333333333</ele><time>2026-05-03T13:47:49.998Z</time></trkpt><trkpt lat="44.73072957426955" lon="9.494249490173152"><ele>865.5</ele><time>2026-05-03T13:47:50.998Z</time></trkpt><trkpt lat="44.7307862743542" lon="9.49440327997009"><ele>863.6666666666667</ele><time>2026-05-03T13:47:52.998Z</time></trkpt><trkpt lat="44.73082389386734" lon="9.494477236222819"><ele>861.8333333333334</ele><time>2026-05-03T13:47:53.998Z</time></trkpt><trkpt lat="44.73088059983561" lon="9.494553457810744"><ele>860.0</ele><time>2026-05-03T13:47:54.998Z</time></trkpt><trkpt lat="44.7309513930231" lon="9.49461135370137"><ele>857.2</ele><time>2026-05-03T13:47:55.998Z</time></trkpt><trkpt lat="44.73104453290528" lon="9.49466422189349"><ele>854.4</ele><time>2026-05-03T13:47:56.998Z</time></trkpt><trkpt lat="44.731137910291544" lon="9.494710265562835"><ele>851.5999999999999</ele><time>2026-05-03T13:47:57.998Z</time></trkpt><trkpt lat="44.73123764415349" lon="9.49473652939181"><ele>848.8</ele><time>2026-05-03T13:47:58.998Z</time></trkpt><trkpt lat="44.73132297339359" lon="9.494738580988113"><ele>846.0</ele><time>2026-05-03T13:47:59.998Z</time></trkpt><trkpt lat="44.731406172913466" lon="9.494728128708546"><ele>846.0</ele><time>2026-05-03T13:48:00.998Z</time></trkpt><trkpt lat="44.731494876605176" lon="9.494688486316148"><ele>846.0</ele><time>2026-05-03T13:48:01.998Z</time></trkpt><trkpt lat="44.73158021626707" lon="9.49467234210325"><ele>846.0</ele><time>2026-05-03T13:48:02.998Z</time></trkpt><trkpt lat="44.73166429700109" lon="9.494671606894322"><ele>846.0</ele><time>2026-05-03T13:48:03.998Z</time></trkpt><trkpt lat="44.7317409077235" lon="9.494711016755163"><ele>846.0</ele><time>2026-05-03T13:48:04.998Z</time></trkpt><trkpt lat="44.73180824652116" lon="9.494782851886145"><ele>846.0</ele><time>2026-05-03T13:48:05.998Z</time></trkpt><trkpt lat="44.731871356427035" lon="9.494863075722435"><ele>845.6666666666666</ele><time>2026-05-03T13:48:06.998Z</time></trkpt><trkpt lat="44.73193213937317" lon="9.49494104938568"><ele>845.3333333333333</ele><time>2026-05-03T13:48:07.998Z</time></trkpt><trkpt lat="44.73198564130395" lon="9.495016237401643"><ele>845.0</ele><time>2026-05-03T13:48:08.998Z</time></trkpt><trkpt lat="44.73202840175035" lon="9.495086345084214"><ele>844.6666666666666</ele><time>2026-05-03T13:48:09.998Z</time></trkpt><trkpt lat="44.73205851655227" lon="9.49526373749132"><ele>844.3333333333333</ele><time>2026-05-03T13:48:11.998Z</time></trkpt><trkpt lat="44.73205810884414" lon="9.495384658271927"><ele>844.0</ele><time>2026-05-03T13:48:12.998Z</time></trkpt><trkpt lat="44.73206294865096" lon="9.495496629148436"><ele>843.9999999999999</ele><time>2026-05-03T13:48:13.998Z</time></trkpt><trkpt lat="44.73206938413035" lon="9.495595186713377"><ele>844.0</ele><time>2026-05-03T13:48:14.998Z</time></trkpt><trkpt lat="44.73206201736053" lon="9.495743850108962"><ele>844.0</ele><time>2026-05-03T13:48:16.998Z</time></trkpt><trkpt lat="44.73206431968064" lon="9.495838999879485"><ele>844.0</ele><time>2026-05-03T13:48:19Z</time></trkpt><trkpt lat="44.73211937040979" lon="9.495936766340927"><ele>843.9999999999999</ele><time>2026-05-03T13:48:21Z</time></trkpt><trkpt lat="44.73218752044049" lon="9.495994017237361"><ele>844.0</ele><time>2026-05-03T13:48:23Z</time></trkpt><trkpt lat="44.73224845321828" lon="9.496036111102047"><ele>844.0</ele><time>2026-05-03T13:48:26Z</time></trkpt><trkpt lat="44.73222889289824" lon="9.496134699693727"><ele>844.0</ele><time>2026-05-03T13:48:28Z</time></trkpt><trkpt lat="44.732153092028746" lon="9.496209430500317"><ele>844.0</ele><time>2026-05-03T13:48:30Z</time></trkpt><trkpt lat="44.73204869888435" lon="9.496250600970715"><ele>844.0</ele><time>2026-05-03T13:48:32Z</time></trkpt><trkpt lat="44.731942829259616" lon="9.496277133741602"><ele>844.0</ele><time>2026-05-03T13:48:34Z</time></trkpt><trkpt lat="44.73182078582049" lon="9.496300052695151"><ele>839.8333333333333</ele><time>2026-05-03T13:48:36Z</time></trkpt><trkpt lat="44.731719634245486" lon="9.496335042330491"><ele>835.6666666666666</ele><time>2026-05-03T13:48:38Z</time></trkpt><trkpt lat="44.73163428317755" lon="9.49637519283613"><ele>831.5</ele><time>2026-05-03T13:48:40Z</time></trkpt><trkpt lat="44.7315642347013" lon="9.49641953470961"><ele>827.3333333333333</ele><time>2026-05-03T13:48:42Z</time></trkpt><trkpt lat="44.73149662092288" lon="9.496443132212352"><ele>823.1666666666666</ele><time>2026-05-03T13:48:44Z</time></trkpt><trkpt lat="44.731438955126855" lon="9.496489465338632"><ele>819.0</ele><time>2026-05-03T13:48:46Z</time></trkpt><trkpt lat="44.73137147618217" lon="9.496496462683568"><ele>819.0</ele><time>2026-05-03T13:48:48Z</time></trkpt><trkpt lat="44.7312892402591" lon="9.49656530759701"><ele>819.0</ele><time>2026-05-03T13:48:51Z</time></trkpt><trkpt lat="44.73125519763652" lon="9.496681472016872"><ele>819.0</ele><time>2026-05-03T13:48:55Z</time></trkpt><trkpt lat="44.7312320334158" lon="9.496799891545086"><ele>819.0</ele><time>2026-05-03T13:48:58Z</time></trkpt><trkpt lat="44.73117755166265" lon="9.496898733655465"><ele>819.0</ele><time>2026-05-03T13:49:00.999Z</time></trkpt><trkpt lat="44.73108848869912" lon="9.496933791633918"><ele>818.5</ele><time>2026-05-03T13:49:02.999Z</time></trkpt><trkpt lat="44.73100980016174" lon="9.496938939388617"><ele>818.0</ele><time>2026-05-03T13:49:04.999Z</time></trkpt><trkpt lat="44.73092099030136" lon="9.496910859743004"><ele>817.5</ele><time>2026-05-03T13:49:07.999Z</time></trkpt><trkpt lat="44.73085368240823" lon="9.496890245047918"><ele>817.0</ele><time>2026-05-03T13:49:14.999Z</time></trkpt><trkpt lat="44.73078450863954" lon="9.496903261867613"><ele>816.5</ele><time>2026-05-03T13:49:17.999Z</time></trkpt><trkpt lat="44.730738955634706" lon="9.496993664139378"><ele>816.0</ele><time>2026-05-03T13:49:20.999Z</time></trkpt><trkpt lat="44.73070725490703" lon="9.497073056618108"><ele>814.5</ele><time>2026-05-03T13:49:32.999Z</time></trkpt><trkpt lat="44.73065053613293" lon="9.49715687793689"><ele>813.0</ele><time>2026-05-03T13:49:35.999Z</time></trkpt><trkpt lat="44.73060491731502" lon="9.497226833953418"><ele>811.5</ele><time>2026-05-03T13:49:36.999Z</time></trkpt><trkpt lat="44.73056618820429" lon="9.497320685650346"><ele>810.0</ele><time>2026-05-03T13:49:37.999Z</time></trkpt><trkpt lat="44.73049227134478" lon="9.497394243820692"><ele>808.5</ele><time>2026-05-03T13:49:38.999Z</time></trkpt><trkpt lat="44.73039899728512" lon="9.4974506761644"><ele>807.0</ele><time>2026-05-03T13:49:39.999Z</time></trkpt><trkpt lat="44.730300409541144" lon="9.497504644456024"><ele>809.8</ele><time>2026-05-03T13:49:40.999Z</time></trkpt><trkpt lat="44.73020845660318" lon="9.497537572264337"><ele>812.6</ele><time>2026-05-03T13:49:41.999Z</time></trkpt><trkpt lat="44.73014560218342" lon="9.497564153303474"><ele>815.4</ele><time>2026-05-03T13:49:42.999Z</time></trkpt><trkpt lat="44.730106404411416" lon="9.497669848906389"><ele>818.1999999999999</ele><time>2026-05-03T13:49:44.999Z</time></trkpt><trkpt lat="44.730033151132204" lon="9.497826685357401"><ele>821.0</ele><time>2026-05-03T13:49:46.999Z</time></trkpt><trkpt lat="44.72997719309522" lon="9.49789965283648"><ele>818.5999999999999</ele><time>2026-05-03T13:49:47.999Z</time></trkpt><trkpt lat="44.72985579949776" lon="9.497972170714952"><ele>816.2</ele><time>2026-05-03T13:49:49.999Z</time></trkpt><trkpt lat="44.72976863593498" lon="9.49799459630711"><ele>813.8</ele><time>2026-05-03T13:49:50.999Z</time></trkpt><trkpt lat="44.72968798537521" lon="9.49804455802744"><ele>811.4000000000001</ele><time>2026-05-03T13:49:51.999Z</time></trkpt><trkpt lat="44.7296297587815" lon="9.49811522439767"><ele>809.0</ele><time>2026-05-03T13:49:52.999Z</time></trkpt><trkpt lat="44.72957746913142" lon="9.49820377447032"><ele>809.0000000000001</ele><time>2026-05-03T13:49:53.999Z</time></trkpt><trkpt lat="44.72951743163153" lon="9.498279998925504"><ele>809.0</ele><time>2026-05-03T13:49:54.998Z</time></trkpt><trkpt lat="44.72944857499107" lon="9.49835300270376"><ele>809.0</ele><time>2026-05-03T13:49:55.998Z</time></trkpt><trkpt lat="44.729394352184535" lon="9.498411935750333"><ele>809.0</ele><time>2026-05-03T13:49:56.998Z</time></trkpt><trkpt lat="44.729352569155054" lon="9.498507246184161"><ele>809.0000000000001</ele><time>2026-05-03T13:49:58.998Z</time></trkpt><trkpt lat="44.72936708877085" lon="9.49863505591342"><ele>809.0</ele><time>2026-05-03T13:50:00.998Z</time></trkpt><trkpt lat="44.72938514285378" lon="9.498771771905174"><ele>807.0</ele><time>2026-05-03T13:50:02.998Z</time></trkpt><trkpt lat="44.72943238783475" lon="9.498872368366667"><ele>805.0</ele><time>2026-05-03T13:50:04.998Z</time></trkpt><trkpt lat="44.72944501357996" lon="9.499016477328958"><ele>803.0</ele><time>2026-05-03T13:50:06.998Z</time></trkpt><trkpt lat="44.72944705589495" lon="9.499185365689605"><ele>801.0</ele><time>2026-05-03T13:50:08.998Z</time></trkpt><trkpt lat="44.72943843639989" lon="9.49934508647904"><ele>799.0</ele><time>2026-05-03T13:50:10.998Z</time></trkpt><trkpt lat="44.72941107362887" lon="9.499494775533607"><ele>801.6</ele><time>2026-05-03T13:50:12.998Z</time></trkpt><trkpt lat="44.729359441112145" lon="9.499662954694612"><ele>804.2</ele><time>2026-05-03T13:50:14.998Z</time></trkpt><trkpt lat="44.72933788989458" lon="9.499753092172588"><ele>806.8000000000001</ele><time>2026-05-03T13:50:15.998Z</time></trkpt><trkpt lat="44.729306422480825" lon="9.499833242387753"><ele>809.4000000000001</ele><time>2026-05-03T13:50:16.998Z</time></trkpt><trkpt lat="44.729274150810376" lon="9.499965530025023"><ele>812.0</ele><time>2026-05-03T13:50:18.998Z</time></trkpt><trkpt lat="44.729300308709945" lon="9.500109556739975"><ele>812.0000000000001</ele><time>2026-05-03T13:50:20.998Z</time></trkpt><trkpt lat="44.72932104569991" lon="9.500199853095177"><ele>812.0</ele><time>2026-05-03T13:50:21.998Z</time></trkpt><trkpt lat="44.72934056248683" lon="9.50033401571093"><ele>812.0</ele><time>2026-05-03T13:50:23.998Z</time></trkpt><trkpt lat="44.72939672433316" lon="9.5004805002033"><ele>812.0</ele><time>2026-05-03T13:50:26Z</time></trkpt><trkpt lat="44.729418066195144" lon="9.500577743119003"><ele>812.0000000000001</ele><time>2026-05-03T13:50:27Z</time></trkpt><trkpt lat="44.729436663991194" lon="9.50067533070207"><ele>812.0</ele><time>2026-05-03T13:50:28Z</time></trkpt><trkpt lat="44.72945827543776" lon="9.500772190531697"><ele>811.4285714285714</ele><time>2026-05-03T13:50:29Z</time></trkpt><trkpt lat="44.729482505282824" lon="9.500871926916464"><ele>810.8571428571429</ele><time>2026-05-03T13:50:30Z</time></trkpt><trkpt lat="44.72950089017049" lon="9.50096601597167"><ele>810.2857142857142</ele><time>2026-05-03T13:50:31Z</time></trkpt><trkpt lat="44.72952321182905" lon="9.501055380794815"><ele>809.7142857142858</ele><time>2026-05-03T13:50:32Z</time></trkpt><trkpt lat="44.729564016655765" lon="9.50113894658226"><ele>809.1428571428571</ele><time>2026-05-03T13:50:33Z</time></trkpt><trkpt lat="44.72961021307355" lon="9.501216737799835"><ele>808.5714285714286</ele><time>2026-05-03T13:50:34Z</time></trkpt><trkpt lat="44.72965027396298" lon="9.501304933061359"><ele>808.0</ele><time>2026-05-03T13:50:35Z</time></trkpt><trkpt lat="44.72968846293662" lon="9.501386240728328"><ele>807.9999999999999</ele><time>2026-05-03T13:50:36Z</time></trkpt><trkpt lat="44.7296998231231" lon="9.501475162925262"><ele>808.0</ele><time>2026-05-03T13:50:37Z</time></trkpt><trkpt lat="44.72967447061679" lon="9.501642200048204"><ele>808.0</ele><time>2026-05-03T13:50:39Z</time></trkpt><trkpt lat="44.72963753933079" lon="9.50172557043156"><ele>808.0</ele><time>2026-05-03T13:50:40Z</time></trkpt><trkpt lat="44.72959359776318" lon="9.501810830248836"><ele>807.9999999999999</ele><time>2026-05-03T13:50:41Z</time></trkpt><trkpt lat="44.7295480664616" lon="9.501921503281201"><ele>808.0</ele><time>2026-05-03T13:50:42Z</time></trkpt><trkpt lat="44.72948946615947" lon="9.50204668768829"><ele>808.8</ele><time>2026-05-03T13:50:43Z</time></trkpt><trkpt lat="44.72943183841502" lon="9.502165468002977"><ele>809.5999999999999</ele><time>2026-05-03T13:50:44Z</time></trkpt><trkpt lat="44.729374583732245" lon="9.502267219218945"><ele>810.4000000000001</ele><time>2026-05-03T13:50:45Z</time></trkpt><trkpt lat="44.72932255377624" lon="9.502361188441766"><ele>811.2</ele><time>2026-05-03T13:50:46Z</time></trkpt><trkpt lat="44.729278453784865" lon="9.502443016181205"><ele>812.0</ele><time>2026-05-03T13:50:47Z</time></trkpt><trkpt lat="44.729239709703705" lon="9.502580214312001"><ele>812.2</ele><time>2026-05-03T13:50:49Z</time></trkpt><trkpt lat="44.72927797866087" lon="9.50274573862742"><ele>812.4000000000001</ele><time>2026-05-03T13:50:51Z</time></trkpt><trkpt lat="44.72931488823349" lon="9.502822838773117"><ele>812.5999999999999</ele><time>2026-05-03T13:50:52Z</time></trkpt><trkpt lat="44.72937037223719" lon="9.502882971225253"><ele>812.8</ele><time>2026-05-03T13:50:53Z</time></trkpt><trkpt lat="44.72944429937138" lon="9.50297537882906"><ele>813.0</ele><time>2026-05-03T13:50:54Z</time></trkpt><trkpt lat="44.729538803204214" lon="9.503050357109558"><ele>813.0</ele><time>2026-05-03T13:50:55Z</time></trkpt><trkpt lat="44.729630778273894" lon="9.503125432726563"><ele>813.0</ele><time>2026-05-03T13:50:56Z</time></trkpt><trkpt lat="44.72970836095648" lon="9.503184577963337"><ele>813.0</ele><time>2026-05-03T13:50:57Z</time></trkpt><trkpt lat="44.72977896202737" lon="9.503244226512372"><ele>813.0</ele><time>2026-05-03T13:50:58Z</time></trkpt><trkpt lat="44.72985069736969" lon="9.503322124499205"><ele>813.0</ele><time>2026-05-03T13:50:59Z</time></trkpt><trkpt lat="44.72991744821971" lon="9.503408451465665"><ele>813.0</ele><time>2026-05-03T13:51:00Z</time></trkpt><trkpt lat="44.72997254414414" lon="9.503500889878543"><ele>813.0</ele><time>2026-05-03T13:51:01Z</time></trkpt><trkpt lat="44.73000951050636" lon="9.50358941863681"><ele>813.0</ele><time>2026-05-03T13:51:02Z</time></trkpt><trkpt lat="44.730044654449195" lon="9.50367169071037"><ele>813.0</ele><time>2026-05-03T13:51:03Z</time></trkpt><trkpt lat="44.7300911417815" lon="9.503750767001184"><ele>813.0</ele><time>2026-05-03T13:51:03.999Z</time></trkpt><trkpt lat="44.730153283875076" lon="9.503808266789191"><ele>813.0</ele><time>2026-05-03T13:51:04.999Z</time></trkpt><trkpt lat="44.73021774973189" lon="9.50387524086317"><ele>812.6666666666666</ele><time>2026-05-03T13:51:05.999Z</time></trkpt><trkpt lat="44.730277413994656" lon="9.50394725454743"><ele>812.3333333333333</ele><time>2026-05-03T13:51:06.999Z</time></trkpt><trkpt lat="44.730322393459105" lon="9.504034492644825"><ele>812.0</ele><time>2026-05-03T13:51:07.999Z</time></trkpt><trkpt lat="44.730349585658594" lon="9.50416691885869"><ele>811.6666666666666</ele><time>2026-05-03T13:51:09.999Z</time></trkpt><trkpt lat="44.73040339109397" lon="9.50421752908919"><ele>811.3333333333333</ele><time>2026-05-03T13:51:12.999Z</time></trkpt><trkpt lat="44.7304664580165" lon="9.504349452399476"><ele>811.0</ele><time>2026-05-03T13:51:14.999Z</time></trkpt><trkpt lat="44.73050778063662" lon="9.50442451593342"><ele>811.0</ele><time>2026-05-03T13:51:15.999Z</time></trkpt><trkpt lat="44.73057577115942" lon="9.504492920714744"><ele>811.0</ele><time>2026-05-03T13:51:16.999Z</time></trkpt><trkpt lat="44.7306618035794" lon="9.504543933290782"><ele>811.0</ele><time>2026-05-03T13:51:17.999Z</time></trkpt><trkpt lat="44.73075735877673" lon="9.504595292774306"><ele>811.0</ele><time>2026-05-03T13:51:18.999Z</time></trkpt><trkpt lat="44.73084816148475" lon="9.50464650973701"><ele>811.0</ele><time>2026-05-03T13:51:19.999Z</time></trkpt><trkpt lat="44.73093778370601" lon="9.504720894540679"><ele>810.1999999999999</ele><time>2026-05-03T13:51:20.999Z</time></trkpt><trkpt lat="44.731020337385424" lon="9.504811852007542"><ele>809.4</ele><time>2026-05-03T13:51:21.999Z</time></trkpt><trkpt lat="44.73109674983812" lon="9.504914925337548"><ele>808.6</ele><time>2026-05-03T13:51:22.999Z</time></trkpt><trkpt lat="44.7311697292667" lon="9.505023846952874"><ele>807.8</ele><time>2026-05-03T13:51:23.999Z</time></trkpt><trkpt lat="44.73123329007692" lon="9.505134351229536"><ele>807.0</ele><time>2026-05-03T13:51:24.999Z</time></trkpt><trkpt lat="44.73129106352871" lon="9.505260429844618"><ele>803.8</ele><time>2026-05-03T13:51:25.999Z</time></trkpt><trkpt lat="44.731342740703816" lon="9.505388345731584"><ele>800.6</ele><time>2026-05-03T13:51:26.999Z</time></trkpt><trkpt lat="44.73138885086523" lon="9.505517093843165"><ele>797.4</ele><time>2026-05-03T13:51:27.999Z</time></trkpt><trkpt lat="44.731414846642465" lon="9.505657340258981"><ele>794.1999999999999</ele><time>2026-05-03T13:51:28.999Z</time></trkpt><trkpt lat="44.73140742442246" lon="9.505801387216108"><ele>791.0</ele><time>2026-05-03T13:51:29.999Z</time></trkpt><trkpt lat="44.731393288571155" lon="9.505937011124281"><ele>791.0</ele><time>2026-05-03T13:51:30.999Z</time></trkpt><trkpt lat="44.73138868936992" lon="9.506067820021102"><ele>791.0</ele><time>2026-05-03T13:51:31.999Z</time></trkpt><trkpt lat="44.731382018088745" lon="9.506195564254346"><ele>791.0</ele><time>2026-05-03T13:51:32.999Z</time></trkpt><trkpt lat="44.73137589952312" lon="9.506327965861924"><ele>791.0</ele><time>2026-05-03T13:51:33.999Z</time></trkpt><trkpt lat="44.731369977657" lon="9.506451970784253"><ele>791.0</ele><time>2026-05-03T13:51:34.999Z</time></trkpt><trkpt lat="44.73136289607384" lon="9.506583980152058"><ele>790.4</ele><time>2026-05-03T13:51:35.999Z</time></trkpt><trkpt lat="44.73136143875204" lon="9.506714237448996"><ele>789.8</ele><time>2026-05-03T13:51:36.999Z</time></trkpt><trkpt lat="44.73136242909901" lon="9.506850599168077"><ele>789.1999999999999</ele><time>2026-05-03T13:51:37.999Z</time></trkpt><trkpt lat="44.73136471465906" lon="9.506984486381192"><ele>788.5999999999999</ele><time>2026-05-03T13:51:38.999Z</time></trkpt><trkpt lat="44.731359575848735" lon="9.507123582639746"><ele>788.0</ele><time>2026-05-03T13:51:39.999Z</time></trkpt><trkpt lat="44.731345867819265" lon="9.507263243587571"><ele>788.0000000000001</ele><time>2026-05-03T13:51:40.999Z</time></trkpt><trkpt lat="44.73132952768848" lon="9.507395680522034"><ele>788.0</ele><time>2026-05-03T13:51:41.999Z</time></trkpt><trkpt lat="44.73131654559296" lon="9.50753023905648"><ele>788.0</ele><time>2026-05-03T13:51:42.999Z</time></trkpt><trkpt lat="44.73132076341057" lon="9.50764196976312"><ele>788.0</ele><time>2026-05-03T13:51:43.999Z</time></trkpt><trkpt lat="44.73134446239187" lon="9.507743693599865"><ele>788.0000000000001</ele><time>2026-05-03T13:51:44.999Z</time></trkpt><trkpt lat="44.73138408422586" lon="9.5078357450067"><ele>788.0</ele><time>2026-05-03T13:51:45.999Z</time></trkpt><trkpt lat="44.73142893190589" lon="9.507924517503621"><ele>789.5000000000001</ele><time>2026-05-03T13:51:46.999Z</time></trkpt><trkpt lat="44.73147112948263" lon="9.507990929825343"><ele>791.0</ele><time>2026-05-03T13:51:47.999Z</time></trkpt><trkpt lat="44.73156951200125" lon="9.508087477487852"><ele>792.5</ele><time>2026-05-03T13:51:49.999Z</time></trkpt><trkpt lat="44.73162727652732" lon="9.508138541880514"><ele>794.0</ele><time>2026-05-03T13:51:50.999Z</time></trkpt><trkpt lat="44.73168447332414" lon="9.508202054198227"><ele>795.5000000000001</ele><time>2026-05-03T13:51:51.999Z</time></trkpt><trkpt lat="44.73174081854634" lon="9.508285093835951"><ele>797.0</ele><time>2026-05-03T13:51:52.999Z</time></trkpt><trkpt lat="44.731788867400724" lon="9.50838098582693"><ele>797.0</ele><time>2026-05-03T13:51:53.999Z</time></trkpt><trkpt lat="44.73182976485655" lon="9.508480260705527"><ele>797.0</ele><time>2026-05-03T13:51:54.999Z</time></trkpt><trkpt lat="44.73187174049108" lon="9.508599124891026"><ele>797.0</ele><time>2026-05-03T13:51:55.999Z</time></trkpt><trkpt lat="44.73190809629653" lon="9.50873786048505"><ele>797.0</ele><time>2026-05-03T13:51:56.999Z</time></trkpt><trkpt lat="44.73193467615351" lon="9.508863331529776"><ele>797.0</ele><time>2026-05-03T13:51:57.999Z</time></trkpt><trkpt lat="44.73197267563567" lon="9.508963476989615"><ele>797.8333333333334</ele><time>2026-05-03T13:51:58.999Z</time></trkpt><trkpt lat="44.73203779963178" lon="9.509022637875251"><ele>798.6666666666667</ele><time>2026-05-03T13:51:59.998Z</time></trkpt><trkpt lat="44.73211480201403" lon="9.509031831831155"><ele>799.5</ele><time>2026-05-03T13:52:00.998Z</time></trkpt><trkpt lat="44.732207639692305" lon="9.509011818012848"><ele>800.3333333333333</ele><time>2026-05-03T13:52:01.998Z</time></trkpt><trkpt lat="44.732303197438846" lon="9.508995372512832"><ele>801.1666666666666</ele><time>2026-05-03T13:52:02.998Z</time></trkpt><trkpt lat="44.732390133840404" lon="9.509003852355201"><ele>802.0</ele><time>2026-05-03T13:52:03.998Z</time></trkpt><trkpt lat="44.732477207812515" lon="9.509021294022574"><ele>802.0</ele><time>2026-05-03T13:52:04.998Z</time></trkpt><trkpt lat="44.732568638484274" lon="9.509050370637455"><ele>802.0</ele><time>2026-05-03T13:52:05.998Z</time></trkpt><trkpt lat="44.7326633627882" lon="9.50909387807972"><ele>802.0</ele><time>2026-05-03T13:52:06.998Z</time></trkpt><trkpt lat="44.73274537062756" lon="9.50914701367971"><ele>802.0</ele><time>2026-05-03T13:52:07.998Z</time></trkpt><trkpt lat="44.73280721490511" lon="9.509194255215494"><ele>802.0</ele><time>2026-05-03T13:52:08.998Z</time></trkpt><trkpt lat="44.73290928376681" lon="9.509258371004606"><ele>802.0</ele><time>2026-05-03T13:52:10.998Z</time></trkpt><trkpt lat="44.73298687229177" lon="9.509298672817849"><ele>802.0</ele><time>2026-05-03T13:52:12.998Z</time></trkpt><trkpt lat="44.733064183786276" lon="9.509322100603349"><ele>802.0</ele><time>2026-05-03T13:52:15.998Z</time></trkpt><trkpt lat="44.733137436925915" lon="9.509335391139233"><ele>802.0</ele><time>2026-05-03T13:52:38Z</time></trkpt><trkpt lat="44.733201476662735" lon="9.50933866299144"><ele>802.0</ele><time>2026-05-03T13:52:40Z</time></trkpt><trkpt lat="44.73325776130839" lon="9.509279973990125"><ele>802.0</ele><time>2026-05-03T13:52:43Z</time></trkpt><trkpt lat="44.73328000348995" lon="9.509191990493411"><ele>802.0</ele><time>2026-05-03T13:52:45Z</time></trkpt><trkpt lat="44.73332908096068" lon="9.5091135133718"><ele>801.9999999999999</ele><time>2026-05-03T13:52:47Z</time></trkpt><trkpt lat="44.73341480060956" lon="9.509062450170935"><ele>802.0</ele><time>2026-05-03T13:52:49Z</time></trkpt><trkpt lat="44.73348487391506" lon="9.509105166838491"><ele>802.0</ele><time>2026-05-03T13:52:51Z</time></trkpt><trkpt lat="44.733522681871335" lon="9.509218670148474"><ele>802.0</ele><time>2026-05-03T13:52:53Z</time></trkpt><trkpt lat="44.73354248394851" lon="9.509305137383222"><ele>801.9999999999999</ele><time>2026-05-03T13:52:54Z</time></trkpt><trkpt lat="44.733569889732465" lon="9.509392036722216"><ele>802.0</ele><time>2026-05-03T13:52:55Z</time></trkpt><trkpt lat="44.7336171140172" lon="9.509566982952354"><ele>797.2</ele><time>2026-05-03T13:52:57Z</time></trkpt><trkpt lat="44.733638655736534" lon="9.50968926154665"><ele>792.4000000000001</ele><time>2026-05-03T13:52:58Z</time></trkpt><trkpt lat="44.73365558410151" lon="9.509842590671337"><ele>787.5999999999999</ele><time>2026-05-03T13:52:59Z</time></trkpt><trkpt lat="44.73366565264987" lon="9.509986477293449"><ele>782.8</ele><time>2026-05-03T13:53:00Z</time></trkpt><trkpt lat="44.73366976576995" lon="9.5101196411702"><ele>778.0</ele><time>2026-05-03T13:53:01Z</time></trkpt><trkpt lat="44.73365948496195" lon="9.510228351155257"><ele>777.9999999999999</ele><time>2026-05-03T13:53:02Z</time></trkpt><trkpt lat="44.73362912565954" lon="9.51032156918897"><ele>778.0</ele><time>2026-05-03T13:53:03Z</time></trkpt><trkpt lat="44.73358428999627" lon="9.510420947402071"><ele>778.0</ele><time>2026-05-03T13:53:04Z</time></trkpt><trkpt lat="44.73355201285927" lon="9.510536504301392"><ele>778.0</ele><time>2026-05-03T13:53:05Z</time></trkpt><trkpt lat="44.733539757487534" lon="9.510674489436155"><ele>777.9999999999999</ele><time>2026-05-03T13:53:06Z</time></trkpt><trkpt lat="44.73354715550094" lon="9.510821114150659"><ele>778.0</ele><time>2026-05-03T13:53:07Z</time></trkpt><trkpt lat="44.733558170176806" lon="9.510984426945079"><ele>778.5</ele><time>2026-05-03T13:53:08Z</time></trkpt><trkpt lat="44.73356583429297" lon="9.511161942958232"><ele>779.0</ele><time>2026-05-03T13:53:09Z</time></trkpt><trkpt lat="44.73358357823101" lon="9.511346933523798"><ele>779.5</ele><time>2026-05-03T13:53:10Z</time></trkpt><trkpt lat="44.73359068629253" lon="9.511509125140432"><ele>780.0</ele><time>2026-05-03T13:53:10.999Z</time></trkpt><trkpt lat="44.733600655887045" lon="9.51164585596883"><ele>781.5</ele><time>2026-05-03T13:53:11.999Z</time></trkpt><trkpt lat="44.73360876367788" lon="9.511758456438619"><ele>783.0</ele><time>2026-05-03T13:53:12.999Z</time></trkpt><trkpt lat="44.733623827348524" lon="9.511869470148724"><ele>784.5</ele><time>2026-05-03T13:53:13.999Z</time></trkpt><trkpt lat="44.73365849178858" lon="9.512005210262737"><ele>786.0</ele><time>2026-05-03T13:53:14.999Z</time></trkpt><trkpt lat="44.73370428012194" lon="9.512126739222392"><ele>787.5</ele><time>2026-05-03T13:53:15.999Z</time></trkpt><trkpt lat="44.73373660476436" lon="9.512229120004088"><ele>789.0</ele><time>2026-05-03T13:53:16.999Z</time></trkpt><trkpt lat="44.73374746240154" lon="9.512333524360345"><ele>791.0</ele><time>2026-05-03T13:53:17.999Z</time></trkpt><trkpt lat="44.7337373745933" lon="9.512436683067815"><ele>793.0</ele><time>2026-05-03T13:53:18.999Z</time></trkpt><trkpt lat="44.733711708803554" lon="9.512535244907316"><ele>795.0</ele><time>2026-05-03T13:53:19.999Z</time></trkpt><trkpt lat="44.73367649411616" lon="9.512637036258736"><ele>797.0</ele><time>2026-05-03T13:53:20.999Z</time></trkpt><trkpt lat="44.73365026062891" lon="9.512727174669825"><ele>799.0</ele><time>2026-05-03T13:53:21.999Z</time></trkpt><trkpt lat="44.73369511876362" lon="9.512855757496036"><ele>801.0</ele><time>2026-05-03T13:53:23.999Z</time></trkpt><trkpt lat="44.73375323612693" lon="9.512920958285125"><ele>803.5999999999999</ele><time>2026-05-03T13:53:24.999Z</time></trkpt><trkpt lat="44.733816070440724" lon="9.513004477097804"><ele>806.2</ele><time>2026-05-03T13:53:25.999Z</time></trkpt><trkpt lat="44.73387626226725" lon="9.513088292367861"><ele>808.8</ele><time>2026-05-03T13:53:26.999Z</time></trkpt><trkpt lat="44.73393616657259" lon="9.513188427794192"><ele>811.4000000000001</ele><time>2026-05-03T13:53:27.999Z</time></trkpt><trkpt lat="44.733998396921116" lon="9.51328347825702"><ele>814.0</ele><time>2026-05-03T13:53:28.999Z</time></trkpt><trkpt lat="44.73407121203477" lon="9.513375345905313"><ele>814.0</ele><time>2026-05-03T13:53:29.999Z</time></trkpt><trkpt lat="44.73414055475736" lon="9.513456162195542"><ele>814.0</ele><time>2026-05-03T13:53:30.999Z</time></trkpt><trkpt lat="44.734193661221234" lon="9.51351768590391"><ele>814.0</ele><time>2026-05-03T13:53:31.999Z</time></trkpt><trkpt lat="44.734277686544395" lon="9.513613879085314"><ele>814.0</ele><time>2026-05-03T13:53:33.999Z</time></trkpt><trkpt lat="44.73433966738063" lon="9.513761466062519"><ele>814.0</ele><time>2026-05-03T13:53:35.999Z</time></trkpt><trkpt lat="44.73435852647381" lon="9.513864850743493"><ele>815.1666666666666</ele><time>2026-05-03T13:53:36.999Z</time></trkpt><trkpt lat="44.734370940247665" lon="9.513983062293322"><ele>816.3333333333333</ele><time>2026-05-03T13:53:37.999Z</time></trkpt><trkpt lat="44.734386194356254" lon="9.514098527437223"><ele>817.5</ele><time>2026-05-03T13:53:38.999Z</time></trkpt><trkpt lat="44.734396678234766" lon="9.51420926483868"><ele>818.6666666666667</ele><time>2026-05-03T13:53:39.999Z</time></trkpt><trkpt lat="44.73439783426723" lon="9.514302771290598"><ele>819.8333333333334</ele><time>2026-05-03T13:53:40.999Z</time></trkpt><trkpt lat="44.73436826374862" lon="9.514451757693706"><ele>821.0</ele><time>2026-05-03T13:53:42.999Z</time></trkpt><trkpt lat="44.734354392559126" lon="9.51458549504681"><ele>822.8</ele><time>2026-05-03T13:53:44.999Z</time></trkpt><trkpt lat="44.73441264921109" lon="9.51472519937465"><ele>824.5999999999999</ele><time>2026-05-03T13:53:46.999Z</time></trkpt><trkpt lat="44.73445393751364" lon="9.514802813886032"><ele>826.4</ele><time>2026-05-03T13:53:47.999Z</time></trkpt><trkpt lat="44.73449168019402" lon="9.514950449044607"><ele>828.2</ele><time>2026-05-03T13:53:49.999Z</time></trkpt><trkpt lat="44.73448562679468" lon="9.515105948336483"><ele>830.0</ele><time>2026-05-03T13:53:51.999Z</time></trkpt><trkpt lat="44.73449732563737" lon="9.515236801561315"><ele>830.0000000000001</ele><time>2026-05-03T13:53:53.999Z</time></trkpt><trkpt lat="44.734551598933635" lon="9.515394657322124"><ele>830.0</ele><time>2026-05-03T13:53:55.999Z</time></trkpt><trkpt lat="44.734578262329435" lon="9.51548006822384"><ele>830.0</ele><time>2026-05-03T13:53:56.999Z</time></trkpt><trkpt lat="44.73460029891278" lon="9.515604560785237"><ele>830.0</ele><time>2026-05-03T13:53:58.999Z</time></trkpt><trkpt lat="44.73460436832102" lon="9.51569877205302"><ele>830.0000000000001</ele><time>2026-05-03T13:54:00.999Z</time></trkpt><trkpt lat="44.73464339538251" lon="9.515809213092586"><ele>830.0</ele><time>2026-05-03T13:54:02.999Z</time></trkpt><trkpt lat="44.73472959321884" lon="9.515797487547918"><ele>833.4</ele><time>2026-05-03T13:54:04.999Z</time></trkpt><trkpt lat="44.73480886396299" lon="9.515725821244526"><ele>836.8</ele><time>2026-05-03T13:54:06.999Z</time></trkpt><trkpt lat="44.73490864170593" lon="9.51572527428543"><ele>840.2</ele><time>2026-05-03T13:54:08.998Z</time></trkpt><trkpt lat="44.73503338339067" lon="9.51571475922814"><ele>843.6</ele><time>2026-05-03T13:54:10.998Z</time></trkpt><trkpt lat="44.73511596869632" lon="9.515717654024575"><ele>847.0</ele><time>2026-05-03T13:54:11.998Z</time></trkpt><trkpt lat="44.735186299854355" lon="9.51571217393701"><ele>848.4999999999999</ele><time>2026-05-03T13:54:12.998Z</time></trkpt><trkpt lat="44.73526144099274" lon="9.515701839070381"><ele>850.0</ele><time>2026-05-03T13:54:13.998Z</time></trkpt><trkpt lat="44.73534265714403" lon="9.515700326194292"><ele>851.5</ele><time>2026-05-03T13:54:14.998Z</time></trkpt><trkpt lat="44.73543666438268" lon="9.515769344774096"><ele>853.0</ele><time>2026-05-03T13:54:16.998Z</time></trkpt><trkpt lat="44.735475759011095" lon="9.515844636738844"><ele>854.4999999999999</ele><time>2026-05-03T13:54:17.998Z</time></trkpt><trkpt lat="44.73551347201141" lon="9.51594500197016"><ele>856.0</ele><time>2026-05-03T13:54:18.998Z</time></trkpt><trkpt lat="44.7355500095864" lon="9.51606045186082"><ele>855.9999999999999</ele><time>2026-05-03T13:54:19.998Z</time></trkpt><trkpt lat="44.73559106113343" lon="9.516158606807998"><ele>856.0</ele><time>2026-05-03T13:54:20.998Z</time></trkpt><trkpt lat="44.73564955614202" lon="9.516240536430931"><ele>856.0</ele><time>2026-05-03T13:54:21.998Z</time></trkpt><trkpt lat="44.73572525078716" lon="9.516307163580183"><ele>856.0</ele><time>2026-05-03T13:54:23.998Z</time></trkpt><trkpt lat="44.73580545350943" lon="9.516332687310483"><ele>855.9999999999999</ele><time>2026-05-03T13:54:25.998Z</time></trkpt><trkpt lat="44.7358771494297" lon="9.516246985233463"><ele>856.0</ele><time>2026-05-03T13:54:27.998Z</time></trkpt><trkpt lat="44.735940006631324" lon="9.51621749716664"><ele>858.4</ele><time>2026-05-03T13:54:28.998Z</time></trkpt><trkpt lat="44.736005685342676" lon="9.516238806475167"><ele>860.8</ele><time>2026-05-03T13:54:29.998Z</time></trkpt><trkpt lat="44.736114266697236" lon="9.516293884776623"><ele>863.1999999999999</ele><time>2026-05-03T13:54:31.998Z</time></trkpt><trkpt lat="44.73624322831705" lon="9.516246254228944"><ele>865.5999999999999</ele><time>2026-05-03T13:54:33.998Z</time></trkpt><trkpt lat="44.73632063424158" lon="9.516218726016238"><ele>868.0</ele><time>2026-05-03T13:54:34.998Z</time></trkpt><trkpt lat="44.736429372061096" lon="9.51624025224602"><ele>870.4</ele><time>2026-05-03T13:54:37Z</time></trkpt><trkpt lat="44.73653513323505" lon="9.516340008807848"><ele>872.8</ele><time>2026-05-03T13:54:39Z</time></trkpt><trkpt lat="44.73660880975431" lon="9.516441269242073"><ele>875.2</ele><time>2026-05-03T13:54:41Z</time></trkpt><trkpt lat="44.736679890117614" lon="9.516537292481722"><ele>877.6</ele><time>2026-05-03T13:54:43Z</time></trkpt><trkpt lat="44.736753086586916" lon="9.516521466545939"><ele>880.0</ele><time>2026-05-03T13:55:28.999Z</time></trkpt><trkpt lat="44.73683282479354" lon="9.516481160896548"><ele>883.3333333333333</ele><time>2026-05-03T13:55:30.999Z</time></trkpt><trkpt lat="44.73692005318877" lon="9.516448779463877"><ele>886.6666666666666</ele><time>2026-05-03T13:55:32.999Z</time></trkpt><trkpt lat="44.736987748295306" lon="9.516436753993498"><ele>890.0</ele><time>2026-05-03T13:55:34.999Z</time></trkpt><trkpt lat="44.737047477650655" lon="9.516401740132075"><ele>893.3333333333333</ele><time>2026-05-03T13:55:37.999Z</time></trkpt><trkpt lat="44.7371135763798" lon="9.51633243199315"><ele>896.6666666666666</ele><time>2026-05-03T13:55:39.999Z</time></trkpt><trkpt lat="44.73720197657289" lon="9.51624166407476"><ele>900.0</ele><time>2026-05-03T13:55:42.999Z</time></trkpt><trkpt lat="44.73729090060389" lon="9.516291354738911"><ele>900.0</ele><time>2026-05-03T13:55:45.999Z</time></trkpt><trkpt lat="44.73737409639744" lon="9.516356854328613"><ele>900.0</ele><time>2026-05-03T13:55:47.999Z</time></trkpt><trkpt lat="44.737437399984415" lon="9.516355661081963"><ele>900.0</ele><time>2026-05-03T13:55:48.999Z</time></trkpt><trkpt lat="44.737547381334075" lon="9.5163285103734"><ele>900.0</ele><time>2026-05-03T13:55:50.999Z</time></trkpt><trkpt lat="44.73762756789073" lon="9.516309135660501"><ele>900.0</ele><time>2026-05-03T13:55:52.999Z</time></trkpt><trkpt lat="44.73770158188633" lon="9.51625567968707"><ele>900.0</ele><time>2026-05-03T13:55:54.999Z</time></trkpt><trkpt lat="44.73778310361519" lon="9.516180256744956"><ele>905.25</ele><time>2026-05-03T13:55:56.999Z</time></trkpt><trkpt lat="44.737880535775766" lon="9.516225430259317"><ele>910.5</ele><time>2026-05-03T13:55:59.999Z</time></trkpt><trkpt lat="44.73794159867406" lon="9.516502017117984"><ele>915.75</ele><time>2026-05-03T13:56:02.999Z</time></trkpt><trkpt lat="44.73794221761072" lon="9.516640660003732"><ele>921.0</ele><time>2026-05-03T13:56:03.999Z</time></trkpt><trkpt lat="44.738021388422446" lon="9.516725884318465"><ele>921.0</ele><time>2026-05-03T13:56:05.999Z</time></trkpt><trkpt lat="44.7380849441106" lon="9.516670915647003"><ele>921.0</ele><time>2026-05-03T13:56:07.999Z</time></trkpt><trkpt lat="44.738157182934884" lon="9.516609717152662"><ele>921.0</ele><time>2026-05-03T13:56:08.999Z</time></trkpt><trkpt lat="44.73824434897934" lon="9.516528024848435"><ele>921.0</ele><time>2026-05-03T13:56:09.999Z</time></trkpt><trkpt lat="44.73831423295787" lon="9.516480045734301"><ele>921.0</ele><time>2026-05-03T13:56:11.998Z</time></trkpt><trkpt lat="44.738303706647926" lon="9.516582493795342"><ele>921.0</ele><time>2026-05-03T13:57:52.999Z</time></trkpt><trkpt lat="44.73836764730484" lon="9.516682635149136"><ele>921.0</ele><time>2026-05-03T13:57:56.999Z</time></trkpt><trkpt lat="44.7384792803934" lon="9.516699742888925"><ele>920.9999999999999</ele><time>2026-05-03T13:57:58.999Z</time></trkpt><trkpt lat="44.738552366550906" lon="9.516697508448464"><ele>920.9999999999999</ele><time>2026-05-03T13:57:59.999Z</time></trkpt><trkpt lat="44.73863309005233" lon="9.516682305809816"><ele>921.0</ele><time>2026-05-03T13:58:00.999Z</time></trkpt><trkpt lat="44.73870827613899" lon="9.51666579625692"><ele>921.0</ele><time>2026-05-03T13:58:01.999Z</time></trkpt><trkpt lat="44.73881256093121" lon="9.516589254718049"><ele>926.1999999999999</ele><time>2026-05-03T13:58:03.999Z</time></trkpt><trkpt lat="44.73886512453996" lon="9.516449434115454"><ele>931.3999999999999</ele><time>2026-05-03T13:58:05.999Z</time></trkpt><trkpt lat="44.73889085941106" lon="9.516281718726006"><ele>936.6</ele><time>2026-05-03T13:58:07.999Z</time></trkpt><trkpt lat="44.73890854337937" lon="9.516153099811916"><ele>941.8</ele><time>2026-05-03T13:58:09.999Z</time></trkpt><trkpt lat="44.73894718590737" lon="9.516054255490097"><ele>947.0</ele><time>2026-05-03T13:58:11.999Z</time></trkpt><trkpt lat="44.73902328246418" lon="9.51596369913344"><ele>947.4000000000001</ele><time>2026-05-03T13:58:13.999Z</time></trkpt><trkpt lat="44.73914243734292" lon="9.51588833933871"><ele>947.8000000000001</ele><time>2026-05-03T13:58:15.999Z</time></trkpt><trkpt lat="44.73923606282537" lon="9.515865308888428"><ele>948.2</ele><time>2026-05-03T13:58:17.999Z</time></trkpt><trkpt lat="44.739296740307715" lon="9.515903707418802"><ele>948.6</ele><time>2026-05-03T13:58:19.999Z</time></trkpt><trkpt lat="44.739400760632606" lon="9.515879326882677"><ele>949.0</ele><time>2026-05-03T13:58:21.998Z</time></trkpt><trkpt lat="44.73940458213102" lon="9.51570233618507"><ele>950.8000000000001</ele><time>2026-05-03T13:58:25.998Z</time></trkpt><trkpt lat="44.73946520111847" lon="9.515666454783856"><ele>952.6000000000001</ele><time>2026-05-03T13:58:28.998Z</time></trkpt><trkpt lat="44.73962277000267" lon="9.515563668913535"><ele>954.4</ele><time>2026-05-03T13:58:29.998Z</time></trkpt><trkpt lat="44.73969392969544" lon="9.515587478941884"><ele>956.2</ele><time>2026-05-03T13:58:30.998Z</time></trkpt><trkpt lat="44.7397911886594" lon="9.515681790168106"><ele>958.0</ele><time>2026-05-03T13:58:32.998Z</time></trkpt><trkpt lat="44.739820991977666" lon="9.515768696768262"><ele>957.9999999999999</ele><time>2026-05-03T13:58:33.998Z</time></trkpt><trkpt lat="44.7398579899852" lon="9.515884437503681"><ele>958.0</ele><time>2026-05-03T13:58:34.998Z</time></trkpt><trkpt lat="44.73989539277653" lon="9.51602124779481"><ele>958.0</ele><time>2026-05-03T13:58:35.998Z</time></trkpt><trkpt lat="44.739927297144604" lon="9.516142270678854"><ele>958.0</ele><time>2026-05-03T13:58:36.998Z</time></trkpt><trkpt lat="44.73995152612542" lon="9.516246169562873"><ele>957.9999999999999</ele><time>2026-05-03T13:58:37.998Z</time></trkpt><trkpt lat="44.739980552506964" lon="9.516332906655094"><ele>958.0</ele><time>2026-05-03T13:58:38.998Z</time></trkpt><trkpt lat="44.74003486789335" lon="9.51645175976936"><ele>959.4</ele><time>2026-05-03T13:58:39.998Z</time></trkpt><trkpt lat="44.740034288261135" lon="9.516618810405326"><ele>960.8</ele><time>2026-05-03T13:58:41.998Z</time></trkpt><trkpt lat="44.73999408099422" lon="9.51672513697943"><ele>962.2</ele><time>2026-05-03T13:58:42.998Z</time></trkpt><trkpt lat="44.7399635236455" lon="9.516815342559628"><ele>963.6</ele><time>2026-05-03T13:58:43.998Z</time></trkpt><trkpt lat="44.73994452579133" lon="9.516911338799632"><ele>965.0</ele><time>2026-05-03T13:58:44.998Z</time></trkpt><trkpt lat="44.739956124775134" lon="9.517057705797072"><ele>965.1666666666667</ele><time>2026-05-03T13:58:46.998Z</time></trkpt><trkpt lat="44.739932080983166" lon="9.517164464229745"><ele>965.3333333333334</ele><time>2026-05-03T13:58:47.998Z</time></trkpt><trkpt lat="44.7398729141927" lon="9.517282653480974"><ele>965.5</ele><time>2026-05-03T13:58:49Z</time></trkpt><trkpt lat="44.739845641971" lon="9.517390552671097"><ele>965.6666666666667</ele><time>2026-05-03T13:58:50Z</time></trkpt><trkpt lat="44.7398486525387" lon="9.517531324909381"><ele>965.8333333333334</ele><time>2026-05-03T13:58:52Z</time></trkpt><trkpt lat="44.73987119612892" lon="9.517616726385999"><ele>966.0</ele><time>2026-05-03T13:58:53Z</time></trkpt><trkpt lat="44.739887580047004" lon="9.517787334364478"><ele>968.3333333333334</ele><time>2026-05-03T13:58:55Z</time></trkpt><trkpt lat="44.73986182886326" lon="9.517948608229462"><ele>970.6666666666667</ele><time>2026-05-03T13:58:57Z</time></trkpt><trkpt lat="44.73989594347343" lon="9.518072227804355"><ele>973.0</ele><time>2026-05-03T13:58:59Z</time></trkpt><trkpt lat="44.739897157183925" lon="9.51817869160862"><ele>975.3333333333334</ele><time>2026-05-03T13:59:00Z</time></trkpt><trkpt lat="44.73988517625166" lon="9.518290153916544"><ele>977.6666666666667</ele><time>2026-05-03T13:59:01Z</time></trkpt><trkpt lat="44.73988419315061" lon="9.518382286525313"><ele>980.0</ele><time>2026-05-03T13:59:02Z</time></trkpt><trkpt lat="44.73989010150928" lon="9.518517695157858"><ele>980.0000000000001</ele><time>2026-05-03T13:59:04Z</time></trkpt><trkpt lat="44.73995226719675" lon="9.518643446428577"><ele>980.0</ele><time>2026-05-03T13:59:06Z</time></trkpt><trkpt lat="44.73996176239881" lon="9.51873579492672"><ele>980.0</ele><time>2026-05-03T13:59:07Z</time></trkpt><trkpt lat="44.7399561143326" lon="9.518838591462256"><ele>980.0</ele><time>2026-05-03T13:59:08Z</time></trkpt><trkpt lat="44.73997049958712" lon="9.518960545744083"><ele>980.0000000000001</ele><time>2026-05-03T13:59:09Z</time></trkpt><trkpt lat="44.739981058860785" lon="9.519054827887961"><ele>980.0</ele><time>2026-05-03T13:59:10Z</time></trkpt><trkpt lat="44.73998752997429" lon="9.51917371320961"><ele>982.8333333333334</ele><time>2026-05-03T13:59:11Z</time></trkpt><trkpt lat="44.74000938384034" lon="9.519274566822208"><ele>985.6666666666667</ele><time>2026-05-03T13:59:12Z</time></trkpt><trkpt lat="44.74002644586503" lon="9.519366402702499"><ele>988.5</ele><time>2026-05-03T13:59:13Z</time></trkpt><trkpt lat="44.74005490057081" lon="9.519465151645683"><ele>991.3333333333333</ele><time>2026-05-03T13:59:14Z</time></trkpt><trkpt lat="44.7401145848862" lon="9.51964769458732"><ele>994.1666666666666</ele><time>2026-05-03T13:59:16Z</time></trkpt><trkpt lat="44.740127534683715" lon="9.519761130087897"><ele>997.0</ele><time>2026-05-03T13:59:17Z</time></trkpt><trkpt lat="44.740120051715024" lon="9.519873241970208"><ele>997.4000000000001</ele><time>2026-05-03T13:59:18Z</time></trkpt><trkpt lat="44.74010639217954" lon="9.51996921823908"><ele>997.8000000000001</ele><time>2026-05-03T13:59:19Z</time></trkpt><trkpt lat="44.74006621494587" lon="9.520075281276721"><ele>998.2</ele><time>2026-05-03T13:59:20Z</time></trkpt><trkpt lat="44.740009007486535" lon="9.520197046267478"><ele>998.6</ele><time>2026-05-03T13:59:21Z</time></trkpt><trkpt lat="44.73993528090486" lon="9.520323613996704"><ele>999.0</ele><time>2026-05-03T13:59:22Z</time></trkpt><trkpt lat="44.739869286126925" lon="9.520413569162967"><ele>999.8000000000001</ele><time>2026-05-03T13:59:23Z</time></trkpt><trkpt lat="44.73982496989469" lon="9.520542974363336"><ele>1000.6000000000001</ele><time>2026-05-03T13:59:25Z</time></trkpt><trkpt lat="44.73984753874827" lon="9.520634217484934"><ele>1001.4</ele><time>2026-05-03T13:59:26Z</time></trkpt><trkpt lat="44.739852599546865" lon="9.520733084062273"><ele>1002.2</ele><time>2026-05-03T13:59:27Z</time></trkpt><trkpt lat="44.73976110044545" lon="9.520896950346682"><ele>1003.0</ele><time>2026-05-03T13:59:29Z</time></trkpt><trkpt lat="44.73969600884922" lon="9.520997714879961"><ele>1003.0</ele><time>2026-05-03T13:59:30Z</time></trkpt><trkpt lat="44.7396059225458" lon="9.521110712270735"><ele>1003.0</ele><time>2026-05-03T13:59:31Z</time></trkpt><trkpt lat="44.73955864489018" lon="9.521187290044253"><ele>1003.0</ele><time>2026-05-03T13:59:31.999Z</time></trkpt><trkpt lat="44.73955098292959" lon="9.521283099408887"><ele>1003.0</ele><time>2026-05-03T13:59:34.999Z</time></trkpt><trkpt lat="44.739576851875526" lon="9.521371133524653"><ele>1003.0</ele><time>2026-05-03T13:59:36.999Z</time></trkpt><trkpt lat="44.739616377902" lon="9.521584760208514"><ele>1005.4999999999999</ele><time>2026-05-03T13:59:39.999Z</time></trkpt><trkpt lat="44.73970343488681" lon="9.521644533831397"><ele>1008.0</ele><time>2026-05-03T13:59:40.999Z</time></trkpt><trkpt lat="44.73978217435467" lon="9.521662334673568"><ele>1010.5</ele><time>2026-05-03T13:59:41.999Z</time></trkpt><trkpt lat="44.739861023412544" lon="9.521673932829604"><ele>1013.0</ele><time>2026-05-03T13:59:42.999Z</time></trkpt><trkpt lat="44.739930803944716" lon="9.521699386499597"><ele>1015.4999999999999</ele><time>2026-05-03T13:59:43.999Z</time></trkpt><trkpt lat="44.739982365262776" lon="9.52182161762156"><ele>1018.0</ele><time>2026-05-03T13:59:44.999Z</time></trkpt><trkpt lat="44.73999160552443" lon="9.521925450074425"><ele>1018.0</ele><time>2026-05-03T13:59:45.999Z</time></trkpt><trkpt lat="44.73998009775098" lon="9.522030579243136"><ele>1018.0</ele><time>2026-05-03T13:59:46.999Z</time></trkpt><trkpt lat="44.73996075008968" lon="9.522179704404838"><ele>1018.0</ele><time>2026-05-03T13:59:47.999Z</time></trkpt><trkpt lat="44.739940135252034" lon="9.522335487922366"><ele>1018.0</ele><time>2026-05-03T13:59:48.999Z</time></trkpt><trkpt lat="44.73991508259977" lon="9.52244275021768"><ele>1018.0</ele><time>2026-05-03T13:59:49.999Z</time></trkpt><trkpt lat="44.73987855253484" lon="9.522533968019737"><ele>1019.5999999999999</ele><time>2026-05-03T13:59:50.999Z</time></trkpt><trkpt lat="44.73985924119858" lon="9.522707571442869"><ele>1021.1999999999999</ele><time>2026-05-03T13:59:52.999Z</time></trkpt><trkpt lat="44.73990730278553" lon="9.522829234401657"><ele>1022.8</ele><time>2026-05-03T13:59:55.999Z</time></trkpt><trkpt lat="44.73992070435713" lon="9.522928326136768"><ele>1024.3999999999999</ele><time>2026-05-03T13:59:57.999Z</time></trkpt><trkpt lat="44.739839624223066" lon="9.523035608355526"><ele>1026.0</ele><time>2026-05-03T13:59:59.999Z</time></trkpt><trkpt lat="44.739884233356044" lon="9.523316272566698"><ele>1027.0</ele><time>2026-05-03T14:00:02.999Z</time></trkpt><trkpt lat="44.73991211328811" lon="9.523548913057626"><ele>1028.0</ele><time>2026-05-03T14:00:03.999Z</time></trkpt><trkpt lat="44.73991018001934" lon="9.52368474933261"><ele>1029.0</ele><time>2026-05-03T14:00:04.999Z</time></trkpt><trkpt lat="44.73989635867068" lon="9.5237876645768"><ele>1030.0</ele><time>2026-05-03T14:00:05.999Z</time></trkpt><trkpt lat="44.73985522493171" lon="9.52385875470529"><ele>1031.0</ele><time>2026-05-03T14:00:06.999Z</time></trkpt><trkpt lat="44.73983688896873" lon="9.523945081617805"><ele>1031.8</ele><time>2026-05-03T14:00:07.999Z</time></trkpt><trkpt lat="44.73982586796901" lon="9.524048927943813"><ele>1032.6</ele><time>2026-05-03T14:00:08.999Z</time></trkpt><trkpt lat="44.739832236852244" lon="9.524150708735814"><ele>1033.4</ele><time>2026-05-03T14:00:09.999Z</time></trkpt><trkpt lat="44.73979985806655" lon="9.524307028722117"><ele>1034.2</ele><time>2026-05-03T14:00:10.999Z</time></trkpt><trkpt lat="44.73977042901621" lon="9.524434938770794"><ele>1035.0</ele><time>2026-05-03T14:00:11.999Z</time></trkpt><trkpt lat="44.7396747007189" lon="9.524536759886661"><ele>1033.25</ele><time>2026-05-03T14:00:12.999Z</time></trkpt><trkpt lat="44.73959795029846" lon="9.524632673032599"><ele>1031.5</ele><time>2026-05-03T14:00:13.999Z</time></trkpt><trkpt lat="44.73955457613732" lon="9.52479194972811"><ele>1029.75</ele><time>2026-05-03T14:00:14.999Z</time></trkpt><trkpt lat="44.73948700915723" lon="9.524996736557961"><ele>1028.0</ele><time>2026-05-03T14:00:15.999Z</time></trkpt><trkpt lat="44.73940574534335" lon="9.525073302789654"><ele>1030.0</ele><time>2026-05-03T14:00:16.999Z</time></trkpt><trkpt lat="44.73935076599961" lon="9.525194417603057"><ele>1032.0</ele><time>2026-05-03T14:00:17.999Z</time></trkpt><trkpt lat="44.739319728360606" lon="9.525305359686314"><ele>1034.0</ele><time>2026-05-03T14:00:18.999Z</time></trkpt><trkpt lat="44.73926639764921" lon="9.525419601530954"><ele>1036.0</ele><time>2026-05-03T14:00:19.999Z</time></trkpt><trkpt lat="44.739215133928575" lon="9.525495679281395"><ele>1038.0</ele><time>2026-05-03T14:00:20.999Z</time></trkpt><trkpt lat="44.73917953212775" lon="9.525571169853869"><ele>1040.0</ele><time>2026-05-03T14:00:21.999Z</time></trkpt><trkpt lat="44.73913801326415" lon="9.525745638447404"><ele>1040.6666666666667</ele><time>2026-05-03T14:00:23.999Z</time></trkpt><trkpt lat="44.73909135315588" lon="9.525840645105907"><ele>1041.3333333333335</ele><time>2026-05-03T14:00:24.999Z</time></trkpt><trkpt lat="44.739038442495705" lon="9.525934771456082"><ele>1042.0</ele><time>2026-05-03T14:00:25.999Z</time></trkpt><trkpt lat="44.73897500577761" lon="9.526028347796444"><ele>1042.6666666666667</ele><time>2026-05-03T14:00:26.999Z</time></trkpt><trkpt lat="44.738911751403435" lon="9.526109613754816"><ele>1043.3333333333333</ele><time>2026-05-03T14:00:27.999Z</time></trkpt><trkpt lat="44.73885099954558" lon="9.526201161578557"><ele>1044.0</ele><time>2026-05-03T14:00:28.998Z</time></trkpt><trkpt lat="44.738791771189256" lon="9.52631850246876"><ele>1045.0</ele><time>2026-05-03T14:00:29.998Z</time></trkpt><trkpt lat="44.738735481414274" lon="9.526422496291506"><ele>1046.0</ele><time>2026-05-03T14:00:30.998Z</time></trkpt><trkpt lat="44.73867095457731" lon="9.526500505955013"><ele>1047.0</ele><time>2026-05-03T14:00:31.998Z</time></trkpt><trkpt lat="44.73860668413486" lon="9.52657079256328"><ele>1048.0</ele><time>2026-05-03T14:00:32.998Z</time></trkpt><trkpt lat="44.738520453359904" lon="9.526637559859374"><ele>1049.0</ele><time>2026-05-03T14:00:33.998Z</time></trkpt><trkpt lat="44.738425795809064" lon="9.526690368519738"><ele>1050.2</ele><time>2026-05-03T14:00:34.998Z</time></trkpt><trkpt lat="44.738338067831144" lon="9.526721182132503"><ele>1051.4</ele><time>2026-05-03T14:00:35.998Z</time></trkpt><trkpt lat="44.738255439941675" lon="9.526734472238108"><ele>1052.6</ele><time>2026-05-03T14:00:36.998Z</time></trkpt><trkpt lat="44.73816176663809" lon="9.52674484670966"><ele>1053.8</ele><time>2026-05-03T14:00:37.998Z</time></trkpt><trkpt lat="44.73807242690901" lon="9.52675295799274"><ele>1055.0</ele><time>2026-05-03T14:00:38.998Z</time></trkpt><trkpt lat="44.73797131886751" lon="9.52671968845222"><ele>1055.0</ele><time>2026-05-03T14:00:40.998Z</time></trkpt><trkpt lat="44.737875303692675" lon="9.526712357437138"><ele>1055.0</ele><time>2026-05-03T14:00:42.998Z</time></trkpt><trkpt lat="44.737802895197284" lon="9.526761719595285"><ele>1055.0</ele><time>2026-05-03T14:00:43.998Z</time></trkpt><trkpt lat="44.737704762966864" lon="9.526816350406532"><ele>1055.0</ele><time>2026-05-03T14:00:44.998Z</time></trkpt><trkpt lat="44.737625099851485" lon="9.52682808972716"><ele>1055.0</ele><time>2026-05-03T14:00:45.998Z</time></trkpt><trkpt lat="44.73751649231775" lon="9.52688704597701"><ele>1055.1666666666667</ele><time>2026-05-03T14:00:47.998Z</time></trkpt><trkpt lat="44.73744125938259" lon="9.526945486062651"><ele>1055.3333333333335</ele><time>2026-05-03T14:00:48.998Z</time></trkpt><trkpt lat="44.7373572778608" lon="9.526988042201348"><ele>1055.5</ele><time>2026-05-03T14:00:49.998Z</time></trkpt><trkpt lat="44.737289166281904" lon="9.527017622372266"><ele>1055.6666666666667</ele><time>2026-05-03T14:00:50.998Z</time></trkpt><trkpt lat="44.737227855707864" lon="9.52704914087636"><ele>1055.8333333333333</ele><time>2026-05-03T14:00:51.998Z</time></trkpt><trkpt lat="44.73715078213621" lon="9.52709956370086"><ele>1056.0</ele><time>2026-05-03T14:00:52.998Z</time></trkpt><trkpt lat="44.73706888473096" lon="9.527170704473003"><ele>1056.0</ele><time>2026-05-03T14:00:53.998Z</time></trkpt><trkpt lat="44.73699462771262" lon="9.527255800860656"><ele>1056.0</ele><time>2026-05-03T14:00:55Z</time></trkpt><trkpt lat="44.736918095394344" lon="9.527330549735199"><ele>1056.0</ele><time>2026-05-03T14:00:56Z</time></trkpt><trkpt lat="44.73684079010237" lon="9.527416650461552"><ele>1056.0</ele><time>2026-05-03T14:00:57Z</time></trkpt><trkpt lat="44.73674128585482" lon="9.527486233181175"><ele>1056.0</ele><time>2026-05-03T14:00:58Z</time></trkpt><trkpt lat="44.73664379619057" lon="9.527563701762448"><ele>1056.3333333333333</ele><time>2026-05-03T14:00:59Z</time></trkpt><trkpt lat="44.73655618767644" lon="9.527630349212794"><ele>1056.6666666666667</ele><time>2026-05-03T14:01:00Z</time></trkpt><trkpt lat="44.73648547467159" lon="9.527695197203766"><ele>1057.0</ele><time>2026-05-03T14:01:01Z</time></trkpt><trkpt lat="44.73643361386164" lon="9.52777993842099"><ele>1057.3333333333335</ele><time>2026-05-03T14:01:02Z</time></trkpt><trkpt lat="44.73638686664391" lon="9.527869016318398"><ele>1057.6666666666667</ele><time>2026-05-03T14:01:03Z</time></trkpt><trkpt lat="44.736297241182335" lon="9.527950916178446"><ele>1058.0</ele><time>2026-05-03T14:01:05Z</time></trkpt><trkpt lat="44.73615749216525" lon="9.527930277669126"><ele>1059.1666666666667</ele><time>2026-05-03T14:01:07Z</time></trkpt><trkpt lat="44.73607248426052" lon="9.527941597587024"><ele>1060.3333333333335</ele><time>2026-05-03T14:01:08Z</time></trkpt><trkpt lat="44.73599954162021" lon="9.527971646352986"><ele>1061.5</ele><time>2026-05-03T14:01:09Z</time></trkpt><trkpt lat="44.73593595216969" lon="9.52800986208762"><ele>1062.6666666666667</ele><time>2026-05-03T14:01:10Z</time></trkpt><trkpt lat="44.73584846570516" lon="9.528121649960973"><ele>1063.8333333333333</ele><time>2026-05-03T14:01:12Z</time></trkpt><trkpt lat="44.735780796248626" lon="9.528181659656314"><ele>1065.0</ele><time>2026-05-03T14:01:13Z</time></trkpt><trkpt lat="44.73571344365643" lon="9.528202029690394"><ele>1065.1666666666667</ele><time>2026-05-03T14:01:14Z</time></trkpt><trkpt lat="44.7356473112585" lon="9.528183792202563"><ele>1065.3333333333333</ele><time>2026-05-03T14:01:15Z</time></trkpt><trkpt lat="44.73556936547726" lon="9.52815842515304"><ele>1065.5</ele><time>2026-05-03T14:01:16Z</time></trkpt><trkpt lat="44.735484279926794" lon="9.528128877725214"><ele>1065.6666666666665</ele><time>2026-05-03T14:01:17Z</time></trkpt><trkpt lat="44.735395245216104" lon="9.528106114113358"><ele>1065.8333333333333</ele><time>2026-05-03T14:01:18Z</time></trkpt><trkpt lat="44.73532710943311" lon="9.528108682218782"><ele>1066.0</ele><time>2026-05-03T14:01:19Z</time></trkpt><trkpt lat="44.73525240192246" lon="9.528121075365926"><ele>1065.8333333333333</ele><time>2026-05-03T14:01:20Z</time></trkpt><trkpt lat="44.7351847670156" lon="9.528150447628718"><ele>1065.6666666666665</ele><time>2026-05-03T14:01:21Z</time></trkpt><trkpt lat="44.73510651963588" lon="9.5281720239687"><ele>1065.5</ele><time>2026-05-03T14:01:22Z</time></trkpt><trkpt lat="44.73502940110588" lon="9.528191551757455"><ele>1065.3333333333333</ele><time>2026-05-03T14:01:23Z</time></trkpt><trkpt lat="44.73494996413605" lon="9.528210588186694"><ele>1065.1666666666667</ele><time>2026-05-03T14:01:24Z</time></trkpt><trkpt lat="44.73484168871872" lon="9.528237438446993"><ele>1065.0</ele><time>2026-05-03T14:01:25Z</time></trkpt><trkpt lat="44.73474399835283" lon="9.528248576021198"><ele>1065.0</ele><time>2026-05-03T14:01:26Z</time></trkpt><trkpt lat="44.73466669170476" lon="9.528271932103642"><ele>1065.0</ele><time>2026-05-03T14:01:27Z</time></trkpt><trkpt lat="44.734587327400526" lon="9.528321093760079"><ele>1065.0</ele><time>2026-05-03T14:01:28Z</time></trkpt><trkpt lat="44.73450252665831" lon="9.52837127697604"><ele>1065.0</ele><time>2026-05-03T14:01:29Z</time></trkpt><trkpt lat="44.73441392935354" lon="9.52843186346645"><ele>1065.0</ele><time>2026-05-03T14:01:30Z</time></trkpt><trkpt lat="44.7343138837447" lon="9.528479811087196"><ele>1065.6</ele><time>2026-05-03T14:01:31Z</time></trkpt><trkpt lat="44.73421264956397" lon="9.528537404224467"><ele>1066.2</ele><time>2026-05-03T14:01:32Z</time></trkpt><trkpt lat="44.73411502132747" lon="9.528592681458525"><ele>1066.8</ele><time>2026-05-03T14:01:33Z</time></trkpt><trkpt lat="44.73405742765805" lon="9.528643516779862"><ele>1067.4</ele><time>2026-05-03T14:01:34Z</time></trkpt><trkpt lat="44.73399878025471" lon="9.528687900972352"><ele>1068.0</ele><time>2026-05-03T14:01:36Z</time></trkpt><trkpt lat="44.733925248256554" lon="9.528800234226456"><ele>1069.0000000000002</ele><time>2026-05-03T14:05:15Z</time></trkpt><trkpt lat="44.73388639870974" lon="9.528873545013182"><ele>1070.0</ele><time>2026-05-03T14:05:16Z</time></trkpt><trkpt lat="44.733862603576135" lon="9.528965713289523"><ele>1071.0</ele><time>2026-05-03T14:05:17Z</time></trkpt><trkpt lat="44.73382874925145" lon="9.529057821476085"><ele>1072.0</ele><time>2026-05-03T14:05:18Z</time></trkpt><trkpt lat="44.73380885604588" lon="9.52915864759932"><ele>1073.0</ele><time>2026-05-03T14:05:19Z</time></trkpt><trkpt lat="44.733797006654406" lon="9.529251607054569"><ele>1074.0000000000002</ele><time>2026-05-03T14:05:20Z</time></trkpt><trkpt lat="44.73378748710198" lon="9.529343988700973"><ele>1075.0</ele><time>2026-05-03T14:05:21Z</time></trkpt><trkpt lat="44.733774463007556" lon="9.52944195784801"><ele>1075.0000000000002</ele><time>2026-05-03T14:05:22Z</time></trkpt><trkpt lat="44.73376476101358" lon="9.529552759273749"><ele>1075.0</ele><time>2026-05-03T14:05:23Z</time></trkpt><trkpt lat="44.73375817259863" lon="9.5296603864799"><ele>1075.0</ele><time>2026-05-03T14:05:24Z</time></trkpt><trkpt lat="44.73374480328338" lon="9.529761387025326"><ele>1075.0</ele><time>2026-05-03T14:05:25Z</time></trkpt><trkpt lat="44.73372759486397" lon="9.529855617537331"><ele>1075.0</ele><time>2026-05-03T14:05:26Z</time></trkpt><trkpt lat="44.733712041289685" lon="9.529953765122249"><ele>1075.0000000000002</ele><time>2026-05-03T14:05:27Z</time></trkpt><trkpt lat="44.73368380359169" lon="9.530046610795734"><ele>1075.0</ele><time>2026-05-03T14:05:28Z</time></trkpt><trkpt lat="44.73364487439535" lon="9.530132683153397"><ele>1075.1666666666665</ele><time>2026-05-03T14:05:29Z</time></trkpt><trkpt lat="44.73361546868714" lon="9.530222501566467"><ele>1075.3333333333333</ele><time>2026-05-03T14:05:30Z</time></trkpt><trkpt lat="44.73357202179556" lon="9.530385831539014"><ele>1075.5</ele><time>2026-05-03T14:05:32Z</time></trkpt><trkpt lat="44.73351919285316" lon="9.530508274459638"><ele>1075.6666666666667</ele><time>2026-05-03T14:05:34Z</time></trkpt><trkpt lat="44.73351054532568" lon="9.53060134020379"><ele>1075.8333333333335</ele><time>2026-05-03T14:05:36Z</time></trkpt><trkpt lat="44.733582757314245" lon="9.530648823706999"><ele>1076.0</ele><time>2026-05-03T14:05:38Z</time></trkpt><trkpt lat="44.73368685403674" lon="9.530613512912"><ele>1074.3333333333335</ele><time>2026-05-03T14:05:40Z</time></trkpt><trkpt lat="44.73375986422918" lon="9.530583187989626"><ele>1072.6666666666667</ele><time>2026-05-03T14:05:42Z</time></trkpt><trkpt lat="44.73384313718697" lon="9.530616291873045"><ele>1071.0</ele><time>2026-05-03T14:05:44Z</time></trkpt><trkpt lat="44.73386987835843" lon="9.530764297498667"><ele>1069.3333333333333</ele><time>2026-05-03T14:05:46Z</time></trkpt><trkpt lat="44.733844217943435" lon="9.530863676410345"><ele>1067.6666666666665</ele><time>2026-05-03T14:05:47Z</time></trkpt><trkpt lat="44.73381736761124" lon="9.530965558236565"><ele>1066.0</ele><time>2026-05-03T14:05:48Z</time></trkpt><trkpt lat="44.733814551393856" lon="9.531074550980502"><ele>1066.0</ele><time>2026-05-03T14:05:49Z</time></trkpt><trkpt lat="44.73381797792504" lon="9.531196119574025"><ele>1066.0</ele><time>2026-05-03T14:05:49.999Z</time></trkpt><trkpt lat="44.73380976058082" lon="9.531306324293462"><ele>1066.0</ele><time>2026-05-03T14:05:50.999Z</time></trkpt><trkpt lat="44.73378314495439" lon="9.531412438270479"><ele>1066.0</ele><time>2026-05-03T14:05:51.999Z</time></trkpt><trkpt lat="44.73374679326708" lon="9.531511655147758"><ele>1066.0</ele><time>2026-05-03T14:05:52.999Z</time></trkpt><trkpt lat="44.73370776815682" lon="9.531607608463815"><ele>1066.0</ele><time>2026-05-03T14:05:53.999Z</time></trkpt><trkpt lat="44.73368684299663" lon="9.531707577731877"><ele>1065.5</ele><time>2026-05-03T14:05:54.999Z</time></trkpt><trkpt lat="44.73367273759795" lon="9.531810763190109"><ele>1065.0</ele><time>2026-05-03T14:05:55.999Z</time></trkpt><trkpt lat="44.73366576161435" lon="9.531921961991099"><ele>1064.5</ele><time>2026-05-03T14:05:56.999Z</time></trkpt><trkpt lat="44.73365799163983" lon="9.532036780926013"><ele>1064.0</ele><time>2026-05-03T14:05:57.999Z</time></trkpt><trkpt lat="44.733647688505435" lon="9.532154832987322"><ele>1063.5</ele><time>2026-05-03T14:05:58.999Z</time></trkpt><trkpt lat="44.733620417789496" lon="9.53227269745437"><ele>1063.0</ele><time>2026-05-03T14:05:59.999Z</time></trkpt><trkpt lat="44.733576168313796" lon="9.532380261584311"><ele>1058.1666666666665</ele><time>2026-05-03T14:06:00.999Z</time></trkpt><trkpt lat="44.73353652572381" lon="9.53248733087252"><ele>1053.3333333333333</ele><time>2026-05-03T14:06:01.999Z</time></trkpt><trkpt lat="44.73349972928315" lon="9.532575399150653"><ele>1048.5</ele><time>2026-05-03T14:06:02.999Z</time></trkpt><trkpt lat="44.73345281100752" lon="9.532645310911748"><ele>1043.6666666666667</ele><time>2026-05-03T14:06:03.999Z</time></trkpt><trkpt lat="44.73340533088505" lon="9.532812582887196"><ele>1038.8333333333335</ele><time>2026-05-03T14:06:05.999Z</time></trkpt><trkpt lat="44.73339677769822" lon="9.532901167715274"><ele>1034.0</ele><time>2026-05-03T14:06:06.999Z</time></trkpt><trkpt lat="44.73340712030696" lon="9.532998520704664"><ele>1034.0</ele><time>2026-05-03T14:06:07.999Z</time></trkpt><trkpt lat="44.73342235306914" lon="9.533097131563107"><ele>1034.0</ele><time>2026-05-03T14:06:08.999Z</time></trkpt><trkpt lat="44.73342750027841" lon="9.533207419434481"><ele>1034.0</ele><time>2026-05-03T14:06:09.999Z</time></trkpt><trkpt lat="44.73341117908256" lon="9.533308547664872"><ele>1034.0</ele><time>2026-05-03T14:06:10.999Z</time></trkpt><trkpt lat="44.733381789474514" lon="9.53346652112838"><ele>1034.0</ele><time>2026-05-03T14:06:12.999Z</time></trkpt><trkpt lat="44.73337065116443" lon="9.533555780958118"><ele>1034.0</ele><time>2026-05-03T14:06:13.999Z</time></trkpt><trkpt lat="44.733385248699804" lon="9.53373074862648"><ele>1032.0</ele><time>2026-05-03T14:06:15.999Z</time></trkpt><trkpt lat="44.73338959328714" lon="9.53382013782663"><ele>1030.0</ele><time>2026-05-03T14:06:16.999Z</time></trkpt><trkpt lat="44.733409723455026" lon="9.5339874312039"><ele>1028.0</ele><time>2026-05-03T14:06:18.999Z</time></trkpt><trkpt lat="44.73342023741673" lon="9.534169852646968"><ele>1026.0</ele><time>2026-05-03T14:06:20.999Z</time></trkpt><trkpt lat="44.733413074810954" lon="9.534274886349367"><ele>1024.0</ele><time>2026-05-03T14:06:21.999Z</time></trkpt><trkpt lat="44.733422458193935" lon="9.53438176801249"><ele>1023.9999999999999</ele><time>2026-05-03T14:06:22.999Z</time></trkpt><trkpt lat="44.73344281551727" lon="9.534479155653134"><ele>1024.0</ele><time>2026-05-03T14:06:23.999Z</time></trkpt><trkpt lat="44.73346117432518" lon="9.534619593666646"><ele>1024.0</ele><time>2026-05-03T14:06:25.999Z</time></trkpt><trkpt lat="44.7334432813498" lon="9.534759541062012"><ele>1024.0</ele><time>2026-05-03T14:06:27.999Z</time></trkpt><trkpt lat="44.733405182137965" lon="9.53485908843961"><ele>1023.9999999999999</ele><time>2026-05-03T14:06:29.999Z</time></trkpt><trkpt lat="44.73333110474483" lon="9.534921354502366"><ele>1024.0</ele><time>2026-05-03T14:06:31.999Z</time></trkpt><trkpt lat="44.73327462113863" lon="9.535022826164704"><ele>1021.2</ele><time>2026-05-03T14:06:33.999Z</time></trkpt><trkpt lat="44.73324136286781" lon="9.535178770688283"><ele>1018.4000000000001</ele><time>2026-05-03T14:06:35.999Z</time></trkpt><trkpt lat="44.73316573427744" lon="9.53530282191199"><ele>1015.6</ele><time>2026-05-03T14:06:37.999Z</time></trkpt><trkpt lat="44.73308320128491" lon="9.53538437317902"><ele>1012.8</ele><time>2026-05-03T14:06:39.999Z</time></trkpt><trkpt lat="44.733040341506076" lon="9.535466883680508"><ele>1010.0</ele><time>2026-05-03T14:06:41.999Z</time></trkpt><trkpt lat="44.73304983120513" lon="9.535597707116569"><ele>1007.6</ele><time>2026-05-03T14:06:43.999Z</time></trkpt><trkpt lat="44.733027197028484" lon="9.535750826697331"><ele>1005.2</ele><time>2026-05-03T14:06:45.999Z</time></trkpt><trkpt lat="44.73297007922595" lon="9.535908618815988"><ele>1002.8</ele><time>2026-05-03T14:06:47.998Z</time></trkpt><trkpt lat="44.732914579097994" lon="9.536048527083668"><ele>1000.4</ele><time>2026-05-03T14:06:49.998Z</time></trkpt><trkpt lat="44.73287209118315" lon="9.536142563653817"><ele>998.0</ele><time>2026-05-03T14:06:51.998Z</time></trkpt><trkpt lat="44.73290573866118" lon="9.536219217791276"><ele>997.4</ele><time>2026-05-03T14:06:53.998Z</time></trkpt><trkpt lat="44.73295205018772" lon="9.536306048210736"><ele>996.8</ele><time>2026-05-03T14:06:55.998Z</time></trkpt><trkpt lat="44.732985432694775" lon="9.536464104853193"><ele>996.2</ele><time>2026-05-03T14:06:57.998Z</time></trkpt><trkpt lat="44.73297084063877" lon="9.53665724385511"><ele>995.6</ele><time>2026-05-03T14:06:59.998Z</time></trkpt><trkpt lat="44.73293672834723" lon="9.536771940966334"><ele>995.0</ele><time>2026-05-03T14:07:00.998Z</time></trkpt><trkpt lat="44.732891609106716" lon="9.536876714681451"><ele>995.0</ele><time>2026-05-03T14:07:01.998Z</time></trkpt><trkpt lat="44.73284084892022" lon="9.536994501495117"><ele>995.0</ele><time>2026-05-03T14:07:02.998Z</time></trkpt><trkpt lat="44.73278327682822" lon="9.537096625304798"><ele>995.0</ele><time>2026-05-03T14:07:03.998Z</time></trkpt><trkpt lat="44.73272189931375" lon="9.537204404300988"><ele>995.0</ele><time>2026-05-03T14:07:04.998Z</time></trkpt><trkpt lat="44.73265768596494" lon="9.537318338071849"><ele>995.0</ele><time>2026-05-03T14:07:05.998Z</time></trkpt><trkpt lat="44.732593772262476" lon="9.537433809762899"><ele>991.8</ele><time>2026-05-03T14:07:06.998Z</time></trkpt><trkpt lat="44.732532312527056" lon="9.53755705943304"><ele>988.6</ele><time>2026-05-03T14:07:07.998Z</time></trkpt><trkpt lat="44.73247421377598" lon="9.53767648929369"><ele>985.4000000000001</ele><time>2026-05-03T14:07:08.998Z</time></trkpt><trkpt lat="44.73241646995624" lon="9.537795137551058"><ele>982.2</ele><time>2026-05-03T14:07:09.998Z</time></trkpt><trkpt lat="44.73235357669714" lon="9.537906031008971"><ele>979.0</ele><time>2026-05-03T14:07:10.998Z</time></trkpt><trkpt lat="44.73228175689045" lon="9.538002872576422"><ele>979.0</ele><time>2026-05-03T14:07:11.998Z</time></trkpt><trkpt lat="44.73219865432394" lon="9.538083597860476"><ele>979.0000000000001</ele><time>2026-05-03T14:07:13Z</time></trkpt><trkpt lat="44.73211773063937" lon="9.538154712340479"><ele>979.0000000000001</ele><time>2026-05-03T14:07:14Z</time></trkpt><trkpt lat="44.73205285148562" lon="9.538237484574315"><ele>979.0</ele><time>2026-05-03T14:07:15Z</time></trkpt><trkpt lat="44.73200942986123" lon="9.538338032095469"><ele>979.0</ele><time>2026-05-03T14:07:16Z</time></trkpt><trkpt lat="44.732005345705886" lon="9.538453386305042"><ele>979.0</ele><time>2026-05-03T14:07:17Z</time></trkpt><trkpt lat="44.732032323897336" lon="9.538573405771318"><ele>979.0000000000001</ele><time>2026-05-03T14:07:18Z</time></trkpt><trkpt lat="44.73205459621277" lon="9.538698862309964"><ele>979.0000000000001</ele><time>2026-05-03T14:07:19Z</time></trkpt><trkpt lat="44.732085518636296" lon="9.538821630733754"><ele>979.0</ele><time>2026-05-03T14:07:20Z</time></trkpt><trkpt lat="44.732141802907705" lon="9.538940321014616"><ele>979.0</ele><time>2026-05-03T14:07:21Z</time></trkpt><trkpt lat="44.73222587789507" lon="9.53904588661635"><ele>978.8000000000001</ele><time>2026-05-03T14:07:22Z</time></trkpt><trkpt lat="44.7323074343535" lon="9.539161008550375"><ele>978.6000000000001</ele><time>2026-05-03T14:07:23Z</time></trkpt><trkpt lat="44.732330719258194" lon="9.539305406488179"><ele>978.4</ele><time>2026-05-03T14:07:24Z</time></trkpt><trkpt lat="44.73230208756042" lon="9.53945524212568"><ele>978.2</ele><time>2026-05-03T14:07:25Z</time></trkpt><trkpt lat="44.732253812542" lon="9.539598720003982"><ele>978.0</ele><time>2026-05-03T14:07:26Z</time></trkpt><trkpt lat="44.73221150677819" lon="9.539748611059693"><ele>978.4</ele><time>2026-05-03T14:07:27Z</time></trkpt><trkpt lat="44.73217976788893" lon="9.53990360746452"><ele>978.8</ele><time>2026-05-03T14:07:28Z</time></trkpt><trkpt lat="44.73214285562511" lon="9.540052822960693"><ele>979.2</ele><time>2026-05-03T14:07:29Z</time></trkpt><trkpt lat="44.732093061417984" lon="9.540180605152035"><ele>979.6</ele><time>2026-05-03T14:07:30Z</time></trkpt><trkpt lat="44.73203263030941" lon="9.540296447557816"><ele>980.0</ele><time>2026-05-03T14:07:31Z</time></trkpt><trkpt lat="44.73197978986807" lon="9.540415753446942"><ele>981.0</ele><time>2026-05-03T14:07:32Z</time></trkpt><trkpt lat="44.73193574988587" lon="9.540545380776978"><ele>982.0</ele><time>2026-05-03T14:07:33Z</time></trkpt><trkpt lat="44.73189811616964" lon="9.540681961822779"><ele>983.0</ele><time>2026-05-03T14:07:34Z</time></trkpt><trkpt lat="44.731865494879614" lon="9.540826531016883"><ele>984.0</ele><time>2026-05-03T14:07:35Z</time></trkpt><trkpt lat="44.73183611635393" lon="9.540973260743431"><ele>985.0</ele><time>2026-05-03T14:07:36Z</time></trkpt><trkpt lat="44.73180068030632" lon="9.541123810206075"><ele>980.5</ele><time>2026-05-03T14:07:37Z</time></trkpt><trkpt lat="44.731765088517875" lon="9.54127976437014"><ele>976.0</ele><time>2026-05-03T14:07:38Z</time></trkpt><trkpt lat="44.731733166743034" lon="9.541447706911976"><ele>971.5</ele><time>2026-05-03T14:07:39Z</time></trkpt><trkpt lat="44.73171155948187" lon="9.541618133520963"><ele>967.0</ele><time>2026-05-03T14:07:40Z</time></trkpt><trkpt lat="44.73168489630989" lon="9.541783262713286"><ele>967.0</ele><time>2026-05-03T14:07:41Z</time></trkpt><trkpt lat="44.73165782826708" lon="9.541942420688828"><ele>967.0</ele><time>2026-05-03T14:07:42Z</time></trkpt><trkpt lat="44.731647668153975" lon="9.542099004439123"><ele>967.0</ele><time>2026-05-03T14:07:43Z</time></trkpt><trkpt lat="44.73165720141698" lon="9.54224359565988"><ele>967.0</ele><time>2026-05-03T14:07:44Z</time></trkpt><trkpt lat="44.73168541908701" lon="9.542382098760012"><ele>967.0</ele><time>2026-05-03T14:07:45Z</time></trkpt><trkpt lat="44.7317304568125" lon="9.542516923746279"><ele>966.5</ele><time>2026-05-03T14:07:46Z</time></trkpt><trkpt lat="44.731778743591384" lon="9.54265356218987"><ele>966.0</ele><time>2026-05-03T14:07:47Z</time></trkpt><trkpt lat="44.73183201742852" lon="9.542814079763776"><ele>965.5</ele><time>2026-05-03T14:07:48Z</time></trkpt><trkpt lat="44.731884504458236" lon="9.542969088481765"><ele>965.0</ele><time>2026-05-03T14:07:49Z</time></trkpt><trkpt lat="44.73191677795957" lon="9.543126673733946"><ele>965.4</ele><time>2026-05-03T14:07:50Z</time></trkpt><trkpt lat="44.731948313490705" lon="9.543281328174952"><ele>965.8</ele><time>2026-05-03T14:07:51Z</time></trkpt><trkpt lat="44.73200258306266" lon="9.54341611893246"><ele>966.2</ele><time>2026-05-03T14:07:52Z</time></trkpt><trkpt lat="44.73208199596275" lon="9.543524289845202"><ele>966.6</ele><time>2026-05-03T14:07:53Z</time></trkpt><trkpt lat="44.73215932942565" lon="9.543638443739598"><ele>967.0</ele><time>2026-05-03T14:07:54Z</time></trkpt><trkpt lat="44.732199137297314" lon="9.54378922983938"><ele>967.0</ele><time>2026-05-03T14:07:54.999Z</time></trkpt><trkpt lat="44.7322047681177" lon="9.543948274065523"><ele>967.0</ele><time>2026-05-03T14:07:55.999Z</time></trkpt><trkpt lat="44.73219165263192" lon="9.544097464300146"><ele>967.0</ele><time>2026-05-03T14:07:56.999Z</time></trkpt><trkpt lat="44.732168297135075" lon="9.544241763792089"><ele>967.0</ele><time>2026-05-03T14:07:57.999Z</time></trkpt><trkpt lat="44.73212484708041" lon="9.544377430320676"><ele>967.0</ele><time>2026-05-03T14:07:58.999Z</time></trkpt><trkpt lat="44.73205356221889" lon="9.544489090930174"><ele>965.4999999999999</ele><time>2026-05-03T14:07:59.999Z</time></trkpt><trkpt lat="44.7319687993575" lon="9.544573611265328"><ele>964.0</ele><time>2026-05-03T14:08:00.999Z</time></trkpt><trkpt lat="44.73188263992491" lon="9.544645328356323"><ele>962.5</ele><time>2026-05-03T14:08:01.999Z</time></trkpt><trkpt lat="44.73181813569471" lon="9.544716663089185"><ele>961.0</ele><time>2026-05-03T14:08:02.999Z</time></trkpt><trkpt lat="44.731783674894864" lon="9.544808395601141"><ele>959.4999999999999</ele><time>2026-05-03T14:08:03.999Z</time></trkpt><trkpt lat="44.73179062414173" lon="9.544901912780738"><ele>958.0</ele><time>2026-05-03T14:08:04.999Z</time></trkpt><trkpt lat="44.73184879438682" lon="9.544981027534234"><ele>958.0</ele><time>2026-05-03T14:08:05.999Z</time></trkpt><trkpt lat="44.731942513096264" lon="9.545042362933977"><ele>958.0</ele><time>2026-05-03T14:08:06.999Z</time></trkpt><trkpt lat="44.732032447141385" lon="9.545116001268081"><ele>958.0</ele><time>2026-05-03T14:08:07.999Z</time></trkpt><trkpt lat="44.732102074352625" lon="9.545212899303172"><ele>958.0</ele><time>2026-05-03T14:08:08.999Z</time></trkpt><trkpt lat="44.732141559560226" lon="9.545338676964759"><ele>958.0</ele><time>2026-05-03T14:08:09.999Z</time></trkpt><trkpt lat="44.73216165247586" lon="9.545491244842218"><ele>955.25</ele><time>2026-05-03T14:08:10.999Z</time></trkpt><trkpt lat="44.73217435044615" lon="9.54565611058465"><ele>952.5</ele><time>2026-05-03T14:08:11.999Z</time></trkpt><trkpt lat="44.73217487995086" lon="9.54582121905992"><ele>949.75</ele><time>2026-05-03T14:08:12.999Z</time></trkpt><trkpt lat="44.73216442027952" lon="9.545979957344807"><ele>947.0</ele><time>2026-05-03T14:08:13.999Z</time></trkpt><trkpt lat="44.732142295622694" lon="9.546122055716378"><ele>947.0000000000001</ele><time>2026-05-03T14:08:14.999Z</time></trkpt><trkpt lat="44.73212569577496" lon="9.54624192848996"><ele>947.0</ele><time>2026-05-03T14:08:15.999Z</time></trkpt><trkpt lat="44.732148456679234" lon="9.546341286442185"><ele>947.0</ele><time>2026-05-03T14:08:16.999Z</time></trkpt><trkpt lat="44.732217339406255" lon="9.546419366998936"><ele>947.0</ele><time>2026-05-03T14:08:17.999Z</time></trkpt><trkpt lat="44.73230943828444" lon="9.546437204354234"><ele>947.0000000000001</ele><time>2026-05-03T14:08:18.999Z</time></trkpt><trkpt lat="44.73240095790282" lon="9.546434680063317"><ele>947.0</ele><time>2026-05-03T14:08:19.999Z</time></trkpt><trkpt lat="44.73247979901455" lon="9.546454064555652"><ele>947.0</ele><time>2026-05-03T14:08:20.999Z</time></trkpt><trkpt lat="44.732524430101506" lon="9.546531509460175"><ele>947.0</ele><time>2026-05-03T14:08:21.999Z</time></trkpt><trkpt lat="44.732519654325735" lon="9.546634960627474"><ele>947.0</ele><time>2026-05-03T14:08:22.999Z</time></trkpt><trkpt lat="44.73246758889143" lon="9.546725308910679"><ele>947.0</ele><time>2026-05-03T14:08:23.999Z</time></trkpt><trkpt lat="44.732374934076766" lon="9.546775908873805"><ele>947.0</ele><time>2026-05-03T14:08:24.999Z</time></trkpt><trkpt lat="44.732247441773595" lon="9.5467962965781"><ele>947.0</ele><time>2026-05-03T14:08:25.999Z</time></trkpt><trkpt lat="44.73210092772609" lon="9.546806704849013"><ele>947.0</ele><time>2026-05-03T14:08:26.999Z</time></trkpt><trkpt lat="44.73196147971879" lon="9.546821598028453"><ele>947.0</ele><time>2026-05-03T14:08:27.999Z</time></trkpt><trkpt lat="44.731834793160665" lon="9.546852224181928"><ele>947.0</ele><time>2026-05-03T14:08:28.999Z</time></trkpt><trkpt lat="44.73173709794718" lon="9.5468881704456"><ele>944.6</ele><time>2026-05-03T14:08:29.999Z</time></trkpt><trkpt lat="44.73166255414701" lon="9.546939657161756"><ele>942.2</ele><time>2026-05-03T14:08:30.999Z</time></trkpt><trkpt lat="44.73160426831372" lon="9.547033929730265"><ele>939.8</ele><time>2026-05-03T14:08:31.999Z</time></trkpt><trkpt lat="44.73157483987633" lon="9.547179095980654"><ele>937.4</ele><time>2026-05-03T14:08:32.999Z</time></trkpt><trkpt lat="44.7315697414485" lon="9.547363287343835"><ele>935.0</ele><time>2026-05-03T14:08:33.999Z</time></trkpt><trkpt lat="44.731567279809624" lon="9.54757010288025"><ele>934.5</ele><time>2026-05-03T14:08:34.999Z</time></trkpt><trkpt lat="44.731551737821384" lon="9.547775744852359"><ele>934.0</ele><time>2026-05-03T14:08:35.999Z</time></trkpt><trkpt lat="44.731522172057964" lon="9.547966013071544"><ele>933.5</ele><time>2026-05-03T14:08:36.999Z</time></trkpt><trkpt lat="44.731467452553765" lon="9.54815239901023"><ele>933.0</ele><time>2026-05-03T14:08:37.999Z</time></trkpt><trkpt lat="44.73138106584929" lon="9.548315865070826"><ele>932.5</ele><time>2026-05-03T14:08:38.999Z</time></trkpt><trkpt lat="44.7312637666778" lon="9.548422620683017"><ele>932.0</ele><time>2026-05-03T14:08:39.999Z</time></trkpt><trkpt lat="44.73115769806473" lon="9.548513377871076"><ele>931.5</ele><time>2026-05-03T14:08:40.999Z</time></trkpt><trkpt lat="44.73106649864065" lon="9.548615457602107"><ele>931.0</ele><time>2026-05-03T14:08:41.999Z</time></trkpt><trkpt lat="44.73098698514746" lon="9.548736444858541"><ele>926.5</ele><time>2026-05-03T14:08:42.999Z</time></trkpt><trkpt lat="44.73092214070492" lon="9.54887922117903"><ele>922.0</ele><time>2026-05-03T14:08:43.999Z</time></trkpt><trkpt lat="44.73087180239163" lon="9.549040486634441"><ele>917.5</ele><time>2026-05-03T14:08:44.999Z</time></trkpt><trkpt lat="44.73084023245736" lon="9.549212937302569"><ele>913.0</ele><time>2026-05-03T14:08:45.999Z</time></trkpt><trkpt lat="44.73086357483521" lon="9.54939264617641"><ele>913.75</ele><time>2026-05-03T14:08:46.999Z</time></trkpt><trkpt lat="44.730923464184514" lon="9.549562569709773"><ele>914.5</ele><time>2026-05-03T14:08:47.999Z</time></trkpt><trkpt lat="44.73093622058555" lon="9.54972205100833"><ele>915.25</ele><time>2026-05-03T14:08:48.999Z</time></trkpt><trkpt lat="44.73087957952078" lon="9.549860270928928"><ele>916.0</ele><time>2026-05-03T14:08:49.999Z</time></trkpt><trkpt lat="44.73077178041099" lon="9.549940492647316"><ele>916.0</ele><time>2026-05-03T14:08:50.999Z</time></trkpt><trkpt lat="44.73064114716541" lon="9.549956376584383"><ele>916.0</ele><time>2026-05-03T14:08:51.998Z</time></trkpt><trkpt lat="44.73050694623736" lon="9.549942917398715"><ele>916.0</ele><time>2026-05-03T14:08:52.998Z</time></trkpt><trkpt lat="44.73036848768453" lon="9.549945094588576"><ele>916.0</ele><time>2026-05-03T14:08:53.998Z</time></trkpt><trkpt lat="44.7302349373724" lon="9.549969659595721"><ele>913.5</ele><time>2026-05-03T14:08:54.998Z</time></trkpt><trkpt lat="44.73010895897281" lon="9.549990715217739"><ele>911.0</ele><time>2026-05-03T14:08:55.998Z</time></trkpt><trkpt lat="44.72998649527586" lon="9.550009770597184"><ele>908.5</ele><time>2026-05-03T14:08:56.998Z</time></trkpt><trkpt lat="44.72987086156845" lon="9.550046717763124"><ele>906.0</ele><time>2026-05-03T14:08:57.998Z</time></trkpt><trkpt lat="44.72976126611722" lon="9.550112154921026"><ele>906.0</ele><time>2026-05-03T14:08:58.998Z</time></trkpt><trkpt lat="44.729653901831696" lon="9.550189221965955"><ele>906.0</ele><time>2026-05-03T14:08:59.998Z</time></trkpt><trkpt lat="44.72954188088147" lon="9.550261223097571"><ele>906.0</ele><time>2026-05-03T14:09:00.998Z</time></trkpt><trkpt lat="44.7294154733601" lon="9.550294949951404"><ele>906.0</ele><time>2026-05-03T14:09:01.998Z</time></trkpt><trkpt lat="44.72928729099049" lon="9.550260398881637"><ele>905.25</ele><time>2026-05-03T14:09:02.998Z</time></trkpt><trkpt lat="44.729167926720656" lon="9.550242682867786"><ele>904.5</ele><time>2026-05-03T14:09:03.998Z</time></trkpt><trkpt lat="44.72907234964201" lon="9.550269719160863"><ele>903.75</ele><time>2026-05-03T14:09:04.998Z</time></trkpt><trkpt lat="44.72898619583199" lon="9.550347411727897"><ele>903.0</ele><time>2026-05-03T14:09:05.998Z</time></trkpt><trkpt lat="44.72890021853961" lon="9.550496343770321"><ele>903.0</ele><time>2026-05-03T14:09:06.998Z</time></trkpt><trkpt lat="44.72881300353459" lon="9.550659150942293"><ele>903.0</ele><time>2026-05-03T14:09:07.998Z</time></trkpt><trkpt lat="44.72873563284397" lon="9.550822652906561"><ele>903.0</ele><time>2026-05-03T14:09:08.998Z</time></trkpt><trkpt lat="44.72869014612886" lon="9.550985507027884"><ele>903.0</ele><time>2026-05-03T14:09:09.998Z</time></trkpt><trkpt lat="44.72866936166258" lon="9.551147266703685"><ele>903.75</ele><time>2026-05-03T14:09:10.998Z</time></trkpt><trkpt lat="44.728632610278936" lon="9.55129409549724"><ele>904.5</ele><time>2026-05-03T14:09:11.998Z</time></trkpt><trkpt lat="44.72855070510773" lon="9.55140375406982"><ele>905.25</ele><time>2026-05-03T14:09:12.998Z</time></trkpt><trkpt lat="44.728432806288296" lon="9.551445890231722"><ele>906.0</ele><time>2026-05-03T14:09:13.998Z</time></trkpt><trkpt lat="44.728317736474814" lon="9.55142976747041"><ele>903.5</ele><time>2026-05-03T14:09:14.998Z</time></trkpt><trkpt lat="44.72820427198934" lon="9.551361626411158"><ele>901.0</ele><time>2026-05-03T14:09:15.998Z</time></trkpt><trkpt lat="44.72808996504553" lon="9.551264843386228"><ele>898.5</ele><time>2026-05-03T14:09:16.998Z</time></trkpt><trkpt lat="44.72797176842181" lon="9.551143758134975"><ele>896.0</ele><time>2026-05-03T14:09:17.998Z</time></trkpt><trkpt lat="44.72787334077347" lon="9.550995769292568"><ele>895.0</ele><time>2026-05-03T14:09:19Z</time></trkpt><trkpt lat="44.72779879409929" lon="9.550835507935332"><ele>894.0</ele><time>2026-05-03T14:09:20Z</time></trkpt><trkpt lat="44.72773154671063" lon="9.550688276444314"><ele>893.0</ele><time>2026-05-03T14:09:21Z</time></trkpt><trkpt lat="44.72764585305841" lon="9.550593920162358"><ele>892.0</ele><time>2026-05-03T14:09:22Z</time></trkpt><trkpt lat="44.727536237663315" lon="9.550549457864433"><ele>890.25</ele><time>2026-05-03T14:09:23Z</time></trkpt><trkpt lat="44.72740707412638" lon="9.550553503026897"><ele>888.5</ele><time>2026-05-03T14:09:24Z</time></trkpt><trkpt lat="44.72727696192389" lon="9.550601539388765"><ele>886.75</ele><time>2026-05-03T14:09:25Z</time></trkpt><trkpt lat="44.727181860359586" lon="9.550656044126821"><ele>885.0</ele><time>2026-05-03T14:09:26Z</time></trkpt><trkpt lat="44.727112536658304" lon="9.550725903820863"><ele>885.0</ele><time>2026-05-03T14:09:27Z</time></trkpt><trkpt lat="44.72706900014651" lon="9.550851093579228"><ele>885.0</ele><time>2026-05-03T14:09:28Z</time></trkpt><trkpt lat="44.7270495336591" lon="9.551034550276169"><ele>885.0</ele><time>2026-05-03T14:09:29Z</time></trkpt><trkpt lat="44.72704548446306" lon="9.551252654718427"><ele>885.0</ele><time>2026-05-03T14:09:30Z</time></trkpt><trkpt lat="44.72706033432007" lon="9.551498931288362"><ele>885.3333333333333</ele><time>2026-05-03T14:09:31Z</time></trkpt><trkpt lat="44.72709504763359" lon="9.551763842809304"><ele>885.6666666666666</ele><time>2026-05-03T14:09:32Z</time></trkpt><trkpt lat="44.72714518350853" lon="9.552002211869594"><ele>886.0</ele><time>2026-05-03T14:09:33Z</time></trkpt><trkpt lat="44.7271948499197" lon="9.552217355124053"><ele>884.25</ele><time>2026-05-03T14:09:34Z</time></trkpt><trkpt lat="44.72721446923132" lon="9.552429625143253"><ele>882.5</ele><time>2026-05-03T14:09:35Z</time></trkpt><trkpt lat="44.727178672853064" lon="9.552636427793376"><ele>880.75</ele><time>2026-05-03T14:09:36Z</time></trkpt><trkpt lat="44.727100322239295" lon="9.552806737870103"><ele>879.0</ele><time>2026-05-03T14:09:37Z</time></trkpt><trkpt lat="44.727030688399644" lon="9.552921108116301"><ele>878.0</ele><time>2026-05-03T14:09:38Z</time></trkpt><trkpt lat="44.72701088279132" lon="9.55303117412082"><ele>877.0000000000001</ele><time>2026-05-03T14:09:39Z</time></trkpt><trkpt lat="44.727058471055756" lon="9.553153865746317"><ele>876.0000000000001</ele><time>2026-05-03T14:09:40Z</time></trkpt><trkpt lat="44.72714198159511" lon="9.553248237849228"><ele>875.0</ele><time>2026-05-03T14:09:41Z</time></trkpt><trkpt lat="44.727241432512216" lon="9.553346604308294"><ele>874.0</ele><time>2026-05-03T14:09:42Z</time></trkpt><trkpt lat="44.72733339477936" lon="9.55348765482865"><ele>874.0</ele><time>2026-05-03T14:09:43Z</time></trkpt><trkpt lat="44.72740097158139" lon="9.553698219659767"><ele>874.0</ele><time>2026-05-03T14:09:44Z</time></trkpt><trkpt lat="44.72745384206363" lon="9.553941800280676"><ele>874.0</ele><time>2026-05-03T14:09:45Z</time></trkpt><trkpt lat="44.72753776224229" lon="9.554151821744316"><ele>871.25</ele><time>2026-05-03T14:09:46Z</time></trkpt><trkpt lat="44.72761673334812" lon="9.55431993272528"><ele>868.5</ele><time>2026-05-03T14:09:47Z</time></trkpt><trkpt lat="44.72768953011388" lon="9.55446152029473"><ele>865.75</ele><time>2026-05-03T14:09:48Z</time></trkpt><trkpt lat="44.727791614081866" lon="9.554574579868309"><ele>863.0</ele><time>2026-05-03T14:09:49Z</time></trkpt><trkpt lat="44.72794482778881" lon="9.554665532955532"><ele>861.3333333333334</ele><time>2026-05-03T14:09:50Z</time></trkpt><trkpt lat="44.72809613517614" lon="9.554777882268759"><ele>859.6666666666667</ele><time>2026-05-03T14:09:51Z</time></trkpt><trkpt lat="44.72822007072978" lon="9.554935387342292"><ele>858.0</ele><time>2026-05-03T14:09:52Z</time></trkpt><trkpt lat="44.728327300908155" lon="9.55508944185871"><ele>858.0</ele><time>2026-05-03T14:09:53Z</time></trkpt><trkpt lat="44.728431301167014" lon="9.555213835682775"><ele>858.0</ele><time>2026-05-03T14:09:54Z</time></trkpt><trkpt lat="44.728519317765375" lon="9.55530619910044"><ele>858.0</ele><time>2026-05-03T14:09:55Z</time></trkpt><trkpt lat="44.72857779201459" lon="9.555404762627699"><ele>858.0</ele><time>2026-05-03T14:09:56Z</time></trkpt><trkpt lat="44.72859166443905" lon="9.555532377862331"><ele>858.0</ele><time>2026-05-03T14:09:57Z</time></trkpt><trkpt lat="44.72854411062833" lon="9.555696377244406"><ele>856.3333333333333</ele><time>2026-05-03T14:09:58Z</time></trkpt><trkpt lat="44.728462837189284" lon="9.555876664382073"><ele>854.6666666666666</ele><time>2026-05-03T14:09:59Z</time></trkpt><trkpt lat="44.72835766497827" lon="9.556066344382467"><ele>853.0</ele><time>2026-05-03T14:10:00Z</time></trkpt><trkpt lat="44.72824304380446" lon="9.556265002874008"><ele>853.0</ele><time>2026-05-03T14:10:01Z</time></trkpt><trkpt lat="44.72813503429437" lon="9.556440375466844"><ele>853.0</ele><time>2026-05-03T14:10:02Z</time></trkpt><trkpt lat="44.72804465445888" lon="9.556599049248861"><ele>853.0</ele><time>2026-05-03T14:10:03Z</time></trkpt><trkpt lat="44.727968199582726" lon="9.556743440365725"><ele>853.0</ele><time>2026-05-03T14:10:03.999Z</time></trkpt><trkpt lat="44.727905904579664" lon="9.55687952955527"><ele>853.0</ele><time>2026-05-03T14:10:04.999Z</time></trkpt><trkpt lat="44.72785131343603" lon="9.557016196871933"><ele>853.0</ele><time>2026-05-03T14:10:05.999Z</time></trkpt><trkpt lat="44.72781047630853" lon="9.557145985283297"><ele>853.0</ele><time>2026-05-03T14:10:06.999Z</time></trkpt><trkpt lat="44.72779691630394" lon="9.557283177662956"><ele>853.0</ele><time>2026-05-03T14:10:07.999Z</time></trkpt><trkpt lat="44.72782374963041" lon="9.557431746443411"><ele>853.0</ele><time>2026-05-03T14:10:08.999Z</time></trkpt><trkpt lat="44.727866696263554" lon="9.557585029093184"><ele>851.25</ele><time>2026-05-03T14:10:09.999Z</time></trkpt><trkpt lat="44.72787425120201" lon="9.557747684999669"><ele>849.5</ele><time>2026-05-03T14:10:10.999Z</time></trkpt><trkpt lat="44.72782748724059" lon="9.557908917525541"><ele>847.75</ele><time>2026-05-03T14:10:11.999Z</time></trkpt><trkpt lat="44.72772761143017" lon="9.55803649914138"><ele>846.0</ele><time>2026-05-03T14:10:12.999Z</time></trkpt><trkpt lat="44.72761013263812" lon="9.558151852175518"><ele>846.0</ele><time>2026-05-03T14:10:13.999Z</time></trkpt><trkpt lat="44.72752353357844" lon="9.55829040741667"><ele>846.0</ele><time>2026-05-03T14:10:14.999Z</time></trkpt><trkpt lat="44.72746142865714" lon="9.558439492928024"><ele>846.0</ele><time>2026-05-03T14:10:15.999Z</time></trkpt><trkpt lat="44.727393721073824" lon="9.558570268225061"><ele>846.0</ele><time>2026-05-03T14:10:16.999Z</time></trkpt><trkpt lat="44.727298306054884" lon="9.558671159383248"><ele>848.75</ele><time>2026-05-03T14:10:17.999Z</time></trkpt><trkpt lat="44.727182364320456" lon="9.558734315160518"><ele>851.5</ele><time>2026-05-03T14:10:18.999Z</time></trkpt><trkpt lat="44.72707131777922" lon="9.558791701717654"><ele>854.25</ele><time>2026-05-03T14:10:19.999Z</time></trkpt><trkpt lat="44.726962005253846" lon="9.558847680536692"><ele>857.0</ele><time>2026-05-03T14:10:20.999Z</time></trkpt><trkpt lat="44.726851440329156" lon="9.558895671957552"><ele>852.6</ele><time>2026-05-03T14:10:21.999Z</time></trkpt><trkpt lat="44.726754204091584" lon="9.558942323221968"><ele>848.2</ele><time>2026-05-03T14:10:22.999Z</time></trkpt><trkpt lat="44.7266756603698" lon="9.559011587056894"><ele>843.8</ele><time>2026-05-03T14:10:23.999Z</time></trkpt><trkpt lat="44.7266223456098" lon="9.559146704536033"><ele>839.4</ele><time>2026-05-03T14:10:24.999Z</time></trkpt><trkpt lat="44.72658747901878" lon="9.559307616259241"><ele>835.0</ele><time>2026-05-03T14:10:25.999Z</time></trkpt><trkpt lat="44.7265529520223" lon="9.559464961849867"><ele>834.75</ele><time>2026-05-03T14:10:26.999Z</time></trkpt><trkpt lat="44.72650406547583" lon="9.559620885126764"><ele>834.5</ele><time>2026-05-03T14:10:27.999Z</time></trkpt><trkpt lat="44.726438943185904" lon="9.559776687744195"><ele>834.25</ele><time>2026-05-03T14:10:28.999Z</time></trkpt><trkpt lat="44.72636155887728" lon="9.559919911847848"><ele>834.0</ele><time>2026-05-03T14:10:29.999Z</time></trkpt><trkpt lat="44.72627606721122" lon="9.560038799175876"><ele>834.0</ele><time>2026-05-03T14:10:30.999Z</time></trkpt><trkpt lat="44.726164085193034" lon="9.560115270919022"><ele>834.0</ele><time>2026-05-03T14:10:31.999Z</time></trkpt><trkpt lat="44.726034336161774" lon="9.560160932998732"><ele>834.0</ele><time>2026-05-03T14:10:32.999Z</time></trkpt><trkpt lat="44.725908478378436" lon="9.560182209852641"><ele>834.0</ele><time>2026-05-03T14:10:33.999Z</time></trkpt><trkpt lat="44.72580280672425" lon="9.560200585111984"><ele>831.0</ele><time>2026-05-03T14:10:34.999Z</time></trkpt><trkpt lat="44.72570824292899" lon="9.560258595781137"><ele>828.0</ele><time>2026-05-03T14:10:35.999Z</time></trkpt><trkpt lat="44.72562581832195" lon="9.560352923640947"><ele>825.0</ele><time>2026-05-03T14:10:36.999Z</time></trkpt><trkpt lat="44.72554916546062" lon="9.560488041974747"><ele>822.0</ele><time>2026-05-03T14:10:37.999Z</time></trkpt><trkpt lat="44.72547360080679" lon="9.560634735487557"><ele>822.0</ele><time>2026-05-03T14:10:38.999Z</time></trkpt><trkpt lat="44.72541569842879" lon="9.560743577237984"><ele>822.0</ele><time>2026-05-03T14:10:39.999Z</time></trkpt><trkpt lat="44.72537896581415" lon="9.560825298521141"><ele>822.0</ele><time>2026-05-03T14:10:40.999Z</time></trkpt><trkpt lat="44.72537093709493" lon="9.560915496376852"><ele>822.0</ele><time>2026-05-03T14:10:41.999Z</time></trkpt><trkpt lat="44.72540213755569" lon="9.561011348396454"><ele>822.0</ele><time>2026-05-03T14:10:42.999Z</time></trkpt><trkpt lat="44.72548289397241" lon="9.561086343273928"><ele>822.0</ele><time>2026-05-03T14:10:43.999Z</time></trkpt><trkpt lat="44.72559458866956" lon="9.561136294994121"><ele>817.5</ele><time>2026-05-03T14:10:44.999Z</time></trkpt><trkpt lat="44.725730423568834" lon="9.561201794169712"><ele>813.0</ele><time>2026-05-03T14:10:45.999Z</time></trkpt><trkpt lat="44.72587234801598" lon="9.561281088485995"><ele>808.5</ele><time>2026-05-03T14:10:46.999Z</time></trkpt><trkpt lat="44.725986334643025" lon="9.561381118881638"><ele>804.0</ele><time>2026-05-03T14:10:47.999Z</time></trkpt><trkpt lat="44.7260846091529" lon="9.561480962428593"><ele>804.0</ele><time>2026-05-03T14:10:48.999Z</time></trkpt><trkpt lat="44.72620506424147" lon="9.561555507491564"><ele>804.0</ele><time>2026-05-03T14:10:49.999Z</time></trkpt><trkpt lat="44.7263324657277" lon="9.561592075852497"><ele>804.0</ele><time>2026-05-03T14:10:50.999Z</time></trkpt><trkpt lat="44.72645822715308" lon="9.561603482258224"><ele>804.0</ele><time>2026-05-03T14:10:51.999Z</time></trkpt><trkpt lat="44.72658923311603" lon="9.561586403101773"><ele>804.0</ele><time>2026-05-03T14:10:52.999Z</time></trkpt><trkpt lat="44.72670993026333" lon="9.561549376937105"><ele>804.0</ele><time>2026-05-03T14:10:53.999Z</time></trkpt><trkpt lat="44.72683360761232" lon="9.561507666226085"><ele>804.0</ele><time>2026-05-03T14:10:54.999Z</time></trkpt><trkpt lat="44.72695340460055" lon="9.561489581179748"><ele>804.0</ele><time>2026-05-03T14:10:55.999Z</time></trkpt><trkpt lat="44.7270736063948" lon="9.561498719424334"><ele>804.25</ele><time>2026-05-03T14:10:56.999Z</time></trkpt><trkpt lat="44.72718739864426" lon="9.561520208496932"><ele>804.5</ele><time>2026-05-03T14:10:57.999Z</time></trkpt><trkpt lat="44.72730130088369" lon="9.561549636645351"><ele>804.75</ele><time>2026-05-03T14:10:58.999Z</time></trkpt><trkpt lat="44.72741953762475" lon="9.561600509050043"><ele>805.0</ele><time>2026-05-03T14:10:59.999Z</time></trkpt><trkpt lat="44.7275466683888" lon="9.561676264153363"><ele>805.0</ele><time>2026-05-03T14:11:00.999Z</time></trkpt><trkpt lat="44.727675655495176" lon="9.561774533999897"><ele>805.0</ele><time>2026-05-03T14:11:01.998Z</time></trkpt><trkpt lat="44.72779356626437" lon="9.561860691435724"><ele>805.0</ele><time>2026-05-03T14:11:02.998Z</time></trkpt><trkpt lat="44.7279287618802" lon="9.561923403163618"><ele>805.0</ele><time>2026-05-03T14:11:03.998Z</time></trkpt><trkpt lat="44.72807708242081" lon="9.56195335504039"><ele>805.25</ele><time>2026-05-03T14:11:04.998Z</time></trkpt><trkpt lat="44.728238232503536" lon="9.561968658689564"><ele>805.5</ele><time>2026-05-03T14:11:05.998Z</time></trkpt><trkpt lat="44.72838843854045" lon="9.561981259751727"><ele>805.75</ele><time>2026-05-03T14:11:06.998Z</time></trkpt><trkpt lat="44.72851717687905" lon="9.562031552859954"><ele>806.0</ele><time>2026-05-03T14:11:07.998Z</time></trkpt><trkpt lat="44.7286434312725" lon="9.562096346806086"><ele>806.0</ele><time>2026-05-03T14:11:08.998Z</time></trkpt><trkpt lat="44.72874885911739" lon="9.562189443182108"><ele>806.0</ele><time>2026-05-03T14:11:09.998Z</time></trkpt><trkpt lat="44.72882392277925" lon="9.562280980362331"><ele>806.0</ele><time>2026-05-03T14:11:10.998Z</time></trkpt><trkpt lat="44.728896864538775" lon="9.562400042729973"><ele>806.0</ele><time>2026-05-03T14:11:11.998Z</time></trkpt><trkpt lat="44.72896205471189" lon="9.562530163914461"><ele>806.0</ele><time>2026-05-03T14:11:12.998Z</time></trkpt><trkpt lat="44.72898610397066" lon="9.562658145557757"><ele>806.0</ele><time>2026-05-03T14:11:13.998Z</time></trkpt><trkpt lat="44.72897787088371" lon="9.562799647910747"><ele>806.0</ele><time>2026-05-03T14:11:14.998Z</time></trkpt><trkpt lat="44.72892408951192" lon="9.562938683129435"><ele>806.0</ele><time>2026-05-03T14:11:15.998Z</time></trkpt><trkpt lat="44.72882596621312" lon="9.563057090222712"><ele>806.0</ele><time>2026-05-03T14:11:16.998Z</time></trkpt><trkpt lat="44.72867892312064" lon="9.563139863389843"><ele>804.25</ele><time>2026-05-03T14:11:17.998Z</time></trkpt><trkpt lat="44.72856282115475" lon="9.563206313528708"><ele>802.5</ele><time>2026-05-03T14:11:18.998Z</time></trkpt><trkpt lat="44.728447098528896" lon="9.563262240879748"><ele>800.75</ele><time>2026-05-03T14:11:19.998Z</time></trkpt><trkpt lat="44.728340890025926" lon="9.563332733268032"><ele>799.0</ele><time>2026-05-03T14:11:20.998Z</time></trkpt><trkpt lat="44.728252287114024" lon="9.563440210405151"><ele>795.0</ele><time>2026-05-03T14:11:21.998Z</time></trkpt><trkpt lat="44.72818431136002" lon="9.563575754676755"><ele>791.0</ele><time>2026-05-03T14:11:22.998Z</time></trkpt><trkpt lat="44.72814143656591" lon="9.563723528066975"><ele>787.0</ele><time>2026-05-03T14:11:23.998Z</time></trkpt><trkpt lat="44.728143019647945" lon="9.563885376268567"><ele>783.0</ele><time>2026-05-03T14:11:25Z</time></trkpt><trkpt lat="44.72818196452848" lon="9.564036984915916"><ele>783.0</ele><time>2026-05-03T14:11:26Z</time></trkpt><trkpt lat="44.72825074612467" lon="9.564174447423106"><ele>783.0</ele><time>2026-05-03T14:11:27Z</time></trkpt><trkpt lat="44.72833444281988" lon="9.564316604062022"><ele>783.0</ele><time>2026-05-03T14:11:28Z</time></trkpt><trkpt lat="44.72841320482993" lon="9.564459253224"><ele>783.0</ele><time>2026-05-03T14:11:29Z</time></trkpt><trkpt lat="44.7284660235932" lon="9.564618446346762"><ele>783.5</ele><time>2026-05-03T14:11:30Z</time></trkpt><trkpt lat="44.72847904806404" lon="9.564799610425927"><ele>784.0</ele><time>2026-05-03T14:11:31Z</time></trkpt><trkpt lat="44.72845637194758" lon="9.565005718342517"><ele>784.5</ele><time>2026-05-03T14:11:32Z</time></trkpt><trkpt lat="44.728414232989664" lon="9.565211520802599"><ele>785.0</ele><time>2026-05-03T14:11:33Z</time></trkpt><trkpt lat="44.72835011733582" lon="9.56539821328014"><ele>785.0</ele><time>2026-05-03T14:11:34Z</time></trkpt><trkpt lat="44.72825773489248" lon="9.565555065856797"><ele>785.0</ele><time>2026-05-03T14:11:35Z</time></trkpt><trkpt lat="44.72816865299677" lon="9.56568672075306"><ele>785.0</ele><time>2026-05-03T14:11:36Z</time></trkpt><trkpt lat="44.728079033652776" lon="9.565796802581207"><ele>785.0</ele><time>2026-05-03T14:11:37Z</time></trkpt><trkpt lat="44.727977801255044" lon="9.565888252052284"><ele>785.0</ele><time>2026-05-03T14:11:38Z</time></trkpt><trkpt lat="44.72786958155936" lon="9.565953545206172"><ele>785.0</ele><time>2026-05-03T14:11:39Z</time></trkpt><trkpt lat="44.72777091676558" lon="9.566022750162151"><ele>785.0</ele><time>2026-05-03T14:11:40Z</time></trkpt><trkpt lat="44.72768340847866" lon="9.566121785642578"><ele>785.0</ele><time>2026-05-03T14:11:41Z</time></trkpt><trkpt lat="44.72761671376711" lon="9.566246850199828"><ele>782.5000000000001</ele><time>2026-05-03T14:11:42Z</time></trkpt><trkpt lat="44.72755966747748" lon="9.566377228664404"><ele>780.0</ele><time>2026-05-03T14:11:43Z</time></trkpt><trkpt lat="44.7275045488415" lon="9.566493837214875"><ele>777.5</ele><time>2026-05-03T14:11:44Z</time></trkpt><trkpt lat="44.72745604666152" lon="9.566606551241835"><ele>775.0</ele><time>2026-05-03T14:11:45Z</time></trkpt><trkpt lat="44.72741785028504" lon="9.566702073055756"><ele>772.5000000000001</ele><time>2026-05-03T14:11:46Z</time></trkpt><trkpt lat="44.72738131406791" lon="9.566782570340001"><ele>770.0</ele><time>2026-05-03T14:11:47Z</time></trkpt><trkpt lat="44.727289004016384" lon="9.566808685217433"><ele>770.0</ele><time>2026-05-03T14:11:49Z</time></trkpt><trkpt lat="44.72725146482234" lon="9.566735395703411"><ele>770.0</ele><time>2026-05-03T14:11:50Z</time></trkpt><trkpt lat="44.72723884390156" lon="9.566602819576149"><ele>770.0</ele><time>2026-05-03T14:11:51Z</time></trkpt><trkpt lat="44.72726540526716" lon="9.566456648883543"><ele>770.0</ele><time>2026-05-03T14:11:52Z</time></trkpt><trkpt lat="44.72731223904137" lon="9.566290458238548"><ele>770.0</ele><time>2026-05-03T14:11:53Z</time></trkpt><trkpt lat="44.72736072006608" lon="9.566123299487087"><ele>769.0</ele><time>2026-05-03T14:11:54Z</time></trkpt><trkpt lat="44.727408755068645" lon="9.56597471363965"><ele>768.0</ele><time>2026-05-03T14:11:55Z</time></trkpt><trkpt lat="44.72745952631125" lon="9.565846108964708"><ele>767.0</ele><time>2026-05-03T14:11:56Z</time></trkpt><trkpt lat="44.72751314147065" lon="9.56573610011159"><ele>766.0</ele><time>2026-05-03T14:11:57Z</time></trkpt><trkpt lat="44.727563149952644" lon="9.565632335050049"><ele>765.0</ele><time>2026-05-03T14:11:58Z</time></trkpt><trkpt lat="44.72760470216992" lon="9.56552851605401"><ele>765.0</ele><time>2026-05-03T14:11:59Z</time></trkpt><trkpt lat="44.72762195179576" lon="9.565420803178975"><ele>765.0</ele><time>2026-05-03T14:12:00Z</time></trkpt><trkpt lat="44.72761012431466" lon="9.565304377094613"><ele>765.0</ele><time>2026-05-03T14:12:01Z</time></trkpt><trkpt lat="44.7275677233396" lon="9.565191408159698"><ele>765.0</ele><time>2026-05-03T14:12:02Z</time></trkpt><trkpt lat="44.72751731628974" lon="9.565089186852086"><ele>765.0</ele><time>2026-05-03T14:12:03Z</time></trkpt><trkpt lat="44.72747278035133" lon="9.564993047231457"><ele>765.0</ele><time>2026-05-03T14:12:04Z</time></trkpt><trkpt lat="44.72744407542129" lon="9.564882235037642"><ele>763.8333333333334</ele><time>2026-05-03T14:12:05Z</time></trkpt><trkpt lat="44.727430156036306" lon="9.564763756313363"><ele>762.6666666666666</ele><time>2026-05-03T14:12:06Z</time></trkpt><trkpt lat="44.72742188761838" lon="9.564647658534403"><ele>761.5</ele><time>2026-05-03T14:12:07Z</time></trkpt><trkpt lat="44.72739413927048" lon="9.564553171567715"><ele>760.3333333333333</ele><time>2026-05-03T14:12:07.999Z</time></trkpt><trkpt lat="44.72732425093385" lon="9.564491395796097"><ele>759.1666666666666</ele><time>2026-05-03T14:12:08.999Z</time></trkpt><trkpt lat="44.72722767865004" lon="9.564491582042269"><ele>758.0</ele><time>2026-05-03T14:12:09.999Z</time></trkpt><trkpt lat="44.7271274556312" lon="9.564556732830319"><ele>758.0</ele><time>2026-05-03T14:12:10.999Z</time></trkpt><trkpt lat="44.72703992596502" lon="9.56467391861528"><ele>758.0</ele><time>2026-05-03T14:12:11.999Z</time></trkpt><trkpt lat="44.72698118872122" lon="9.56482357196679"><ele>758.0</ele><time>2026-05-03T14:12:12.999Z</time></trkpt><trkpt lat="44.72695728994115" lon="9.56499545127612"><ele>758.0</ele><time>2026-05-03T14:12:13.999Z</time></trkpt><trkpt lat="44.72695467309479" lon="9.565185426981069"><ele>759.75</ele><time>2026-05-03T14:12:14.999Z</time></trkpt><trkpt lat="44.726952750265646" lon="9.565366941732103"><ele>761.5</ele><time>2026-05-03T14:12:15.999Z</time></trkpt><trkpt lat="44.726949378846165" lon="9.565533503943842"><ele>763.25</ele><time>2026-05-03T14:12:16.999Z</time></trkpt><trkpt lat="44.726942847324835" lon="9.565682100488152"><ele>765.0</ele><time>2026-05-03T14:12:17.999Z</time></trkpt><trkpt lat="44.7269157227263" lon="9.565823092136046"><ele>761.4</ele><time>2026-05-03T14:12:18.999Z</time></trkpt><trkpt lat="44.726860885030966" lon="9.565952983069105"><ele>757.8</ele><time>2026-05-03T14:12:19.999Z</time></trkpt><trkpt lat="44.72677871032615" lon="9.566050846141268"><ele>754.2</ele><time>2026-05-03T14:12:20.999Z</time></trkpt><trkpt lat="44.726686170301186" lon="9.566127187072505"><ele>750.6</ele><time>2026-05-03T14:12:21.999Z</time></trkpt><trkpt lat="44.72660371395971" lon="9.566217230764561"><ele>747.0</ele><time>2026-05-03T14:12:22.999Z</time></trkpt><trkpt lat="44.72654149383728" lon="9.566333886017487"><ele>747.0</ele><time>2026-05-03T14:12:23.999Z</time></trkpt><trkpt lat="44.726501963847724" lon="9.56647192860386"><ele>747.0</ele><time>2026-05-03T14:12:24.999Z</time></trkpt><trkpt lat="44.72647186885294" lon="9.566609583586196"><ele>747.0</ele><time>2026-05-03T14:12:25.999Z</time></trkpt><trkpt lat="44.72643895611639" lon="9.566741281835375"><ele>747.0</ele><time>2026-05-03T14:12:26.999Z</time></trkpt><trkpt lat="44.72639790894988" lon="9.56686437140374"><ele>747.0</ele><time>2026-05-03T14:12:27.999Z</time></trkpt><trkpt lat="44.726347412455404" lon="9.566978622342491"><ele>749.0</ele><time>2026-05-03T14:12:28.999Z</time></trkpt><trkpt lat="44.72628961624802" lon="9.567084122969725"><ele>751.0</ele><time>2026-05-03T14:12:29.999Z</time></trkpt><trkpt lat="44.72622813713368" lon="9.567181626047493"><ele>753.0</ele><time>2026-05-03T14:12:30.999Z</time></trkpt><trkpt lat="44.72614988426689" lon="9.567256558145274"><ele>755.0</ele><time>2026-05-03T14:12:31.999Z</time></trkpt><trkpt lat="44.726072915981355" lon="9.567328550900914"><ele>757.0</ele><time>2026-05-03T14:12:32.999Z</time></trkpt><trkpt lat="44.725999218069504" lon="9.567407940238756"><ele>752.8333333333334</ele><time>2026-05-03T14:12:33.999Z</time></trkpt><trkpt lat="44.72593535356959" lon="9.567501673492837"><ele>748.6666666666667</ele><time>2026-05-03T14:12:34.999Z</time></trkpt><trkpt lat="44.72588114964681" lon="9.567603959810482"><ele>744.5</ele><time>2026-05-03T14:12:35.999Z</time></trkpt><trkpt lat="44.72584359061826" lon="9.567702620041532"><ele>740.3333333333334</ele><time>2026-05-03T14:12:36.999Z</time></trkpt><trkpt lat="44.72579172814104" lon="9.567767860275488"><ele>736.1666666666666</ele><time>2026-05-03T14:12:37.999Z</time></trkpt><trkpt lat="44.72568925375281" lon="9.56771757463265"><ele>732.0</ele><time>2026-05-03T14:12:39.999Z</time></trkpt><trkpt lat="44.72567181165031" lon="9.567609879647314"><ele>732.0</ele><time>2026-05-03T14:12:40.999Z</time></trkpt><trkpt lat="44.72570437700855" lon="9.567488723461848"><ele>732.0</ele><time>2026-05-03T14:12:41.999Z</time></trkpt><trkpt lat="44.725746031400696" lon="9.56736586101428"><ele>732.0</ele><time>2026-05-03T14:12:42.999Z</time></trkpt><trkpt lat="44.72578480053407" lon="9.567229721251026"><ele>732.0</ele><time>2026-05-03T14:12:43.999Z</time></trkpt><trkpt lat="44.72581946044731" lon="9.567089822467716"><ele>732.0</ele><time>2026-05-03T14:12:44.999Z</time></trkpt><trkpt lat="44.72585318675164" lon="9.56695466927067"><ele>730.0</ele><time>2026-05-03T14:12:45.999Z</time></trkpt><trkpt lat="44.72588687556535" lon="9.566824148281237"><ele>728.0</ele><time>2026-05-03T14:12:46.999Z</time></trkpt><trkpt lat="44.725914146802715" lon="9.566693870459801"><ele>726.0</ele><time>2026-05-03T14:12:47.999Z</time></trkpt><trkpt lat="44.72593351388107" lon="9.566559940653226"><ele>724.0</ele><time>2026-05-03T14:12:48.999Z</time></trkpt><trkpt lat="44.72593648220091" lon="9.566426426524414"><ele>722.0</ele><time>2026-05-03T14:12:49.999Z</time></trkpt><trkpt lat="44.72591428706175" lon="9.566295105292586"><ele>721.2</ele><time>2026-05-03T14:12:50.999Z</time></trkpt><trkpt lat="44.72587615530991" lon="9.566171531251694"><ele>720.4000000000001</ele><time>2026-05-03T14:12:51.999Z</time></trkpt><trkpt lat="44.725841840472356" lon="9.566048410028626"><ele>719.5999999999999</ele><time>2026-05-03T14:12:52.999Z</time></trkpt><trkpt lat="44.7258208869113" lon="9.565924663140601"><ele>718.8</ele><time>2026-05-03T14:12:53.999Z</time></trkpt><trkpt lat="44.725802716355375" lon="9.565795366812866"><ele>718.0</ele><time>2026-05-03T14:12:54.999Z</time></trkpt><trkpt lat="44.72577273961482" lon="9.565672455397799"><ele>718.0</ele><time>2026-05-03T14:12:55.999Z</time></trkpt><trkpt lat="44.72572166538346" lon="9.565562901602432"><ele>718.0</ele><time>2026-05-03T14:12:56.999Z</time></trkpt><trkpt lat="44.725657482526394" lon="9.565469175815908"><ele>718.0</ele><time>2026-05-03T14:12:57.999Z</time></trkpt><trkpt lat="44.72559905886102" lon="9.56537132354119"><ele>718.0</ele><time>2026-05-03T14:12:58.999Z</time></trkpt><trkpt lat="44.7255574536509" lon="9.565254706344732"><ele>718.0</ele><time>2026-05-03T14:12:59.999Z</time></trkpt><trkpt lat="44.72553777334907" lon="9.565121781520553"><ele>718.5</ele><time>2026-05-03T14:13:00.999Z</time></trkpt><trkpt lat="44.72553186337476" lon="9.564999181966009"><ele>719.0</ele><time>2026-05-03T14:13:01.999Z</time></trkpt><trkpt lat="44.72552309566908" lon="9.56487945327452"><ele>719.5</ele><time>2026-05-03T14:13:02.999Z</time></trkpt><trkpt lat="44.72551264960603" lon="9.564756969795319"><ele>720.0</ele><time>2026-05-03T14:13:03.999Z</time></trkpt><trkpt lat="44.72549873182587" lon="9.564633708896404"><ele>720.5</ele><time>2026-05-03T14:13:04.998Z</time></trkpt><trkpt lat="44.725476853005596" lon="9.564517125519965"><ele>721.0</ele><time>2026-05-03T14:13:05.998Z</time></trkpt><trkpt lat="44.72544846970726" lon="9.564397135966594"><ele>721.5999999999999</ele><time>2026-05-03T14:13:06.998Z</time></trkpt><trkpt lat="44.72540850171136" lon="9.564283713894753"><ele>722.2</ele><time>2026-05-03T14:13:07.998Z</time></trkpt><trkpt lat="44.72536574893097" lon="9.564171940100056"><ele>722.8</ele><time>2026-05-03T14:13:08.998Z</time></trkpt><trkpt lat="44.72531416281727" lon="9.564058972400812"><ele>723.4000000000001</ele><time>2026-05-03T14:13:09.998Z</time></trkpt><trkpt lat="44.725257445726754" lon="9.56394999862417"><ele>724.0</ele><time>2026-05-03T14:13:10.998Z</time></trkpt><trkpt lat="44.725197572164404" lon="9.56384928311371"><ele>722.1666666666667</ele><time>2026-05-03T14:13:11.998Z</time></trkpt><trkpt lat="44.72513197270873" lon="9.56376723990955"><ele>720.3333333333334</ele><time>2026-05-03T14:13:12.998Z</time></trkpt><trkpt lat="44.725057478637275" lon="9.563696520889616"><ele>718.5</ele><time>2026-05-03T14:13:13.998Z</time></trkpt><trkpt lat="44.72498019090282" lon="9.56363631810445"><ele>716.6666666666666</ele><time>2026-05-03T14:13:14.998Z</time></trkpt><trkpt lat="44.72490080615676" lon="9.563579923617974"><ele>714.8333333333333</ele><time>2026-05-03T14:13:15.998Z</time></trkpt><trkpt lat="44.7248229638506" lon="9.563523230998163"><ele>713.0</ele><time>2026-05-03T14:13:16.998Z</time></trkpt><trkpt lat="44.72474374885024" lon="9.56346693029559"><ele>713.0</ele><time>2026-05-03T14:13:17.998Z</time></trkpt><trkpt lat="44.72466021959305" lon="9.563435533080739"><ele>713.0</ele><time>2026-05-03T14:13:18.998Z</time></trkpt><trkpt lat="44.72457545630887" lon="9.563440118277594"><ele>713.0</ele><time>2026-05-03T14:13:19.998Z</time></trkpt><trkpt lat="44.724494656267304" lon="9.563472119611083"><ele>713.0</ele><time>2026-05-03T14:13:20.998Z</time></trkpt><trkpt lat="44.72441355449946" lon="9.563516578029779"><ele>713.0</ele><time>2026-05-03T14:13:21.998Z</time></trkpt><trkpt lat="44.72432916882477" lon="9.56355821453253"><ele>713.0</ele><time>2026-05-03T14:13:22.998Z</time></trkpt><trkpt lat="44.72423820443748" lon="9.563560999122894"><ele>710.4</ele><time>2026-05-03T14:13:23.998Z</time></trkpt><trkpt lat="44.724150792205144" lon="9.56353203159336"><ele>707.8</ele><time>2026-05-03T14:13:24.998Z</time></trkpt><trkpt lat="44.724070338227094" lon="9.563468810523945"><ele>705.2</ele><time>2026-05-03T14:13:25.998Z</time></trkpt><trkpt lat="44.72399004481319" lon="9.563397477538553"><ele>702.6</ele><time>2026-05-03T14:13:26.998Z</time></trkpt><trkpt lat="44.7239039065529" lon="9.563332027447673"><ele>700.0</ele><time>2026-05-03T14:13:27.998Z</time></trkpt><trkpt lat="44.72381007346024" lon="9.563275968840696"><ele>700.0</ele><time>2026-05-03T14:13:28.998Z</time></trkpt><trkpt lat="44.72371473856565" lon="9.563206485051172"><ele>700.0</ele><time>2026-05-03T14:13:29.998Z</time></trkpt><trkpt lat="44.723627767395065" lon="9.563119232600801"><ele>700.0</ele><time>2026-05-03T14:13:31Z</time></trkpt><trkpt lat="44.72354834628827" lon="9.56302167226589"><ele>700.0</ele><time>2026-05-03T14:13:32Z</time></trkpt><trkpt lat="44.72346976132003" lon="9.562931180747952"><ele>700.0</ele><time>2026-05-03T14:13:33Z</time></trkpt><trkpt lat="44.72339273339042" lon="9.562854855738484"><ele>700.6666666666667</ele><time>2026-05-03T14:13:34Z</time></trkpt><trkpt lat="44.72332786852755" lon="9.562803720165737"><ele>701.3333333333334</ele><time>2026-05-03T14:13:35Z</time></trkpt><trkpt lat="44.72326463838554" lon="9.56277654687013"><ele>702.0</ele><time>2026-05-03T14:13:36Z</time></trkpt><trkpt lat="44.723163227424145" lon="9.56284922267933"><ele>702.6666666666666</ele><time>2026-05-03T14:13:38Z</time></trkpt><trkpt lat="44.7231588719686" lon="9.562938229862782"><ele>703.3333333333333</ele><time>2026-05-03T14:13:39Z</time></trkpt><trkpt lat="44.72319547459918" lon="9.563010727851623"><ele>704.0</ele><time>2026-05-03T14:13:40Z</time></trkpt><trkpt lat="44.72327016171117" lon="9.563069240598589"><ele>703.2</ele><time>2026-05-03T14:13:41Z</time></trkpt><trkpt lat="44.72335574660709" lon="9.563136407891395"><ele>702.4000000000001</ele><time>2026-05-03T14:13:42Z</time></trkpt><trkpt lat="44.72343750846736" lon="9.563219065876734"><ele>701.6</ele><time>2026-05-03T14:13:43Z</time></trkpt><trkpt lat="44.723509959241134" lon="9.563315283036724"><ele>700.8</ele><time>2026-05-03T14:13:44Z</time></trkpt><trkpt lat="44.72357480989835" lon="9.563424577084684"><ele>700.0</ele><time>2026-05-03T14:13:45Z</time></trkpt><trkpt lat="44.723627313496124" lon="9.563544372907623"><ele>700.0</ele><time>2026-05-03T14:13:46Z</time></trkpt><trkpt lat="44.72368809760078" lon="9.56364974800385"><ele>700.0</ele><time>2026-05-03T14:13:47Z</time></trkpt><trkpt lat="44.72377032594454" lon="9.563700678960855"><ele>700.0</ele><time>2026-05-03T14:13:48Z</time></trkpt><trkpt lat="44.72384045026642" lon="9.563712561727039"><ele>700.0</ele><time>2026-05-03T14:13:49Z</time></trkpt><trkpt lat="44.723884994443964" lon="9.56380201269541"><ele>700.0</ele><time>2026-05-03T14:13:51Z</time></trkpt><trkpt lat="44.723797982469414" lon="9.563906032622285"><ele>700.0</ele><time>2026-05-03T14:13:53Z</time></trkpt><trkpt lat="44.723721103336544" lon="9.563889608455076"><ele>695.6</ele><time>2026-05-03T14:13:54Z</time></trkpt><trkpt lat="44.72363211634674" lon="9.563830250430861"><ele>691.2</ele><time>2026-05-03T14:13:55Z</time></trkpt><trkpt lat="44.72354772380558" lon="9.563759230116267"><ele>686.8</ele><time>2026-05-03T14:13:56Z</time></trkpt><trkpt lat="44.72345910034179" lon="9.563686780207716"><ele>682.4</ele><time>2026-05-03T14:13:57Z</time></trkpt><trkpt lat="44.72338551594219" lon="9.563598623025166"><ele>678.0</ele><time>2026-05-03T14:13:58Z</time></trkpt><trkpt lat="44.723320370369045" lon="9.563502285638508"><ele>678.0</ele><time>2026-05-03T14:13:59Z</time></trkpt><trkpt lat="44.723258354987415" lon="9.563411833417987"><ele>678.0</ele><time>2026-05-03T14:14:00Z</time></trkpt><trkpt lat="44.72319211169584" lon="9.563337839382159"><ele>678.0</ele><time>2026-05-03T14:14:01Z</time></trkpt><trkpt lat="44.72312483520543" lon="9.56327755218594"><ele>678.0</ele><time>2026-05-03T14:14:02Z</time></trkpt><trkpt lat="44.723053462975805" lon="9.563218135611722"><ele>678.0</ele><time>2026-05-03T14:14:03Z</time></trkpt><trkpt lat="44.72298216360806" lon="9.563155767083508"><ele>678.0</ele><time>2026-05-03T14:14:04Z</time></trkpt><trkpt lat="44.72291359898501" lon="9.563087097989483"><ele>678.0</ele><time>2026-05-03T14:14:05Z</time></trkpt><trkpt lat="44.72284282646792" lon="9.563019058912905"><ele>678.0</ele><time>2026-05-03T14:14:06Z</time></trkpt><trkpt lat="44.72277190057536" lon="9.562957846397033"><ele>678.0</ele><time>2026-05-03T14:14:07Z</time></trkpt><trkpt lat="44.7226998518851" lon="9.562894571960179"><ele>678.0</ele><time>2026-05-03T14:14:08Z</time></trkpt><trkpt lat="44.72262953969932" lon="9.562828300005597"><ele>678.0</ele><time>2026-05-03T14:14:09Z</time></trkpt><trkpt lat="44.72255666425339" lon="9.562761103585228"><ele>678.0</ele><time>2026-05-03T14:14:10Z</time></trkpt><trkpt lat="44.72247539577094" lon="9.562712646279314"><ele>677.2</ele><time>2026-05-03T14:14:11Z</time></trkpt><trkpt lat="44.72238083370538" lon="9.562696903949531"><ele>676.4</ele><time>2026-05-03T14:14:12Z</time></trkpt><trkpt lat="44.72228085557918" lon="9.562719851157249"><ele>675.6</ele><time>2026-05-03T14:14:13Z</time></trkpt><trkpt lat="44.722188129479235" lon="9.562736109785988"><ele>674.8000000000001</ele><time>2026-05-03T14:14:14Z</time></trkpt><trkpt lat="44.72209414504103" lon="9.562727611977952"><ele>674.0</ele><time>2026-05-03T14:14:14.999Z</time></trkpt><trkpt lat="44.72200437208493" lon="9.562691866839527"><ele>674.0</ele><time>2026-05-03T14:14:15.999Z</time></trkpt><trkpt lat="44.721914257731896" lon="9.562630666726031"><ele>674.0</ele><time>2026-05-03T14:14:16.999Z</time></trkpt><trkpt lat="44.721827173008435" lon="9.562560549480176"><ele>674.0</ele><time>2026-05-03T14:14:17.999Z</time></trkpt><trkpt lat="44.72174469600997" lon="9.562482320029714"><ele>674.0</ele><time>2026-05-03T14:14:18.999Z</time></trkpt><trkpt lat="44.7216759565879" lon="9.562409270614047"><ele>674.0</ele><time>2026-05-03T14:14:19.999Z</time></trkpt><trkpt lat="44.721613695303596" lon="9.562348846789344"><ele>669.0</ele><time>2026-05-03T14:14:20.999Z</time></trkpt><trkpt lat="44.72148528820744" lon="9.562335966383973"><ele>664.0</ele><time>2026-05-03T14:14:22.999Z</time></trkpt><trkpt lat="44.7214275877103" lon="9.562429596912855"><ele>659.0</ele><time>2026-05-03T14:14:23.999Z</time></trkpt><trkpt lat="44.721401908083685" lon="9.562549931308935"><ele>654.0</ele><time>2026-05-03T14:14:24.999Z</time></trkpt><trkpt lat="44.72136147078125" lon="9.562667835181403"><ele>649.0</ele><time>2026-05-03T14:14:25.999Z</time></trkpt><trkpt lat="44.72128248472469" lon="9.562780089486823"><ele>647.4000000000001</ele><time>2026-05-03T14:14:26.999Z</time></trkpt><trkpt lat="44.72118391632748" lon="9.562875934361339"><ele>645.8</ele><time>2026-05-03T14:14:27.999Z</time></trkpt><trkpt lat="44.721102996856494" lon="9.562955645039324"><ele>644.2</ele><time>2026-05-03T14:14:28.999Z</time></trkpt><trkpt lat="44.72103895128574" lon="9.562999561448805"><ele>642.5999999999999</ele><time>2026-05-03T14:14:29.999Z</time></trkpt><trkpt lat="44.720961023932894" lon="9.563001467194592"><ele>641.0</ele><time>2026-05-03T14:14:30.999Z</time></trkpt><trkpt lat="44.720890371550645" lon="9.562942692073511"><ele>640.8333333333333</ele><time>2026-05-03T14:14:31.999Z</time></trkpt><trkpt lat="44.72085144183458" lon="9.562837800278418"><ele>640.6666666666666</ele><time>2026-05-03T14:14:32.999Z</time></trkpt><trkpt lat="44.720846672399304" lon="9.562709531468183"><ele>640.5</ele><time>2026-05-03T14:14:33.999Z</time></trkpt><trkpt lat="44.720840938622736" lon="9.562577168633073"><ele>640.3333333333334</ele><time>2026-05-03T14:14:34.999Z</time></trkpt><trkpt lat="44.7208393995846" lon="9.562451126209648"><ele>640.1666666666667</ele><time>2026-05-03T14:14:35.999Z</time></trkpt><trkpt lat="44.720855066421336" lon="9.562328264751235"><ele>640.0</ele><time>2026-05-03T14:14:36.999Z</time></trkpt><trkpt lat="44.72089489710077" lon="9.562199483696887"><ele>640.0</ele><time>2026-05-03T14:14:37.999Z</time></trkpt><trkpt lat="44.7209433715729" lon="9.562079035868287"><ele>640.0</ele><time>2026-05-03T14:14:38.999Z</time></trkpt><trkpt lat="44.720983450212096" lon="9.561965126484052"><ele>640.0</ele><time>2026-05-03T14:14:39.999Z</time></trkpt><trkpt lat="44.721016663186475" lon="9.561852752764047"><ele>640.0</ele><time>2026-05-03T14:14:40.999Z</time></trkpt><trkpt lat="44.72104603166807" lon="9.561750781341786"><ele>640.0</ele><time>2026-05-03T14:14:41.999Z</time></trkpt><trkpt lat="44.72107152639619" lon="9.561645531449075"><ele>640.0</ele><time>2026-05-03T14:14:42.999Z</time></trkpt><trkpt lat="44.72107747060625" lon="9.561537022356708"><ele>639.4</ele><time>2026-05-03T14:14:43.999Z</time></trkpt><trkpt lat="44.721060429137715" lon="9.561414227003143"><ele>638.8</ele><time>2026-05-03T14:14:44.999Z</time></trkpt><trkpt lat="44.72101648555316" lon="9.561284858847477"><ele>638.2</ele><time>2026-05-03T14:14:45.999Z</time></trkpt><trkpt lat="44.720963260667254" lon="9.56117283471362"><ele>637.6</ele><time>2026-05-03T14:14:46.999Z</time></trkpt><trkpt lat="44.720916820321555" lon="9.56106319743918"><ele>637.0</ele><time>2026-05-03T14:14:47.999Z</time></trkpt><trkpt lat="44.72087250824757" lon="9.560959500718072"><ele>638.8333333333334</ele><time>2026-05-03T14:14:48.999Z</time></trkpt><trkpt lat="44.720823926561046" lon="9.560863436284379"><ele>640.6666666666667</ele><time>2026-05-03T14:14:49.999Z</time></trkpt><trkpt lat="44.720774046211616" lon="9.560775119539711"><ele>642.5</ele><time>2026-05-03T14:14:50.999Z</time></trkpt><trkpt lat="44.720712180408405" lon="9.560704979237842"><ele>644.3333333333334</ele><time>2026-05-03T14:14:51.999Z</time></trkpt><trkpt lat="44.720644792840694" lon="9.560649228496137"><ele>646.1666666666666</ele><time>2026-05-03T14:14:52.999Z</time></trkpt><trkpt lat="44.72057503405402" lon="9.560609976817975"><ele>648.0</ele><time>2026-05-03T14:14:53.999Z</time></trkpt><trkpt lat="44.72050964848812" lon="9.56059387841758"><ele>648.0</ele><time>2026-05-03T14:14:54.999Z</time></trkpt><trkpt lat="44.720444872547326" lon="9.560597179650266"><ele>648.0</ele><time>2026-05-03T14:14:55.999Z</time></trkpt><trkpt lat="44.72038002436604" lon="9.560603851227643"><ele>648.0</ele><time>2026-05-03T14:14:56.999Z</time></trkpt><trkpt lat="44.720313856824916" lon="9.560604545459812"><ele>648.0</ele><time>2026-05-03T14:14:57.999Z</time></trkpt><trkpt lat="44.72024895243258" lon="9.560591568039927"><ele>648.0</ele><time>2026-05-03T14:14:58.999Z</time></trkpt><trkpt lat="44.72019112925764" lon="9.56054985584346"><ele>648.0</ele><time>2026-05-03T14:14:59.999Z</time></trkpt><trkpt lat="44.72014840608296" lon="9.560471445988656"><ele>648.0</ele><time>2026-05-03T14:15:00.999Z</time></trkpt><trkpt lat="44.72012488251852" lon="9.560371497884324"><ele>644.3333333333334</ele><time>2026-05-03T14:15:01.999Z</time></trkpt><trkpt lat="44.720105562545115" lon="9.560271954493864"><ele>640.6666666666666</ele><time>2026-05-03T14:15:02.999Z</time></trkpt><trkpt lat="44.72007051366603" lon="9.560182449121259"><ele>637.0</ele><time>2026-05-03T14:15:03.999Z</time></trkpt><trkpt lat="44.72001444182312" lon="9.56011300146903"><ele>633.3333333333333</ele><time>2026-05-03T14:15:04.999Z</time></trkpt><trkpt lat="44.7199377469972" lon="9.560081988377734"><ele>629.6666666666666</ele><time>2026-05-03T14:15:05.999Z</time></trkpt><trkpt lat="44.71984166111539" lon="9.56010948221419"><ele>626.0</ele><time>2026-05-03T14:15:06.999Z</time></trkpt><trkpt lat="44.71975927977173" lon="9.560183066563948"><ele>626.0</ele><time>2026-05-03T14:15:07.999Z</time></trkpt><trkpt lat="44.719694924682194" lon="9.560235203046417"><ele>626.0</ele><time>2026-05-03T14:15:08.999Z</time></trkpt><trkpt lat="44.7196139236697" lon="9.560220073704254"><ele>626.0</ele><time>2026-05-03T14:15:09.999Z</time></trkpt><trkpt lat="44.71956687213608" lon="9.560151741544413"><ele>626.0</ele><time>2026-05-03T14:15:10.999Z</time></trkpt><trkpt lat="44.719569200402155" lon="9.560049122610302"><ele>626.0</ele><time>2026-05-03T14:15:11.999Z</time></trkpt><trkpt lat="44.71961484565957" lon="9.559952382439668"><ele>626.0</ele><time>2026-05-03T14:15:12.999Z</time></trkpt><trkpt lat="44.71968967424549" lon="9.559867142030921"><ele>626.0</ele><time>2026-05-03T14:15:13.998Z</time></trkpt><trkpt lat="44.71974573064164" lon="9.5597684307873"><ele>626.0</ele><time>2026-05-03T14:15:14.998Z</time></trkpt><trkpt lat="44.71976137008314" lon="9.55964408615759"><ele>626.0</ele><time>2026-05-03T14:15:15.998Z</time></trkpt><trkpt lat="44.71975091001328" lon="9.559514436333835"><ele>626.0</ele><time>2026-05-03T14:15:16.998Z</time></trkpt><trkpt lat="44.719724823546976" lon="9.559390009943291"><ele>626.0</ele><time>2026-05-03T14:15:17.998Z</time></trkpt><trkpt lat="44.71967994741664" lon="9.559292750112727"><ele>626.0</ele><time>2026-05-03T14:15:18.998Z</time></trkpt><trkpt lat="44.71960951468167" lon="9.55922638150007"><ele>627.0</ele><time>2026-05-03T14:15:19.998Z</time></trkpt><trkpt lat="44.71952300795628" lon="9.559208698131838"><ele>628.0</ele><time>2026-05-03T14:15:20.998Z</time></trkpt><trkpt lat="44.71943325152577" lon="9.559215167506231"><ele>629.0</ele><time>2026-05-03T14:15:21.998Z</time></trkpt><trkpt lat="44.719346706306425" lon="9.55926420368864"><ele>630.0</ele><time>2026-05-03T14:15:22.998Z</time></trkpt><trkpt lat="44.719271616659164" lon="9.559363303279387"><ele>631.0</ele><time>2026-05-03T14:15:23.998Z</time></trkpt><trkpt lat="44.71921576400608" lon="9.559468140466056"><ele>627.2</ele><time>2026-05-03T14:15:24.998Z</time></trkpt><trkpt lat="44.71917147129013" lon="9.559556092146053"><ele>623.4000000000001</ele><time>2026-05-03T14:15:25.998Z</time></trkpt><trkpt lat="44.71910738910166" lon="9.559676915458107"><ele>619.6</ele><time>2026-05-03T14:15:27.998Z</time></trkpt><trkpt lat="44.71906583234452" lon="9.559800329871715"><ele>615.8000000000001</ele><time>2026-05-03T14:15:29.998Z</time></trkpt><trkpt lat="44.719020751875114" lon="9.559936361501842"><ele>612.0</ele><time>2026-05-03T14:15:31.998Z</time></trkpt><trkpt lat="44.718987119567245" lon="9.56007445890504"><ele>612.0</ele><time>2026-05-03T14:15:33.998Z</time></trkpt><trkpt lat="44.718962909130006" lon="9.560204435782797"><ele>612.0</ele><time>2026-05-03T14:15:35.998Z</time></trkpt><trkpt lat="44.71893581191923" lon="9.560350910879771"><ele>612.0</ele><time>2026-05-03T14:15:38Z</time></trkpt><trkpt lat="44.718918933313276" lon="9.560505292798998"><ele>612.0</ele><time>2026-05-03T14:15:40Z</time></trkpt><trkpt lat="44.71888502951082" lon="9.560664325268355"><ele>612.0</ele><time>2026-05-03T14:15:42Z</time></trkpt><trkpt lat="44.71885192620918" lon="9.560818000156129"><ele>612.75</ele><time>2026-05-03T14:15:44Z</time></trkpt><trkpt lat="44.71881551066102" lon="9.560965235706558"><ele>613.5</ele><time>2026-05-03T14:15:46Z</time></trkpt><trkpt lat="44.7187647561302" lon="9.561117086170189"><ele>614.25</ele><time>2026-05-03T14:15:48Z</time></trkpt><trkpt lat="44.718720103723776" lon="9.561273729084476"><ele>615.0</ele><time>2026-05-03T14:15:50Z</time></trkpt><trkpt lat="44.718739892529015" lon="9.561445530777014"><ele>615.0</ele><time>2026-05-03T14:15:52Z</time></trkpt><trkpt lat="44.718769156935366" lon="9.561535561801842"><ele>615.0</ele><time>2026-05-03T14:15:53Z</time></trkpt><trkpt lat="44.71878879772841" lon="9.561629142953898"><ele>615.0</ele><time>2026-05-03T14:15:54Z</time></trkpt><trkpt lat="44.71879330537465" lon="9.561735533311932"><ele>615.0</ele><time>2026-05-03T14:15:55Z</time></trkpt><trkpt lat="44.718784394843055" lon="9.561848820207732"><ele>615.0</ele><time>2026-05-03T14:15:56Z</time></trkpt><trkpt lat="44.71877130194238" lon="9.561956223561737"><ele>615.0</ele><time>2026-05-03T14:15:57Z</time></trkpt><trkpt lat="44.71875008143629" lon="9.562073271228227"><ele>615.0</ele><time>2026-05-03T14:15:58Z</time></trkpt><trkpt lat="44.718733320814266" lon="9.562178373774847"><ele>615.0</ele><time>2026-05-03T14:15:59Z</time></trkpt><trkpt lat="44.71873872492692" lon="9.562284990805516"><ele>615.0</ele><time>2026-05-03T14:16:00Z</time></trkpt><trkpt lat="44.7187407949344" lon="9.562399903348018"><ele>615.0</ele><time>2026-05-03T14:16:01Z</time></trkpt><trkpt lat="44.71876157552923" lon="9.562510355351225"><ele>615.0</ele><time>2026-05-03T14:16:02Z</time></trkpt><trkpt lat="44.718797146040465" lon="9.56260681592686"><ele>615.0</ele><time>2026-05-03T14:16:03Z</time></trkpt><trkpt lat="44.7188273496468" lon="9.562703744224446"><ele>615.0</ele><time>2026-05-03T14:16:04Z</time></trkpt><trkpt lat="44.71886008454638" lon="9.562798440049168"><ele>615.0</ele><time>2026-05-03T14:16:05Z</time></trkpt><trkpt lat="44.718893737514385" lon="9.562887018178031"><ele>615.0</ele><time>2026-05-03T14:16:06Z</time></trkpt><trkpt lat="44.718920465221395" lon="9.562970201812348"><ele>615.0</ele><time>2026-05-03T14:16:07Z</time></trkpt><trkpt lat="44.71895345971411" lon="9.563052187729983"><ele>615.0</ele><time>2026-05-03T14:16:08Z</time></trkpt><trkpt lat="44.719007278910155" lon="9.563110617293134"><ele>615.0</ele><time>2026-05-03T14:16:09Z</time></trkpt><trkpt lat="44.71906379040293" lon="9.563160521819784"><ele>615.0</ele><time>2026-05-03T14:16:10Z</time></trkpt><trkpt lat="44.71910681354138" lon="9.563297080796062"><ele>612.5</ele><time>2026-05-03T14:16:12Z</time></trkpt><trkpt lat="44.719017025021344" lon="9.563421450686695"><ele>610.0</ele><time>2026-05-03T14:16:14Z</time></trkpt><trkpt lat="44.7189425775819" lon="9.563411163619172"><ele>607.5</ele><time>2026-05-03T14:16:15Z</time></trkpt><trkpt lat="44.7188692296535" lon="9.563341636334435"><ele>605.0</ele><time>2026-05-03T14:16:16Z</time></trkpt><trkpt lat="44.71880896107366" lon="9.563258765390495"><ele>602.5</ele><time>2026-05-03T14:16:17Z</time></trkpt><trkpt lat="44.718765441111664" lon="9.563172634925346"><ele>600.0</ele><time>2026-05-03T14:16:17.999Z</time></trkpt><trkpt lat="44.718711508722194" lon="9.56304412972807"><ele>600.0</ele><time>2026-05-03T14:16:19.999Z</time></trkpt><trkpt lat="44.71862458754887" lon="9.562983077805821"><ele>600.0</ele><time>2026-05-03T14:16:21.999Z</time></trkpt><trkpt lat="44.718560065579304" lon="9.563012987520443"><ele>600.0</ele><time>2026-05-03T14:16:22.999Z</time></trkpt><trkpt lat="44.7185244740036" lon="9.563095412956697"><ele>600.0</ele><time>2026-05-03T14:16:23.999Z</time></trkpt><trkpt lat="44.71853574263072" lon="9.56321500934295"><ele>600.0</ele><time>2026-05-03T14:16:24.999Z</time></trkpt><trkpt lat="44.718587413698344" lon="9.563336424326854"><ele>600.0</ele><time>2026-05-03T14:16:25.999Z</time></trkpt><trkpt lat="44.71864875791238" lon="9.563430220619816"><ele>599.9999999999999</ele><time>2026-05-03T14:16:26.999Z</time></trkpt><trkpt lat="44.71871259512098" lon="9.563500006180764"><ele>600.0</ele><time>2026-05-03T14:16:27.999Z</time></trkpt><trkpt lat="44.71877361166651" lon="9.563550446950021"><ele>600.0</ele><time>2026-05-03T14:16:28.999Z</time></trkpt><trkpt lat="44.71882842983553" lon="9.563594781603804"><ele>600.0</ele><time>2026-05-03T14:16:29.999Z</time></trkpt><trkpt lat="44.71889122021018" lon="9.56363494926582"><ele>600.0</ele><time>2026-05-03T14:16:30.999Z</time></trkpt><trkpt lat="44.71894799694051" lon="9.563679394180513"><ele>599.9999999999999</ele><time>2026-05-03T14:16:31.999Z</time></trkpt><trkpt lat="44.7190061581831" lon="9.563727763556637"><ele>600.0</ele><time>2026-05-03T14:16:32.999Z</time></trkpt><trkpt lat="44.719104854764794" lon="9.563816293169854"><ele>601.8</ele><time>2026-05-03T14:16:34.999Z</time></trkpt><trkpt lat="44.71916094097772" lon="9.56385878949325"><ele>603.6</ele><time>2026-05-03T14:16:35.999Z</time></trkpt><trkpt lat="44.719264327321916" lon="9.56395306684372"><ele>605.4</ele><time>2026-05-03T14:16:37.999Z</time></trkpt><trkpt lat="44.71931648383674" lon="9.564006824464112"><ele>607.2</ele><time>2026-05-03T14:16:38.999Z</time></trkpt><trkpt lat="44.71939719504322" lon="9.56414106678356"><ele>609.0</ele><time>2026-05-03T14:16:40.999Z</time></trkpt><trkpt lat="44.71940445265848" lon="9.564251443674879"><ele>604.2</ele><time>2026-05-03T14:16:41.999Z</time></trkpt><trkpt lat="44.719371364018116" lon="9.564384631242609"><ele>599.4</ele><time>2026-05-03T14:16:42.999Z</time></trkpt><trkpt lat="44.71931024556811" lon="9.564508242948438"><ele>594.6</ele><time>2026-05-03T14:16:43.999Z</time></trkpt><trkpt lat="44.71924331846827" lon="9.564618850046154"><ele>589.8</ele><time>2026-05-03T14:16:44.999Z</time></trkpt><trkpt lat="44.719191801789556" lon="9.564725761571209"><ele>585.0</ele><time>2026-05-03T14:16:45.999Z</time></trkpt><trkpt lat="44.719138598935054" lon="9.564814806887485"><ele>584.3333333333334</ele><time>2026-05-03T14:16:46.999Z</time></trkpt><trkpt lat="44.719084871299806" lon="9.564898476864009"><ele>583.6666666666666</ele><time>2026-05-03T14:16:47.999Z</time></trkpt><trkpt lat="44.71901433806943" lon="9.56495656450324"><ele>583.0</ele><time>2026-05-03T14:16:48.999Z</time></trkpt><trkpt lat="44.718932037494255" lon="9.564981386989373"><ele>582.3333333333333</ele><time>2026-05-03T14:16:49.999Z</time></trkpt><trkpt lat="44.718850073702804" lon="9.56497471823469"><ele>581.6666666666666</ele><time>2026-05-03T14:16:50.999Z</time></trkpt><trkpt lat="44.71876943951228" lon="9.564956837804068"><ele>581.0</ele><time>2026-05-03T14:16:51.999Z</time></trkpt><trkpt lat="44.71869267235215" lon="9.564945070407418"><ele>581.0</ele><time>2026-05-03T14:16:52.999Z</time></trkpt><trkpt lat="44.718615814752255" lon="9.564933796437671"><ele>581.0</ele><time>2026-05-03T14:16:53.999Z</time></trkpt><trkpt lat="44.71854442130151" lon="9.56493188876331"><ele>581.0</ele><time>2026-05-03T14:16:54.999Z</time></trkpt><trkpt lat="44.71847645299955" lon="9.564944535051456"><ele>581.0</ele><time>2026-05-03T14:16:55.999Z</time></trkpt><trkpt lat="44.7184116850735" lon="9.564971591539264"><ele>581.0</ele><time>2026-05-03T14:16:56.999Z</time></trkpt><trkpt lat="44.71835530947177" lon="9.565021665878314"><ele>581.0</ele><time>2026-05-03T14:16:57.999Z</time></trkpt><trkpt lat="44.71832186925551" lon="9.565102833778605"><ele>581.0</ele><time>2026-05-03T14:16:58.999Z</time></trkpt><trkpt lat="44.71832770121776" lon="9.565195356025864"><ele>581.3333333333333</ele><time>2026-05-03T14:16:59.999Z</time></trkpt><trkpt lat="44.71836559976779" lon="9.565294378844733"><ele>581.6666666666666</ele><time>2026-05-03T14:17:00.999Z</time></trkpt><trkpt lat="44.71843461550983" lon="9.565396614424511"><ele>582.0</ele><time>2026-05-03T14:17:01.999Z</time></trkpt><trkpt lat="44.71850747559877" lon="9.565490889297301"><ele>582.3333333333334</ele><time>2026-05-03T14:17:02.999Z</time></trkpt><trkpt lat="44.71856992535787" lon="9.565571477915542"><ele>582.6666666666667</ele><time>2026-05-03T14:17:03.999Z</time></trkpt><trkpt lat="44.7186200322311" lon="9.565645471093777"><ele>583.0</ele><time>2026-05-03T14:17:04.999Z</time></trkpt><trkpt lat="44.718646984717545" lon="9.565733710854355"><ele>583.0000000000001</ele><time>2026-05-03T14:17:05.999Z</time></trkpt><trkpt lat="44.71864972350819" lon="9.565835789737422"><ele>583.0</ele><time>2026-05-03T14:17:06.999Z</time></trkpt><trkpt lat="44.718621082770284" lon="9.565933971804016"><ele>583.0</ele><time>2026-05-03T14:17:07.999Z</time></trkpt><trkpt lat="44.71857242570205" lon="9.566012284476475"><ele>583.0</ele><time>2026-05-03T14:17:08.999Z</time></trkpt><trkpt lat="44.718518739573916" lon="9.56607703590431"><ele>583.0</ele><time>2026-05-03T14:17:09.999Z</time></trkpt><trkpt lat="44.71845975252098" lon="9.566139765998402"><ele>583.0000000000001</ele><time>2026-05-03T14:17:10.999Z</time></trkpt><trkpt lat="44.71838782678682" lon="9.566187490702228"><ele>583.0</ele><time>2026-05-03T14:17:11.999Z</time></trkpt><trkpt lat="44.718305454491585" lon="9.56621402896601"><ele>580.8333333333334</ele><time>2026-05-03T14:17:12.999Z</time></trkpt><trkpt lat="44.71822199915419" lon="9.566241479284741"><ele>578.6666666666667</ele><time>2026-05-03T14:17:13.999Z</time></trkpt><trkpt lat="44.71813894837788" lon="9.56627544645323"><ele>576.5</ele><time>2026-05-03T14:17:14.998Z</time></trkpt><trkpt lat="44.71806827639499" lon="9.56631566412871"><ele>574.3333333333334</ele><time>2026-05-03T14:17:15.998Z</time></trkpt><trkpt lat="44.71800793714862" lon="9.566382727869483"><ele>572.1666666666666</ele><time>2026-05-03T14:17:16.998Z</time></trkpt><trkpt lat="44.717966334108986" lon="9.566470616297682"><ele>570.0</ele><time>2026-05-03T14:17:17.998Z</time></trkpt><trkpt lat="44.71793746719243" lon="9.566569762178071"><ele>570.0</ele><time>2026-05-03T14:17:18.998Z</time></trkpt><trkpt lat="44.71791332446619" lon="9.566669798096008"><ele>570.0</ele><time>2026-05-03T14:17:19.998Z</time></trkpt><trkpt lat="44.71788546142545" lon="9.566766687663979"><ele>570.0</ele><time>2026-05-03T14:17:20.998Z</time></trkpt><trkpt lat="44.717838131838164" lon="9.56684781064972"><ele>570.0</ele><time>2026-05-03T14:17:21.998Z</time></trkpt><trkpt lat="44.71776099278287" lon="9.56688530590902"><ele>570.0</ele><time>2026-05-03T14:17:22.998Z</time></trkpt><trkpt lat="44.71767014223734" lon="9.566859460794582"><ele>570.0</ele><time>2026-05-03T14:17:23.998Z</time></trkpt><trkpt lat="44.71758697479916" lon="9.566784272723115"><ele>566.6666666666666</ele><time>2026-05-03T14:17:24.998Z</time></trkpt><trkpt lat="44.71750171576878" lon="9.566717766673214"><ele>563.3333333333334</ele><time>2026-05-03T14:17:25.998Z</time></trkpt><trkpt lat="44.7174120077031" lon="9.566697087359731"><ele>560.0</ele><time>2026-05-03T14:17:26.998Z</time></trkpt><trkpt lat="44.71732531940348" lon="9.566711836739799"><ele>556.6666666666667</ele><time>2026-05-03T14:17:27.998Z</time></trkpt><trkpt lat="44.71724057892936" lon="9.566732068124052"><ele>553.3333333333334</ele><time>2026-05-03T14:17:28.998Z</time></trkpt><trkpt lat="44.71715915692855" lon="9.566744602563906"><ele>550.0</ele><time>2026-05-03T14:17:29.998Z</time></trkpt><trkpt lat="44.71707921077409" lon="9.566751727949232"><ele>550.0</ele><time>2026-05-03T14:17:30.998Z</time></trkpt><trkpt lat="44.71700833623933" lon="9.56675724994493"><ele>550.0</ele><time>2026-05-03T14:17:31.998Z</time></trkpt><trkpt lat="44.71694426641825" lon="9.56678028560235"><ele>550.0</ele><time>2026-05-03T14:17:32.998Z</time></trkpt><trkpt lat="44.71688884832686" lon="9.566830027603865"><ele>550.0</ele><time>2026-05-03T14:17:33.998Z</time></trkpt><trkpt lat="44.716837799427445" lon="9.566894562355664"><ele>550.0</ele><time>2026-05-03T14:17:34.998Z</time></trkpt><trkpt lat="44.71678852219471" lon="9.566963526162086"><ele>550.0</ele><time>2026-05-03T14:17:35.998Z</time></trkpt><trkpt lat="44.71674687950243" lon="9.567035547774342"><ele>550.0</ele><time>2026-05-03T14:17:36.998Z</time></trkpt><trkpt lat="44.71671270117976" lon="9.567111522629425"><ele>550.6</ele><time>2026-05-03T14:17:37.998Z</time></trkpt><trkpt lat="44.716718879644915" lon="9.56729482804796"><ele>551.2</ele><time>2026-05-03T14:17:39.998Z</time></trkpt><trkpt lat="44.716767895186216" lon="9.56739010656854"><ele>551.8</ele><time>2026-05-03T14:17:40.998Z</time></trkpt><trkpt lat="44.71683733091678" lon="9.567456000706807"><ele>552.4</ele><time>2026-05-03T14:17:41.998Z</time></trkpt><trkpt lat="44.71691320124626" lon="9.567513787181575"><ele>553.0</ele><time>2026-05-03T14:17:43Z</time></trkpt><trkpt lat="44.71698401979877" lon="9.567565662289097"><ele>553.0</ele><time>2026-05-03T14:17:44Z</time></trkpt><trkpt lat="44.71704129974264" lon="9.567644404924463"><ele>553.0</ele><time>2026-05-03T14:17:45Z</time></trkpt><trkpt lat="44.71706654573287" lon="9.567757241133075"><ele>553.0</ele><time>2026-05-03T14:17:46Z</time></trkpt><trkpt lat="44.71707096704959" lon="9.567881701690029"><ele>553.0</ele><time>2026-05-03T14:17:47Z</time></trkpt><trkpt lat="44.717053060262586" lon="9.568002875068952"><ele>553.0</ele><time>2026-05-03T14:17:48Z</time></trkpt><trkpt lat="44.7170236164374" lon="9.568117195253068"><ele>553.0</ele><time>2026-05-03T14:17:49Z</time></trkpt><trkpt lat="44.71699797194399" lon="9.56823640464765"><ele>551.2857142857143</ele><time>2026-05-03T14:17:50Z</time></trkpt><trkpt lat="44.716976572612616" lon="9.568353248348174"><ele>549.5714285714286</ele><time>2026-05-03T14:17:51Z</time></trkpt><trkpt lat="44.716959993348375" lon="9.568458439363337"><ele>547.8571428571429</ele><time>2026-05-03T14:17:52Z</time></trkpt><trkpt lat="44.7169433202149" lon="9.568551710634313"><ele>546.1428571428571</ele><time>2026-05-03T14:17:53Z</time></trkpt><trkpt lat="44.71691347547433" lon="9.56863338180317"><ele>544.4285714285714</ele><time>2026-05-03T14:17:54Z</time></trkpt><trkpt lat="44.716854789568785" lon="9.56868980679899"><ele>542.7142857142858</ele><time>2026-05-03T14:17:55Z</time></trkpt><trkpt lat="44.71677936988846" lon="9.568673076760795"><ele>541.0</ele><time>2026-05-03T14:17:56Z</time></trkpt><trkpt lat="44.71672633652577" lon="9.568591611981612"><ele>538.8</ele><time>2026-05-03T14:17:57Z</time></trkpt><trkpt lat="44.716712942677425" lon="9.568476908131068"><ele>536.6</ele><time>2026-05-03T14:17:58Z</time></trkpt><trkpt lat="44.716734499102294" lon="9.56834138854192"><ele>534.4</ele><time>2026-05-03T14:17:59Z</time></trkpt><trkpt lat="44.71675276000391" lon="9.568195032160423"><ele>532.2</ele><time>2026-05-03T14:18:00Z</time></trkpt><trkpt lat="44.71674922523323" lon="9.568055686243053"><ele>530.0</ele><time>2026-05-03T14:18:01Z</time></trkpt><trkpt lat="44.71668634281904" lon="9.567945804570504"><ele>530.0</ele><time>2026-05-03T14:18:02Z</time></trkpt><trkpt lat="44.71659779486032" lon="9.567886682418939"><ele>530.0</ele><time>2026-05-03T14:18:03Z</time></trkpt><trkpt lat="44.71651783715065" lon="9.567843209594209"><ele>530.0</ele><time>2026-05-03T14:18:04Z</time></trkpt><trkpt lat="44.71644492060411" lon="9.567792320623552"><ele>530.0</ele><time>2026-05-03T14:18:05Z</time></trkpt><trkpt lat="44.71638111740898" lon="9.567723591742666"><ele>530.0</ele><time>2026-05-03T14:18:06Z</time></trkpt><trkpt lat="44.716332380627016" lon="9.567643167803325"><ele>530.0</ele><time>2026-05-03T14:18:07Z</time></trkpt><trkpt lat="44.716300545058445" lon="9.567561893651591"><ele>530.6666666666666</ele><time>2026-05-03T14:18:08Z</time></trkpt><trkpt lat="44.716287279615564" lon="9.567472201760125"><ele>531.3333333333333</ele><time>2026-05-03T14:18:09Z</time></trkpt><trkpt lat="44.716294990248365" lon="9.567380018819813"><ele>532.0</ele><time>2026-05-03T14:18:10Z</time></trkpt><trkpt lat="44.71630670533056" lon="9.567223903777096"><ele>532.6666666666666</ele><time>2026-05-03T14:18:12Z</time></trkpt><trkpt lat="44.716262569106355" lon="9.567158600211872"><ele>533.3333333333334</ele><time>2026-05-03T14:18:13Z</time></trkpt><trkpt lat="44.71618454927033" lon="9.56715993583985"><ele>534.0</ele><time>2026-05-03T14:18:14Z</time></trkpt><trkpt lat="44.71612044248908" lon="9.567215196558344"><ele>534.0000000000001</ele><time>2026-05-03T14:18:15Z</time></trkpt><trkpt lat="44.71609857642082" lon="9.567321282125638"><ele>534.0</ele><time>2026-05-03T14:18:16Z</time></trkpt><trkpt lat="44.71608881695398" lon="9.56743591223887"><ele>534.0</ele><time>2026-05-03T14:18:17Z</time></trkpt><trkpt lat="44.71607233971778" lon="9.567542558996156"><ele>534.0</ele><time>2026-05-03T14:18:18Z</time></trkpt><trkpt lat="44.71605392849553" lon="9.56764156652784"><ele>534.0</ele><time>2026-05-03T14:18:19Z</time></trkpt><trkpt lat="44.716032302720734" lon="9.567735390708053"><ele>534.0000000000001</ele><time>2026-05-03T14:18:20Z</time></trkpt><trkpt lat="44.71601309839214" lon="9.567826746582874"><ele>534.0</ele><time>2026-05-03T14:18:21Z</time></trkpt><trkpt lat="44.7159997937303" lon="9.567922078072046"><ele>533.4285714285714</ele><time>2026-05-03T14:18:22Z</time></trkpt><trkpt lat="44.71599634276897" lon="9.568019275576878"><ele>532.8571428571429</ele><time>2026-05-03T14:18:23Z</time></trkpt><trkpt lat="44.7160017707881" lon="9.56811755118307"><ele>532.2857142857142</ele><time>2026-05-03T14:18:24Z</time></trkpt><trkpt lat="44.71602540986138" lon="9.568204793735337"><ele>531.7142857142858</ele><time>2026-05-03T14:18:24.999Z</time></trkpt><trkpt lat="44.71606277038774" lon="9.568287836254656"><ele>531.1428571428571</ele><time>2026-05-03T14:18:25.999Z</time></trkpt><trkpt lat="44.71610705504368" lon="9.568368220211505"><ele>530.5714285714286</ele><time>2026-05-03T14:18:26.999Z</time></trkpt><trkpt lat="44.71615512117225" lon="9.568434608495277"><ele>530.0</ele><time>2026-05-03T14:18:27.999Z</time></trkpt><trkpt lat="44.716208342504544" lon="9.56849103068096"><ele>530.0</ele><time>2026-05-03T14:18:28.999Z</time></trkpt><trkpt lat="44.71629210059227" lon="9.568558562222758"><ele>530.0</ele><time>2026-05-03T14:18:30.999Z</time></trkpt><trkpt lat="44.7163105787268" lon="9.568679634839576"><ele>530.0</ele><time>2026-05-03T14:18:32.999Z</time></trkpt><trkpt lat="44.71625471389356" lon="9.568738800347093"><ele>530.0</ele><time>2026-05-03T14:18:33.999Z</time></trkpt><trkpt lat="44.71617313831243" lon="9.568727602705897"><ele>530.0</ele><time>2026-05-03T14:18:34.999Z</time></trkpt><trkpt lat="44.71610136041141" lon="9.568649352804337"><ele>530.0</ele><time>2026-05-03T14:18:35.999Z</time></trkpt><trkpt lat="44.71602876702154" lon="9.568561406646667"><ele>525.4</ele><time>2026-05-03T14:18:36.999Z</time></trkpt><trkpt lat="44.71595773444822" lon="9.568497943140134"><ele>520.8</ele><time>2026-05-03T14:18:37.999Z</time></trkpt><trkpt lat="44.71589905313594" lon="9.56846533796373"><ele>516.2</ele><time>2026-05-03T14:18:38.999Z</time></trkpt><trkpt lat="44.71578827967245" lon="9.568422787039221"><ele>511.6</ele><time>2026-05-03T14:18:40.999Z</time></trkpt><trkpt lat="44.71568008741084" lon="9.568353557172015"><ele>507.0</ele><time>2026-05-03T14:18:42.999Z</time></trkpt><trkpt lat="44.71557698664767" lon="9.56825506669188"><ele>507.0</ele><time>2026-05-03T14:18:44.999Z</time></trkpt><trkpt lat="44.71554229807202" lon="9.568173389882947"><ele>507.0</ele><time>2026-05-03T14:18:45.999Z</time></trkpt><trkpt lat="44.71552356656951" lon="9.56808257399849"><ele>507.0</ele><time>2026-05-03T14:18:46.999Z</time></trkpt><trkpt lat="44.71550861990321" lon="9.567980639734218"><ele>507.0</ele><time>2026-05-03T14:18:47.999Z</time></trkpt><trkpt lat="44.71550998746715" lon="9.567869245759775"><ele>507.0</ele><time>2026-05-03T14:18:48.999Z</time></trkpt><trkpt lat="44.71552084763043" lon="9.56776554767518"><ele>507.0</ele><time>2026-05-03T14:18:49.999Z</time></trkpt><trkpt lat="44.71554712269868" lon="9.567674769648592"><ele>507.0</ele><time>2026-05-03T14:18:50.999Z</time></trkpt><trkpt lat="44.71556576710583" lon="9.567589572137264"><ele>508.0</ele><time>2026-05-03T14:18:51.999Z</time></trkpt><trkpt lat="44.71557733788219" lon="9.567499581092338"><ele>509.0</ele><time>2026-05-03T14:18:52.999Z</time></trkpt><trkpt lat="44.71554398371142" lon="9.567329361695796"><ele>510.0</ele><time>2026-05-03T14:18:54.999Z</time></trkpt><trkpt lat="44.71550827358931" lon="9.567231765567115"><ele>511.0</ele><time>2026-05-03T14:18:55.999Z</time></trkpt><trkpt lat="44.71546523530062" lon="9.567146799653356"><ele>512.0</ele><time>2026-05-03T14:18:56.999Z</time></trkpt><trkpt lat="44.71542845706653" lon="9.567070115807697"><ele>513.0</ele><time>2026-05-03T14:18:57.999Z</time></trkpt><trkpt lat="44.71537368467235" lon="9.566952770518723"><ele>513.8333333333334</ele><time>2026-05-03T14:18:59.999Z</time></trkpt><trkpt lat="44.71531986439896" lon="9.566852941726937"><ele>514.6666666666666</ele><time>2026-05-03T14:19:01.999Z</time></trkpt><trkpt lat="44.71522994165818" lon="9.566804751725684"><ele>515.5</ele><time>2026-05-03T14:19:03.999Z</time></trkpt><trkpt lat="44.715171812588004" lon="9.566843504191116"><ele>516.3333333333333</ele><time>2026-05-03T14:19:04.999Z</time></trkpt><trkpt lat="44.71514843662919" lon="9.566937040705554"><ele>517.1666666666666</ele><time>2026-05-03T14:19:05.999Z</time></trkpt><trkpt lat="44.71516910800745" lon="9.567038558030173"><ele>518.0</ele><time>2026-05-03T14:19:06.999Z</time></trkpt><trkpt lat="44.71521029854326" lon="9.56712371843885"><ele>517.2857142857143</ele><time>2026-05-03T14:19:07.999Z</time></trkpt><trkpt lat="44.71524982093082" lon="9.567200799818343"><ele>516.5714285714286</ele><time>2026-05-03T14:19:08.999Z</time></trkpt><trkpt lat="44.71528294928277" lon="9.567286768597127"><ele>515.8571428571429</ele><time>2026-05-03T14:19:09.999Z</time></trkpt><trkpt lat="44.71530878291105" lon="9.567386370443998"><ele>515.1428571428571</ele><time>2026-05-03T14:19:10.999Z</time></trkpt><trkpt lat="44.715319676495604" lon="9.567489969285521"><ele>514.4285714285714</ele><time>2026-05-03T14:19:11.999Z</time></trkpt><trkpt lat="44.7153157350846" lon="9.567593815834906"><ele>513.7142857142858</ele><time>2026-05-03T14:19:12.999Z</time></trkpt><trkpt lat="44.715301220252506" lon="9.567692118611568"><ele>513.0</ele><time>2026-05-03T14:19:13.999Z</time></trkpt><trkpt lat="44.71529019604908" lon="9.567858918611918"><ele>511.79999999999995</ele><time>2026-05-03T14:19:15.999Z</time></trkpt><trkpt lat="44.71527989360529" lon="9.56803253230793"><ele>510.59999999999997</ele><time>2026-05-03T14:19:17.999Z</time></trkpt><trkpt lat="44.715297122909405" lon="9.568203757323822"><ele>509.40000000000003</ele><time>2026-05-03T14:19:19.999Z</time></trkpt><trkpt lat="44.715317009930615" lon="9.568295383889797"><ele>508.20000000000005</ele><time>2026-05-03T14:19:20.999Z</time></trkpt><trkpt lat="44.715336937201485" lon="9.56838456075712"><ele>507.0</ele><time>2026-05-03T14:19:21.999Z</time></trkpt><trkpt lat="44.71535715049529" lon="9.568477239782487"><ele>507.0</ele><time>2026-05-03T14:19:22.998Z</time></trkpt><trkpt lat="44.71537017392868" lon="9.56856824957561"><ele>507.0</ele><time>2026-05-03T14:19:23.998Z</time></trkpt><trkpt lat="44.71538052942882" lon="9.568669791981424"><ele>507.0</ele><time>2026-05-03T14:19:24.998Z</time></trkpt><trkpt lat="44.71538056548601" lon="9.56877244567661"><ele>507.0</ele><time>2026-05-03T14:19:25.998Z</time></trkpt><trkpt lat="44.71537419344611" lon="9.568868084473962"><ele>507.0</ele><time>2026-05-03T14:19:26.998Z</time></trkpt><trkpt lat="44.715364149436894" lon="9.56896001057169"><ele>507.0</ele><time>2026-05-03T14:19:27.998Z</time></trkpt><trkpt lat="44.71535870475473" lon="9.569050042587882"><ele>507.0</ele><time>2026-05-03T14:19:28.998Z</time></trkpt><trkpt lat="44.71534430899987" lon="9.569196968491012"><ele>505.5</ele><time>2026-05-03T14:19:30.998Z</time></trkpt><trkpt lat="44.715247638389066" lon="9.569260482157667"><ele>504.0</ele><time>2026-05-03T14:19:32.998Z</time></trkpt><trkpt lat="44.71518460370599" lon="9.569214903919345"><ele>502.5</ele><time>2026-05-03T14:19:33.998Z</time></trkpt><trkpt lat="44.71515710272655" lon="9.569122875174223"><ele>501.0</ele><time>2026-05-03T14:19:34.998Z</time></trkpt><trkpt lat="44.71516469252589" lon="9.569024448249865"><ele>499.5</ele><time>2026-05-03T14:19:35.998Z</time></trkpt><trkpt lat="44.715181610363416" lon="9.568916114211572"><ele>498.0</ele><time>2026-05-03T14:19:36.998Z</time></trkpt><trkpt lat="44.71520776541316" lon="9.568795423104802"><ele>495.5</ele><time>2026-05-03T14:19:37.998Z</time></trkpt><trkpt lat="44.71522574045997" lon="9.56868306012513"><ele>493.0</ele><time>2026-05-03T14:19:38.998Z</time></trkpt><trkpt lat="44.71523292515098" lon="9.568564652849663"><ele>490.5</ele><time>2026-05-03T14:19:39.998Z</time></trkpt><trkpt lat="44.71521082521084" lon="9.568447140248901"><ele>488.0</ele><time>2026-05-03T14:19:40.998Z</time></trkpt><trkpt lat="44.715176468844184" lon="9.568335916648405"><ele>485.5</ele><time>2026-05-03T14:19:41.998Z</time></trkpt><trkpt lat="44.71513803446843" lon="9.568234205252283"><ele>483.0</ele><time>2026-05-03T14:19:42.998Z</time></trkpt><trkpt lat="44.71510829738994" lon="9.568125985248821"><ele>483.0</ele><time>2026-05-03T14:19:43.998Z</time></trkpt><trkpt lat="44.715084012869696" lon="9.5680276602369"><ele>483.0</ele><time>2026-05-03T14:19:44.998Z</time></trkpt><trkpt lat="44.715035797203704" lon="9.567872450109281"><ele>483.0</ele><time>2026-05-03T14:19:46.998Z</time></trkpt><trkpt lat="44.715008157440636" lon="9.567792768664136"><ele>483.0</ele><time>2026-05-03T14:19:47.998Z</time></trkpt><trkpt lat="44.714969717480905" lon="9.567719475764303"><ele>483.0</ele><time>2026-05-03T14:19:49Z</time></trkpt><trkpt lat="44.71492030558719" lon="9.567657871919685"><ele>483.0</ele><time>2026-05-03T14:19:50Z</time></trkpt><trkpt lat="44.71486668737729" lon="9.567605063215979"><ele>482.1666666666667</ele><time>2026-05-03T14:19:51Z</time></trkpt><trkpt lat="44.714808769283145" lon="9.567565068302798"><ele>481.33333333333337</ele><time>2026-05-03T14:19:52Z</time></trkpt><trkpt lat="44.71474324017014" lon="9.567534192051927"><ele>480.5</ele><time>2026-05-03T14:19:53Z</time></trkpt><trkpt lat="44.71467385375765" lon="9.567525348496153"><ele>479.6666666666667</ele><time>2026-05-03T14:19:54Z</time></trkpt><trkpt lat="44.714552468188735" lon="9.56754634094385"><ele>478.83333333333337</ele><time>2026-05-03T14:19:56Z</time></trkpt><trkpt lat="44.71443582768549" lon="9.56758713598899"><ele>478.0</ele><time>2026-05-03T14:19:58Z</time></trkpt><trkpt lat="44.71431847948511" lon="9.567636440800841"><ele>478.00000000000006</ele><time>2026-05-03T14:20:00Z</time></trkpt><trkpt lat="44.71419890860893" lon="9.567676041001734"><ele>478.0</ele><time>2026-05-03T14:20:02Z</time></trkpt><trkpt lat="44.71413366433975" lon="9.567684332435764"><ele>478.0</ele><time>2026-05-03T14:20:03Z</time></trkpt><trkpt lat="44.71406618800451" lon="9.567692820616141"><ele>478.0</ele><time>2026-05-03T14:20:04Z</time></trkpt><trkpt lat="44.714001008725965" lon="9.567698214281096"><ele>478.00000000000006</ele><time>2026-05-03T14:20:05Z</time></trkpt><trkpt lat="44.71393650806424" lon="9.567689256702696"><ele>478.0</ele><time>2026-05-03T14:20:06Z</time></trkpt><trkpt lat="44.71387446190106" lon="9.567659272444006"><ele>478.00000000000006</ele><time>2026-05-03T14:20:07Z</time></trkpt><trkpt lat="44.713811231033375" lon="9.567610386053486"><ele>478.0</ele><time>2026-05-03T14:20:08Z</time></trkpt><trkpt lat="44.71374965305475" lon="9.567534145827224"><ele>478.0</ele><time>2026-05-03T14:20:09Z</time></trkpt><trkpt lat="44.713710545991454" lon="9.567434404010962"><ele>478.0</ele><time>2026-05-03T14:20:10Z</time></trkpt><trkpt lat="44.713693404440384" lon="9.567325491329857"><ele>478.00000000000006</ele><time>2026-05-03T14:20:11Z</time></trkpt><trkpt lat="44.71364024465358" lon="9.567204667771874"><ele>478.0</ele><time>2026-05-03T14:20:13Z</time></trkpt><trkpt lat="44.71353278703759" lon="9.56729148918388"><ele>474.83333333333337</ele><time>2026-05-03T14:20:15Z</time></trkpt><trkpt lat="44.71352384108499" lon="9.567401204746302"><ele>471.6666666666667</ele><time>2026-05-03T14:20:16Z</time></trkpt><trkpt lat="44.71354524399386" lon="9.567525438617647"><ele>468.5</ele><time>2026-05-03T14:20:17Z</time></trkpt><trkpt lat="44.71356465451401" lon="9.567655739424263"><ele>465.33333333333337</ele><time>2026-05-03T14:20:18Z</time></trkpt><trkpt lat="44.713562220718984" lon="9.567775490598708"><ele>462.1666666666667</ele><time>2026-05-03T14:20:19Z</time></trkpt><trkpt lat="44.713547241960896" lon="9.567881973173169"><ele>459.0</ele><time>2026-05-03T14:20:20Z</time></trkpt><trkpt lat="44.71353288034835" lon="9.567981487115517"><ele>457.6666666666667</ele><time>2026-05-03T14:20:21Z</time></trkpt><trkpt lat="44.713531853405975" lon="9.568080805585979"><ele>456.33333333333337</ele><time>2026-05-03T14:20:22Z</time></trkpt><trkpt lat="44.71354550852548" lon="9.568167334055337"><ele>455.0</ele><time>2026-05-03T14:20:23Z</time></trkpt><trkpt lat="44.713603162153284" lon="9.568294192092047"><ele>453.6666666666667</ele><time>2026-05-03T14:20:25Z</time></trkpt><trkpt lat="44.71367896682442" lon="9.568383831210083"><ele>452.33333333333337</ele><time>2026-05-03T14:20:27Z</time></trkpt><trkpt lat="44.71369865647106" lon="9.568495762609215"><ele>451.0</ele><time>2026-05-03T14:20:29Z</time></trkpt><trkpt lat="44.713592050600745" lon="9.568565515186378"><ele>451.00000000000006</ele><time>2026-05-03T14:20:30.999Z</time></trkpt><trkpt lat="44.71353199933385" lon="9.568500762100243"><ele>451.0</ele><time>2026-05-03T14:20:31.999Z</time></trkpt><trkpt lat="44.71349440898264" lon="9.5683945053683"><ele>451.0</ele><time>2026-05-03T14:20:32.999Z</time></trkpt><trkpt lat="44.71347602045532" lon="9.568275269564"><ele>451.0</ele><time>2026-05-03T14:20:33.999Z</time></trkpt><trkpt lat="44.713458770385266" lon="9.568166729697994"><ele>451.00000000000006</ele><time>2026-05-03T14:20:34.999Z</time></trkpt><trkpt lat="44.71343283213938" lon="9.568073900649262"><ele>451.0</ele><time>2026-05-03T14:20:35.999Z</time></trkpt><trkpt lat="44.713406784935906" lon="9.567975894796021"><ele>451.0</ele><time>2026-05-03T14:20:36.999Z</time></trkpt><trkpt lat="44.71337630298244" lon="9.567884643548581"><ele>451.0</ele><time>2026-05-03T14:20:37.999Z</time></trkpt><trkpt lat="44.71334811869637" lon="9.567804707287353"><ele>451.0</ele><time>2026-05-03T14:20:38.999Z</time></trkpt><trkpt lat="44.71331053098081" lon="9.567659097066048"><ele>451.0</ele><time>2026-05-03T14:20:40.999Z</time></trkpt><trkpt lat="44.71324490550521" lon="9.567551266305017"><ele>451.0</ele><time>2026-05-03T14:20:42.999Z</time></trkpt><trkpt lat="44.71315371674924" lon="9.567634291287748"><ele>451.00000000000006</ele><time>2026-05-03T14:20:44.999Z</time></trkpt><trkpt lat="44.713157083277146" lon="9.567723926818465"><ele>451.0</ele><time>2026-05-03T14:20:45.999Z</time></trkpt><trkpt lat="44.71319487017052" lon="9.56782145097586"><ele>451.0</ele><time>2026-05-03T14:20:46.999Z</time></trkpt><trkpt lat="44.71324482969689" lon="9.56792410854844"><ele>451.0</ele><time>2026-05-03T14:20:47.999Z</time></trkpt><trkpt lat="44.71329388084007" lon="9.568045051881219"><ele>451.00000000000006</ele><time>2026-05-03T14:20:48.999Z</time></trkpt><trkpt lat="44.71333175858962" lon="9.568158916768185"><ele>451.0</ele><time>2026-05-03T14:20:49.999Z</time></trkpt><trkpt lat="44.7133647991443" lon="9.56825153510663"><ele>451.00000000000006</ele><time>2026-05-03T14:20:50.999Z</time></trkpt><trkpt lat="44.71340030692844" lon="9.568359915325487"><ele>451.0</ele><time>2026-05-03T14:20:52.999Z</time></trkpt><trkpt lat="44.71334354231663" lon="9.568424885469843"><ele>451.0</ele><time>2026-05-03T14:20:54.999Z</time></trkpt><trkpt lat="44.71326448990481" lon="9.568343635672715"><ele>451.0</ele><time>2026-05-03T14:20:56.999Z</time></trkpt><trkpt lat="44.7132429682919" lon="9.568232310446023"><ele>451.00000000000006</ele><time>2026-05-03T14:20:57.999Z</time></trkpt><trkpt lat="44.713212767780796" lon="9.568120693192546"><ele>451.0</ele><time>2026-05-03T14:20:58.999Z</time></trkpt><trkpt lat="44.71316223845926" lon="9.568021348682402"><ele>451.00000000000006</ele><time>2026-05-03T14:20:59.999Z</time></trkpt><trkpt lat="44.713103797735904" lon="9.567936221642524"><ele>451.0</ele><time>2026-05-03T14:21:00.999Z</time></trkpt><trkpt lat="44.71304320281478" lon="9.567863027043575"><ele>451.0</ele><time>2026-05-03T14:21:01.999Z</time></trkpt><trkpt lat="44.71298962801176" lon="9.567810057045195"><ele>451.0</ele><time>2026-05-03T14:21:02.999Z</time></trkpt><trkpt lat="44.71292933180433" lon="9.5677276229174"><ele>451.00000000000006</ele><time>2026-05-03T14:21:04.999Z</time></trkpt><trkpt lat="44.712875899787925" lon="9.567657678003977"><ele>451.0</ele><time>2026-05-03T14:21:07.999Z</time></trkpt><trkpt lat="44.71280040624092" lon="9.567679701854965"><ele>451.00000000000006</ele><time>2026-05-03T14:21:09.999Z</time></trkpt><trkpt lat="44.71277004555094" lon="9.567825245762211"><ele>451.0</ele><time>2026-05-03T14:21:11.999Z</time></trkpt><trkpt lat="44.7127974702114" lon="9.56790604995135"><ele>451.0</ele><time>2026-05-03T14:21:12.999Z</time></trkpt><trkpt lat="44.712855865649985" lon="9.567970321255697"><ele>451.0</ele><time>2026-05-03T14:21:13.999Z</time></trkpt><trkpt lat="44.712925676801" lon="9.56801035453889"><ele>451.00000000000006</ele><time>2026-05-03T14:21:14.999Z</time></trkpt><trkpt lat="44.712989782666526" lon="9.5680476699276"><ele>451.0</ele><time>2026-05-03T14:21:15.999Z</time></trkpt><trkpt lat="44.713041123781196" lon="9.568112142367806"><ele>451.0</ele><time>2026-05-03T14:21:16.999Z</time></trkpt><trkpt lat="44.71307250169169" lon="9.568190892066488"><ele>451.0</ele><time>2026-05-03T14:21:17.999Z</time></trkpt><trkpt lat="44.713106235644744" lon="9.568348551071665"><ele>451.0</ele><time>2026-05-03T14:21:19.999Z</time></trkpt><trkpt lat="44.71313260952635" lon="9.568483013827198"><ele>451.0</ele><time>2026-05-03T14:21:21.999Z</time></trkpt><trkpt lat="44.7131715551283" lon="9.568603782562047"><ele>451.0</ele><time>2026-05-03T14:21:23.999Z</time></trkpt><trkpt lat="44.713194759944116" lon="9.568713806073665"><ele>449.1428571428571</ele><time>2026-05-03T14:21:25.999Z</time></trkpt><trkpt lat="44.71321706698739" lon="9.56881816619559"><ele>447.28571428571433</ele><time>2026-05-03T14:21:29.998Z</time></trkpt><trkpt lat="44.713287030893646" lon="9.568854572241484"><ele>445.42857142857144</ele><time>2026-05-03T14:21:32.998Z</time></trkpt><trkpt lat="44.713347056091905" lon="9.568913846405508"><ele>443.57142857142856</ele><time>2026-05-03T14:21:42.998Z</time></trkpt><trkpt lat="44.71340321644904" lon="9.5689891497817"><ele>441.71428571428567</ele><time>2026-05-03T14:21:45.998Z</time></trkpt><trkpt lat="44.71346313998453" lon="9.569064912390983"><ele>439.8571428571429</ele><time>2026-05-03T14:21:47.998Z</time></trkpt><trkpt lat="44.713508151940175" lon="9.569131382972508"><ele>438.0</ele><time>2026-05-03T14:21:49.998Z</time></trkpt><trkpt lat="44.713559145226256" lon="9.569208749789956"><ele>438.0</ele><time>2026-05-03T14:21:52.998Z</time></trkpt><trkpt lat="44.71358712604917" lon="9.569302351125685"><ele>438.0</ele><time>2026-05-03T14:24:21Z</time></trkpt><trkpt lat="44.7135094659971" lon="9.569320460529077"><ele>438.0</ele><time>2026-05-03T14:36:13.998Z</time></trkpt><trkpt lat="44.71344265857956" lon="9.56923763144312"><ele>438.0</ele><time>2026-05-03T14:36:15.998Z</time></trkpt><trkpt lat="44.71338751004984" lon="9.569156877826885"><ele>438.0</ele><time>2026-05-03T14:36:16.998Z</time></trkpt><trkpt lat="44.713325056465756" lon="9.56908290444323"><ele>438.0</ele><time>2026-05-03T14:36:17.998Z</time></trkpt><trkpt lat="44.71325249979133" lon="9.569011862793898"><ele>438.0</ele><time>2026-05-03T14:36:18.998Z</time></trkpt><trkpt lat="44.71315935331942" lon="9.568958169915115"><ele>437.99999999999994</ele><time>2026-05-03T14:36:19.998Z</time></trkpt><trkpt lat="44.713049292136695" lon="9.568935011718251"><ele>437.99999999999994</ele><time>2026-05-03T14:36:20.998Z</time></trkpt><trkpt lat="44.71294043140535" lon="9.568918240835727"><ele>438.0</ele><time>2026-05-03T14:36:21.998Z</time></trkpt><trkpt lat="44.71283749964721" lon="9.568909301754239"><ele>438.0</ele><time>2026-05-03T14:36:22.998Z</time></trkpt><trkpt lat="44.71274150715527" lon="9.568929404409058"><ele>436.0</ele><time>2026-05-03T14:36:23.998Z</time></trkpt><trkpt lat="44.71265364547877" lon="9.568979359998428"><ele>433.99999999999994</ele><time>2026-05-03T14:36:24.998Z</time></trkpt><trkpt lat="44.7125797377416" lon="9.569051829480903"><ele>431.99999999999994</ele><time>2026-05-03T14:36:25.998Z</time></trkpt><trkpt lat="44.71251160646264" lon="9.569128217273253"><ele>430.0</ele><time>2026-05-03T14:36:26.998Z</time></trkpt><trkpt lat="44.71244443417501" lon="9.5692084167399"><ele>428.0</ele><time>2026-05-03T14:36:27.998Z</time></trkpt><trkpt lat="44.71237444217037" lon="9.569293875024266"><ele>428.0</ele><time>2026-05-03T14:36:28.998Z</time></trkpt><trkpt lat="44.712301172957076" lon="9.56937178061319"><ele>427.99999999999994</ele><time>2026-05-03T14:36:29.998Z</time></trkpt><trkpt lat="44.71222722149999" lon="9.569449946243587"><ele>427.99999999999994</ele><time>2026-05-03T14:36:30.998Z</time></trkpt><trkpt lat="44.71215271840617" lon="9.569531515986625"><ele>428.0</ele><time>2026-05-03T14:36:31.998Z</time></trkpt><trkpt lat="44.71207868160632" lon="9.569614676657814"><ele>428.0</ele><time>2026-05-03T14:36:32.998Z</time></trkpt><trkpt lat="44.71200682554463" lon="9.569698838667525"><ele>427.3333333333333</ele><time>2026-05-03T14:36:33.998Z</time></trkpt><trkpt lat="44.711938961666405" lon="9.569775501240017"><ele>426.66666666666663</ele><time>2026-05-03T14:36:34.998Z</time></trkpt><trkpt lat="44.71187605328486" lon="9.569840899990572"><ele>426.0</ele><time>2026-05-03T14:36:35.998Z</time></trkpt><trkpt lat="44.71182048167263" lon="9.569900087201933"><ele>425.33333333333337</ele><time>2026-05-03T14:36:37Z</time></trkpt><trkpt lat="44.71176554734373" lon="9.569952977125496"><ele>424.6666666666667</ele><time>2026-05-03T14:36:38Z</time></trkpt><trkpt lat="44.71166410638806" lon="9.570040245544126"><ele>424.0</ele><time>2026-05-03T14:36:40Z</time></trkpt><trkpt lat="44.71159501947955" lon="9.570059750121088"><ele>425.6666666666667</ele><time>2026-05-03T14:36:42Z</time></trkpt><trkpt lat="44.71154800273027" lon="9.570217366850125"><ele>427.33333333333337</ele><time>2026-05-03T14:36:48Z</time></trkpt><trkpt lat="44.71153223464973" lon="9.570310080586765"><ele>429.0</ele><time>2026-05-03T14:36:49Z</time></trkpt><trkpt lat="44.71148105824248" lon="9.570390198014698"><ele>430.66666666666663</ele><time>2026-05-03T14:36:51Z</time></trkpt><trkpt lat="44.711433317406666" lon="9.570500423194055"><ele>432.3333333333333</ele><time>2026-05-03T14:36:53Z</time></trkpt><trkpt lat="44.71143288688148" lon="9.570600370134379"><ele>434.0</ele><time>2026-05-03T14:36:54Z</time></trkpt><trkpt lat="44.71146759311413" lon="9.570717389000325"><ele>435.0</ele><time>2026-05-03T14:36:55Z</time></trkpt><trkpt lat="44.71151141294548" lon="9.570819487061412"><ele>436.0</ele><time>2026-05-03T14:36:56Z</time></trkpt><trkpt lat="44.71156350310229" lon="9.57092123612572"><ele>437.0</ele><time>2026-05-03T14:36:57Z</time></trkpt><trkpt lat="44.71165093598691" lon="9.571024185398858"><ele>438.0</ele><time>2026-05-03T14:36:58Z</time></trkpt><trkpt lat="44.71176095653911" lon="9.571113925452819"><ele>439.0</ele><time>2026-05-03T14:36:59Z</time></trkpt><trkpt lat="44.71187640367049" lon="9.571181020503207"><ele>439.2</ele><time>2026-05-03T14:37:00Z</time></trkpt><trkpt lat="44.711988428698206" lon="9.57123930362771"><ele>439.4</ele><time>2026-05-03T14:37:01Z</time></trkpt><trkpt lat="44.712086691326476" lon="9.571301590392732"><ele>439.6</ele><time>2026-05-03T14:37:02Z</time></trkpt><trkpt lat="44.71217574542092" lon="9.57136598515024"><ele>439.8</ele><time>2026-05-03T14:37:03Z</time></trkpt><trkpt lat="44.71225887247571" lon="9.571426426262635"><ele>440.0</ele><time>2026-05-03T14:37:04Z</time></trkpt><trkpt lat="44.7123377642908" lon="9.571482428912995"><ele>439.99999999999994</ele><time>2026-05-03T14:37:05Z</time></trkpt><trkpt lat="44.712412067604696" lon="9.571536849781369"><ele>440.0</ele><time>2026-05-03T14:37:06Z</time></trkpt><trkpt lat="44.71248208068141" lon="9.571590429068165"><ele>440.0</ele><time>2026-05-03T14:37:07Z</time></trkpt><trkpt lat="44.71255893614738" lon="9.571640903608508"><ele>440.0</ele><time>2026-05-03T14:37:08Z</time></trkpt><trkpt lat="44.71264652585754" lon="9.571703897315357"><ele>439.99999999999994</ele><time>2026-05-03T14:37:09Z</time></trkpt><trkpt lat="44.71272659948957" lon="9.571778482132684"><ele>440.0</ele><time>2026-05-03T14:37:10Z</time></trkpt><trkpt lat="44.71280998446416" lon="9.571876443451025"><ele>438.8</ele><time>2026-05-03T14:37:11Z</time></trkpt><trkpt lat="44.71289563604746" lon="9.571975466038113"><ele>437.6</ele><time>2026-05-03T14:37:12Z</time></trkpt><trkpt lat="44.712989901486296" lon="9.572065023316066"><ele>436.4</ele><time>2026-05-03T14:37:13Z</time></trkpt><trkpt lat="44.71309034009799" lon="9.57213635668848"><ele>435.2</ele><time>2026-05-03T14:37:14Z</time></trkpt><trkpt lat="44.713184825527804" lon="9.572199778192749"><ele>434.0</ele><time>2026-05-03T14:37:15Z</time></trkpt><trkpt lat="44.71326381062255" lon="9.572284635954464"><ele>434.0</ele><time>2026-05-03T14:37:16Z</time></trkpt><trkpt lat="44.713316067150494" lon="9.572391687204172"><ele>434.0</ele><time>2026-05-03T14:37:17Z</time></trkpt><trkpt lat="44.713366393863225" lon="9.572510491396455"><ele>434.0</ele><time>2026-05-03T14:37:18Z</time></trkpt><trkpt lat="44.713440622857846" lon="9.572618991938482"><ele>434.0</ele><time>2026-05-03T14:37:18.999Z</time></trkpt><trkpt lat="44.71353684258266" lon="9.572686927957369"><ele>434.0</ele><time>2026-05-03T14:37:19.999Z</time></trkpt><trkpt lat="44.71365406966082" lon="9.572720149642794"><ele>431.25</ele><time>2026-05-03T14:37:20.999Z</time></trkpt><trkpt lat="44.71377974760028" lon="9.57272334661914"><ele>428.5</ele><time>2026-05-03T14:37:21.999Z</time></trkpt><trkpt lat="44.71388774865664" lon="9.572739168460041"><ele>425.75</ele><time>2026-05-03T14:37:22.999Z</time></trkpt><trkpt lat="44.71400576874565" lon="9.572779857305918"><ele>423.0</ele><time>2026-05-03T14:37:23.999Z</time></trkpt><trkpt lat="44.71411962983352" lon="9.57284374171044"><ele>423.2</ele><time>2026-05-03T14:37:24.999Z</time></trkpt><trkpt lat="44.71421076814354" lon="9.572936442859135"><ele>423.4</ele><time>2026-05-03T14:37:25.999Z</time></trkpt><trkpt lat="44.71427528584699" lon="9.573058315741028"><ele>423.59999999999997</ele><time>2026-05-03T14:37:26.999Z</time></trkpt><trkpt lat="44.714325812099965" lon="9.573193938371857"><ele>423.79999999999995</ele><time>2026-05-03T14:37:27.999Z</time></trkpt><trkpt lat="44.71436791484756" lon="9.573347360485972"><ele>424.0</ele><time>2026-05-03T14:37:28.999Z</time></trkpt><trkpt lat="44.71442164156018" lon="9.573511100845849"><ele>424.0</ele><time>2026-05-03T14:37:29.999Z</time></trkpt><trkpt lat="44.71448803187461" lon="9.573665502420578"><ele>424.0</ele><time>2026-05-03T14:37:30.999Z</time></trkpt><trkpt lat="44.71455685749543" lon="9.573797862264747"><ele>424.0</ele><time>2026-05-03T14:37:31.999Z</time></trkpt><trkpt lat="44.71462104996143" lon="9.573934163805982"><ele>424.0</ele><time>2026-05-03T14:37:32.999Z</time></trkpt><trkpt lat="44.71466488324689" lon="9.574079791267144"><ele>425.79999999999995</ele><time>2026-05-03T14:37:33.999Z</time></trkpt><trkpt lat="44.714699492191684" lon="9.574224577559887"><ele>427.59999999999997</ele><time>2026-05-03T14:37:34.999Z</time></trkpt><trkpt lat="44.71474792689154" lon="9.574339824312322"><ele>429.4</ele><time>2026-05-03T14:37:35.999Z</time></trkpt><trkpt lat="44.714819662282636" lon="9.57441208709845"><ele>431.2</ele><time>2026-05-03T14:37:36.999Z</time></trkpt><trkpt lat="44.71490129398939" lon="9.574419156153475"><ele>433.0</ele><time>2026-05-03T14:37:37.999Z</time></trkpt><trkpt lat="44.71498535922877" lon="9.57438630253059"><ele>433.0</ele><time>2026-05-03T14:37:38.999Z</time></trkpt><trkpt lat="44.71507699742772" lon="9.574337208892231"><ele>432.99999999999994</ele><time>2026-05-03T14:37:39.999Z</time></trkpt><trkpt lat="44.71517484237799" lon="9.574273854761493"><ele>432.99999999999994</ele><time>2026-05-03T14:37:40.999Z</time></trkpt><trkpt lat="44.71526438133481" lon="9.574238755219461"><ele>433.0</ele><time>2026-05-03T14:37:41.999Z</time></trkpt><trkpt lat="44.715340604310704" lon="9.57426741534199"><ele>433.0</ele><time>2026-05-03T14:37:42.999Z</time></trkpt><trkpt lat="44.715398095880985" lon="9.574351823500775"><ele>432.0</ele><time>2026-05-03T14:37:43.999Z</time></trkpt><trkpt lat="44.71545057609586" lon="9.574467525637075"><ele>431.0</ele><time>2026-05-03T14:37:44.999Z</time></trkpt><trkpt lat="44.71550386099931" lon="9.574613068183208"><ele>430.0</ele><time>2026-05-03T14:37:45.999Z</time></trkpt><trkpt lat="44.715570901535834" lon="9.574764866567621"><ele>429.0</ele><time>2026-05-03T14:37:46.999Z</time></trkpt><trkpt lat="44.71565746638342" lon="9.57493602153997"><ele>429.0</ele><time>2026-05-03T14:37:47.999Z</time></trkpt><trkpt lat="44.7157357648627" lon="9.575108849312254"><ele>429.0</ele><time>2026-05-03T14:37:48.999Z</time></trkpt><trkpt lat="44.71580280191175" lon="9.575258496310036"><ele>429.0</ele><time>2026-05-03T14:37:49.999Z</time></trkpt><trkpt lat="44.71586419516446" lon="9.575372831434608"><ele>429.0</ele><time>2026-05-03T14:37:50.999Z</time></trkpt><trkpt lat="44.715922391077406" lon="9.575462306983441"><ele>428.5</ele><time>2026-05-03T14:37:51.999Z</time></trkpt><trkpt lat="44.71596638945831" lon="9.57553679572786"><ele>428.0</ele><time>2026-05-03T14:37:52.999Z</time></trkpt><trkpt lat="44.716003463429054" lon="9.57562261562596"><ele>427.5</ele><time>2026-05-03T14:37:53.999Z</time></trkpt><trkpt lat="44.71604428042881" lon="9.575717493860605"><ele>427.0</ele><time>2026-05-03T14:37:55.999Z</time></trkpt><trkpt lat="44.71609982241857" lon="9.575804595422655"><ele>426.5</ele><time>2026-05-03T14:38:03.999Z</time></trkpt><trkpt lat="44.71612224362148" lon="9.575888091361943"><ele>426.0</ele><time>2026-05-03T14:38:04.999Z</time></trkpt><trkpt lat="44.71613559627829" lon="9.576018116571293"><ele>426.0</ele><time>2026-05-03T14:38:05.999Z</time></trkpt><trkpt lat="44.716169235411186" lon="9.57618126624271"><ele>426.0</ele><time>2026-05-03T14:38:06.999Z</time></trkpt><trkpt lat="44.71621877895719" lon="9.576321556248695"><ele>426.0</ele><time>2026-05-03T14:38:07.999Z</time></trkpt><trkpt lat="44.716257069398395" lon="9.576418176867678"><ele>426.0</ele><time>2026-05-03T14:38:08.999Z</time></trkpt><trkpt lat="44.71625407477569" lon="9.576507973794055"><ele>426.0</ele><time>2026-05-03T14:38:09.999Z</time></trkpt><trkpt lat="44.71622932793693" lon="9.576603612067835"><ele>426.0</ele><time>2026-05-03T14:38:10.999Z</time></trkpt><trkpt lat="44.71619134572547" lon="9.576687677625067"><ele>429.0</ele><time>2026-05-03T14:38:11.999Z</time></trkpt><trkpt lat="44.716143236367905" lon="9.576817869270258"><ele>432.0</ele><time>2026-05-03T14:38:13.999Z</time></trkpt><trkpt lat="44.71613440018794" lon="9.576911322618907"><ele>435.0</ele><time>2026-05-03T14:38:14.999Z</time></trkpt><trkpt lat="44.7161248465657" lon="9.577008522237824"><ele>438.0</ele><time>2026-05-03T14:38:15.999Z</time></trkpt><trkpt lat="44.71612569977751" lon="9.577166876592583"><ele>441.0</ele><time>2026-05-03T14:38:17.998Z</time></trkpt><trkpt lat="44.71620440568302" lon="9.577292444738028"><ele>445.6666666666667</ele><time>2026-05-03T14:38:19.998Z</time></trkpt><trkpt lat="44.71629854692181" lon="9.577328195900334"><ele>450.33333333333337</ele><time>2026-05-03T14:38:20.998Z</time></trkpt><trkpt lat="44.71638427392036" lon="9.577372463937992"><ele>455.0</ele><time>2026-05-03T14:38:21.998Z</time></trkpt><trkpt lat="44.71645564287702" lon="9.577458256796183"><ele>459.6666666666667</ele><time>2026-05-03T14:38:23.998Z</time></trkpt><trkpt lat="44.71652718025128" lon="9.577552717180968"><ele>464.33333333333337</ele><time>2026-05-03T14:38:25.998Z</time></trkpt><trkpt lat="44.71659143571286" lon="9.577543733165632"><ele>469.0</ele><time>2026-05-03T14:38:26.998Z</time></trkpt><trkpt lat="44.71665895474965" lon="9.57755417410328"><ele>469.0</ele><time>2026-05-03T14:38:27.998Z</time></trkpt><trkpt lat="44.716745662847515" lon="9.577664401745524"><ele>469.0</ele><time>2026-05-03T14:38:29.998Z</time></trkpt><trkpt lat="44.71684075546984" lon="9.577801262781058"><ele>469.0</ele><time>2026-05-03T14:38:31.998Z</time></trkpt><trkpt lat="44.7168940448724" lon="9.577868774322713"><ele>469.0</ele><time>2026-05-03T14:38:32.998Z</time></trkpt><trkpt lat="44.71695058152273" lon="9.577942852209066"><ele>469.0</ele><time>2026-05-03T14:38:33.998Z</time></trkpt><trkpt lat="44.71700486668818" lon="9.578005863005467"><ele>472.50000000000006</ele><time>2026-05-03T14:38:34.998Z</time></trkpt><trkpt lat="44.71707831738796" lon="9.57804255020951"><ele>476.0</ele><time>2026-05-03T14:38:35.998Z</time></trkpt><trkpt lat="44.71712875995343" lon="9.578096466195255"><ele>479.5</ele><time>2026-05-03T14:38:36.998Z</time></trkpt><trkpt lat="44.71719943933793" lon="9.578209140900714"><ele>483.0</ele><time>2026-05-03T14:38:38.998Z</time></trkpt><trkpt lat="44.71725384087055" lon="9.578291622010301"><ele>486.50000000000006</ele><time>2026-05-03T14:38:39.998Z</time></trkpt><trkpt lat="44.71731426282738" lon="9.578379268522438"><ele>490.0</ele><time>2026-05-03T14:38:40.998Z</time></trkpt><trkpt lat="44.71738943134495" lon="9.57844264626279"><ele>490.0</ele><time>2026-05-03T14:38:41.998Z</time></trkpt><trkpt lat="44.71750060523246" lon="9.578446510668863"><ele>490.0</ele><time>2026-05-03T14:38:44Z</time></trkpt><trkpt lat="44.71756992145067" lon="9.57852130632979"><ele>490.0</ele><time>2026-05-03T14:38:46Z</time></trkpt><trkpt lat="44.71761497385434" lon="9.578663452866202"><ele>490.0</ele><time>2026-05-03T14:38:48Z</time></trkpt><trkpt lat="44.717571038987195" lon="9.578799167394585"><ele>490.0</ele><time>2026-05-03T14:38:50Z</time></trkpt><trkpt lat="44.71752758795839" lon="9.578953686541524"><ele>493.83333333333337</ele><time>2026-05-03T14:38:52Z</time></trkpt><trkpt lat="44.71754731304048" lon="9.579120477879927"><ele>497.6666666666667</ele><time>2026-05-03T14:38:54Z</time></trkpt><trkpt lat="44.71755895606204" lon="9.579262354941916"><ele>501.5</ele><time>2026-05-03T14:38:56Z</time></trkpt><trkpt lat="44.71756048699197" lon="9.579357653922592"><ele>505.33333333333337</ele><time>2026-05-03T14:38:57Z</time></trkpt><trkpt lat="44.717592421600685" lon="9.579442321659783"><ele>509.1666666666667</ele><time>2026-05-03T14:38:58Z</time></trkpt><trkpt lat="44.71764400527565" lon="9.579512577003051"><ele>513.0</ele><time>2026-05-03T14:38:59Z</time></trkpt><trkpt lat="44.71767356836999" lon="9.579607934197863"><ele>517.6</ele><time>2026-05-03T14:39:00Z</time></trkpt><trkpt lat="44.71768679787906" lon="9.579710686338691"><ele>522.1999999999999</ele><time>2026-05-03T14:39:01Z</time></trkpt><trkpt lat="44.717657142058776" lon="9.579865989395836"><ele>526.8</ele><time>2026-05-03T14:39:03Z</time></trkpt><trkpt lat="44.71770068606687" lon="9.579965977513062"><ele>531.4</ele><time>2026-05-03T14:39:06Z</time></trkpt><trkpt lat="44.71782405277183" lon="9.579993255825515"><ele>536.0</ele><time>2026-05-03T14:39:08Z</time></trkpt><trkpt lat="44.717939503783626" lon="9.579974389409577"><ele>537.6666666666666</ele><time>2026-05-03T14:39:10Z</time></trkpt><trkpt lat="44.71804190098402" lon="9.57990171215709"><ele>539.3333333333333</ele><time>2026-05-03T14:39:12Z</time></trkpt><trkpt lat="44.71810119042386" lon="9.579864528639828"><ele>541.0</ele><time>2026-05-03T14:39:13Z</time></trkpt><trkpt lat="44.71822071113866" lon="9.579803375421543"><ele>542.6666666666666</ele><time>2026-05-03T14:39:15Z</time></trkpt><trkpt lat="44.71828578760605" lon="9.579754423859272"><ele>544.3333333333334</ele><time>2026-05-03T14:39:16Z</time></trkpt><trkpt lat="44.71834744193249" lon="9.57972738778433"><ele>546.0</ele><time>2026-05-03T14:39:17Z</time></trkpt><trkpt lat="44.71846282249367" lon="9.579670779603727"><ele>546.0</ele><time>2026-05-03T14:39:19Z</time></trkpt><trkpt lat="44.71853155582658" lon="9.579661070358629"><ele>546.0</ele><time>2026-05-03T14:39:20Z</time></trkpt><trkpt lat="44.71859268515775" lon="9.579792111750862"><ele>546.0</ele><time>2026-05-03T14:39:21.999Z</time></trkpt><trkpt lat="44.71863861366994" lon="9.579880537636846"><ele>546.0</ele><time>2026-05-03T14:39:22.999Z</time></trkpt><trkpt lat="44.71868629874816" lon="9.579944398259977"><ele>546.0</ele><time>2026-05-03T14:39:23.999Z</time></trkpt><trkpt lat="44.71880292824005" lon="9.579999350017088"><ele>546.0</ele><time>2026-05-03T14:39:25.999Z</time></trkpt><trkpt lat="44.718873099100236" lon="9.580052426617542"><ele>545.6</ele><time>2026-05-03T14:39:26.999Z</time></trkpt><trkpt lat="44.71896503297901" lon="9.58013927658062"><ele>545.2</ele><time>2026-05-03T14:39:27.999Z</time></trkpt><trkpt lat="44.71905040849409" lon="9.580204640722787"><ele>544.8</ele><time>2026-05-03T14:39:28.999Z</time></trkpt><trkpt lat="44.719126259990986" lon="9.580228931796393"><ele>544.4</ele><time>2026-05-03T14:39:29.999Z</time></trkpt><trkpt lat="44.719195835078295" lon="9.580247234371928"><ele>544.0</ele><time>2026-05-03T14:39:30.999Z</time></trkpt><trkpt lat="44.71928393890681" lon="9.58029130317395"><ele>544.0</ele><time>2026-05-03T14:39:31.999Z</time></trkpt><trkpt lat="44.719364261169545" lon="9.580322612592472"><ele>544.0</ele><time>2026-05-03T14:39:32.999Z</time></trkpt><trkpt lat="44.71942024314064" lon="9.580370777966497"><ele>544.0</ele><time>2026-05-03T14:39:33.999Z</time></trkpt><trkpt lat="44.71947462640665" lon="9.580435809049762"><ele>544.0</ele><time>2026-05-03T14:39:34.999Z</time></trkpt><trkpt lat="44.71955598436466" lon="9.580509601391523"><ele>544.0</ele><time>2026-05-03T14:39:36.999Z</time></trkpt><trkpt lat="44.71960133339226" lon="9.580582395975417"><ele>544.0</ele><time>2026-05-03T14:39:37.999Z</time></trkpt><trkpt lat="44.719659160144424" lon="9.580677311470286"><ele>548.2</ele><time>2026-05-03T14:39:38.999Z</time></trkpt><trkpt lat="44.71973369244731" lon="9.580763835495121"><ele>552.4</ele><time>2026-05-03T14:39:39.999Z</time></trkpt><trkpt lat="44.71986099491613" lon="9.580794105467952"><ele>556.6</ele><time>2026-05-03T14:39:41.999Z</time></trkpt><trkpt lat="44.719939548037296" lon="9.58096172290625"><ele>560.8</ele><time>2026-05-03T14:39:43.999Z</time></trkpt><trkpt lat="44.71998371197074" lon="9.5810262365128"><ele>565.0</ele><time>2026-05-03T14:39:44.999Z</time></trkpt><trkpt lat="44.720090064728055" lon="9.581059158183498"><ele>565.0</ele><time>2026-05-03T14:39:46.999Z</time></trkpt><trkpt lat="44.720173100231825" lon="9.581074061982507"><ele>565.0</ele><time>2026-05-03T14:39:47.999Z</time></trkpt><trkpt lat="44.720266470323025" lon="9.581084633087078"><ele>565.0</ele><time>2026-05-03T14:39:48.999Z</time></trkpt><trkpt lat="44.72033894264275" lon="9.58111130757687"><ele>565.0</ele><time>2026-05-03T14:39:49.999Z</time></trkpt><trkpt lat="44.72041378605205" lon="9.581154134066418"><ele>565.0</ele><time>2026-05-03T14:39:50.999Z</time></trkpt><trkpt lat="44.720499396811164" lon="9.581182990930001"><ele>565.0</ele><time>2026-05-03T14:39:51.999Z</time></trkpt><trkpt lat="44.72056654192752" lon="9.58121262106107"><ele>567.3333333333334</ele><time>2026-05-03T14:39:52.999Z</time></trkpt><trkpt lat="44.72064321888322" lon="9.581208168127173"><ele>569.6666666666667</ele><time>2026-05-03T14:39:53.999Z</time></trkpt><trkpt lat="44.720742050407026" lon="9.581236688621745"><ele>572.0</ele><time>2026-05-03T14:39:55.999Z</time></trkpt><trkpt lat="44.72075946968878" lon="9.581330891879542"><ele>574.3333333333334</ele><time>2026-05-03T14:39:56.999Z</time></trkpt><trkpt lat="44.72070581738601" lon="9.581489748858958"><ele>576.6666666666666</ele><time>2026-05-03T14:39:58.999Z</time></trkpt><trkpt lat="44.720683793054064" lon="9.581585526591653"><ele>579.0</ele><time>2026-05-03T14:39:59.999Z</time></trkpt><trkpt lat="44.72058244147162" lon="9.581707395015147"><ele>579.0</ele><time>2026-05-03T14:40:01.999Z</time></trkpt><trkpt lat="44.720499195093275" lon="9.581783371028711"><ele>579.0</ele><time>2026-05-03T14:40:02.999Z</time></trkpt><trkpt lat="44.72042854946528" lon="9.581834988656526"><ele>579.0</ele><time>2026-05-03T14:40:03.999Z</time></trkpt><trkpt lat="44.72036273895106" lon="9.581858972073855"><ele>579.0</ele><time>2026-05-03T14:40:04.999Z</time></trkpt><trkpt lat="44.72025747028499" lon="9.581963613814395"><ele>579.0</ele><time>2026-05-03T14:40:06.999Z</time></trkpt><trkpt lat="44.720159842197766" lon="9.581990082359274"><ele>583.0</ele><time>2026-05-03T14:40:09.999Z</time></trkpt><trkpt lat="44.72007572606279" lon="9.582005846822137"><ele>587.0</ele><time>2026-05-03T14:40:12.999Z</time></trkpt><trkpt lat="44.71996099163755" lon="9.582064398897293"><ele>591.0</ele><time>2026-05-03T14:40:14.999Z</time></trkpt><trkpt lat="44.71987562161808" lon="9.582098912212626"><ele>595.0</ele><time>2026-05-03T14:40:15.999Z</time></trkpt><trkpt lat="44.71981580681695" lon="9.582130042646307"><ele>599.0</ele><time>2026-05-03T14:40:16.999Z</time></trkpt><trkpt lat="44.71972315881872" lon="9.58218087443418"><ele>603.0</ele><time>2026-05-03T14:40:18.999Z</time></trkpt><trkpt lat="44.719665702924395" lon="9.582234217331376"><ele>607.0</ele><time>2026-05-03T14:40:20.998Z</time></trkpt><trkpt lat="44.71957021922724" lon="9.582277865637192"><ele>611.0</ele><time>2026-05-03T14:40:22.998Z</time></trkpt><trkpt lat="44.71946592695443" lon="9.58227451140348"><ele>615.0</ele><time>2026-05-03T14:40:24.998Z</time></trkpt><trkpt lat="44.71940643123533" lon="9.582223064885685"><ele>619.0</ele><time>2026-05-03T14:40:28.998Z</time></trkpt><trkpt lat="44.719335011977705" lon="9.58217450631597"><ele>623.0</ele><time>2026-05-03T14:40:31.998Z</time></trkpt><trkpt lat="44.71929308866322" lon="9.582083963678057"><ele>624.1666666666666</ele><time>2026-05-03T14:40:35.998Z</time></trkpt><trkpt lat="44.71923136292172" lon="9.582023563666931"><ele>625.3333333333333</ele><time>2026-05-03T14:40:41.998Z</time></trkpt><trkpt lat="44.71915390967372" lon="9.582027452804109"><ele>626.5</ele><time>2026-05-03T14:40:44.998Z</time></trkpt><trkpt lat="44.71914707675519" lon="9.582141069755599"><ele>627.6666666666666</ele><time>2026-05-03T14:40:47.998Z</time></trkpt><trkpt lat="44.71917966724836" lon="9.582242146510527"><ele>628.8333333333334</ele><time>2026-05-03T14:40:49Z</time></trkpt><trkpt lat="44.71920898791013" lon="9.5823289247139"><ele>630.0</ele><time>2026-05-03T14:40:50Z</time></trkpt><trkpt lat="44.71919507062173" lon="9.58242356430325"><ele>630.0</ele><time>2026-05-03T14:40:55Z</time></trkpt><trkpt lat="44.71911802653276" lon="9.582362934410616"><ele>630.0</ele><time>2026-05-03T14:41:00Z</time></trkpt><trkpt lat="44.719096814272774" lon="9.582463407012867"><ele>630.0</ele><time>2026-05-03T14:41:07Z</time></trkpt><trkpt lat="44.71911283329424" lon="9.582603515176153"><ele>630.0</ele><time>2026-05-03T14:41:10Z</time></trkpt><trkpt lat="44.7191397335238" lon="9.582710408331042"><ele>630.0</ele><time>2026-05-03T14:41:13Z</time></trkpt><trkpt lat="44.71918824641544" lon="9.582905395804278"><ele>633.4</ele><time>2026-05-03T14:41:15Z</time></trkpt><trkpt lat="44.71930338457807" lon="9.583057353733855"><ele>636.8</ele><time>2026-05-03T14:41:17Z</time></trkpt><trkpt lat="44.71936669253131" lon="9.583143917240132"><ele>640.2</ele><time>2026-05-03T14:41:18Z</time></trkpt><trkpt lat="44.7194128213793" lon="9.583226079864525"><ele>643.6</ele><time>2026-05-03T14:41:19Z</time></trkpt><trkpt lat="44.71947290231987" lon="9.583364612686907"><ele>647.0</ele><time>2026-05-03T14:41:21Z</time></trkpt><trkpt lat="44.719536193570356" lon="9.58347136214526"><ele>647.0</ele><time>2026-05-03T14:41:23Z</time></trkpt><trkpt lat="44.71961100839096" lon="9.583483797549393"><ele>647.0</ele><time>2026-05-03T14:41:25Z</time></trkpt><trkpt lat="44.719501781504164" lon="9.583444735877382"><ele>647.0</ele><time>2026-05-03T14:42:14.999Z</time></trkpt><trkpt lat="44.71941988733792" lon="9.58341149473962"><ele>647.0</ele><time>2026-05-03T14:42:15.999Z</time></trkpt><trkpt lat="44.71932730044902" lon="9.58335459228988"><ele>647.0</ele><time>2026-05-03T14:42:16.999Z</time></trkpt><trkpt lat="44.71924202572352" lon="9.583339834156797"><ele>649.1666666666666</ele><time>2026-05-03T14:42:17.999Z</time></trkpt><trkpt lat="44.719179661300956" lon="9.58337235966139"><ele>651.3333333333333</ele><time>2026-05-03T14:42:18.999Z</time></trkpt><trkpt lat="44.71908726514466" lon="9.583388267816005"><ele>653.5</ele><time>2026-05-03T14:42:19.999Z</time></trkpt><trkpt lat="44.71899494465766" lon="9.583423062624917"><ele>655.6666666666666</ele><time>2026-05-03T14:42:20.999Z</time></trkpt><trkpt lat="44.71892958335367" lon="9.583479415646762"><ele>657.8333333333334</ele><time>2026-05-03T14:42:21.999Z</time></trkpt><trkpt lat="44.71885358809864" lon="9.583508755610744"><ele>660.0</ele><time>2026-05-03T14:42:22.999Z</time></trkpt><trkpt lat="44.71877297830266" lon="9.583532231239458"><ele>660.0</ele><time>2026-05-03T14:42:23.999Z</time></trkpt><trkpt lat="44.7187035410113" lon="9.58354928874495"><ele>660.0</ele><time>2026-05-03T14:42:24.999Z</time></trkpt><trkpt lat="44.71862222263013" lon="9.583560918477518"><ele>660.0</ele><time>2026-05-03T14:42:25.999Z</time></trkpt><trkpt lat="44.718536179526446" lon="9.583569812979079"><ele>660.0</ele><time>2026-05-03T14:42:26.999Z</time></trkpt><trkpt lat="44.71843333595339" lon="9.58355999110601"><ele>660.0</ele><time>2026-05-03T14:42:27.998Z</time></trkpt><trkpt lat="44.7183469662385" lon="9.583538054639819"><ele>660.0</ele><time>2026-05-03T14:42:28.998Z</time></trkpt><trkpt lat="44.718280486751816" lon="9.583528242696001"><ele>661.0</ele><time>2026-05-03T14:42:29.998Z</time></trkpt><trkpt lat="44.71821301862177" lon="9.583562229553262"><ele>662.0</ele><time>2026-05-03T14:42:30.998Z</time></trkpt><trkpt lat="44.71813716819731" lon="9.58360279159472"><ele>663.0</ele><time>2026-05-03T14:42:31.998Z</time></trkpt><trkpt lat="44.718041373615826" lon="9.583667670069946"><ele>664.0</ele><time>2026-05-03T14:42:33.998Z</time></trkpt><trkpt lat="44.71797425146283" lon="9.583687435122618"><ele>665.0</ele><time>2026-05-03T14:42:34.998Z</time></trkpt><trkpt lat="44.71786608262476" lon="9.58370658013738"><ele>666.0</ele><time>2026-05-03T14:42:36.998Z</time></trkpt><trkpt lat="44.71773877598657" lon="9.583749562239124"><ele>669.0</ele><time>2026-05-03T14:42:38.998Z</time></trkpt><trkpt lat="44.71767125494818" lon="9.583779514986738"><ele>672.0</ele><time>2026-05-03T14:42:39.998Z</time></trkpt><trkpt lat="44.71760773026709" lon="9.583830071791649"><ele>675.0</ele><time>2026-05-03T14:42:40.998Z</time></trkpt><trkpt lat="44.71755148448878" lon="9.583901532442491"><ele>678.0</ele><time>2026-05-03T14:42:41.998Z</time></trkpt><trkpt lat="44.71749510882648" lon="9.583981603202712"><ele>681.0</ele><time>2026-05-03T14:42:42.998Z</time></trkpt><trkpt lat="44.71742883206373" lon="9.584060225120943"><ele>684.0</ele><time>2026-05-03T14:42:43.998Z</time></trkpt><trkpt lat="44.717375810776474" lon="9.584128901447917"><ele>684.0</ele><time>2026-05-03T14:42:44.998Z</time></trkpt><trkpt lat="44.71729873900159" lon="9.584229336561927"><ele>684.0</ele><time>2026-05-03T14:42:46.998Z</time></trkpt><trkpt lat="44.71721962610437" lon="9.584336542083065"><ele>684.0</ele><time>2026-05-03T14:42:48.998Z</time></trkpt><trkpt lat="44.717171067873366" lon="9.584413937579093"><ele>684.0</ele><time>2026-05-03T14:42:49.998Z</time></trkpt><trkpt lat="44.71711247794138" lon="9.584498960584037"><ele>684.0</ele><time>2026-05-03T14:42:50.998Z</time></trkpt><trkpt lat="44.717046926876804" lon="9.584581178470724"><ele>685.8333333333334</ele><time>2026-05-03T14:42:51.998Z</time></trkpt><trkpt lat="44.7169803836051" lon="9.584661854307852"><ele>687.6666666666666</ele><time>2026-05-03T14:42:52.998Z</time></trkpt><trkpt lat="44.71691426135878" lon="9.584720972884893"><ele>689.5</ele><time>2026-05-03T14:42:53.998Z</time></trkpt><trkpt lat="44.716855922256464" lon="9.584762874645163"><ele>691.3333333333333</ele><time>2026-05-03T14:42:55Z</time></trkpt><trkpt lat="44.716743554914274" lon="9.58481703078977"><ele>693.1666666666666</ele><time>2026-05-03T14:42:57Z</time></trkpt><trkpt lat="44.71668129838827" lon="9.584796252921016"><ele>695.0</ele><time>2026-05-03T14:42:58Z</time></trkpt><trkpt lat="44.716587908077074" lon="9.584810474651155"><ele>695.0</ele><time>2026-05-03T14:43:00Z</time></trkpt><trkpt lat="44.716567345102774" lon="9.58490856955826"><ele>695.0</ele><time>2026-05-03T14:43:02Z</time></trkpt><trkpt lat="44.71654791268461" lon="9.585027653299234"><ele>695.0</ele><time>2026-05-03T14:43:04Z</time></trkpt><trkpt lat="44.716502574091855" lon="9.5850937341277"><ele>695.0</ele><time>2026-05-03T14:43:05Z</time></trkpt><trkpt lat="44.71645614404675" lon="9.585200671359157"><ele>695.0</ele><time>2026-05-03T14:43:07Z</time></trkpt><trkpt lat="44.716419900931804" lon="9.585323632733864"><ele>695.0</ele><time>2026-05-03T14:43:14Z</time></trkpt><trkpt lat="44.7163455915266" lon="9.585409340889374"><ele>695.5</ele><time>2026-05-03T14:43:16Z</time></trkpt><trkpt lat="44.716285463824406" lon="9.585439888390871"><ele>696.0</ele><time>2026-05-03T14:43:17Z</time></trkpt><trkpt lat="44.716201498221075" lon="9.58546142436016"><ele>696.5</ele><time>2026-05-03T14:43:18Z</time></trkpt><trkpt lat="44.71612632511742" lon="9.585489035691229"><ele>697.0</ele><time>2026-05-03T14:43:19Z</time></trkpt><trkpt lat="44.716037964580856" lon="9.58543610579692"><ele>697.5</ele><time>2026-05-03T14:43:21Z</time></trkpt><trkpt lat="44.71597794003391" lon="9.585362947150172"><ele>698.0</ele><time>2026-05-03T14:43:22Z</time></trkpt><trkpt lat="44.71589787023269" lon="9.585309571515644"><ele>698.0</ele><time>2026-05-03T14:43:23Z</time></trkpt><trkpt lat="44.715820485302935" lon="9.585320707715105"><ele>698.0</ele><time>2026-05-03T14:43:24Z</time></trkpt><trkpt lat="44.71575055178842" lon="9.585364849702767"><ele>698.0</ele><time>2026-05-03T14:43:25Z</time></trkpt><trkpt lat="44.715676920234564" lon="9.585437296259252"><ele>698.0</ele><time>2026-05-03T14:43:26Z</time></trkpt><trkpt lat="44.71557703700967" lon="9.585529010553554"><ele>698.0</ele><time>2026-05-03T14:43:27.999Z</time></trkpt><trkpt lat="44.71551691169473" lon="9.585589877951731"><ele>698.0</ele><time>2026-05-03T14:43:28.999Z</time></trkpt><trkpt lat="44.71544469226174" lon="9.585650369794369"><ele>703.0</ele><time>2026-05-03T14:43:29.999Z</time></trkpt><trkpt lat="44.71535622747183" lon="9.58571350433134"><ele>708.0</ele><time>2026-05-03T14:43:30.999Z</time></trkpt><trkpt lat="44.71528923199104" lon="9.585754097317688"><ele>713.0</ele><time>2026-05-03T14:43:31.999Z</time></trkpt><trkpt lat="44.715217188859626" lon="9.585764376675954"><ele>718.0</ele><time>2026-05-03T14:43:32.999Z</time></trkpt><trkpt lat="44.7151317359437" lon="9.585863683639865"><ele>723.0</ele><time>2026-05-03T14:43:34.999Z</time></trkpt><trkpt lat="44.71515241543204" lon="9.586011521436859"><ele>723.0</ele><time>2026-05-03T14:43:36.999Z</time></trkpt><trkpt lat="44.715262453021246" lon="9.586053634337974"><ele>723.0</ele><time>2026-05-03T14:43:38.999Z</time></trkpt><trkpt lat="44.71535346336383" lon="9.586036052429236"><ele>723.0</ele><time>2026-05-03T14:43:39.999Z</time></trkpt><trkpt lat="44.71545871898503" lon="9.586031851210002"><ele>723.0</ele><time>2026-05-03T14:43:40.999Z</time></trkpt><trkpt lat="44.71552504707846" lon="9.586039267855082"><ele>723.0</ele><time>2026-05-03T14:43:41.999Z</time></trkpt><trkpt lat="44.71557667208058" lon="9.586150970401393"><ele>725.8333333333334</ele><time>2026-05-03T14:43:43.999Z</time></trkpt><trkpt lat="44.71559020192112" lon="9.586258894597089"><ele>728.6666666666666</ele><time>2026-05-03T14:43:44.999Z</time></trkpt><trkpt lat="44.71564227211115" lon="9.586374276464394"><ele>731.5</ele><time>2026-05-03T14:43:45.999Z</time></trkpt><trkpt lat="44.71570912540038" lon="9.586484977924062"><ele>734.3333333333333</ele><time>2026-05-03T14:43:46.999Z</time></trkpt><trkpt lat="44.71573037151292" lon="9.586570539285917"><ele>737.1666666666666</ele><time>2026-05-03T14:43:47.999Z</time></trkpt><trkpt lat="44.715729493264725" lon="9.586672510057687"><ele>740.0</ele><time>2026-05-03T14:43:48.999Z</time></trkpt><trkpt lat="44.71572997512941" lon="9.586786067481256"><ele>740.0</ele><time>2026-05-03T14:43:49.999Z</time></trkpt><trkpt lat="44.7157769742577" lon="9.586906009000234"><ele>740.0</ele><time>2026-05-03T14:43:50.999Z</time></trkpt><trkpt lat="44.715849344601715" lon="9.587012317428538"><ele>740.0</ele><time>2026-05-03T14:43:51.999Z</time></trkpt><trkpt lat="44.71591987620404" lon="9.587103324590718"><ele>740.0</ele><time>2026-05-03T14:43:52.999Z</time></trkpt><trkpt lat="44.71599699606181" lon="9.587136966962538"><ele>740.0</ele><time>2026-05-03T14:43:53.999Z</time></trkpt><trkpt lat="44.71607582574994" lon="9.587176648521996"><ele>744.5</ele><time>2026-05-03T14:43:54.999Z</time></trkpt><trkpt lat="44.716154185407525" lon="9.587234004339107"><ele>749.0</ele><time>2026-05-03T14:43:55.999Z</time></trkpt><trkpt lat="44.716199341339156" lon="9.587316557959888"><ele>753.5</ele><time>2026-05-03T14:43:56.999Z</time></trkpt><trkpt lat="44.71621132743083" lon="9.58747778484879"><ele>758.0</ele><time>2026-05-03T14:43:58.999Z</time></trkpt><trkpt lat="44.71620647712022" lon="9.587584289971891"><ele>762.5</ele><time>2026-05-03T14:43:59.999Z</time></trkpt><trkpt lat="44.716204452385355" lon="9.587689549296075"><ele>767.0</ele><time>2026-05-03T14:44:00.999Z</time></trkpt><trkpt lat="44.71623856707037" lon="9.58783948147643"><ele>768.6666666666666</ele><time>2026-05-03T14:44:02.999Z</time></trkpt><trkpt lat="44.71627968032909" lon="9.587922779370809"><ele>770.3333333333333</ele><time>2026-05-03T14:44:03.999Z</time></trkpt><trkpt lat="44.71632577605558" lon="9.588028648518872"><ele>772.0</ele><time>2026-05-03T14:44:04.999Z</time></trkpt><trkpt lat="44.71636221933906" lon="9.588126086875548"><ele>773.6666666666666</ele><time>2026-05-03T14:44:05.999Z</time></trkpt><trkpt lat="44.71640523565512" lon="9.588225947436053"><ele>775.3333333333334</ele><time>2026-05-03T14:44:06.999Z</time></trkpt><trkpt lat="44.71643860661947" lon="9.588323179320815"><ele>777.0</ele><time>2026-05-03T14:44:07.999Z</time></trkpt><trkpt lat="44.71645433416313" lon="9.588536823438625"><ele>777.0</ele><time>2026-05-03T14:44:09.999Z</time></trkpt><trkpt lat="44.71646832279578" lon="9.58865418387098"><ele>777.0</ele><time>2026-05-03T14:44:10.999Z</time></trkpt><trkpt lat="44.71648443022746" lon="9.588745141480084"><ele>777.0</ele><time>2026-05-03T14:44:11.999Z</time></trkpt><trkpt lat="44.71654925630711" lon="9.588897134033596"><ele>777.0</ele><time>2026-05-03T14:44:13.999Z</time></trkpt><trkpt lat="44.7165817000791" lon="9.58901284526261"><ele>777.0</ele><time>2026-05-03T14:44:15.999Z</time></trkpt><trkpt lat="44.71657568994109" lon="9.58915943149881"><ele>778.1666666666666</ele><time>2026-05-03T14:44:17.999Z</time></trkpt><trkpt lat="44.71656328081469" lon="9.589260244751479"><ele>779.3333333333333</ele><time>2026-05-03T14:44:18.999Z</time></trkpt><trkpt lat="44.716539105964806" lon="9.589354654978088"><ele>780.5</ele><time>2026-05-03T14:44:19.999Z</time></trkpt><trkpt lat="44.71647913117176" lon="9.589517947821175"><ele>781.6666666666666</ele><time>2026-05-03T14:44:21.998Z</time></trkpt><trkpt lat="44.71646090854958" lon="9.589605006262898"><ele>782.8333333333333</ele><time>2026-05-03T14:44:22.998Z</time></trkpt><trkpt lat="44.716407538111554" lon="9.58969923554807"><ele>784.0</ele><time>2026-05-03T14:44:23.998Z</time></trkpt><trkpt lat="44.716350991320056" lon="9.589762779580038"><ele>788.1666666666666</ele><time>2026-05-03T14:44:24.998Z</time></trkpt><trkpt lat="44.71628837306443" lon="9.58990863669072"><ele>792.3333333333333</ele><time>2026-05-03T14:44:26.998Z</time></trkpt><trkpt lat="44.71626492735771" lon="9.590003370478374"><ele>796.5</ele><time>2026-05-03T14:44:27.998Z</time></trkpt><trkpt lat="44.71621627702808" lon="9.590105677704035"><ele>800.6666666666667</ele><time>2026-05-03T14:44:28.998Z</time></trkpt><trkpt lat="44.716164124172" lon="9.590181624926345"><ele>804.8333333333334</ele><time>2026-05-03T14:44:29.998Z</time></trkpt><trkpt lat="44.716119449611796" lon="9.590252966902757"><ele>809.0</ele><time>2026-05-03T14:44:30.998Z</time></trkpt><trkpt lat="44.716091320158995" lon="9.590333548036856"><ele>808.8333333333334</ele><time>2026-05-03T14:44:31.998Z</time></trkpt><trkpt lat="44.71605187667466" lon="9.590404713053399"><ele>808.6666666666667</ele><time>2026-05-03T14:44:32.998Z</time></trkpt><trkpt lat="44.7159910530158" lon="9.59048324677382"><ele>808.5</ele><time>2026-05-03T14:44:33.998Z</time></trkpt><trkpt lat="44.7159504409835" lon="9.590556282723476"><ele>808.3333333333333</ele><time>2026-05-03T14:44:34.998Z</time></trkpt><trkpt lat="44.71591066703897" lon="9.59069588935717"><ele>808.1666666666666</ele><time>2026-05-03T14:44:36.998Z</time></trkpt><trkpt lat="44.7158856774513" lon="9.590804872281437"><ele>808.0</ele><time>2026-05-03T14:44:37.998Z</time></trkpt><trkpt lat="44.71586118937825" lon="9.59090841648338"><ele>807.9999999999999</ele><time>2026-05-03T14:44:38.998Z</time></trkpt><trkpt lat="44.71581053909067" lon="9.590982883848994"><ele>808.0</ele><time>2026-05-03T14:44:39.998Z</time></trkpt><trkpt lat="44.715751208672394" lon="9.591050138768738"><ele>808.0</ele><time>2026-05-03T14:44:40.998Z</time></trkpt><trkpt lat="44.715719721218896" lon="9.591150343044124"><ele>808.0</ele><time>2026-05-03T14:44:41.998Z</time></trkpt><trkpt lat="44.71564331438031" lon="9.59126423267239"><ele>807.9999999999999</ele><time>2026-05-03T14:44:43.998Z</time></trkpt><trkpt lat="44.7155573339083" lon="9.591335577353618"><ele>808.0</ele><time>2026-05-03T14:44:45.998Z</time></trkpt><trkpt lat="44.715438740506364" lon="9.591321744833538"><ele>809.9999999999999</ele><time>2026-05-03T14:44:47.998Z</time></trkpt><trkpt lat="44.71535369200252" lon="9.591293517159835"><ele>812.0</ele><time>2026-05-03T14:44:49.998Z</time></trkpt><trkpt lat="44.71529790559755" lon="9.59133798690738"><ele>814.0</ele><time>2026-05-03T14:44:52.998Z</time></trkpt><trkpt lat="44.71523346479167" lon="9.591361767191058"><ele>816.0</ele><time>2026-05-03T14:44:56.998Z</time></trkpt><trkpt lat="44.71518094160758" lon="9.591421952957896"><ele>817.9999999999999</ele><time>2026-05-03T14:45:03Z</time></trkpt><trkpt lat="44.71523994629555" lon="9.591470879702113"><ele>820.0</ele><time>2026-05-03T14:45:08Z</time></trkpt><trkpt lat="44.71529403065601" lon="9.59158266821082"><ele>820.0</ele><time>2026-05-03T14:45:11Z</time></trkpt><trkpt lat="44.71524066382266" lon="9.5916640757626"><ele>820.0</ele><time>2026-05-03T14:45:13Z</time></trkpt><trkpt lat="44.71517073975668" lon="9.591674053402993"><ele>820.0</ele><time>2026-05-03T14:45:16Z</time></trkpt><trkpt lat="44.71512565271931" lon="9.59174759049476"><ele>820.0</ele><time>2026-05-03T14:45:20Z</time></trkpt><trkpt lat="44.71507833829902" lon="9.591824208732376"><ele>820.0</ele><time>2026-05-03T14:46:03.999Z</time></trkpt><trkpt lat="44.71503532441668" lon="9.591911463563367"><ele>820.0</ele><time>2026-05-03T14:46:24.999Z</time></trkpt><trkpt lat="44.71501363411644" lon="9.591997963099413"><ele>820.0</ele><time>2026-05-03T14:46:28.999Z</time></trkpt><trkpt lat="44.71499306516915" lon="9.592093710389005"><ele>823.2</ele><time>2026-05-03T14:46:31.999Z</time></trkpt><trkpt lat="44.7149810731739" lon="9.592192338924997"><ele>826.4</ele><time>2026-05-03T14:46:32.999Z</time></trkpt><trkpt lat="44.71495272748458" lon="9.592337587352146"><ele>829.5999999999999</ele><time>2026-05-03T14:46:35.999Z</time></trkpt><trkpt lat="44.71492662784243" lon="9.592450452623776"><ele>832.8</ele><time>2026-05-03T14:46:37.998Z</time></trkpt><trkpt lat="44.71486992483206" lon="9.592627944226377"><ele>836.0</ele><time>2026-05-03T14:46:38.998Z</time></trkpt><trkpt lat="44.714859053383066" lon="9.592720303540858"><ele>836.0000000000001</ele><time>2026-05-03T14:46:39.998Z</time></trkpt><trkpt lat="44.71483702818407" lon="9.592824943353222"><ele>836.0</ele><time>2026-05-03T14:46:41.998Z</time></trkpt><trkpt lat="44.71483650381174" lon="9.592915659088643"><ele>836.0</ele><time>2026-05-03T14:46:43.998Z</time></trkpt><trkpt lat="44.71481492823314" lon="9.593006574277986"><ele>836.0</ele><time>2026-05-03T14:46:51.998Z</time></trkpt><trkpt lat="44.71477203430842" lon="9.593072131857765"><ele>836.0000000000001</ele><time>2026-05-03T14:46:53.998Z</time></trkpt><trkpt lat="44.71466166251041" lon="9.593069069982416"><ele>836.0</ele><time>2026-05-03T14:46:54.998Z</time></trkpt><trkpt lat="44.71453544474835" lon="9.59312799980339"><ele>837.0000000000001</ele><time>2026-05-03T14:46:55.998Z</time></trkpt><trkpt lat="44.71445952996235" lon="9.593161131592325"><ele>838.0</ele><time>2026-05-03T14:46:56.998Z</time></trkpt><trkpt lat="44.71440718076294" lon="9.59321564092141"><ele>839.0</ele><time>2026-05-03T14:46:57.998Z</time></trkpt><trkpt lat="44.7143252937384" lon="9.593283561827349"><ele>840.0</ele><time>2026-05-03T14:46:59.998Z</time></trkpt><trkpt lat="44.71427074396788" lon="9.593361953197151"><ele>841.0000000000001</ele><time>2026-05-03T14:47:00.998Z</time></trkpt><trkpt lat="44.71422756156299" lon="9.593460539180617"><ele>842.0</ele><time>2026-05-03T14:47:01.998Z</time></trkpt><trkpt lat="44.714167257796625" lon="9.593548470400954"><ele>842.0000000000001</ele><time>2026-05-03T14:47:02.998Z</time></trkpt><trkpt lat="44.714081785143655" lon="9.593627483455945"><ele>842.0</ele><time>2026-05-03T14:47:03.998Z</time></trkpt><trkpt lat="44.714000682226754" lon="9.59370801605338"><ele>842.0</ele><time>2026-05-03T14:47:04.998Z</time></trkpt><trkpt lat="44.7139375736187" lon="9.593779265786994"><ele>842.0</ele><time>2026-05-03T14:47:05.998Z</time></trkpt><trkpt lat="44.713886961388006" lon="9.593836285347136"><ele>842.0000000000001</ele><time>2026-05-03T14:47:07Z</time></trkpt><trkpt lat="44.71382584730782" lon="9.593888517549608"><ele>842.0</ele><time>2026-05-03T14:47:08Z</time></trkpt><trkpt lat="44.71375993927841" lon="9.59393943080664"><ele>844.0000000000001</ele><time>2026-05-03T14:47:09Z</time></trkpt><trkpt lat="44.713697313540656" lon="9.593994794561015"><ele>846.0</ele><time>2026-05-03T14:47:10Z</time></trkpt><trkpt lat="44.713636644264746" lon="9.59405790767665"><ele>848.0</ele><time>2026-05-03T14:47:11Z</time></trkpt><trkpt lat="44.71358065506899" lon="9.594116897327423"><ele>850.0</ele><time>2026-05-03T14:47:12Z</time></trkpt><trkpt lat="44.71352292986212" lon="9.594190924202033"><ele>852.0</ele><time>2026-05-03T14:47:13Z</time></trkpt><trkpt lat="44.713471848872146" lon="9.59427392987415"><ele>854.0000000000001</ele><time>2026-05-03T14:47:14Z</time></trkpt><trkpt lat="44.71342912677355" lon="9.594350959867818"><ele>856.0</ele><time>2026-05-03T14:47:15Z</time></trkpt><trkpt lat="44.713371855895325" lon="9.594413559651608"><ele>856.1666666666666</ele><time>2026-05-03T14:47:16Z</time></trkpt><trkpt lat="44.71330796978752" lon="9.59444682743322"><ele>856.3333333333333</ele><time>2026-05-03T14:47:17Z</time></trkpt><trkpt lat="44.713243501968435" lon="9.594460508275528"><ele>856.5</ele><time>2026-05-03T14:47:18Z</time></trkpt><trkpt lat="44.7131753238544" lon="9.594481204688124"><ele>856.6666666666667</ele><time>2026-05-03T14:47:19Z</time></trkpt><trkpt lat="44.71310634642584" lon="9.594515979419985"><ele>856.8333333333334</ele><time>2026-05-03T14:47:20Z</time></trkpt><trkpt lat="44.713002761680244" lon="9.594597380577206"><ele>857.0</ele><time>2026-05-03T14:47:22Z</time></trkpt><trkpt lat="44.71295351245936" lon="9.594656788995346"><ele>859.0000000000001</ele><time>2026-05-03T14:47:23Z</time></trkpt><trkpt lat="44.71290262544394" lon="9.594726972552344"><ele>861.0</ele><time>2026-05-03T14:47:24Z</time></trkpt><trkpt lat="44.71285456668002" lon="9.594788627784013"><ele>863.0</ele><time>2026-05-03T14:47:25Z</time></trkpt><trkpt lat="44.7128156569377" lon="9.594863489929335"><ele>865.0</ele><time>2026-05-03T14:47:26Z</time></trkpt><trkpt lat="44.71277618668951" lon="9.594985803678782"><ele>867.0000000000001</ele><time>2026-05-03T14:47:28Z</time></trkpt><trkpt lat="44.71271509672172" lon="9.595059889243055"><ele>869.0</ele><time>2026-05-03T14:47:30Z</time></trkpt><trkpt lat="44.71267340217578" lon="9.59514597333597"><ele>869.1666666666667</ele><time>2026-05-03T14:47:32Z</time></trkpt><trkpt lat="44.7127437349048" lon="9.59522722107435"><ele>869.3333333333334</ele><time>2026-05-03T14:47:35Z</time></trkpt><trkpt lat="44.71279733088067" lon="9.595326212990367"><ele>869.5</ele><time>2026-05-03T14:47:37Z</time></trkpt><trkpt lat="44.71285177557394" lon="9.595399189266159"><ele>869.6666666666667</ele><time>2026-05-03T14:47:39Z</time></trkpt><trkpt lat="44.71290019871625" lon="9.595475792518577"><ele>869.8333333333334</ele><time>2026-05-03T14:47:41Z</time></trkpt><trkpt lat="44.712928921123904" lon="9.595585100637114"><ele>870.0</ele><time>2026-05-03T14:47:43Z</time></trkpt><trkpt lat="44.7129828666773" lon="9.595670849699125"><ele>872.8333333333334</ele><time>2026-05-03T14:47:45Z</time></trkpt><trkpt lat="44.71303487761396" lon="9.595737286417126"><ele>875.6666666666667</ele><time>2026-05-03T14:47:46Z</time></trkpt><trkpt lat="44.71308472501268" lon="9.595828357512259"><ele>878.5</ele><time>2026-05-03T14:47:47Z</time></trkpt><trkpt lat="44.71313220339045" lon="9.59592014568556"><ele>881.3333333333334</ele><time>2026-05-03T14:47:48Z</time></trkpt><trkpt lat="44.71318532634831" lon="9.596034657735585"><ele>884.1666666666667</ele><time>2026-05-03T14:47:49Z</time></trkpt><trkpt lat="44.71322450264381" lon="9.596130024399969"><ele>887.0</ele><time>2026-05-03T14:47:50Z</time></trkpt><trkpt lat="44.71328389151193" lon="9.596222868552461"><ele>889.0</ele><time>2026-05-03T14:47:51Z</time></trkpt><trkpt lat="44.71333868147213" lon="9.596284683047791"><ele>891.0</ele><time>2026-05-03T14:47:51.999Z</time></trkpt><trkpt lat="44.713479589630026" lon="9.59629218522678"><ele>893.0</ele><time>2026-05-03T14:47:53.999Z</time></trkpt><trkpt lat="44.7135772684689" lon="9.596279849348052"><ele>895.0</ele><time>2026-05-03T14:47:55.999Z</time></trkpt><trkpt lat="44.713663901625075" lon="9.596283580517758"><ele>897.0</ele><time>2026-05-03T14:48:01.999Z</time></trkpt><trkpt lat="44.71373351791723" lon="9.596315621082686"><ele>900.0</ele><time>2026-05-03T14:48:02.999Z</time></trkpt><trkpt lat="44.71381775430033" lon="9.596344102602963"><ele>903.0</ele><time>2026-05-03T14:48:03.999Z</time></trkpt><trkpt lat="44.71390359570384" lon="9.596385281979929"><ele>906.0</ele><time>2026-05-03T14:48:04.999Z</time></trkpt><trkpt lat="44.71399067111371" lon="9.596442483425802"><ele>909.0</ele><time>2026-05-03T14:48:05.999Z</time></trkpt><trkpt lat="44.714069934495576" lon="9.596506200957185"><ele>912.0</ele><time>2026-05-03T14:48:06.999Z</time></trkpt><trkpt lat="44.71415510635974" lon="9.596600332133237"><ele>912.0</ele><time>2026-05-03T14:48:07.999Z</time></trkpt><trkpt lat="44.714220677130086" lon="9.596671648240763"><ele>912.0</ele><time>2026-05-03T14:48:08.999Z</time></trkpt><trkpt lat="44.71428841507529" lon="9.59672972039085"><ele>912.0</ele><time>2026-05-03T14:48:10.999Z</time></trkpt><trkpt lat="44.714431382791595" lon="9.596694199298167"><ele>912.0</ele><time>2026-05-03T14:48:12.999Z</time></trkpt><trkpt lat="44.714528600995116" lon="9.596639060226261"><ele>912.0</ele><time>2026-05-03T14:48:13.999Z</time></trkpt><trkpt lat="44.714622910539845" lon="9.59660223836031"><ele>913.3333333333333</ele><time>2026-05-03T14:48:14.999Z</time></trkpt><trkpt lat="44.71467992229737" lon="9.59654352569933"><ele>914.6666666666666</ele><time>2026-05-03T14:48:15.999Z</time></trkpt><trkpt lat="44.71478381333076" lon="9.596560023955474"><ele>916.0</ele><time>2026-05-03T14:48:18.999Z</time></trkpt><trkpt lat="44.71499900407049" lon="9.596815142316967"><ele>916.0</ele><time>2026-05-03T14:48:21.999Z</time></trkpt><trkpt lat="44.71505104389373" lon="9.596910722668564"><ele>915.9999999999999</ele><time>2026-05-03T14:48:22.999Z</time></trkpt><trkpt lat="44.71510369870806" lon="9.596998479452779"><ele>915.9999999999999</ele><time>2026-05-03T14:48:23.999Z</time></trkpt><trkpt lat="44.71513805076049" lon="9.59710976956012"><ele>916.0</ele><time>2026-05-03T14:48:24.999Z</time></trkpt><trkpt lat="44.715240649800826" lon="9.597166996752744"><ele>916.0</ele><time>2026-05-03T14:48:25.999Z</time></trkpt><trkpt lat="44.71533564422768" lon="9.597252071435555"><ele>919.5999999999999</ele><time>2026-05-03T14:48:26.999Z</time></trkpt><trkpt lat="44.715432450601995" lon="9.597375562232102"><ele>923.1999999999999</ele><time>2026-05-03T14:48:28.999Z</time></trkpt><trkpt lat="44.71549840082593" lon="9.597316294064711"><ele>926.8000000000001</ele><time>2026-05-03T14:48:29.999Z</time></trkpt><trkpt lat="44.71557696471091" lon="9.597317318295161"><ele>930.4000000000001</ele><time>2026-05-03T14:48:30.999Z</time></trkpt><trkpt lat="44.7156533256174" lon="9.59737758793834"><ele>934.0</ele><time>2026-05-03T14:48:31.999Z</time></trkpt><trkpt lat="44.71571547622015" lon="9.597464541328547"><ele>933.9999999999999</ele><time>2026-05-03T14:48:32.999Z</time></trkpt><trkpt lat="44.71575605921349" lon="9.597563085392192"><ele>934.0</ele><time>2026-05-03T14:48:33.999Z</time></trkpt><trkpt lat="44.71575516164561" lon="9.597669297997122"><ele>934.0</ele><time>2026-05-03T14:48:34.999Z</time></trkpt><trkpt lat="44.7157706685042" lon="9.597768998213807"><ele>934.0</ele><time>2026-05-03T14:48:35.999Z</time></trkpt><trkpt lat="44.715774767903895" lon="9.597875299175955"><ele>933.9999999999999</ele><time>2026-05-03T14:48:36.999Z</time></trkpt><trkpt lat="44.71573100224614" lon="9.597989481303255"><ele>934.0</ele><time>2026-05-03T14:48:37.999Z</time></trkpt><trkpt lat="44.71572915909802" lon="9.598085265495973"><ele>934.1666666666666</ele><time>2026-05-03T14:48:38.999Z</time></trkpt><trkpt lat="44.71573725311209" lon="9.598182577689537"><ele>934.3333333333333</ele><time>2026-05-03T14:48:45.999Z</time></trkpt><trkpt lat="44.71578970005466" lon="9.598254494358546"><ele>934.5</ele><time>2026-05-03T14:48:47.999Z</time></trkpt><trkpt lat="44.715848421709715" lon="9.598291257188038"><ele>934.6666666666667</ele><time>2026-05-03T14:48:51.999Z</time></trkpt><trkpt lat="44.71595486774781" lon="9.5983471690148"><ele>934.8333333333334</ele><time>2026-05-03T14:49:07.998Z</time></trkpt><trkpt lat="44.716018372238985" lon="9.598346484919126"><ele>935.0</ele><time>2026-05-03T14:49:08.998Z</time></trkpt><trkpt lat="44.716161501584864" lon="9.598345044994097"><ele>935.0000000000001</ele><time>2026-05-03T14:49:10.998Z</time></trkpt><trkpt lat="44.71624607008613" lon="9.598347598339833"><ele>935.0</ele><time>2026-05-03T14:49:11.998Z</time></trkpt><trkpt lat="44.71633239747444" lon="9.598320300400212"><ele>935.0</ele><time>2026-05-03T14:49:14Z</time></trkpt><trkpt lat="44.71638552477474" lon="9.598254088654508"><ele>935.0</ele><time>2026-05-03T14:49:16Z</time></trkpt><trkpt lat="44.7164423949013" lon="9.598156233838505"><ele>935.0000000000001</ele><time>2026-05-03T14:49:17Z</time></trkpt><trkpt lat="44.71650875727802" lon="9.59805407896217"><ele>935.0</ele><time>2026-05-03T14:49:18Z</time></trkpt><trkpt lat="44.71659396630524" lon="9.597951135169083"><ele>935.0000000000001</ele><time>2026-05-03T14:49:19Z</time></trkpt><trkpt lat="44.716651921783686" lon="9.597894086185423"><ele>935.0</ele><time>2026-05-03T14:49:20Z</time></trkpt><trkpt lat="44.716722562279585" lon="9.597859594778361"><ele>935.0</ele><time>2026-05-03T14:49:22Z</time></trkpt><trkpt lat="44.71679825032555" lon="9.597935381059854"><ele>935.0</ele><time>2026-05-03T14:49:24Z</time></trkpt><trkpt lat="44.71683517838546" lon="9.598022996746138"><ele>935.0000000000001</ele><time>2026-05-03T14:49:25Z</time></trkpt><trkpt lat="44.71689746835044" lon="9.598135107658774"><ele>935.0</ele><time>2026-05-03T14:49:27Z</time></trkpt><trkpt lat="44.71696073012091" lon="9.598214370873803"><ele>934.2</ele><time>2026-05-03T14:49:29Z</time></trkpt><trkpt lat="44.71703402592326" lon="9.598320395226386"><ele>933.4</ele><time>2026-05-03T14:49:31Z</time></trkpt><trkpt lat="44.71714097380064" lon="9.598441621295079"><ele>932.5999999999999</ele><time>2026-05-03T14:49:33Z</time></trkpt><trkpt lat="44.71721315965703" lon="9.598520635973902"><ele>931.8</ele><time>2026-05-03T14:49:34Z</time></trkpt><trkpt lat="44.71727065076847" lon="9.598611528665419"><ele>931.0</ele><time>2026-05-03T14:49:35Z</time></trkpt><trkpt lat="44.7173224948161" lon="9.598694879865429"><ele>930.9999999999999</ele><time>2026-05-03T14:49:36Z</time></trkpt><trkpt lat="44.71737193757221" lon="9.598781528366905"><ele>931.0</ele><time>2026-05-03T14:49:37Z</time></trkpt><trkpt lat="44.71741333073233" lon="9.598866846437923"><ele>931.0</ele><time>2026-05-03T14:49:38Z</time></trkpt><trkpt lat="44.71747906732469" lon="9.598933650819868"><ele>931.0</ele><time>2026-05-03T14:49:39Z</time></trkpt><trkpt lat="44.71753667455079" lon="9.599005252538394"><ele>930.9999999999999</ele><time>2026-05-03T14:49:40Z</time></trkpt><trkpt lat="44.71759735522214" lon="9.599065873130845"><ele>931.0</ele><time>2026-05-03T14:49:41Z</time></trkpt><trkpt lat="44.71765120828561" lon="9.599126323547143"><ele>930.9999999999999</ele><time>2026-05-03T14:49:42Z</time></trkpt><trkpt lat="44.7177061700497" lon="9.599182614918567"><ele>931.0</ele><time>2026-05-03T14:49:43Z</time></trkpt><trkpt lat="44.71776316167295" lon="9.599236667590496"><ele>931.0</ele><time>2026-05-03T14:49:44Z</time></trkpt><trkpt lat="44.71782363007627" lon="9.599300126893484"><ele>931.0</ele><time>2026-05-03T14:49:45Z</time></trkpt><trkpt lat="44.71783362481063" lon="9.59941332496395"><ele>930.9999999999999</ele><time>2026-05-03T14:49:47Z</time></trkpt><trkpt lat="44.71789615700241" lon="9.599502099336643"><ele>931.0</ele><time>2026-05-03T14:49:49Z</time></trkpt><trkpt lat="44.71794763112036" lon="9.599646810719271"><ele>930.8</ele><time>2026-05-03T14:49:51Z</time></trkpt><trkpt lat="44.71797962824922" lon="9.599755680472741"><ele>930.5999999999999</ele><time>2026-05-03T14:49:52Z</time></trkpt><trkpt lat="44.71807230724212" lon="9.599886956196634"><ele>930.4</ele><time>2026-05-03T14:49:54Z</time></trkpt><trkpt lat="44.718146565567686" lon="9.59994034452235"><ele>930.2</ele><time>2026-05-03T14:49:55Z</time></trkpt><trkpt lat="44.71826141743059" lon="9.600030073711302"><ele>930.0</ele><time>2026-05-03T14:49:56.999Z</time></trkpt><trkpt lat="44.718334909138015" lon="9.600088238078907"><ele>930.0</ele><time>2026-05-03T14:49:58.999Z</time></trkpt><trkpt lat="44.71842744703682" lon="9.60010375832984"><ele>930.0</ele><time>2026-05-03T14:50:00.999Z</time></trkpt><trkpt lat="44.718502970236614" lon="9.600120355595076"><ele>930.0</ele><time>2026-05-03T14:50:02.999Z</time></trkpt><trkpt lat="44.71854823594035" lon="9.600201426176666"><ele>930.0</ele><time>2026-05-03T14:50:04.999Z</time></trkpt><trkpt lat="44.71860514958536" lon="9.600277865364895"><ele>930.0</ele><time>2026-05-03T14:50:06.999Z</time></trkpt><trkpt lat="44.71866904630614" lon="9.60035345501817"><ele>930.0</ele><time>2026-05-03T14:50:08.999Z</time></trkpt><trkpt lat="44.71875533166695" lon="9.600337428066448"><ele>928.4285714285713</ele><time>2026-05-03T14:50:10.999Z</time></trkpt><trkpt lat="44.718814951950804" lon="9.600291489420295"><ele>926.8571428571429</ele><time>2026-05-03T14:50:11.999Z</time></trkpt><trkpt lat="44.71888573409757" lon="9.600260934142035"><ele>925.2857142857142</ele><time>2026-05-03T14:50:12.999Z</time></trkpt><trkpt lat="44.71895516827871" lon="9.600238912525123"><ele>923.7142857142857</ele><time>2026-05-03T14:50:13.999Z</time></trkpt><trkpt lat="44.71903521826915" lon="9.600239792438474"><ele>922.1428571428571</ele><time>2026-05-03T14:50:14.999Z</time></trkpt><trkpt lat="44.71910231953482" lon="9.600257862934336"><ele>920.5714285714286</ele><time>2026-05-03T14:50:15.999Z</time></trkpt><trkpt lat="44.71916633750557" lon="9.600279518416766"><ele>919.0</ele><time>2026-05-03T14:50:16.999Z</time></trkpt><trkpt lat="44.71922940773953" lon="9.600280228797361"><ele>918.9999999999999</ele><time>2026-05-03T14:50:17.999Z</time></trkpt><trkpt lat="44.71928903304355" lon="9.600247575784676"><ele>919.0</ele><time>2026-05-03T14:50:18.999Z</time></trkpt><trkpt lat="44.719350634776966" lon="9.600219592775483"><ele>919.0</ele><time>2026-05-03T14:50:19.999Z</time></trkpt><trkpt lat="44.719458230058464" lon="9.60019205488848"><ele>919.0</ele><time>2026-05-03T14:50:21.999Z</time></trkpt><trkpt lat="44.7195783741233" lon="9.600199827343932"><ele>918.9999999999999</ele><time>2026-05-03T14:50:23.999Z</time></trkpt><trkpt lat="44.71965116454558" lon="9.600191865501174"><ele>919.0</ele><time>2026-05-03T14:50:24.999Z</time></trkpt><trkpt lat="44.719720701615444" lon="9.600144473320523"><ele>918.6</ele><time>2026-05-03T14:50:25.999Z</time></trkpt><trkpt lat="44.719790286561945" lon="9.600071626464102"><ele>918.2</ele><time>2026-05-03T14:50:26.999Z</time></trkpt><trkpt lat="44.719855548297694" lon="9.60002484127978"><ele>917.8000000000001</ele><time>2026-05-03T14:50:27.999Z</time></trkpt><trkpt lat="44.7199707108871" lon="9.599992375857113"><ele>917.4000000000001</ele><time>2026-05-03T14:50:29.999Z</time></trkpt><trkpt lat="44.720056108547055" lon="9.599931502689786"><ele>917.0</ele><time>2026-05-03T14:50:31.999Z</time></trkpt><trkpt lat="44.720142610313545" lon="9.599834246625042"><ele>917.0000000000001</ele><time>2026-05-03T14:50:33.999Z</time></trkpt><trkpt lat="44.72019216654639" lon="9.599777145341573"><ele>917.0</ele><time>2026-05-03T14:50:34.999Z</time></trkpt><trkpt lat="44.72025582846868" lon="9.599720338870544"><ele>917.0</ele><time>2026-05-03T14:50:35.999Z</time></trkpt><trkpt lat="44.720312762702626" lon="9.59967124672206"><ele>917.0</ele><time>2026-05-03T14:50:36.999Z</time></trkpt><trkpt lat="44.72037933522771" lon="9.599608537291042"><ele>917.0000000000001</ele><time>2026-05-03T14:50:38.999Z</time></trkpt><trkpt lat="44.7204651910984" lon="9.599539742522895"><ele>917.0</ele><time>2026-05-03T14:50:40.999Z</time></trkpt><trkpt lat="44.72052001632568" lon="9.59946853916598"><ele>917.1666666666667</ele><time>2026-05-03T14:50:44.999Z</time></trkpt><trkpt lat="44.720578990058264" lon="9.599404255031958"><ele>917.3333333333334</ele><time>2026-05-03T14:50:53.999Z</time></trkpt><trkpt lat="44.720628984763486" lon="9.599268272312896"><ele>917.5</ele><time>2026-05-03T14:50:56.998Z</time></trkpt><trkpt lat="44.72066547545566" lon="9.5991889736369"><ele>917.6666666666667</ele><time>2026-05-03T14:50:57.998Z</time></trkpt><trkpt lat="44.720709967281444" lon="9.599110074713213"><ele>917.8333333333334</ele><time>2026-05-03T14:50:58.998Z</time></trkpt><trkpt lat="44.72077259239262" lon="9.599051760226306"><ele>918.0</ele><time>2026-05-03T14:50:59.998Z</time></trkpt><trkpt lat="44.72084553660509" lon="9.599007161346508"><ele>918.0</ele><time>2026-05-03T14:51:00.998Z</time></trkpt><trkpt lat="44.72092830837279" lon="9.598942351831585"><ele>918.0</ele><time>2026-05-03T14:51:01.998Z</time></trkpt><trkpt lat="44.721004830577904" lon="9.598886384122485"><ele>918.0</ele><time>2026-05-03T14:51:02.998Z</time></trkpt><trkpt lat="44.72109180986064" lon="9.598802785563523"><ele>918.0</ele><time>2026-05-03T14:51:04.998Z</time></trkpt><trkpt lat="44.72117129963746" lon="9.598810760992045"><ele>918.0</ele><time>2026-05-03T14:51:06.998Z</time></trkpt><trkpt lat="44.72131252409123" lon="9.598825833591505"><ele>920.5</ele><time>2026-05-03T14:51:08.998Z</time></trkpt><trkpt lat="44.72140969453825" lon="9.598828587859582"><ele>923.0</ele><time>2026-05-03T14:51:09.998Z</time></trkpt><trkpt lat="44.721492382982035" lon="9.598852272052548"><ele>925.5</ele><time>2026-05-03T14:51:10.998Z</time></trkpt><trkpt lat="44.72155662199321" lon="9.598874699457319"><ele>928.0</ele><time>2026-05-03T14:51:11.998Z</time></trkpt><trkpt lat="44.721618937294785" lon="9.598892056462521"><ele>930.5</ele><time>2026-05-03T14:51:12.998Z</time></trkpt><trkpt lat="44.721740142053626" lon="9.598843974506336"><ele>933.0</ele><time>2026-05-03T14:51:14.998Z</time></trkpt><trkpt lat="44.7218081640052" lon="9.598834709619702"><ele>937.4</ele><time>2026-05-03T14:51:15.998Z</time></trkpt><trkpt lat="44.72192285051208" lon="9.59889866298721"><ele>941.8</ele><time>2026-05-03T14:51:17.998Z</time></trkpt><trkpt lat="44.72200522331715" lon="9.598918776706105"><ele>946.2</ele><time>2026-05-03T14:51:19Z</time></trkpt><trkpt lat="44.7220985221701" lon="9.598927720666738"><ele>950.6</ele><time>2026-05-03T14:51:20Z</time></trkpt><trkpt lat="44.72218128512643" lon="9.598932975129307"><ele>955.0</ele><time>2026-05-03T14:51:21Z</time></trkpt><trkpt lat="44.72226225461709" lon="9.598958533397862"><ele>954.9999999999999</ele><time>2026-05-03T14:51:22Z</time></trkpt><trkpt lat="44.72234340612479" lon="9.598974692701255"><ele>955.0</ele><time>2026-05-03T14:51:23Z</time></trkpt><trkpt lat="44.722420694855344" lon="9.598984468464387"><ele>955.0</ele><time>2026-05-03T14:51:24Z</time></trkpt><trkpt lat="44.7224834299053" lon="9.598954891089233"><ele>955.0</ele><time>2026-05-03T14:51:25Z</time></trkpt><trkpt lat="44.72255318926067" lon="9.598948842939887"><ele>954.9999999999999</ele><time>2026-05-03T14:51:27Z</time></trkpt><trkpt lat="44.72262165519518" lon="9.598998617185874"><ele>955.0</ele><time>2026-05-03T14:51:29Z</time></trkpt><trkpt lat="44.72272215330089" lon="9.59910046401521"><ele>955.4</ele><time>2026-05-03T14:52:10.999Z</time></trkpt><trkpt lat="44.72279623677704" lon="9.599196963850458"><ele>955.8</ele><time>2026-05-03T14:52:12.999Z</time></trkpt><trkpt lat="44.72284301370297" lon="9.599345182088838"><ele>956.2</ele><time>2026-05-03T14:52:14.999Z</time></trkpt><trkpt lat="44.722917515474755" lon="9.59946117355051"><ele>956.6</ele><time>2026-05-03T14:52:16.999Z</time></trkpt><trkpt lat="44.72297560005002" lon="9.599499354976837"><ele>957.0</ele><time>2026-05-03T14:52:17.999Z</time></trkpt><trkpt lat="44.7230251315531" lon="9.599554773428622"><ele>959.4000000000001</ele><time>2026-05-03T14:52:18.999Z</time></trkpt><trkpt lat="44.72306487155781" lon="9.599698886433558"><ele>961.8000000000001</ele><time>2026-05-03T14:52:20.999Z</time></trkpt><trkpt lat="44.723099637482925" lon="9.599832982066129"><ele>964.2</ele><time>2026-05-03T14:52:22.999Z</time></trkpt><trkpt lat="44.723117007365225" lon="9.599921035122783"><ele>966.6</ele><time>2026-05-03T14:52:23.999Z</time></trkpt><trkpt lat="44.723125339629384" lon="9.600044976690404"><ele>969.0</ele><time>2026-05-03T14:52:24.999Z</time></trkpt><trkpt lat="44.72311156944554" lon="9.600166344438662"><ele>968.9999999999999</ele><time>2026-05-03T14:52:25.999Z</time></trkpt><trkpt lat="44.723118570685656" lon="9.600263158225694"><ele>969.0</ele><time>2026-05-03T14:52:26.999Z</time></trkpt><trkpt lat="44.72312639645504" lon="9.60036194777626"><ele>968.9999999999999</ele><time>2026-05-03T14:52:27.999Z</time></trkpt><trkpt lat="44.723116089842236" lon="9.600462638671214"><ele>968.9999999999999</ele><time>2026-05-03T14:52:28.999Z</time></trkpt><trkpt lat="44.72310235294854" lon="9.600569490426029"><ele>969.0</ele><time>2026-05-03T14:52:29.999Z</time></trkpt><trkpt lat="44.723092161186685" lon="9.600668053431615"><ele>968.9999999999999</ele><time>2026-05-03T14:52:31.999Z</time></trkpt><trkpt lat="44.72302630746584" lon="9.600748522840476"><ele>968.9999999999999</ele><time>2026-05-03T14:52:36.999Z</time></trkpt><trkpt lat="44.722992125587986" lon="9.60083436134089"><ele>969.0</ele><time>2026-05-03T14:52:39.999Z</time></trkpt><trkpt lat="44.72295986711656" lon="9.600930892626671"><ele>969.0000000000001</ele><time>2026-05-03T14:52:42.999Z</time></trkpt><trkpt lat="44.7230100926041" lon="9.601017709131007"><ele>969.0000000000001</ele><time>2026-05-03T14:52:45.999Z</time></trkpt><trkpt lat="44.72306993778955" lon="9.601123925139209"><ele>969.0</ele><time>2026-05-03T14:52:47.999Z</time></trkpt><trkpt lat="44.72305851824804" lon="9.60129511004838"><ele>969.0</ele><time>2026-05-03T14:52:49.999Z</time></trkpt><trkpt lat="44.723031962928154" lon="9.601435460237154"><ele>969.0</ele><time>2026-05-03T14:52:50.999Z</time></trkpt><trkpt lat="44.722987064520154" lon="9.601542543068783"><ele>969.0000000000001</ele><time>2026-05-03T14:52:51.999Z</time></trkpt><trkpt lat="44.722908490852824" lon="9.601665416055587"><ele>969.0000000000001</ele><time>2026-05-03T14:52:52.999Z</time></trkpt><trkpt lat="44.72283703475" lon="9.601809912531309"><ele>969.0</ele><time>2026-05-03T14:52:53.999Z</time></trkpt><trkpt lat="44.72277702809539" lon="9.601935112133935"><ele>969.0</ele><time>2026-05-03T14:52:54.999Z</time></trkpt><trkpt lat="44.722714635143326" lon="9.602048976186323"><ele>972.3333333333334</ele><time>2026-05-03T14:52:55.999Z</time></trkpt><trkpt lat="44.722662697415316" lon="9.602156848314747"><ele>975.6666666666667</ele><time>2026-05-03T14:52:56.999Z</time></trkpt><trkpt lat="44.72263012035157" lon="9.602252387491902"><ele>979.0</ele><time>2026-05-03T14:52:57.999Z</time></trkpt><trkpt lat="44.72262389405072" lon="9.60235647930191"><ele>982.3333333333334</ele><time>2026-05-03T14:52:58.999Z</time></trkpt><trkpt lat="44.72261545749556" lon="9.602483939254205"><ele>985.6666666666667</ele><time>2026-05-03T14:52:59.999Z</time></trkpt><trkpt lat="44.72260271505184" lon="9.602615242916201"><ele>989.0</ele><time>2026-05-03T14:53:00.999Z</time></trkpt><trkpt lat="44.72258426358817" lon="9.602757525882476"><ele>990.6666666666667</ele><time>2026-05-03T14:53:01.998Z</time></trkpt><trkpt lat="44.722580391575505" lon="9.602878300430655"><ele>992.3333333333334</ele><time>2026-05-03T14:53:02.998Z</time></trkpt><trkpt lat="44.722606002577514" lon="9.602989087174334"><ele>994.0</ele><time>2026-05-03T14:53:03.998Z</time></trkpt><trkpt lat="44.72262550746936" lon="9.603088289534526"><ele>995.6666666666667</ele><time>2026-05-03T14:53:04.998Z</time></trkpt><trkpt lat="44.72259929264658" lon="9.60320974866807"><ele>997.3333333333334</ele><time>2026-05-03T14:53:05.998Z</time></trkpt><trkpt lat="44.722575705692506" lon="9.60332959956206"><ele>999.0</ele><time>2026-05-03T14:53:06.998Z</time></trkpt><trkpt lat="44.72253812132451" lon="9.60346609397776"><ele>999.0</ele><time>2026-05-03T14:53:08.998Z</time></trkpt><trkpt lat="44.7224877095114" lon="9.603523814214467"><ele>999.0</ele><time>2026-05-03T14:53:10.998Z</time></trkpt><trkpt lat="44.7224061711527" lon="9.60350441808621"><ele>999.0</ele><time>2026-05-03T14:53:12.998Z</time></trkpt><trkpt lat="44.72232749910918" lon="9.603531288582591"><ele>999.0</ele><time>2026-05-03T14:53:14.998Z</time></trkpt><trkpt lat="44.72225344285639" lon="9.603535391091352"><ele>999.0</ele><time>2026-05-03T14:53:16.998Z</time></trkpt><trkpt lat="44.722133311221675" lon="9.60351522703774"><ele>999.0</ele><time>2026-05-03T14:53:18.998Z</time></trkpt><trkpt lat="44.722055901674324" lon="9.603570764007557"><ele>999.0</ele><time>2026-05-03T14:53:19.998Z</time></trkpt><trkpt lat="44.721969149876365" lon="9.60361648672567"><ele>999.0000000000001</ele><time>2026-05-03T14:53:20.998Z</time></trkpt><trkpt lat="44.721877195404716" lon="9.603660581898627"><ele>999.0000000000001</ele><time>2026-05-03T14:53:21.998Z</time></trkpt><trkpt lat="44.721792465846875" lon="9.603701131375916"><ele>999.0</ele><time>2026-05-03T14:53:22.998Z</time></trkpt><trkpt lat="44.7217070017115" lon="9.603752437983102"><ele>999.0</ele><time>2026-05-03T14:53:23.998Z</time></trkpt><trkpt lat="44.721611496641664" lon="9.60379469339696"><ele>997.8000000000001</ele><time>2026-05-03T14:53:25Z</time></trkpt><trkpt lat="44.721518324049825" lon="9.60384271114914"><ele>996.6000000000001</ele><time>2026-05-03T14:53:26Z</time></trkpt><trkpt lat="44.72142278435439" lon="9.603860227584375"><ele>995.4</ele><time>2026-05-03T14:53:27Z</time></trkpt><trkpt lat="44.721334671536795" lon="9.603889692306353"><ele>994.2</ele><time>2026-05-03T14:53:28Z</time></trkpt><trkpt lat="44.72125364050179" lon="9.60392627796124"><ele>993.0</ele><time>2026-05-03T14:53:29Z</time></trkpt><trkpt lat="44.72118065467387" lon="9.603982128583617"><ele>993.0</ele><time>2026-05-03T14:53:30Z</time></trkpt><trkpt lat="44.721110589110744" lon="9.604025528540374"><ele>993.0</ele><time>2026-05-03T14:53:31Z</time></trkpt><trkpt lat="44.721045674395064" lon="9.604057627043064"><ele>993.0</ele><time>2026-05-03T14:53:32Z</time></trkpt><trkpt lat="44.72098514328354" lon="9.604098198438628"><ele>993.0</ele><time>2026-05-03T14:53:33Z</time></trkpt><trkpt lat="44.720929612555786" lon="9.604163743206236"><ele>993.0</ele><time>2026-05-03T14:53:34Z</time></trkpt><trkpt lat="44.72087367496197" lon="9.604232968185576"><ele>993.0</ele><time>2026-05-03T14:53:35Z</time></trkpt><trkpt lat="44.72079824735092" lon="9.60428299016395"><ele>993.0</ele><time>2026-05-03T14:53:36Z</time></trkpt><trkpt lat="44.72070806920928" lon="9.604316384300983"><ele>992.1666666666666</ele><time>2026-05-03T14:53:37Z</time></trkpt><trkpt lat="44.72062926862989" lon="9.60435019433842"><ele>991.3333333333333</ele><time>2026-05-03T14:53:38Z</time></trkpt><trkpt lat="44.72054853620789" lon="9.604393963471313"><ele>990.5</ele><time>2026-05-03T14:53:39Z</time></trkpt><trkpt lat="44.72046945397017" lon="9.604451079275549"><ele>989.6666666666666</ele><time>2026-05-03T14:53:40Z</time></trkpt><trkpt lat="44.720389908546025" lon="9.604509429207097"><ele>988.8333333333333</ele><time>2026-05-03T14:53:41Z</time></trkpt><trkpt lat="44.72031895169581" lon="9.604565231204038"><ele>988.0</ele><time>2026-05-03T14:53:42Z</time></trkpt><trkpt lat="44.72025745100054" lon="9.60461847269831"><ele>986.6666666666666</ele><time>2026-05-03T14:53:44Z</time></trkpt><trkpt lat="44.72030586551835" lon="9.604702896540239"><ele>985.3333333333333</ele><time>2026-05-03T14:53:49Z</time></trkpt><trkpt lat="44.720361171027534" lon="9.604750779973768"><ele>984.0</ele><time>2026-05-03T14:53:50Z</time></trkpt><trkpt lat="44.720426385667196" lon="9.60481522169734"><ele>982.6666666666667</ele><time>2026-05-03T14:53:51Z</time></trkpt><trkpt lat="44.720503335728935" lon="9.604890706614134"><ele>981.3333333333334</ele><time>2026-05-03T14:53:52Z</time></trkpt><trkpt lat="44.72056659173558" lon="9.604968284157518"><ele>980.0</ele><time>2026-05-03T14:53:53Z</time></trkpt><trkpt lat="44.72064781812457" lon="9.605032003073614"><ele>980.0000000000001</ele><time>2026-05-03T14:53:54Z</time></trkpt><trkpt lat="44.72071256073264" lon="9.605079438640564"><ele>980.0</ele><time>2026-05-03T14:53:55Z</time></trkpt><trkpt lat="44.72078073896726" lon="9.605123940521116"><ele>980.0</ele><time>2026-05-03T14:53:56Z</time></trkpt><trkpt lat="44.72084261621726" lon="9.605173499682143"><ele>980.0</ele><time>2026-05-03T14:53:57Z</time></trkpt><trkpt lat="44.72090966331256" lon="9.60522331423787"><ele>980.0000000000001</ele><time>2026-05-03T14:53:58Z</time></trkpt><trkpt lat="44.72097396841048" lon="9.605276341090923"><ele>980.0</ele><time>2026-05-03T14:53:59Z</time></trkpt><trkpt lat="44.721044165998315" lon="9.605329977010163"><ele>973.8</ele><time>2026-05-03T14:54:00Z</time></trkpt><trkpt lat="44.721115663080944" lon="9.605381043965782"><ele>967.6</ele><time>2026-05-03T14:54:01Z</time></trkpt><trkpt lat="44.721184519873425" lon="9.605420171240898"><ele>961.4000000000001</ele><time>2026-05-03T14:54:02Z</time></trkpt><trkpt lat="44.7212958836108" lon="9.605421203120695"><ele>955.2</ele><time>2026-05-03T14:54:04Z</time></trkpt><trkpt lat="44.72141875417302" lon="9.605388232209615"><ele>949.0</ele><time>2026-05-03T14:54:05.999Z</time></trkpt><trkpt lat="44.72147218791063" lon="9.605341287349026"><ele>951.9999999999999</ele><time>2026-05-03T14:54:06.999Z</time></trkpt><trkpt lat="44.7215538552681" lon="9.605294961846475"><ele>955.0</ele><time>2026-05-03T14:54:07.999Z</time></trkpt><trkpt lat="44.72164405545867" lon="9.605260798491482"><ele>958.0</ele><time>2026-05-03T14:54:08.999Z</time></trkpt><trkpt lat="44.72173204865666" lon="9.605250945188057"><ele>961.0</ele><time>2026-05-03T14:54:09.999Z</time></trkpt><trkpt lat="44.721798160065575" lon="9.605252761123399"><ele>963.9999999999999</ele><time>2026-05-03T14:54:10.999Z</time></trkpt><trkpt lat="44.72187377103954" lon="9.605268040751257"><ele>967.0</ele><time>2026-05-03T14:54:11.999Z</time></trkpt><trkpt lat="44.721957308248335" lon="9.60530821740335"><ele>963.4000000000001</ele><time>2026-05-03T14:54:12.999Z</time></trkpt><trkpt lat="44.72204693842618" lon="9.60534955076518"><ele>959.8000000000001</ele><time>2026-05-03T14:54:13.999Z</time></trkpt><trkpt lat="44.72213397465087" lon="9.605363916355058"><ele>956.2</ele><time>2026-05-03T14:54:14.999Z</time></trkpt><trkpt lat="44.72221994574658" lon="9.605384746405552"><ele>952.6</ele><time>2026-05-03T14:54:15.999Z</time></trkpt><trkpt lat="44.72229141555082" lon="9.605412799392928"><ele>949.0</ele><time>2026-05-03T14:54:16.999Z</time></trkpt><trkpt lat="44.7224160064279" lon="9.605489992789177"><ele>948.9999999999999</ele><time>2026-05-03T14:54:18.999Z</time></trkpt><trkpt lat="44.722481120754644" lon="9.60558660876889"><ele>949.0</ele><time>2026-05-03T14:54:19.999Z</time></trkpt><trkpt lat="44.72255451200986" lon="9.605662491688108"><ele>949.0</ele><time>2026-05-03T14:54:20.999Z</time></trkpt><trkpt lat="44.722603851775375" lon="9.605734365855412"><ele>949.0</ele><time>2026-05-03T14:54:21.999Z</time></trkpt><trkpt lat="44.72263100488346" lon="9.605837226215609"><ele>948.9999999999999</ele><time>2026-05-03T14:54:22.999Z</time></trkpt><trkpt lat="44.72266787451051" lon="9.60598411490314"><ele>949.0</ele><time>2026-05-03T14:54:23.999Z</time></trkpt><trkpt lat="44.72271091665053" lon="9.606127910804215"><ele>948.1666666666666</ele><time>2026-05-03T14:54:24.999Z</time></trkpt><trkpt lat="44.72276551120155" lon="9.606248870180293"><ele>947.3333333333333</ele><time>2026-05-03T14:54:25.999Z</time></trkpt><trkpt lat="44.72282378463174" lon="9.606347498458176"><ele>946.5</ele><time>2026-05-03T14:54:26.999Z</time></trkpt><trkpt lat="44.722872659909434" lon="9.606446024245749"><ele>945.6666666666667</ele><time>2026-05-03T14:54:27.999Z</time></trkpt><trkpt lat="44.722908001692915" lon="9.60655037112389"><ele>944.8333333333334</ele><time>2026-05-03T14:54:28.999Z</time></trkpt><trkpt lat="44.72294678497237" lon="9.606647230181435"><ele>944.0</ele><time>2026-05-03T14:54:29.999Z</time></trkpt><trkpt lat="44.72298858071353" lon="9.606746054453788"><ele>944.0000000000001</ele><time>2026-05-03T14:54:30.999Z</time></trkpt><trkpt lat="44.72303077131113" lon="9.606820242390969"><ele>944.0</ele><time>2026-05-03T14:54:31.999Z</time></trkpt><trkpt lat="44.72308224096339" lon="9.60687441613552"><ele>944.0</ele><time>2026-05-03T14:54:32.999Z</time></trkpt><trkpt lat="44.723174049871794" lon="9.606965359997336"><ele>944.0</ele><time>2026-05-03T14:54:34.999Z</time></trkpt><trkpt lat="44.723202712196645" lon="9.607124487304468"><ele>944.0000000000001</ele><time>2026-05-03T14:54:36.999Z</time></trkpt><trkpt lat="44.72319018190393" lon="9.607219265124725"><ele>944.0</ele><time>2026-05-03T14:54:37.999Z</time></trkpt><trkpt lat="44.72316448362654" lon="9.607302359464624"><ele>942.5000000000001</ele><time>2026-05-03T14:54:38.999Z</time></trkpt><trkpt lat="44.723147861642786" lon="9.60738798755457"><ele>941.0</ele><time>2026-05-03T14:54:39.999Z</time></trkpt><trkpt lat="44.72311717039983" lon="9.607516315535873"><ele>939.5</ele><time>2026-05-03T14:54:41.999Z</time></trkpt><trkpt lat="44.72312386463569" lon="9.607655392754076"><ele>938.0</ele><time>2026-05-03T14:54:44.999Z</time></trkpt><trkpt lat="44.72319893508084" lon="9.607794074954441"><ele>936.5000000000001</ele><time>2026-05-03T14:54:46.999Z</time></trkpt><trkpt lat="44.723240065660185" lon="9.607865333260209"><ele>935.0</ele><time>2026-05-03T14:54:47.999Z</time></trkpt><trkpt lat="44.723321818789216" lon="9.608019451285307"><ele>934.6</ele><time>2026-05-03T14:54:49.999Z</time></trkpt><trkpt lat="44.72342536294132" lon="9.608161212619141"><ele>934.2</ele><time>2026-05-03T14:54:51.999Z</time></trkpt><trkpt lat="44.7234775446848" lon="9.60823290623068"><ele>933.8</ele><time>2026-05-03T14:54:52.999Z</time></trkpt><trkpt lat="44.72352339417467" lon="9.608295625600489"><ele>933.4</ele><time>2026-05-03T14:54:53.999Z</time></trkpt><trkpt lat="44.723587026724246" lon="9.608409854686155"><ele>933.0</ele><time>2026-05-03T14:54:55.999Z</time></trkpt><trkpt lat="44.723568309918" lon="9.608549123382815"><ele>927.75</ele><time>2026-05-03T14:54:57.999Z</time></trkpt><trkpt lat="44.72366400636106" lon="9.608593571701844"><ele>922.5</ele><time>2026-05-03T14:55:00.999Z</time></trkpt><trkpt lat="44.72374775369738" lon="9.608451527872726"><ele>917.25</ele><time>2026-05-03T14:55:02.999Z</time></trkpt><trkpt lat="44.723754554451006" lon="9.608277730658157"><ele>912.0</ele><time>2026-05-03T14:55:04.998Z</time></trkpt><trkpt lat="44.72370550365646" lon="9.608090737950327"><ele>912.0</ele><time>2026-05-03T14:55:06.998Z</time></trkpt><trkpt lat="44.7236684106122" lon="9.60798345536863"><ele>912.0</ele><time>2026-05-03T14:55:07.998Z</time></trkpt><trkpt lat="44.723662064138445" lon="9.60788541347592"><ele>912.0</ele><time>2026-05-03T14:55:08.998Z</time></trkpt><trkpt lat="44.72368037241002" lon="9.60778954968795"><ele>912.0</ele><time>2026-05-03T14:55:09.998Z</time></trkpt><trkpt lat="44.72371470986461" lon="9.607694735534169"><ele>912.0</ele><time>2026-05-03T14:55:10.998Z</time></trkpt><trkpt lat="44.723768110155575" lon="9.607592821148083"><ele>912.0</ele><time>2026-05-03T14:55:11.998Z</time></trkpt><trkpt lat="44.72383102716259" lon="9.607501580438617"><ele>912.5714285714286</ele><time>2026-05-03T14:55:12.998Z</time></trkpt><trkpt lat="44.723895530493294" lon="9.607430258580953"><ele>913.1428571428571</ele><time>2026-05-03T14:55:13.998Z</time></trkpt><trkpt lat="44.723962918489484" lon="9.607374811772374"><ele>913.7142857142857</ele><time>2026-05-03T14:55:14.998Z</time></trkpt><trkpt lat="44.7240272224209" lon="9.607341602255032"><ele>914.2857142857142</ele><time>2026-05-03T14:55:15.998Z</time></trkpt><trkpt lat="44.724092405159524" lon="9.607343985454783"><ele>914.8571428571429</ele><time>2026-05-03T14:55:16.998Z</time></trkpt><trkpt lat="44.72415922230221" lon="9.60734719843444"><ele>915.4285714285713</ele><time>2026-05-03T14:55:17.998Z</time></trkpt><trkpt lat="44.724221306035425" lon="9.607362189915625"><ele>916.0</ele><time>2026-05-03T14:55:18.998Z</time></trkpt><trkpt lat="44.72428950115826" lon="9.607366163781434"><ele>916.0</ele><time>2026-05-03T14:55:19.998Z</time></trkpt><trkpt lat="44.72439155982236" lon="9.607332210375528"><ele>915.9999999999999</ele><time>2026-05-03T14:55:21.998Z</time></trkpt><trkpt lat="44.724447670667615" lon="9.607393171509596"><ele>915.9999999999999</ele><time>2026-05-03T14:55:23.998Z</time></trkpt><trkpt lat="44.724389796490726" lon="9.60754839257032"><ele>916.0</ele><time>2026-05-03T14:55:25.998Z</time></trkpt><trkpt lat="44.72433952755878" lon="9.607659248992867"><ele>916.0</ele><time>2026-05-03T14:55:26.998Z</time></trkpt><trkpt lat="44.724251714614695" lon="9.607759729106482"><ele>915.1999999999999</ele><time>2026-05-03T14:55:28.998Z</time></trkpt><trkpt lat="44.724198730767405" lon="9.607863202868726"><ele>914.3999999999999</ele><time>2026-05-03T14:55:31Z</time></trkpt><trkpt lat="44.724237883716434" lon="9.607952987486286"><ele>913.6</ele><time>2026-05-03T14:55:32Z</time></trkpt><trkpt lat="44.724298902002204" lon="9.608045253628578"><ele>912.8</ele><time>2026-05-03T14:55:33Z</time></trkpt><trkpt lat="44.7243847279444" lon="9.608133146950365"><ele>912.0</ele><time>2026-05-03T14:55:34Z</time></trkpt><trkpt lat="44.72448391369629" lon="9.608236877169762"><ele>906.2</ele><time>2026-05-03T14:55:35Z</time></trkpt><trkpt lat="44.7245424925492" lon="9.608358960242668"><ele>900.4000000000001</ele><time>2026-05-03T14:55:36Z</time></trkpt><trkpt lat="44.72459959667375" lon="9.608431545730504"><ele>894.5999999999999</ele><time>2026-05-03T14:55:37Z</time></trkpt><trkpt lat="44.72461795683159" lon="9.608578800582919"><ele>888.8</ele><time>2026-05-03T14:55:39Z</time></trkpt><trkpt lat="44.72458337200539" lon="9.608694862662494"><ele>883.0</ele><time>2026-05-03T14:55:40Z</time></trkpt><trkpt lat="44.724521778114514" lon="9.6088005289845"><ele>881.3333333333333</ele><time>2026-05-03T14:55:41Z</time></trkpt><trkpt lat="44.72449486510382" lon="9.608931430388674"><ele>879.6666666666666</ele><time>2026-05-03T14:55:42Z</time></trkpt><trkpt lat="44.72447092650358" lon="9.60905268806577"><ele>878.0</ele><time>2026-05-03T14:55:43Z</time></trkpt><trkpt lat="44.7244458402667" lon="9.609160236068533"><ele>876.3333333333333</ele><time>2026-05-03T14:55:44Z</time></trkpt><trkpt lat="44.724428628189614" lon="9.609263289788467"><ele>874.6666666666666</ele><time>2026-05-03T14:55:45Z</time></trkpt><trkpt lat="44.72442202032308" lon="9.609370285237185"><ele>873.0</ele><time>2026-05-03T14:55:46Z</time></trkpt><trkpt lat="44.724439876744164" lon="9.6094953955525"><ele>871.1666666666666</ele><time>2026-05-03T14:55:47Z</time></trkpt><trkpt lat="44.724457817676715" lon="9.609601930761945"><ele>869.3333333333333</ele><time>2026-05-03T14:55:48Z</time></trkpt><trkpt lat="44.72448894596333" lon="9.609709098424274"><ele>867.5</ele><time>2026-05-03T14:55:49Z</time></trkpt><trkpt lat="44.724512697816266" lon="9.609811303823628"><ele>865.6666666666666</ele><time>2026-05-03T14:55:50Z</time></trkpt><trkpt lat="44.724543515391105" lon="9.609914031680786"><ele>863.8333333333333</ele><time>2026-05-03T14:55:51Z</time></trkpt><trkpt lat="44.7245572691993" lon="9.610041253073076"><ele>862.0</ele><time>2026-05-03T14:55:52Z</time></trkpt><trkpt lat="44.72456996071243" lon="9.61017135579479"><ele>862.0</ele><time>2026-05-03T14:55:53Z</time></trkpt><trkpt lat="44.72457566775294" lon="9.610265123765151"><ele>862.0</ele><time>2026-05-03T14:55:54Z</time></trkpt><trkpt lat="44.72452825370366" lon="9.610447650884813"><ele>862.0</ele><time>2026-05-03T14:55:56Z</time></trkpt><trkpt lat="44.72449893881427" lon="9.61058645319619"><ele>862.0</ele><time>2026-05-03T14:55:58Z</time></trkpt><trkpt lat="44.72456582184361" lon="9.61067270176752"><ele>862.0</ele><time>2026-05-03T14:56:00Z</time></trkpt><trkpt lat="44.724629785285046" lon="9.610661914833203"><ele>862.0</ele><time>2026-05-03T14:56:01Z</time></trkpt><trkpt lat="44.72470934142249" lon="9.610523110154238"><ele>862.0</ele><time>2026-05-03T14:56:03Z</time></trkpt><trkpt lat="44.724760676418974" lon="9.610365252575004"><ele>862.0</ele><time>2026-05-03T14:56:05Z</time></trkpt><trkpt lat="44.724802965058636" lon="9.61022691532437"><ele>862.0</ele><time>2026-05-03T14:56:07Z</time></trkpt><trkpt lat="44.72482850663681" lon="9.610145729249796"><ele>862.0</ele><time>2026-05-03T14:56:08Z</time></trkpt><trkpt lat="44.72485294874742" lon="9.610057489099471"><ele>862.0</ele><time>2026-05-03T14:56:09Z</time></trkpt><trkpt lat="44.7248697240882" lon="9.609916123290432"><ele>862.0</ele><time>2026-05-03T14:56:10Z</time></trkpt><trkpt lat="44.72488237944062" lon="9.609779908085176"><ele>862.0</ele><time>2026-05-03T14:56:11Z</time></trkpt><trkpt lat="44.72489252547534" lon="9.609668577387945"><ele>862.0</ele><time>2026-05-03T14:56:12Z</time></trkpt><trkpt lat="44.724928456071126" lon="9.609512253323565"><ele>862.0</ele><time>2026-05-03T14:56:14Z</time></trkpt><trkpt lat="44.72496980600802" lon="9.609445258420278"><ele>863.5714285714286</ele><time>2026-05-03T14:56:15Z</time></trkpt><trkpt lat="44.7250207989947" lon="9.609386562835432"><ele>865.1428571428571</ele><time>2026-05-03T14:56:16Z</time></trkpt><trkpt lat="44.7250728802528" lon="9.609331995388432"><ele>866.7142857142857</ele><time>2026-05-03T14:56:17Z</time></trkpt><trkpt lat="44.725139123067166" lon="9.609284695272272"><ele>868.2857142857142</ele><time>2026-05-03T14:56:17.999Z</time></trkpt><trkpt lat="44.725202761753366" lon="9.60923610762814"><ele>869.8571428571429</ele><time>2026-05-03T14:56:18.999Z</time></trkpt><trkpt lat="44.725266081400406" lon="9.60920580648271"><ele>871.4285714285713</ele><time>2026-05-03T14:56:19.999Z</time></trkpt><trkpt lat="44.725326927625105" lon="9.609152650746273"><ele>873.0</ele><time>2026-05-03T14:56:20.999Z</time></trkpt><trkpt lat="44.72539696481726" lon="9.60908967774809"><ele>866.5999999999999</ele><time>2026-05-03T14:56:21.999Z</time></trkpt><trkpt lat="44.72547136342827" lon="9.609033756015451"><ele>860.1999999999999</ele><time>2026-05-03T14:56:22.999Z</time></trkpt><trkpt lat="44.725540470730564" lon="9.608998714273692"><ele>853.8</ele><time>2026-05-03T14:56:23.999Z</time></trkpt><trkpt lat="44.72567392218852" lon="9.608989497584908"><ele>847.4</ele><time>2026-05-03T14:56:25.999Z</time></trkpt><trkpt lat="44.72574960927953" lon="9.609026166994067"><ele>841.0</ele><time>2026-05-03T14:56:26.999Z</time></trkpt><trkpt lat="44.72581836173103" lon="9.609086065867888"><ele>841.0</ele><time>2026-05-03T14:56:27.999Z</time></trkpt><trkpt lat="44.72589789661523" lon="9.609146782742252"><ele>841.0</ele><time>2026-05-03T14:56:28.999Z</time></trkpt><trkpt lat="44.72598895973112" lon="9.609183848790124"><ele>841.0</ele><time>2026-05-03T14:56:29.999Z</time></trkpt><trkpt lat="44.726046203523346" lon="9.60922403084351"><ele>841.0</ele><time>2026-05-03T14:56:30.999Z</time></trkpt><trkpt lat="44.72616426516981" lon="9.609274948739795"><ele>841.0</ele><time>2026-05-03T14:56:32.999Z</time></trkpt><trkpt lat="44.7262939172969" lon="9.609268127336033"><ele>837.8333333333333</ele><time>2026-05-03T14:56:34.999Z</time></trkpt><trkpt lat="44.72636659585207" lon="9.609244166987168"><ele>834.6666666666666</ele><time>2026-05-03T14:56:35.999Z</time></trkpt><trkpt lat="44.72644556178537" lon="9.609234483272127"><ele>831.5</ele><time>2026-05-03T14:56:36.999Z</time></trkpt><trkpt lat="44.726518139534036" lon="9.609221287579848"><ele>828.3333333333333</ele><time>2026-05-03T14:56:37.999Z</time></trkpt><trkpt lat="44.72659729695652" lon="9.609211222600127"><ele>825.1666666666666</ele><time>2026-05-03T14:56:38.999Z</time></trkpt><trkpt lat="44.726675298079144" lon="9.609200283252283"><ele>822.0</ele><time>2026-05-03T14:56:39.999Z</time></trkpt><trkpt lat="44.72674705692946" lon="9.609233557621367"><ele>822.0</ele><time>2026-05-03T14:56:40.999Z</time></trkpt><trkpt lat="44.72683988571227" lon="9.609282897307507"><ele>822.0</ele><time>2026-05-03T14:56:41.999Z</time></trkpt><trkpt lat="44.72691668784286" lon="9.609312725464873"><ele>822.0</ele><time>2026-05-03T14:56:42.999Z</time></trkpt><trkpt lat="44.72699532726961" lon="9.60934753764355"><ele>822.0</ele><time>2026-05-03T14:56:43.999Z</time></trkpt><trkpt lat="44.72705948158241" lon="9.609358394774999"><ele>822.0</ele><time>2026-05-03T14:56:44.999Z</time></trkpt><trkpt lat="44.72711917153326" lon="9.609310767094719"><ele>822.0</ele><time>2026-05-03T14:56:45.999Z</time></trkpt><trkpt lat="44.727193049811305" lon="9.609266718527522"><ele>820.0</ele><time>2026-05-03T14:56:46.999Z</time></trkpt><trkpt lat="44.727269355973014" lon="9.609247364111562"><ele>818.0</ele><time>2026-05-03T14:56:47.999Z</time></trkpt><trkpt lat="44.72734984350051" lon="9.60924001650238"><ele>816.0</ele><time>2026-05-03T14:56:48.999Z</time></trkpt><trkpt lat="44.72743849709403" lon="9.609255648242538"><ele>814.0</ele><time>2026-05-03T14:56:49.999Z</time></trkpt><trkpt lat="44.727519157494356" lon="9.609274798735573"><ele>812.0</ele><time>2026-05-03T14:56:50.999Z</time></trkpt><trkpt lat="44.72758958301624" lon="9.609239601370422"><ele>810.0</ele><time>2026-05-03T14:56:51.999Z</time></trkpt><trkpt lat="44.72767749165135" lon="9.609279659122256"><ele>806.4</ele><time>2026-05-03T14:56:52.999Z</time></trkpt><trkpt lat="44.72776060818593" lon="9.609284075435445"><ele>802.8</ele><time>2026-05-03T14:56:53.999Z</time></trkpt><trkpt lat="44.72784400455491" lon="9.609277902544756"><ele>799.2</ele><time>2026-05-03T14:56:54.999Z</time></trkpt><trkpt lat="44.72793830380238" lon="9.60926228678964"><ele>795.6</ele><time>2026-05-03T14:56:55.999Z</time></trkpt><trkpt lat="44.728070380283725" lon="9.609261815787438"><ele>792.0</ele><time>2026-05-03T14:56:56.999Z</time></trkpt><trkpt lat="44.72816704114503" lon="9.609246576182393"><ele>792.0</ele><time>2026-05-03T14:56:57.999Z</time></trkpt><trkpt lat="44.72824550273574" lon="9.609237592770246"><ele>792.0</ele><time>2026-05-03T14:56:58.999Z</time></trkpt><trkpt lat="44.72835616950209" lon="9.609192344147074"><ele>792.0</ele><time>2026-05-03T14:57:00.999Z</time></trkpt><trkpt lat="44.72841818639636" lon="9.609161839926331"><ele>792.0</ele><time>2026-05-03T14:57:01.999Z</time></trkpt><trkpt lat="44.72849907820362" lon="9.609124721572044"><ele>792.0</ele><time>2026-05-03T14:57:02.999Z</time></trkpt><trkpt lat="44.7285791348265" lon="9.609082895943226"><ele>792.0</ele><time>2026-05-03T14:57:03.999Z</time></trkpt><trkpt lat="44.72866120470288" lon="9.609051932863453"><ele>788.5</ele><time>2026-05-03T14:57:04.999Z</time></trkpt><trkpt lat="44.72872398424542" lon="9.608991255710206"><ele>785.0</ele><time>2026-05-03T14:57:05.999Z</time></trkpt><trkpt lat="44.72878131888305" lon="9.608951397974113"><ele>781.5</ele><time>2026-05-03T14:57:06.999Z</time></trkpt><trkpt lat="44.728882726896096" lon="9.608889887360883"><ele>778.0</ele><time>2026-05-03T14:57:08.999Z</time></trkpt><trkpt lat="44.728944217589095" lon="9.608843590267663"><ele>774.5</ele><time>2026-05-03T14:57:09.999Z</time></trkpt><trkpt lat="44.72903472650748" lon="9.608757732380315"><ele>771.0</ele><time>2026-05-03T14:57:11.999Z</time></trkpt><trkpt lat="44.7290908413519" lon="9.60861336206168"><ele>771.0</ele><time>2026-05-03T14:57:13.999Z</time></trkpt><trkpt lat="44.729127964290576" lon="9.608516924309932"><ele>771.0</ele><time>2026-05-03T14:57:14.999Z</time></trkpt><trkpt lat="44.72916790548789" lon="9.608416006294382"><ele>771.0</ele><time>2026-05-03T14:57:15.999Z</time></trkpt><trkpt lat="44.729219619298256" lon="9.608325950928382"><ele>771.0</ele><time>2026-05-03T14:57:16.999Z</time></trkpt><trkpt lat="44.72927177249289" lon="9.608263106017427"><ele>771.0</ele><time>2026-05-03T14:57:17.999Z</time></trkpt><trkpt lat="44.729336029463404" lon="9.608186274205769"><ele>771.0</ele><time>2026-05-03T14:57:18.998Z</time></trkpt><trkpt lat="44.72940018538717" lon="9.608100716804463"><ele>764.8</ele><time>2026-05-03T14:57:19.998Z</time></trkpt><trkpt lat="44.72946741354702" lon="9.608014638052012"><ele>758.5999999999999</ele><time>2026-05-03T14:57:20.998Z</time></trkpt><trkpt lat="44.72953876056608" lon="9.60792515366189"><ele>752.4</ele><time>2026-05-03T14:57:21.998Z</time></trkpt><trkpt lat="44.72961203238961" lon="9.607843422585727"><ele>746.2</ele><time>2026-05-03T14:57:22.998Z</time></trkpt><trkpt lat="44.72967118698254" lon="9.607756256614067"><ele>740.0</ele><time>2026-05-03T14:57:23.998Z</time></trkpt><trkpt lat="44.729728474476765" lon="9.607610960937805"><ele>740.0</ele><time>2026-05-03T14:57:25.998Z</time></trkpt><trkpt lat="44.729711226051165" lon="9.60749948986914"><ele>740.0</ele><time>2026-05-03T14:57:26.998Z</time></trkpt><trkpt lat="44.72970489820746" lon="9.607403303090468"><ele>740.0</ele><time>2026-05-03T14:57:27.998Z</time></trkpt><trkpt lat="44.72975374309038" lon="9.607315032415098"><ele>740.0</ele><time>2026-05-03T14:57:29.998Z</time></trkpt><trkpt lat="44.72980304973338" lon="9.607411051590438"><ele>740.0</ele><time>2026-05-03T14:57:32.998Z</time></trkpt><trkpt lat="44.72978499435125" lon="9.607532418077406"><ele>740.0</ele><time>2026-05-03T14:57:35.998Z</time></trkpt><trkpt lat="44.7298162082101" lon="9.607681225733808"><ele>738.3333333333333</ele><time>2026-05-03T14:57:39Z</time></trkpt><trkpt lat="44.72983016106733" lon="9.607861320188054"><ele>736.6666666666666</ele><time>2026-05-03T14:57:41Z</time></trkpt><trkpt lat="44.72980705535644" lon="9.607967318368596"><ele>735.0</ele><time>2026-05-03T14:57:42Z</time></trkpt><trkpt lat="44.72979250869539" lon="9.608069150888213"><ele>733.3333333333334</ele><time>2026-05-03T14:57:43Z</time></trkpt><trkpt lat="44.729771578788416" lon="9.608182943147654"><ele>731.6666666666667</ele><time>2026-05-03T14:57:44Z</time></trkpt><trkpt lat="44.729746361139235" lon="9.608293357819488"><ele>730.0</ele><time>2026-05-03T14:57:45Z</time></trkpt><trkpt lat="44.72974698239121" lon="9.608407046292088"><ele>730.0</ele><time>2026-05-03T14:57:46Z</time></trkpt><trkpt lat="44.72976125279843" lon="9.608519870447651"><ele>730.0</ele><time>2026-05-03T14:57:47Z</time></trkpt><trkpt lat="44.72978518877923" lon="9.60863444047787"><ele>730.0</ele><time>2026-05-03T14:57:48Z</time></trkpt><trkpt lat="44.729814933629676" lon="9.608730641612722"><ele>730.0</ele><time>2026-05-03T14:57:49Z</time></trkpt><trkpt lat="44.72984900787697" lon="9.608813648478298"><ele>730.0</ele><time>2026-05-03T14:57:50Z</time></trkpt><trkpt lat="44.72988676032144" lon="9.608909093576468"><ele>730.0</ele><time>2026-05-03T14:57:51Z</time></trkpt><trkpt lat="44.7299028545802" lon="9.609010027287837"><ele>729.5</ele><time>2026-05-03T14:57:52Z</time></trkpt><trkpt lat="44.72992381279747" lon="9.60911666574385"><ele>729.0</ele><time>2026-05-03T14:57:53Z</time></trkpt><trkpt lat="44.729936331295654" lon="9.609214436415376"><ele>728.5</ele><time>2026-05-03T14:57:54Z</time></trkpt><trkpt lat="44.72993525575914" lon="9.609314639312327"><ele>728.0</ele><time>2026-05-03T14:57:55Z</time></trkpt><trkpt lat="44.72992077235665" lon="9.609402591468022"><ele>727.5</ele><time>2026-05-03T14:57:56Z</time></trkpt><trkpt lat="44.72987446127411" lon="9.609552809112742"><ele>727.0</ele><time>2026-05-03T14:57:58Z</time></trkpt><trkpt lat="44.72981390737553" lon="9.609689847823958"><ele>724.2</ele><time>2026-05-03T14:58:00Z</time></trkpt><trkpt lat="44.72975457025705" lon="9.609770514313318"><ele>721.4000000000001</ele><time>2026-05-03T14:58:01Z</time></trkpt><trkpt lat="44.72967468249809" lon="9.609854701758863"><ele>718.5999999999999</ele><time>2026-05-03T14:58:02Z</time></trkpt><trkpt lat="44.72958683030424" lon="9.609935263943314"><ele>715.8</ele><time>2026-05-03T14:58:03Z</time></trkpt><trkpt lat="44.729496335695046" lon="9.610025951801315"><ele>713.0</ele><time>2026-05-03T14:58:04Z</time></trkpt><trkpt lat="44.72940824696867" lon="9.610127131476462"><ele>713.0</ele><time>2026-05-03T14:58:05Z</time></trkpt><trkpt lat="44.72932567701213" lon="9.610237246995519"><ele>713.0</ele><time>2026-05-03T14:58:06Z</time></trkpt><trkpt lat="44.72925604893607" lon="9.61036157671174"><ele>713.0</ele><time>2026-05-03T14:58:07Z</time></trkpt><trkpt lat="44.7291992400586" lon="9.610485889713427"><ele>713.0</ele><time>2026-05-03T14:58:08Z</time></trkpt><trkpt lat="44.72914929872949" lon="9.610622594864111"><ele>713.0</ele><time>2026-05-03T14:58:09Z</time></trkpt><trkpt lat="44.72908930677746" lon="9.61075679070252"><ele>713.0</ele><time>2026-05-03T14:58:10Z</time></trkpt><trkpt lat="44.729021773171915" lon="9.610891275779746"><ele>713.0</ele><time>2026-05-03T14:58:11Z</time></trkpt><trkpt lat="44.72895449818115" lon="9.611021739633882"><ele>713.0</ele><time>2026-05-03T14:58:12Z</time></trkpt><trkpt lat="44.728887861096844" lon="9.6111473176954"><ele>713.0</ele><time>2026-05-03T14:58:13Z</time></trkpt><trkpt lat="44.72882647328921" lon="9.611269262218942"><ele>713.0</ele><time>2026-05-03T14:58:14Z</time></trkpt><trkpt lat="44.7287582376097" lon="9.611385772058934"><ele>712.4</ele><time>2026-05-03T14:58:15Z</time></trkpt><trkpt lat="44.72868909394183" lon="9.611488885195332"><ele>711.8</ele><time>2026-05-03T14:58:16Z</time></trkpt><trkpt lat="44.728611692571825" lon="9.61159024223062"><ele>711.2</ele><time>2026-05-03T14:58:17Z</time></trkpt><trkpt lat="44.72852903956318" lon="9.611693955644345"><ele>710.6</ele><time>2026-05-03T14:58:18Z</time></trkpt><trkpt lat="44.72844185590977" lon="9.611808367617837"><ele>710.0</ele><time>2026-05-03T14:58:19Z</time></trkpt><trkpt lat="44.7283520196904" lon="9.611941972194273"><ele>706.75</ele><time>2026-05-03T14:58:20Z</time></trkpt><trkpt lat="44.72826159950793" lon="9.612097656071573"><ele>703.5</ele><time>2026-05-03T14:58:21Z</time></trkpt><trkpt lat="44.72817120168366" lon="9.612253994745698"><ele>700.25</ele><time>2026-05-03T14:58:22Z</time></trkpt><trkpt lat="44.7280869751337" lon="9.612390910139805"><ele>697.0</ele><time>2026-05-03T14:58:23Z</time></trkpt><trkpt lat="44.72800866405273" lon="9.612523390412077"><ele>697.0</ele><time>2026-05-03T14:58:23.999Z</time></trkpt><trkpt lat="44.72793604883563" lon="9.612658228143903"><ele>697.0</ele><time>2026-05-03T14:58:24.999Z</time></trkpt><trkpt lat="44.727864519567596" lon="9.612791616549364"><ele>697.0</ele><time>2026-05-03T14:58:25.999Z</time></trkpt><trkpt lat="44.72777947912646" lon="9.612912711589333"><ele>697.0</ele><time>2026-05-03T14:58:26.999Z</time></trkpt><trkpt lat="44.72768483632561" lon="9.613020655960696"><ele>697.0</ele><time>2026-05-03T14:58:27.999Z</time></trkpt><trkpt lat="44.72758605668824" lon="9.613106629440264"><ele>697.0</ele><time>2026-05-03T14:58:28.999Z</time></trkpt><trkpt lat="44.72751222698392" lon="9.61315055296451"><ele>697.0</ele><time>2026-05-03T14:58:29.999Z</time></trkpt><trkpt lat="44.727411901406015" lon="9.613203343669307"><ele>697.0</ele><time>2026-05-03T14:58:31.999Z</time></trkpt><trkpt lat="44.72737825633617" lon="9.613292532548687"><ele>697.0</ele><time>2026-05-03T14:58:33.999Z</time></trkpt><trkpt lat="44.72745396614333" lon="9.613403193923363"><ele>697.0</ele><time>2026-05-03T14:58:35.999Z</time></trkpt><trkpt lat="44.72757749602235" lon="9.613424680769699"><ele>697.0</ele><time>2026-05-03T14:58:36.999Z</time></trkpt><trkpt lat="44.727711381214" lon="9.613439548786348"><ele>697.0</ele><time>2026-05-03T14:58:37.999Z</time></trkpt><trkpt lat="44.72786224532848" lon="9.613426530128223"><ele>697.0</ele><time>2026-05-03T14:58:38.999Z</time></trkpt><trkpt lat="44.728026106464625" lon="9.613371105130769"><ele>692.0</ele><time>2026-05-03T14:58:39.999Z</time></trkpt><trkpt lat="44.728181872087674" lon="9.613317799337562"><ele>687.0</ele><time>2026-05-03T14:58:40.999Z</time></trkpt><trkpt lat="44.72833150135589" lon="9.613269007812836"><ele>682.0</ele><time>2026-05-03T14:58:41.999Z</time></trkpt><trkpt lat="44.728476074195605" lon="9.613223165806675"><ele>678.0</ele><time>2026-05-03T14:58:42.999Z</time></trkpt><trkpt lat="44.728607766016815" lon="9.613182822835807"><ele>674.0</ele><time>2026-05-03T14:58:43.999Z</time></trkpt><trkpt lat="44.72873231584787" lon="9.613134387656984"><ele>670.0</ele><time>2026-05-03T14:58:44.999Z</time></trkpt><trkpt lat="44.72885596550826" lon="9.613056758425444"><ele>666.0</ele><time>2026-05-03T14:58:45.999Z</time></trkpt><trkpt lat="44.72897014032718" lon="9.612956148645354"><ele>666.0</ele><time>2026-05-03T14:58:46.999Z</time></trkpt><trkpt lat="44.72907655518856" lon="9.612846636866466"><ele>666.0</ele><time>2026-05-03T14:58:47.999Z</time></trkpt><trkpt lat="44.729173629444404" lon="9.612739243437098"><ele>666.0</ele><time>2026-05-03T14:58:48.999Z</time></trkpt><trkpt lat="44.729269694505675" lon="9.612627753086985"><ele>666.0</ele><time>2026-05-03T14:58:49.999Z</time></trkpt><trkpt lat="44.72934924404463" lon="9.612505721145427"><ele>664.5</ele><time>2026-05-03T14:58:50.999Z</time></trkpt><trkpt lat="44.72940387999596" lon="9.612418884477165"><ele>663.0</ele><time>2026-05-03T14:58:51.999Z</time></trkpt><trkpt lat="44.72946363061001" lon="9.612363460434464"><ele>661.5</ele><time>2026-05-03T14:58:52.999Z</time></trkpt><trkpt lat="44.72952696433923" lon="9.612347919708759"><ele>660.0</ele><time>2026-05-03T14:58:53.999Z</time></trkpt><trkpt lat="44.72961220404245" lon="9.612432959857811"><ele>658.5</ele><time>2026-05-03T14:58:55.999Z</time></trkpt><trkpt lat="44.72960522437292" lon="9.612525295321882"><ele>657.0</ele><time>2026-05-03T14:58:56.999Z</time></trkpt><trkpt lat="44.72956742423465" lon="9.612623013107974"><ele>657.0</ele><time>2026-05-03T14:58:57.999Z</time></trkpt><trkpt lat="44.72950042381202" lon="9.612744190867057"><ele>657.0</ele><time>2026-05-03T14:58:58.999Z</time></trkpt><trkpt lat="44.72942492587823" lon="9.61288501559217"><ele>657.0</ele><time>2026-05-03T14:58:59.999Z</time></trkpt><trkpt lat="44.72937433804174" lon="9.613032178679964"><ele>657.0</ele><time>2026-05-03T14:59:00.999Z</time></trkpt><trkpt lat="44.72935079935866" lon="9.613192938488929"><ele>656.25</ele><time>2026-05-03T14:59:01.999Z</time></trkpt><trkpt lat="44.729350078565204" lon="9.613393448485265"><ele>655.5</ele><time>2026-05-03T14:59:02.999Z</time></trkpt><trkpt lat="44.72934344058067" lon="9.613606308741547"><ele>654.75</ele><time>2026-05-03T14:59:03.999Z</time></trkpt><trkpt lat="44.72933989011765" lon="9.613802576178905"><ele>654.0</ele><time>2026-05-03T14:59:04.999Z</time></trkpt><trkpt lat="44.729334324307025" lon="9.613976058121036"><ele>654.0</ele><time>2026-05-03T14:59:05.999Z</time></trkpt><trkpt lat="44.72932748652831" lon="9.61413558696165"><ele>654.0</ele><time>2026-05-03T14:59:06.999Z</time></trkpt><trkpt lat="44.72931569452576" lon="9.614294237953494"><ele>654.0</ele><time>2026-05-03T14:59:07.999Z</time></trkpt><trkpt lat="44.72929609885382" lon="9.614457448970086"><ele>654.0</ele><time>2026-05-03T14:59:08.999Z</time></trkpt><trkpt lat="44.72926164336096" lon="9.614619682659859"><ele>651.25</ele><time>2026-05-03T14:59:09.999Z</time></trkpt><trkpt lat="44.72922772643558" lon="9.61478743584495"><ele>648.5</ele><time>2026-05-03T14:59:10.999Z</time></trkpt><trkpt lat="44.72919224878082" lon="9.614950243535196"><ele>645.75</ele><time>2026-05-03T14:59:11.999Z</time></trkpt><trkpt lat="44.729140949914395" lon="9.615080779567815"><ele>643.0</ele><time>2026-05-03T14:59:12.999Z</time></trkpt><trkpt lat="44.72908143315714" lon="9.615208675498563"><ele>643.0</ele><time>2026-05-03T14:59:13.999Z</time></trkpt><trkpt lat="44.729008771477545" lon="9.615309231777658"><ele>643.0</ele><time>2026-05-03T14:59:14.999Z</time></trkpt><trkpt lat="44.728923688932085" lon="9.615392306479974"><ele>643.0</ele><time>2026-05-03T14:59:15.999Z</time></trkpt><trkpt lat="44.72883187212688" lon="9.615459873580614"><ele>643.0</ele><time>2026-05-03T14:59:16.999Z</time></trkpt><trkpt lat="44.72876201196029" lon="9.615530258044176"><ele>643.0</ele><time>2026-05-03T14:59:17.999Z</time></trkpt><trkpt lat="44.72872415244334" lon="9.615633454995953"><ele>640.3333333333334</ele><time>2026-05-03T14:59:18.999Z</time></trkpt><trkpt lat="44.72872852997721" lon="9.615751989371281"><ele>637.6666666666667</ele><time>2026-05-03T14:59:19.999Z</time></trkpt><trkpt lat="44.72874450849988" lon="9.615895123597962"><ele>635.0</ele><time>2026-05-03T14:59:20.999Z</time></trkpt><trkpt lat="44.72875152924692" lon="9.616026311800965"><ele>632.3333333333334</ele><time>2026-05-03T14:59:21.999Z</time></trkpt><trkpt lat="44.72872166197953" lon="9.616126541863183"><ele>629.6666666666666</ele><time>2026-05-03T14:59:22.999Z</time></trkpt><trkpt lat="44.72867113651607" lon="9.616196677430684"><ele>627.0</ele><time>2026-05-03T14:59:23.998Z</time></trkpt><trkpt lat="44.728594683757066" lon="9.616265770876616"><ele>626.5</ele><time>2026-05-03T14:59:24.998Z</time></trkpt><trkpt lat="44.72848127419173" lon="9.616350454864438"><ele>626.0</ele><time>2026-05-03T14:59:25.998Z</time></trkpt><trkpt lat="44.72834629573911" lon="9.616426728262953"><ele>625.5</ele><time>2026-05-03T14:59:26.998Z</time></trkpt><trkpt lat="44.72821965914911" lon="9.616490956497614"><ele>625.0</ele><time>2026-05-03T14:59:27.998Z</time></trkpt><trkpt lat="44.728118520178285" lon="9.6165500471151"><ele>625.0</ele><time>2026-05-03T14:59:28.998Z</time></trkpt><trkpt lat="44.72804015828129" lon="9.616605869310545"><ele>625.0</ele><time>2026-05-03T14:59:29.998Z</time></trkpt><trkpt lat="44.72797718651476" lon="9.616661653495129"><ele>625.0</ele><time>2026-05-03T14:59:30.998Z</time></trkpt><trkpt lat="44.727933407274364" lon="9.616729625077726"><ele>625.0</ele><time>2026-05-03T14:59:31.998Z</time></trkpt><trkpt lat="44.727947981690804" lon="9.616887935557166"><ele>625.0</ele><time>2026-05-03T14:59:33.998Z</time></trkpt><trkpt lat="44.72800711459297" lon="9.616940136900682"><ele>625.0</ele><time>2026-05-03T14:59:34.998Z</time></trkpt><trkpt lat="44.728093598102106" lon="9.616947968358057"><ele>625.0</ele><time>2026-05-03T14:59:35.998Z</time></trkpt><trkpt lat="44.7282116706419" lon="9.616901078509029"><ele>625.0</ele><time>2026-05-03T14:59:36.998Z</time></trkpt><trkpt lat="44.728342861400336" lon="9.616814263980423"><ele>625.0</ele><time>2026-05-03T14:59:37.998Z</time></trkpt><trkpt lat="44.72844451127353" lon="9.616773289503056"><ele>625.0</ele><time>2026-05-03T14:59:38.998Z</time></trkpt><trkpt lat="44.72852710610558" lon="9.61680639013852"><ele>623.0</ele><time>2026-05-03T14:59:39.998Z</time></trkpt><trkpt lat="44.728585758429816" lon="9.616890982179799"><ele>621.0</ele><time>2026-05-03T14:59:40.998Z</time></trkpt><trkpt lat="44.72861687081547" lon="9.617005024614082"><ele>619.0</ele><time>2026-05-03T14:59:41.998Z</time></trkpt><trkpt lat="44.72860631143068" lon="9.617110356844845"><ele>617.0</ele><time>2026-05-03T14:59:43Z</time></trkpt><trkpt lat="44.728539582904894" lon="9.617206768821767"><ele>615.0</ele><time>2026-05-03T14:59:44Z</time></trkpt><trkpt lat="44.72844112639054" lon="9.61731298234802"><ele>615.0</ele><time>2026-05-03T14:59:45Z</time></trkpt><trkpt lat="44.72833649936881" lon="9.617422068010779"><ele>615.0</ele><time>2026-05-03T14:59:46Z</time></trkpt><trkpt lat="44.72822929935399" lon="9.61749093486668"><ele>615.0</ele><time>2026-05-03T14:59:47Z</time></trkpt><trkpt lat="44.72810917991558" lon="9.61748872495341"><ele>615.0</ele><time>2026-05-03T14:59:48Z</time></trkpt><trkpt lat="44.72799971358042" lon="9.617412480392925"><ele>615.0</ele><time>2026-05-03T14:59:49Z</time></trkpt><trkpt lat="44.72791507760044" lon="9.617332451631167"><ele>615.0</ele><time>2026-05-03T14:59:50Z</time></trkpt><trkpt lat="44.72783095693646" lon="9.61731656314847"><ele>615.0</ele><time>2026-05-03T14:59:51Z</time></trkpt><trkpt lat="44.72775855312665" lon="9.617389866185551"><ele>615.0</ele><time>2026-05-03T14:59:52Z</time></trkpt><trkpt lat="44.72771500193032" lon="9.61748202112821"><ele>615.0</ele><time>2026-05-03T14:59:53Z</time></trkpt><trkpt lat="44.72770514649191" lon="9.617589827710775"><ele>615.0</ele><time>2026-05-03T14:59:54Z</time></trkpt><trkpt lat="44.72772605237994" lon="9.61772104532522"><ele>613.5</ele><time>2026-05-03T14:59:55Z</time></trkpt><trkpt lat="44.72777560715098" lon="9.617884242133377"><ele>612.0</ele><time>2026-05-03T14:59:56Z</time></trkpt><trkpt lat="44.72784391051793" lon="9.618051041679193"><ele>610.5</ele><time>2026-05-03T14:59:57Z</time></trkpt><trkpt lat="44.72791818349326" lon="9.618227518678522"><ele>609.0</ele><time>2026-05-03T14:59:58Z</time></trkpt><trkpt lat="44.72799721727255" lon="9.618389281711398"><ele>609.0</ele><time>2026-05-03T14:59:59Z</time></trkpt><trkpt lat="44.7280712803017" lon="9.618518610353215"><ele>609.0</ele><time>2026-05-03T15:00:00Z</time></trkpt><trkpt lat="44.7281586588829" lon="9.618631084616663"><ele>609.0</ele><time>2026-05-03T15:00:01Z</time></trkpt><trkpt lat="44.728258948583324" lon="9.618723519384309"><ele>609.0</ele><time>2026-05-03T15:00:02Z</time></trkpt><trkpt lat="44.728378037104605" lon="9.618783591287976"><ele>611.25</ele><time>2026-05-03T15:00:03Z</time></trkpt><trkpt lat="44.72850048082017" lon="9.618826586393709"><ele>613.5</ele><time>2026-05-03T15:00:04Z</time></trkpt><trkpt lat="44.72862439547883" lon="9.618865499388448"><ele>615.75</ele><time>2026-05-03T15:00:05Z</time></trkpt><trkpt lat="44.728732267273074" lon="9.618918531238723"><ele>618.0</ele><time>2026-05-03T15:00:06Z</time></trkpt><trkpt lat="44.728807533214976" lon="9.618977940767568"><ele>618.0</ele><time>2026-05-03T15:00:07Z</time></trkpt><trkpt lat="44.72892729386914" lon="9.61893064332297"><ele>618.0</ele><time>2026-05-03T15:00:09Z</time></trkpt><trkpt lat="44.72898622729544" lon="9.618840239164676"><ele>618.0</ele><time>2026-05-03T15:00:10Z</time></trkpt><trkpt lat="44.72903764972183" lon="9.618699110015482"><ele>618.0</ele><time>2026-05-03T15:00:11Z</time></trkpt><trkpt lat="44.72910875365714" lon="9.618535198338398"><ele>618.5</ele><time>2026-05-03T15:00:12Z</time></trkpt><trkpt lat="44.72920512611024" lon="9.618383154008587"><ele>619.0</ele><time>2026-05-03T15:00:13Z</time></trkpt><trkpt lat="44.72930364272344" lon="9.618267680126428"><ele>619.5</ele><time>2026-05-03T15:00:14Z</time></trkpt><trkpt lat="44.729420507412044" lon="9.618173942147493"><ele>620.0</ele><time>2026-05-03T15:00:15Z</time></trkpt><trkpt lat="44.72953765369667" lon="9.618091229351515"><ele>620.0</ele><time>2026-05-03T15:00:16Z</time></trkpt><trkpt lat="44.72964545665618" lon="9.617994695480405"><ele>620.0</ele><time>2026-05-03T15:00:17Z</time></trkpt><trkpt lat="44.72975107150128" lon="9.617908137610042"><ele>620.0</ele><time>2026-05-03T15:00:18Z</time></trkpt><trkpt lat="44.729872169673904" lon="9.617838981313016"><ele>620.0</ele><time>2026-05-03T15:00:19Z</time></trkpt><trkpt lat="44.72999458712994" lon="9.61778422241362"><ele>615.0</ele><time>2026-05-03T15:00:20Z</time></trkpt><trkpt lat="44.730115762308465" lon="9.61772112523192"><ele>610.0</ele><time>2026-05-03T15:00:21Z</time></trkpt><trkpt lat="44.73022864485599" lon="9.617653177079067"><ele>605.0</ele><time>2026-05-03T15:00:22Z</time></trkpt><trkpt lat="44.730346501048125" lon="9.617616485623266"><ele>600.0</ele><time>2026-05-03T15:00:23Z</time></trkpt><trkpt lat="44.73046133425781" lon="9.617580609686105"><ele>600.0</ele><time>2026-05-03T15:00:24Z</time></trkpt><trkpt lat="44.730567796339606" lon="9.617511334088446"><ele>600.0</ele><time>2026-05-03T15:00:25Z</time></trkpt><trkpt lat="44.73067113042314" lon="9.617414706303567"><ele>600.0</ele><time>2026-05-03T15:00:26Z</time></trkpt><trkpt lat="44.73076913982366" lon="9.617284499558775"><ele>600.0</ele><time>2026-05-03T15:00:27Z</time></trkpt><trkpt lat="44.7308813482933" lon="9.61717605176744"><ele>600.0</ele><time>2026-05-03T15:00:28Z</time></trkpt><trkpt lat="44.7309886113083" lon="9.617075673717475"><ele>600.0</ele><time>2026-05-03T15:00:29Z</time></trkpt><trkpt lat="44.731092326109255" lon="9.61697199974288"><ele>600.0</ele><time>2026-05-03T15:00:29.999Z</time></trkpt><trkpt lat="44.73118289281535" lon="9.616856318030989"><ele>600.0</ele><time>2026-05-03T15:00:30.999Z</time></trkpt><trkpt lat="44.7312727692065" lon="9.616743468876372"><ele>598.8</ele><time>2026-05-03T15:00:31.999Z</time></trkpt><trkpt lat="44.73134717855292" lon="9.616617046387999"><ele>597.6</ele><time>2026-05-03T15:00:32.999Z</time></trkpt><trkpt lat="44.731407338916235" lon="9.616485153128119"><ele>596.4</ele><time>2026-05-03T15:00:33.999Z</time></trkpt><trkpt lat="44.73146907375294" lon="9.61636444299087"><ele>595.2</ele><time>2026-05-03T15:00:34.999Z</time></trkpt><trkpt lat="44.73153835002993" lon="9.61626342974614"><ele>594.0</ele><time>2026-05-03T15:00:35.999Z</time></trkpt><trkpt lat="44.73163959462278" lon="9.616202376617304"><ele>590.75</ele><time>2026-05-03T15:00:36.999Z</time></trkpt><trkpt lat="44.73175542464816" lon="9.616144335654957"><ele>587.5</ele><time>2026-05-03T15:00:37.999Z</time></trkpt><trkpt lat="44.731881435868175" lon="9.616069114439785"><ele>584.25</ele><time>2026-05-03T15:00:38.999Z</time></trkpt><trkpt lat="44.73201297739898" lon="9.615992353333958"><ele>581.0</ele><time>2026-05-03T15:00:39.999Z</time></trkpt><trkpt lat="44.732135921017196" lon="9.61594609830176"><ele>581.0</ele><time>2026-05-03T15:00:40.999Z</time></trkpt><trkpt lat="44.73225218738683" lon="9.615902403792576"><ele>581.0</ele><time>2026-05-03T15:00:41.999Z</time></trkpt><trkpt lat="44.732366232981576" lon="9.615842358569983"><ele>581.0</ele><time>2026-05-03T15:00:42.999Z</time></trkpt><trkpt lat="44.732483942384086" lon="9.615800959135962"><ele>581.0</ele><time>2026-05-03T15:00:43.999Z</time></trkpt><trkpt lat="44.73259587217385" lon="9.615758766182147"><ele>581.0</ele><time>2026-05-03T15:00:44.999Z</time></trkpt><trkpt lat="44.73268258725136" lon="9.615685178351582"><ele>581.0</ele><time>2026-05-03T15:00:45.999Z</time></trkpt><trkpt lat="44.732755816450045" lon="9.615601450792042"><ele>581.0</ele><time>2026-05-03T15:00:46.999Z</time></trkpt><trkpt lat="44.732833808014725" lon="9.615523439075831"><ele>581.0</ele><time>2026-05-03T15:00:47.999Z</time></trkpt><trkpt lat="44.73290741892302" lon="9.615428048110159"><ele>581.0</ele><time>2026-05-03T15:00:48.999Z</time></trkpt><trkpt lat="44.73298054290292" lon="9.615312478776312"><ele>581.5</ele><time>2026-05-03T15:00:49.999Z</time></trkpt><trkpt lat="44.733046401812416" lon="9.615165686245957"><ele>582.0</ele><time>2026-05-03T15:00:50.999Z</time></trkpt><trkpt lat="44.733101965377806" lon="9.615024748326285"><ele>582.5</ele><time>2026-05-03T15:00:51.999Z</time></trkpt><trkpt lat="44.73315825211576" lon="9.614887191445362"><ele>583.0</ele><time>2026-05-03T15:00:52.999Z</time></trkpt><trkpt lat="44.7332079630007" lon="9.614764087605392"><ele>583.0</ele><time>2026-05-03T15:00:53.999Z</time></trkpt><trkpt lat="44.733254600022256" lon="9.614670303763724"><ele>583.0</ele><time>2026-05-03T15:00:54.999Z</time></trkpt><trkpt lat="44.73331346599962" lon="9.614605404979685"><ele>583.0</ele><time>2026-05-03T15:00:55.999Z</time></trkpt><trkpt lat="44.73339085577599" lon="9.614570543696832"><ele>583.0</ele><time>2026-05-03T15:00:56.999Z</time></trkpt><trkpt lat="44.733481434927796" lon="9.614538595429183"><ele>583.0</ele><time>2026-05-03T15:00:57.999Z</time></trkpt><trkpt lat="44.733568474921974" lon="9.614485975205465"><ele>583.0</ele><time>2026-05-03T15:00:58.999Z</time></trkpt><trkpt lat="44.733641901877114" lon="9.614426349512947"><ele>583.3333333333334</ele><time>2026-05-03T15:00:59.999Z</time></trkpt><trkpt lat="44.73368872040161" lon="9.614342292635055"><ele>583.6666666666667</ele><time>2026-05-03T15:01:00.999Z</time></trkpt><trkpt lat="44.73372507339836" lon="9.614260747111892"><ele>584.0</ele><time>2026-05-03T15:01:01.999Z</time></trkpt><trkpt lat="44.73378187151347" lon="9.614215406001275"><ele>584.3333333333334</ele><time>2026-05-03T15:01:02.999Z</time></trkpt><trkpt lat="44.73385576990054" lon="9.614217205547654"><ele>584.6666666666666</ele><time>2026-05-03T15:01:03.999Z</time></trkpt><trkpt lat="44.733938386969164" lon="9.614257919262238"><ele>585.0</ele><time>2026-05-03T15:01:04.999Z</time></trkpt><trkpt lat="44.7340254663784" lon="9.614323744051024"><ele>585.0</ele><time>2026-05-03T15:01:05.999Z</time></trkpt><trkpt lat="44.73410771810438" lon="9.61441169857069"><ele>585.0</ele><time>2026-05-03T15:01:06.999Z</time></trkpt><trkpt lat="44.73417817689704" lon="9.614462728653587"><ele>585.0</ele><time>2026-05-03T15:01:07.999Z</time></trkpt><trkpt lat="44.7343024495919" lon="9.614414751972829"><ele>585.0</ele><time>2026-05-03T15:01:09.999Z</time></trkpt><trkpt lat="44.73436014104185" lon="9.614310277705783"><ele>585.0</ele><time>2026-05-03T15:01:10.999Z</time></trkpt><trkpt lat="44.73441026981279" lon="9.614151773437161"><ele>591.5</ele><time>2026-05-03T15:01:11.999Z</time></trkpt><trkpt lat="44.73445363433353" lon="9.613991844769165"><ele>598.0</ele><time>2026-05-03T15:01:12.999Z</time></trkpt><trkpt lat="44.73448983293741" lon="9.613842428458822"><ele>604.5</ele><time>2026-05-03T15:01:13.999Z</time></trkpt><trkpt lat="44.73449319631757" lon="9.613676086610642"><ele>611.0</ele><time>2026-05-03T15:01:14.999Z</time></trkpt><trkpt lat="44.73447813094854" lon="9.613517969930593"><ele>611.0</ele><time>2026-05-03T15:01:15.999Z</time></trkpt><trkpt lat="44.734477739834865" lon="9.61338216303363"><ele>611.0</ele><time>2026-05-03T15:01:16.999Z</time></trkpt><trkpt lat="44.73450992762109" lon="9.613260323964035"><ele>611.0</ele><time>2026-05-03T15:01:17.999Z</time></trkpt><trkpt lat="44.73455014903982" lon="9.613136704721512"><ele>611.0</ele><time>2026-05-03T15:01:18.999Z</time></trkpt><trkpt lat="44.734578455660994" lon="9.61300333011585"><ele>611.0</ele><time>2026-05-03T15:01:19.999Z</time></trkpt><trkpt lat="44.734599661930936" lon="9.612847893121332"><ele>607.6</ele><time>2026-05-03T15:01:20.999Z</time></trkpt><trkpt lat="44.73461952442764" lon="9.612681139783827"><ele>604.2</ele><time>2026-05-03T15:01:21.999Z</time></trkpt><trkpt lat="44.7346365435021" lon="9.612540839068293"><ele>600.8</ele><time>2026-05-03T15:01:22.999Z</time></trkpt><trkpt lat="44.73466888710527" lon="9.61245035693913"><ele>597.4</ele><time>2026-05-03T15:01:23.999Z</time></trkpt><trkpt lat="44.73472990178042" lon="9.612380836007334"><ele>594.0</ele><time>2026-05-03T15:01:24.999Z</time></trkpt><trkpt lat="44.73481747919134" lon="9.612328286960093"><ele>594.0</ele><time>2026-05-03T15:01:25.999Z</time></trkpt><trkpt lat="44.73490016295303" lon="9.612321758093758"><ele>594.0</ele><time>2026-05-03T15:01:26.999Z</time></trkpt><trkpt lat="44.73498951939986" lon="9.61235783960228"><ele>594.0</ele><time>2026-05-03T15:01:27.999Z</time></trkpt><trkpt lat="44.73507615186886" lon="9.612393509926703"><ele>594.0</ele><time>2026-05-03T15:01:28.999Z</time></trkpt><trkpt lat="44.73516845034359" lon="9.612344989349252"><ele>594.0</ele><time>2026-05-03T15:01:29.998Z</time></trkpt><trkpt lat="44.73524575956682" lon="9.612242153805926"><ele>601.25</ele><time>2026-05-03T15:01:30.998Z</time></trkpt><trkpt lat="44.73530348963212" lon="9.612085073075757"><ele>608.5</ele><time>2026-05-03T15:01:31.998Z</time></trkpt><trkpt lat="44.735352369982955" lon="9.61190179783523"><ele>615.75</ele><time>2026-05-03T15:01:32.998Z</time></trkpt><trkpt lat="44.73538717650545" lon="9.611696810513047"><ele>623.0</ele><time>2026-05-03T15:01:33.998Z</time></trkpt><trkpt lat="44.73540137061676" lon="9.61152177119652"><ele>623.0</ele><time>2026-05-03T15:01:34.998Z</time></trkpt><trkpt lat="44.73541716615852" lon="9.611380441328127"><ele>623.0</ele><time>2026-05-03T15:01:35.998Z</time></trkpt><trkpt lat="44.73543676936276" lon="9.611265112324554"><ele>623.0</ele><time>2026-05-03T15:01:36.998Z</time></trkpt><trkpt lat="44.73547755223641" lon="9.61118154580028"><ele>623.0</ele><time>2026-05-03T15:01:37.998Z</time></trkpt><trkpt lat="44.735555047049125" lon="9.611112198510344"><ele>623.0</ele><time>2026-05-03T15:01:38.998Z</time></trkpt><trkpt lat="44.73565604495362" lon="9.611056830118779"><ele>617.1999999999999</ele><time>2026-05-03T15:01:39.998Z</time></trkpt><trkpt lat="44.73574014526947" lon="9.610991928995618"><ele>611.4</ele><time>2026-05-03T15:01:40.998Z</time></trkpt><trkpt lat="44.73577341546655" lon="9.610889443448968"><ele>605.5999999999999</ele><time>2026-05-03T15:01:41.998Z</time></trkpt><trkpt lat="44.7357718101907" lon="9.610768571796479"><ele>599.8</ele><time>2026-05-03T15:01:42.998Z</time></trkpt><trkpt lat="44.73588058097581" lon="9.61067428167254"><ele>594.0</ele><time>2026-05-03T15:01:44.998Z</time></trkpt><trkpt lat="44.735972851524835" lon="9.610667688511459"><ele>604.2</ele><time>2026-05-03T15:01:45.998Z</time></trkpt><trkpt lat="44.736078428067124" lon="9.610678981122824"><ele>614.4</ele><time>2026-05-03T15:01:46.998Z</time></trkpt><trkpt lat="44.736166796975624" lon="9.61065960296774"><ele>624.6</ele><time>2026-05-03T15:01:47.998Z</time></trkpt><trkpt lat="44.73624593701488" lon="9.610594013921558"><ele>634.8</ele><time>2026-05-03T15:01:49Z</time></trkpt><trkpt lat="44.73633745019496" lon="9.610467971360036"><ele>645.0</ele><time>2026-05-03T15:01:50Z</time></trkpt><trkpt lat="44.736405259209896" lon="9.610344138852929"><ele>640.4</ele><time>2026-05-03T15:01:51Z</time></trkpt><trkpt lat="44.73644908248868" lon="9.610217999666364"><ele>635.8</ele><time>2026-05-03T15:01:52Z</time></trkpt><trkpt lat="44.73647303868927" lon="9.610126016779333"><ele>631.2</ele><time>2026-05-03T15:01:53Z</time></trkpt><trkpt lat="44.73643757989438" lon="9.609979552606696"><ele>626.6</ele><time>2026-05-03T15:01:54Z</time></trkpt><trkpt lat="44.736379949814314" lon="9.609812526720566"><ele>622.0</ele><time>2026-05-03T15:01:55Z</time></trkpt><trkpt lat="44.73637564067555" lon="9.609605725137452"><ele>620.5</ele><time>2026-05-03T15:01:56Z</time></trkpt><trkpt lat="44.736369914013636" lon="9.609425207198663"><ele>619.0</ele><time>2026-05-03T15:01:57Z</time></trkpt><trkpt lat="44.736347341092895" lon="9.609256363286262"><ele>617.5</ele><time>2026-05-03T15:01:58Z</time></trkpt><trkpt lat="44.736324688001005" lon="9.609099689336396"><ele>616.0</ele><time>2026-05-03T15:01:59Z</time></trkpt><trkpt lat="44.736326403572356" lon="9.608954398947807"><ele>616.0</ele><time>2026-05-03T15:02:00Z</time></trkpt><trkpt lat="44.73635411014137" lon="9.608846955866472"><ele>616.0</ele><time>2026-05-03T15:02:01Z</time></trkpt><trkpt lat="44.73640058387272" lon="9.60874453452452"><ele>616.0</ele><time>2026-05-03T15:02:02Z</time></trkpt><trkpt lat="44.73647091861106" lon="9.608650692485364"><ele>616.0</ele><time>2026-05-03T15:02:03Z</time></trkpt><trkpt lat="44.73654272736371" lon="9.608549464933297"><ele>616.0</ele><time>2026-05-03T15:02:04Z</time></trkpt><trkpt lat="44.73661137058178" lon="9.60842102576538"><ele>611.25</ele><time>2026-05-03T15:02:05Z</time></trkpt><trkpt lat="44.736658470086766" lon="9.60825293682403"><ele>606.5</ele><time>2026-05-03T15:02:06Z</time></trkpt><trkpt lat="44.73668567266476" lon="9.608077937462468"><ele>601.75</ele><time>2026-05-03T15:02:07Z</time></trkpt><trkpt lat="44.73670346492081" lon="9.60791836818426"><ele>597.0</ele><time>2026-05-03T15:02:08Z</time></trkpt><trkpt lat="44.736733518766975" lon="9.607782801657681"><ele>592.4</ele><time>2026-05-03T15:02:09Z</time></trkpt><trkpt lat="44.736792122991204" lon="9.607697752931642"><ele>587.8000000000001</ele><time>2026-05-03T15:02:10Z</time></trkpt><trkpt lat="44.7368591111966" lon="9.607673655275809"><ele>583.2</ele><time>2026-05-03T15:02:11Z</time></trkpt><trkpt lat="44.73693776020026" lon="9.607705441903226"><ele>578.6</ele><time>2026-05-03T15:02:12Z</time></trkpt><trkpt lat="44.737037492982054" lon="9.60773632374111"><ele>574.0</ele><time>2026-05-03T15:02:13Z</time></trkpt><trkpt lat="44.73715639666332" lon="9.607717578706175"><ele>584.6</ele><time>2026-05-03T15:02:14Z</time></trkpt><trkpt lat="44.73726806295678" lon="9.607663462217738"><ele>595.2</ele><time>2026-05-03T15:02:15Z</time></trkpt><trkpt lat="44.73734995715412" lon="9.607555445970107"><ele>605.8000000000001</ele><time>2026-05-03T15:02:16Z</time></trkpt><trkpt lat="44.737414418868795" lon="9.607425699357119"><ele>616.4</ele><time>2026-05-03T15:02:17Z</time></trkpt><trkpt lat="44.73745732733203" lon="9.607296923907324"><ele>627.0</ele><time>2026-05-03T15:02:18Z</time></trkpt><trkpt lat="44.73748561349032" lon="9.607132800592796"><ele>620.75</ele><time>2026-05-03T15:02:19Z</time></trkpt><trkpt lat="44.73750728683273" lon="9.606939151160045"><ele>614.5</ele><time>2026-05-03T15:02:20Z</time></trkpt><trkpt lat="44.73752921072801" lon="9.606732791154247"><ele>608.25</ele><time>2026-05-03T15:02:21Z</time></trkpt><trkpt lat="44.737550431163854" lon="9.606582850372764"><ele>602.0</ele><time>2026-05-03T15:02:22Z</time></trkpt><trkpt lat="44.73757734685036" lon="9.606500405599304"><ele>602.0</ele><time>2026-05-03T15:02:23Z</time></trkpt><trkpt lat="44.7376305494298" lon="9.606436605644197"><ele>602.0</ele><time>2026-05-03T15:02:24Z</time></trkpt><trkpt lat="44.73771026874982" lon="9.606372883084793"><ele>602.0</ele><time>2026-05-03T15:02:25Z</time></trkpt><trkpt lat="44.73779732587904" lon="9.606282976527337"><ele>602.0</ele><time>2026-05-03T15:02:26Z</time></trkpt><trkpt lat="44.73787813320203" lon="9.606197448695191"><ele>602.0</ele><time>2026-05-03T15:02:27Z</time></trkpt><trkpt lat="44.737952484527405" lon="9.606130858793058"><ele>604.75</ele><time>2026-05-03T15:02:28Z</time></trkpt><trkpt lat="44.738055959095874" lon="9.606111568877836"><ele>607.5</ele><time>2026-05-03T15:02:29Z</time></trkpt><trkpt lat="44.73818079957406" lon="9.606089901522715"><ele>610.25</ele><time>2026-05-03T15:02:30Z</time></trkpt><trkpt lat="44.73830423812976" lon="9.606037248711612"><ele>613.0</ele><time>2026-05-03T15:02:31Z</time></trkpt><trkpt lat="44.738427737904864" lon="9.60595003244376"><ele>613.0</ele><time>2026-05-03T15:02:31.999Z</time></trkpt><trkpt lat="44.73854243271069" lon="9.605876288653272"><ele>613.0</ele><time>2026-05-03T15:02:32.999Z</time></trkpt><trkpt lat="44.73863904649622" lon="9.605829986579732"><ele>613.0</ele><time>2026-05-03T15:02:33.999Z</time></trkpt><trkpt lat="44.73870632464769" lon="9.605748793386963"><ele>613.0</ele><time>2026-05-03T15:02:34.999Z</time></trkpt><trkpt lat="44.738757594623465" lon="9.605619660236394"><ele>613.0</ele><time>2026-05-03T15:02:35.999Z</time></trkpt><trkpt lat="44.73879157636405" lon="9.605423667412563"><ele>620.75</ele><time>2026-05-03T15:02:36.999Z</time></trkpt><trkpt lat="44.73883082074904" lon="9.605265038516922"><ele>628.5</ele><time>2026-05-03T15:02:37.999Z</time></trkpt><trkpt lat="44.73887833068904" lon="9.605106252973219"><ele>636.25</ele><time>2026-05-03T15:02:38.999Z</time></trkpt><trkpt lat="44.73891466078542" lon="9.604933578721857"><ele>644.0</ele><time>2026-05-03T15:02:39.999Z</time></trkpt><trkpt lat="44.73894033232403" lon="9.604731431912247"><ele>644.0</ele><time>2026-05-03T15:02:40.999Z</time></trkpt><trkpt lat="44.73896147259191" lon="9.604541110697678"><ele>644.0</ele><time>2026-05-03T15:02:41.999Z</time></trkpt><trkpt lat="44.73897310024012" lon="9.60434293085292"><ele>644.0</ele><time>2026-05-03T15:02:42.999Z</time></trkpt><trkpt lat="44.73896984652933" lon="9.604163189396541"><ele>644.0</ele><time>2026-05-03T15:02:43.999Z</time></trkpt><trkpt lat="44.738931226873895" lon="9.604004179550948"><ele>644.25</ele><time>2026-05-03T15:02:44.999Z</time></trkpt><trkpt lat="44.738880270869984" lon="9.603834951569244"><ele>644.5</ele><time>2026-05-03T15:02:45.999Z</time></trkpt><trkpt lat="44.7388203925413" lon="9.603652959938579"><ele>644.75</ele><time>2026-05-03T15:02:46.999Z</time></trkpt><trkpt lat="44.73874734717775" lon="9.60349023345375"><ele>645.0</ele><time>2026-05-03T15:02:47.999Z</time></trkpt><trkpt lat="44.73866649697409" lon="9.603344802829495"><ele>645.0</ele><time>2026-05-03T15:02:48.999Z</time></trkpt><trkpt lat="44.738607189071665" lon="9.603221016672661"><ele>645.0</ele><time>2026-05-03T15:02:49.999Z</time></trkpt><trkpt lat="44.73857164689603" lon="9.60314120975527"><ele>645.0</ele><time>2026-05-03T15:02:50.999Z</time></trkpt><trkpt lat="44.73857640202018" lon="9.602991488963227"><ele>645.0</ele><time>2026-05-03T15:02:52.999Z</time></trkpt><trkpt lat="44.73863245001071" lon="9.60289569183132"><ele>645.0</ele><time>2026-05-03T15:02:53.999Z</time></trkpt><trkpt lat="44.738717989577076" lon="9.602803095670449"><ele>644.75</ele><time>2026-05-03T15:02:54.999Z</time></trkpt><trkpt lat="44.7388025731999" lon="9.602693841889996"><ele>644.5</ele><time>2026-05-03T15:02:55.999Z</time></trkpt><trkpt lat="44.738857339642294" lon="9.60254589898467"><ele>644.25</ele><time>2026-05-03T15:02:56.999Z</time></trkpt><trkpt lat="44.73888791618881" lon="9.602363335666096"><ele>644.0</ele><time>2026-05-03T15:02:57.999Z</time></trkpt><trkpt lat="44.738914333624095" lon="9.602178060656527"><ele>644.0</ele><time>2026-05-03T15:02:58.999Z</time></trkpt><trkpt lat="44.738931897955474" lon="9.602010783031567"><ele>644.0</ele><time>2026-05-03T15:02:59.999Z</time></trkpt><trkpt lat="44.738913934594244" lon="9.601860207662794"><ele>644.0</ele><time>2026-05-03T15:03:00.999Z</time></trkpt><trkpt lat="44.73887371731974" lon="9.60170593062189"><ele>644.0</ele><time>2026-05-03T15:03:01.999Z</time></trkpt><trkpt lat="44.73881224129031" lon="9.601542172913227"><ele>642.0</ele><time>2026-05-03T15:03:02.999Z</time></trkpt><trkpt lat="44.738768880819485" lon="9.601372769078933"><ele>640.0</ele><time>2026-05-03T15:03:03.999Z</time></trkpt><trkpt lat="44.73873947844771" lon="9.601211155372328"><ele>638.0</ele><time>2026-05-03T15:03:04.999Z</time></trkpt><trkpt lat="44.738683946317394" lon="9.60107485582345"><ele>636.0</ele><time>2026-05-03T15:03:05.999Z</time></trkpt><trkpt lat="44.738613684610414" lon="9.6009629403339"><ele>636.0</ele><time>2026-05-03T15:03:06.999Z</time></trkpt><trkpt lat="44.738543241357696" lon="9.600879672645817"><ele>636.0</ele><time>2026-05-03T15:03:07.999Z</time></trkpt><trkpt lat="44.73849759956892" lon="9.60079672400107"><ele>636.0</ele><time>2026-05-03T15:03:08.999Z</time></trkpt><trkpt lat="44.73850483743495" lon="9.60063580948688"><ele>636.0</ele><time>2026-05-03T15:03:10.999Z</time></trkpt><trkpt lat="44.73854331149882" lon="9.600524232807226"><ele>636.0</ele><time>2026-05-03T15:03:11.999Z</time></trkpt><trkpt lat="44.73859652338178" lon="9.60039292012259"><ele>631.25</ele><time>2026-05-03T15:03:12.999Z</time></trkpt><trkpt lat="44.7386633400287" lon="9.60023482506606"><ele>626.5</ele><time>2026-05-03T15:03:13.999Z</time></trkpt><trkpt lat="44.73870355972269" lon="9.600070705360592"><ele>621.75</ele><time>2026-05-03T15:03:14.999Z</time></trkpt><trkpt lat="44.73874761167674" lon="9.599933760214372"><ele>617.0</ele><time>2026-05-03T15:03:15.999Z</time></trkpt><trkpt lat="44.73879946322677" lon="9.59980797012094"><ele>617.0</ele><time>2026-05-03T15:03:16.999Z</time></trkpt><trkpt lat="44.738879624308574" lon="9.599686653232995"><ele>617.0</ele><time>2026-05-03T15:03:17.999Z</time></trkpt><trkpt lat="44.738985908736076" lon="9.599556670110397"><ele>617.0</ele><time>2026-05-03T15:03:18.999Z</time></trkpt><trkpt lat="44.739096366480666" lon="9.599419099877066"><ele>617.0</ele><time>2026-05-03T15:03:19.999Z</time></trkpt><trkpt lat="44.739189786252965" lon="9.599308445438044"><ele>612.5</ele><time>2026-05-03T15:03:20.999Z</time></trkpt><trkpt lat="44.7392849824518" lon="9.5992410029405"><ele>608.0</ele><time>2026-05-03T15:03:21.999Z</time></trkpt><trkpt lat="44.739356070103916" lon="9.599214317742204"><ele>603.5</ele><time>2026-05-03T15:03:22.999Z</time></trkpt><trkpt lat="44.73942562647802" lon="9.599215325175056"><ele>599.0</ele><time>2026-05-03T15:03:23.999Z</time></trkpt><trkpt lat="44.739505309570035" lon="9.599252728954145"><ele>594.5</ele><time>2026-05-03T15:03:24.999Z</time></trkpt><trkpt lat="44.73959989012146" lon="9.599325591982364"><ele>590.0</ele><time>2026-05-03T15:03:25.999Z</time></trkpt><trkpt lat="44.73970730727645" lon="9.599418761843205"><ele>593.75</ele><time>2026-05-03T15:03:26.999Z</time></trkpt><trkpt lat="44.739817605536196" lon="9.599518436148935"><ele>597.5</ele><time>2026-05-03T15:03:27.999Z</time></trkpt><trkpt lat="44.739922814499636" lon="9.599603636326002"><ele>601.25</ele><time>2026-05-03T15:03:28.999Z</time></trkpt><trkpt lat="44.740019731318945" lon="9.599687209578386"><ele>605.0</ele><time>2026-05-03T15:03:29.999Z</time></trkpt><trkpt lat="44.740106360946385" lon="9.599772476340723"><ele>605.0</ele><time>2026-05-03T15:03:30.999Z</time></trkpt><trkpt lat="44.74017575734142" lon="9.599846884772884"><ele>605.0</ele><time>2026-05-03T15:03:31.998Z</time></trkpt><trkpt lat="44.740227527555035" lon="9.599934758485666"><ele>605.0</ele><time>2026-05-03T15:03:32.998Z</time></trkpt><trkpt lat="44.74026940989471" lon="9.600054942994065"><ele>605.0</ele><time>2026-05-03T15:03:33.998Z</time></trkpt><trkpt lat="44.74031546400249" lon="9.600211571823323"><ele>605.0</ele><time>2026-05-03T15:03:34.998Z</time></trkpt><trkpt lat="44.74037105782598" lon="9.600367407106278"><ele>597.0</ele><time>2026-05-03T15:03:35.998Z</time></trkpt><trkpt lat="44.74044233936119" lon="9.60052734276529"><ele>589.0</ele><time>2026-05-03T15:03:36.998Z</time></trkpt><trkpt lat="44.740532772767786" lon="9.600692861213737"><ele>581.0</ele><time>2026-05-03T15:03:37.998Z</time></trkpt><trkpt lat="44.74065323787218" lon="9.600866102519912"><ele>581.0</ele><time>2026-05-03T15:03:38.998Z</time></trkpt><trkpt lat="44.740771225255145" lon="9.60102942260598"><ele>581.0</ele><time>2026-05-03T15:03:39.998Z</time></trkpt><trkpt lat="44.7408752805506" lon="9.601173197889265"><ele>581.0</ele><time>2026-05-03T15:03:40.998Z</time></trkpt><trkpt lat="44.74096511305105" lon="9.601311367756628"><ele>581.0</ele><time>2026-05-03T15:03:41.998Z</time></trkpt><trkpt lat="44.741053821837774" lon="9.601437755408977"><ele>583.0</ele><time>2026-05-03T15:03:42.998Z</time></trkpt><trkpt lat="44.7411424187137" lon="9.601537632538538"><ele>585.0</ele><time>2026-05-03T15:03:43.998Z</time></trkpt><trkpt lat="44.741239800846365" lon="9.601602676138336"><ele>587.0</ele><time>2026-05-03T15:03:44.998Z</time></trkpt><trkpt lat="44.74134085237766" lon="9.601640729245645"><ele>589.0</ele><time>2026-05-03T15:03:45.998Z</time></trkpt><trkpt lat="44.741450993361475" lon="9.601650177329978"><ele>591.0</ele><time>2026-05-03T15:03:46.998Z</time></trkpt><trkpt lat="44.7415772000645" lon="9.601630761144353"><ele>591.0</ele><time>2026-05-03T15:03:47.998Z</time></trkpt><trkpt lat="44.74171735430212" lon="9.601559273783485"><ele>591.0</ele><time>2026-05-03T15:03:48.998Z</time></trkpt><trkpt lat="44.74185318062561" lon="9.601494813994382"><ele>591.0</ele><time>2026-05-03T15:03:49.998Z</time></trkpt><trkpt lat="44.74197377757169" lon="9.60144318952598"><ele>591.0</ele><time>2026-05-03T15:03:50.998Z</time></trkpt><trkpt lat="44.742088998287066" lon="9.601422245456838"><ele>587.4</ele><time>2026-05-03T15:03:51.998Z</time></trkpt><trkpt lat="44.74220486910074" lon="9.601428412729572"><ele>583.8</ele><time>2026-05-03T15:03:52.998Z</time></trkpt><trkpt lat="44.74232199314696" lon="9.60145854788617"><ele>580.1999999999999</ele><time>2026-05-03T15:03:53.998Z</time></trkpt><trkpt lat="44.742429056382186" lon="9.601510346281614"><ele>576.6</ele><time>2026-05-03T15:03:55Z</time></trkpt><trkpt lat="44.742513108565255" lon="9.601575668474279"><ele>573.0</ele><time>2026-05-03T15:03:56Z</time></trkpt><trkpt lat="44.7425705305814" lon="9.601673980847751"><ele>573.0</ele><time>2026-05-03T15:03:57Z</time></trkpt><trkpt lat="44.7426261357424" lon="9.601800239864845"><ele>573.0</ele><time>2026-05-03T15:03:58Z</time></trkpt><trkpt lat="44.74268288383098" lon="9.601962070598429"><ele>573.0</ele><time>2026-05-03T15:03:59Z</time></trkpt><trkpt lat="44.74274424843397" lon="9.602153311116929"><ele>573.0</ele><time>2026-05-03T15:04:00Z</time></trkpt><trkpt lat="44.74281387927644" lon="9.602374841726418"><ele>569.5</ele><time>2026-05-03T15:04:01Z</time></trkpt><trkpt lat="44.742861050065194" lon="9.602581341196682"><ele>566.0</ele><time>2026-05-03T15:04:02Z</time></trkpt><trkpt lat="44.742909674883784" lon="9.602763234185865"><ele>562.5</ele><time>2026-05-03T15:04:03Z</time></trkpt><trkpt lat="44.74296419656032" lon="9.60292374455689"><ele>559.0</ele><time>2026-05-03T15:04:04Z</time></trkpt><trkpt lat="44.743032042672525" lon="9.603052221566656"><ele>559.0</ele><time>2026-05-03T15:04:05Z</time></trkpt><trkpt lat="44.7430799454993" lon="9.603149201312828"><ele>559.0</ele><time>2026-05-03T15:04:06Z</time></trkpt><trkpt lat="44.743092384811135" lon="9.603244229801904"><ele>559.0</ele><time>2026-05-03T15:04:07Z</time></trkpt><trkpt lat="44.74308464476677" lon="9.603376661362274"><ele>559.0</ele><time>2026-05-03T15:04:08Z</time></trkpt><trkpt lat="44.74304851093704" lon="9.603563928032122"><ele>559.0</ele><time>2026-05-03T15:04:09Z</time></trkpt><trkpt lat="44.74299867037886" lon="9.603789630644073"><ele>558.5</ele><time>2026-05-03T15:04:10Z</time></trkpt><trkpt lat="44.742963499041004" lon="9.603989535152872"><ele>558.0</ele><time>2026-05-03T15:04:11Z</time></trkpt><trkpt lat="44.742951759778265" lon="9.604165843745974"><ele>557.5</ele><time>2026-05-03T15:04:12Z</time></trkpt><trkpt lat="44.74294710909698" lon="9.60432819125165"><ele>557.0</ele><time>2026-05-03T15:04:13Z</time></trkpt><trkpt lat="44.742978935511694" lon="9.604478368803733"><ele>557.8000000000001</ele><time>2026-05-03T15:04:14Z</time></trkpt><trkpt lat="44.74303142744813" lon="9.60460326315483"><ele>558.6</ele><time>2026-05-03T15:04:15Z</time></trkpt><trkpt lat="44.74310946657448" lon="9.604714072928312"><ele>559.4000000000001</ele><time>2026-05-03T15:04:16Z</time></trkpt><trkpt lat="44.74319234964625" lon="9.60482694441242"><ele>560.2</ele><time>2026-05-03T15:04:17Z</time></trkpt><trkpt lat="44.74328249862626" lon="9.604913393947706"><ele>561.0</ele><time>2026-05-03T15:04:18Z</time></trkpt><trkpt lat="44.743378048721205" lon="9.604977532427165"><ele>561.0</ele><time>2026-05-03T15:04:19Z</time></trkpt><trkpt lat="44.74347160668084" lon="9.605035733598704"><ele>561.0</ele><time>2026-05-03T15:04:20Z</time></trkpt><trkpt lat="44.743567823427114" lon="9.605099420933712"><ele>561.0</ele><time>2026-05-03T15:04:21Z</time></trkpt><trkpt lat="44.743648223847856" lon="9.60519270035298"><ele>561.0</ele><time>2026-05-03T15:04:22Z</time></trkpt><trkpt lat="44.743695700899494" lon="9.605285696936255"><ele>561.0</ele><time>2026-05-03T15:04:23Z</time></trkpt><trkpt lat="44.74372166696909" lon="9.605418211252848"><ele>550.75</ele><time>2026-05-03T15:04:24Z</time></trkpt><trkpt lat="44.74372803039135" lon="9.605593596129966"><ele>540.5</ele><time>2026-05-03T15:04:25Z</time></trkpt><trkpt lat="44.74374413779044" lon="9.605769183038076"><ele>530.25</ele><time>2026-05-03T15:04:26Z</time></trkpt><trkpt lat="44.743765099918804" lon="9.60594796227801"><ele>520.0</ele><time>2026-05-03T15:04:27Z</time></trkpt><trkpt lat="44.74376348438534" lon="9.60610734524213"><ele>519.0</ele><time>2026-05-03T15:04:28Z</time></trkpt><trkpt lat="44.74371927630879" lon="9.606288838270544"><ele>518.0</ele><time>2026-05-03T15:04:29Z</time></trkpt><trkpt lat="44.74367601398819" lon="9.606459607728235"><ele>517.0</ele><time>2026-05-03T15:04:30Z</time></trkpt><trkpt lat="44.743649709514195" lon="9.606619677132974"><ele>516.0</ele><time>2026-05-03T15:04:31Z</time></trkpt><trkpt lat="44.743648071773656" lon="9.60678150942497"><ele>516.0</ele><time>2026-05-03T15:04:32Z</time></trkpt><trkpt lat="44.743671057319474" lon="9.606946495364188"><ele>516.0</ele><time>2026-05-03T15:04:33Z</time></trkpt><trkpt lat="44.7437243926487" lon="9.607115014218978"><ele>516.0</ele><time>2026-05-03T15:04:34Z</time></trkpt><trkpt lat="44.74379144870388" lon="9.607273282382872"><ele>516.0</ele><time>2026-05-03T15:04:35Z</time></trkpt><trkpt lat="44.74383596924714" lon="9.607421326077327"><ele>515.2</ele><time>2026-05-03T15:04:36Z</time></trkpt><trkpt lat="44.743862175054474" lon="9.607555954876842"><ele>514.4000000000001</ele><time>2026-05-03T15:04:37Z</time></trkpt><trkpt lat="44.743866875609505" lon="9.60767804405172"><ele>513.6</ele><time>2026-05-03T15:04:38Z</time></trkpt><trkpt lat="44.74386303998461" lon="9.607809452436248"><ele>512.8000000000001</ele><time>2026-05-03T15:04:39Z</time></trkpt><trkpt lat="44.743837496914935" lon="9.607947768701193"><ele>512.0</ele><time>2026-05-03T15:04:40Z</time></trkpt><trkpt lat="44.74379406697127" lon="9.608084249991633"><ele>511.6</ele><time>2026-05-03T15:04:41Z</time></trkpt><trkpt lat="44.74376171827745" lon="9.608211803399545"><ele>511.20000000000005</ele><time>2026-05-03T15:04:42Z</time></trkpt><trkpt lat="44.74376403972999" lon="9.608337182539676"><ele>510.8</ele><time>2026-05-03T15:04:42.999Z</time></trkpt><trkpt lat="44.74380293985556" lon="9.608486366285787"><ele>510.4</ele><time>2026-05-03T15:04:43.999Z</time></trkpt><trkpt lat="44.74386204723474" lon="9.608660587381426"><ele>510.0</ele><time>2026-05-03T15:04:44.999Z</time></trkpt><trkpt lat="44.74391194522354" lon="9.608856287041421"><ele>509.25</ele><time>2026-05-03T15:04:45.999Z</time></trkpt><trkpt lat="44.743944281372876" lon="9.609062205124749"><ele>508.5</ele><time>2026-05-03T15:04:46.999Z</time></trkpt><trkpt lat="44.743962447163206" lon="9.609242670829266"><ele>507.75</ele><time>2026-05-03T15:04:47.999Z</time></trkpt><trkpt lat="44.74397492861914" lon="9.60942992529016"><ele>507.0</ele><time>2026-05-03T15:04:48.999Z</time></trkpt><trkpt lat="44.74398416631062" lon="9.60963739412088"><ele>506.25</ele><time>2026-05-03T15:04:49.999Z</time></trkpt><trkpt lat="44.74399610748227" lon="9.609839177553033"><ele>505.5</ele><time>2026-05-03T15:04:50.999Z</time></trkpt><trkpt lat="44.744012352605985" lon="9.610039818575407"><ele>504.75</ele><time>2026-05-03T15:04:51.999Z</time></trkpt><trkpt lat="44.74402311801308" lon="9.610233145797228"><ele>504.0</ele><time>2026-05-03T15:04:52.999Z</time></trkpt><trkpt lat="44.744046507102844" lon="9.61042606801825"><ele>504.0</ele><time>2026-05-03T15:04:53.999Z</time></trkpt><trkpt lat="44.7440762598926" lon="9.610614986011422"><ele>504.0</ele><time>2026-05-03T15:04:54.999Z</time></trkpt><trkpt lat="44.744092755670586" lon="9.610798463617932"><ele>504.0</ele><time>2026-05-03T15:04:55.999Z</time></trkpt><trkpt lat="44.744100385695155" lon="9.61097943270532"><ele>504.0</ele><time>2026-05-03T15:04:56.999Z</time></trkpt><trkpt lat="44.7440905112426" lon="9.611153191590533"><ele>505.25</ele><time>2026-05-03T15:04:57.999Z</time></trkpt><trkpt lat="44.744086198234335" lon="9.61132138207641"><ele>506.5</ele><time>2026-05-03T15:04:58.999Z</time></trkpt><trkpt lat="44.74409667259696" lon="9.61147820674994"><ele>507.75</ele><time>2026-05-03T15:04:59.999Z</time></trkpt><trkpt lat="44.74413371759064" lon="9.611632487206924"><ele>509.0</ele><time>2026-05-03T15:05:00.999Z</time></trkpt><trkpt lat="44.744175382039536" lon="9.611784688635376"><ele>509.0</ele><time>2026-05-03T15:05:01.999Z</time></trkpt><trkpt lat="44.74420725618235" lon="9.611939177131488"><ele>509.0</ele><time>2026-05-03T15:05:02.999Z</time></trkpt><trkpt lat="44.74421897951171" lon="9.612087026232667"><ele>509.0</ele><time>2026-05-03T15:05:03.999Z</time></trkpt><trkpt lat="44.74420566528832" lon="9.612266153902716"><ele>509.0</ele><time>2026-05-03T15:05:04.999Z</time></trkpt><trkpt lat="44.74419561205838" lon="9.612465315484837"><ele>508.75</ele><time>2026-05-03T15:05:05.999Z</time></trkpt><trkpt lat="44.74420096142145" lon="9.612692733391944"><ele>508.5</ele><time>2026-05-03T15:05:06.999Z</time></trkpt><trkpt lat="44.74421139931207" lon="9.612896485780448"><ele>508.25</ele><time>2026-05-03T15:05:07.999Z</time></trkpt><trkpt lat="44.74421333434125" lon="9.613070705502459"><ele>508.0</ele><time>2026-05-03T15:05:08.999Z</time></trkpt><trkpt lat="44.74422574475392" lon="9.61322949218501"><ele>508.0</ele><time>2026-05-03T15:05:09.999Z</time></trkpt><trkpt lat="44.744267424667655" lon="9.61339164977551"><ele>508.0</ele><time>2026-05-03T15:05:10.999Z</time></trkpt><trkpt lat="44.744324753486545" lon="9.613580025745923"><ele>508.0</ele><time>2026-05-03T15:05:11.999Z</time></trkpt><trkpt lat="44.74439701751998" lon="9.613787453391014"><ele>508.0</ele><time>2026-05-03T15:05:12.999Z</time></trkpt><trkpt lat="44.74446844861657" lon="9.613996356082042"><ele>500.75</ele><time>2026-05-03T15:05:13.999Z</time></trkpt><trkpt lat="44.74453521478815" lon="9.614183588065254"><ele>493.5</ele><time>2026-05-03T15:05:14.999Z</time></trkpt><trkpt lat="44.74460839279087" lon="9.614350909209238"><ele>486.25</ele><time>2026-05-03T15:05:15.999Z</time></trkpt><trkpt lat="44.74468456846812" lon="9.614497972992373"><ele>479.0</ele><time>2026-05-03T15:05:16.999Z</time></trkpt><trkpt lat="44.74474016863495" lon="9.614660144100597"><ele>479.0</ele><time>2026-05-03T15:05:17.999Z</time></trkpt><trkpt lat="44.74477813638641" lon="9.614821836342196"><ele>479.0</ele><time>2026-05-03T15:05:18.999Z</time></trkpt><trkpt lat="44.744816328876674" lon="9.615000741673176"><ele>479.0</ele><time>2026-05-03T15:05:19.999Z</time></trkpt><trkpt lat="44.74485173940836" lon="9.615208184187875"><ele>479.0</ele><time>2026-05-03T15:05:20.999Z</time></trkpt><trkpt lat="44.744902523078565" lon="9.615432478805246"><ele>480.0</ele><time>2026-05-03T15:05:21.999Z</time></trkpt><trkpt lat="44.74496054203732" lon="9.615630690897994"><ele>481.0</ele><time>2026-05-03T15:05:22.999Z</time></trkpt><trkpt lat="44.745011191298815" lon="9.615819330311766"><ele>482.0</ele><time>2026-05-03T15:05:23.999Z</time></trkpt><trkpt lat="44.74503920771914" lon="9.616007054823035"><ele>483.0</ele><time>2026-05-03T15:05:24.999Z</time></trkpt><trkpt lat="44.74506270924855" lon="9.616189951260642"><ele>484.0</ele><time>2026-05-03T15:05:25.999Z</time></trkpt><trkpt lat="44.74509239519858" lon="9.616367773960752"><ele>485.0</ele><time>2026-05-03T15:05:26.999Z</time></trkpt><trkpt lat="44.74512230945438" lon="9.616542026497186"><ele>486.0</ele><time>2026-05-03T15:05:27.999Z</time></trkpt><trkpt lat="44.74513852344194" lon="9.616713032706619"><ele>487.0</ele><time>2026-05-03T15:05:28.999Z</time></trkpt><trkpt lat="44.74514083712003" lon="9.616864463295657"><ele>486.20000000000005</ele><time>2026-05-03T15:05:29.999Z</time></trkpt><trkpt lat="44.74513947669655" lon="9.61699808090609"><ele>485.40000000000003</ele><time>2026-05-03T15:05:30.999Z</time></trkpt><trkpt lat="44.74513770445885" lon="9.6171261296455"><ele>484.59999999999997</ele><time>2026-05-03T15:05:31.999Z</time></trkpt><trkpt lat="44.74514832751652" lon="9.617258245189657"><ele>483.79999999999995</ele><time>2026-05-03T15:05:32.999Z</time></trkpt><trkpt lat="44.745138037603" lon="9.617388793219485"><ele>483.0</ele><time>2026-05-03T15:05:33.999Z</time></trkpt><trkpt lat="44.74510942751853" lon="9.617497573091491"><ele>483.0</ele><time>2026-05-03T15:05:34.999Z</time></trkpt><trkpt lat="44.74508265083731" lon="9.617640707026363"><ele>483.0</ele><time>2026-05-03T15:05:36.999Z</time></trkpt><trkpt lat="44.74513092138201" lon="9.617711402139149"><ele>483.0</ele><time>2026-05-03T15:05:38.999Z</time></trkpt><trkpt lat="44.745190859607234" lon="9.617643942564586"><ele>483.0</ele><time>2026-05-03T15:05:42.998Z</time></trkpt><trkpt lat="44.74520638869924" lon="9.617553177478479"><ele>483.0</ele><time>2026-05-03T15:05:46.998Z</time></trkpt><trkpt lat="44.74522158213527" lon="9.61745537665612"><ele>483.0</ele><time>2026-05-03T15:05:50.998Z</time></trkpt><trkpt lat="44.74525286779042" lon="9.617338107084247"><ele>479.0</ele><time>2026-05-03T15:06:12Z</time></trkpt><trkpt lat="44.74528337029587" lon="9.61724436449144"><ele>474.99999999999994</ele><time>2026-05-03T15:06:13Z</time></trkpt><trkpt lat="44.74532935797457" lon="9.617127307369897"><ele>470.99999999999994</ele><time>2026-05-03T15:06:14Z</time></trkpt><trkpt lat="44.74539175393409" lon="9.617003423587043"><ele>467.0</ele><time>2026-05-03T15:06:15Z</time></trkpt><trkpt lat="44.745448466910005" lon="9.616868635052949"><ele>463.0</ele><time>2026-05-03T15:06:16Z</time></trkpt><trkpt lat="44.74549550034861" lon="9.616735273305242"><ele>462.1666666666667</ele><time>2026-05-03T15:06:17Z</time></trkpt><trkpt lat="44.74552309143725" lon="9.616631198439421"><ele>461.33333333333337</ele><time>2026-05-03T15:06:18Z</time></trkpt><trkpt lat="44.74554761962257" lon="9.616542072473074"><ele>460.5</ele><time>2026-05-03T15:06:19Z</time></trkpt><trkpt lat="44.74555208315252" lon="9.616364639288268"><ele>459.66666666666663</ele><time>2026-05-03T15:06:21Z</time></trkpt><trkpt lat="44.74553875901023" lon="9.616260872255474"><ele>458.8333333333333</ele><time>2026-05-03T15:06:22Z</time></trkpt><trkpt lat="44.74551884906802" lon="9.616160055088725"><ele>458.0</ele><time>2026-05-03T15:06:23Z</time></trkpt><trkpt lat="44.74550538746721" lon="9.616051684881462"><ele>457.4</ele><time>2026-05-03T15:06:24Z</time></trkpt><trkpt lat="44.7455011354871" lon="9.615929342202467"><ele>456.79999999999995</ele><time>2026-05-03T15:06:25Z</time></trkpt><trkpt lat="44.74550252300288" lon="9.615817785707108"><ele>456.2</ele><time>2026-05-03T15:06:26Z</time></trkpt><trkpt lat="44.74557587780437" lon="9.61566697959393"><ele>455.6</ele><time>2026-05-03T15:06:28Z</time></trkpt><trkpt lat="44.7456648449669" lon="9.615624831618577"><ele>455.0</ele><time>2026-05-03T15:06:29Z</time></trkpt><trkpt lat="44.745792488756756" lon="9.615599725048451"><ele>455.0</ele><time>2026-05-03T15:06:30Z</time></trkpt><trkpt lat="44.745944442077" lon="9.61557994652872"><ele>455.0</ele><time>2026-05-03T15:06:31Z</time></trkpt><trkpt lat="44.746064476470366" lon="9.61554494642627"><ele>455.0</ele><time>2026-05-03T15:06:32Z</time></trkpt><trkpt lat="44.746165966738204" lon="9.61549697710153"><ele>455.0</ele><time>2026-05-03T15:06:33Z</time></trkpt><trkpt lat="44.746238066444846" lon="9.61540392532399"><ele>458.25</ele><time>2026-05-03T15:06:34Z</time></trkpt><trkpt lat="44.746295647264084" lon="9.615264558516127"><ele>461.5</ele><time>2026-05-03T15:06:35Z</time></trkpt><trkpt lat="44.74634799116646" lon="9.615114412087962"><ele>464.75</ele><time>2026-05-03T15:06:36Z</time></trkpt><trkpt lat="44.74639648423289" lon="9.614936671363422"><ele>468.0</ele><time>2026-05-03T15:06:37Z</time></trkpt><trkpt lat="44.74643350162806" lon="9.614784834544327"><ele>468.0</ele><time>2026-05-03T15:06:38Z</time></trkpt><trkpt lat="44.74643806165277" lon="9.614656885282434"><ele>468.0</ele><time>2026-05-03T15:06:39Z</time></trkpt><trkpt lat="44.746419132725755" lon="9.614524895518251"><ele>468.0</ele><time>2026-05-03T15:06:40Z</time></trkpt><trkpt lat="44.74638477305219" lon="9.61440663142612"><ele>468.0</ele><time>2026-05-03T15:06:41Z</time></trkpt><trkpt lat="44.74635554318621" lon="9.61429630218816"><ele>468.0</ele><time>2026-05-03T15:06:42Z</time></trkpt><trkpt lat="44.74633031059497" lon="9.614188209571687"><ele>468.0</ele><time>2026-05-03T15:06:42.999Z</time></trkpt><trkpt lat="44.74631254234057" lon="9.614062760249425"><ele>468.0</ele><time>2026-05-03T15:06:43.999Z</time></trkpt><trkpt lat="44.746299069391775" lon="9.613950751327403"><ele>468.0</ele><time>2026-05-03T15:06:44.999Z</time></trkpt><trkpt lat="44.746292555672525" lon="9.61384137508592"><ele>468.0</ele><time>2026-05-03T15:06:45.999Z</time></trkpt><trkpt lat="44.74628975683962" lon="9.61374805401814"><ele>468.0</ele><time>2026-05-03T15:06:46.999Z</time></trkpt><trkpt lat="44.7463330566601" lon="9.613634740773936"><ele>468.0</ele><time>2026-05-03T15:06:49.999Z</time></trkpt><trkpt lat="44.74636949664725" lon="9.613546592706502"><ele>468.0</ele><time>2026-05-03T15:06:51.999Z</time></trkpt><trkpt lat="44.74644535674889" lon="9.613469240539935"><ele>468.0</ele><time>2026-05-03T15:06:53.999Z</time></trkpt><trkpt lat="44.74650248037171" lon="9.613427022670745"><ele>468.0</ele><time>2026-05-03T15:06:54.999Z</time></trkpt><trkpt lat="44.74659125891751" lon="9.613358696065585"><ele>468.0</ele><time>2026-05-03T15:06:56.999Z</time></trkpt><trkpt lat="44.74665471677262" lon="9.613333692582682"><ele>468.0</ele><time>2026-05-03T15:06:58.999Z</time></trkpt><trkpt lat="44.74671667859199" lon="9.61337301249612"><ele>468.0</ele><time>2026-05-03T15:06:59.999Z</time></trkpt><trkpt lat="44.74680167437399" lon="9.61341886037796"><ele>468.0</ele><time>2026-05-03T15:07:00.999Z</time></trkpt><trkpt lat="44.746917074052064" lon="9.613471125061999"><ele>471.59999999999997</ele><time>2026-05-03T15:07:01.999Z</time></trkpt><trkpt lat="44.74700892190833" lon="9.613506862048236"><ele>475.19999999999993</ele><time>2026-05-03T15:07:02.999Z</time></trkpt><trkpt lat="44.7470798484012" lon="9.61353749945092"><ele>478.8</ele><time>2026-05-03T15:07:03.999Z</time></trkpt><trkpt lat="44.7471443628567" lon="9.61357288702219"><ele>482.4</ele><time>2026-05-03T15:07:04.999Z</time></trkpt><trkpt lat="44.747270437118544" lon="9.613570760977728"><ele>486.0</ele><time>2026-05-03T15:07:06.999Z</time></trkpt><trkpt lat="44.747344735098" lon="9.613495359145292"><ele>486.0</ele><time>2026-05-03T15:07:07.999Z</time></trkpt><trkpt lat="44.747444788789494" lon="9.613390430998058"><ele>486.0</ele><time>2026-05-03T15:07:08.999Z</time></trkpt><trkpt lat="44.74757143629476" lon="9.613312271461396"><ele>486.0</ele><time>2026-05-03T15:07:09.999Z</time></trkpt><trkpt lat="44.747676459798" lon="9.613212796479774"><ele>486.0</ele><time>2026-05-03T15:07:10.999Z</time></trkpt><trkpt lat="44.74777051845325" lon="9.6130795215617"><ele>488.6666666666667</ele><time>2026-05-03T15:07:11.999Z</time></trkpt><trkpt lat="44.74784523651729" lon="9.612954466113331"><ele>491.33333333333337</ele><time>2026-05-03T15:07:12.999Z</time></trkpt><trkpt lat="44.74790414186711" lon="9.612850663245867"><ele>494.0</ele><time>2026-05-03T15:07:13.999Z</time></trkpt><trkpt lat="44.74794936529607" lon="9.612754519042399"><ele>496.6666666666667</ele><time>2026-05-03T15:07:14.999Z</time></trkpt><trkpt lat="44.74798450104688" lon="9.612656597410604"><ele>499.33333333333337</ele><time>2026-05-03T15:07:15.999Z</time></trkpt><trkpt lat="44.748013699227414" lon="9.612565026782606"><ele>502.0</ele><time>2026-05-03T15:07:16.999Z</time></trkpt><trkpt lat="44.74804348435321" lon="9.612425246970117"><ele>502.1666666666667</ele><time>2026-05-03T15:07:18.999Z</time></trkpt><trkpt lat="44.74812049215919" lon="9.612371085097676"><ele>502.33333333333337</ele><time>2026-05-03T15:07:21.999Z</time></trkpt><trkpt lat="44.74818723378344" lon="9.612385707604808"><ele>502.5</ele><time>2026-05-03T15:07:22.999Z</time></trkpt><trkpt lat="44.74830437058394" lon="9.612342640521147"><ele>502.66666666666663</ele><time>2026-05-03T15:07:24.999Z</time></trkpt><trkpt lat="44.74834857940438" lon="9.612253789643502"><ele>502.8333333333333</ele><time>2026-05-03T15:07:25.999Z</time></trkpt><trkpt lat="44.74840561327491" lon="9.612160094957414"><ele>503.0</ele><time>2026-05-03T15:07:26.999Z</time></trkpt><trkpt lat="44.748470441260416" lon="9.612091426555084"><ele>502.99999999999994</ele><time>2026-05-03T15:07:27.999Z</time></trkpt><trkpt lat="44.74853792585656" lon="9.6120362429658"><ele>503.0</ele><time>2026-05-03T15:07:28.999Z</time></trkpt><trkpt lat="44.748601136001845" lon="9.612002756119953"><ele>503.0</ele><time>2026-05-03T15:07:29.999Z</time></trkpt><trkpt lat="44.748730633348345" lon="9.611998952583829"><ele>503.0</ele><time>2026-05-03T15:07:31.999Z</time></trkpt><trkpt lat="44.74879867239462" lon="9.611953470780083"><ele>502.99999999999994</ele><time>2026-05-03T15:07:32.999Z</time></trkpt><trkpt lat="44.74886602524221" lon="9.61193271478894"><ele>503.0</ele><time>2026-05-03T15:07:33.999Z</time></trkpt><trkpt lat="44.7489931153009" lon="9.611960728829107"><ele>503.5714285714286</ele><time>2026-05-03T15:07:35.999Z</time></trkpt><trkpt lat="44.74905680135044" lon="9.611982687203835"><ele>504.1428571428572</ele><time>2026-05-03T15:07:36.999Z</time></trkpt><trkpt lat="44.74912032594698" lon="9.612002971365458"><ele>504.7142857142857</ele><time>2026-05-03T15:07:37.999Z</time></trkpt><trkpt lat="44.74923620394449" lon="9.612003806405774"><ele>505.28571428571433</ele><time>2026-05-03T15:07:39.998Z</time></trkpt><trkpt lat="44.7492945992171" lon="9.611966425188351"><ele>505.8571428571429</ele><time>2026-05-03T15:07:40.998Z</time></trkpt><trkpt lat="44.74934848026598" lon="9.611907533924928"><ele>506.42857142857144</ele><time>2026-05-03T15:07:41.998Z</time></trkpt><trkpt lat="44.74939586985247" lon="9.611844704610995"><ele>507.0</ele><time>2026-05-03T15:07:42.998Z</time></trkpt><trkpt lat="44.74943374037461" lon="9.611683403186843"><ele>510.0</ele><time>2026-05-03T15:07:44.998Z</time></trkpt><trkpt lat="44.749410166123575" lon="9.611593227629065"><ele>513.0</ele><time>2026-05-03T15:07:45.998Z</time></trkpt><trkpt lat="44.749424153844764" lon="9.611453795604751"><ele>516.0</ele><time>2026-05-03T15:07:47.998Z</time></trkpt><trkpt lat="44.74948946441653" lon="9.611347958861499"><ele>519.0</ele><time>2026-05-03T15:07:49.998Z</time></trkpt><trkpt lat="44.749546952799584" lon="9.611288260129717"><ele>522.0</ele><time>2026-05-03T15:07:50.998Z</time></trkpt><trkpt lat="44.74960236419612" lon="9.611218916590312"><ele>525.0</ele><time>2026-05-03T15:07:51.998Z</time></trkpt><trkpt lat="44.749703006234455" lon="9.611208367807386"><ele>525.0</ele><time>2026-05-03T15:07:53.998Z</time></trkpt><trkpt lat="44.74978695369439" lon="9.611232763071001"><ele>525.0</ele><time>2026-05-03T15:07:55.998Z</time></trkpt><trkpt lat="44.7498909325256" lon="9.611219157598963"><ele>525.0</ele><time>2026-05-03T15:07:57.998Z</time></trkpt><trkpt lat="44.749950598703116" lon="9.611184723409451"><ele>525.0</ele><time>2026-05-03T15:07:59.998Z</time></trkpt><trkpt lat="44.75001497973407" lon="9.611130638184934"><ele>525.0</ele><time>2026-05-03T15:08:10Z</time></trkpt><trkpt lat="44.75007972731446" lon="9.611134353029465"><ele>525.0</ele><time>2026-05-03T15:08:11Z</time></trkpt><trkpt lat="44.75014444523387" lon="9.611067521386936"><ele>521.8</ele><time>2026-05-03T15:08:13Z</time></trkpt><trkpt lat="44.750174343304934" lon="9.610979390323374"><ele>518.6</ele><time>2026-05-03T15:08:14Z</time></trkpt><trkpt lat="44.75019668207425" lon="9.6108103172596"><ele>515.4</ele><time>2026-05-03T15:08:16Z</time></trkpt><trkpt lat="44.750227201452105" lon="9.610670467986695"><ele>512.2</ele><time>2026-05-03T15:08:18Z</time></trkpt><trkpt lat="44.75030971794873" lon="9.610577554523204"><ele>509.0</ele><time>2026-05-03T15:08:20Z</time></trkpt><trkpt lat="44.75037524536788" lon="9.610530876880862"><ele>515.8</ele><time>2026-05-03T15:08:21Z</time></trkpt><trkpt lat="44.7504383515473" lon="9.610470128475333"><ele>522.5999999999999</ele><time>2026-05-03T15:08:22Z</time></trkpt><trkpt lat="44.75054324431154" lon="9.610437334170191"><ele>529.4</ele><time>2026-05-03T15:08:24Z</time></trkpt><trkpt lat="44.75064383494492" lon="9.610530625450451"><ele>536.1999999999999</ele><time>2026-05-03T15:08:26Z</time></trkpt><trkpt lat="44.75073713381088" lon="9.610658291152854"><ele>543.0</ele><time>2026-05-03T15:08:28Z</time></trkpt><trkpt lat="44.750788467522646" lon="9.610797134284281"><ele>543.0</ele><time>2026-05-03T15:08:30Z</time></trkpt><trkpt lat="44.750873141199364" lon="9.610770154090387"><ele>543.0</ele><time>2026-05-03T15:08:32Z</time></trkpt><trkpt lat="44.750923432029985" lon="9.610592861626694"><ele>543.0</ele><time>2026-05-03T15:08:34Z</time></trkpt><trkpt lat="44.75102159467588" lon="9.610488287478095"><ele>543.0</ele><time>2026-05-03T15:08:36Z</time></trkpt><trkpt lat="44.75111138986689" lon="9.610522815208894"><ele>543.0</ele><time>2026-05-03T15:08:38Z</time></trkpt><trkpt lat="44.75115129822563" lon="9.610695117535734"><ele>544.3333333333334</ele><time>2026-05-03T15:08:40Z</time></trkpt><trkpt lat="44.751162166769845" lon="9.61079208225115"><ele>545.6666666666666</ele><time>2026-05-03T15:08:41Z</time></trkpt><trkpt lat="44.75119854544117" lon="9.610902371723865"><ele>547.0</ele><time>2026-05-03T15:08:42Z</time></trkpt><trkpt lat="44.75122585828434" lon="9.610997570283041"><ele>548.3333333333333</ele><time>2026-05-03T15:08:43Z</time></trkpt><trkpt lat="44.75126039065144" lon="9.611090320744141"><ele>549.6666666666666</ele><time>2026-05-03T15:08:44Z</time></trkpt><trkpt lat="44.75129233484383" lon="9.611170891572554"><ele>551.0</ele><time>2026-05-03T15:08:45Z</time></trkpt><trkpt lat="44.751310122335376" lon="9.611306489192177"><ele>554.0</ele><time>2026-05-03T15:08:47Z</time></trkpt><trkpt lat="44.75133130722994" lon="9.61146189429127"><ele>557.0</ele><time>2026-05-03T15:08:49Z</time></trkpt><trkpt lat="44.75135993201438" lon="9.611557892182999"><ele>560.0</ele><time>2026-05-03T15:08:49.999Z</time></trkpt><trkpt lat="44.75142796537826" lon="9.61169817529672"><ele>563.0</ele><time>2026-05-03T15:08:51.999Z</time></trkpt><trkpt lat="44.751498177272545" lon="9.61176778062382"><ele>566.0</ele><time>2026-05-03T15:08:52.999Z</time></trkpt><trkpt lat="44.75156339939663" lon="9.611844527531991"><ele>566.0</ele><time>2026-05-03T15:08:53.999Z</time></trkpt><trkpt lat="44.751621699767014" lon="9.611931697273057"><ele>566.0</ele><time>2026-05-03T15:08:54.999Z</time></trkpt><trkpt lat="44.751663962043864" lon="9.612044108966963"><ele>566.0</ele><time>2026-05-03T15:08:55.999Z</time></trkpt><trkpt lat="44.75168208817755" lon="9.612154401359206"><ele>566.0</ele><time>2026-05-03T15:08:56.999Z</time></trkpt><trkpt lat="44.75169871625581" lon="9.612266344052676"><ele>566.0</ele><time>2026-05-03T15:08:57.999Z</time></trkpt><trkpt lat="44.75171904379324" lon="9.612391368970068"><ele>566.0</ele><time>2026-05-03T15:08:58.999Z</time></trkpt><trkpt lat="44.75174480853988" lon="9.612500947638644"><ele>566.8</ele><time>2026-05-03T15:08:59.999Z</time></trkpt><trkpt lat="44.751760473061466" lon="9.612587730613201"><ele>567.6</ele><time>2026-05-03T15:09:00.999Z</time></trkpt><trkpt lat="44.75179187235421" lon="9.61277366076127"><ele>568.4</ele><time>2026-05-03T15:09:02.999Z</time></trkpt><trkpt lat="44.75181661871088" lon="9.612867237696832"><ele>569.2</ele><time>2026-05-03T15:09:03.999Z</time></trkpt><trkpt lat="44.751760012970536" lon="9.613010845288905"><ele>570.0</ele><time>2026-05-03T15:09:05.999Z</time></trkpt><trkpt lat="44.751733710043865" lon="9.61315843829934"><ele>571.4285714285714</ele><time>2026-05-03T15:09:07.999Z</time></trkpt><trkpt lat="44.751714574821136" lon="9.613250019854656"><ele>572.8571428571429</ele><time>2026-05-03T15:09:08.999Z</time></trkpt><trkpt lat="44.75171891404844" lon="9.61334968231969"><ele>574.2857142857143</ele><time>2026-05-03T15:09:09.999Z</time></trkpt><trkpt lat="44.751737065567966" lon="9.61343630395872"><ele>575.7142857142858</ele><time>2026-05-03T15:09:10.999Z</time></trkpt><trkpt lat="44.7517650973663" lon="9.613517006218947"><ele>577.1428571428572</ele><time>2026-05-03T15:09:11.999Z</time></trkpt><trkpt lat="44.75177997003111" lon="9.613604688714375"><ele>578.5714285714286</ele><time>2026-05-03T15:09:12.999Z</time></trkpt><trkpt lat="44.75179793387191" lon="9.613699496231488"><ele>580.0</ele><time>2026-05-03T15:09:13.999Z</time></trkpt><trkpt lat="44.751816819498444" lon="9.613815916036337"><ele>583.2</ele><time>2026-05-03T15:09:14.999Z</time></trkpt><trkpt lat="44.75184216933293" lon="9.613926432871617"><ele>586.4</ele><time>2026-05-03T15:09:15.999Z</time></trkpt><trkpt lat="44.751916103704815" lon="9.614054008788937"><ele>589.6</ele><time>2026-05-03T15:09:17.999Z</time></trkpt><trkpt lat="44.75191160069034" lon="9.614244369541113"><ele>592.8</ele><time>2026-05-03T15:09:19.999Z</time></trkpt><trkpt lat="44.75190559854563" lon="9.6143576673097"><ele>596.0</ele><time>2026-05-03T15:09:20.999Z</time></trkpt><trkpt lat="44.751880710208894" lon="9.614457851259003"><ele>598.8</ele><time>2026-05-03T15:09:21.999Z</time></trkpt><trkpt lat="44.75183677037174" lon="9.614538442607472"><ele>601.6</ele><time>2026-05-03T15:09:22.999Z</time></trkpt><trkpt lat="44.75175219760926" lon="9.614707422275275"><ele>604.4</ele><time>2026-05-03T15:09:24.999Z</time></trkpt><trkpt lat="44.75171542233239" lon="9.614849533576189"><ele>607.2</ele><time>2026-05-03T15:09:25.999Z</time></trkpt><trkpt lat="44.7516927071458" lon="9.614995362170312"><ele>610.0</ele><time>2026-05-03T15:09:26.999Z</time></trkpt><trkpt lat="44.75167869844248" lon="9.615147027162477"><ele>610.0</ele><time>2026-05-03T15:09:27.999Z</time></trkpt><trkpt lat="44.75169509095376" lon="9.6152817688642"><ele>610.0</ele><time>2026-05-03T15:09:28.999Z</time></trkpt><trkpt lat="44.75165971538243" lon="9.61538661572259"><ele>610.0</ele><time>2026-05-03T15:09:29.999Z</time></trkpt><trkpt lat="44.75162269892556" lon="9.615499747085629"><ele>610.0</ele><time>2026-05-03T15:09:31.999Z</time></trkpt><trkpt lat="44.751659515371195" lon="9.615651877659333"><ele>610.0</ele><time>2026-05-03T15:09:33.999Z</time></trkpt><trkpt lat="44.75169634229234" lon="9.615757095225637"><ele>610.6666666666667</ele><time>2026-05-03T15:09:34.999Z</time></trkpt><trkpt lat="44.75174833506595" lon="9.615856500827961"><ele>611.3333333333334</ele><time>2026-05-03T15:09:35.999Z</time></trkpt><trkpt lat="44.751806068732265" lon="9.615938102879063"><ele>612.0</ele><time>2026-05-03T15:09:36.999Z</time></trkpt><trkpt lat="44.75185975353541" lon="9.615990679811281"><ele>612.6666666666666</ele><time>2026-05-03T15:09:37.999Z</time></trkpt><trkpt lat="44.7519242716159" lon="9.616010183780675"><ele>613.3333333333333</ele><time>2026-05-03T15:09:38.999Z</time></trkpt><trkpt lat="44.75198703869768" lon="9.616039493935542"><ele>614.0</ele><time>2026-05-03T15:09:39.999Z</time></trkpt><trkpt lat="44.75207203906371" lon="9.616066743374027"><ele>615.1666666666666</ele><time>2026-05-03T15:09:40.999Z</time></trkpt><trkpt lat="44.752146271139665" lon="9.61611066220346"><ele>616.3333333333333</ele><time>2026-05-03T15:09:41.999Z</time></trkpt><trkpt lat="44.75219801691805" lon="9.616203181173637"><ele>617.5</ele><time>2026-05-03T15:09:42.999Z</time></trkpt><trkpt lat="44.75224577684973" lon="9.616302724655675"><ele>618.6666666666666</ele><time>2026-05-03T15:09:43.999Z</time></trkpt><trkpt lat="44.752299326506424" lon="9.61639503420104"><ele>619.8333333333334</ele><time>2026-05-03T15:09:44.999Z</time></trkpt><trkpt lat="44.75231274988621" lon="9.616541783216771"><ele>621.0</ele><time>2026-05-03T15:09:46.999Z</time></trkpt><trkpt lat="44.752300645263496" lon="9.61664578596084"><ele>621.5714285714286</ele><time>2026-05-03T15:09:47.998Z</time></trkpt><trkpt lat="44.75232303884" lon="9.616753113425695"><ele>622.1428571428571</ele><time>2026-05-03T15:09:48.998Z</time></trkpt><trkpt lat="44.75235230293185" lon="9.616850153080247"><ele>622.7142857142858</ele><time>2026-05-03T15:09:49.998Z</time></trkpt><trkpt lat="44.75235195647785" lon="9.616947458338657"><ele>623.2857142857142</ele><time>2026-05-03T15:09:50.998Z</time></trkpt><trkpt lat="44.75236392598507" lon="9.61704360720249"><ele>623.8571428571429</ele><time>2026-05-03T15:09:51.998Z</time></trkpt><trkpt lat="44.752355861226576" lon="9.617140416376587"><ele>624.4285714285714</ele><time>2026-05-03T15:09:52.998Z</time></trkpt><trkpt lat="44.752349781144055" lon="9.617230921626515"><ele>625.0</ele><time>2026-05-03T15:09:53.998Z</time></trkpt><trkpt lat="44.75232059557411" lon="9.617310104638703"><ele>627.3333333333334</ele><time>2026-05-03T15:09:54.998Z</time></trkpt><trkpt lat="44.752252415100244" lon="9.617374806570762"><ele>629.6666666666667</ele><time>2026-05-03T15:09:55.998Z</time></trkpt><trkpt lat="44.75221892513682" lon="9.617452676985634"><ele>632.0</ele><time>2026-05-03T15:09:56.998Z</time></trkpt><trkpt lat="44.752188744114434" lon="9.617569219956128"><ele>634.3333333333334</ele><time>2026-05-03T15:09:57.998Z</time></trkpt><trkpt lat="44.752168799364966" lon="9.617705496185268"><ele>636.6666666666666</ele><time>2026-05-03T15:09:58.998Z</time></trkpt><trkpt lat="44.75215701348706" lon="9.617815857122762"><ele>639.0</ele><time>2026-05-03T15:09:59.998Z</time></trkpt><trkpt lat="44.75215121506978" lon="9.61792031442508"><ele>641.8333333333334</ele><time>2026-05-03T15:10:00.998Z</time></trkpt><trkpt lat="44.752135462563615" lon="9.618010631641928"><ele>644.6666666666666</ele><time>2026-05-03T15:10:01.998Z</time></trkpt><trkpt lat="44.752090663848165" lon="9.618076291415715"><ele>647.5</ele><time>2026-05-03T15:10:02.998Z</time></trkpt><trkpt lat="44.75204149257534" lon="9.618153517038177"><ele>650.3333333333333</ele><time>2026-05-03T15:10:03.998Z</time></trkpt><trkpt lat="44.75201906065709" lon="9.618311293135088"><ele>653.1666666666666</ele><time>2026-05-03T15:10:05.998Z</time></trkpt><trkpt lat="44.752063550686735" lon="9.61846487449896"><ele>656.0</ele><time>2026-05-03T15:10:07.998Z</time></trkpt><trkpt lat="44.75209550142709" lon="9.618551218110948"><ele>656.0</ele><time>2026-05-03T15:10:08.998Z</time></trkpt><trkpt lat="44.752146389716366" lon="9.618617924181034"><ele>656.0</ele><time>2026-05-03T15:10:10.998Z</time></trkpt><trkpt lat="44.75216485807172" lon="9.618791571878338"><ele>656.0</ele><time>2026-05-03T15:10:13Z</time></trkpt><trkpt lat="44.75215165407681" lon="9.618914847484817"><ele>656.0</ele><time>2026-05-03T15:10:14Z</time></trkpt><trkpt lat="44.752136185568475" lon="9.619024411859199"><ele>656.0</ele><time>2026-05-03T15:10:15Z</time></trkpt><trkpt lat="44.752124424361305" lon="9.619135925086143"><ele>656.0</ele><time>2026-05-03T15:10:16Z</time></trkpt><trkpt lat="44.75212246754062" lon="9.619277156305003"><ele>658.1666666666666</ele><time>2026-05-03T15:10:17Z</time></trkpt><trkpt lat="44.75213416547453" lon="9.61942650378417"><ele>660.3333333333333</ele><time>2026-05-03T15:10:18Z</time></trkpt><trkpt lat="44.7521287546502" lon="9.619564524676113"><ele>662.5</ele><time>2026-05-03T15:10:19Z</time></trkpt><trkpt lat="44.75213300965699" lon="9.619685611143135"><ele>664.6666666666666</ele><time>2026-05-03T15:10:20Z</time></trkpt><trkpt lat="44.752154771066266" lon="9.619798179472872"><ele>666.8333333333334</ele><time>2026-05-03T15:10:21Z</time></trkpt><trkpt lat="44.75217251678945" lon="9.619893523888738"><ele>669.0</ele><time>2026-05-03T15:10:22Z</time></trkpt><trkpt lat="44.75219965411453" lon="9.61999255570255"><ele>670.2</ele><time>2026-05-03T15:10:23Z</time></trkpt><trkpt lat="44.752247173545555" lon="9.620118683608936"><ele>671.4000000000001</ele><time>2026-05-03T15:10:24Z</time></trkpt><trkpt lat="44.75230248161539" lon="9.620283080136815"><ele>672.6</ele><time>2026-05-03T15:10:25Z</time></trkpt><trkpt lat="44.75233823881449" lon="9.620440153478494"><ele>673.8</ele><time>2026-05-03T15:10:26Z</time></trkpt><trkpt lat="44.752358114376094" lon="9.620554841315151"><ele>675.0</ele><time>2026-05-03T15:10:27Z</time></trkpt><trkpt lat="44.75238261331042" lon="9.620644424274"><ele>677.2</ele><time>2026-05-03T15:10:28Z</time></trkpt><trkpt lat="44.75243808348595" lon="9.620741109720354"><ele>679.4</ele><time>2026-05-03T15:10:29Z</time></trkpt><trkpt lat="44.752489964140345" lon="9.620862953507567"><ele>681.5999999999999</ele><time>2026-05-03T15:10:30Z</time></trkpt><trkpt lat="44.75252053198291" lon="9.620963820355096"><ele>683.8</ele><time>2026-05-03T15:10:31Z</time></trkpt><trkpt lat="44.75258926628746" lon="9.621102682249445"><ele>686.0</ele><time>2026-05-03T15:10:33Z</time></trkpt><trkpt lat="44.75263174109031" lon="9.621179373058705"><ele>688.4</ele><time>2026-05-03T15:10:34Z</time></trkpt><trkpt lat="44.752639404561016" lon="9.621280534467655"><ele>690.8</ele><time>2026-05-03T15:10:36Z</time></trkpt><trkpt lat="44.75265585485764" lon="9.621529864217408"><ele>693.1999999999999</ele><time>2026-05-03T15:10:57.999Z</time></trkpt><trkpt lat="44.75267018280213" lon="9.621651713787605"><ele>695.5999999999999</ele><time>2026-05-03T15:10:58.999Z</time></trkpt><trkpt lat="44.75264880018344" lon="9.621765913941053"><ele>698.0</ele><time>2026-05-03T15:10:59.999Z</time></trkpt><trkpt lat="44.75259879106524" lon="9.6218699979323"><ele>698.0</ele><time>2026-05-03T15:11:00.999Z</time></trkpt><trkpt lat="44.75253449304692" lon="9.621958028235982"><ele>698.0</ele><time>2026-05-03T15:11:01.999Z</time></trkpt><trkpt lat="44.75247250299402" lon="9.622013596704207"><ele>698.0</ele><time>2026-05-03T15:11:02.999Z</time></trkpt><trkpt lat="44.75238633050147" lon="9.622067001801785"><ele>698.0</ele><time>2026-05-03T15:11:04.999Z</time></trkpt><trkpt lat="44.752301970418294" lon="9.622135699691201"><ele>698.0</ele><time>2026-05-03T15:11:06.999Z</time></trkpt><trkpt lat="44.75225540571703" lon="9.622300810551325"><ele>699.6666666666666</ele><time>2026-05-03T15:11:08.999Z</time></trkpt><trkpt lat="44.752184405238324" lon="9.622409120804868"><ele>701.3333333333333</ele><time>2026-05-03T15:11:11.999Z</time></trkpt><trkpt lat="44.752136701875656" lon="9.622478068878527"><ele>703.0</ele><time>2026-05-03T15:11:13.999Z</time></trkpt><trkpt lat="44.752060917544675" lon="9.622602198173496"><ele>704.6666666666666</ele><time>2026-05-03T15:11:15.999Z</time></trkpt><trkpt lat="44.7520181259221" lon="9.622691390367864"><ele>706.3333333333334</ele><time>2026-05-03T15:11:16.999Z</time></trkpt><trkpt lat="44.75196787873059" lon="9.622758814863161"><ele>708.0</ele><time>2026-05-03T15:11:17.999Z</time></trkpt><trkpt lat="44.751842412511515" lon="9.622815387020431"><ele>710.5</ele><time>2026-05-03T15:11:19.999Z</time></trkpt><trkpt lat="44.75184477946483" lon="9.622911070513492"><ele>713.0</ele><time>2026-05-03T15:11:22.999Z</time></trkpt><trkpt lat="44.751965314984766" lon="9.62295720580722"><ele>715.5</ele><time>2026-05-03T15:11:24.999Z</time></trkpt><trkpt lat="44.752033005808734" lon="9.622986068710867"><ele>718.0</ele><time>2026-05-03T15:11:25.999Z</time></trkpt><trkpt lat="44.752105582447435" lon="9.623044288520628"><ele>720.5</ele><time>2026-05-03T15:11:26.999Z</time></trkpt><trkpt lat="44.75213958172571" lon="9.62312039794907"><ele>723.0</ele><time>2026-05-03T15:11:27.999Z</time></trkpt><trkpt lat="44.7521797114328" lon="9.623300628732688"><ele>723.6666666666666</ele><time>2026-05-03T15:11:29.999Z</time></trkpt><trkpt lat="44.7522070182243" lon="9.623420328187764"><ele>724.3333333333334</ele><time>2026-05-03T15:11:30.999Z</time></trkpt><trkpt lat="44.75222659958172" lon="9.623528459336336"><ele>725.0</ele><time>2026-05-03T15:11:31.999Z</time></trkpt><trkpt lat="44.75225881336328" lon="9.623641902604891"><ele>725.6666666666667</ele><time>2026-05-03T15:11:32.999Z</time></trkpt><trkpt lat="44.75226066687338" lon="9.62378603650645"><ele>726.3333333333334</ele><time>2026-05-03T15:11:34.999Z</time></trkpt><trkpt lat="44.752254889545334" lon="9.623882534195902"><ele>727.0</ele><time>2026-05-03T15:11:35.999Z</time></trkpt><trkpt lat="44.75221829280301" lon="9.623967797951236"><ele>727.8</ele><time>2026-05-03T15:11:36.999Z</time></trkpt><trkpt lat="44.752174421030894" lon="9.624033021194746"><ele>728.6</ele><time>2026-05-03T15:11:37.999Z</time></trkpt><trkpt lat="44.75211809520891" lon="9.624157335477637"><ele>729.4</ele><time>2026-05-03T15:11:39.999Z</time></trkpt><trkpt lat="44.752098074182264" lon="9.624319285593682"><ele>730.1999999999999</ele><time>2026-05-03T15:11:41.999Z</time></trkpt><trkpt lat="44.75206632833432" lon="9.624497363419303"><ele>731.0</ele><time>2026-05-03T15:11:43.999Z</time></trkpt><trkpt lat="44.75205694981385" lon="9.624610953897076"><ele>731.0</ele><time>2026-05-03T15:11:44.999Z</time></trkpt><trkpt lat="44.75204723032354" lon="9.624717229711823"><ele>731.0</ele><time>2026-05-03T15:11:45.999Z</time></trkpt><trkpt lat="44.752046475129525" lon="9.624864464201313"><ele>731.0</ele><time>2026-05-03T15:11:47.999Z</time></trkpt><trkpt lat="44.75209040830444" lon="9.62497749269397"><ele>731.0</ele><time>2026-05-03T15:11:49.999Z</time></trkpt><trkpt lat="44.75211979367591" lon="9.625113825807064"><ele>731.0</ele><time>2026-05-03T15:11:51.999Z</time></trkpt><trkpt lat="44.75209342785422" lon="9.625254258187562"><ele>732.6666666666666</ele><time>2026-05-03T15:11:53.999Z</time></trkpt><trkpt lat="44.752052409711375" lon="9.625370492185644"><ele>734.3333333333333</ele><time>2026-05-03T15:11:55.998Z</time></trkpt><trkpt lat="44.752083595552634" lon="9.625455229391974"><ele>736.0</ele><time>2026-05-03T15:11:58.998Z</time></trkpt><trkpt lat="44.75211549718068" lon="9.625559747421077"><ele>737.6666666666666</ele><time>2026-05-03T15:12:00.998Z</time></trkpt><trkpt lat="44.752128726625465" lon="9.625647384667653"><ele>739.3333333333334</ele><time>2026-05-03T15:12:01.998Z</time></trkpt><trkpt lat="44.75215655314452" lon="9.625825124081048"><ele>741.0</ele><time>2026-05-03T15:12:03.998Z</time></trkpt><trkpt lat="44.75217251984293" lon="9.625938172752164"><ele>741.0</ele><time>2026-05-03T15:12:04.998Z</time></trkpt><trkpt lat="44.75218483601122" lon="9.626036147254327"><ele>741.0</ele><time>2026-05-03T15:12:05.998Z</time></trkpt><trkpt lat="44.752193990622246" lon="9.626155106122939"><ele>741.0</ele><time>2026-05-03T15:12:07.998Z</time></trkpt><trkpt lat="44.752199319569065" lon="9.626300770675149"><ele>741.0</ele><time>2026-05-03T15:12:09.998Z</time></trkpt><trkpt lat="44.75221009632232" lon="9.626407138187712"><ele>741.0</ele><time>2026-05-03T15:12:10.998Z</time></trkpt><trkpt lat="44.752219981009766" lon="9.626543550203177"><ele>741.0</ele><time>2026-05-03T15:12:11.998Z</time></trkpt><trkpt lat="44.75223788781218" lon="9.626701341737522"><ele>742.25</ele><time>2026-05-03T15:12:12.998Z</time></trkpt><trkpt lat="44.752253905375106" lon="9.626868960436516"><ele>743.5</ele><time>2026-05-03T15:12:13.998Z</time></trkpt><trkpt lat="44.75228072646133" lon="9.627031424124707"><ele>744.75</ele><time>2026-05-03T15:12:14.998Z</time></trkpt><trkpt lat="44.75232928494764" lon="9.627163136140782"><ele>746.0</ele><time>2026-05-03T15:12:15.998Z</time></trkpt><trkpt lat="44.75241603090592" lon="9.627281652903072"><ele>747.25</ele><time>2026-05-03T15:12:16.998Z</time></trkpt><trkpt lat="44.75253210291922" lon="9.627392952923609"><ele>748.5</ele><time>2026-05-03T15:12:17.998Z</time></trkpt><trkpt lat="44.752622826871686" lon="9.627487591630254"><ele>749.75</ele><time>2026-05-03T15:12:19Z</time></trkpt><trkpt lat="44.752693525079636" lon="9.627590096478988"><ele>751.0</ele><time>2026-05-03T15:12:20Z</time></trkpt><trkpt lat="44.75274531929577" lon="9.627719521711015"><ele>748.25</ele><time>2026-05-03T15:12:21Z</time></trkpt><trkpt lat="44.75279523991536" lon="9.627902204553473"><ele>745.5</ele><time>2026-05-03T15:12:22Z</time></trkpt><trkpt lat="44.75282521270767" lon="9.628093191153724"><ele>742.75</ele><time>2026-05-03T15:12:23Z</time></trkpt><trkpt lat="44.75284655168305" lon="9.628258328671139"><ele>740.0</ele><time>2026-05-03T15:12:24Z</time></trkpt><trkpt lat="44.75286226906758" lon="9.628418208377434"><ele>740.0</ele><time>2026-05-03T15:12:25Z</time></trkpt><trkpt lat="44.75287039361597" lon="9.628576479424478"><ele>740.0</ele><time>2026-05-03T15:12:26Z</time></trkpt><trkpt lat="44.752884492692054" lon="9.62874003811352"><ele>740.0</ele><time>2026-05-03T15:12:27Z</time></trkpt><trkpt lat="44.752909329994196" lon="9.628885406960544"><ele>740.0</ele><time>2026-05-03T15:12:28Z</time></trkpt><trkpt lat="44.752950275980474" lon="9.629018827066087"><ele>740.0</ele><time>2026-05-03T15:12:29Z</time></trkpt><trkpt lat="44.75297259119359" lon="9.62916808590524"><ele>740.0</ele><time>2026-05-03T15:12:30Z</time></trkpt><trkpt lat="44.75302942058456" lon="9.629335212357285"><ele>740.0</ele><time>2026-05-03T15:12:31Z</time></trkpt><trkpt lat="44.75311414302235" lon="9.629517500291554"><ele>740.0</ele><time>2026-05-03T15:12:32Z</time></trkpt><trkpt lat="44.75319618337122" lon="9.629699614134271"><ele>740.0</ele><time>2026-05-03T15:12:33Z</time></trkpt><trkpt lat="44.75325621696006" lon="9.629896704345496"><ele>740.25</ele><time>2026-05-03T15:12:34Z</time></trkpt><trkpt lat="44.75329948868991" lon="9.630092727716729"><ele>740.5</ele><time>2026-05-03T15:12:35Z</time></trkpt><trkpt lat="44.75332204962914" lon="9.630284597142216"><ele>740.75</ele><time>2026-05-03T15:12:36Z</time></trkpt><trkpt lat="44.75333974491835" lon="9.630464239311896"><ele>741.0</ele><time>2026-05-03T15:12:37Z</time></trkpt><trkpt lat="44.75335085347873" lon="9.630632651276992"><ele>743.25</ele><time>2026-05-03T15:12:38Z</time></trkpt><trkpt lat="44.75336404598503" lon="9.630815071429675"><ele>745.5</ele><time>2026-05-03T15:12:39Z</time></trkpt><trkpt lat="44.753387294171695" lon="9.631001723992261"><ele>747.75</ele><time>2026-05-03T15:12:40Z</time></trkpt><trkpt lat="44.7534028663891" lon="9.631198921935036"><ele>750.0</ele><time>2026-05-03T15:12:41Z</time></trkpt><trkpt lat="44.75340187911628" lon="9.631405797656589"><ele>751.0</ele><time>2026-05-03T15:12:42Z</time></trkpt><trkpt lat="44.75338980971093" lon="9.631595585437289"><ele>752.0</ele><time>2026-05-03T15:12:43Z</time></trkpt><trkpt lat="44.753379754541186" lon="9.631761998901322"><ele>753.0</ele><time>2026-05-03T15:12:44Z</time></trkpt><trkpt lat="44.75339952200897" lon="9.631920728763182"><ele>754.0</ele><time>2026-05-03T15:12:45Z</time></trkpt><trkpt lat="44.753445006085606" lon="9.632057564093646"><ele>753.2</ele><time>2026-05-03T15:12:46Z</time></trkpt><trkpt lat="44.75350224602165" lon="9.63217144729174"><ele>752.4000000000001</ele><time>2026-05-03T15:12:47Z</time></trkpt><trkpt lat="44.75357423301537" lon="9.632229939644931"><ele>751.6</ele><time>2026-05-03T15:12:48Z</time></trkpt><trkpt lat="44.75368327227452" lon="9.632261036007158"><ele>750.8</ele><time>2026-05-03T15:12:49Z</time></trkpt><trkpt lat="44.75379043121223" lon="9.632290063553196"><ele>750.0</ele><time>2026-05-03T15:12:50Z</time></trkpt><trkpt lat="44.75388349179401" lon="9.63231226748287"><ele>750.0</ele><time>2026-05-03T15:12:51Z</time></trkpt><trkpt lat="44.753967791899136" lon="9.632358270210325"><ele>750.0</ele><time>2026-05-03T15:12:52Z</time></trkpt><trkpt lat="44.75404639860331" lon="9.632435750382188"><ele>750.0</ele><time>2026-05-03T15:12:53Z</time></trkpt><trkpt lat="44.754110328809695" lon="9.632559803201216"><ele>750.0</ele><time>2026-05-03T15:12:54Z</time></trkpt><trkpt lat="44.75417507308491" lon="9.632716187454307"><ele>750.0</ele><time>2026-05-03T15:12:55Z</time></trkpt><trkpt lat="44.75423308738649" lon="9.632866521786422"><ele>749.0</ele><time>2026-05-03T15:12:56Z</time></trkpt><trkpt lat="44.75430243301228" lon="9.633017595184505"><ele>748.0</ele><time>2026-05-03T15:12:57Z</time></trkpt><trkpt lat="44.75436621509454" lon="9.633163088153275"><ele>747.0</ele><time>2026-05-03T15:12:58Z</time></trkpt><trkpt lat="44.75440785760924" lon="9.633320213048304"><ele>746.0</ele><time>2026-05-03T15:12:59Z</time></trkpt><trkpt lat="44.75442802167198" lon="9.633492391322061"><ele>747.4</ele><time>2026-05-03T15:13:00Z</time></trkpt><trkpt lat="44.75444379332042" lon="9.63364400280675"><ele>748.8</ele><time>2026-05-03T15:13:01Z</time></trkpt><trkpt lat="44.754467596523476" lon="9.633768430012152"><ele>750.1999999999999</ele><time>2026-05-03T15:13:01.999Z</time></trkpt><trkpt lat="44.754502837394774" lon="9.633864559085184"><ele>751.5999999999999</ele><time>2026-05-03T15:13:02.999Z</time></trkpt><trkpt lat="44.75456620621587" lon="9.633930600964254"><ele>753.0</ele><time>2026-05-03T15:13:03.999Z</time></trkpt><trkpt lat="44.75465612848117" lon="9.633986547380772"><ele>753.0</ele><time>2026-05-03T15:13:04.999Z</time></trkpt><trkpt lat="44.75477182582245" lon="9.634011896812236"><ele>753.0</ele><time>2026-05-03T15:13:05.999Z</time></trkpt><trkpt lat="44.754907248116126" lon="9.634039473510574"><ele>753.0</ele><time>2026-05-03T15:13:06.999Z</time></trkpt><trkpt lat="44.75502490671444" lon="9.634091766968034"><ele>753.0</ele><time>2026-05-03T15:13:07.999Z</time></trkpt><trkpt lat="44.755133940432046" lon="9.634176437090648"><ele>752.75</ele><time>2026-05-03T15:13:08.999Z</time></trkpt><trkpt lat="44.75524220931782" lon="9.6342840864173"><ele>752.5</ele><time>2026-05-03T15:13:09.999Z</time></trkpt><trkpt lat="44.75533642570367" lon="9.634405181947052"><ele>752.25</ele><time>2026-05-03T15:13:10.999Z</time></trkpt><trkpt lat="44.75543629365496" lon="9.634472759781811"><ele>752.0</ele><time>2026-05-03T15:13:11.999Z</time></trkpt><trkpt lat="44.75555896814347" lon="9.634495931547667"><ele>754.25</ele><time>2026-05-03T15:13:12.999Z</time></trkpt><trkpt lat="44.75570509921271" lon="9.634502385556647"><ele>756.5</ele><time>2026-05-03T15:13:13.999Z</time></trkpt><trkpt lat="44.755854260966764" lon="9.634514630112886"><ele>758.75</ele><time>2026-05-03T15:13:14.999Z</time></trkpt><trkpt lat="44.7559899873649" lon="9.634526356091108"><ele>761.0</ele><time>2026-05-03T15:13:15.999Z</time></trkpt><trkpt lat="44.75613846228255" lon="9.634532338355987"><ele>762.0</ele><time>2026-05-03T15:13:16.999Z</time></trkpt><trkpt lat="44.75630430043581" lon="9.634541705840878"><ele>763.0</ele><time>2026-05-03T15:13:17.999Z</time></trkpt><trkpt lat="44.75647770426848" lon="9.63456503690826"><ele>764.0</ele><time>2026-05-03T15:13:18.999Z</time></trkpt><trkpt lat="44.75663379903811" lon="9.634591834080789"><ele>764.0</ele><time>2026-05-03T15:13:19.999Z</time></trkpt><trkpt lat="44.75678217572846" lon="9.634626368881236"><ele>764.0</ele><time>2026-05-03T15:13:20.999Z</time></trkpt><trkpt lat="44.75692890504642" lon="9.634671902561756"><ele>764.0</ele><time>2026-05-03T15:13:21.999Z</time></trkpt><trkpt lat="44.75705390075962" lon="9.634731060715728"><ele>764.0</ele><time>2026-05-03T15:13:22.999Z</time></trkpt><trkpt lat="44.75715351524679" lon="9.6347844571608"><ele>764.6666666666666</ele><time>2026-05-03T15:13:23.999Z</time></trkpt><trkpt lat="44.75722585803599" lon="9.634790380002103"><ele>765.3333333333333</ele><time>2026-05-03T15:13:24.999Z</time></trkpt><trkpt lat="44.75728862971655" lon="9.63474679740572"><ele>766.0</ele><time>2026-05-03T15:13:25.999Z</time></trkpt><trkpt lat="44.75733449039035" lon="9.63466509897103"><ele>766.6666666666666</ele><time>2026-05-03T15:13:26.999Z</time></trkpt><trkpt lat="44.757362811644214" lon="9.634562091957035"><ele>767.3333333333334</ele><time>2026-05-03T15:13:27.999Z</time></trkpt><trkpt lat="44.75737768737512" lon="9.634446472966783"><ele>768.0</ele><time>2026-05-03T15:13:28.999Z</time></trkpt><trkpt lat="44.757394793302055" lon="9.634328815942773"><ele>768.0</ele><time>2026-05-03T15:13:29.999Z</time></trkpt><trkpt lat="44.75743111099945" lon="9.634204245538042"><ele>768.0</ele><time>2026-05-03T15:13:30.999Z</time></trkpt><trkpt lat="44.7574770010502" lon="9.634088535021142"><ele>768.0</ele><time>2026-05-03T15:13:31.999Z</time></trkpt><trkpt lat="44.757517435957475" lon="9.633983667807787"><ele>768.0</ele><time>2026-05-03T15:13:32.999Z</time></trkpt><trkpt lat="44.75756516966505" lon="9.63391772179204"><ele>768.0</ele><time>2026-05-03T15:13:33.999Z</time></trkpt><trkpt lat="44.7576283646199" lon="9.633899941506671"><ele>768.0</ele><time>2026-05-03T15:13:34.999Z</time></trkpt><trkpt lat="44.757689434488555" lon="9.633945514765248"><ele>766.8333333333334</ele><time>2026-05-03T15:13:35.999Z</time></trkpt><trkpt lat="44.75771951973936" lon="9.634043160567218"><ele>765.6666666666666</ele><time>2026-05-03T15:13:36.999Z</time></trkpt><trkpt lat="44.75772917818067" lon="9.634155405386558"><ele>764.5</ele><time>2026-05-03T15:13:37.999Z</time></trkpt><trkpt lat="44.757743633260915" lon="9.634271275237774"><ele>763.3333333333333</ele><time>2026-05-03T15:13:38.999Z</time></trkpt><trkpt lat="44.75776828450673" lon="9.634369928083022"><ele>762.1666666666666</ele><time>2026-05-03T15:13:39.999Z</time></trkpt><trkpt lat="44.75780173993874" lon="9.634464423806458"><ele>761.0</ele><time>2026-05-03T15:13:40.999Z</time></trkpt><trkpt lat="44.7578179079881" lon="9.634570969609833"><ele>761.0</ele><time>2026-05-03T15:13:41.999Z</time></trkpt><trkpt lat="44.75780878999841" lon="9.63468758132343"><ele>761.0</ele><time>2026-05-03T15:13:42.999Z</time></trkpt><trkpt lat="44.75780092857446" lon="9.634813176508933"><ele>761.0</ele><time>2026-05-03T15:13:43.999Z</time></trkpt><trkpt lat="44.757787978182634" lon="9.634966043301818"><ele>761.0</ele><time>2026-05-03T15:13:44.999Z</time></trkpt><trkpt lat="44.75778408297956" lon="9.635126388949038"><ele>761.0</ele><time>2026-05-03T15:13:45.999Z</time></trkpt><trkpt lat="44.75777357782426" lon="9.635280470614127"><ele>762.25</ele><time>2026-05-03T15:13:46.999Z</time></trkpt><trkpt lat="44.7577369393426" lon="9.635441628947188"><ele>763.5</ele><time>2026-05-03T15:13:47.999Z</time></trkpt><trkpt lat="44.75768212478772" lon="9.635593937753697"><ele>764.75</ele><time>2026-05-03T15:13:48.999Z</time></trkpt><trkpt lat="44.75763600113998" lon="9.635736559340865"><ele>766.0</ele><time>2026-05-03T15:13:49.999Z</time></trkpt><trkpt lat="44.75761373003096" lon="9.635875546396253"><ele>766.4</ele><time>2026-05-03T15:13:50.999Z</time></trkpt><trkpt lat="44.757624840471195" lon="9.63601649031022"><ele>766.8</ele><time>2026-05-03T15:13:51.999Z</time></trkpt><trkpt lat="44.75767142052548" lon="9.636153901262798"><ele>767.1999999999999</ele><time>2026-05-03T15:13:52.999Z</time></trkpt><trkpt lat="44.757730743578314" lon="9.636294083219532"><ele>767.5999999999999</ele><time>2026-05-03T15:13:53.999Z</time></trkpt><trkpt lat="44.757808443411164" lon="9.6364237941965"><ele>768.0</ele><time>2026-05-03T15:13:54.999Z</time></trkpt><trkpt lat="44.757863306306554" lon="9.636565046889913"><ele>768.0</ele><time>2026-05-03T15:13:55.999Z</time></trkpt><trkpt lat="44.75789602778939" lon="9.63672948430801"><ele>768.0</ele><time>2026-05-03T15:13:56.999Z</time></trkpt><trkpt lat="44.75792596040827" lon="9.636920094816858"><ele>768.0</ele><time>2026-05-03T15:13:57.999Z</time></trkpt><trkpt lat="44.75797637690902" lon="9.637135987417052"><ele>768.0</ele><time>2026-05-03T15:13:58.999Z</time></trkpt><trkpt lat="44.758015861027076" lon="9.637329770685298"><ele>769.8</ele><time>2026-05-03T15:13:59.999Z</time></trkpt><trkpt lat="44.758028553255095" lon="9.637479765450834"><ele>771.5999999999999</ele><time>2026-05-03T15:14:00.998Z</time></trkpt><trkpt lat="44.75805156151542" lon="9.63759433618617"><ele>773.4000000000001</ele><time>2026-05-03T15:14:01.998Z</time></trkpt><trkpt lat="44.758113587399954" lon="9.637679603121661"><ele>775.2</ele><time>2026-05-03T15:14:02.998Z</time></trkpt><trkpt lat="44.75820241463444" lon="9.637737327798037"><ele>777.0</ele><time>2026-05-03T15:14:03.998Z</time></trkpt><trkpt lat="44.75831530106892" lon="9.637798369809031"><ele>777.5</ele><time>2026-05-03T15:14:04.998Z</time></trkpt><trkpt lat="44.75842081308543" lon="9.637927454950443"><ele>778.0</ele><time>2026-05-03T15:14:05.998Z</time></trkpt><trkpt lat="44.75850616668379" lon="9.638079685141543"><ele>778.5</ele><time>2026-05-03T15:14:06.998Z</time></trkpt><trkpt lat="44.75859446687642" lon="9.638241024716113"><ele>779.0</ele><time>2026-05-03T15:14:07.998Z</time></trkpt><trkpt lat="44.75869557239087" lon="9.63837790134465"><ele>779.0</ele><time>2026-05-03T15:14:08.998Z</time></trkpt><trkpt lat="44.75879122626159" lon="9.638500127827268"><ele>779.0</ele><time>2026-05-03T15:14:09.998Z</time></trkpt><trkpt lat="44.75890229439922" lon="9.63859469177699"><ele>779.0</ele><time>2026-05-03T15:14:10.998Z</time></trkpt><trkpt lat="44.75901040791471" lon="9.63864911416209"><ele>779.0</ele><time>2026-05-03T15:14:11.998Z</time></trkpt><trkpt lat="44.759080782259026" lon="9.638713376390758"><ele>781.4000000000001</ele><time>2026-05-03T15:14:12.998Z</time></trkpt><trkpt lat="44.759102526912606" lon="9.63882582164464"><ele>783.8</ele><time>2026-05-03T15:14:13.998Z</time></trkpt><trkpt lat="44.7591181351891" lon="9.638964352407635"><ele>786.2</ele><time>2026-05-03T15:14:14.998Z</time></trkpt><trkpt lat="44.75914330897848" lon="9.63911225046151"><ele>788.5999999999999</ele><time>2026-05-03T15:14:15.998Z</time></trkpt><trkpt lat="44.75920385228293" lon="9.639253584184843"><ele>791.0</ele><time>2026-05-03T15:14:16.998Z</time></trkpt><trkpt lat="44.759281124529956" lon="9.639404880469305"><ele>791.0</ele><time>2026-05-03T15:14:17.998Z</time></trkpt><trkpt lat="44.75937121413045" lon="9.639568843594287"><ele>791.0</ele><time>2026-05-03T15:14:18.998Z</time></trkpt><trkpt lat="44.759425760343106" lon="9.639743169649991"><ele>791.0</ele><time>2026-05-03T15:14:19.998Z</time></trkpt><trkpt lat="44.75945681479776" lon="9.639885965204854"><ele>791.0</ele><time>2026-05-03T15:14:20.998Z</time></trkpt><trkpt lat="44.75951270449519" lon="9.640001430314255"><ele>791.0</ele><time>2026-05-03T15:14:21.998Z</time></trkpt><trkpt lat="44.759594059867126" lon="9.640093643183732"><ele>791.0</ele><time>2026-05-03T15:14:22.998Z</time></trkpt><trkpt lat="44.75970172185059" lon="9.640141925255541"><ele>791.0</ele><time>2026-05-03T15:14:23.998Z</time></trkpt><trkpt lat="44.75981256307605" lon="9.640198538913415"><ele>791.0</ele><time>2026-05-03T15:14:25Z</time></trkpt><trkpt lat="44.75992886111404" lon="9.640263481289637"><ele>793.0</ele><time>2026-05-03T15:14:26Z</time></trkpt><trkpt lat="44.76002945092687" lon="9.640360844636765"><ele>795.0</ele><time>2026-05-03T15:14:27Z</time></trkpt><trkpt lat="44.76010530342367" lon="9.640484108044785"><ele>797.0</ele><time>2026-05-03T15:14:28Z</time></trkpt><trkpt lat="44.760174790393826" lon="9.640650061292899"><ele>799.0</ele><time>2026-05-03T15:14:29Z</time></trkpt><trkpt lat="44.76025423178511" lon="9.640808754699282"><ele>799.25</ele><time>2026-05-03T15:14:30Z</time></trkpt><trkpt lat="44.76035558279217" lon="9.640935337291706"><ele>799.5</ele><time>2026-05-03T15:14:31Z</time></trkpt><trkpt lat="44.76045873115883" lon="9.641031827090007"><ele>799.75</ele><time>2026-05-03T15:14:32Z</time></trkpt><trkpt lat="44.76054962100664" lon="9.641125770709229"><ele>800.0</ele><time>2026-05-03T15:14:33Z</time></trkpt><trkpt lat="44.76065006211899" lon="9.64120739575657"><ele>803.25</ele><time>2026-05-03T15:14:34Z</time></trkpt><trkpt lat="44.76075110507389" lon="9.64128762571061"><ele>806.5</ele><time>2026-05-03T15:14:35Z</time></trkpt><trkpt lat="44.76087424341697" lon="9.641346984952708"><ele>809.75</ele><time>2026-05-03T15:14:36Z</time></trkpt><trkpt lat="44.7610097559952" lon="9.64139259253582"><ele>813.0</ele><time>2026-05-03T15:14:37Z</time></trkpt><trkpt lat="44.761147842376225" lon="9.641427168702743"><ele>813.75</ele><time>2026-05-03T15:14:38Z</time></trkpt><trkpt lat="44.76126882967331" lon="9.641467308174219"><ele>814.5</ele><time>2026-05-03T15:14:39Z</time></trkpt><trkpt lat="44.761383459950224" lon="9.641520040292876"><ele>815.25</ele><time>2026-05-03T15:14:40Z</time></trkpt><trkpt lat="44.761504446352575" lon="9.641556597617978"><ele>816.0</ele><time>2026-05-03T15:14:41Z</time></trkpt><trkpt lat="44.76162412044366" lon="9.641613864516833"><ele>816.0</ele><time>2026-05-03T15:14:42Z</time></trkpt><trkpt lat="44.761724097940494" lon="9.641692115073107"><ele>816.0</ele><time>2026-05-03T15:14:43Z</time></trkpt><trkpt lat="44.761805381951184" lon="9.641796886524068"><ele>816.0</ele><time>2026-05-03T15:14:44Z</time></trkpt><trkpt lat="44.76187606714352" lon="9.641922340730734"><ele>816.0</ele><time>2026-05-03T15:14:45Z</time></trkpt><trkpt lat="44.76196641191581" lon="9.642006326844216"><ele>816.0</ele><time>2026-05-03T15:14:46Z</time></trkpt><trkpt lat="44.76208209839343" lon="9.642041767400782"><ele>820.25</ele><time>2026-05-03T15:14:47Z</time></trkpt><trkpt lat="44.762193086059575" lon="9.642028204165213"><ele>824.5</ele><time>2026-05-03T15:14:48Z</time></trkpt><trkpt lat="44.762307206478766" lon="9.642009961331306"><ele>828.75</ele><time>2026-05-03T15:14:49Z</time></trkpt><trkpt lat="44.762427474537766" lon="9.64203209143862"><ele>833.0</ele><time>2026-05-03T15:14:50Z</time></trkpt><trkpt lat="44.76256240770535" lon="9.642066302121181"><ele>834.25</ele><time>2026-05-03T15:14:51Z</time></trkpt><trkpt lat="44.762702094829635" lon="9.64209872107051"><ele>835.5</ele><time>2026-05-03T15:14:52Z</time></trkpt><trkpt lat="44.76284267712936" lon="9.642125579305088"><ele>836.75</ele><time>2026-05-03T15:14:53Z</time></trkpt><trkpt lat="44.76298848600066" lon="9.642129353405823"><ele>838.0</ele><time>2026-05-03T15:14:54Z</time></trkpt><trkpt lat="44.763122638462825" lon="9.642112150933173"><ele>838.0</ele><time>2026-05-03T15:14:55Z</time></trkpt><trkpt lat="44.763236276875205" lon="9.642081298624086"><ele>838.0</ele><time>2026-05-03T15:14:56Z</time></trkpt><trkpt lat="44.76331410547673" lon="9.642047966753095"><ele>838.0</ele><time>2026-05-03T15:14:57Z</time></trkpt><trkpt lat="44.763381651520156" lon="9.64199995116066"><ele>838.0</ele><time>2026-05-03T15:14:58Z</time></trkpt><trkpt lat="44.76345338530685" lon="9.641930777965237"><ele>838.0</ele><time>2026-05-03T15:14:59Z</time></trkpt><trkpt lat="44.76354552178392" lon="9.641852973313167"><ele>835.75</ele><time>2026-05-03T15:15:00Z</time></trkpt><trkpt lat="44.763646547778656" lon="9.64176263270463"><ele>833.5</ele><time>2026-05-03T15:15:01Z</time></trkpt><trkpt lat="44.76376187991661" lon="9.641665594337473"><ele>831.25</ele><time>2026-05-03T15:15:02Z</time></trkpt><trkpt lat="44.76386773399543" lon="9.641568650657566"><ele>829.0</ele><time>2026-05-03T15:15:03Z</time></trkpt><trkpt lat="44.76396485037202" lon="9.641475161561994"><ele>829.0</ele><time>2026-05-03T15:15:04Z</time></trkpt><trkpt lat="44.764048901306" lon="9.641394722513933"><ele>829.0</ele><time>2026-05-03T15:15:05Z</time></trkpt><trkpt lat="44.76411365079169" lon="9.641339856441256"><ele>829.0</ele><time>2026-05-03T15:15:06Z</time></trkpt><trkpt lat="44.764203235570854" lon="9.6413408141326"><ele>829.0</ele><time>2026-05-03T15:15:07Z</time></trkpt><trkpt lat="44.76430150708941" lon="9.641363451221878"><ele>829.0</ele><time>2026-05-03T15:15:08Z</time></trkpt><trkpt lat="44.76440887835726" lon="9.641417216965253"><ele>827.25</ele><time>2026-05-03T15:15:09Z</time></trkpt><trkpt lat="44.76452986724971" lon="9.64148761150152"><ele>825.5</ele><time>2026-05-03T15:15:09.999Z</time></trkpt><trkpt lat="44.764670455906916" lon="9.64152336807681"><ele>823.75</ele><time>2026-05-03T15:15:10.999Z</time></trkpt><trkpt lat="44.76482605414995" lon="9.641519523471983"><ele>822.0</ele><time>2026-05-03T15:15:11.999Z</time></trkpt><trkpt lat="44.76495755707863" lon="9.641504327673454"><ele>822.0</ele><time>2026-05-03T15:15:12.999Z</time></trkpt><trkpt lat="44.76508231072085" lon="9.641522974478036"><ele>822.0</ele><time>2026-05-03T15:15:13.999Z</time></trkpt><trkpt lat="44.765206916796544" lon="9.641574695111883"><ele>822.0</ele><time>2026-05-03T15:15:14.999Z</time></trkpt><trkpt lat="44.76534162536945" lon="9.641652685206944"><ele>822.0</ele><time>2026-05-03T15:15:15.999Z</time></trkpt><trkpt lat="44.76549310357993" lon="9.641736680214883"><ele>821.6666666666667</ele><time>2026-05-03T15:15:16.999Z</time></trkpt><trkpt lat="44.76564434870797" lon="9.641822036343894"><ele>821.3333333333334</ele><time>2026-05-03T15:15:17.999Z</time></trkpt><trkpt lat="44.76577792743548" lon="9.641921297098927"><ele>821.0</ele><time>2026-05-03T15:15:18.999Z</time></trkpt><trkpt lat="44.76590696229679" lon="9.64205638401101"><ele>821.0</ele><time>2026-05-03T15:15:19.999Z</time></trkpt><trkpt lat="44.76602078472586" lon="9.642192115771898"><ele>821.0</ele><time>2026-05-03T15:15:20.999Z</time></trkpt><trkpt lat="44.76613198167705" lon="9.642307224026268"><ele>821.0</ele><time>2026-05-03T15:15:21.999Z</time></trkpt><trkpt lat="44.766264467258395" lon="9.642414522666733"><ele>821.0</ele><time>2026-05-03T15:15:22.999Z</time></trkpt><trkpt lat="44.766389861361816" lon="9.642497886998143"><ele>820.8</ele><time>2026-05-03T15:15:23.999Z</time></trkpt><trkpt lat="44.76650502664615" lon="9.642563648249586"><ele>820.5999999999999</ele><time>2026-05-03T15:15:24.999Z</time></trkpt><trkpt lat="44.76661020445735" lon="9.642635583332856"><ele>820.4</ele><time>2026-05-03T15:15:25.999Z</time></trkpt><trkpt lat="44.76669216546831" lon="9.642719316689163"><ele>820.2</ele><time>2026-05-03T15:15:26.999Z</time></trkpt><trkpt lat="44.76673799235492" lon="9.642812718907082"><ele>820.0</ele><time>2026-05-03T15:15:27.999Z</time></trkpt><trkpt lat="44.76675612451214" lon="9.642928457609083"><ele>820.0</ele><time>2026-05-03T15:15:28.999Z</time></trkpt><trkpt lat="44.766755430327926" lon="9.643079292192667"><ele>820.0</ele><time>2026-05-03T15:15:29.999Z</time></trkpt><trkpt lat="44.76673688096743" lon="9.643238411163473"><ele>820.0</ele><time>2026-05-03T15:15:30.999Z</time></trkpt><trkpt lat="44.766685104542844" lon="9.643418997447265"><ele>820.0</ele><time>2026-05-03T15:15:31.999Z</time></trkpt><trkpt lat="44.76662002964139" lon="9.643614504387743"><ele>818.0</ele><time>2026-05-03T15:15:32.999Z</time></trkpt><trkpt lat="44.766551818622034" lon="9.643824926184687"><ele>816.0</ele><time>2026-05-03T15:15:33.999Z</time></trkpt><trkpt lat="44.76650595876302" lon="9.64404073505153"><ele>814.0</ele><time>2026-05-03T15:15:34.999Z</time></trkpt><trkpt lat="44.76647422318425" lon="9.644242653427638"><ele>814.0</ele><time>2026-05-03T15:15:35.999Z</time></trkpt><trkpt lat="44.76645884337106" lon="9.644449804079517"><ele>814.0</ele><time>2026-05-03T15:15:36.999Z</time></trkpt><trkpt lat="44.766466648582636" lon="9.644688043478284"><ele>814.0</ele><time>2026-05-03T15:15:37.999Z</time></trkpt><trkpt lat="44.76647811566922" lon="9.644913366548423"><ele>813.5</ele><time>2026-05-03T15:15:38.999Z</time></trkpt><trkpt lat="44.76647475515943" lon="9.64511850314949"><ele>813.0</ele><time>2026-05-03T15:15:39.999Z</time></trkpt><trkpt lat="44.766458465325165" lon="9.645301428221432"><ele>812.5</ele><time>2026-05-03T15:15:40.999Z</time></trkpt><trkpt lat="44.76645528891368" lon="9.64547489842687"><ele>812.0</ele><time>2026-05-03T15:15:41.999Z</time></trkpt><trkpt lat="44.766479138751365" lon="9.645632974502163"><ele>811.8</ele><time>2026-05-03T15:15:42.999Z</time></trkpt><trkpt lat="44.76652452535111" lon="9.645781334366992"><ele>811.6</ele><time>2026-05-03T15:15:43.999Z</time></trkpt><trkpt lat="44.766579673374224" lon="9.645918564683697"><ele>811.4</ele><time>2026-05-03T15:15:44.999Z</time></trkpt><trkpt lat="44.76659060874289" lon="9.646031120163462"><ele>811.1999999999999</ele><time>2026-05-03T15:15:45.999Z</time></trkpt><trkpt lat="44.76656828860651" lon="9.646155696294732"><ele>811.0</ele><time>2026-05-03T15:15:46.999Z</time></trkpt><trkpt lat="44.76651980448914" lon="9.646295089682761"><ele>810.25</ele><time>2026-05-03T15:15:47.999Z</time></trkpt><trkpt lat="44.766467927731185" lon="9.646457719488133"><ele>809.5</ele><time>2026-05-03T15:15:48.999Z</time></trkpt><trkpt lat="44.7664311076806" lon="9.64663495162343"><ele>808.75</ele><time>2026-05-03T15:15:49.999Z</time></trkpt><trkpt lat="44.76640532295693" lon="9.646802641439914"><ele>808.0</ele><time>2026-05-03T15:15:50.999Z</time></trkpt><trkpt lat="44.76640154612989" lon="9.646939958637516"><ele>807.8</ele><time>2026-05-03T15:15:51.999Z</time></trkpt><trkpt lat="44.766417608915546" lon="9.647064452268502"><ele>807.5999999999999</ele><time>2026-05-03T15:15:52.999Z</time></trkpt><trkpt lat="44.76645681803339" lon="9.64717261600414"><ele>807.4000000000001</ele><time>2026-05-03T15:15:53.999Z</time></trkpt><trkpt lat="44.766505896261904" lon="9.647269832251649"><ele>807.2</ele><time>2026-05-03T15:15:54.999Z</time></trkpt><trkpt lat="44.76657613759889" lon="9.647371446752496"><ele>807.0</ele><time>2026-05-03T15:15:55.999Z</time></trkpt><trkpt lat="44.76666954171609" lon="9.647489465569004"><ele>807.0</ele><time>2026-05-03T15:15:56.999Z</time></trkpt><trkpt lat="44.76678350684483" lon="9.64761693817108"><ele>807.0</ele><time>2026-05-03T15:15:57.999Z</time></trkpt><trkpt lat="44.766931852760614" lon="9.647761819165272"><ele>807.0</ele><time>2026-05-03T15:15:58.999Z</time></trkpt><trkpt lat="44.767069678582644" lon="9.647873332586904"><ele>805.0</ele><time>2026-05-03T15:15:59.999Z</time></trkpt><trkpt lat="44.76716576876887" lon="9.647985158071304"><ele>803.0</ele><time>2026-05-03T15:16:00.999Z</time></trkpt><trkpt lat="44.767250646056986" lon="9.648067605691823"><ele>801.0</ele><time>2026-05-03T15:16:01.999Z</time></trkpt><trkpt lat="44.76732680560713" lon="9.648132270159016"><ele>799.0</ele><time>2026-05-03T15:16:02.999Z</time></trkpt><trkpt lat="44.76737588521826" lon="9.648188514732036"><ele>797.0</ele><time>2026-05-03T15:16:03.999Z</time></trkpt><trkpt lat="44.76740664252052" lon="9.648275515201727"><ele>795.0</ele><time>2026-05-03T15:16:04.999Z</time></trkpt><trkpt lat="44.76742303267299" lon="9.648381433168574"><ele>795.0</ele><time>2026-05-03T15:16:05.999Z</time></trkpt><trkpt lat="44.76741542474263" lon="9.648507669553641"><ele>795.0</ele><time>2026-05-03T15:16:06.999Z</time></trkpt><trkpt lat="44.767383011757296" lon="9.64864968141159"><ele>795.0</ele><time>2026-05-03T15:16:07.999Z</time></trkpt><trkpt lat="44.76732243317229" lon="9.648779476925508"><ele>795.0</ele><time>2026-05-03T15:16:08.998Z</time></trkpt><trkpt lat="44.767233053725754" lon="9.648902869068223"><ele>795.0</ele><time>2026-05-03T15:16:09.998Z</time></trkpt><trkpt lat="44.76710693097567" lon="9.649047287200629"><ele>796.0</ele><time>2026-05-03T15:16:10.998Z</time></trkpt><trkpt lat="44.76695501813533" lon="9.649201794475609"><ele>797.0</ele><time>2026-05-03T15:16:11.998Z</time></trkpt><trkpt lat="44.76681835518154" lon="9.649345847877646"><ele>798.0</ele><time>2026-05-03T15:16:12.998Z</time></trkpt><trkpt lat="44.76670515127447" lon="9.649483328005878"><ele>793.5</ele><time>2026-05-03T15:16:13.998Z</time></trkpt><trkpt lat="44.76659698422109" lon="9.649621393358021"><ele>789.0</ele><time>2026-05-03T15:16:14.998Z</time></trkpt><trkpt lat="44.76649034752143" lon="9.64974534514375"><ele>784.5</ele><time>2026-05-03T15:16:15.998Z</time></trkpt><trkpt lat="44.76639478085656" lon="9.64986301178464"><ele>780.0</ele><time>2026-05-03T15:16:16.998Z</time></trkpt><trkpt lat="44.76630033610715" lon="9.649975491325689"><ele>780.0</ele><time>2026-05-03T15:16:17.998Z</time></trkpt><trkpt lat="44.766206488792186" lon="9.650084003180796"><ele>780.0</ele><time>2026-05-03T15:16:18.998Z</time></trkpt><trkpt lat="44.76611427020578" lon="9.65016655863291"><ele>780.0</ele><time>2026-05-03T15:16:19.998Z</time></trkpt><trkpt lat="44.76602119340705" lon="9.650223332451707"><ele>780.0</ele><time>2026-05-03T15:16:20.998Z</time></trkpt><trkpt lat="44.76592502991377" lon="9.650269364306483"><ele>780.0</ele><time>2026-05-03T15:16:21.998Z</time></trkpt><trkpt lat="44.76584113937101" lon="9.650326502578508"><ele>779.4285714285714</ele><time>2026-05-03T15:16:22.998Z</time></trkpt><trkpt lat="44.76577631236268" lon="9.650398623652071"><ele>778.8571428571429</ele><time>2026-05-03T15:16:23.998Z</time></trkpt><trkpt lat="44.765731228736534" lon="9.650487551075262"><ele>778.2857142857142</ele><time>2026-05-03T15:16:24.998Z</time></trkpt><trkpt lat="44.7657080851602" lon="9.65058448870751"><ele>777.7142857142858</ele><time>2026-05-03T15:16:25.998Z</time></trkpt><trkpt lat="44.76571022526165" lon="9.65067994755288"><ele>777.1428571428572</ele><time>2026-05-03T15:16:26.998Z</time></trkpt><trkpt lat="44.765737692706765" lon="9.650764590749235"><ele>776.5714285714286</ele><time>2026-05-03T15:16:27.998Z</time></trkpt><trkpt lat="44.765807654706705" lon="9.650815596981296"><ele>776.0</ele><time>2026-05-03T15:16:28.998Z</time></trkpt><trkpt lat="44.76588608977456" lon="9.650824033639768"><ele>776.0</ele><time>2026-05-03T15:16:29.998Z</time></trkpt><trkpt lat="44.76597551936823" lon="9.650860276879161"><ele>776.0</ele><time>2026-05-03T15:16:32Z</time></trkpt><trkpt lat="44.76597854273642" lon="9.650991604346022"><ele>776.0</ele><time>2026-05-03T15:16:34Z</time></trkpt><trkpt lat="44.765970316853156" lon="9.651112699016245"><ele>776.0</ele><time>2026-05-03T15:16:35Z</time></trkpt><trkpt lat="44.76595564239102" lon="9.651268222347154"><ele>776.0</ele><time>2026-05-03T15:16:36Z</time></trkpt><trkpt lat="44.765939816682064" lon="9.651433295492616"><ele>775.75</ele><time>2026-05-03T15:16:37Z</time></trkpt><trkpt lat="44.76592105303597" lon="9.651604891455655"><ele>775.5</ele><time>2026-05-03T15:16:38Z</time></trkpt><trkpt lat="44.76593197890105" lon="9.651763314619437"><ele>775.25</ele><time>2026-05-03T15:16:39Z</time></trkpt><trkpt lat="44.76597594529226" lon="9.651917455551992"><ele>775.0</ele><time>2026-05-03T15:16:40Z</time></trkpt><trkpt lat="44.766042797986344" lon="9.6520610212323"><ele>772.5</ele><time>2026-05-03T15:16:41Z</time></trkpt><trkpt lat="44.76611861341977" lon="9.652201849946511"><ele>770.0</ele><time>2026-05-03T15:16:42Z</time></trkpt><trkpt lat="44.76620026706128" lon="9.652342742232456"><ele>767.5</ele><time>2026-05-03T15:16:43Z</time></trkpt><trkpt lat="44.76628758736115" lon="9.652482748103605"><ele>765.0</ele><time>2026-05-03T15:16:44Z</time></trkpt><trkpt lat="44.76637134632713" lon="9.652633954750884"><ele>765.5</ele><time>2026-05-03T15:16:45Z</time></trkpt><trkpt lat="44.76643760689993" lon="9.652795647844282"><ele>766.0</ele><time>2026-05-03T15:16:46Z</time></trkpt><trkpt lat="44.76647162807831" lon="9.652970000489406"><ele>766.5</ele><time>2026-05-03T15:16:47Z</time></trkpt><trkpt lat="44.76649335448222" lon="9.65315030314943"><ele>767.0</ele><time>2026-05-03T15:16:48Z</time></trkpt><trkpt lat="44.7665085277218" lon="9.65332868777176"><ele>767.0</ele><time>2026-05-03T15:16:49Z</time></trkpt><trkpt lat="44.76652369995463" lon="9.653508617068194"><ele>767.0</ele><time>2026-05-03T15:16:50Z</time></trkpt><trkpt lat="44.76653999328542" lon="9.653689127350875"><ele>767.0</ele><time>2026-05-03T15:16:51Z</time></trkpt><trkpt lat="44.76655311513259" lon="9.653873218445032"><ele>767.0</ele><time>2026-05-03T15:16:52Z</time></trkpt><trkpt lat="44.76656688741009" lon="9.654058574959665"><ele>767.0</ele><time>2026-05-03T15:16:53Z</time></trkpt><trkpt lat="44.76658749120997" lon="9.654238704162319"><ele>767.0</ele><time>2026-05-03T15:16:54Z</time></trkpt><trkpt lat="44.7666244231977" lon="9.654414223823807"><ele>767.0</ele><time>2026-05-03T15:16:55Z</time></trkpt><trkpt lat="44.76667570082452" lon="9.654588168207884"><ele>767.0</ele><time>2026-05-03T15:16:56Z</time></trkpt><trkpt lat="44.76672937940519" lon="9.654776312450707"><ele>767.5</ele><time>2026-05-03T15:16:57Z</time></trkpt><trkpt lat="44.76678308022076" lon="9.654962517880431"><ele>768.0</ele><time>2026-05-03T15:16:58Z</time></trkpt><trkpt lat="44.76683495021121" lon="9.655128997523349"><ele>768.5</ele><time>2026-05-03T15:16:59Z</time></trkpt><trkpt lat="44.76688276879163" lon="9.655288900320821"><ele>769.0</ele><time>2026-05-03T15:17:00Z</time></trkpt><trkpt lat="44.76692498303096" lon="9.655443554097737"><ele>766.5</ele><time>2026-05-03T15:17:01Z</time></trkpt><trkpt lat="44.766957849760615" lon="9.655599716392526"><ele>764.0</ele><time>2026-05-03T15:17:02Z</time></trkpt><trkpt lat="44.766969780727145" lon="9.655765935124382"><ele>761.5</ele><time>2026-05-03T15:17:03Z</time></trkpt><trkpt lat="44.766947178135396" lon="9.65595093682461"><ele>759.0</ele><time>2026-05-03T15:17:04Z</time></trkpt><trkpt lat="44.766920033975666" lon="9.65613244040685"><ele>758.75</ele><time>2026-05-03T15:17:05Z</time></trkpt><trkpt lat="44.76690686413208" lon="9.656303208360619"><ele>758.5</ele><time>2026-05-03T15:17:06Z</time></trkpt><trkpt lat="44.76690593378203" lon="9.656473953500255"><ele>758.25</ele><time>2026-05-03T15:17:07Z</time></trkpt><trkpt lat="44.766913172528476" lon="9.656649626350797"><ele>758.0</ele><time>2026-05-03T15:17:08Z</time></trkpt><trkpt lat="44.76692999657415" lon="9.656828704504036"><ele>758.5</ele><time>2026-05-03T15:17:09Z</time></trkpt><trkpt lat="44.76696179584774" lon="9.657012332509922"><ele>759.0</ele><time>2026-05-03T15:17:10Z</time></trkpt><trkpt lat="44.76699903746333" lon="9.657194946651842"><ele>759.5</ele><time>2026-05-03T15:17:11Z</time></trkpt><trkpt lat="44.76703875354504" lon="9.657359179409191"><ele>760.0</ele><time>2026-05-03T15:17:12Z</time></trkpt><trkpt lat="44.76709157182175" lon="9.657510096524698"><ele>760.0</ele><time>2026-05-03T15:17:12.999Z</time></trkpt><trkpt lat="44.76716589177274" lon="9.657640456398267"><ele>760.0</ele><time>2026-05-03T15:17:13.999Z</time></trkpt><trkpt lat="44.767236900000036" lon="9.657751396166178"><ele>760.0</ele><time>2026-05-03T15:17:14.999Z</time></trkpt><trkpt lat="44.7672907275324" lon="9.657867325271624"><ele>760.0</ele><time>2026-05-03T15:17:15.999Z</time></trkpt><trkpt lat="44.76731591562101" lon="9.658004197828149"><ele>760.0</ele><time>2026-05-03T15:17:16.999Z</time></trkpt><trkpt lat="44.76731445422075" lon="9.658174889940211"><ele>761.25</ele><time>2026-05-03T15:17:17.999Z</time></trkpt><trkpt lat="44.76730247325459" lon="9.658346459417253"><ele>762.5</ele><time>2026-05-03T15:17:18.999Z</time></trkpt><trkpt lat="44.76729502771266" lon="9.658525689982989"><ele>763.75</ele><time>2026-05-03T15:17:19.999Z</time></trkpt><trkpt lat="44.76729101313292" lon="9.658695371293721"><ele>765.0</ele><time>2026-05-03T15:17:20.999Z</time></trkpt><trkpt lat="44.767278088240296" lon="9.658857466421527"><ele>765.0</ele><time>2026-05-03T15:17:21.999Z</time></trkpt><trkpt lat="44.767230639068984" lon="9.65901829798723"><ele>765.0</ele><time>2026-05-03T15:17:22.999Z</time></trkpt><trkpt lat="44.76716099067622" lon="9.659168273356343"><ele>765.0</ele><time>2026-05-03T15:17:23.999Z</time></trkpt><trkpt lat="44.767106053510474" lon="9.659311342338432"><ele>765.0</ele><time>2026-05-03T15:17:24.999Z</time></trkpt><trkpt lat="44.76709627493038" lon="9.65948020650055"><ele>766.0</ele><time>2026-05-03T15:17:25.999Z</time></trkpt><trkpt lat="44.76712829583924" lon="9.659665421387945"><ele>767.0</ele><time>2026-05-03T15:17:26.999Z</time></trkpt><trkpt lat="44.767174312748594" lon="9.659845014737888"><ele>768.0</ele><time>2026-05-03T15:17:27.999Z</time></trkpt><trkpt lat="44.767208106530994" lon="9.660021310421183"><ele>769.0</ele><time>2026-05-03T15:17:28.999Z</time></trkpt><trkpt lat="44.76722882317071" lon="9.660205167942731"><ele>768.75</ele><time>2026-05-03T15:17:29.999Z</time></trkpt><trkpt lat="44.7672291353039" lon="9.660389113128753"><ele>768.5</ele><time>2026-05-03T15:17:30.999Z</time></trkpt><trkpt lat="44.76722727606782" lon="9.660555768276282"><ele>768.25</ele><time>2026-05-03T15:17:31.999Z</time></trkpt><trkpt lat="44.76720856737236" lon="9.660717273164783"><ele>768.0</ele><time>2026-05-03T15:17:32.999Z</time></trkpt><trkpt lat="44.767147895393926" lon="9.66085482226018"><ele>768.0</ele><time>2026-05-03T15:17:33.999Z</time></trkpt><trkpt lat="44.76704981263461" lon="9.660966965637984"><ele>768.0</ele><time>2026-05-03T15:17:34.999Z</time></trkpt><trkpt lat="44.76693306782683" lon="9.6610719561494"><ele>768.0</ele><time>2026-05-03T15:17:35.999Z</time></trkpt><trkpt lat="44.766822901304415" lon="9.661181892733756"><ele>768.0</ele><time>2026-05-03T15:17:36.999Z</time></trkpt><trkpt lat="44.76672836655047" lon="9.66128487409621"><ele>770.0</ele><time>2026-05-03T15:17:37.999Z</time></trkpt><trkpt lat="44.766651706745705" lon="9.661397796537743"><ele>772.0</ele><time>2026-05-03T15:17:38.999Z</time></trkpt><trkpt lat="44.7666133998599" lon="9.661543402105337"><ele>774.0</ele><time>2026-05-03T15:17:39.999Z</time></trkpt><trkpt lat="44.76659799653386" lon="9.661715788394527"><ele>776.0</ele><time>2026-05-03T15:17:40.999Z</time></trkpt><trkpt lat="44.76657321008703" lon="9.661885144432398"><ele>775.0</ele><time>2026-05-03T15:17:41.999Z</time></trkpt><trkpt lat="44.766498124726816" lon="9.662029790383691"><ele>774.0</ele><time>2026-05-03T15:17:42.999Z</time></trkpt><trkpt lat="44.76642160379459" lon="9.662183556968046"><ele>773.0</ele><time>2026-05-03T15:17:43.999Z</time></trkpt><trkpt lat="44.76636914855875" lon="9.662366125760375"><ele>772.0</ele><time>2026-05-03T15:17:44.999Z</time></trkpt><trkpt lat="44.766317757188475" lon="9.662545530429846"><ele>772.0</ele><time>2026-05-03T15:17:45.999Z</time></trkpt><trkpt lat="44.766260818677516" lon="9.662716274287376"><ele>772.0</ele><time>2026-05-03T15:17:46.999Z</time></trkpt><trkpt lat="44.766206887316905" lon="9.662877117028325"><ele>772.0</ele><time>2026-05-03T15:17:47.999Z</time></trkpt><trkpt lat="44.76616275097753" lon="9.663028669330044"><ele>772.0</ele><time>2026-05-03T15:17:48.999Z</time></trkpt><trkpt lat="44.76615012048346" lon="9.663191979694469"><ele>773.25</ele><time>2026-05-03T15:17:49.999Z</time></trkpt><trkpt lat="44.76617912628629" lon="9.663365321430655"><ele>774.5</ele><time>2026-05-03T15:17:50.999Z</time></trkpt><trkpt lat="44.766237944269314" lon="9.663542967862696"><ele>775.75</ele><time>2026-05-03T15:17:51.999Z</time></trkpt><trkpt lat="44.766312603048235" lon="9.66371023445693"><ele>777.0</ele><time>2026-05-03T15:17:52.999Z</time></trkpt><trkpt lat="44.76640019403886" lon="9.663861030023055"><ele>778.0</ele><time>2026-05-03T15:17:53.999Z</time></trkpt><trkpt lat="44.76649254369316" lon="9.664008449277267"><ele>779.0</ele><time>2026-05-03T15:17:54.999Z</time></trkpt><trkpt lat="44.766588298437924" lon="9.664157118905687"><ele>780.0</ele><time>2026-05-03T15:17:55.999Z</time></trkpt><trkpt lat="44.76667894782171" lon="9.664296677834852"><ele>781.0</ele><time>2026-05-03T15:17:56.999Z</time></trkpt><trkpt lat="44.76676218333927" lon="9.664429443593706"><ele>782.5</ele><time>2026-05-03T15:17:57.999Z</time></trkpt><trkpt lat="44.766826251384416" lon="9.664571860184344"><ele>784.0</ele><time>2026-05-03T15:17:58.999Z</time></trkpt><trkpt lat="44.766848759105365" lon="9.664724691847853"><ele>785.5</ele><time>2026-05-03T15:17:59.999Z</time></trkpt><trkpt lat="44.76683552505866" lon="9.664869133884151"><ele>787.0</ele><time>2026-05-03T15:18:00.999Z</time></trkpt><trkpt lat="44.76679583990984" lon="9.665030998397723"><ele>787.0</ele><time>2026-05-03T15:18:01.999Z</time></trkpt><trkpt lat="44.76677356492262" lon="9.665194451010517"><ele>787.0</ele><time>2026-05-03T15:18:02.999Z</time></trkpt><trkpt lat="44.766802261622644" lon="9.665358843784986"><ele>787.0</ele><time>2026-05-03T15:18:03.999Z</time></trkpt><trkpt lat="44.76685471131225" lon="9.665510897664209"><ele>787.0</ele><time>2026-05-03T15:18:04.999Z</time></trkpt><trkpt lat="44.76691522438876" lon="9.665623833664938"><ele>786.3333333333333</ele><time>2026-05-03T15:18:05.999Z</time></trkpt><trkpt lat="44.76696389548004" lon="9.665709461434918"><ele>785.6666666666666</ele><time>2026-05-03T15:18:06.999Z</time></trkpt><trkpt lat="44.76700854876758" lon="9.66579328855039"><ele>785.0</ele><time>2026-05-03T15:18:07.999Z</time></trkpt><trkpt lat="44.76705508002858" lon="9.665872467503243"><ele>784.3333333333333</ele><time>2026-05-03T15:18:08.999Z</time></trkpt><trkpt lat="44.76713038849241" lon="9.665958086651704"><ele>783.6666666666666</ele><time>2026-05-03T15:18:09.999Z</time></trkpt><trkpt lat="44.767226894586344" lon="9.666054600684388"><ele>783.0</ele><time>2026-05-03T15:18:10.998Z</time></trkpt><trkpt lat="44.767340098470875" lon="9.666172007713415"><ele>782.25</ele><time>2026-05-03T15:18:11.998Z</time></trkpt><trkpt lat="44.767453536393155" lon="9.66629646724258"><ele>781.5</ele><time>2026-05-03T15:18:12.998Z</time></trkpt><trkpt lat="44.767562128040765" lon="9.666427771542285"><ele>780.75</ele><time>2026-05-03T15:18:13.998Z</time></trkpt><trkpt lat="44.76765794110064" lon="9.666560849977788"><ele>780.0</ele><time>2026-05-03T15:18:14.998Z</time></trkpt><trkpt lat="44.7677551879792" lon="9.666680849737407"><ele>780.0</ele><time>2026-05-03T15:18:15.998Z</time></trkpt><trkpt lat="44.76787553999661" lon="9.666773208770577"><ele>780.0</ele><time>2026-05-03T15:18:16.998Z</time></trkpt><trkpt lat="44.768006879242805" lon="9.666823381831989"><ele>780.0</ele><time>2026-05-03T15:18:17.998Z</time></trkpt><trkpt lat="44.768152142087835" lon="9.66683467588646"><ele>780.0</ele><time>2026-05-03T15:18:18.998Z</time></trkpt><trkpt lat="44.76831407394263" lon="9.66681798670771"><ele>780.0</ele><time>2026-05-03T15:18:19.998Z</time></trkpt><trkpt lat="44.768468525411556" lon="9.666810113649959"><ele>780.0</ele><time>2026-05-03T15:18:20.998Z</time></trkpt><trkpt lat="44.768601483767924" lon="9.666866995674491"><ele>780.0</ele><time>2026-05-03T15:18:21.998Z</time></trkpt><trkpt lat="44.76871761924913" lon="9.666982873749337"><ele>780.0</ele><time>2026-05-03T15:18:22.998Z</time></trkpt><trkpt lat="44.76881374186224" lon="9.667156301113708"><ele>778.3333333333333</ele><time>2026-05-03T15:18:23.998Z</time></trkpt><trkpt lat="44.76889251514737" lon="9.667365978236552"><ele>776.6666666666666</ele><time>2026-05-03T15:18:24.998Z</time></trkpt><trkpt lat="44.76896209010953" lon="9.667560651806594"><ele>775.0</ele><time>2026-05-03T15:18:25.998Z</time></trkpt><trkpt lat="44.76902971660327" lon="9.667742332287332"><ele>773.6666666666666</ele><time>2026-05-03T15:18:26.998Z</time></trkpt><trkpt lat="44.76908850049094" lon="9.667935293038573"><ele>772.3333333333333</ele><time>2026-05-03T15:18:27.998Z</time></trkpt><trkpt lat="44.769129289595355" lon="9.66815121387927"><ele>771.0</ele><time>2026-05-03T15:18:28.998Z</time></trkpt><trkpt lat="44.76915321104123" lon="9.668369470773472"><ele>771.0</ele><time>2026-05-03T15:18:29.998Z</time></trkpt><trkpt lat="44.76914797812021" lon="9.668554324856634"><ele>771.0</ele><time>2026-05-03T15:18:30.998Z</time></trkpt><trkpt lat="44.76913940823839" lon="9.668711024632584"><ele>771.0</ele><time>2026-05-03T15:18:31.998Z</time></trkpt><trkpt lat="44.76914771702941" lon="9.668855459927617"><ele>771.0</ele><time>2026-05-03T15:18:32.998Z</time></trkpt><trkpt lat="44.76919420445143" lon="9.668986799704728"><ele>770.25</ele><time>2026-05-03T15:18:33.998Z</time></trkpt><trkpt lat="44.76928457214704" lon="9.669092769783067"><ele>769.5</ele><time>2026-05-03T15:18:34.998Z</time></trkpt><trkpt lat="44.769391955385565" lon="9.669196981773595"><ele>768.75</ele><time>2026-05-03T15:18:35.998Z</time></trkpt><trkpt lat="44.769529908008536" lon="9.669278502364909"><ele>768.0</ele><time>2026-05-03T15:18:37Z</time></trkpt><trkpt lat="44.76969816285114" lon="9.669320874873149"><ele>768.0</ele><time>2026-05-03T15:18:38Z</time></trkpt><trkpt lat="44.76985992602908" lon="9.669314554314209"><ele>768.0</ele><time>2026-05-03T15:18:39Z</time></trkpt><trkpt lat="44.77001448844604" lon="9.669325245435848"><ele>768.0</ele><time>2026-05-03T15:18:40Z</time></trkpt><trkpt lat="44.77015414081299" lon="9.669403709008066"><ele>765.0</ele><time>2026-05-03T15:18:41Z</time></trkpt><trkpt lat="44.7702708656699" lon="9.669525750376907"><ele>762.0</ele><time>2026-05-03T15:18:42Z</time></trkpt><trkpt lat="44.77039171181262" lon="9.669603111170181"><ele>759.0</ele><time>2026-05-03T15:18:43Z</time></trkpt><trkpt lat="44.77053510910822" lon="9.669633062922044"><ele>756.0</ele><time>2026-05-03T15:18:44Z</time></trkpt><trkpt lat="44.77069496172701" lon="9.669654988455239"><ele>756.0</ele><time>2026-05-03T15:18:45Z</time></trkpt><trkpt lat="44.770874588476005" lon="9.669664183218623"><ele>756.0</ele><time>2026-05-03T15:18:46Z</time></trkpt><trkpt lat="44.77104516025287" lon="9.669668693892117"><ele>756.0</ele><time>2026-05-03T15:18:47Z</time></trkpt><trkpt lat="44.771201359176416" lon="9.66967470255507"><ele>753.25</ele><time>2026-05-03T15:18:48Z</time></trkpt><trkpt lat="44.77133999070163" lon="9.669676180302512"><ele>750.5</ele><time>2026-05-03T15:18:49Z</time></trkpt><trkpt lat="44.771455325337584" lon="9.669665719311457"><ele>747.75</ele><time>2026-05-03T15:18:50Z</time></trkpt><trkpt lat="44.771563411713316" lon="9.669614528579629"><ele>745.0</ele><time>2026-05-03T15:18:51Z</time></trkpt><trkpt lat="44.77166714424742" lon="9.66950436749995"><ele>746.25</ele><time>2026-05-03T15:18:52Z</time></trkpt><trkpt lat="44.77177379332435" lon="9.66934618633901"><ele>747.5</ele><time>2026-05-03T15:18:53Z</time></trkpt><trkpt lat="44.77188126487501" lon="9.669240575889903"><ele>748.75</ele><time>2026-05-03T15:18:54Z</time></trkpt><trkpt lat="44.77201109836292" lon="9.669208204887003"><ele>750.0</ele><time>2026-05-03T15:18:55Z</time></trkpt><trkpt lat="44.77214919805444" lon="9.66924708563318"><ele>746.3333333333334</ele><time>2026-05-03T15:18:56Z</time></trkpt><trkpt lat="44.77230223901196" lon="9.66933666317252"><ele>742.6666666666667</ele><time>2026-05-03T15:18:57Z</time></trkpt><trkpt lat="44.772455943772975" lon="9.669434095307304"><ele>739.0</ele><time>2026-05-03T15:18:58Z</time></trkpt><trkpt lat="44.77260535362762" lon="9.669517012621956"><ele>738.25</ele><time>2026-05-03T15:18:59Z</time></trkpt><trkpt lat="44.77274648756117" lon="9.669594812621053"><ele>737.5</ele><time>2026-05-03T15:19:00Z</time></trkpt><trkpt lat="44.7728737307396" lon="9.669688695510262"><ele>736.75</ele><time>2026-05-03T15:19:01Z</time></trkpt><trkpt lat="44.77298656307173" lon="9.669797194248455"><ele>736.0</ele><time>2026-05-03T15:19:02Z</time></trkpt><trkpt lat="44.77311447726521" lon="9.669885085460065"><ele>736.0</ele><time>2026-05-03T15:19:03Z</time></trkpt><trkpt lat="44.773251945688735" lon="9.669928119084805"><ele>736.0</ele><time>2026-05-03T15:19:04Z</time></trkpt><trkpt lat="44.773369349233796" lon="9.669958608466999"><ele>736.0</ele><time>2026-05-03T15:19:05Z</time></trkpt><trkpt lat="44.773483011548095" lon="9.669993555932455"><ele>736.0</ele><time>2026-05-03T15:19:06Z</time></trkpt><trkpt lat="44.77359339104278" lon="9.670037221754285"><ele>735.0</ele><time>2026-05-03T15:19:07Z</time></trkpt><trkpt lat="44.77369030013103" lon="9.67009655471793"><ele>734.0</ele><time>2026-05-03T15:19:08Z</time></trkpt><trkpt lat="44.773771269368105" lon="9.670169751022515"><ele>733.0</ele><time>2026-05-03T15:19:09Z</time></trkpt><trkpt lat="44.77382789905963" lon="9.670226126861866"><ele>732.0</ele><time>2026-05-03T15:19:10Z</time></trkpt><trkpt lat="44.773920330743245" lon="9.670237199727074"><ele>731.0</ele><time>2026-05-03T15:19:12Z</time></trkpt><trkpt lat="44.77402183358782" lon="9.67018370323126"><ele>731.0</ele><time>2026-05-03T15:19:14Z</time></trkpt><trkpt lat="44.774091957257475" lon="9.670213446606327"><ele>731.0</ele><time>2026-05-03T15:19:15Z</time></trkpt><trkpt lat="44.774185019706266" lon="9.670261337290558"><ele>731.0</ele><time>2026-05-03T15:19:16Z</time></trkpt><trkpt lat="44.77427025227363" lon="9.670297376506225"><ele>731.0</ele><time>2026-05-03T15:19:17Z</time></trkpt><trkpt lat="44.774348739990806" lon="9.670329357034154"><ele>731.0</ele><time>2026-05-03T15:19:18Z</time></trkpt><trkpt lat="44.77441793410226" lon="9.670375792096724"><ele>731.0</ele><time>2026-05-03T15:19:19Z</time></trkpt><trkpt lat="44.7744855708989" lon="9.670443917198245"><ele>729.4</ele><time>2026-05-03T15:19:19.999Z</time></trkpt><trkpt lat="44.77455711584644" lon="9.670514187638549"><ele>727.8</ele><time>2026-05-03T15:19:20.999Z</time></trkpt><trkpt lat="44.77464172066668" lon="9.670586029794505"><ele>726.1999999999999</ele><time>2026-05-03T15:19:21.999Z</time></trkpt><trkpt lat="44.774727665627886" lon="9.670665225976654"><ele>724.5999999999999</ele><time>2026-05-03T15:19:22.999Z</time></trkpt><trkpt lat="44.77481007494524" lon="9.670741450165504"><ele>723.0</ele><time>2026-05-03T15:19:23.999Z</time></trkpt><trkpt lat="44.774889203925575" lon="9.670815418648512"><ele>723.0</ele><time>2026-05-03T15:19:24.999Z</time></trkpt><trkpt lat="44.774964289681016" lon="9.670892740311354"><ele>723.0</ele><time>2026-05-03T15:19:25.999Z</time></trkpt><trkpt lat="44.775038135461564" lon="9.670970914279101"><ele>723.0</ele><time>2026-05-03T15:19:26.999Z</time></trkpt><trkpt lat="44.775104237807945" lon="9.671038853417146"><ele>723.0</ele><time>2026-05-03T15:19:27.999Z</time></trkpt><trkpt lat="44.77518174422757" lon="9.671144714764122"><ele>723.0</ele><time>2026-05-03T15:19:29.999Z</time></trkpt><trkpt lat="44.77520790112318" lon="9.671290597375437"><ele>722.0</ele><time>2026-05-03T15:19:31.999Z</time></trkpt><trkpt lat="44.77523872248962" lon="9.67139048341055"><ele>721.0</ele><time>2026-05-03T15:19:32.999Z</time></trkpt><trkpt lat="44.77529528867604" lon="9.671505909338954"><ele>720.0</ele><time>2026-05-03T15:19:33.999Z</time></trkpt><trkpt lat="44.77536498414883" lon="9.671630714799786"><ele>719.0</ele><time>2026-05-03T15:19:34.999Z</time></trkpt><trkpt lat="44.77544560772856" lon="9.671751397136937"><ele>718.0</ele><time>2026-05-03T15:19:35.999Z</time></trkpt><trkpt lat="44.775538996962005" lon="9.671869106428753"><ele>717.0</ele><time>2026-05-03T15:19:36.999Z</time></trkpt><trkpt lat="44.77563575941476" lon="9.671989475724112"><ele>716.0</ele><time>2026-05-03T15:19:37.999Z</time></trkpt><trkpt lat="44.77574735803363" lon="9.67211769815294"><ele>715.0</ele><time>2026-05-03T15:19:38.999Z</time></trkpt><trkpt lat="44.77585518526622" lon="9.67224685125891"><ele>714.0</ele><time>2026-05-03T15:19:39.999Z</time></trkpt><trkpt lat="44.77595849539832" lon="9.672373123051269"><ele>712.5</ele><time>2026-05-03T15:19:40.999Z</time></trkpt><trkpt lat="44.77604985510971" lon="9.672499533707922"><ele>711.0</ele><time>2026-05-03T15:19:41.999Z</time></trkpt><trkpt lat="44.7761375828654" lon="9.672626991481835"><ele>709.5</ele><time>2026-05-03T15:19:42.999Z</time></trkpt><trkpt lat="44.77622014879175" lon="9.672749334102482"><ele>708.0</ele><time>2026-05-03T15:19:43.999Z</time></trkpt><trkpt lat="44.7762913855098" lon="9.672878564635392"><ele>707.75</ele><time>2026-05-03T15:19:44.999Z</time></trkpt><trkpt lat="44.776356431857174" lon="9.67300945592231"><ele>707.5</ele><time>2026-05-03T15:19:45.999Z</time></trkpt><trkpt lat="44.776425821759176" lon="9.67314181453788"><ele>707.25</ele><time>2026-05-03T15:19:46.999Z</time></trkpt><trkpt lat="44.77650272490714" lon="9.673274761937938"><ele>707.0</ele><time>2026-05-03T15:19:47.999Z</time></trkpt><trkpt lat="44.77658759945751" lon="9.67341240234574"><ele>707.0</ele><time>2026-05-03T15:19:48.999Z</time></trkpt><trkpt lat="44.77666802175248" lon="9.673540523745608"><ele>707.0</ele><time>2026-05-03T15:19:49.999Z</time></trkpt><trkpt lat="44.77672960430722" lon="9.673639916709595"><ele>707.0</ele><time>2026-05-03T15:19:50.999Z</time></trkpt><trkpt lat="44.77677961778739" lon="9.673716558628866"><ele>707.0</ele><time>2026-05-03T15:19:51.999Z</time></trkpt><trkpt lat="44.776833317313674" lon="9.673764741558061"><ele>707.0</ele><time>2026-05-03T15:19:52.999Z</time></trkpt><trkpt lat="44.77690904828059" lon="9.673798211069236"><ele>707.0</ele><time>2026-05-03T15:19:53.999Z</time></trkpt><trkpt lat="44.776989128699014" lon="9.67384607379473"><ele>707.0</ele><time>2026-05-03T15:19:54.999Z</time></trkpt><trkpt lat="44.777076887292175" lon="9.6739259136616"><ele>707.0</ele><time>2026-05-03T15:19:55.999Z</time></trkpt><trkpt lat="44.777174254426704" lon="9.674015082721583"><ele>707.0</ele><time>2026-05-03T15:19:56.999Z</time></trkpt><trkpt lat="44.777267456353165" lon="9.674094818361414"><ele>707.0</ele><time>2026-05-03T15:19:57.999Z</time></trkpt><trkpt lat="44.77737339705425" lon="9.674170710836108"><ele>707.0</ele><time>2026-05-03T15:19:58.999Z</time></trkpt><trkpt lat="44.77748359269711" lon="9.674240442690868"><ele>707.0</ele><time>2026-05-03T15:19:59.999Z</time></trkpt><trkpt lat="44.77759076409227" lon="9.674314356295115"><ele>707.0</ele><time>2026-05-03T15:20:00.999Z</time></trkpt><trkpt lat="44.77769096444508" lon="9.674393046278398"><ele>707.0</ele><time>2026-05-03T15:20:01.999Z</time></trkpt><trkpt lat="44.777783589615424" lon="9.67446938750706"><ele>707.0</ele><time>2026-05-03T15:20:02.999Z</time></trkpt><trkpt lat="44.77787414156952" lon="9.674543612869769"><ele>707.0</ele><time>2026-05-03T15:20:03.999Z</time></trkpt><trkpt lat="44.77796826038305" lon="9.674627210257295"><ele>707.8</ele><time>2026-05-03T15:20:04.999Z</time></trkpt><trkpt lat="44.7780553540151" lon="9.674719843343768"><ele>708.6</ele><time>2026-05-03T15:20:05.999Z</time></trkpt><trkpt lat="44.77812585917343" lon="9.674824760092674"><ele>709.4</ele><time>2026-05-03T15:20:06.999Z</time></trkpt><trkpt lat="44.77818917862002" lon="9.674918948127592"><ele>710.1999999999999</ele><time>2026-05-03T15:20:07.999Z</time></trkpt><trkpt lat="44.778258398023794" lon="9.675002642344142"><ele>711.0</ele><time>2026-05-03T15:20:08.999Z</time></trkpt><trkpt lat="44.77834607645438" lon="9.67507058308444"><ele>711.0</ele><time>2026-05-03T15:20:09.999Z</time></trkpt><trkpt lat="44.77844616165305" lon="9.675133459166057"><ele>711.0</ele><time>2026-05-03T15:20:10.999Z</time></trkpt><trkpt lat="44.77854731171473" lon="9.67520347755982"><ele>711.0</ele><time>2026-05-03T15:20:11.999Z</time></trkpt><trkpt lat="44.77863802614721" lon="9.675264754886046"><ele>711.0</ele><time>2026-05-03T15:20:12.999Z</time></trkpt><trkpt lat="44.77870657684188" lon="9.675328535577124"><ele>711.0</ele><time>2026-05-03T15:20:13.999Z</time></trkpt><trkpt lat="44.77874420620052" lon="9.675417091285869"><ele>710.5</ele><time>2026-05-03T15:20:14.999Z</time></trkpt><trkpt lat="44.77877212983002" lon="9.675517431981053"><ele>710.0</ele><time>2026-05-03T15:20:15.999Z</time></trkpt><trkpt lat="44.77880520040343" lon="9.675618731625221"><ele>709.5</ele><time>2026-05-03T15:20:16.999Z</time></trkpt><trkpt lat="44.77885114370946" lon="9.675688453712802"><ele>709.0</ele><time>2026-05-03T15:20:17.999Z</time></trkpt><trkpt lat="44.77889482118292" lon="9.675766967288082"><ele>708.5</ele><time>2026-05-03T15:20:18.998Z</time></trkpt><trkpt lat="44.77897340066247" lon="9.675831090698722"><ele>708.0</ele><time>2026-05-03T15:20:19.998Z</time></trkpt><trkpt lat="44.7790605796224" lon="9.675907433326122"><ele>708.0</ele><time>2026-05-03T15:20:20.998Z</time></trkpt><trkpt lat="44.77913343839708" lon="9.676013561012375"><ele>708.0</ele><time>2026-05-03T15:20:21.998Z</time></trkpt><trkpt lat="44.779191781657964" lon="9.676133738684793"><ele>708.0</ele><time>2026-05-03T15:20:22.998Z</time></trkpt><trkpt lat="44.77926468925743" lon="9.67623187943478"><ele>708.0</ele><time>2026-05-03T15:20:23.998Z</time></trkpt><trkpt lat="44.77934014988856" lon="9.6762860809217"><ele>708.0</ele><time>2026-05-03T15:20:24.998Z</time></trkpt><trkpt lat="44.779408677738886" lon="9.676318267260976"><ele>707.6666666666666</ele><time>2026-05-03T15:20:25.998Z</time></trkpt><trkpt lat="44.77947266461689" lon="9.676345703891394"><ele>707.3333333333334</ele><time>2026-05-03T15:20:26.998Z</time></trkpt><trkpt lat="44.77954372824184" lon="9.676360596081027"><ele>707.0</ele><time>2026-05-03T15:20:27.998Z</time></trkpt><trkpt lat="44.77962436162538" lon="9.676367301693402"><ele>706.6666666666667</ele><time>2026-05-03T15:20:28.998Z</time></trkpt><trkpt lat="44.77970747166818" lon="9.676393620559407"><ele>706.3333333333334</ele><time>2026-05-03T15:20:29.998Z</time></trkpt><trkpt lat="44.77980412642322" lon="9.676432034768931"><ele>706.0</ele><time>2026-05-03T15:20:30.998Z</time></trkpt><trkpt lat="44.77991603154375" lon="9.676467539138613"><ele>706.0</ele><time>2026-05-03T15:20:31.998Z</time></trkpt><trkpt lat="44.780021567446" lon="9.676499528728906"><ele>706.0</ele><time>2026-05-03T15:20:32.998Z</time></trkpt><trkpt lat="44.7801093290798" lon="9.67654900682342"><ele>706.0</ele><time>2026-05-03T15:20:33.998Z</time></trkpt><trkpt lat="44.78018116040322" lon="9.676612609049787"><ele>706.0</ele><time>2026-05-03T15:20:34.998Z</time></trkpt><trkpt lat="44.78024336863241" lon="9.676678888632733"><ele>706.0</ele><time>2026-05-03T15:20:35.998Z</time></trkpt><trkpt lat="44.780298019632255" lon="9.676723271736847"><ele>706.0</ele><time>2026-05-03T15:20:36.998Z</time></trkpt><trkpt lat="44.78039674029108" lon="9.676802017673221"><ele>706.7142857142857</ele><time>2026-05-03T15:20:38.998Z</time></trkpt><trkpt lat="44.78044211267207" lon="9.67687496640767"><ele>707.4285714285714</ele><time>2026-05-03T15:20:39.998Z</time></trkpt><trkpt lat="44.780506001332654" lon="9.676910628225475"><ele>708.1428571428571</ele><time>2026-05-03T15:20:41.998Z</time></trkpt><trkpt lat="44.78058782817191" lon="9.676908388339251"><ele>708.8571428571429</ele><time>2026-05-03T15:20:44Z</time></trkpt><trkpt lat="44.78062535335175" lon="9.676990352524403"><ele>709.5714285714286</ele><time>2026-05-03T15:20:45Z</time></trkpt><trkpt lat="44.78068278382684" lon="9.677054483356718"><ele>710.2857142857143</ele><time>2026-05-03T15:20:46Z</time></trkpt><trkpt lat="44.78073844698388" lon="9.677115152425282"><ele>711.0</ele><time>2026-05-03T15:20:47Z</time></trkpt><trkpt lat="44.78075297982446" lon="9.677230684889139"><ele>711.0</ele><time>2026-05-03T15:20:49Z</time></trkpt><trkpt lat="44.78081386235829" lon="9.677304225863645"><ele>711.0</ele><time>2026-05-03T15:20:53Z</time></trkpt><trkpt lat="44.7808882782144" lon="9.677361306565247"><ele>711.0</ele><time>2026-05-03T15:20:57Z</time></trkpt><trkpt lat="44.78094165382649" lon="9.677415757335943"><ele>711.0</ele><time>2026-05-03T15:20:59Z</time></trkpt><trkpt lat="44.781010358650825" lon="9.677522700654364"><ele>711.0</ele><time>2026-05-03T15:21:01Z</time></trkpt><trkpt lat="44.78106616073147" lon="9.67757105984716"><ele>711.0</ele><time>2026-05-03T15:21:03Z</time></trkpt><trkpt lat="44.781144337696055" lon="9.67772869059298"><ele>710.5</ele><time>2026-05-03T15:21:05Z</time></trkpt><trkpt lat="44.781175947396434" lon="9.677822337513403"><ele>710.0</ele><time>2026-05-03T15:21:06Z</time></trkpt><trkpt lat="44.7812103770083" lon="9.67792484394043"><ele>709.5</ele><time>2026-05-03T15:21:07Z</time></trkpt><trkpt lat="44.78128086279309" lon="9.67798231998227"><ele>709.0</ele><time>2026-05-03T15:21:08Z</time></trkpt><trkpt lat="44.78133104087324" lon="9.678051275853791"><ele>708.5</ele><time>2026-05-03T15:21:09Z</time></trkpt><trkpt lat="44.781325672281554" lon="9.67815870487743"><ele>708.0</ele><time>2026-05-03T15:21:11Z</time></trkpt><trkpt lat="44.781361054861364" lon="9.678253783970387"><ele>708.0</ele><time>2026-05-03T15:21:13Z</time></trkpt><trkpt lat="44.78149168464249" lon="9.678450943504595"><ele>708.0</ele><time>2026-05-03T15:21:17Z</time></trkpt><trkpt lat="44.78158085143132" lon="9.678518440148089"><ele>708.0</ele><time>2026-05-03T15:21:19Z</time></trkpt><trkpt lat="44.78164579766773" lon="9.678676932095147"><ele>708.0</ele><time>2026-05-03T15:21:28.999Z</time></trkpt><trkpt lat="44.781702821365755" lon="9.67880586519151"><ele>708.2</ele><time>2026-05-03T15:21:29.999Z</time></trkpt><trkpt lat="44.781750727379965" lon="9.67892542398442"><ele>708.4</ele><time>2026-05-03T15:21:30.999Z</time></trkpt><trkpt lat="44.781792161694575" lon="9.679029574025524"><ele>708.6</ele><time>2026-05-03T15:21:31.999Z</time></trkpt><trkpt lat="44.78177289719788" lon="9.679162742225383"><ele>708.8000000000001</ele><time>2026-05-03T15:21:32.999Z</time></trkpt><trkpt lat="44.78183340527645" lon="9.679281333420384"><ele>709.0</ele><time>2026-05-03T15:21:34.999Z</time></trkpt><trkpt lat="44.78196012786069" lon="9.679383163044157"><ele>705.4000000000001</ele><time>2026-05-03T15:21:36.999Z</time></trkpt><trkpt lat="44.782022088118026" lon="9.679472016684603"><ele>701.8</ele><time>2026-05-03T15:21:37.999Z</time></trkpt><trkpt lat="44.78212141670059" lon="9.679584008716011"><ele>698.2</ele><time>2026-05-03T15:21:39.999Z</time></trkpt><trkpt lat="44.78220996961991" lon="9.679690315562413"><ele>694.5999999999999</ele><time>2026-05-03T15:21:41.999Z</time></trkpt><trkpt lat="44.78226793360808" lon="9.679823539181024"><ele>691.0</ele><time>2026-05-03T15:21:43.999Z</time></trkpt><trkpt lat="44.78233533782893" lon="9.679962279614355"><ele>691.0</ele><time>2026-05-03T15:21:45.999Z</time></trkpt><trkpt lat="44.78241854440322" lon="9.680108616794378"><ele>691.0</ele><time>2026-05-03T15:21:47.999Z</time></trkpt><trkpt lat="44.78248264600222" lon="9.680182810112722"><ele>691.0</ele><time>2026-05-03T15:21:48.999Z</time></trkpt><trkpt lat="44.782536846304104" lon="9.680269521223236"><ele>691.0</ele><time>2026-05-03T15:21:49.999Z</time></trkpt><trkpt lat="44.78258790277264" lon="9.680363156380693"><ele>691.0</ele><time>2026-05-03T15:21:50.999Z</time></trkpt><trkpt lat="44.78262485652693" lon="9.680452551713103"><ele>689.1666666666667</ele><time>2026-05-03T15:21:51.999Z</time></trkpt><trkpt lat="44.78266204161251" lon="9.680606172020948"><ele>687.3333333333334</ele><time>2026-05-03T15:21:53.999Z</time></trkpt><trkpt lat="44.78267469299631" lon="9.68069790164915"><ele>685.5</ele><time>2026-05-03T15:21:54.999Z</time></trkpt><trkpt lat="44.78268398442811" lon="9.680791829888813"><ele>683.6666666666666</ele><time>2026-05-03T15:21:55.999Z</time></trkpt><trkpt lat="44.78264772031373" lon="9.68089384106221"><ele>681.8333333333333</ele><time>2026-05-03T15:21:57.999Z</time></trkpt><trkpt lat="44.78256285065016" lon="9.680944877500997"><ele>680.0</ele><time>2026-05-03T15:21:59.999Z</time></trkpt><trkpt lat="44.782697805833145" lon="9.681157326209348"><ele>675.0</ele><time>2026-05-03T15:22:03.999Z</time></trkpt><trkpt lat="44.78280186893713" lon="9.681236595929679"><ele>670.0</ele><time>2026-05-03T15:22:05.999Z</time></trkpt><trkpt lat="44.78292283242916" lon="9.681304293001018"><ele>665.0</ele><time>2026-05-03T15:22:07.999Z</time></trkpt><trkpt lat="44.78296642709297" lon="9.681452329158574"><ele>660.0</ele><time>2026-05-03T15:22:09.999Z</time></trkpt><trkpt lat="44.7830009433529" lon="9.681601430655661"><ele>660.0</ele><time>2026-05-03T15:22:11.999Z</time></trkpt><trkpt lat="44.783111903739446" lon="9.681680612968778"><ele>660.0</ele><time>2026-05-03T15:22:13.999Z</time></trkpt><trkpt lat="44.78318028101765" lon="9.681789848902035"><ele>660.0</ele><time>2026-05-03T15:22:14.999Z</time></trkpt><trkpt lat="44.783247747175466" lon="9.681959273568534"><ele>660.0</ele><time>2026-05-03T15:22:15.999Z</time></trkpt><trkpt lat="44.78331850542754" lon="9.682042266891765"><ele>659.0</ele><time>2026-05-03T15:22:16.999Z</time></trkpt><trkpt lat="44.78338637037298" lon="9.68210329315667"><ele>658.0</ele><time>2026-05-03T15:22:17.999Z</time></trkpt><trkpt lat="44.78346014419488" lon="9.682174981325533"><ele>657.0</ele><time>2026-05-03T15:22:18.999Z</time></trkpt><trkpt lat="44.78354791211732" lon="9.682221631911283"><ele>656.0</ele><time>2026-05-03T15:22:19.999Z</time></trkpt><trkpt lat="44.78361884344931" lon="9.682284494512063"><ele>655.0</ele><time>2026-05-03T15:22:20.999Z</time></trkpt><trkpt lat="44.78369435467014" lon="9.68235803991087"><ele>654.0</ele><time>2026-05-03T15:22:21.999Z</time></trkpt><trkpt lat="44.78375596298107" lon="9.682389132201"><ele>652.2</ele><time>2026-05-03T15:22:22.999Z</time></trkpt><trkpt lat="44.78382488895351" lon="9.682447192564373"><ele>650.4000000000001</ele><time>2026-05-03T15:22:23.999Z</time></trkpt><trkpt lat="44.78388661452408" lon="9.682495709945375"><ele>648.6</ele><time>2026-05-03T15:22:24.999Z</time></trkpt><trkpt lat="44.783948358460044" lon="9.682575111891122"><ele>646.8</ele><time>2026-05-03T15:22:26.998Z</time></trkpt><trkpt lat="44.78407238886921" lon="9.682634909491016"><ele>645.0</ele><time>2026-05-03T15:22:28.998Z</time></trkpt><trkpt lat="44.78416392755386" lon="9.682659469219892"><ele>645.0</ele><time>2026-05-03T15:22:29.998Z</time></trkpt><trkpt lat="44.78426169447982" lon="9.682700571664052"><ele>645.0</ele><time>2026-05-03T15:22:30.998Z</time></trkpt><trkpt lat="44.7843626282072" lon="9.682788598856563"><ele>645.0</ele><time>2026-05-03T15:22:31.998Z</time></trkpt><trkpt lat="44.78446095399284" lon="9.682905867841246"><ele>645.0</ele><time>2026-05-03T15:22:32.998Z</time></trkpt><trkpt lat="44.784557022866764" lon="9.683032626077969"><ele>642.5</ele><time>2026-05-03T15:22:33.998Z</time></trkpt><trkpt lat="44.78465433661507" lon="9.68314593285539"><ele>640.0</ele><time>2026-05-03T15:22:34.998Z</time></trkpt><trkpt lat="44.78474670715272" lon="9.683260315479416"><ele>637.5</ele><time>2026-05-03T15:22:35.998Z</time></trkpt><trkpt lat="44.7848380526074" lon="9.68336966093204"><ele>635.0</ele><time>2026-05-03T15:22:36.998Z</time></trkpt><trkpt lat="44.784922156280636" lon="9.683486745488864"><ele>635.0</ele><time>2026-05-03T15:22:37.998Z</time></trkpt><trkpt lat="44.78500065554133" lon="9.683608358492043"><ele>635.0</ele><time>2026-05-03T15:22:38.998Z</time></trkpt><trkpt lat="44.785073544843534" lon="9.683743043836158"><ele>635.0</ele><time>2026-05-03T15:22:39.998Z</time></trkpt><trkpt lat="44.7851310004034" lon="9.683874536118198"><ele>635.0</ele><time>2026-05-03T15:22:40.998Z</time></trkpt><trkpt lat="44.78518123688108" lon="9.684015466892305"><ele>632.75</ele><time>2026-05-03T15:22:41.998Z</time></trkpt><trkpt lat="44.78523180578219" lon="9.684169993548428"><ele>630.5</ele><time>2026-05-03T15:22:42.998Z</time></trkpt><trkpt lat="44.7852910447037" lon="9.684340258072057"><ele>628.25</ele><time>2026-05-03T15:22:43.998Z</time></trkpt><trkpt lat="44.78535350316669" lon="9.684503165810925"><ele>626.0</ele><time>2026-05-03T15:22:44.998Z</time></trkpt><trkpt lat="44.785416069198895" lon="9.684652066540883"><ele>626.0</ele><time>2026-05-03T15:22:45.998Z</time></trkpt><trkpt lat="44.78547936769324" lon="9.684802164057595"><ele>626.0</ele><time>2026-05-03T15:22:46.998Z</time></trkpt><trkpt lat="44.785532504223866" lon="9.684965291532706"><ele>626.0</ele><time>2026-05-03T15:22:47.998Z</time></trkpt><trkpt lat="44.78558053003262" lon="9.685143603180133"><ele>626.0</ele><time>2026-05-03T15:22:49Z</time></trkpt><trkpt lat="44.7856396127657" lon="9.685308468344337"><ele>625.5</ele><time>2026-05-03T15:22:50Z</time></trkpt><trkpt lat="44.78571873396483" lon="9.685452582083785"><ele>625.0</ele><time>2026-05-03T15:22:51Z</time></trkpt><trkpt lat="44.785821753541065" lon="9.685569007646862"><ele>624.5</ele><time>2026-05-03T15:22:52Z</time></trkpt><trkpt lat="44.78594979928965" lon="9.685657741467175"><ele>624.0</ele><time>2026-05-03T15:22:53Z</time></trkpt><trkpt lat="44.786081493698354" lon="9.68572677157606"><ele>624.0</ele><time>2026-05-03T15:22:54Z</time></trkpt><trkpt lat="44.78620062689971" lon="9.6857825603475"><ele>624.0</ele><time>2026-05-03T15:22:55Z</time></trkpt><trkpt lat="44.78629163025162" lon="9.685829250691103"><ele>624.0</ele><time>2026-05-03T15:22:56Z</time></trkpt><trkpt lat="44.78636754502405" lon="9.685873823130196"><ele>624.0</ele><time>2026-05-03T15:22:57Z</time></trkpt><trkpt lat="44.786434899816754" lon="9.685886579193689"><ele>624.0</ele><time>2026-05-03T15:22:58Z</time></trkpt><trkpt lat="44.786513706334254" lon="9.685914348344648"><ele>624.0</ele><time>2026-05-03T15:22:59Z</time></trkpt><trkpt lat="44.786596529163425" lon="9.685950553133459"><ele>624.0</ele><time>2026-05-03T15:23:00Z</time></trkpt><trkpt lat="44.78667585303894" lon="9.686009293325148"><ele>624.0</ele><time>2026-05-03T15:23:01Z</time></trkpt><trkpt lat="44.786756329573954" lon="9.686081931276735"><ele>624.0</ele><time>2026-05-03T15:23:02Z</time></trkpt><trkpt lat="44.78682462914016" lon="9.686147893085971"><ele>624.0</ele><time>2026-05-03T15:23:03Z</time></trkpt><trkpt lat="44.7868944686675" lon="9.686217824703862"><ele>624.0</ele><time>2026-05-03T15:23:04Z</time></trkpt><trkpt lat="44.786943483196275" lon="9.686294922625335"><ele>627.5</ele><time>2026-05-03T15:23:05Z</time></trkpt><trkpt lat="44.78698587044638" lon="9.686366098625458"><ele>631.0</ele><time>2026-05-03T15:23:06Z</time></trkpt><trkpt lat="44.78702229707764" lon="9.686455222149126"><ele>634.5</ele><time>2026-05-03T15:23:07Z</time></trkpt><trkpt lat="44.78706506424356" lon="9.686561029377891"><ele>638.0</ele><time>2026-05-03T15:23:08Z</time></trkpt><trkpt lat="44.787116989157916" lon="9.686669589925476"><ele>641.5</ele><time>2026-05-03T15:23:09Z</time></trkpt><trkpt lat="44.787174064416064" lon="9.686764090312835"><ele>645.0</ele><time>2026-05-03T15:23:10Z</time></trkpt><trkpt lat="44.78722533114139" lon="9.686849439026462"><ele>644.3333333333334</ele><time>2026-05-03T15:23:11Z</time></trkpt><trkpt lat="44.787250927395625" lon="9.686941051072143"><ele>643.6666666666666</ele><time>2026-05-03T15:23:12Z</time></trkpt><trkpt lat="44.787262679822746" lon="9.687054318701321"><ele>643.0</ele><time>2026-05-03T15:23:13Z</time></trkpt><trkpt lat="44.78729400633454" lon="9.687152073183935"><ele>642.3333333333333</ele><time>2026-05-03T15:23:14Z</time></trkpt><trkpt lat="44.78734292195706" lon="9.687232582374044"><ele>641.6666666666666</ele><time>2026-05-03T15:23:15Z</time></trkpt><trkpt lat="44.78740266383438" lon="9.687307203761433"><ele>641.0</ele><time>2026-05-03T15:23:16Z</time></trkpt><trkpt lat="44.787466634268135" lon="9.687374433770383"><ele>641.0</ele><time>2026-05-03T15:23:17Z</time></trkpt><trkpt lat="44.78751936266076" lon="9.687443595017239"><ele>641.0</ele><time>2026-05-03T15:23:18Z</time></trkpt><trkpt lat="44.7875661288466" lon="9.687517839725766"><ele>641.0</ele><time>2026-05-03T15:23:19Z</time></trkpt><trkpt lat="44.78763820358409" lon="9.687573830578334"><ele>641.0</ele><time>2026-05-03T15:23:20Z</time></trkpt><trkpt lat="44.7877346567421" lon="9.687599077729933"><ele>641.0</ele><time>2026-05-03T15:23:21Z</time></trkpt><trkpt lat="44.78781736725865" lon="9.687633444416239"><ele>641.0</ele><time>2026-05-03T15:23:22Z</time></trkpt><trkpt lat="44.787897297799745" lon="9.687764058980568"><ele>642.4</ele><time>2026-05-03T15:23:24Z</time></trkpt><trkpt lat="44.78795110037002" lon="9.68783482308324"><ele>643.8</ele><time>2026-05-03T15:23:25Z</time></trkpt><trkpt lat="44.78802282917084" lon="9.687886750230014"><ele>645.1999999999999</ele><time>2026-05-03T15:23:26Z</time></trkpt><trkpt lat="44.7881235562807" lon="9.687929092000228"><ele>646.5999999999999</ele><time>2026-05-03T15:23:27Z</time></trkpt><trkpt lat="44.7882262971608" lon="9.687995399526761"><ele>648.0</ele><time>2026-05-03T15:23:28Z</time></trkpt><trkpt lat="44.78831190262859" lon="9.688062773009811"><ele>648.0</ele><time>2026-05-03T15:23:29Z</time></trkpt><trkpt lat="44.78838918101081" lon="9.688142654297954"><ele>648.0</ele><time>2026-05-03T15:23:30Z</time></trkpt><trkpt lat="44.78845441648167" lon="9.68823708083498"><ele>648.0</ele><time>2026-05-03T15:23:31Z</time></trkpt><trkpt lat="44.78852077020179" lon="9.688317747418184"><ele>648.0</ele><time>2026-05-03T15:23:32Z</time></trkpt><trkpt lat="44.78858367090098" lon="9.6883949635124"><ele>648.0</ele><time>2026-05-03T15:23:33Z</time></trkpt><trkpt lat="44.78863810759636" lon="9.688478323592758"><ele>648.0</ele><time>2026-05-03T15:23:33.999Z</time></trkpt><trkpt lat="44.788692996739805" lon="9.688530363311292"><ele>646.75</ele><time>2026-05-03T15:23:34.999Z</time></trkpt><trkpt lat="44.78877113156135" lon="9.688558446637614"><ele>645.5</ele><time>2026-05-03T15:23:35.999Z</time></trkpt><trkpt lat="44.78888676597249" lon="9.688606752065546"><ele>644.25</ele><time>2026-05-03T15:23:36.999Z</time></trkpt><trkpt lat="44.78900829305421" lon="9.68869325798422"><ele>643.0</ele><time>2026-05-03T15:23:37.999Z</time></trkpt><trkpt lat="44.789117976059124" lon="9.688775539702771"><ele>643.0</ele><time>2026-05-03T15:23:38.999Z</time></trkpt><trkpt lat="44.789210536930376" lon="9.688851749959406"><ele>643.0</ele><time>2026-05-03T15:23:39.999Z</time></trkpt><trkpt lat="44.789269655450894" lon="9.688924375279147"><ele>643.0</ele><time>2026-05-03T15:23:40.999Z</time></trkpt><trkpt lat="44.789344285052294" lon="9.688972672652534"><ele>643.0</ele><time>2026-05-03T15:23:41.999Z</time></trkpt><trkpt lat="44.78943024086706" lon="9.689011949288126"><ele>643.0</ele><time>2026-05-03T15:23:42.999Z</time></trkpt><trkpt lat="44.789493513254584" lon="9.689048410492209"><ele>643.0</ele><time>2026-05-03T15:23:43.999Z</time></trkpt><trkpt lat="44.789575056109456" lon="9.689127299034242"><ele>644.4</ele><time>2026-05-03T15:23:45.999Z</time></trkpt><trkpt lat="44.78969395246025" lon="9.689177736475893"><ele>645.8</ele><time>2026-05-03T15:23:47.999Z</time></trkpt><trkpt lat="44.78976464882087" lon="9.689226446767702"><ele>647.2</ele><time>2026-05-03T15:23:48.999Z</time></trkpt><trkpt lat="44.7898603296567" lon="9.689287532959293"><ele>648.6</ele><time>2026-05-03T15:23:49.999Z</time></trkpt><trkpt lat="44.78997000695397" lon="9.689332200810467"><ele>650.0</ele><time>2026-05-03T15:23:50.999Z</time></trkpt><trkpt lat="44.79008683511089" lon="9.689358921273158"><ele>652.25</ele><time>2026-05-03T15:23:51.999Z</time></trkpt><trkpt lat="44.79021529539717" lon="9.689360922381795"><ele>654.5</ele><time>2026-05-03T15:23:52.999Z</time></trkpt><trkpt lat="44.79034405557915" lon="9.689372700655955"><ele>656.75</ele><time>2026-05-03T15:23:53.999Z</time></trkpt><trkpt lat="44.79045983884761" lon="9.689408716313384"><ele>659.0</ele><time>2026-05-03T15:23:54.999Z</time></trkpt><trkpt lat="44.79055176853758" lon="9.689447398217327"><ele>655.2</ele><time>2026-05-03T15:23:55.999Z</time></trkpt><trkpt lat="44.79062669368144" lon="9.689506549434887"><ele>651.4000000000001</ele><time>2026-05-03T15:23:56.999Z</time></trkpt><trkpt lat="44.790710739998175" lon="9.689585231919327"><ele>647.6</ele><time>2026-05-03T15:23:57.999Z</time></trkpt><trkpt lat="44.790818629861455" lon="9.689647827355996"><ele>643.8</ele><time>2026-05-03T15:23:58.999Z</time></trkpt><trkpt lat="44.790930506466886" lon="9.689707709156938"><ele>640.0</ele><time>2026-05-03T15:23:59.999Z</time></trkpt><trkpt lat="44.79102664625167" lon="9.689778271769047"><ele>640.0</ele><time>2026-05-03T15:24:00.999Z</time></trkpt><trkpt lat="44.79111275075028" lon="9.689844838566003"><ele>640.0</ele><time>2026-05-03T15:24:01.999Z</time></trkpt><trkpt lat="44.791196513457415" lon="9.68990036604188"><ele>640.0</ele><time>2026-05-03T15:24:02.999Z</time></trkpt><trkpt lat="44.7912830931069" lon="9.689936683695336"><ele>640.0</ele><time>2026-05-03T15:24:03.999Z</time></trkpt><trkpt lat="44.791368499000455" lon="9.68997143624554"><ele>640.0</ele><time>2026-05-03T15:24:04.999Z</time></trkpt><trkpt lat="44.79144965302342" lon="9.690015022224904"><ele>640.0</ele><time>2026-05-03T15:24:05.999Z</time></trkpt><trkpt lat="44.791533746638706" lon="9.69005248223213"><ele>640.0</ele><time>2026-05-03T15:24:06.999Z</time></trkpt><trkpt lat="44.791612189782995" lon="9.690098196445918"><ele>640.0</ele><time>2026-05-03T15:24:07.999Z</time></trkpt><trkpt lat="44.79169424963163" lon="9.690152565413685"><ele>640.0</ele><time>2026-05-03T15:24:08.999Z</time></trkpt><trkpt lat="44.79177646071784" lon="9.690229735489478"><ele>640.0</ele><time>2026-05-03T15:24:09.999Z</time></trkpt><trkpt lat="44.7918594812901" lon="9.690301978701497"><ele>635.8</ele><time>2026-05-03T15:24:10.999Z</time></trkpt><trkpt lat="44.79194609132551" lon="9.69035590805655"><ele>631.6</ele><time>2026-05-03T15:24:11.999Z</time></trkpt><trkpt lat="44.792049140513704" lon="9.690384230492544"><ele>627.4</ele><time>2026-05-03T15:24:12.999Z</time></trkpt><trkpt lat="44.792162916754556" lon="9.690412500338086"><ele>623.2</ele><time>2026-05-03T15:24:13.999Z</time></trkpt><trkpt lat="44.792272602905825" lon="9.690445520740933"><ele>619.0</ele><time>2026-05-03T15:24:14.999Z</time></trkpt><trkpt lat="44.79237406697231" lon="9.690482593041366"><ele>619.0</ele><time>2026-05-03T15:24:15.999Z</time></trkpt><trkpt lat="44.792467867948" lon="9.690515485294615"><ele>619.0</ele><time>2026-05-03T15:24:16.999Z</time></trkpt><trkpt lat="44.792569444575264" lon="9.690556880908689"><ele>619.0</ele><time>2026-05-03T15:24:17.999Z</time></trkpt><trkpt lat="44.7926867885556" lon="9.69056810142141"><ele>619.0</ele><time>2026-05-03T15:24:18.999Z</time></trkpt><trkpt lat="44.79279401682893" lon="9.690599767312653"><ele>619.0</ele><time>2026-05-03T15:24:19.999Z</time></trkpt><trkpt lat="44.792895007793604" lon="9.690629859281637"><ele>618.6</ele><time>2026-05-03T15:24:20.999Z</time></trkpt><trkpt lat="44.79298938212855" lon="9.690664018120735"><ele>618.2</ele><time>2026-05-03T15:24:21.999Z</time></trkpt><trkpt lat="44.793078377260144" lon="9.69068263086383"><ele>617.8000000000001</ele><time>2026-05-03T15:24:22.999Z</time></trkpt><trkpt lat="44.79316289175344" lon="9.69068067536539"><ele>617.4</ele><time>2026-05-03T15:24:23.999Z</time></trkpt><trkpt lat="44.79325358531965" lon="9.690664147244691"><ele>617.0</ele><time>2026-05-03T15:24:24.999Z</time></trkpt><trkpt lat="44.79333988304361" lon="9.690678085643396"><ele>617.0</ele><time>2026-05-03T15:24:25.999Z</time></trkpt><trkpt lat="44.793434228856775" lon="9.69072135784533"><ele>617.0</ele><time>2026-05-03T15:24:26.999Z</time></trkpt><trkpt lat="44.79353449045211" lon="9.690750503258815"><ele>617.0</ele><time>2026-05-03T15:24:27.999Z</time></trkpt><trkpt lat="44.79364790583767" lon="9.69074550806175"><ele>617.0</ele><time>2026-05-03T15:24:28.999Z</time></trkpt><trkpt lat="44.7937673028329" lon="9.69074302008193"><ele>617.0</ele><time>2026-05-03T15:24:29.999Z</time></trkpt><trkpt lat="44.79388207109814" lon="9.690758448156949"><ele>616.8000000000001</ele><time>2026-05-03T15:24:30.999Z</time></trkpt><trkpt lat="44.79399958130482" lon="9.690765738131562"><ele>616.6</ele><time>2026-05-03T15:24:31.999Z</time></trkpt><trkpt lat="44.79410662537783" lon="9.690778711109248"><ele>616.4000000000001</ele><time>2026-05-03T15:24:32.998Z</time></trkpt><trkpt lat="44.794202745297696" lon="9.690804513568718"><ele>616.2</ele><time>2026-05-03T15:24:33.998Z</time></trkpt><trkpt lat="44.79428633027522" lon="9.690840636103578"><ele>616.0</ele><time>2026-05-03T15:24:34.998Z</time></trkpt><trkpt lat="44.79437164833671" lon="9.690879630225536"><ele>615.2</ele><time>2026-05-03T15:24:35.998Z</time></trkpt><trkpt lat="44.79446085647111" lon="9.690926493290856"><ele>614.4000000000001</ele><time>2026-05-03T15:24:36.998Z</time></trkpt><trkpt lat="44.79455754839317" lon="9.690978857143635"><ele>613.6</ele><time>2026-05-03T15:24:37.998Z</time></trkpt><trkpt lat="44.794656970991774" lon="9.691027691468062"><ele>612.8000000000001</ele><time>2026-05-03T15:24:38.998Z</time></trkpt><trkpt lat="44.79474522348478" lon="9.691074559149879"><ele>612.0</ele><time>2026-05-03T15:24:39.998Z</time></trkpt><trkpt lat="44.79481361500183" lon="9.691107494547188"><ele>611.3333333333334</ele><time>2026-05-03T15:24:40.998Z</time></trkpt><trkpt lat="44.794882660191355" lon="9.691147681962274"><ele>610.6666666666666</ele><time>2026-05-03T15:24:43.998Z</time></trkpt><trkpt lat="44.79497699343645" lon="9.691178965432789"><ele>610.0</ele><time>2026-05-03T15:24:45.998Z</time></trkpt><trkpt lat="44.79505334961467" lon="9.691199063645744"><ele>609.3333333333333</ele><time>2026-05-03T15:24:46.998Z</time></trkpt><trkpt lat="44.79513355919475" lon="9.691210454609523"><ele>608.6666666666666</ele><time>2026-05-03T15:24:47.998Z</time></trkpt><trkpt lat="44.79522185339358" lon="9.691219101093713"><ele>608.0</ele><time>2026-05-03T15:24:48.998Z</time></trkpt><trkpt lat="44.795327920818124" lon="9.691226526972553"><ele>608.0</ele><time>2026-05-03T15:24:49.998Z</time></trkpt><trkpt lat="44.795448840003424" lon="9.69124563761649"><ele>608.0</ele><time>2026-05-03T15:24:50.998Z</time></trkpt><trkpt lat="44.79555807032885" lon="9.691266106273105"><ele>608.0</ele><time>2026-05-03T15:24:51.998Z</time></trkpt><trkpt lat="44.79565584359924" lon="9.691287873346338"><ele>608.0</ele><time>2026-05-03T15:24:52.998Z</time></trkpt><trkpt lat="44.79574909674888" lon="9.691314796198983"><ele>608.0</ele><time>2026-05-03T15:24:53.998Z</time></trkpt><trkpt lat="44.79583845494901" lon="9.691336051668936"><ele>608.0</ele><time>2026-05-03T15:24:55Z</time></trkpt><trkpt lat="44.79593000294605" lon="9.69135478838007"><ele>608.0</ele><time>2026-05-03T15:24:56Z</time></trkpt><trkpt lat="44.796032805137926" lon="9.691353762871815"><ele>608.0</ele><time>2026-05-03T15:24:57Z</time></trkpt><trkpt lat="44.79613134591206" lon="9.691341022278486"><ele>608.0</ele><time>2026-05-03T15:24:58Z</time></trkpt><trkpt lat="44.796208812632514" lon="9.6913019385291"><ele>608.0</ele><time>2026-05-03T15:24:59Z</time></trkpt><trkpt lat="44.79627944597988" lon="9.691308606850887"><ele>608.0</ele><time>2026-05-03T15:25:00Z</time></trkpt><trkpt lat="44.7963493003483" lon="9.691306364228367"><ele>609.6666666666666</ele><time>2026-05-03T15:25:01Z</time></trkpt><trkpt lat="44.796425874959084" lon="9.691268695048953"><ele>611.3333333333333</ele><time>2026-05-03T15:25:02Z</time></trkpt><trkpt lat="44.79650150046091" lon="9.691273790374296"><ele>613.0</ele><time>2026-05-03T15:25:03Z</time></trkpt><trkpt lat="44.796575927655276" lon="9.691278050784817"><ele>614.6666666666666</ele><time>2026-05-03T15:25:04Z</time></trkpt><trkpt lat="44.79667885260769" lon="9.691201000924805"><ele>616.3333333333334</ele><time>2026-05-03T15:25:06Z</time></trkpt><trkpt lat="44.796721937330716" lon="9.691105017651564"><ele>618.0</ele><time>2026-05-03T15:25:07Z</time></trkpt><trkpt lat="44.796783837845666" lon="9.691032351918908"><ele>620.2857142857143</ele><time>2026-05-03T15:25:08Z</time></trkpt><trkpt lat="44.79683894636877" lon="9.690973664514523"><ele>622.5714285714286</ele><time>2026-05-03T15:25:09Z</time></trkpt><trkpt lat="44.79691646196483" lon="9.690942892425884"><ele>624.8571428571429</ele><time>2026-05-03T15:25:10Z</time></trkpt><trkpt lat="44.79699303871758" lon="9.690912654916376"><ele>627.1428571428571</ele><time>2026-05-03T15:25:11Z</time></trkpt><trkpt lat="44.79703985995076" lon="9.690849032146254"><ele>629.4285714285714</ele><time>2026-05-03T15:25:12Z</time></trkpt><trkpt lat="44.79708601906094" lon="9.690783783760232"><ele>631.7142857142858</ele><time>2026-05-03T15:25:13Z</time></trkpt><trkpt lat="44.7971532561766" lon="9.690740662728434"><ele>634.0</ele><time>2026-05-03T15:25:14Z</time></trkpt><trkpt lat="44.79724053357419" lon="9.690779204877414"><ele>634.0</ele><time>2026-05-03T15:25:16Z</time></trkpt><trkpt lat="44.7973060367761" lon="9.690938717976064"><ele>634.0</ele><time>2026-05-03T15:25:18Z</time></trkpt><trkpt lat="44.797384069626226" lon="9.690982319784323"><ele>634.0</ele><time>2026-05-03T15:25:19Z</time></trkpt><trkpt lat="44.79745604098256" lon="9.690995892958451"><ele>634.0</ele><time>2026-05-03T15:25:20Z</time></trkpt><trkpt lat="44.79753520789613" lon="9.691133175783829"><ele>634.0</ele><time>2026-05-03T15:25:22Z</time></trkpt><trkpt lat="44.797608392181424" lon="9.69125206463139"><ele>634.1666666666667</ele><time>2026-05-03T15:25:23Z</time></trkpt><trkpt lat="44.79767908585366" lon="9.691361525025922"><ele>634.3333333333334</ele><time>2026-05-03T15:25:24Z</time></trkpt><trkpt lat="44.79774283805501" lon="9.691464200860764"><ele>634.5</ele><time>2026-05-03T15:25:25Z</time></trkpt><trkpt lat="44.79779861150241" lon="9.691547284685756"><ele>634.6666666666666</ele><time>2026-05-03T15:25:26Z</time></trkpt><trkpt lat="44.79783519280988" lon="9.691627985951055"><ele>634.8333333333333</ele><time>2026-05-03T15:25:27Z</time></trkpt><trkpt lat="44.79789951771044" lon="9.69168957781687"><ele>635.0</ele><time>2026-05-03T15:25:28Z</time></trkpt><trkpt lat="44.797964149257666" lon="9.691717362508548"><ele>635.0</ele><time>2026-05-03T15:25:29Z</time></trkpt><trkpt lat="44.79803368967731" lon="9.691653096708093"><ele>635.0</ele><time>2026-05-03T15:25:33Z</time></trkpt><trkpt lat="44.79812614256561" lon="9.691609261964066"><ele>635.0</ele><time>2026-05-03T15:25:35Z</time></trkpt><trkpt lat="44.79819982099496" lon="9.691554745719774"><ele>635.0</ele><time>2026-05-03T15:25:36Z</time></trkpt><trkpt lat="44.798289106687214" lon="9.69151035252269"><ele>635.0</ele><time>2026-05-03T15:25:36.999Z</time></trkpt><trkpt lat="44.798353281802996" lon="9.691466483638328"><ele>635.0</ele><time>2026-05-03T15:25:37.999Z</time></trkpt><trkpt lat="44.798448490481356" lon="9.691330066434038"><ele>633.2</ele><time>2026-05-03T15:25:39.999Z</time></trkpt><trkpt lat="44.798531442754616" lon="9.691248622764833"><ele>631.4</ele><time>2026-05-03T15:25:40.999Z</time></trkpt><trkpt lat="44.79859541683537" lon="9.691167645966361"><ele>629.6</ele><time>2026-05-03T15:25:41.999Z</time></trkpt><trkpt lat="44.798697765699885" lon="9.69112284577946"><ele>627.8</ele><time>2026-05-03T15:25:42.999Z</time></trkpt><trkpt lat="44.798760479046734" lon="9.691028853617695"><ele>626.0</ele><time>2026-05-03T15:25:44.999Z</time></trkpt><trkpt lat="44.79876942110696" lon="9.690845939875103"><ele>625.6666666666666</ele><time>2026-05-03T15:25:46.999Z</time></trkpt><trkpt lat="44.7988080149707" lon="9.690773933557907"><ele>625.3333333333333</ele><time>2026-05-03T15:25:47.999Z</time></trkpt><trkpt lat="44.79884523004303" lon="9.690625303179345"><ele>625.0</ele><time>2026-05-03T15:25:49.999Z</time></trkpt><trkpt lat="44.79886474297335" lon="9.690532317274727"><ele>624.6666666666666</ele><time>2026-05-03T15:25:50.999Z</time></trkpt><trkpt lat="44.798895259490585" lon="9.690452827693461"><ele>624.3333333333334</ele><time>2026-05-03T15:25:51.999Z</time></trkpt><trkpt lat="44.798946811183406" lon="9.690375659408698"><ele>624.0</ele><time>2026-05-03T15:25:52.999Z</time></trkpt><trkpt lat="44.79901917071946" lon="9.690265629875547"><ele>624.0</ele><time>2026-05-03T15:25:53.999Z</time></trkpt><trkpt lat="44.79910253385586" lon="9.690154893013336"><ele>624.0</ele><time>2026-05-03T15:25:55.999Z</time></trkpt><trkpt lat="44.79917987628165" lon="9.69018721661386"><ele>624.0</ele><time>2026-05-03T15:25:57.999Z</time></trkpt><trkpt lat="44.799246235954804" lon="9.690246564670556"><ele>624.0</ele><time>2026-05-03T15:25:58.999Z</time></trkpt><trkpt lat="44.799290168302946" lon="9.69033540992747"><ele>624.0</ele><time>2026-05-03T15:25:59.999Z</time></trkpt><trkpt lat="44.799339676589554" lon="9.690398262901768"><ele>624.0</ele><time>2026-05-03T15:26:00.999Z</time></trkpt><trkpt lat="44.79940386697821" lon="9.690435648053134"><ele>619.2</ele><time>2026-05-03T15:26:01.999Z</time></trkpt><trkpt lat="44.79949863212302" lon="9.690416763658378"><ele>614.4</ele><time>2026-05-03T15:26:03.999Z</time></trkpt><trkpt lat="44.799547713159555" lon="9.690358256112262"><ele>609.6</ele><time>2026-05-03T15:26:04.999Z</time></trkpt><trkpt lat="44.79962387414146" lon="9.69028610106963"><ele>604.8</ele><time>2026-05-03T15:26:05.999Z</time></trkpt><trkpt lat="44.799707666322966" lon="9.690168368644342"><ele>600.0</ele><time>2026-05-03T15:26:07.999Z</time></trkpt><trkpt lat="44.79978323306513" lon="9.690056874135877"><ele>600.0</ele><time>2026-05-03T15:26:09.999Z</time></trkpt><trkpt lat="44.79985127249266" lon="9.690042314110567"><ele>600.0</ele><time>2026-05-03T15:26:13.999Z</time></trkpt><trkpt lat="44.79989819228967" lon="9.690143990516583"><ele>600.0</ele><time>2026-05-03T15:26:16.999Z</time></trkpt><trkpt lat="44.79993928680089" lon="9.690262698667068"><ele>600.0</ele><time>2026-05-03T15:26:18.999Z</time></trkpt><trkpt lat="44.79993883305864" lon="9.690381089803894"><ele>600.0</ele><time>2026-05-03T15:26:19.999Z</time></trkpt><trkpt lat="44.799957100119926" lon="9.690521610232171"><ele>600.0</ele><time>2026-05-03T15:26:20.999Z</time></trkpt><trkpt lat="44.79998287258813" lon="9.690638969255271"><ele>600.0</ele><time>2026-05-03T15:26:21.999Z</time></trkpt><trkpt lat="44.80001168204766" lon="9.690756842632705"><ele>600.0</ele><time>2026-05-03T15:26:22.999Z</time></trkpt><trkpt lat="44.80003684140773" lon="9.690859489722852"><ele>600.0</ele><time>2026-05-03T15:26:23.999Z</time></trkpt><trkpt lat="44.800036563669735" lon="9.690950067041868"><ele>600.0</ele><time>2026-05-03T15:26:24.999Z</time></trkpt><trkpt lat="44.80003228235421" lon="9.691088024675992"><ele>600.0</ele><time>2026-05-03T15:26:25.999Z</time></trkpt><trkpt lat="44.80001069094246" lon="9.691238265075674"><ele>600.0</ele><time>2026-05-03T15:26:26.999Z</time></trkpt><trkpt lat="44.79997991923711" lon="9.691397718931965"><ele>600.0</ele><time>2026-05-03T15:26:28.999Z</time></trkpt><trkpt lat="44.79997178044948" lon="9.69154461963284"><ele>600.0</ele><time>2026-05-03T15:26:30.999Z</time></trkpt><trkpt lat="44.79998070170602" lon="9.691640447338772"><ele>600.0</ele><time>2026-05-03T15:26:31.999Z</time></trkpt><trkpt lat="44.79994259704292" lon="9.691749729399639"><ele>600.0</ele><time>2026-05-03T15:26:32.999Z</time></trkpt><trkpt lat="44.799886699999355" lon="9.691845145626294"><ele>600.0</ele><time>2026-05-03T15:26:33.999Z</time></trkpt><trkpt lat="44.79987080503059" lon="9.69194926298097"><ele>600.0</ele><time>2026-05-03T15:26:34.999Z</time></trkpt><trkpt lat="44.79986921895222" lon="9.69204416637695"><ele>601.8333333333334</ele><time>2026-05-03T15:26:35.998Z</time></trkpt><trkpt lat="44.79990481361507" lon="9.692153099982662"><ele>603.6666666666666</ele><time>2026-05-03T15:26:37.998Z</time></trkpt><trkpt lat="44.79997450509001" lon="9.692269777742856"><ele>605.5</ele><time>2026-05-03T15:26:39.998Z</time></trkpt><trkpt lat="44.800051130436145" lon="9.692340861131097"><ele>607.3333333333333</ele><time>2026-05-03T15:26:40.998Z</time></trkpt><trkpt lat="44.80004833920854" lon="9.692451531503426"><ele>609.1666666666666</ele><time>2026-05-03T15:26:42.998Z</time></trkpt><trkpt lat="44.80005108183052" lon="9.692560149831769"><ele>611.0</ele><time>2026-05-03T15:26:43.998Z</time></trkpt><trkpt lat="44.800089046248495" lon="9.692694679510872"><ele>613.1666666666666</ele><time>2026-05-03T15:26:44.998Z</time></trkpt><trkpt lat="44.80013078951382" lon="9.692789780083906"><ele>615.3333333333333</ele><time>2026-05-03T15:26:45.998Z</time></trkpt><trkpt lat="44.80018878364004" lon="9.692856496827378"><ele>617.5</ele><time>2026-05-03T15:26:46.998Z</time></trkpt><trkpt lat="44.80024633481288" lon="9.692897351207066"><ele>619.6666666666666</ele><time>2026-05-03T15:26:47.998Z</time></trkpt><trkpt lat="44.800374244386525" lon="9.69291973509974"><ele>621.8333333333334</ele><time>2026-05-03T15:26:49.998Z</time></trkpt><trkpt lat="44.8004596655738" lon="9.69295652759235"><ele>624.0</ele><time>2026-05-03T15:26:56.998Z</time></trkpt><trkpt lat="44.80053483475658" lon="9.692963226304785"><ele>624.0</ele><time>2026-05-03T15:26:57.998Z</time></trkpt><trkpt lat="44.800622120175184" lon="9.692988526117757"><ele>624.0</ele><time>2026-05-03T15:26:58.998Z</time></trkpt><trkpt lat="44.80070919324775" lon="9.69299635129357"><ele>624.0</ele><time>2026-05-03T15:26:59.998Z</time></trkpt><trkpt lat="44.80078987989271" lon="9.692993275832814"><ele>624.0</ele><time>2026-05-03T15:27:01Z</time></trkpt><trkpt lat="44.80085217846942" lon="9.69301228966511"><ele>624.0</ele><time>2026-05-03T15:27:02Z</time></trkpt><trkpt lat="44.80096940865312" lon="9.692994736124456"><ele>624.0</ele><time>2026-05-03T15:27:04Z</time></trkpt><trkpt lat="44.80104305063265" lon="9.692945001868221"><ele>621.5714285714286</ele><time>2026-05-03T15:27:05Z</time></trkpt><trkpt lat="44.801110549040665" lon="9.692933867590718"><ele>619.1428571428571</ele><time>2026-05-03T15:27:06Z</time></trkpt><trkpt lat="44.80118702516909" lon="9.692958507227134"><ele>616.7142857142857</ele><time>2026-05-03T15:27:07Z</time></trkpt><trkpt lat="44.80126271314494" lon="9.692978814081876"><ele>614.2857142857142</ele><time>2026-05-03T15:27:08Z</time></trkpt><trkpt lat="44.80132786949548" lon="9.69298789889046"><ele>611.8571428571429</ele><time>2026-05-03T15:27:09Z</time></trkpt><trkpt lat="44.80139365522192" lon="9.692991857931471"><ele>609.4285714285713</ele><time>2026-05-03T15:27:10Z</time></trkpt><trkpt lat="44.801446012397406" lon="9.69305230112472"><ele>607.0</ele><time>2026-05-03T15:27:11Z</time></trkpt><trkpt lat="44.80153045916662" lon="9.693080873783005"><ele>607.0</ele><time>2026-05-03T15:27:12Z</time></trkpt><trkpt lat="44.80158504197679" lon="9.69315860923195"><ele>607.0</ele><time>2026-05-03T15:27:13Z</time></trkpt><trkpt lat="44.801623396087074" lon="9.693248412630542"><ele>607.0</ele><time>2026-05-03T15:27:14Z</time></trkpt><trkpt lat="44.80167136965781" lon="9.693380207677707"><ele>607.0</ele><time>2026-05-03T15:27:15Z</time></trkpt><trkpt lat="44.80172746012657" lon="9.693494903352981"><ele>607.0</ele><time>2026-05-03T15:27:16Z</time></trkpt><trkpt lat="44.801764460325664" lon="9.69358488729389"><ele>607.0</ele><time>2026-05-03T15:27:17Z</time></trkpt><trkpt lat="44.80179652327281" lon="9.69369056048359"><ele>604.6</ele><time>2026-05-03T15:27:19Z</time></trkpt><trkpt lat="44.801897337267" lon="9.693770059556083"><ele>602.2</ele><time>2026-05-03T15:27:21Z</time></trkpt><trkpt lat="44.80197656268366" lon="9.69381787207541"><ele>599.8</ele><time>2026-05-03T15:27:22Z</time></trkpt><trkpt lat="44.80207508017019" lon="9.693929827102993"><ele>597.4</ele><time>2026-05-03T15:27:24Z</time></trkpt><trkpt lat="44.80218810140162" lon="9.69396610975804"><ele>595.0</ele><time>2026-05-03T15:27:26Z</time></trkpt><trkpt lat="44.80219131041681" lon="9.694058881958556"><ele>595.0</ele><time>2026-05-03T15:27:28Z</time></trkpt><trkpt lat="44.80217386979876" lon="9.69414609229777"><ele>595.0</ele><time>2026-05-03T15:27:29Z</time></trkpt><trkpt lat="44.80212767231161" lon="9.69430554971954"><ele>595.0</ele><time>2026-05-03T15:27:31Z</time></trkpt><trkpt lat="44.80209563917903" lon="9.694413776633642"><ele>595.0</ele><time>2026-05-03T15:27:32Z</time></trkpt><trkpt lat="44.80209705770959" lon="9.694550587746578"><ele>595.0</ele><time>2026-05-03T15:27:33Z</time></trkpt><trkpt lat="44.80208839708287" lon="9.694690629677583"><ele>595.75</ele><time>2026-05-03T15:27:34Z</time></trkpt><trkpt lat="44.80209049742634" lon="9.694824500570373"><ele>596.5</ele><time>2026-05-03T15:27:35Z</time></trkpt><trkpt lat="44.802100262868585" lon="9.695056415412385"><ele>597.25</ele><time>2026-05-03T15:27:37Z</time></trkpt><trkpt lat="44.80212899312612" lon="9.695202553207327"><ele>598.0</ele><time>2026-05-03T15:27:38Z</time></trkpt><trkpt lat="44.802124058535284" lon="9.695353097770221"><ele>599.0</ele><time>2026-05-03T15:27:39Z</time></trkpt><trkpt lat="44.80212123733069" lon="9.695493835309849"><ele>600.0</ele><time>2026-05-03T15:27:40Z</time></trkpt><trkpt lat="44.80211591362254" lon="9.695670997223095"><ele>601.0</ele><time>2026-05-03T15:27:41Z</time></trkpt><trkpt lat="44.80214072740314" lon="9.695846490553958"><ele>602.0</ele><time>2026-05-03T15:27:42Z</time></trkpt><trkpt lat="44.80212598439568" lon="9.695990389311408"><ele>604.0</ele><time>2026-05-03T15:27:43Z</time></trkpt><trkpt lat="44.8020861552445" lon="9.696090618004918"><ele>606.0</ele><time>2026-05-03T15:27:43.999Z</time></trkpt><trkpt lat="44.80208277148188" lon="9.696181415857282"><ele>608.0</ele><time>2026-05-03T15:27:44.999Z</time></trkpt><trkpt lat="44.80204933651764" lon="9.696325619721613"><ele>610.0</ele><time>2026-05-03T15:27:45.999Z</time></trkpt><trkpt lat="44.802019402522774" lon="9.696481401122265"><ele>612.0</ele><time>2026-05-03T15:27:46.999Z</time></trkpt><trkpt lat="44.80199402168807" lon="9.69663862868355"><ele>612.0</ele><time>2026-05-03T15:27:47.999Z</time></trkpt><trkpt lat="44.80197712803868" lon="9.696792381109336"><ele>612.0</ele><time>2026-05-03T15:27:48.999Z</time></trkpt><trkpt lat="44.80193369000491" lon="9.69690582358475"><ele>612.0</ele><time>2026-05-03T15:27:49.999Z</time></trkpt><trkpt lat="44.80188147639859" lon="9.696968423009272"><ele>612.0</ele><time>2026-05-03T15:27:50.999Z</time></trkpt><trkpt lat="44.80184127457851" lon="9.697055332773798"><ele>612.0</ele><time>2026-05-03T15:27:51.999Z</time></trkpt><trkpt lat="44.80183205805904" lon="9.697173628802267"><ele>612.0</ele><time>2026-05-03T15:27:53.999Z</time></trkpt><trkpt lat="44.80187502286053" lon="9.697262933722842"><ele>615.8000000000001</ele><time>2026-05-03T15:27:54.999Z</time></trkpt><trkpt lat="44.80189302536383" lon="9.697395111356954"><ele>619.6</ele><time>2026-05-03T15:27:55.999Z</time></trkpt><trkpt lat="44.80191502448684" lon="9.697537929984145"><ele>623.4000000000001</ele><time>2026-05-03T15:27:56.999Z</time></trkpt><trkpt lat="44.80191300537799" lon="9.697676148911398"><ele>627.2</ele><time>2026-05-03T15:27:57.999Z</time></trkpt><trkpt lat="44.801908649910374" lon="9.697795339010602"><ele>631.0</ele><time>2026-05-03T15:27:58.999Z</time></trkpt><trkpt lat="44.801891270073874" lon="9.697907730232338"><ele>634.1666666666667</ele><time>2026-05-03T15:27:59.999Z</time></trkpt><trkpt lat="44.80188823749376" lon="9.698025836705737"><ele>637.3333333333334</ele><time>2026-05-03T15:28:00.999Z</time></trkpt><trkpt lat="44.8018594594463" lon="9.698151280989077"><ele>640.5</ele><time>2026-05-03T15:28:01.999Z</time></trkpt><trkpt lat="44.80185355865651" lon="9.698241652636444"><ele>643.6666666666666</ele><time>2026-05-03T15:28:02.999Z</time></trkpt><trkpt lat="44.80187904217931" lon="9.698330838023278"><ele>646.8333333333333</ele><time>2026-05-03T15:28:05.999Z</time></trkpt><trkpt lat="44.801941458676986" lon="9.698378354621868"><ele>650.0</ele><time>2026-05-03T15:28:08.999Z</time></trkpt><trkpt lat="44.80201800928851" lon="9.698380287489385"><ele>650.0</ele><time>2026-05-03T15:28:14.999Z</time></trkpt><trkpt lat="44.80212152094454" lon="9.698406330101664"><ele>650.0</ele><time>2026-05-03T15:28:16.999Z</time></trkpt><trkpt lat="44.802240330568935" lon="9.69846965463846"><ele>650.0</ele><time>2026-05-03T15:28:17.999Z</time></trkpt><trkpt lat="44.802318326500014" lon="9.69857639618375"><ele>650.0</ele><time>2026-05-03T15:28:18.999Z</time></trkpt><trkpt lat="44.80237858763731" lon="9.698691358756202"><ele>650.0</ele><time>2026-05-03T15:28:19.999Z</time></trkpt><trkpt lat="44.80242105746749" lon="9.69881429331374"><ele>649.6</ele><time>2026-05-03T15:28:20.999Z</time></trkpt><trkpt lat="44.80246948194196" lon="9.698942663409012"><ele>649.2</ele><time>2026-05-03T15:28:21.999Z</time></trkpt><trkpt lat="44.80251143986456" lon="9.699073369059146"><ele>648.8</ele><time>2026-05-03T15:28:22.999Z</time></trkpt><trkpt lat="44.8025484858406" lon="9.69915913709455"><ele>648.4</ele><time>2026-05-03T15:28:23.999Z</time></trkpt><trkpt lat="44.80262952459461" lon="9.699304504055789"><ele>648.0</ele><time>2026-05-03T15:28:25.999Z</time></trkpt><trkpt lat="44.802669529344236" lon="9.699407091440959"><ele>648.8</ele><time>2026-05-03T15:28:26.999Z</time></trkpt><trkpt lat="44.802714009279256" lon="9.699484976088154"><ele>649.5999999999999</ele><time>2026-05-03T15:28:27.999Z</time></trkpt><trkpt lat="44.80278159970822" lon="9.699584791771375"><ele>650.4000000000001</ele><time>2026-05-03T15:28:28.999Z</time></trkpt><trkpt lat="44.802848005173516" lon="9.699734376266882"><ele>651.2</ele><time>2026-05-03T15:28:29.999Z</time></trkpt><trkpt lat="44.80289640164755" lon="9.699894700718882"><ele>652.0</ele><time>2026-05-03T15:28:30.999Z</time></trkpt><trkpt lat="44.80292390901414" lon="9.700018078229233"><ele>652.0</ele><time>2026-05-03T15:28:31.999Z</time></trkpt><trkpt lat="44.80296161402183" lon="9.700114543678506"><ele>652.0</ele><time>2026-05-03T15:28:32.999Z</time></trkpt><trkpt lat="44.80303469074897" lon="9.700115469111376"><ele>652.0</ele><time>2026-05-03T15:28:33.999Z</time></trkpt><trkpt lat="44.80309570810383" lon="9.700189729803888"><ele>652.0</ele><time>2026-05-03T15:28:34.999Z</time></trkpt><trkpt lat="44.80310276752365" lon="9.70034263435895"><ele>652.0</ele><time>2026-05-03T15:28:35.999Z</time></trkpt><trkpt lat="44.80310960416498" lon="9.700449947650906"><ele>652.0</ele><time>2026-05-03T15:28:36.999Z</time></trkpt><trkpt lat="44.80313106679252" lon="9.700539621899058"><ele>652.4000000000001</ele><time>2026-05-03T15:28:37.999Z</time></trkpt><trkpt lat="44.80322887164618" lon="9.700671989890594"><ele>652.8000000000001</ele><time>2026-05-03T15:28:39.999Z</time></trkpt><trkpt lat="44.803310020525146" lon="9.70074655878235"><ele>653.2</ele><time>2026-05-03T15:28:40.999Z</time></trkpt><trkpt lat="44.803401215287714" lon="9.700835061661978"><ele>653.6</ele><time>2026-05-03T15:28:41.999Z</time></trkpt><trkpt lat="44.80346522395493" lon="9.700939947930962"><ele>654.0</ele><time>2026-05-03T15:28:42.998Z</time></trkpt><trkpt lat="44.80350994033377" lon="9.701037689668322"><ele>652.6666666666666</ele><time>2026-05-03T15:28:43.998Z</time></trkpt><trkpt lat="44.80356217240716" lon="9.701132239417923"><ele>651.3333333333334</ele><time>2026-05-03T15:28:44.998Z</time></trkpt><trkpt lat="44.80362998993746" lon="9.701210152288109"><ele>650.0</ele><time>2026-05-03T15:28:45.998Z</time></trkpt><trkpt lat="44.803698125526665" lon="9.701271108347733"><ele>648.6666666666667</ele><time>2026-05-03T15:28:46.998Z</time></trkpt><trkpt lat="44.803765693416324" lon="9.701330003155153"><ele>647.3333333333334</ele><time>2026-05-03T15:28:47.998Z</time></trkpt><trkpt lat="44.80382469179081" lon="9.701397659730679"><ele>646.0</ele><time>2026-05-03T15:28:48.998Z</time></trkpt><trkpt lat="44.803895192508705" lon="9.701478946826363"><ele>646.0</ele><time>2026-05-03T15:28:49.998Z</time></trkpt><trkpt lat="44.803976192787864" lon="9.701566565834822"><ele>646.0</ele><time>2026-05-03T15:28:50.998Z</time></trkpt><trkpt lat="44.80405790423015" lon="9.701637448389803"><ele>646.0</ele><time>2026-05-03T15:28:51.998Z</time></trkpt><trkpt lat="44.80412369862657" lon="9.701703071762326"><ele>646.0</ele><time>2026-05-03T15:28:52.998Z</time></trkpt><trkpt lat="44.80418336252723" lon="9.701780044916779"><ele>646.0</ele><time>2026-05-03T15:28:53.998Z</time></trkpt><trkpt lat="44.804231436552456" lon="9.70186403380808"><ele>646.0</ele><time>2026-05-03T15:28:54.998Z</time></trkpt><trkpt lat="44.80428688327745" lon="9.701936762096873"><ele>645.1999999999999</ele><time>2026-05-03T15:28:55.998Z</time></trkpt><trkpt lat="44.80435828422041" lon="9.70198727684818"><ele>644.4</ele><time>2026-05-03T15:28:56.998Z</time></trkpt><trkpt lat="44.80443289154722" lon="9.702028537352106"><ele>643.6</ele><time>2026-05-03T15:28:57.998Z</time></trkpt><trkpt lat="44.804533398865445" lon="9.702053412944109"><ele>642.8</ele><time>2026-05-03T15:28:58.998Z</time></trkpt><trkpt lat="44.80462944297092" lon="9.702121844292627"><ele>642.0</ele><time>2026-05-03T15:28:59.998Z</time></trkpt><trkpt lat="44.80471937932408" lon="9.70223598370664"><ele>642.0</ele><time>2026-05-03T15:29:00.998Z</time></trkpt><trkpt lat="44.80481577506491" lon="9.702343880454578"><ele>642.0</ele><time>2026-05-03T15:29:01.998Z</time></trkpt><trkpt lat="44.80488748321211" lon="9.70243705944347"><ele>642.0</ele><time>2026-05-03T15:29:02.998Z</time></trkpt><trkpt lat="44.80496404476809" lon="9.702499403522241"><ele>642.0</ele><time>2026-05-03T15:29:03.998Z</time></trkpt><trkpt lat="44.805043009834606" lon="9.702527983537953"><ele>642.0</ele><time>2026-05-03T15:29:04.998Z</time></trkpt><trkpt lat="44.80511304049686" lon="9.702547626500792"><ele>641.8</ele><time>2026-05-03T15:29:05.998Z</time></trkpt><trkpt lat="44.8051790945755" lon="9.702567322511278"><ele>641.6</ele><time>2026-05-03T15:29:07Z</time></trkpt><trkpt lat="44.805306886998096" lon="9.702572797701572"><ele>641.4</ele><time>2026-05-03T15:29:09Z</time></trkpt><trkpt lat="44.80539093078991" lon="9.702562020854552"><ele>641.1999999999999</ele><time>2026-05-03T15:29:10Z</time></trkpt><trkpt lat="44.805485305859506" lon="9.702544903958712"><ele>641.0</ele><time>2026-05-03T15:29:11Z</time></trkpt><trkpt lat="44.80558075024197" lon="9.70253823191656"><ele>641.0</ele><time>2026-05-03T15:29:12Z</time></trkpt><trkpt lat="44.80567549412063" lon="9.702523658076334"><ele>641.0</ele><time>2026-05-03T15:29:13Z</time></trkpt><trkpt lat="44.805766290806766" lon="9.70251194726142"><ele>641.0</ele><time>2026-05-03T15:29:14Z</time></trkpt><trkpt lat="44.80585607148398" lon="9.702501901554115"><ele>641.0</ele><time>2026-05-03T15:29:15Z</time></trkpt><trkpt lat="44.80594380810071" lon="9.702492109962492"><ele>641.0</ele><time>2026-05-03T15:29:16Z</time></trkpt><trkpt lat="44.806021185910446" lon="9.702488762720991"><ele>641.0</ele><time>2026-05-03T15:29:17Z</time></trkpt><trkpt lat="44.806083950812265" lon="9.702496331938823"><ele>641.5</ele><time>2026-05-03T15:29:18Z</time></trkpt><trkpt lat="44.80618002082417" lon="9.70249434981232"><ele>642.0</ele><time>2026-05-03T15:29:20Z</time></trkpt><trkpt lat="44.806242979089106" lon="9.702485367447863"><ele>642.5</ele><time>2026-05-03T15:29:21Z</time></trkpt><trkpt lat="44.80632519333056" lon="9.702465606763992"><ele>643.0</ele><time>2026-05-03T15:29:22Z</time></trkpt><trkpt lat="44.80641616446941" lon="9.70246347610616"><ele>643.5</ele><time>2026-05-03T15:29:23Z</time></trkpt><trkpt lat="44.80650297351087" lon="9.702456115672032"><ele>644.0</ele><time>2026-05-03T15:29:24Z</time></trkpt><trkpt lat="44.80657516323215" lon="9.702450225060097"><ele>644.0</ele><time>2026-05-03T15:29:25Z</time></trkpt><trkpt lat="44.80664682830558" lon="9.702453838772863"><ele>644.0</ele><time>2026-05-03T15:29:26Z</time></trkpt><trkpt lat="44.80671973760836" lon="9.702464367515917"><ele>644.0</ele><time>2026-05-03T15:29:27Z</time></trkpt><trkpt lat="44.80680278602895" lon="9.702484544393391"><ele>644.0</ele><time>2026-05-03T15:29:28Z</time></trkpt><trkpt lat="44.80689206974373" lon="9.702507735003971"><ele>644.0</ele><time>2026-05-03T15:29:29Z</time></trkpt><trkpt lat="44.8069816058822" lon="9.702516702210318"><ele>644.0</ele><time>2026-05-03T15:29:30Z</time></trkpt><trkpt lat="44.807066001143745" lon="9.702524599889427"><ele>643.2</ele><time>2026-05-03T15:29:31Z</time></trkpt><trkpt lat="44.80715924327734" lon="9.702539290917032"><ele>642.4000000000001</ele><time>2026-05-03T15:29:32Z</time></trkpt><trkpt lat="44.80726513437206" lon="9.702568392783624"><ele>641.6</ele><time>2026-05-03T15:29:33Z</time></trkpt><trkpt lat="44.80737454222049" lon="9.702606292705333"><ele>640.8</ele><time>2026-05-03T15:29:34Z</time></trkpt><trkpt lat="44.80747533858534" lon="9.702636436179022"><ele>640.0</ele><time>2026-05-03T15:29:35Z</time></trkpt><trkpt lat="44.80756724827624" lon="9.702656161385843"><ele>640.0</ele><time>2026-05-03T15:29:36Z</time></trkpt><trkpt lat="44.807654337245026" lon="9.70267630079892"><ele>640.0</ele><time>2026-05-03T15:29:37Z</time></trkpt><trkpt lat="44.80773859373319" lon="9.702673859576649"><ele>640.0</ele><time>2026-05-03T15:29:38Z</time></trkpt><trkpt lat="44.80782506806335" lon="9.702648791993845"><ele>640.0</ele><time>2026-05-03T15:29:39Z</time></trkpt><trkpt lat="44.80791077486932" lon="9.702612175640503"><ele>640.0</ele><time>2026-05-03T15:29:40Z</time></trkpt><trkpt lat="44.807998641472864" lon="9.702579214579158"><ele>640.0</ele><time>2026-05-03T15:29:41Z</time></trkpt><trkpt lat="44.808092328270284" lon="9.702551052021063"><ele>640.0</ele><time>2026-05-03T15:29:42Z</time></trkpt><trkpt lat="44.808183214916454" lon="9.702535942587463"><ele>640.0</ele><time>2026-05-03T15:29:43Z</time></trkpt><trkpt lat="44.808264280360184" lon="9.702512503488594"><ele>640.0</ele><time>2026-05-03T15:29:44Z</time></trkpt><trkpt lat="44.80833815412492" lon="9.7024811719416"><ele>640.0</ele><time>2026-05-03T15:29:45Z</time></trkpt><trkpt lat="44.8084129639875" lon="9.702433982595679"><ele>640.0</ele><time>2026-05-03T15:29:46Z</time></trkpt><trkpt lat="44.80848737165115" lon="9.702381231627779"><ele>640.0</ele><time>2026-05-03T15:29:47Z</time></trkpt><trkpt lat="44.80857500247342" lon="9.70232951117153"><ele>639.8333333333334</ele><time>2026-05-03T15:29:48Z</time></trkpt><trkpt lat="44.80867599184551" lon="9.702292658468547"><ele>639.6666666666667</ele><time>2026-05-03T15:29:49Z</time></trkpt><trkpt lat="44.80876660479792" lon="9.702256997470327"><ele>639.5</ele><time>2026-05-03T15:29:50Z</time></trkpt><trkpt lat="44.808850597539745" lon="9.70223288083531"><ele>639.3333333333334</ele><time>2026-05-03T15:29:51Z</time></trkpt><trkpt lat="44.80892469612348" lon="9.702214367052377"><ele>639.1666666666666</ele><time>2026-05-03T15:29:51.999Z</time></trkpt><trkpt lat="44.808992401333214" lon="9.702195259257223"><ele>639.0</ele><time>2026-05-03T15:29:52.999Z</time></trkpt><trkpt lat="44.80907071486339" lon="9.702186460345535"><ele>639.0</ele><time>2026-05-03T15:29:53.999Z</time></trkpt><trkpt lat="44.80916061452488" lon="9.702164999504676"><ele>639.0</ele><time>2026-05-03T15:29:54.999Z</time></trkpt><trkpt lat="44.80925626289282" lon="9.702134811985896"><ele>639.0</ele><time>2026-05-03T15:29:55.999Z</time></trkpt><trkpt lat="44.80935750311502" lon="9.70210619365258"><ele>639.0</ele><time>2026-05-03T15:29:56.999Z</time></trkpt><trkpt lat="44.8094682266387" lon="9.70206561422354"><ele>639.0</ele><time>2026-05-03T15:29:57.999Z</time></trkpt><trkpt lat="44.809584692438165" lon="9.702017144985229"><ele>637.25</ele><time>2026-05-03T15:29:58.999Z</time></trkpt><trkpt lat="44.80969940267267" lon="9.701964027711545"><ele>635.5</ele><time>2026-05-03T15:29:59.999Z</time></trkpt><trkpt lat="44.80981015844218" lon="9.701914261705793"><ele>633.75</ele><time>2026-05-03T15:30:00.999Z</time></trkpt><trkpt lat="44.80991738122746" lon="9.701877443229954"><ele>632.0</ele><time>2026-05-03T15:30:01.999Z</time></trkpt><trkpt lat="44.81002427200226" lon="9.701844892888545"><ele>632.0</ele><time>2026-05-03T15:30:02.999Z</time></trkpt><trkpt lat="44.81012582316995" lon="9.701817835298938"><ele>632.0</ele><time>2026-05-03T15:30:03.999Z</time></trkpt><trkpt lat="44.810228774650334" lon="9.701810951290442"><ele>632.0</ele><time>2026-05-03T15:30:04.999Z</time></trkpt><trkpt lat="44.81032706501726" lon="9.701824327217018"><ele>632.0</ele><time>2026-05-03T15:30:05.999Z</time></trkpt><trkpt lat="44.81042344786355" lon="9.701854069465915"><ele>632.0</ele><time>2026-05-03T15:30:06.999Z</time></trkpt><trkpt lat="44.81052238918589" lon="9.701877017652972"><ele>630.0</ele><time>2026-05-03T15:30:07.999Z</time></trkpt><trkpt lat="44.81062061050473" lon="9.701901127274272"><ele>628.0</ele><time>2026-05-03T15:30:08.999Z</time></trkpt><trkpt lat="44.81072844545734" lon="9.701908818527135"><ele>626.0</ele><time>2026-05-03T15:30:09.999Z</time></trkpt><trkpt lat="44.81083928067987" lon="9.701905797556254"><ele>624.0</ele><time>2026-05-03T15:30:10.999Z</time></trkpt><trkpt lat="44.81095555461761" lon="9.701907745843958"><ele>622.0</ele><time>2026-05-03T15:30:11.999Z</time></trkpt><trkpt lat="44.81107984863932" lon="9.7019178799235"><ele>618.6</ele><time>2026-05-03T15:30:12.999Z</time></trkpt><trkpt lat="44.811191833575904" lon="9.701937003489341"><ele>615.2</ele><time>2026-05-03T15:30:13.999Z</time></trkpt><trkpt lat="44.81129463873033" lon="9.701944211999264"><ele>611.8</ele><time>2026-05-03T15:30:14.999Z</time></trkpt><trkpt lat="44.81138819265564" lon="9.70195712603133"><ele>608.4</ele><time>2026-05-03T15:30:15.999Z</time></trkpt><trkpt lat="44.81148494156504" lon="9.701988657427874"><ele>605.0</ele><time>2026-05-03T15:30:16.999Z</time></trkpt><trkpt lat="44.81157810804312" lon="9.702051328824522"><ele>605.0</ele><time>2026-05-03T15:30:17.999Z</time></trkpt><trkpt lat="44.81166732295669" lon="9.70212539097601"><ele>605.0</ele><time>2026-05-03T15:30:18.999Z</time></trkpt><trkpt lat="44.81176002154443" lon="9.702184777734862"><ele>605.0</ele><time>2026-05-03T15:30:19.999Z</time></trkpt><trkpt lat="44.811863475387476" lon="9.7022130637825"><ele>605.0</ele><time>2026-05-03T15:30:20.999Z</time></trkpt><trkpt lat="44.81197753102118" lon="9.702230420319395"><ele>605.0</ele><time>2026-05-03T15:30:21.999Z</time></trkpt><trkpt lat="44.81206668443537" lon="9.702245978597356"><ele>604.6</ele><time>2026-05-03T15:30:22.999Z</time></trkpt><trkpt lat="44.81213751481128" lon="9.702255701587356"><ele>604.2</ele><time>2026-05-03T15:30:24.999Z</time></trkpt><trkpt lat="44.812097361175496" lon="9.702127214858995"><ele>603.8</ele><time>2026-05-03T15:30:27.999Z</time></trkpt><trkpt lat="44.812027272546516" lon="9.702069217208443"><ele>603.4</ele><time>2026-05-03T15:30:28.999Z</time></trkpt><trkpt lat="44.811949610188286" lon="9.70198025788"><ele>603.0</ele><time>2026-05-03T15:30:29.999Z</time></trkpt><trkpt lat="44.81187551917258" lon="9.701867063523169"><ele>603.1999999999999</ele><time>2026-05-03T15:30:30.999Z</time></trkpt><trkpt lat="44.811798628709944" lon="9.701740185213804"><ele>603.4</ele><time>2026-05-03T15:30:31.999Z</time></trkpt><trkpt lat="44.811724509853654" lon="9.701625201234041"><ele>603.5999999999999</ele><time>2026-05-03T15:30:32.999Z</time></trkpt><trkpt lat="44.81165696860199" lon="9.701562569240592"><ele>603.8</ele><time>2026-05-03T15:30:33.999Z</time></trkpt><trkpt lat="44.811593268000365" lon="9.701507256226856"><ele>604.0</ele><time>2026-05-03T15:30:34.999Z</time></trkpt><trkpt lat="44.81153861354076" lon="9.701428420378486"><ele>604.0</ele><time>2026-05-03T15:30:35.999Z</time></trkpt><trkpt lat="44.811489620669796" lon="9.701313450680043"><ele>604.0</ele><time>2026-05-03T15:30:36.999Z</time></trkpt><trkpt lat="44.81143815858292" lon="9.701188616390988"><ele>604.0</ele><time>2026-05-03T15:30:37.999Z</time></trkpt><trkpt lat="44.81140148362567" lon="9.701061329088182"><ele>604.0</ele><time>2026-05-03T15:30:38.999Z</time></trkpt><trkpt lat="44.81138431694189" lon="9.700921432489265"><ele>604.0</ele><time>2026-05-03T15:30:39.999Z</time></trkpt><trkpt lat="44.811372850733754" lon="9.7007855763442"><ele>602.6</ele><time>2026-05-03T15:30:40.999Z</time></trkpt><trkpt lat="44.81134340790397" lon="9.700658840970675"><ele>601.2</ele><time>2026-05-03T15:30:41.999Z</time></trkpt><trkpt lat="44.81130663988647" lon="9.700540430766454"><ele>599.8000000000001</ele><time>2026-05-03T15:30:42.999Z</time></trkpt><trkpt lat="44.81126597965965" lon="9.700423383548745"><ele>598.4</ele><time>2026-05-03T15:30:43.999Z</time></trkpt><trkpt lat="44.811211852750596" lon="9.700311321891254"><ele>597.0</ele><time>2026-05-03T15:30:44.999Z</time></trkpt><trkpt lat="44.81114997929214" lon="9.700203287375334"><ele>596.0</ele><time>2026-05-03T15:30:45.999Z</time></trkpt><trkpt lat="44.811089224247006" lon="9.700100631704148"><ele>595.0</ele><time>2026-05-03T15:30:46.999Z</time></trkpt><trkpt lat="44.81103241128799" lon="9.69998327949296"><ele>594.0</ele><time>2026-05-03T15:30:47.999Z</time></trkpt><trkpt lat="44.810983472304855" lon="9.699860152215466"><ele>593.0</ele><time>2026-05-03T15:30:48.999Z</time></trkpt><trkpt lat="44.81094913990881" lon="9.699744368330798"><ele>592.0</ele><time>2026-05-03T15:30:49.999Z</time></trkpt><trkpt lat="44.81093657909944" lon="9.699643367792586"><ele>592.0</ele><time>2026-05-03T15:30:50.998Z</time></trkpt><trkpt lat="44.81094452226068" lon="9.699528531253288"><ele>592.0</ele><time>2026-05-03T15:30:51.998Z</time></trkpt><trkpt lat="44.810955302560394" lon="9.69939434187333"><ele>592.0</ele><time>2026-05-03T15:30:52.998Z</time></trkpt><trkpt lat="44.81096591091366" lon="9.699256842336059"><ele>592.0</ele><time>2026-05-03T15:30:53.998Z</time></trkpt><trkpt lat="44.81099326450325" lon="9.699126240359051"><ele>592.0</ele><time>2026-05-03T15:30:54.998Z</time></trkpt><trkpt lat="44.81103261523147" lon="9.698984600654533"><ele>588.0</ele><time>2026-05-03T15:30:55.998Z</time></trkpt><trkpt lat="44.811079952964135" lon="9.698824690176624"><ele>584.0</ele><time>2026-05-03T15:30:56.998Z</time></trkpt><trkpt lat="44.81112475238353" lon="9.698669730326923"><ele>580.0</ele><time>2026-05-03T15:30:57.998Z</time></trkpt><trkpt lat="44.81117133304148" lon="9.69852980366944"><ele>576.0</ele><time>2026-05-03T15:30:58.998Z</time></trkpt><trkpt lat="44.811207773313974" lon="9.698390378481964"><ele>574.2</ele><time>2026-05-03T15:30:59.998Z</time></trkpt><trkpt lat="44.811230343848464" lon="9.698233207873766"><ele>572.4000000000001</ele><time>2026-05-03T15:31:00.998Z</time></trkpt><trkpt lat="44.81125610357316" lon="9.698094942870469"><ele>570.6</ele><time>2026-05-03T15:31:01.998Z</time></trkpt><trkpt lat="44.81130665070696" lon="9.697993154097517"><ele>568.8000000000001</ele><time>2026-05-03T15:31:02.998Z</time></trkpt><trkpt lat="44.81135296092898" lon="9.697912225315202"><ele>567.0</ele><time>2026-05-03T15:31:03.998Z</time></trkpt><trkpt lat="44.81134940555775" lon="9.697746803989554"><ele>566.6666666666666</ele><time>2026-05-03T15:31:05.998Z</time></trkpt><trkpt lat="44.81131132248592" lon="9.697662624743579"><ele>566.3333333333334</ele><time>2026-05-03T15:31:06.998Z</time></trkpt><trkpt lat="44.81126494898425" lon="9.697558832586054"><ele>566.0</ele><time>2026-05-03T15:31:07.998Z</time></trkpt><trkpt lat="44.81122679224027" lon="9.69744368164032"><ele>565.6666666666667</ele><time>2026-05-03T15:31:08.998Z</time></trkpt><trkpt lat="44.81120496135487" lon="9.697325757069926"><ele>565.3333333333334</ele><time>2026-05-03T15:31:09.998Z</time></trkpt><trkpt lat="44.811234888875234" lon="9.69720186842984"><ele>565.0</ele><time>2026-05-03T15:31:10.998Z</time></trkpt><trkpt lat="44.81127118379416" lon="9.69707814332541"><ele>565.0</ele><time>2026-05-03T15:31:11.998Z</time></trkpt><trkpt lat="44.81132214884321" lon="9.696968252056717"><ele>565.0</ele><time>2026-05-03T15:31:13Z</time></trkpt><trkpt lat="44.811375662473985" lon="9.696857777487534"><ele>565.0</ele><time>2026-05-03T15:31:14Z</time></trkpt><trkpt lat="44.81142531444117" lon="9.69674678766828"><ele>565.0</ele><time>2026-05-03T15:31:15Z</time></trkpt><trkpt lat="44.81146308586386" lon="9.696644710917651"><ele>565.0</ele><time>2026-05-03T15:31:16Z</time></trkpt><trkpt lat="44.81149394669607" lon="9.69655116537135"><ele>565.0</ele><time>2026-05-03T15:31:17Z</time></trkpt><trkpt lat="44.811516997168255" lon="9.696452671043891"><ele>563.3333333333334</ele><time>2026-05-03T15:31:18Z</time></trkpt><trkpt lat="44.8115289490023" lon="9.696339133338565"><ele>561.6666666666667</ele><time>2026-05-03T15:31:19Z</time></trkpt><trkpt lat="44.811538237767756" lon="9.69621091686309"><ele>560.0</ele><time>2026-05-03T15:31:20Z</time></trkpt><trkpt lat="44.81154805108895" lon="9.69607017659587"><ele>558.3333333333334</ele><time>2026-05-03T15:31:21Z</time></trkpt><trkpt lat="44.81154835327544" lon="9.695956417607455"><ele>556.6666666666666</ele><time>2026-05-03T15:31:22Z</time></trkpt><trkpt lat="44.81154047414592" lon="9.695864568611453"><ele>555.0</ele><time>2026-05-03T15:31:23Z</time></trkpt><trkpt lat="44.81150996369907" lon="9.695767405039247"><ele>553.8</ele><time>2026-05-03T15:31:24Z</time></trkpt><trkpt lat="44.811452675898366" lon="9.695659065197558"><ele>552.6</ele><time>2026-05-03T15:31:25Z</time></trkpt><trkpt lat="44.81140268024926" lon="9.695544526157107"><ele>551.4</ele><time>2026-05-03T15:31:26Z</time></trkpt><trkpt lat="44.81139267109327" lon="9.695419695102146"><ele>550.2</ele><time>2026-05-03T15:31:27Z</time></trkpt><trkpt lat="44.81139696440438" lon="9.695290932180379"><ele>549.0</ele><time>2026-05-03T15:31:28Z</time></trkpt><trkpt lat="44.81140482497679" lon="9.695174892225353"><ele>547.8</ele><time>2026-05-03T15:31:29Z</time></trkpt><trkpt lat="44.81139476845085" lon="9.695075298976072"><ele>546.5999999999999</ele><time>2026-05-03T15:31:30Z</time></trkpt><trkpt lat="44.811340397760546" lon="9.694942354923215"><ele>545.4</ele><time>2026-05-03T15:31:32Z</time></trkpt><trkpt lat="44.81126855448692" lon="9.694835984414132"><ele>544.1999999999999</ele><time>2026-05-03T15:31:34Z</time></trkpt><trkpt lat="44.81126537864265" lon="9.69469554390418"><ele>543.0</ele><time>2026-05-03T15:31:36Z</time></trkpt><trkpt lat="44.81127010617837" lon="9.69458510673443"><ele>543.0</ele><time>2026-05-03T15:31:38Z</time></trkpt><trkpt lat="44.811265090347945" lon="9.694484737513621"><ele>543.0</ele><time>2026-05-03T15:31:40Z</time></trkpt><trkpt lat="44.81123440891422" lon="9.694352146781709"><ele>543.0</ele><time>2026-05-03T15:31:42Z</time></trkpt><trkpt lat="44.8112400949373" lon="9.694250886394585"><ele>543.0</ele><time>2026-05-03T15:31:44Z</time></trkpt><trkpt lat="44.811261018003705" lon="9.694159860337171"><ele>543.0</ele><time>2026-05-03T15:31:45Z</time></trkpt><trkpt lat="44.811276629949226" lon="9.694029235355444"><ele>543.0</ele><time>2026-05-03T15:31:46Z</time></trkpt><trkpt lat="44.811274452805726" lon="9.693872218809702"><ele>541.4</ele><time>2026-05-03T15:31:47Z</time></trkpt><trkpt lat="44.81125048952631" lon="9.6937111630719"><ele>539.8</ele><time>2026-05-03T15:31:48Z</time></trkpt><trkpt lat="44.8112346714054" lon="9.693550256940847"><ele>538.2</ele><time>2026-05-03T15:31:49Z</time></trkpt><trkpt lat="44.81124465371801" lon="9.693390304730567"><ele>536.6</ele><time>2026-05-03T15:31:50Z</time></trkpt><trkpt lat="44.81127919917057" lon="9.693257137146455"><ele>535.0</ele><time>2026-05-03T15:31:51Z</time></trkpt><trkpt lat="44.81131906441695" lon="9.693142316082639"><ele>534.6666666666667</ele><time>2026-05-03T15:31:52Z</time></trkpt><trkpt lat="44.81135580421495" lon="9.693040355513622"><ele>534.3333333333334</ele><time>2026-05-03T15:31:53Z</time></trkpt><trkpt lat="44.81139160884568" lon="9.692937964545187"><ele>534.0</ele><time>2026-05-03T15:31:54Z</time></trkpt><trkpt lat="44.81142606582247" lon="9.692839582288354"><ele>533.6666666666666</ele><time>2026-05-03T15:31:55Z</time></trkpt><trkpt lat="44.81146139204721" lon="9.692734218777936"><ele>533.3333333333333</ele><time>2026-05-03T15:31:56Z</time></trkpt><trkpt lat="44.81149808965522" lon="9.692633911486743"><ele>533.0</ele><time>2026-05-03T15:31:56.999Z</time></trkpt><trkpt lat="44.811539312327845" lon="9.692534311996758"><ele>533.0</ele><time>2026-05-03T15:31:57.999Z</time></trkpt><trkpt lat="44.811576145225125" lon="9.692431472738372"><ele>533.0</ele><time>2026-05-03T15:31:58.999Z</time></trkpt><trkpt lat="44.81159644310377" lon="9.692345545021116"><ele>533.0</ele><time>2026-05-03T15:31:59.999Z</time></trkpt><trkpt lat="44.811604463755955" lon="9.69225533329177"><ele>533.0</ele><time>2026-05-03T15:32:00.999Z</time></trkpt><trkpt lat="44.81159493743917" lon="9.69216356638406"><ele>533.0</ele><time>2026-05-03T15:32:01.999Z</time></trkpt><trkpt lat="44.811597857338924" lon="9.692052870055864"><ele>533.0</ele><time>2026-05-03T15:32:02.999Z</time></trkpt><trkpt lat="44.811636990169085" lon="9.691925449307464"><ele>532.1999999999999</ele><time>2026-05-03T15:32:03.999Z</time></trkpt><trkpt lat="44.81166041342681" lon="9.691788445929694"><ele>531.4</ele><time>2026-05-03T15:32:04.999Z</time></trkpt><trkpt lat="44.811680115987784" lon="9.691655398131394"><ele>530.5999999999999</ele><time>2026-05-03T15:32:05.999Z</time></trkpt><trkpt lat="44.81171791658236" lon="9.691529812230774"><ele>529.8</ele><time>2026-05-03T15:32:06.999Z</time></trkpt><trkpt lat="44.811772247158544" lon="9.691403641839084"><ele>529.0</ele><time>2026-05-03T15:32:07.999Z</time></trkpt><trkpt lat="44.8118214490389" lon="9.691257520558345"><ele>527.0</ele><time>2026-05-03T15:32:08.999Z</time></trkpt><trkpt lat="44.811850902813674" lon="9.691102217515473"><ele>525.0</ele><time>2026-05-03T15:32:09.999Z</time></trkpt><trkpt lat="44.811874383451745" lon="9.690942521387536"><ele>523.0</ele><time>2026-05-03T15:32:10.999Z</time></trkpt><trkpt lat="44.81190878404438" lon="9.690809582599433"><ele>521.0</ele><time>2026-05-03T15:32:11.999Z</time></trkpt><trkpt lat="44.811976612589305" lon="9.690704174547816"><ele>519.0</ele><time>2026-05-03T15:32:12.999Z</time></trkpt><trkpt lat="44.81205426616839" lon="9.690616407095156"><ele>517.6</ele><time>2026-05-03T15:32:13.999Z</time></trkpt><trkpt lat="44.81212745241035" lon="9.690549512187658"><ele>516.2</ele><time>2026-05-03T15:32:14.999Z</time></trkpt><trkpt lat="44.81222586128274" lon="9.690508110403009"><ele>514.8000000000001</ele><time>2026-05-03T15:32:16.999Z</time></trkpt><trkpt lat="44.8123421833038" lon="9.690591777925986"><ele>513.4</ele><time>2026-05-03T15:32:18.999Z</time></trkpt><trkpt lat="44.81240344996002" lon="9.690669962745119"><ele>512.0</ele><time>2026-05-03T15:32:19.999Z</time></trkpt><trkpt lat="44.81248670654267" lon="9.690743631753685"><ele>512.0</ele><time>2026-05-03T15:32:20.999Z</time></trkpt><trkpt lat="44.8125896475667" lon="9.690773531815408"><ele>512.0</ele><time>2026-05-03T15:32:21.999Z</time></trkpt><trkpt lat="44.8126960101022" lon="9.69075706485624"><ele>512.0</ele><time>2026-05-03T15:32:22.999Z</time></trkpt><trkpt lat="44.81279521672556" lon="9.690756471473188"><ele>512.0</ele><time>2026-05-03T15:32:23.999Z</time></trkpt><trkpt lat="44.812889812754" lon="9.690800276383936"><ele>512.0</ele><time>2026-05-03T15:32:24.999Z</time></trkpt><trkpt lat="44.81298194776491" lon="9.690875060588207"><ele>510.75</ele><time>2026-05-03T15:32:25.999Z</time></trkpt><trkpt lat="44.81307667329363" lon="9.690968817817373"><ele>509.5</ele><time>2026-05-03T15:32:26.999Z</time></trkpt><trkpt lat="44.81318028874402" lon="9.691078227894797"><ele>508.25</ele><time>2026-05-03T15:32:27.999Z</time></trkpt><trkpt lat="44.81328139177189" lon="9.691184180939239"><ele>507.0</ele><time>2026-05-03T15:32:28.999Z</time></trkpt><trkpt lat="44.8133782995143" lon="9.691266121880298"><ele>507.0</ele><time>2026-05-03T15:32:29.999Z</time></trkpt><trkpt lat="44.813453523222414" lon="9.6913098933595"><ele>507.00000000000006</ele><time>2026-05-03T15:32:30.999Z</time></trkpt><trkpt lat="44.8135153328085" lon="9.691374098186161"><ele>507.00000000000006</ele><time>2026-05-03T15:32:31.999Z</time></trkpt><trkpt lat="44.81357160590047" lon="9.691479171630418"><ele>507.0</ele><time>2026-05-03T15:32:32.999Z</time></trkpt><trkpt lat="44.81364369024802" lon="9.691608180949846"><ele>507.0</ele><time>2026-05-03T15:32:33.999Z</time></trkpt><trkpt lat="44.813733484054865" lon="9.691754449063236"><ele>503.5</ele><time>2026-05-03T15:32:34.999Z</time></trkpt><trkpt lat="44.813836258838826" lon="9.69188675705198"><ele>500.0</ele><time>2026-05-03T15:32:35.999Z</time></trkpt><trkpt lat="44.813938749560656" lon="9.691995503366908"><ele>496.5</ele><time>2026-05-03T15:32:36.999Z</time></trkpt><trkpt lat="44.81404155191761" lon="9.692082375159993"><ele>493.0</ele><time>2026-05-03T15:32:37.999Z</time></trkpt><trkpt lat="44.81414411569383" lon="9.692171631075517"><ele>493.0</ele><time>2026-05-03T15:32:38.999Z</time></trkpt><trkpt lat="44.814223322045805" lon="9.692294615245958"><ele>493.0</ele><time>2026-05-03T15:32:39.999Z</time></trkpt><trkpt lat="44.81424644907427" lon="9.692458822406264"><ele>493.0</ele><time>2026-05-03T15:32:40.999Z</time></trkpt><trkpt lat="44.81427111822798" lon="9.692622575279925"><ele>493.0</ele><time>2026-05-03T15:32:41.999Z</time></trkpt><trkpt lat="44.81427797556919" lon="9.692795507529468"><ele>492.59999999999997</ele><time>2026-05-03T15:32:42.999Z</time></trkpt><trkpt lat="44.81426460048095" lon="9.692954945113076"><ele>492.19999999999993</ele><time>2026-05-03T15:32:43.999Z</time></trkpt><trkpt lat="44.81423850615157" lon="9.693106335579667"><ele>491.8</ele><time>2026-05-03T15:32:44.999Z</time></trkpt><trkpt lat="44.81420539758111" lon="9.693255168236098"><ele>491.4</ele><time>2026-05-03T15:32:45.999Z</time></trkpt><trkpt lat="44.814154522875036" lon="9.693372587260283"><ele>491.0</ele><time>2026-05-03T15:32:46.999Z</time></trkpt><trkpt lat="44.81408992789383" lon="9.693463738415455"><ele>491.0</ele><time>2026-05-03T15:32:47.999Z</time></trkpt><trkpt lat="44.81403540473541" lon="9.693512601092948"><ele>491.0</ele><time>2026-05-03T15:32:48.999Z</time></trkpt><trkpt lat="44.81405028890612" lon="9.693670138472092"><ele>491.0</ele><time>2026-05-03T15:32:50.999Z</time></trkpt><trkpt lat="44.81411087958935" lon="9.69373308624096"><ele>491.0</ele><time>2026-05-03T15:32:51.999Z</time></trkpt><trkpt lat="44.814212748662314" lon="9.69375194912806"><ele>491.0</ele><time>2026-05-03T15:32:52.999Z</time></trkpt><trkpt lat="44.81431978658753" lon="9.693733062981384"><ele>487.0</ele><time>2026-05-03T15:32:53.999Z</time></trkpt><trkpt lat="44.81443145947094" lon="9.693749138529002"><ele>483.0</ele><time>2026-05-03T15:32:54.999Z</time></trkpt><trkpt lat="44.81453352335058" lon="9.693825847733603"><ele>479.0</ele><time>2026-05-03T15:32:55.998Z</time></trkpt><trkpt lat="44.81462653857993" lon="9.693937960883932"><ele>475.0</ele><time>2026-05-03T15:32:56.998Z</time></trkpt><trkpt lat="44.81470626779342" lon="9.694101921600085"><ele>475.0</ele><time>2026-05-03T15:32:57.998Z</time></trkpt><trkpt lat="44.81479718148744" lon="9.694271152938231"><ele>475.0</ele><time>2026-05-03T15:32:58.998Z</time></trkpt><trkpt lat="44.8148847307432" lon="9.694422285752944"><ele>475.0</ele><time>2026-05-03T15:32:59.998Z</time></trkpt><trkpt lat="44.81497220075737" lon="9.694560022720045"><ele>475.0</ele><time>2026-05-03T15:33:00.998Z</time></trkpt><trkpt lat="44.81508017089372" lon="9.694671119803154"><ele>473.0</ele><time>2026-05-03T15:33:01.998Z</time></trkpt><trkpt lat="44.81520724639557" lon="9.694758305535636"><ele>471.0</ele><time>2026-05-03T15:33:02.998Z</time></trkpt><trkpt lat="44.815333945460054" lon="9.694833077702748"><ele>469.0</ele><time>2026-05-03T15:33:03.998Z</time></trkpt><trkpt lat="44.81544292163634" lon="9.694892047366414"><ele>467.0</ele><time>2026-05-03T15:33:04.998Z</time></trkpt><trkpt lat="44.81552477252324" lon="9.694959005070853"><ele>467.0</ele><time>2026-05-03T15:33:05.998Z</time></trkpt><trkpt lat="44.81558150867315" lon="9.69505470734389"><ele>467.00000000000006</ele><time>2026-05-03T15:33:06.998Z</time></trkpt><trkpt lat="44.81561572455388" lon="9.695175546989955"><ele>467.00000000000006</ele><time>2026-05-03T15:33:07.998Z</time></trkpt><trkpt lat="44.81564214168341" lon="9.695321657253656"><ele>467.0</ele><time>2026-05-03T15:33:08.998Z</time></trkpt><trkpt lat="44.81569576410178" lon="9.695453750728774"><ele>467.0</ele><time>2026-05-03T15:33:09.998Z</time></trkpt><trkpt lat="44.815773279194126" lon="9.69555446286935"><ele>467.20000000000005</ele><time>2026-05-03T15:33:10.998Z</time></trkpt><trkpt lat="44.81586761276775" lon="9.69559221442844"><ele>467.40000000000003</ele><time>2026-05-03T15:33:12.998Z</time></trkpt><trkpt lat="44.815938480535934" lon="9.695504252038843"><ele>467.59999999999997</ele><time>2026-05-03T15:33:14.998Z</time></trkpt><trkpt lat="44.81598762506778" lon="9.69542578597459"><ele>467.79999999999995</ele><time>2026-05-03T15:33:15.998Z</time></trkpt><trkpt lat="44.81605582652072" lon="9.695327258965184"><ele>468.0</ele><time>2026-05-03T15:33:16.998Z</time></trkpt><trkpt lat="44.81613524334637" lon="9.695210776615687"><ele>466.75</ele><time>2026-05-03T15:33:17.998Z</time></trkpt><trkpt lat="44.816172901207835" lon="9.695072091279094"><ele>465.5</ele><time>2026-05-03T15:33:19Z</time></trkpt><trkpt lat="44.81617375767536" lon="9.694911642556425"><ele>464.25</ele><time>2026-05-03T15:33:20Z</time></trkpt><trkpt lat="44.8161555127902" lon="9.694736889375587"><ele>463.0</ele><time>2026-05-03T15:33:21Z</time></trkpt><trkpt lat="44.81616937183109" lon="9.694570504211168"><ele>462.0</ele><time>2026-05-03T15:33:22Z</time></trkpt><trkpt lat="44.81623359066834" lon="9.69440732897666"><ele>461.0</ele><time>2026-05-03T15:33:23Z</time></trkpt><trkpt lat="44.816332568910234" lon="9.694244062846623"><ele>460.0</ele><time>2026-05-03T15:33:24Z</time></trkpt><trkpt lat="44.81641847647613" lon="9.694066268114861"><ele>459.0</ele><time>2026-05-03T15:33:25Z</time></trkpt><trkpt lat="44.816471112547895" lon="9.693880383994863"><ele>459.0</ele><time>2026-05-03T15:33:26Z</time></trkpt><trkpt lat="44.816502488225275" lon="9.693685807565675"><ele>459.0</ele><time>2026-05-03T15:33:27Z</time></trkpt><trkpt lat="44.81653139219051" lon="9.693492448830389"><ele>459.0</ele><time>2026-05-03T15:33:28Z</time></trkpt><trkpt lat="44.816565940399514" lon="9.693313037380147"><ele>459.0</ele><time>2026-05-03T15:33:29Z</time></trkpt><trkpt lat="44.816613307050176" lon="9.693170122899108"><ele>457.79999999999995</ele><time>2026-05-03T15:33:30Z</time></trkpt><trkpt lat="44.816663058775944" lon="9.69305872821584"><ele>456.59999999999997</ele><time>2026-05-03T15:33:31Z</time></trkpt><trkpt lat="44.81669250448012" lon="9.692943072587223"><ele>455.4</ele><time>2026-05-03T15:33:32Z</time></trkpt><trkpt lat="44.81668460284446" lon="9.692811310524796"><ele>454.2</ele><time>2026-05-03T15:33:33Z</time></trkpt><trkpt lat="44.816632755076625" lon="9.692656840500288"><ele>453.0</ele><time>2026-05-03T15:33:34Z</time></trkpt><trkpt lat="44.816540199047715" lon="9.692490832914578"><ele>451.5</ele><time>2026-05-03T15:33:35Z</time></trkpt><trkpt lat="44.816446515181866" lon="9.692309951581944"><ele>450.0</ele><time>2026-05-03T15:33:36Z</time></trkpt><trkpt lat="44.816361397184636" lon="9.692159534312395"><ele>448.5</ele><time>2026-05-03T15:33:37Z</time></trkpt><trkpt lat="44.81625437275121" lon="9.69203520891762"><ele>447.0</ele><time>2026-05-03T15:33:38Z</time></trkpt><trkpt lat="44.81612352998921" lon="9.691952774347811"><ele>447.0</ele><time>2026-05-03T15:33:39Z</time></trkpt><trkpt lat="44.81600561097562" lon="9.691929024101308"><ele>447.00000000000006</ele><time>2026-05-03T15:33:40Z</time></trkpt><trkpt lat="44.81591789731224" lon="9.691908510348942"><ele>447.00000000000006</ele><time>2026-05-03T15:33:41Z</time></trkpt><trkpt lat="44.81585590997933" lon="9.691845573805727"><ele>447.0</ele><time>2026-05-03T15:33:42Z</time></trkpt><trkpt lat="44.815799631954434" lon="9.691740208816398"><ele>447.0</ele><time>2026-05-03T15:33:43Z</time></trkpt><trkpt lat="44.815760380459075" lon="9.691605552269941"><ele>447.6</ele><time>2026-05-03T15:33:44Z</time></trkpt><trkpt lat="44.81575137046801" lon="9.691459816968731"><ele>448.20000000000005</ele><time>2026-05-03T15:33:45Z</time></trkpt><trkpt lat="44.81576435151892" lon="9.691319130368479"><ele>448.8</ele><time>2026-05-03T15:33:46Z</time></trkpt><trkpt lat="44.81577202151924" lon="9.691184159790739"><ele>449.4</ele><time>2026-05-03T15:33:47Z</time></trkpt><trkpt lat="44.81576476954431" lon="9.691050666094522"><ele>450.0</ele><time>2026-05-03T15:33:48Z</time></trkpt><trkpt lat="44.815747444161275" lon="9.690920443714594"><ele>450.0</ele><time>2026-05-03T15:33:49Z</time></trkpt><trkpt lat="44.8157144918429" lon="9.690784485651896"><ele>450.0</ele><time>2026-05-03T15:33:50Z</time></trkpt><trkpt lat="44.8156815943177" lon="9.690647969591847"><ele>450.0</ele><time>2026-05-03T15:33:51Z</time></trkpt><trkpt lat="44.815649343134986" lon="9.690516533413943"><ele>450.0</ele><time>2026-05-03T15:33:52Z</time></trkpt><trkpt lat="44.8156152279141" lon="9.690398972188834"><ele>450.0</ele><time>2026-05-03T15:33:53Z</time></trkpt><trkpt lat="44.815568518666325" lon="9.690293393596308"><ele>448.8</ele><time>2026-05-03T15:33:54Z</time></trkpt><trkpt lat="44.81550634342906" lon="9.690202224497787"><ele>447.6</ele><time>2026-05-03T15:33:55Z</time></trkpt><trkpt lat="44.81542389257773" lon="9.690115699866427"><ele>446.4</ele><time>2026-05-03T15:33:56Z</time></trkpt><trkpt lat="44.81534539428684" lon="9.690043932696534"><ele>445.2</ele><time>2026-05-03T15:33:57Z</time></trkpt><trkpt lat="44.815270911537766" lon="9.68996754507617"><ele>444.0</ele><time>2026-05-03T15:33:58Z</time></trkpt><trkpt lat="44.81520463076074" lon="9.689872414208672"><ele>443.5</ele><time>2026-05-03T15:33:59Z</time></trkpt><trkpt lat="44.81515048962384" lon="9.689774745298388"><ele>443.0</ele><time>2026-05-03T15:34:00Z</time></trkpt><trkpt lat="44.815108753137224" lon="9.68967322080001"><ele>442.5</ele><time>2026-05-03T15:34:00.999Z</time></trkpt><trkpt lat="44.81509269924665" lon="9.689582935669932"><ele>442.0</ele><time>2026-05-03T15:34:01.999Z</time></trkpt><trkpt lat="44.815111774061194" lon="9.689496871619149"><ele>441.5</ele><time>2026-05-03T15:34:02.999Z</time></trkpt><trkpt lat="44.81515320642295" lon="9.689428983471764"><ele>441.0</ele><time>2026-05-03T15:34:03.999Z</time></trkpt><trkpt lat="44.81523911254561" lon="9.689345539410315"><ele>441.0</ele><time>2026-05-03T15:34:05.999Z</time></trkpt><trkpt lat="44.81522564175024" lon="9.689201317921226"><ele>441.0</ele><time>2026-05-03T15:34:07.999Z</time></trkpt><trkpt lat="44.81518134098341" lon="9.689122522512385"><ele>441.0</ele><time>2026-05-03T15:34:08.999Z</time></trkpt><trkpt lat="44.815137847554254" lon="9.68903408069939"><ele>441.0</ele><time>2026-05-03T15:34:09.999Z</time></trkpt><trkpt lat="44.81509863916271" lon="9.68894164679451"><ele>441.0</ele><time>2026-05-03T15:34:10.999Z</time></trkpt><trkpt lat="44.8150675704984" lon="9.688841062392866"><ele>441.0</ele><time>2026-05-03T15:34:11.999Z</time></trkpt><trkpt lat="44.81505024471566" lon="9.688732224896244"><ele>441.1666666666667</ele><time>2026-05-03T15:34:12.999Z</time></trkpt><trkpt lat="44.815051904115826" lon="9.68862014604619"><ele>441.33333333333337</ele><time>2026-05-03T15:34:13.999Z</time></trkpt><trkpt lat="44.81509027127103" lon="9.688508818347243"><ele>441.5</ele><time>2026-05-03T15:34:14.999Z</time></trkpt><trkpt lat="44.815149903455335" lon="9.688416752178313"><ele>441.6666666666667</ele><time>2026-05-03T15:34:15.999Z</time></trkpt><trkpt lat="44.8152303369344" lon="9.688345167632832"><ele>441.83333333333337</ele><time>2026-05-03T15:34:16.999Z</time></trkpt><trkpt lat="44.81531354612569" lon="9.688290645446754"><ele>442.0</ele><time>2026-05-03T15:34:17.999Z</time></trkpt><trkpt lat="44.81539434739379" lon="9.688246733854458"><ele>440.6666666666667</ele><time>2026-05-03T15:34:18.999Z</time></trkpt><trkpt lat="44.815473330701764" lon="9.688210289664369"><ele>439.33333333333337</ele><time>2026-05-03T15:34:19.999Z</time></trkpt><trkpt lat="44.81555743111867" lon="9.688196727211642"><ele>438.0</ele><time>2026-05-03T15:34:20.999Z</time></trkpt><trkpt lat="44.81564145074911" lon="9.688236067835623"><ele>436.66666666666663</ele><time>2026-05-03T15:34:21.999Z</time></trkpt><trkpt lat="44.81572157775479" lon="9.688289598032231"><ele>435.3333333333333</ele><time>2026-05-03T15:34:22.999Z</time></trkpt><trkpt lat="44.8158112139619" lon="9.68830673701334"><ele>434.0</ele><time>2026-05-03T15:34:23.999Z</time></trkpt><trkpt lat="44.8159046397529" lon="9.688285509109258"><ele>430.0</ele><time>2026-05-03T15:34:24.999Z</time></trkpt><trkpt lat="44.81600142462892" lon="9.68824206710866"><ele>426.0</ele><time>2026-05-03T15:34:25.999Z</time></trkpt><trkpt lat="44.816112474298436" lon="9.688192695218255"><ele>422.0</ele><time>2026-05-03T15:34:26.999Z</time></trkpt><trkpt lat="44.81622810603625" lon="9.688145831974392"><ele>418.0</ele><time>2026-05-03T15:34:27.999Z</time></trkpt><trkpt lat="44.816356342280095" lon="9.688108591437905"><ele>418.0</ele><time>2026-05-03T15:34:28.999Z</time></trkpt><trkpt lat="44.8164897711073" lon="9.688081249225247"><ele>418.0</ele><time>2026-05-03T15:34:29.999Z</time></trkpt><trkpt lat="44.81661302738553" lon="9.68806168117998"><ele>418.0</ele><time>2026-05-03T15:34:30.999Z</time></trkpt><trkpt lat="44.81671526265932" lon="9.688027577453092"><ele>418.0</ele><time>2026-05-03T15:34:31.999Z</time></trkpt><trkpt lat="44.8168145101103" lon="9.68796174902186"><ele>415.0</ele><time>2026-05-03T15:34:32.999Z</time></trkpt><trkpt lat="44.81690687733304" lon="9.687864865123736"><ele>412.0</ele><time>2026-05-03T15:34:33.999Z</time></trkpt><trkpt lat="44.816993254009724" lon="9.68775569461612"><ele>409.0</ele><time>2026-05-03T15:34:34.999Z</time></trkpt><trkpt lat="44.81706466064357" lon="9.687631702837946"><ele>406.0</ele><time>2026-05-03T15:34:35.999Z</time></trkpt><trkpt lat="44.817112434286955" lon="9.687488436638953"><ele>405.4</ele><time>2026-05-03T15:34:36.999Z</time></trkpt><trkpt lat="44.81712847730645" lon="9.687332416146752"><ele>404.8</ele><time>2026-05-03T15:34:37.999Z</time></trkpt><trkpt lat="44.81712077023118" lon="9.68719699274484"><ele>404.2</ele><time>2026-05-03T15:34:38.999Z</time></trkpt><trkpt lat="44.817118911910484" lon="9.687078275676846"><ele>403.59999999999997</ele><time>2026-05-03T15:34:40.999Z</time></trkpt><trkpt lat="44.81720758726225" lon="9.687047059660655"><ele>403.0</ele><time>2026-05-03T15:34:43.999Z</time></trkpt><trkpt lat="44.81726023729839" lon="9.687103804376697"><ele>403.00000000000006</ele><time>2026-05-03T15:34:44.999Z</time></trkpt><trkpt lat="44.81730841726744" lon="9.68718145041303"><ele>403.0</ele><time>2026-05-03T15:34:45.999Z</time></trkpt><trkpt lat="44.817362060887525" lon="9.687244213919252"><ele>403.0</ele><time>2026-05-03T15:34:46.999Z</time></trkpt><trkpt lat="44.8174188966026" lon="9.687315575822685"><ele>403.0</ele><time>2026-05-03T15:34:47.999Z</time></trkpt><trkpt lat="44.81746799707478" lon="9.687372418345397"><ele>403.00000000000006</ele><time>2026-05-03T15:34:48.999Z</time></trkpt><trkpt lat="44.81754934213499" lon="9.68748574766773"><ele>403.0</ele><time>2026-05-03T15:34:50.999Z</time></trkpt><trkpt lat="44.81763459198003" lon="9.687588655977509"><ele>402.33333333333337</ele><time>2026-05-03T15:34:52.999Z</time></trkpt><trkpt lat="44.817721956865874" lon="9.687703657239837"><ele>401.6666666666667</ele><time>2026-05-03T15:34:54.999Z</time></trkpt><trkpt lat="44.81777728877564" lon="9.687777021825307"><ele>401.0</ele><time>2026-05-03T15:34:55.999Z</time></trkpt><trkpt lat="44.81783178259523" lon="9.687839053804367"><ele>400.33333333333337</ele><time>2026-05-03T15:34:56.999Z</time></trkpt><trkpt lat="44.81788906806182" lon="9.687882438774981"><ele>399.6666666666667</ele><time>2026-05-03T15:34:57.999Z</time></trkpt><trkpt lat="44.8179730752083" lon="9.687886906348188"><ele>399.0</ele><time>2026-05-03T15:34:59.998Z</time></trkpt><trkpt lat="44.81804486254655" lon="9.687771845165043"><ele>397.79999999999995</ele><time>2026-05-03T15:35:01.998Z</time></trkpt><trkpt lat="44.81808646310118" lon="9.687699065599517"><ele>396.59999999999997</ele><time>2026-05-03T15:35:02.998Z</time></trkpt><trkpt lat="44.81818146564575" lon="9.687594543654061"><ele>395.4</ele><time>2026-05-03T15:35:04.998Z</time></trkpt><trkpt lat="44.81822492357164" lon="9.68744710199367"><ele>394.2</ele><time>2026-05-03T15:35:06.998Z</time></trkpt><trkpt lat="44.81825425700189" lon="9.687287369144023"><ele>393.0</ele><time>2026-05-03T15:35:08.998Z</time></trkpt><trkpt lat="44.818283140507745" lon="9.68719322121672"><ele>393.0</ele><time>2026-05-03T15:35:09.998Z</time></trkpt><trkpt lat="44.81832272766465" lon="9.687097644048128"><ele>393.0</ele><time>2026-05-03T15:35:10.998Z</time></trkpt><trkpt lat="44.81836566627699" lon="9.687003635728864"><ele>393.0</ele><time>2026-05-03T15:35:11.998Z</time></trkpt><trkpt lat="44.81841452273916" lon="9.68691214160096"><ele>393.0</ele><time>2026-05-03T15:35:12.998Z</time></trkpt><trkpt lat="44.81844778416051" lon="9.686811401216072"><ele>393.0</ele><time>2026-05-03T15:35:13.998Z</time></trkpt><trkpt lat="44.81846976015634" lon="9.686725804623611"><ele>393.0</ele><time>2026-05-03T15:35:14.998Z</time></trkpt><trkpt lat="44.81854565776966" lon="9.686582848604537"><ele>391.5714285714286</ele><time>2026-05-03T15:35:16.998Z</time></trkpt><trkpt lat="44.818591797322355" lon="9.68651182877151"><ele>390.14285714285717</ele><time>2026-05-03T15:35:17.998Z</time></trkpt><trkpt lat="44.81864951814268" lon="9.686446269083216"><ele>388.7142857142857</ele><time>2026-05-03T15:35:18.998Z</time></trkpt><trkpt lat="44.81871690004092" lon="9.686386487375936"><ele>387.28571428571433</ele><time>2026-05-03T15:35:19.998Z</time></trkpt><trkpt lat="44.8187839397767" lon="9.686333550199183"><ele>385.85714285714283</ele><time>2026-05-03T15:35:20.998Z</time></trkpt><trkpt lat="44.818840932499036" lon="9.686277228192116"><ele>384.42857142857144</ele><time>2026-05-03T15:35:21.998Z</time></trkpt><trkpt lat="44.81889232705398" lon="9.686218013613004"><ele>383.0</ele><time>2026-05-03T15:35:22.998Z</time></trkpt><trkpt lat="44.81894628711023" lon="9.686150039465534"><ele>382.5</ele><time>2026-05-03T15:35:23.998Z</time></trkpt><trkpt lat="44.819002205107154" lon="9.686079658696263"><ele>382.0</ele><time>2026-05-03T15:35:25Z</time></trkpt><trkpt lat="44.81906228361481" lon="9.686017989271685"><ele>381.5</ele><time>2026-05-03T15:35:26Z</time></trkpt><trkpt lat="44.81911628728743" lon="9.68595835374934"><ele>381.0</ele><time>2026-05-03T15:35:27Z</time></trkpt><trkpt lat="44.81917553730546" lon="9.6858960138678"><ele>380.5</ele><time>2026-05-03T15:35:28Z</time></trkpt><trkpt lat="44.81924786792147" lon="9.685822063648818"><ele>380.0</ele><time>2026-05-03T15:35:29Z</time></trkpt><trkpt lat="44.81932192989646" lon="9.68574427225124"><ele>378.6666666666667</ele><time>2026-05-03T15:35:30Z</time></trkpt><trkpt lat="44.819387346517026" lon="9.685664745395666"><ele>377.33333333333337</ele><time>2026-05-03T15:35:31Z</time></trkpt><trkpt lat="44.819441403781816" lon="9.685592123487249"><ele>376.0</ele><time>2026-05-03T15:35:32Z</time></trkpt><trkpt lat="44.81949915409165" lon="9.685537090989422"><ele>374.6666666666667</ele><time>2026-05-03T15:35:33Z</time></trkpt><trkpt lat="44.819564722851595" lon="9.68547699309596"><ele>373.3333333333333</ele><time>2026-05-03T15:35:34Z</time></trkpt><trkpt lat="44.81963517113409" lon="9.685407392359101"><ele>372.0</ele><time>2026-05-03T15:35:35Z</time></trkpt><trkpt lat="44.81968708065351" lon="9.685329807302155"><ele>371.3333333333333</ele><time>2026-05-03T15:35:36Z</time></trkpt><trkpt lat="44.81972938108131" lon="9.685256241539165"><ele>370.6666666666667</ele><time>2026-05-03T15:35:37Z</time></trkpt><trkpt lat="44.81979286193265" lon="9.685201762007619"><ele>370.0</ele><time>2026-05-03T15:35:38Z</time></trkpt><trkpt lat="44.81986293420451" lon="9.685149274030493"><ele>369.33333333333337</ele><time>2026-05-03T15:35:39Z</time></trkpt><trkpt lat="44.81993770775819" lon="9.685036415222045"><ele>368.6666666666667</ele><time>2026-05-03T15:35:41Z</time></trkpt><trkpt lat="44.81993906435505" lon="9.684875319981927"><ele>368.0</ele><time>2026-05-03T15:35:43Z</time></trkpt><trkpt lat="44.81998052085277" lon="9.684724351299124"><ele>368.0</ele><time>2026-05-03T15:35:45Z</time></trkpt><trkpt lat="44.82002212386209" lon="9.684654699845451"><ele>368.0</ele><time>2026-05-03T15:35:46Z</time></trkpt><trkpt lat="44.820073183710164" lon="9.684582876317815"><ele>368.0</ele><time>2026-05-03T15:35:47Z</time></trkpt><trkpt lat="44.82012832849099" lon="9.684492551158746"><ele>368.0</ele><time>2026-05-03T15:35:48Z</time></trkpt><trkpt lat="44.82018586764095" lon="9.684385947607051"><ele>368.0</ele><time>2026-05-03T15:35:49Z</time></trkpt><trkpt lat="44.82023177736388" lon="9.684277291099562"><ele>368.0</ele><time>2026-05-03T15:35:50Z</time></trkpt><trkpt lat="44.820261066554565" lon="9.684166630454778"><ele>365.33333333333337</ele><time>2026-05-03T15:35:51Z</time></trkpt><trkpt lat="44.820285239830085" lon="9.684059746053473"><ele>362.6666666666667</ele><time>2026-05-03T15:35:52Z</time></trkpt><trkpt lat="44.8203112704958" lon="9.683962755397543"><ele>360.0</ele><time>2026-05-03T15:35:53Z</time></trkpt><trkpt lat="44.82035334805243" lon="9.683880426482004"><ele>357.3333333333333</ele><time>2026-05-03T15:35:54Z</time></trkpt><trkpt lat="44.82041310263942" lon="9.683814660176989"><ele>354.66666666666663</ele><time>2026-05-03T15:35:55Z</time></trkpt><trkpt lat="44.82047756521346" lon="9.683767428508752"><ele>352.0</ele><time>2026-05-03T15:35:56Z</time></trkpt><trkpt lat="44.82055707051392" lon="9.683742477584193"><ele>352.0</ele><time>2026-05-03T15:35:57Z</time></trkpt><trkpt lat="44.820640053769786" lon="9.683731942897973"><ele>352.0</ele><time>2026-05-03T15:35:58Z</time></trkpt><trkpt lat="44.82072620948165" lon="9.68373941442101"><ele>352.0</ele><time>2026-05-03T15:35:59Z</time></trkpt><trkpt lat="44.820814755242985" lon="9.68374948918896"><ele>352.0</ele><time>2026-05-03T15:36:00Z</time></trkpt><trkpt lat="44.82090762383759" lon="9.683761810923437"><ele>352.0</ele><time>2026-05-03T15:36:01Z</time></trkpt><trkpt lat="44.82100283006523" lon="9.68376247474224"><ele>352.0</ele><time>2026-05-03T15:36:02Z</time></trkpt><trkpt lat="44.82109896766502" lon="9.683781890581354"><ele>350.16666666666663</ele><time>2026-05-03T15:36:03Z</time></trkpt><trkpt lat="44.82118937706614" lon="9.683784912751083"><ele>348.3333333333333</ele><time>2026-05-03T15:36:04Z</time></trkpt><trkpt lat="44.82127383808068" lon="9.683759985136374"><ele>346.5</ele><time>2026-05-03T15:36:05Z</time></trkpt><trkpt lat="44.82135020147896" lon="9.683734697392854"><ele>344.6666666666667</ele><time>2026-05-03T15:36:05.999Z</time></trkpt><trkpt lat="44.82141657305617" lon="9.683714239387186"><ele>342.83333333333337</ele><time>2026-05-03T15:36:06.999Z</time></trkpt><trkpt lat="44.82147955905335" lon="9.683691636432405"><ele>341.0</ele><time>2026-05-03T15:36:07.999Z</time></trkpt><trkpt lat="44.82154309616075" lon="9.683665806539016"><ele>341.0</ele><time>2026-05-03T15:36:08.999Z</time></trkpt><trkpt lat="44.821605002336575" lon="9.683638980264762"><ele>341.0</ele><time>2026-05-03T15:36:09.999Z</time></trkpt><trkpt lat="44.821668564084476" lon="9.683614988024452"><ele>341.0</ele><time>2026-05-03T15:36:10.999Z</time></trkpt><trkpt lat="44.821771214896444" lon="9.683572605101487"><ele>341.0</ele><time>2026-05-03T15:36:12.999Z</time></trkpt><trkpt lat="44.82184505719448" lon="9.683529708948665"><ele>341.0</ele><time>2026-05-03T15:36:14.999Z</time></trkpt><trkpt lat="44.821930964825896" lon="9.683468342629384"><ele>341.0</ele><time>2026-05-03T15:36:16.999Z</time></trkpt><trkpt lat="44.822053962059265" lon="9.683394080932286"><ele>339.0</ele><time>2026-05-03T15:36:18.999Z</time></trkpt><trkpt lat="44.822119366962944" lon="9.683351574746453"><ele>337.0</ele><time>2026-05-03T15:36:19.999Z</time></trkpt><trkpt lat="44.82218339931255" lon="9.68331645677678"><ele>335.0</ele><time>2026-05-03T15:36:20.999Z</time></trkpt><trkpt lat="44.82229713012155" lon="9.683263482579996"><ele>333.0</ele><time>2026-05-03T15:36:22.999Z</time></trkpt><trkpt lat="44.82241024655571" lon="9.683214398421274"><ele>331.0</ele><time>2026-05-03T15:36:24.999Z</time></trkpt><trkpt lat="44.82248086495846" lon="9.683182897527628"><ele>331.0</ele><time>2026-05-03T15:36:25.999Z</time></trkpt><trkpt lat="44.82255629669767" lon="9.68314478417326"><ele>331.0</ele><time>2026-05-03T15:36:26.999Z</time></trkpt><trkpt lat="44.82262239432217" lon="9.68311277234234"><ele>331.0</ele><time>2026-05-03T15:36:27.999Z</time></trkpt><trkpt lat="44.82273805150067" lon="9.683063628084358"><ele>331.0</ele><time>2026-05-03T15:36:29.999Z</time></trkpt><trkpt lat="44.82280822282852" lon="9.68304311573321"><ele>331.0</ele><time>2026-05-03T15:36:30.999Z</time></trkpt><trkpt lat="44.82286706603905" lon="9.683006133882579"><ele>331.0</ele><time>2026-05-03T15:36:31.999Z</time></trkpt><trkpt lat="44.822951404554466" lon="9.682899835942393"><ele>330.16666666666663</ele><time>2026-05-03T15:36:33.999Z</time></trkpt><trkpt lat="44.82305269189485" lon="9.682850079076708"><ele>329.3333333333333</ele><time>2026-05-03T15:36:35.999Z</time></trkpt><trkpt lat="44.823140879967994" lon="9.682865102341932"><ele>328.5</ele><time>2026-05-03T15:36:36.999Z</time></trkpt><trkpt lat="44.823229614301816" lon="9.682870266943866"><ele>327.6666666666667</ele><time>2026-05-03T15:36:37.999Z</time></trkpt><trkpt lat="44.823307013558804" lon="9.682842670496948"><ele>326.83333333333337</ele><time>2026-05-03T15:36:38.999Z</time></trkpt><trkpt lat="44.82336505227689" lon="9.682782290898896"><ele>326.0</ele><time>2026-05-03T15:36:39.999Z</time></trkpt><trkpt lat="44.82339841716014" lon="9.682686969614775"><ele>325.6</ele><time>2026-05-03T15:36:40.999Z</time></trkpt><trkpt lat="44.82342854669154" lon="9.682576820502778"><ele>325.20000000000005</ele><time>2026-05-03T15:36:41.999Z</time></trkpt><trkpt lat="44.823456883399714" lon="9.68243166742524"><ele>324.79999999999995</ele><time>2026-05-03T15:36:42.999Z</time></trkpt><trkpt lat="44.823490137089735" lon="9.682296198901225"><ele>324.4</ele><time>2026-05-03T15:36:43.999Z</time></trkpt><trkpt lat="44.8235324256963" lon="9.682180623392085"><ele>324.0</ele><time>2026-05-03T15:36:44.999Z</time></trkpt><trkpt lat="44.82358231190827" lon="9.682090444932843"><ele>323.0</ele><time>2026-05-03T15:36:45.999Z</time></trkpt><trkpt lat="44.823646765847066" lon="9.682021906241099"><ele>322.0</ele><time>2026-05-03T15:36:46.999Z</time></trkpt><trkpt lat="44.823713971596995" lon="9.681982230840264"><ele>321.0</ele><time>2026-05-03T15:36:47.999Z</time></trkpt><trkpt lat="44.823807093917026" lon="9.681952306183048"><ele>320.0</ele><time>2026-05-03T15:36:49.999Z</time></trkpt><trkpt lat="44.823884868092996" lon="9.682008081138603"><ele>319.0</ele><time>2026-05-03T15:36:51.999Z</time></trkpt><trkpt lat="44.82397289501548" lon="9.682138737689119"><ele>319.0</ele><time>2026-05-03T15:36:53.999Z</time></trkpt><trkpt lat="44.82403108479998" lon="9.682230042165408"><ele>319.0</ele><time>2026-05-03T15:36:54.999Z</time></trkpt><trkpt lat="44.82409686705769" lon="9.682329213395478"><ele>319.0</ele><time>2026-05-03T15:36:55.999Z</time></trkpt><trkpt lat="44.82416653269875" lon="9.682423254448299"><ele>319.0</ele><time>2026-05-03T15:36:56.999Z</time></trkpt><trkpt lat="44.82423067967809" lon="9.68251034785843"><ele>319.0</ele><time>2026-05-03T15:36:57.999Z</time></trkpt><trkpt lat="44.82430566452804" lon="9.68259095973764"><ele>318.75</ele><time>2026-05-03T15:36:58.999Z</time></trkpt><trkpt lat="44.824399034377784" lon="9.682650779305398"><ele>318.5</ele><time>2026-05-03T15:36:59.999Z</time></trkpt><trkpt lat="44.82450365504453" lon="9.682718455675309"><ele>318.25</ele><time>2026-05-03T15:37:00.999Z</time></trkpt><trkpt lat="44.824605918100076" lon="9.6828022439916"><ele>318.0</ele><time>2026-05-03T15:37:01.999Z</time></trkpt><trkpt lat="44.824723145180144" lon="9.682892760855811"><ele>317.25</ele><time>2026-05-03T15:37:02.999Z</time></trkpt><trkpt lat="44.824843574868716" lon="9.682949836086092"><ele>316.5</ele><time>2026-05-03T15:37:03.999Z</time></trkpt><trkpt lat="44.82495091476925" lon="9.683002863037244"><ele>315.75</ele><time>2026-05-03T15:37:04.998Z</time></trkpt><trkpt lat="44.82504721557278" lon="9.68306867683152"><ele>315.0</ele><time>2026-05-03T15:37:05.998Z</time></trkpt><trkpt lat="44.82515533429821" lon="9.683155483445647"><ele>315.0</ele><time>2026-05-03T15:37:06.998Z</time></trkpt><trkpt lat="44.825261164215775" lon="9.683239302709497"><ele>315.0</ele><time>2026-05-03T15:37:07.998Z</time></trkpt><trkpt lat="44.82535665851366" lon="9.683327710882647"><ele>315.0</ele><time>2026-05-03T15:37:08.998Z</time></trkpt><trkpt lat="44.82544051058959" lon="9.683424135264193"><ele>315.0</ele><time>2026-05-03T15:37:09.998Z</time></trkpt><trkpt lat="44.82553194748305" lon="9.683511106861324"><ele>315.0</ele><time>2026-05-03T15:37:10.998Z</time></trkpt><trkpt lat="44.82563202940164" lon="9.683583167399364"><ele>315.0</ele><time>2026-05-03T15:37:11.998Z</time></trkpt><trkpt lat="44.82573600144288" lon="9.683646049116588"><ele>315.0</ele><time>2026-05-03T15:37:12.998Z</time></trkpt><trkpt lat="44.82583669521735" lon="9.683738812795788"><ele>315.0</ele><time>2026-05-03T15:37:13.998Z</time></trkpt><trkpt lat="44.82593988559989" lon="9.683831115604674"><ele>314.2</ele><time>2026-05-03T15:37:14.998Z</time></trkpt><trkpt lat="44.82604602761006" lon="9.683906215933682"><ele>313.4</ele><time>2026-05-03T15:37:15.998Z</time></trkpt><trkpt lat="44.82613698882429" lon="9.683961074919957"><ele>312.6</ele><time>2026-05-03T15:37:16.998Z</time></trkpt><trkpt lat="44.82620866417516" lon="9.684014545407601"><ele>311.8</ele><time>2026-05-03T15:37:17.998Z</time></trkpt><trkpt lat="44.82627336270523" lon="9.684065548285405"><ele>311.0</ele><time>2026-05-03T15:37:18.998Z</time></trkpt><trkpt lat="44.826387002141885" lon="9.684113197339938"><ele>311.0</ele><time>2026-05-03T15:37:20.998Z</time></trkpt><trkpt lat="44.826494986403134" lon="9.684052172458085"><ele>311.0</ele><time>2026-05-03T15:37:22.998Z</time></trkpt><trkpt lat="44.82658978502242" lon="9.683911251979591"><ele>311.0</ele><time>2026-05-03T15:37:24.998Z</time></trkpt><trkpt lat="44.82665489733741" lon="9.683830690359247"><ele>311.0</ele><time>2026-05-03T15:37:25.998Z</time></trkpt><trkpt lat="44.82673551582059" lon="9.683770514520765"><ele>311.0</ele><time>2026-05-03T15:37:26.998Z</time></trkpt><trkpt lat="44.82680306865706" lon="9.683737409042504"><ele>310.8</ele><time>2026-05-03T15:37:27.998Z</time></trkpt><trkpt lat="44.82688023239342" lon="9.683740087531929"><ele>310.6</ele><time>2026-05-03T15:37:28.998Z</time></trkpt><trkpt lat="44.826964969685" lon="9.683772729589906"><ele>310.4</ele><time>2026-05-03T15:37:29.998Z</time></trkpt><trkpt lat="44.82705595938054" lon="9.683830902502176"><ele>310.2</ele><time>2026-05-03T15:37:31Z</time></trkpt><trkpt lat="44.82715002218676" lon="9.683898129710734"><ele>310.0</ele><time>2026-05-03T15:37:32Z</time></trkpt><trkpt lat="44.82724377297972" lon="9.683975237688587"><ele>310.0</ele><time>2026-05-03T15:37:33Z</time></trkpt><trkpt lat="44.827319966767014" lon="9.684033440862036"><ele>310.0</ele><time>2026-05-03T15:37:34Z</time></trkpt><trkpt lat="44.827395131907046" lon="9.68408583554175"><ele>310.0</ele><time>2026-05-03T15:37:35Z</time></trkpt><trkpt lat="44.82746545185957" lon="9.684128649691182"><ele>310.0</ele><time>2026-05-03T15:37:36Z</time></trkpt><trkpt lat="44.82753035500219" lon="9.684169764762812"><ele>310.0</ele><time>2026-05-03T15:37:37Z</time></trkpt><trkpt lat="44.82759729412337" lon="9.684215526076338"><ele>310.0</ele><time>2026-05-03T15:37:38Z</time></trkpt><trkpt lat="44.82767344782659" lon="9.684281875082025"><ele>309.8</ele><time>2026-05-03T15:37:39Z</time></trkpt><trkpt lat="44.82774234910547" lon="9.684347080541526"><ele>309.6</ele><time>2026-05-03T15:37:40Z</time></trkpt><trkpt lat="44.827810046158326" lon="9.684408421422102"><ele>309.4</ele><time>2026-05-03T15:37:41Z</time></trkpt><trkpt lat="44.82789596325763" lon="9.684457264636393"><ele>309.2</ele><time>2026-05-03T15:37:42Z</time></trkpt><trkpt lat="44.82799732470123" lon="9.684500714690335"><ele>309.0</ele><time>2026-05-03T15:37:43Z</time></trkpt><trkpt lat="44.82810874026779" lon="9.68454966273346"><ele>309.0</ele><time>2026-05-03T15:37:44Z</time></trkpt><trkpt lat="44.82823828028511" lon="9.684623362893259"><ele>309.0</ele><time>2026-05-03T15:37:45Z</time></trkpt><trkpt lat="44.82836672592492" lon="9.684697560556161"><ele>309.0</ele><time>2026-05-03T15:37:46Z</time></trkpt><trkpt lat="44.82848006541121" lon="9.684774660377101"><ele>309.0</ele><time>2026-05-03T15:37:47Z</time></trkpt><trkpt lat="44.82856859106313" lon="9.68483533522162"><ele>308.4</ele><time>2026-05-03T15:37:48Z</time></trkpt><trkpt lat="44.828659252145265" lon="9.684819992294603"><ele>307.79999999999995</ele><time>2026-05-03T15:37:50Z</time></trkpt><trkpt lat="44.828671731288836" lon="9.684632709340551"><ele>307.20000000000005</ele><time>2026-05-03T15:37:52Z</time></trkpt><trkpt lat="44.828662909715575" lon="9.68450796381876"><ele>306.6</ele><time>2026-05-03T15:37:53Z</time></trkpt><trkpt lat="44.82865630522502" lon="9.684388764321593"><ele>306.0</ele><time>2026-05-03T15:37:54Z</time></trkpt><trkpt lat="44.82865371671563" lon="9.684284862347784"><ele>306.0</ele><time>2026-05-03T15:37:55Z</time></trkpt><trkpt lat="44.82865152394508" lon="9.684189621087176"><ele>306.0</ele><time>2026-05-03T15:37:56Z</time></trkpt><trkpt lat="44.828658212538244" lon="9.684098419350695"><ele>306.0</ele><time>2026-05-03T15:37:57Z</time></trkpt><trkpt lat="44.828685352447195" lon="9.684015096039474"><ele>306.0</ele><time>2026-05-03T15:37:58Z</time></trkpt><trkpt lat="44.82874207235893" lon="9.683950002679595"><ele>306.0</ele><time>2026-05-03T15:37:59Z</time></trkpt><trkpt lat="44.82882771888353" lon="9.683889274504764"><ele>306.0</ele><time>2026-05-03T15:38:00Z</time></trkpt><trkpt lat="44.828936363782475" lon="9.68380463175545"><ele>306.0</ele><time>2026-05-03T15:38:01Z</time></trkpt><trkpt lat="44.82902518321109" lon="9.683693665146338"><ele>306.0</ele><time>2026-05-03T15:38:02Z</time></trkpt><trkpt lat="44.82909498322302" lon="9.683567646552618"><ele>306.0</ele><time>2026-05-03T15:38:03Z</time></trkpt><trkpt lat="44.82916958981939" lon="9.68346132415711"><ele>306.0</ele><time>2026-05-03T15:38:04Z</time></trkpt><trkpt lat="44.82925974733354" lon="9.683385900824666"><ele>306.0</ele><time>2026-05-03T15:38:05Z</time></trkpt><trkpt lat="44.82937932813154" lon="9.68333315181558"><ele>306.25</ele><time>2026-05-03T15:38:06Z</time></trkpt><trkpt lat="44.82950875630637" lon="9.683288298575711"><ele>306.5</ele><time>2026-05-03T15:38:07Z</time></trkpt><trkpt lat="44.82963569968968" lon="9.683222394933054"><ele>306.75</ele><time>2026-05-03T15:38:08Z</time></trkpt><trkpt lat="44.82974684125638" lon="9.683141286872806"><ele>307.0</ele><time>2026-05-03T15:38:09Z</time></trkpt><trkpt lat="44.829848090646884" lon="9.683068178527192"><ele>307.0</ele><time>2026-05-03T15:38:10Z</time></trkpt><trkpt lat="44.829937473054194" lon="9.68299715969166"><ele>307.0</ele><time>2026-05-03T15:38:11Z</time></trkpt><trkpt lat="44.83003023148611" lon="9.682957713405084"><ele>307.0</ele><time>2026-05-03T15:38:11.999Z</time></trkpt><trkpt lat="44.83013263959832" lon="9.682970461554671"><ele>307.0</ele><time>2026-05-03T15:38:12.999Z</time></trkpt><trkpt lat="44.83025644465992" lon="9.682986559401172"><ele>307.0</ele><time>2026-05-03T15:38:13.999Z</time></trkpt><trkpt lat="44.83038017713391" lon="9.682964212955323"><ele>306.25</ele><time>2026-05-03T15:38:14.999Z</time></trkpt><trkpt lat="44.830505016835595" lon="9.682922941482413"><ele>305.5</ele><time>2026-05-03T15:38:15.999Z</time></trkpt><trkpt lat="44.83064644063025" lon="9.682871422069221"><ele>304.75</ele><time>2026-05-03T15:38:16.999Z</time></trkpt><trkpt lat="44.830780322367154" lon="9.682836950837281"><ele>304.0</ele><time>2026-05-03T15:38:17.999Z</time></trkpt><trkpt lat="44.8308705864318" lon="9.682795168791314"><ele>307.25</ele><time>2026-05-03T15:38:18.999Z</time></trkpt><trkpt lat="44.83096165720504" lon="9.682720883369173"><ele>310.5</ele><time>2026-05-03T15:38:19.999Z</time></trkpt><trkpt lat="44.83108317946436" lon="9.682646890975239"><ele>313.75</ele><time>2026-05-03T15:38:20.999Z</time></trkpt><trkpt lat="44.83119187341479" lon="9.682542086062945"><ele>317.0</ele><time>2026-05-03T15:38:21.999Z</time></trkpt><trkpt lat="44.83129670258523" lon="9.682446067867359"><ele>317.0</ele><time>2026-05-03T15:38:22.999Z</time></trkpt><trkpt lat="44.83141020571059" lon="9.68231414578725"><ele>317.0</ele><time>2026-05-03T15:38:23.999Z</time></trkpt><trkpt lat="44.831507030890485" lon="9.682195748855957"><ele>317.0</ele><time>2026-05-03T15:38:24.999Z</time></trkpt><trkpt lat="44.8315565094388" lon="9.682064898534223"><ele>317.0</ele><time>2026-05-03T15:38:25.999Z</time></trkpt><trkpt lat="44.831616205469345" lon="9.681940243500463"><ele>319.2</ele><time>2026-05-03T15:38:26.999Z</time></trkpt><trkpt lat="44.83166348812437" lon="9.68180775859513"><ele>321.4</ele><time>2026-05-03T15:38:27.999Z</time></trkpt><trkpt lat="44.83170240395466" lon="9.681669295859292"><ele>323.59999999999997</ele><time>2026-05-03T15:38:28.999Z</time></trkpt><trkpt lat="44.831751669276315" lon="9.681522606732827"><ele>325.79999999999995</ele><time>2026-05-03T15:38:29.999Z</time></trkpt><trkpt lat="44.83180379823653" lon="9.681373706455847"><ele>328.0</ele><time>2026-05-03T15:38:30.999Z</time></trkpt><trkpt lat="44.83186612139788" lon="9.681208543960214"><ele>332.5</ele><time>2026-05-03T15:38:31.999Z</time></trkpt><trkpt lat="44.83193987490426" lon="9.681059925378216"><ele>337.0</ele><time>2026-05-03T15:38:32.999Z</time></trkpt><trkpt lat="44.832033745654314" lon="9.680985007435115"><ele>341.5</ele><time>2026-05-03T15:38:33.999Z</time></trkpt><trkpt lat="44.83214526538471" lon="9.680973265810318"><ele>346.0</ele><time>2026-05-03T15:38:34.999Z</time></trkpt><trkpt lat="44.832261624752036" lon="9.681004846791806"><ele>346.0</ele><time>2026-05-03T15:38:35.999Z</time></trkpt><trkpt lat="44.83238617505939" lon="9.681085833027694"><ele>346.0</ele><time>2026-05-03T15:38:36.999Z</time></trkpt><trkpt lat="44.83252147155569" lon="9.681155973534777"><ele>346.0</ele><time>2026-05-03T15:38:37.999Z</time></trkpt><trkpt lat="44.832642175147264" lon="9.681172200923863"><ele>346.0</ele><time>2026-05-03T15:38:38.999Z</time></trkpt><trkpt lat="44.83274346656577" lon="9.681150041557276"><ele>348.0</ele><time>2026-05-03T15:38:39.999Z</time></trkpt><trkpt lat="44.832831075968784" lon="9.681098980424483"><ele>350.0</ele><time>2026-05-03T15:38:40.999Z</time></trkpt><trkpt lat="44.83293310583987" lon="9.680997082293443"><ele>352.0</ele><time>2026-05-03T15:38:41.999Z</time></trkpt><trkpt lat="44.83305320678002" lon="9.680895605188189"><ele>354.0</ele><time>2026-05-03T15:38:42.999Z</time></trkpt><trkpt lat="44.83316474818683" lon="9.680827053442354"><ele>354.0</ele><time>2026-05-03T15:38:43.999Z</time></trkpt><trkpt lat="44.83327211153736" lon="9.68080389500916"><ele>354.0</ele><time>2026-05-03T15:38:44.999Z</time></trkpt><trkpt lat="44.83336882536307" lon="9.680821057837354"><ele>354.0</ele><time>2026-05-03T15:38:45.999Z</time></trkpt><trkpt lat="44.833444399255" lon="9.680863877452728"><ele>354.0</ele><time>2026-05-03T15:38:46.999Z</time></trkpt><trkpt lat="44.83352111365686" lon="9.680963982865823"><ele>354.0</ele><time>2026-05-03T15:38:47.999Z</time></trkpt><trkpt lat="44.83356112683529" lon="9.681055035616998"><ele>353.0</ele><time>2026-05-03T15:38:48.999Z</time></trkpt><trkpt lat="44.83357662533243" lon="9.681168982007614"><ele>352.0</ele><time>2026-05-03T15:38:49.999Z</time></trkpt><trkpt lat="44.83357593262601" lon="9.681316403529415"><ele>351.0</ele><time>2026-05-03T15:38:50.999Z</time></trkpt><trkpt lat="44.83358819696285" lon="9.68145660452752"><ele>350.0</ele><time>2026-05-03T15:38:51.999Z</time></trkpt><trkpt lat="44.83363231072761" lon="9.68157655484716"><ele>349.0</ele><time>2026-05-03T15:38:52.999Z</time></trkpt><trkpt lat="44.83368292911017" lon="9.681667924029828"><ele>349.0</ele><time>2026-05-03T15:38:53.999Z</time></trkpt><trkpt lat="44.83375742288487" lon="9.681733500230838"><ele>349.0</ele><time>2026-05-03T15:38:54.999Z</time></trkpt><trkpt lat="44.833849018834414" lon="9.681784557419629"><ele>349.0</ele><time>2026-05-03T15:38:55.999Z</time></trkpt><trkpt lat="44.833926750611404" lon="9.681786272773945"><ele>349.0</ele><time>2026-05-03T15:38:56.999Z</time></trkpt><trkpt lat="44.833997180018024" lon="9.681732469396861"><ele>349.0</ele><time>2026-05-03T15:38:57.999Z</time></trkpt><trkpt lat="44.83404582653766" lon="9.681639536496924"><ele>349.0</ele><time>2026-05-03T15:38:58.999Z</time></trkpt><trkpt lat="44.83404743083583" lon="9.68152013039117"><ele>349.0</ele><time>2026-05-03T15:38:59.999Z</time></trkpt><trkpt lat="44.8339504747892" lon="9.681365471873848"><ele>349.0</ele><time>2026-05-03T15:39:01.999Z</time></trkpt><trkpt lat="44.833868549364865" lon="9.681271266306306"><ele>349.0</ele><time>2026-05-03T15:39:02.999Z</time></trkpt><trkpt lat="44.83380856333989" lon="9.68115407033362"><ele>349.0</ele><time>2026-05-03T15:39:03.999Z</time></trkpt><trkpt lat="44.83378516253213" lon="9.681029444441817"><ele>349.0</ele><time>2026-05-03T15:39:04.999Z</time></trkpt><trkpt lat="44.83378494888748" lon="9.680909797135085"><ele>350.0</ele><time>2026-05-03T15:39:05.999Z</time></trkpt><trkpt lat="44.83380360450766" lon="9.680794777172908"><ele>351.0</ele><time>2026-05-03T15:39:06.999Z</time></trkpt><trkpt lat="44.83384752766913" lon="9.68068481706078"><ele>352.0</ele><time>2026-05-03T15:39:07.999Z</time></trkpt><trkpt lat="44.83390908480286" lon="9.680564925184532"><ele>353.0</ele><time>2026-05-03T15:39:08.999Z</time></trkpt><trkpt lat="44.83400753835807" lon="9.680445051337081"><ele>354.0</ele><time>2026-05-03T15:39:09.999Z</time></trkpt><trkpt lat="44.83410669657668" lon="9.680311141343168"><ele>356.0</ele><time>2026-05-03T15:39:10.998Z</time></trkpt><trkpt lat="44.834186633650475" lon="9.680149738924227"><ele>358.0</ele><time>2026-05-03T15:39:11.998Z</time></trkpt><trkpt lat="44.83424018737401" lon="9.679986485024859"><ele>360.0</ele><time>2026-05-03T15:39:12.998Z</time></trkpt><trkpt lat="44.83426124885386" lon="9.67978259743626"><ele>362.0</ele><time>2026-05-03T15:39:13.998Z</time></trkpt><trkpt lat="44.83428472404316" lon="9.679538341847651"><ele>360.0</ele><time>2026-05-03T15:39:14.998Z</time></trkpt><trkpt lat="44.83434301235127" lon="9.679295707640476"><ele>358.0</ele><time>2026-05-03T15:39:15.998Z</time></trkpt><trkpt lat="44.83442272620342" lon="9.679092965650888"><ele>356.0</ele><time>2026-05-03T15:39:16.998Z</time></trkpt><trkpt lat="44.83449112723704" lon="9.678915941724503"><ele>356.0</ele><time>2026-05-03T15:39:17.998Z</time></trkpt><trkpt lat="44.834538554094785" lon="9.67871091908125"><ele>356.0</ele><time>2026-05-03T15:39:18.998Z</time></trkpt><trkpt lat="44.83458404352746" lon="9.678498944743122"><ele>356.0</ele><time>2026-05-03T15:39:19.998Z</time></trkpt><trkpt lat="44.83464317162665" lon="9.678311969692636"><ele>357.8</ele><time>2026-05-03T15:39:20.998Z</time></trkpt><trkpt lat="44.83469623438894" lon="9.67815134683774"><ele>359.6</ele><time>2026-05-03T15:39:21.998Z</time></trkpt><trkpt lat="44.83474994581135" lon="9.678008567265218"><ele>361.4</ele><time>2026-05-03T15:39:22.998Z</time></trkpt><trkpt lat="44.83480557401948" lon="9.677897409507317"><ele>363.2</ele><time>2026-05-03T15:39:23.998Z</time></trkpt><trkpt lat="44.834868137440985" lon="9.677811522890995"><ele>365.0</ele><time>2026-05-03T15:39:24.998Z</time></trkpt><trkpt lat="44.83495584930565" lon="9.67773647426695"><ele>368.6666666666667</ele><time>2026-05-03T15:39:25.998Z</time></trkpt><trkpt lat="44.835078303235676" lon="9.677661474524852"><ele>372.3333333333333</ele><time>2026-05-03T15:39:26.998Z</time></trkpt><trkpt lat="44.835230964593514" lon="9.677587622464328"><ele>376.0</ele><time>2026-05-03T15:39:27.998Z</time></trkpt><trkpt lat="44.835374414710415" lon="9.677500846012217"><ele>376.8</ele><time>2026-05-03T15:39:28.998Z</time></trkpt><trkpt lat="44.83550208233977" lon="9.677428464577376"><ele>377.6</ele><time>2026-05-03T15:39:29.998Z</time></trkpt><trkpt lat="44.83560112496762" lon="9.677408208829872"><ele>378.4</ele><time>2026-05-03T15:39:30.998Z</time></trkpt><trkpt lat="44.83568208489486" lon="9.677443235796089"><ele>379.2</ele><time>2026-05-03T15:39:31.998Z</time></trkpt><trkpt lat="44.835774157935006" lon="9.67751564121285"><ele>380.0</ele><time>2026-05-03T15:39:32.998Z</time></trkpt><trkpt lat="44.83588110714502" lon="9.677585284925899"><ele>381.25</ele><time>2026-05-03T15:39:33.998Z</time></trkpt><trkpt lat="44.83599570336984" lon="9.677644038917574"><ele>382.5</ele><time>2026-05-03T15:39:34.998Z</time></trkpt><trkpt lat="44.83610677979052" lon="9.677676168527869"><ele>383.75</ele><time>2026-05-03T15:39:35.998Z</time></trkpt><trkpt lat="44.836213610038435" lon="9.677660105619527"><ele>385.0</ele><time>2026-05-03T15:39:37Z</time></trkpt><trkpt lat="44.83632449327644" lon="9.677596047947327"><ele>385.0</ele><time>2026-05-03T15:39:38Z</time></trkpt><trkpt lat="44.83643757663414" lon="9.677490025367389"><ele>385.0</ele><time>2026-05-03T15:39:39Z</time></trkpt><trkpt lat="44.836557320419026" lon="9.677359563151805"><ele>385.0</ele><time>2026-05-03T15:39:40Z</time></trkpt><trkpt lat="44.836688600626346" lon="9.677257157068341"><ele>385.0</ele><time>2026-05-03T15:39:41Z</time></trkpt><trkpt lat="44.83680346803248" lon="9.677212295479514"><ele>384.8</ele><time>2026-05-03T15:39:42Z</time></trkpt><trkpt lat="44.83690121596474" lon="9.677163544508646"><ele>384.6</ele><time>2026-05-03T15:39:43Z</time></trkpt><trkpt lat="44.83696866032728" lon="9.677129806565036"><ele>384.4</ele><time>2026-05-03T15:39:44Z</time></trkpt><trkpt lat="44.837073682798824" lon="9.677134989875311"><ele>384.2</ele><time>2026-05-03T15:39:46Z</time></trkpt><trkpt lat="44.83721668402733" lon="9.677227647449252"><ele>384.0</ele><time>2026-05-03T15:39:48Z</time></trkpt><trkpt lat="44.837316290136265" lon="9.677322085056188"><ele>384.0</ele><time>2026-05-03T15:39:49Z</time></trkpt><trkpt lat="44.83742397372588" lon="9.677408174478343"><ele>384.0</ele><time>2026-05-03T15:39:50Z</time></trkpt><trkpt lat="44.83751354584387" lon="9.677489842150207"><ele>384.0</ele><time>2026-05-03T15:39:51Z</time></trkpt><trkpt lat="44.837604146696904" lon="9.677573164475433"><ele>384.0</ele><time>2026-05-03T15:39:52Z</time></trkpt><trkpt lat="44.83769291486491" lon="9.677626276281678"><ele>384.0</ele><time>2026-05-03T15:39:53Z</time></trkpt><trkpt lat="44.83778991723702" lon="9.6776076739956"><ele>383.0</ele><time>2026-05-03T15:39:54Z</time></trkpt><trkpt lat="44.83789865156258" lon="9.677524464204092"><ele>382.0</ele><time>2026-05-03T15:39:55Z</time></trkpt><trkpt lat="44.8379974951174" lon="9.67744029212209"><ele>381.0</ele><time>2026-05-03T15:39:56Z</time></trkpt><trkpt lat="44.83810480162762" lon="9.677421914189628"><ele>380.0</ele><time>2026-05-03T15:39:57Z</time></trkpt><trkpt lat="44.83822615437963" lon="9.6774711379494"><ele>380.0</ele><time>2026-05-03T15:39:58Z</time></trkpt><trkpt lat="44.83834716063919" lon="9.677530815478514"><ele>380.0</ele><time>2026-05-03T15:39:59Z</time></trkpt><trkpt lat="44.83846425096119" lon="9.677553817478644"><ele>380.0</ele><time>2026-05-03T15:40:00Z</time></trkpt><trkpt lat="44.83858031314069" lon="9.677514363054685"><ele>380.0</ele><time>2026-05-03T15:40:01Z</time></trkpt><trkpt lat="44.83868382132304" lon="9.677435389282401"><ele>379.4</ele><time>2026-05-03T15:40:02Z</time></trkpt><trkpt lat="44.83875919795315" lon="9.677317083270145"><ele>378.8</ele><time>2026-05-03T15:40:03Z</time></trkpt><trkpt lat="44.83883290759457" lon="9.677198754797665"><ele>378.20000000000005</ele><time>2026-05-03T15:40:04Z</time></trkpt><trkpt lat="44.838910083601164" lon="9.677142093217444"><ele>377.6</ele><time>2026-05-03T15:40:05Z</time></trkpt><trkpt lat="44.839001138949044" lon="9.67713326807239"><ele>377.0</ele><time>2026-05-03T15:40:06Z</time></trkpt><trkpt lat="44.83911328875367" lon="9.67718995229643"><ele>377.0</ele><time>2026-05-03T15:40:07Z</time></trkpt><trkpt lat="44.83922873086982" lon="9.677272085085768"><ele>377.0</ele><time>2026-05-03T15:40:08Z</time></trkpt><trkpt lat="44.83934485177401" lon="9.677352690362754"><ele>377.0</ele><time>2026-05-03T15:40:09Z</time></trkpt><trkpt lat="44.839462859129675" lon="9.677425750125831"><ele>377.0</ele><time>2026-05-03T15:40:10Z</time></trkpt><trkpt lat="44.839576453588975" lon="9.677480399350348"><ele>376.0</ele><time>2026-05-03T15:40:11Z</time></trkpt><trkpt lat="44.839676611705514" lon="9.677533512603137"><ele>375.0</ele><time>2026-05-03T15:40:12Z</time></trkpt><trkpt lat="44.8397636380112" lon="9.677571953126986"><ele>374.0</ele><time>2026-05-03T15:40:13Z</time></trkpt><trkpt lat="44.83983932763533" lon="9.677580353010166"><ele>373.0</ele><time>2026-05-03T15:40:14Z</time></trkpt><trkpt lat="44.83991085321657" lon="9.677543731717419"><ele>372.0</ele><time>2026-05-03T15:40:15Z</time></trkpt><trkpt lat="44.839971008891176" lon="9.677442581196782"><ele>371.0</ele><time>2026-05-03T15:40:16Z</time></trkpt><trkpt lat="44.84000713735004" lon="9.677285373909394"><ele>371.0</ele><time>2026-05-03T15:40:17Z</time></trkpt><trkpt lat="44.8400539784318" lon="9.677123801229309"><ele>371.0</ele><time>2026-05-03T15:40:18Z</time></trkpt><trkpt lat="44.840112143428385" lon="9.67697128695627"><ele>371.0</ele><time>2026-05-03T15:40:19Z</time></trkpt><trkpt lat="44.84015523901984" lon="9.676808388142964"><ele>371.0</ele><time>2026-05-03T15:40:20Z</time></trkpt><trkpt lat="44.84016540778093" lon="9.676646269502859"><ele>370.4</ele><time>2026-05-03T15:40:21Z</time></trkpt><trkpt lat="44.84019544182497" lon="9.676536568312475"><ele>369.8</ele><time>2026-05-03T15:40:22Z</time></trkpt><trkpt lat="44.84025643359289" lon="9.676463079325762"><ele>369.2</ele><time>2026-05-03T15:40:22.999Z</time></trkpt><trkpt lat="44.84034950817773" lon="9.676424872635245"><ele>368.59999999999997</ele><time>2026-05-03T15:40:23.999Z</time></trkpt><trkpt lat="44.84046619548843" lon="9.676403755856091"><ele>368.0</ele><time>2026-05-03T15:40:24.999Z</time></trkpt><trkpt lat="44.84059587012455" lon="9.676366338107668"><ele>368.0</ele><time>2026-05-03T15:40:25.999Z</time></trkpt><trkpt lat="44.84072497812314" lon="9.676311525901848"><ele>368.0</ele><time>2026-05-03T15:40:26.999Z</time></trkpt><trkpt lat="44.840841185585035" lon="9.67626234981819"><ele>368.0</ele><time>2026-05-03T15:40:27.999Z</time></trkpt><trkpt lat="44.84095538515692" lon="9.676263722142606"><ele>368.0</ele><time>2026-05-03T15:40:28.999Z</time></trkpt><trkpt lat="44.84105613847546" lon="9.676300151902934"><ele>367.1666666666667</ele><time>2026-05-03T15:40:29.999Z</time></trkpt><trkpt lat="44.84113311625057" lon="9.676348498328393"><ele>366.33333333333337</ele><time>2026-05-03T15:40:30.999Z</time></trkpt><trkpt lat="44.84119731294863" lon="9.6763475351283"><ele>365.5</ele><time>2026-05-03T15:40:31.999Z</time></trkpt><trkpt lat="44.84123932926409" lon="9.67618429725031"><ele>364.6666666666667</ele><time>2026-05-03T15:40:33.999Z</time></trkpt><trkpt lat="44.841200160739284" lon="9.676087380484201"><ele>363.8333333333333</ele><time>2026-05-03T15:40:34.999Z</time></trkpt><trkpt lat="44.8411291046296" lon="9.676024532335813"><ele>363.0</ele><time>2026-05-03T15:40:35.999Z</time></trkpt><trkpt lat="44.84101495704371" lon="9.675985354746285"><ele>359.25</ele><time>2026-05-03T15:40:36.999Z</time></trkpt><trkpt lat="44.840881829880445" lon="9.675915741746802"><ele>355.5</ele><time>2026-05-03T15:40:37.999Z</time></trkpt><trkpt lat="44.840763479333695" lon="9.67588970510238"><ele>351.75</ele><time>2026-05-03T15:40:38.999Z</time></trkpt><trkpt lat="44.84064629619886" lon="9.675912377241177"><ele>348.0</ele><time>2026-05-03T15:40:39.999Z</time></trkpt><trkpt lat="44.84053317349809" lon="9.676001190157873"><ele>348.0</ele><time>2026-05-03T15:40:40.999Z</time></trkpt><trkpt lat="44.840422851491574" lon="9.676073984312762"><ele>348.0</ele><time>2026-05-03T15:40:41.999Z</time></trkpt><trkpt lat="44.84031766796054" lon="9.676080398472969"><ele>348.0</ele><time>2026-05-03T15:40:42.999Z</time></trkpt><trkpt lat="44.84021093862504" lon="9.676029035918784"><ele>348.0</ele><time>2026-05-03T15:40:43.999Z</time></trkpt><trkpt lat="44.84010285076438" lon="9.675970119911184"><ele>348.0</ele><time>2026-05-03T15:40:44.999Z</time></trkpt><trkpt lat="44.839980575404425" lon="9.67594457437658"><ele>348.0</ele><time>2026-05-03T15:40:45.999Z</time></trkpt><trkpt lat="44.83985879226936" lon="9.67596162236681"><ele>348.0</ele><time>2026-05-03T15:40:46.999Z</time></trkpt><trkpt lat="44.839783737748775" lon="9.675944796245602"><ele>348.0</ele><time>2026-05-03T15:40:47.999Z</time></trkpt><trkpt lat="44.839694271235096" lon="9.675865836102291"><ele>348.0</ele><time>2026-05-03T15:40:48.999Z</time></trkpt><trkpt lat="44.83964520134788" lon="9.675740967577482"><ele>348.0</ele><time>2026-05-03T15:40:49.999Z</time></trkpt><trkpt lat="44.839630147355365" lon="9.675572555127767"><ele>348.0</ele><time>2026-05-03T15:40:50.999Z</time></trkpt><trkpt lat="44.839609777759264" lon="9.67539384722673"><ele>348.0</ele><time>2026-05-03T15:40:51.999Z</time></trkpt><trkpt lat="44.83954873044418" lon="9.675256699713437"><ele>348.0</ele><time>2026-05-03T15:40:52.999Z</time></trkpt><trkpt lat="44.839446103020705" lon="9.6751551207911"><ele>345.5</ele><time>2026-05-03T15:40:53.999Z</time></trkpt><trkpt lat="44.839330666307085" lon="9.675087068388164"><ele>343.0</ele><time>2026-05-03T15:40:54.999Z</time></trkpt><trkpt lat="44.83920690182047" lon="9.675036754504974"><ele>340.5</ele><time>2026-05-03T15:40:55.999Z</time></trkpt><trkpt lat="44.839068870961626" lon="9.675018806280862"><ele>338.0</ele><time>2026-05-03T15:40:56.999Z</time></trkpt><trkpt lat="44.83893449091743" lon="9.675023344054308"><ele>338.0</ele><time>2026-05-03T15:40:57.999Z</time></trkpt><trkpt lat="44.8388117656651" lon="9.675026902785119"><ele>338.0</ele><time>2026-05-03T15:40:58.999Z</time></trkpt><trkpt lat="44.83869387315544" lon="9.675002922279209"><ele>338.0</ele><time>2026-05-03T15:40:59.999Z</time></trkpt><trkpt lat="44.83859921524127" lon="9.674937140397288"><ele>338.0</ele><time>2026-05-03T15:41:00.999Z</time></trkpt><trkpt lat="44.838525011261595" lon="9.674817043014807"><ele>338.0</ele><time>2026-05-03T15:41:01.999Z</time></trkpt><trkpt lat="44.838489159340085" lon="9.67469367506653"><ele>338.0</ele><time>2026-05-03T15:41:02.999Z</time></trkpt><trkpt lat="44.83848286902731" lon="9.674573241061955"><ele>338.0</ele><time>2026-05-03T15:41:03.999Z</time></trkpt><trkpt lat="44.8385233683288" lon="9.67446749746039"><ele>338.0</ele><time>2026-05-03T15:41:04.999Z</time></trkpt><trkpt lat="44.838595875869494" lon="9.674418265805112"><ele>338.0</ele><time>2026-05-03T15:41:05.999Z</time></trkpt><trkpt lat="44.83868709826352" lon="9.674426258430735"><ele>338.0</ele><time>2026-05-03T15:41:06.999Z</time></trkpt><trkpt lat="44.8387956011943" lon="9.674483596811973"><ele>338.0</ele><time>2026-05-03T15:41:07.999Z</time></trkpt><trkpt lat="44.83892494853306" lon="9.674549602151933"><ele>338.0</ele><time>2026-05-03T15:41:08.999Z</time></trkpt><trkpt lat="44.83906773021926" lon="9.674599769902471"><ele>338.0</ele><time>2026-05-03T15:41:09.999Z</time></trkpt><trkpt lat="44.83921046451628" lon="9.674610355056132"><ele>338.0</ele><time>2026-05-03T15:41:10.999Z</time></trkpt><trkpt lat="44.83934637995667" lon="9.674597167991829"><ele>337.0</ele><time>2026-05-03T15:41:11.999Z</time></trkpt><trkpt lat="44.83947750846232" lon="9.674591537175532"><ele>336.0</ele><time>2026-05-03T15:41:12.999Z</time></trkpt><trkpt lat="44.83959999930935" lon="9.67457462004354"><ele>335.0</ele><time>2026-05-03T15:41:13.999Z</time></trkpt><trkpt lat="44.83971840673142" lon="9.674517068143409"><ele>334.0</ele><time>2026-05-03T15:41:14.999Z</time></trkpt><trkpt lat="44.83983713343431" lon="9.674451856054242"><ele>334.0</ele><time>2026-05-03T15:41:15.999Z</time></trkpt><trkpt lat="44.83995288682808" lon="9.674435625961074"><ele>334.0</ele><time>2026-05-03T15:41:16.999Z</time></trkpt><trkpt lat="44.8400811287459" lon="9.674452363548982"><ele>334.0</ele><time>2026-05-03T15:41:17.999Z</time></trkpt><trkpt lat="44.84019731347294" lon="9.67450779334579"><ele>334.0</ele><time>2026-05-03T15:41:18.999Z</time></trkpt><trkpt lat="44.84031627415598" lon="9.674501038169916"><ele>332.79999999999995</ele><time>2026-05-03T15:41:19.999Z</time></trkpt><trkpt lat="44.84042484511231" lon="9.674447879531913"><ele>331.59999999999997</ele><time>2026-05-03T15:41:20.999Z</time></trkpt><trkpt lat="44.84052673684473" lon="9.674455149798783"><ele>330.4</ele><time>2026-05-03T15:41:21.999Z</time></trkpt><trkpt lat="44.84062206560116" lon="9.67453391258587"><ele>329.2</ele><time>2026-05-03T15:41:22.998Z</time></trkpt><trkpt lat="44.84071126523393" lon="9.674609890197726"><ele>328.0</ele><time>2026-05-03T15:41:23.998Z</time></trkpt><trkpt lat="44.840822533082935" lon="9.674652936217218"><ele>328.0</ele><time>2026-05-03T15:41:24.998Z</time></trkpt><trkpt lat="44.840942598168375" lon="9.674705802705923"><ele>328.0</ele><time>2026-05-03T15:41:25.998Z</time></trkpt><trkpt lat="44.84106229262584" lon="9.674732904176732"><ele>328.0</ele><time>2026-05-03T15:41:26.998Z</time></trkpt><trkpt lat="44.841189072107426" lon="9.674766865161182"><ele>328.0</ele><time>2026-05-03T15:41:27.998Z</time></trkpt><trkpt lat="44.84130860340995" lon="9.674776758182444"><ele>326.75</ele><time>2026-05-03T15:41:28.998Z</time></trkpt><trkpt lat="44.84142244602302" lon="9.674750252110767"><ele>325.5</ele><time>2026-05-03T15:41:29.998Z</time></trkpt><trkpt lat="44.84153068564048" lon="9.674687884355091"><ele>324.25</ele><time>2026-05-03T15:41:30.998Z</time></trkpt><trkpt lat="44.8416361153246" lon="9.674609790043135"><ele>323.0</ele><time>2026-05-03T15:41:31.998Z</time></trkpt><trkpt lat="44.84173923769759" lon="9.67452800397034"><ele>322.5</ele><time>2026-05-03T15:41:32.998Z</time></trkpt><trkpt lat="44.84185391676992" lon="9.674486670331156"><ele>322.0</ele><time>2026-05-03T15:41:33.998Z</time></trkpt><trkpt lat="44.841975477019794" lon="9.674458449862522"><ele>321.5</ele><time>2026-05-03T15:41:34.998Z</time></trkpt><trkpt lat="44.84210524437976" lon="9.674425467545484"><ele>321.0</ele><time>2026-05-03T15:41:35.998Z</time></trkpt><trkpt lat="44.84223905626611" lon="9.674385745404866"><ele>321.0</ele><time>2026-05-03T15:41:36.998Z</time></trkpt><trkpt lat="44.84236995190789" lon="9.674358364107208"><ele>321.0</ele><time>2026-05-03T15:41:37.998Z</time></trkpt><trkpt lat="44.84248630479213" lon="9.674314731194377"><ele>321.0</ele><time>2026-05-03T15:41:38.998Z</time></trkpt><trkpt lat="44.84260440149516" lon="9.674255900440922"><ele>321.0</ele><time>2026-05-03T15:41:39.998Z</time></trkpt><trkpt lat="44.84271412363887" lon="9.674145614228784"><ele>318.3333333333333</ele><time>2026-05-03T15:41:40.998Z</time></trkpt><trkpt lat="44.84282375233722" lon="9.674011881084102"><ele>315.66666666666663</ele><time>2026-05-03T15:41:41.998Z</time></trkpt><trkpt lat="44.84295825527061" lon="9.673902224280539"><ele>313.0</ele><time>2026-05-03T15:41:43Z</time></trkpt><trkpt lat="44.843109600278865" lon="9.673819562156245"><ele>313.0</ele><time>2026-05-03T15:41:44Z</time></trkpt><trkpt lat="44.843255019593435" lon="9.673769013402786"><ele>313.0</ele><time>2026-05-03T15:41:45Z</time></trkpt><trkpt lat="44.84338893305718" lon="9.673733159431277"><ele>313.0</ele><time>2026-05-03T15:41:46Z</time></trkpt><trkpt lat="44.84351161138953" lon="9.673652222979237"><ele>313.0</ele><time>2026-05-03T15:41:47Z</time></trkpt><trkpt lat="44.843630280814494" lon="9.673558142871828"><ele>315.75</ele><time>2026-05-03T15:41:48Z</time></trkpt><trkpt lat="44.84374799920425" lon="9.673490293772353"><ele>318.5</ele><time>2026-05-03T15:41:49Z</time></trkpt><trkpt lat="44.84387449646235" lon="9.6734214462761"><ele>321.25</ele><time>2026-05-03T15:41:50Z</time></trkpt><trkpt lat="44.84398632108271" lon="9.673313004442289"><ele>324.0</ele><time>2026-05-03T15:41:51Z</time></trkpt><trkpt lat="44.844057833383616" lon="9.673155158621674"><ele>324.0</ele><time>2026-05-03T15:41:52Z</time></trkpt><trkpt lat="44.84413964998238" lon="9.67300390270546"><ele>324.0</ele><time>2026-05-03T15:41:53Z</time></trkpt><trkpt lat="44.84424270465125" lon="9.672884548009645"><ele>324.0</ele><time>2026-05-03T15:41:54Z</time></trkpt><trkpt lat="44.84437520587321" lon="9.67280192137778"><ele>324.0</ele><time>2026-05-03T15:41:55Z</time></trkpt><trkpt lat="44.84448146041917" lon="9.672715477713101"><ele>324.25</ele><time>2026-05-03T15:41:56Z</time></trkpt><trkpt lat="44.84457142554139" lon="9.672599225385056"><ele>324.5</ele><time>2026-05-03T15:41:57Z</time></trkpt><trkpt lat="44.84464251934952" lon="9.672459817756835"><ele>324.75</ele><time>2026-05-03T15:41:58Z</time></trkpt><trkpt lat="44.84467805446271" lon="9.672291779703349"><ele>325.0</ele><time>2026-05-03T15:41:59Z</time></trkpt><trkpt lat="44.84467551471335" lon="9.672097596323306"><ele>326.0</ele><time>2026-05-03T15:42:00Z</time></trkpt><trkpt lat="44.844667556338095" lon="9.671901784598282"><ele>327.0</ele><time>2026-05-03T15:42:01Z</time></trkpt><trkpt lat="44.84466010958304" lon="9.671709359851913"><ele>328.0</ele><time>2026-05-03T15:42:02Z</time></trkpt><trkpt lat="44.84465265602287" lon="9.6715177931166"><ele>329.0</ele><time>2026-05-03T15:42:03Z</time></trkpt><trkpt lat="44.844657008297915" lon="9.671346236038278"><ele>329.0</ele><time>2026-05-03T15:42:04Z</time></trkpt><trkpt lat="44.84466763230007" lon="9.671180528640077"><ele>329.0</ele><time>2026-05-03T15:42:05Z</time></trkpt><trkpt lat="44.844695630593904" lon="9.670989665078569"><ele>329.0</ele><time>2026-05-03T15:42:06Z</time></trkpt><trkpt lat="44.84473846804695" lon="9.670783700223447"><ele>329.0</ele><time>2026-05-03T15:42:07Z</time></trkpt><trkpt lat="44.844774644958214" lon="9.670553867138295"><ele>331.33333333333337</ele><time>2026-05-03T15:42:08Z</time></trkpt><trkpt lat="44.84480472982636" lon="9.670284248766363"><ele>333.6666666666667</ele><time>2026-05-03T15:42:09Z</time></trkpt><trkpt lat="44.84485526084293" lon="9.669993336515258"><ele>336.0</ele><time>2026-05-03T15:42:10Z</time></trkpt><trkpt lat="44.84491686602047" lon="9.669699744372604"><ele>337.75</ele><time>2026-05-03T15:42:11Z</time></trkpt><trkpt lat="44.84495331820555" lon="9.669455784038476"><ele>339.5</ele><time>2026-05-03T15:42:12Z</time></trkpt><trkpt lat="44.84497280802595" lon="9.669274843570582"><ele>341.25</ele><time>2026-05-03T15:42:13Z</time></trkpt><trkpt lat="44.844988907408904" lon="9.669162306439915"><ele>343.0</ele><time>2026-05-03T15:42:14Z</time></trkpt><trkpt lat="44.84506843279286" lon="9.669030964921877"><ele>346.4</ele><time>2026-05-03T15:42:16Z</time></trkpt><trkpt lat="44.84515482697655" lon="9.669023034421082"><ele>349.79999999999995</ele><time>2026-05-03T15:42:17Z</time></trkpt><trkpt lat="44.845250248090274" lon="9.669062429391458"><ele>353.2</ele><time>2026-05-03T15:42:18Z</time></trkpt><trkpt lat="44.84534696653297" lon="9.669148605771284"><ele>356.6</ele><time>2026-05-03T15:42:19Z</time></trkpt><trkpt lat="44.84543352762014" lon="9.669267600241236"><ele>360.0</ele><time>2026-05-03T15:42:20Z</time></trkpt><trkpt lat="44.84549409502316" lon="9.669425931191597"><ele>357.75</ele><time>2026-05-03T15:42:21Z</time></trkpt><trkpt lat="44.84556547144812" lon="9.669591624283123"><ele>355.5</ele><time>2026-05-03T15:42:22Z</time></trkpt><trkpt lat="44.84566264053515" lon="9.669721590939128"><ele>353.25</ele><time>2026-05-03T15:42:23Z</time></trkpt><trkpt lat="44.845769693883675" lon="9.669767112977206"><ele>351.0</ele><time>2026-05-03T15:42:24Z</time></trkpt><trkpt lat="44.8458723186173" lon="9.669785677776625"><ele>355.25</ele><time>2026-05-03T15:42:24.999Z</time></trkpt><trkpt lat="44.84599904676974" lon="9.669825933932355"><ele>359.5</ele><time>2026-05-03T15:42:25.999Z</time></trkpt><trkpt lat="44.84611737163979" lon="9.669892556808335"><ele>363.75</ele><time>2026-05-03T15:42:26.999Z</time></trkpt><trkpt lat="44.84621790437093" lon="9.670012731779156"><ele>368.0</ele><time>2026-05-03T15:42:27.999Z</time></trkpt><trkpt lat="44.84628617163082" lon="9.670177486279867"><ele>366.5</ele><time>2026-05-03T15:42:28.999Z</time></trkpt><trkpt lat="44.84631817532196" lon="9.670331594455844"><ele>365.0</ele><time>2026-05-03T15:42:29.999Z</time></trkpt><trkpt lat="44.846352355306415" lon="9.670468820689194"><ele>363.5</ele><time>2026-05-03T15:42:30.999Z</time></trkpt><trkpt lat="44.8464200410739" lon="9.670614318044178"><ele>362.0</ele><time>2026-05-03T15:42:31.999Z</time></trkpt><trkpt lat="44.84650382672235" lon="9.670752458884138"><ele>362.0</ele><time>2026-05-03T15:42:32.999Z</time></trkpt><trkpt lat="44.84659983071387" lon="9.670897763371627"><ele>362.0</ele><time>2026-05-03T15:42:33.999Z</time></trkpt><trkpt lat="44.84669001454027" lon="9.671003303091696"><ele>362.0</ele><time>2026-05-03T15:42:34.999Z</time></trkpt><trkpt lat="44.84678802296114" lon="9.671071760645482"><ele>362.0</ele><time>2026-05-03T15:42:35.999Z</time></trkpt><trkpt lat="44.84688225552088" lon="9.67107504480786"><ele>364.0</ele><time>2026-05-03T15:42:36.999Z</time></trkpt><trkpt lat="44.84697606176187" lon="9.671045216754733"><ele>366.0</ele><time>2026-05-03T15:42:37.999Z</time></trkpt><trkpt lat="44.84708018858393" lon="9.671000028704398"><ele>368.0</ele><time>2026-05-03T15:42:38.999Z</time></trkpt><trkpt lat="44.847204429040055" lon="9.670997029103235"><ele>370.0</ele><time>2026-05-03T15:42:39.999Z</time></trkpt><trkpt lat="44.84733556862706" lon="9.671069586350173"><ele>369.25</ele><time>2026-05-03T15:42:40.999Z</time></trkpt><trkpt lat="44.84744636092499" lon="9.671135118729953"><ele>368.5</ele><time>2026-05-03T15:42:41.999Z</time></trkpt><trkpt lat="44.84755104982266" lon="9.67114745935948"><ele>367.75</ele><time>2026-05-03T15:42:42.999Z</time></trkpt><trkpt lat="44.847654758902834" lon="9.67110907092608"><ele>367.0</ele><time>2026-05-03T15:42:43.999Z</time></trkpt><trkpt lat="44.84776817750676" lon="9.671008717254187"><ele>367.0</ele><time>2026-05-03T15:42:44.999Z</time></trkpt><trkpt lat="44.84788513504591" lon="9.67091291601328"><ele>367.0</ele><time>2026-05-03T15:42:45.999Z</time></trkpt><trkpt lat="44.84800952126714" lon="9.670767074209609"><ele>367.0</ele><time>2026-05-03T15:42:46.999Z</time></trkpt><trkpt lat="44.84813617854668" lon="9.67060551185732"><ele>367.0</ele><time>2026-05-03T15:42:47.999Z</time></trkpt><trkpt lat="44.84825735452428" lon="9.670444686423533"><ele>367.0</ele><time>2026-05-03T15:42:48.999Z</time></trkpt><trkpt lat="44.848347394407504" lon="9.670282180380232"><ele>367.0</ele><time>2026-05-03T15:42:49.999Z</time></trkpt><trkpt lat="44.848424789563396" lon="9.670123463745693"><ele>367.0</ele><time>2026-05-03T15:42:50.999Z</time></trkpt><trkpt lat="44.84851070910382" lon="9.669992287425533"><ele>370.0</ele><time>2026-05-03T15:42:51.999Z</time></trkpt><trkpt lat="44.84862360160268" lon="9.669910725500772"><ele>373.0</ele><time>2026-05-03T15:42:52.999Z</time></trkpt><trkpt lat="44.84876134258796" lon="9.66987131000319"><ele>376.0</ele><time>2026-05-03T15:42:53.999Z</time></trkpt><trkpt lat="44.848918299055036" lon="9.669853922252424"><ele>379.0</ele><time>2026-05-03T15:42:54.999Z</time></trkpt><trkpt lat="44.84908462801431" lon="9.669864290305574"><ele>379.0</ele><time>2026-05-03T15:42:55.999Z</time></trkpt><trkpt lat="44.84922175624442" lon="9.669914338571978"><ele>379.0</ele><time>2026-05-03T15:42:56.999Z</time></trkpt><trkpt lat="44.849344896773495" lon="9.669931477811977"><ele>379.0</ele><time>2026-05-03T15:42:57.999Z</time></trkpt><trkpt lat="44.849448311462304" lon="9.669915832935251"><ele>379.0</ele><time>2026-05-03T15:42:58.999Z</time></trkpt><trkpt lat="44.84953868470141" lon="9.669860152844594"><ele>378.75</ele><time>2026-05-03T15:42:59.999Z</time></trkpt><trkpt lat="44.84962784488593" lon="9.669778530135428"><ele>378.5</ele><time>2026-05-03T15:43:00.999Z</time></trkpt><trkpt lat="44.84970478287452" lon="9.669662975950018"><ele>378.25</ele><time>2026-05-03T15:43:01.999Z</time></trkpt><trkpt lat="44.849787268994554" lon="9.669523451956062"><ele>378.0</ele><time>2026-05-03T15:43:02.999Z</time></trkpt><trkpt lat="44.849878990249906" lon="9.669374257253871"><ele>381.25</ele><time>2026-05-03T15:43:03.999Z</time></trkpt><trkpt lat="44.84998672592093" lon="9.669241222463215"><ele>384.5</ele><time>2026-05-03T15:43:04.999Z</time></trkpt><trkpt lat="44.85009845777478" lon="9.669176074709469"><ele>387.75</ele><time>2026-05-03T15:43:05.999Z</time></trkpt><trkpt lat="44.85021044985191" lon="9.669180078042398"><ele>391.0</ele><time>2026-05-03T15:43:06.999Z</time></trkpt><trkpt lat="44.85032241054939" lon="9.669236575429474"><ele>391.0</ele><time>2026-05-03T15:43:07.999Z</time></trkpt><trkpt lat="44.850444455838414" lon="9.669324224754833"><ele>391.0</ele><time>2026-05-03T15:43:08.999Z</time></trkpt><trkpt lat="44.85055630651724" lon="9.669388327007788"><ele>391.0</ele><time>2026-05-03T15:43:09.999Z</time></trkpt><trkpt lat="44.85066534298586" lon="9.669410944497388"><ele>391.0</ele><time>2026-05-03T15:43:10.999Z</time></trkpt><trkpt lat="44.8507746125167" lon="9.669385244698796"><ele>391.0</ele><time>2026-05-03T15:43:11.999Z</time></trkpt><trkpt lat="44.85088682708279" lon="9.669302479116892"><ele>391.0</ele><time>2026-05-03T15:43:12.999Z</time></trkpt><trkpt lat="44.85100429147542" lon="9.669171597333856"><ele>391.0</ele><time>2026-05-03T15:43:13.999Z</time></trkpt><trkpt lat="44.85113811051842" lon="9.669023390754832"><ele>391.0</ele><time>2026-05-03T15:43:14.999Z</time></trkpt><trkpt lat="44.85126014477204" lon="9.6688943908343"><ele>391.20000000000005</ele><time>2026-05-03T15:43:15.999Z</time></trkpt><trkpt lat="44.851352452438434" lon="9.668832565234686"><ele>391.40000000000003</ele><time>2026-05-03T15:43:16.999Z</time></trkpt><trkpt lat="44.851443936271636" lon="9.668826664628398"><ele>391.6</ele><time>2026-05-03T15:43:17.999Z</time></trkpt><trkpt lat="44.851546565104904" lon="9.668844490919584"><ele>391.8</ele><time>2026-05-03T15:43:18.999Z</time></trkpt><trkpt lat="44.85163079696148" lon="9.668834390634645"><ele>392.0</ele><time>2026-05-03T15:43:19.999Z</time></trkpt><trkpt lat="44.851695878338575" lon="9.668762626222332"><ele>392.0</ele><time>2026-05-03T15:43:20.999Z</time></trkpt><trkpt lat="44.85174320119477" lon="9.668660192298532"><ele>392.0</ele><time>2026-05-03T15:43:21.999Z</time></trkpt><trkpt lat="44.85176616154459" lon="9.668545275421383"><ele>392.0</ele><time>2026-05-03T15:43:22.999Z</time></trkpt><trkpt lat="44.8517503192033" lon="9.668432837184138"><ele>392.0</ele><time>2026-05-03T15:43:23.998Z</time></trkpt><trkpt lat="44.85170668980365" lon="9.668312730301201"><ele>392.0</ele><time>2026-05-03T15:43:24.998Z</time></trkpt><trkpt lat="44.85165761557593" lon="9.668141170970722"><ele>392.0</ele><time>2026-05-03T15:43:25.998Z</time></trkpt><trkpt lat="44.85162038049837" lon="9.667908843769451"><ele>392.0</ele><time>2026-05-03T15:43:26.998Z</time></trkpt><trkpt lat="44.85160419768909" lon="9.66767039200936"><ele>392.0</ele><time>2026-05-03T15:43:27.998Z</time></trkpt><trkpt lat="44.851608311834845" lon="9.667437581662268"><ele>392.0</ele><time>2026-05-03T15:43:28.998Z</time></trkpt><trkpt lat="44.85162001594233" lon="9.667220489990767"><ele>392.0</ele><time>2026-05-03T15:43:29.998Z</time></trkpt><trkpt lat="44.851628116900415" lon="9.66701624456189"><ele>392.0</ele><time>2026-05-03T15:43:30.998Z</time></trkpt><trkpt lat="44.851620861242466" lon="9.666832535331153"><ele>392.0</ele><time>2026-05-03T15:43:31.998Z</time></trkpt><trkpt lat="44.85158976902055" lon="9.66665499453893"><ele>391.40000000000003</ele><time>2026-05-03T15:43:32.998Z</time></trkpt><trkpt lat="44.85153803312214" lon="9.666495532824062"><ele>390.8</ele><time>2026-05-03T15:43:33.998Z</time></trkpt><trkpt lat="44.85150150832838" lon="9.666353812860462"><ele>390.2</ele><time>2026-05-03T15:43:34.998Z</time></trkpt><trkpt lat="44.85150380741413" lon="9.666219319048878"><ele>389.6</ele><time>2026-05-03T15:43:35.998Z</time></trkpt><trkpt lat="44.85153970612368" lon="9.666106712411969"><ele>389.0</ele><time>2026-05-03T15:43:36.998Z</time></trkpt><trkpt lat="44.85159431594011" lon="9.666052787606453"><ele>389.0</ele><time>2026-05-03T15:43:37.998Z</time></trkpt><trkpt lat="44.85166072976484" lon="9.666055545105598"><ele>389.0</ele><time>2026-05-03T15:43:38.998Z</time></trkpt><trkpt lat="44.851733059530055" lon="9.666119954109332"><ele>389.0</ele><time>2026-05-03T15:43:39.998Z</time></trkpt><trkpt lat="44.85181050219753" lon="9.666234632312628"><ele>389.0</ele><time>2026-05-03T15:43:40.998Z</time></trkpt><trkpt lat="44.85189966525469" lon="9.666365332851043"><ele>389.0</ele><time>2026-05-03T15:43:41.998Z</time></trkpt><trkpt lat="44.85200407592489" lon="9.666481623601902"><ele>388.0</ele><time>2026-05-03T15:43:42.998Z</time></trkpt><trkpt lat="44.85211575691541" lon="9.666605382519206"><ele>387.0</ele><time>2026-05-03T15:43:43.998Z</time></trkpt><trkpt lat="44.85221674042604" lon="9.666756512537935"><ele>386.0</ele><time>2026-05-03T15:43:44.998Z</time></trkpt><trkpt lat="44.852302997813815" lon="9.666906237975528"><ele>385.0</ele><time>2026-05-03T15:43:45.998Z</time></trkpt><trkpt lat="44.85237521554175" lon="9.667023940896476"><ele>384.6666666666667</ele><time>2026-05-03T15:43:46.998Z</time></trkpt><trkpt lat="44.85243754019858" lon="9.667111458642879"><ele>384.33333333333337</ele><time>2026-05-03T15:43:47.998Z</time></trkpt><trkpt lat="44.85250343393769" lon="9.667168547914597"><ele>384.0</ele><time>2026-05-03T15:43:49Z</time></trkpt><trkpt lat="44.85257652784473" lon="9.667209982112167"><ele>383.6666666666667</ele><time>2026-05-03T15:43:50Z</time></trkpt><trkpt lat="44.85265300737745" lon="9.667233775394251"><ele>383.33333333333337</ele><time>2026-05-03T15:43:51Z</time></trkpt><trkpt lat="44.85273863158816" lon="9.667271139066953"><ele>383.0</ele><time>2026-05-03T15:43:52Z</time></trkpt><trkpt lat="44.85281920090818" lon="9.667311770148626"><ele>383.0</ele><time>2026-05-03T15:43:53Z</time></trkpt><trkpt lat="44.85288511811493" lon="9.667342729712239"><ele>383.0</ele><time>2026-05-03T15:43:54Z</time></trkpt><trkpt lat="44.85299042967243" lon="9.667376763114818"><ele>383.0</ele><time>2026-05-03T15:43:56Z</time></trkpt><trkpt lat="44.853095029346285" lon="9.66742002490673"><ele>383.0</ele><time>2026-05-03T15:43:58Z</time></trkpt><trkpt lat="44.85321858040786" lon="9.667460722812784"><ele>383.0</ele><time>2026-05-03T15:44:00Z</time></trkpt><trkpt lat="44.853281368155145" lon="9.667480110837358"><ele>383.0</ele><time>2026-05-03T15:44:01Z</time></trkpt><trkpt lat="44.85339795732492" lon="9.667532396807477"><ele>383.0</ele><time>2026-05-03T15:44:03Z</time></trkpt><trkpt lat="44.853517982180655" lon="9.667564126448045"><ele>383.0</ele><time>2026-05-03T15:44:05Z</time></trkpt><trkpt lat="44.85363385925255" lon="9.667571292297563"><ele>383.0</ele><time>2026-05-03T15:44:07Z</time></trkpt><trkpt lat="44.85375375125146" lon="9.667538453678219"><ele>383.79999999999995</ele><time>2026-05-03T15:44:09Z</time></trkpt><trkpt lat="44.85383147811235" lon="9.66749650758047"><ele>384.6</ele><time>2026-05-03T15:44:10Z</time></trkpt><trkpt lat="44.85392932566783" lon="9.667425937609247"><ele>385.4</ele><time>2026-05-03T15:44:11Z</time></trkpt><trkpt lat="44.85401683589926" lon="9.667351799310733"><ele>386.20000000000005</ele><time>2026-05-03T15:44:12Z</time></trkpt><trkpt lat="44.854113688097016" lon="9.667275339468564"><ele>387.0</ele><time>2026-05-03T15:44:13Z</time></trkpt><trkpt lat="44.85422929945104" lon="9.667206509626181"><ele>387.75</ele><time>2026-05-03T15:44:14Z</time></trkpt><trkpt lat="44.85435132766362" lon="9.667168259245488"><ele>388.5</ele><time>2026-05-03T15:44:15Z</time></trkpt><trkpt lat="44.85448414199997" lon="9.667164529715592"><ele>389.25</ele><time>2026-05-03T15:44:16Z</time></trkpt><trkpt lat="44.85462012192499" lon="9.667184157852375"><ele>390.0</ele><time>2026-05-03T15:44:17Z</time></trkpt><trkpt lat="44.85475152066002" lon="9.66724498597654"><ele>390.0</ele><time>2026-05-03T15:44:18Z</time></trkpt><trkpt lat="44.854869466389054" lon="9.667326729538694"><ele>390.0</ele><time>2026-05-03T15:44:19Z</time></trkpt><trkpt lat="44.85497561809381" lon="9.667406315466375"><ele>390.0</ele><time>2026-05-03T15:44:20Z</time></trkpt><trkpt lat="44.855071160228114" lon="9.667473332407846"><ele>390.0</ele><time>2026-05-03T15:44:21Z</time></trkpt><trkpt lat="44.85516487802226" lon="9.66749649933539"><ele>390.4</ele><time>2026-05-03T15:44:22Z</time></trkpt><trkpt lat="44.85525978888447" lon="9.66745732611934"><ele>390.8</ele><time>2026-05-03T15:44:23Z</time></trkpt><trkpt lat="44.85534957434261" lon="9.667373893572435"><ele>391.20000000000005</ele><time>2026-05-03T15:44:24Z</time></trkpt><trkpt lat="44.85542314221875" lon="9.66724614811867"><ele>391.6</ele><time>2026-05-03T15:44:25Z</time></trkpt><trkpt lat="44.85549028180219" lon="9.667120608505032"><ele>392.0</ele><time>2026-05-03T15:44:26Z</time></trkpt><trkpt lat="44.855559287310584" lon="9.66699608197352"><ele>392.5</ele><time>2026-05-03T15:44:26.999Z</time></trkpt><trkpt lat="44.85562929589935" lon="9.666864405940588"><ele>393.0</ele><time>2026-05-03T15:44:27.999Z</time></trkpt><trkpt lat="44.85569854660654" lon="9.666722003588166"><ele>393.5</ele><time>2026-05-03T15:44:28.999Z</time></trkpt><trkpt lat="44.8557648056133" lon="9.666549025026072"><ele>394.0</ele><time>2026-05-03T15:44:29.999Z</time></trkpt><trkpt lat="44.855825841755575" lon="9.666365316346985"><ele>394.0</ele><time>2026-05-03T15:44:30.999Z</time></trkpt><trkpt lat="44.85588198967142" lon="9.666195613100356"><ele>394.0</ele><time>2026-05-03T15:44:31.999Z</time></trkpt><trkpt lat="44.85594806707231" lon="9.666016937217998"><ele>394.0</ele><time>2026-05-03T15:44:32.999Z</time></trkpt><trkpt lat="44.85601910306308" lon="9.665834993393526"><ele>394.0</ele><time>2026-05-03T15:44:33.999Z</time></trkpt><trkpt lat="44.85608692796815" lon="9.665665438327988"><ele>393.25</ele><time>2026-05-03T15:44:34.999Z</time></trkpt><trkpt lat="44.85614022126205" lon="9.665522489616606"><ele>392.5</ele><time>2026-05-03T15:44:35.999Z</time></trkpt><trkpt lat="44.856180347440926" lon="9.665378306646492"><ele>391.75</ele><time>2026-05-03T15:44:36.999Z</time></trkpt><trkpt lat="44.85619860447927" lon="9.66521795294174"><ele>391.0</ele><time>2026-05-03T15:44:37.999Z</time></trkpt><trkpt lat="44.856191659481816" lon="9.665053797942035"><ele>391.0</ele><time>2026-05-03T15:44:38.999Z</time></trkpt><trkpt lat="44.85615486778422" lon="9.6648970801424"><ele>391.0</ele><time>2026-05-03T15:44:39.999Z</time></trkpt><trkpt lat="44.85608841590716" lon="9.664754171610257"><ele>391.0</ele><time>2026-05-03T15:44:40.999Z</time></trkpt><trkpt lat="44.856002529492514" lon="9.664624430544906"><ele>391.0</ele><time>2026-05-03T15:44:41.999Z</time></trkpt><trkpt lat="44.855926699983264" lon="9.664487158957463"><ele>390.0</ele><time>2026-05-03T15:44:42.999Z</time></trkpt><trkpt lat="44.85584974180785" lon="9.664330784500974"><ele>389.0</ele><time>2026-05-03T15:44:43.999Z</time></trkpt><trkpt lat="44.85578019339402" lon="9.664174167264223"><ele>388.0</ele><time>2026-05-03T15:44:44.999Z</time></trkpt><trkpt lat="44.85570587167124" lon="9.664014353269584"><ele>387.0</ele><time>2026-05-03T15:44:45.999Z</time></trkpt><trkpt lat="44.85563410029513" lon="9.663863706943259"><ele>387.0</ele><time>2026-05-03T15:44:46.999Z</time></trkpt><trkpt lat="44.855561083017534" lon="9.663719205436877"><ele>387.0</ele><time>2026-05-03T15:44:47.999Z</time></trkpt><trkpt lat="44.85548157089235" lon="9.663600173937672"><ele>387.0</ele><time>2026-05-03T15:44:48.999Z</time></trkpt><trkpt lat="44.85539688181235" lon="9.663500048779552"><ele>387.0</ele><time>2026-05-03T15:44:49.999Z</time></trkpt><trkpt lat="44.85531569542989" lon="9.66340714201347"><ele>385.0</ele><time>2026-05-03T15:44:50.999Z</time></trkpt><trkpt lat="44.85524493847673" lon="9.663307087649356"><ele>383.0</ele><time>2026-05-03T15:44:51.999Z</time></trkpt><trkpt lat="44.855192781232745" lon="9.663191927074656"><ele>381.0</ele><time>2026-05-03T15:44:52.999Z</time></trkpt><trkpt lat="44.85517518645187" lon="9.663060539370639"><ele>379.0</ele><time>2026-05-03T15:44:53.999Z</time></trkpt><trkpt lat="44.85519189847519" lon="9.662927498650825"><ele>377.0</ele><time>2026-05-03T15:44:54.999Z</time></trkpt><trkpt lat="44.855243903767004" lon="9.662790155247276"><ele>377.0</ele><time>2026-05-03T15:44:55.999Z</time></trkpt><trkpt lat="44.855335161981465" lon="9.662660735423017"><ele>377.0</ele><time>2026-05-03T15:44:56.999Z</time></trkpt><trkpt lat="44.85543336232989" lon="9.662554296889715"><ele>377.0</ele><time>2026-05-03T15:44:57.999Z</time></trkpt><trkpt lat="44.855534632560776" lon="9.662472298616997"><ele>377.0</ele><time>2026-05-03T15:44:58.999Z</time></trkpt><trkpt lat="44.85563689918842" lon="9.662400490128151"><ele>377.0</ele><time>2026-05-03T15:44:59.999Z</time></trkpt><trkpt lat="44.85573697545592" lon="9.662332811610781"><ele>377.0</ele><time>2026-05-03T15:45:00.999Z</time></trkpt><trkpt lat="44.855836449609285" lon="9.662264482028293"><ele>377.0</ele><time>2026-05-03T15:45:01.999Z</time></trkpt><trkpt lat="44.85593970271686" lon="9.66219207559099"><ele>377.0</ele><time>2026-05-03T15:45:02.999Z</time></trkpt><trkpt lat="44.85603879166829" lon="9.662120919943565"><ele>377.0</ele><time>2026-05-03T15:45:03.999Z</time></trkpt><trkpt lat="44.856137759549306" lon="9.662046307009414"><ele>376.0</ele><time>2026-05-03T15:45:04.999Z</time></trkpt><trkpt lat="44.85623652412132" lon="9.661974706095656"><ele>375.0</ele><time>2026-05-03T15:45:05.999Z</time></trkpt><trkpt lat="44.85632980785285" lon="9.661905801734843"><ele>374.0</ele><time>2026-05-03T15:45:06.999Z</time></trkpt><trkpt lat="44.856422223704456" lon="9.66185093544038"><ele>373.0</ele><time>2026-05-03T15:45:07.999Z</time></trkpt><trkpt lat="44.85651870064434" lon="9.661821090733179"><ele>372.0</ele><time>2026-05-03T15:45:08.999Z</time></trkpt><trkpt lat="44.85662423343873" lon="9.661813909018566"><ele>372.0</ele><time>2026-05-03T15:45:09.999Z</time></trkpt><trkpt lat="44.85674719168362" lon="9.661818594634331"><ele>372.0</ele><time>2026-05-03T15:45:10.999Z</time></trkpt><trkpt lat="44.85688467919395" lon="9.661825247353558"><ele>372.0</ele><time>2026-05-03T15:45:11.999Z</time></trkpt><trkpt lat="44.857011203030396" lon="9.66181874908311"><ele>372.0</ele><time>2026-05-03T15:45:12.999Z</time></trkpt><trkpt lat="44.85713121276023" lon="9.661799224155022"><ele>372.5</ele><time>2026-05-03T15:45:13.999Z</time></trkpt><trkpt lat="44.85724214510648" lon="9.661751969006623"><ele>373.0</ele><time>2026-05-03T15:45:14.999Z</time></trkpt><trkpt lat="44.85735218936841" lon="9.661687728398304"><ele>373.5</ele><time>2026-05-03T15:45:15.999Z</time></trkpt><trkpt lat="44.857450402493754" lon="9.661614699235493"><ele>374.0</ele><time>2026-05-03T15:45:16.999Z</time></trkpt><trkpt lat="44.8575574735185" lon="9.661533231204887"><ele>377.75</ele><time>2026-05-03T15:45:17.999Z</time></trkpt><trkpt lat="44.85766759003853" lon="9.661445201025948"><ele>381.5</ele><time>2026-05-03T15:45:18.999Z</time></trkpt><trkpt lat="44.85777712131752" lon="9.66135502282097"><ele>385.25</ele><time>2026-05-03T15:45:19.999Z</time></trkpt><trkpt lat="44.857871800742416" lon="9.661272004105102"><ele>389.0</ele><time>2026-05-03T15:45:20.999Z</time></trkpt><trkpt lat="44.85795911351245" lon="9.661212717805348"><ele>389.0</ele><time>2026-05-03T15:45:21.999Z</time></trkpt><trkpt lat="44.85805350583256" lon="9.661195834335851"><ele>389.0</ele><time>2026-05-03T15:45:22.999Z</time></trkpt><trkpt lat="44.85814549225875" lon="9.661234236450536"><ele>389.0</ele><time>2026-05-03T15:45:23.999Z</time></trkpt><trkpt lat="44.85823739056705" lon="9.661319694495448"><ele>389.0</ele><time>2026-05-03T15:45:24.999Z</time></trkpt><trkpt lat="44.85832658432028" lon="9.661396558664126"><ele>389.0</ele><time>2026-05-03T15:45:25.998Z</time></trkpt><trkpt lat="44.85841531849219" lon="9.66142748082712"><ele>391.5</ele><time>2026-05-03T15:45:26.998Z</time></trkpt><trkpt lat="44.8585068460871" lon="9.661403869242003"><ele>394.0</ele><time>2026-05-03T15:45:27.998Z</time></trkpt><trkpt lat="44.85861262911926" lon="9.661333279624515"><ele>396.5</ele><time>2026-05-03T15:45:28.998Z</time></trkpt><trkpt lat="44.858733160060005" lon="9.661260170496833"><ele>399.0</ele><time>2026-05-03T15:45:29.998Z</time></trkpt><trkpt lat="44.85884743758931" lon="9.661217417624053"><ele>399.0</ele><time>2026-05-03T15:45:30.998Z</time></trkpt><trkpt lat="44.85896385365781" lon="9.661161174489857"><ele>399.0</ele><time>2026-05-03T15:45:31.998Z</time></trkpt><trkpt lat="44.859086191867135" lon="9.661071411632012"><ele>399.0</ele><time>2026-05-03T15:45:32.998Z</time></trkpt><trkpt lat="44.85920622297086" lon="9.660955354608243"><ele>399.0</ele><time>2026-05-03T15:45:33.998Z</time></trkpt><trkpt lat="44.85931482330673" lon="9.660827382957399"><ele>397.5</ele><time>2026-05-03T15:45:34.998Z</time></trkpt><trkpt lat="44.85942003569842" lon="9.660706179884802"><ele>396.0</ele><time>2026-05-03T15:45:35.998Z</time></trkpt><trkpt lat="44.8595338006756" lon="9.660596164260383"><ele>394.5</ele><time>2026-05-03T15:45:36.998Z</time></trkpt><trkpt lat="44.85964803413493" lon="9.660496385131346"><ele>393.0</ele><time>2026-05-03T15:45:37.998Z</time></trkpt><trkpt lat="44.859764786671704" lon="9.660405278630416"><ele>393.0</ele><time>2026-05-03T15:45:38.998Z</time></trkpt><trkpt lat="44.859871609282834" lon="9.660299323918954"><ele>393.0</ele><time>2026-05-03T15:45:39.998Z</time></trkpt><trkpt lat="44.859957563533726" lon="9.660163721141782"><ele>393.0</ele><time>2026-05-03T15:45:40.998Z</time></trkpt><trkpt lat="44.86004417293341" lon="9.660023069242781"><ele>393.0</ele><time>2026-05-03T15:45:41.998Z</time></trkpt><trkpt lat="44.86013953182828" lon="9.65990887476085"><ele>390.25</ele><time>2026-05-03T15:45:42.998Z</time></trkpt><trkpt lat="44.860248707205535" lon="9.65982264835394"><ele>387.5</ele><time>2026-05-03T15:45:43.998Z</time></trkpt><trkpt lat="44.860367204273984" lon="9.659756816677271"><ele>384.75</ele><time>2026-05-03T15:45:44.998Z</time></trkpt><trkpt lat="44.86048079941399" lon="9.659695576521587"><ele>382.0</ele><time>2026-05-03T15:45:45.998Z</time></trkpt><trkpt lat="44.860584624136706" lon="9.659624678323796"><ele>382.0</ele><time>2026-05-03T15:45:46.998Z</time></trkpt><trkpt lat="44.86068453794144" lon="9.659541634863096"><ele>382.0</ele><time>2026-05-03T15:45:47.998Z</time></trkpt><trkpt lat="44.86078921024516" lon="9.659482313673081"><ele>382.0</ele><time>2026-05-03T15:45:48.998Z</time></trkpt><trkpt lat="44.86090198765864" lon="9.659433196982139"><ele>382.0</ele><time>2026-05-03T15:45:49.998Z</time></trkpt><trkpt lat="44.860990618339265" lon="9.659393329446313"><ele>382.0</ele><time>2026-05-03T15:45:50.998Z</time></trkpt><trkpt lat="44.86110316772403" lon="9.659351989009872"><ele>381.66666666666663</ele><time>2026-05-03T15:45:52.998Z</time></trkpt><trkpt lat="44.86120161658289" lon="9.659324216573827"><ele>381.3333333333333</ele><time>2026-05-03T15:45:55Z</time></trkpt><trkpt lat="44.86126723064885" lon="9.659314996458928"><ele>381.0</ele><time>2026-05-03T15:45:57Z</time></trkpt><trkpt lat="44.86133136319235" lon="9.659312439133261"><ele>380.6666666666667</ele><time>2026-05-03T15:46:02Z</time></trkpt><trkpt lat="44.86142275688045" lon="9.65930343635489"><ele>380.33333333333337</ele><time>2026-05-03T15:46:21Z</time></trkpt><trkpt lat="44.86148886188324" lon="9.659327354894625"><ele>380.0</ele><time>2026-05-03T15:46:22Z</time></trkpt><trkpt lat="44.86157000326837" lon="9.65937799539859"><ele>380.0</ele><time>2026-05-03T15:46:23Z</time></trkpt><trkpt lat="44.86165650454817" lon="9.65942128557684"><ele>380.0</ele><time>2026-05-03T15:46:24Z</time></trkpt><trkpt lat="44.86174925673151" lon="9.659457013214118"><ele>380.0</ele><time>2026-05-03T15:46:25Z</time></trkpt><trkpt lat="44.86184897550372" lon="9.659489625760171"><ele>380.0</ele><time>2026-05-03T15:46:26Z</time></trkpt><trkpt lat="44.86194285892483" lon="9.659517685647941"><ele>380.0</ele><time>2026-05-03T15:46:27Z</time></trkpt><trkpt lat="44.86202848636143" lon="9.659559463896255"><ele>379.1666666666667</ele><time>2026-05-03T15:46:28Z</time></trkpt><trkpt lat="44.862100181601534" lon="9.659591035515655"><ele>378.33333333333337</ele><time>2026-05-03T15:46:29Z</time></trkpt><trkpt lat="44.86217630819652" lon="9.6596237321051"><ele>377.5</ele><time>2026-05-03T15:46:30Z</time></trkpt><trkpt lat="44.8622561387771" lon="9.659664426000214"><ele>376.6666666666667</ele><time>2026-05-03T15:46:31Z</time></trkpt><trkpt lat="44.86233394992106" lon="9.65969903672335"><ele>375.8333333333333</ele><time>2026-05-03T15:46:32Z</time></trkpt><trkpt lat="44.86240971137528" lon="9.65973594458176"><ele>375.0</ele><time>2026-05-03T15:46:33Z</time></trkpt><trkpt lat="44.86248960987969" lon="9.659772743237399"><ele>375.0</ele><time>2026-05-03T15:46:34Z</time></trkpt><trkpt lat="44.86257095738188" lon="9.6598130697434"><ele>375.0</ele><time>2026-05-03T15:46:35Z</time></trkpt><trkpt lat="44.86264689038646" lon="9.659855410898087"><ele>375.0</ele><time>2026-05-03T15:46:36Z</time></trkpt><trkpt lat="44.8627163052313" lon="9.65989613232249"><ele>375.0</ele><time>2026-05-03T15:46:36.999Z</time></trkpt><trkpt lat="44.86278184830134" lon="9.65992816081883"><ele>375.0</ele><time>2026-05-03T15:46:37.999Z</time></trkpt><trkpt lat="44.862843303404894" lon="9.65995744559147"><ele>375.0</ele><time>2026-05-03T15:46:38.999Z</time></trkpt><trkpt lat="44.862909628131476" lon="9.659986781200507"><ele>375.0</ele><time>2026-05-03T15:46:39.999Z</time></trkpt><trkpt lat="44.86298333742837" lon="9.660023812520558"><ele>375.1666666666667</ele><time>2026-05-03T15:46:40.999Z</time></trkpt><trkpt lat="44.86305590961216" lon="9.660060268896817"><ele>375.3333333333333</ele><time>2026-05-03T15:46:41.999Z</time></trkpt><trkpt lat="44.86311816946235" lon="9.660093263533794"><ele>375.5</ele><time>2026-05-03T15:46:42.999Z</time></trkpt><trkpt lat="44.86322312054236" lon="9.660141268182674"><ele>375.66666666666663</ele><time>2026-05-03T15:46:44.999Z</time></trkpt><trkpt lat="44.86332235036027" lon="9.660168913617289"><ele>375.8333333333333</ele><time>2026-05-03T15:46:46.999Z</time></trkpt><trkpt lat="44.86339292520292" lon="9.660083709693838"><ele>376.0</ele><time>2026-05-03T15:46:48.999Z</time></trkpt><trkpt lat="44.8634911881932" lon="9.660060887917327"><ele>375.5</ele><time>2026-05-03T15:46:52.999Z</time></trkpt><trkpt lat="44.86357373055171" lon="9.66008521576891"><ele>375.0</ele><time>2026-05-03T15:46:54.999Z</time></trkpt><trkpt lat="44.863638132098316" lon="9.660079949860643"><ele>374.5</ele><time>2026-05-03T15:46:55.999Z</time></trkpt><trkpt lat="44.86372746313974" lon="9.66007704411977"><ele>374.0</ele><time>2026-05-03T15:46:56.999Z</time></trkpt><trkpt lat="44.86380147940208" lon="9.660071037086423"><ele>373.5</ele><time>2026-05-03T15:46:57.999Z</time></trkpt><trkpt lat="44.863734091832015" lon="9.660088151474474"><ele>373.0</ele><time>2026-05-03T15:47:34.999Z</time></trkpt><trkpt lat="44.86366620744242" lon="9.660068736638427"><ele>373.0</ele><time>2026-05-03T15:47:41.998Z</time></trkpt><trkpt lat="44.86367589028607" lon="9.65997782268185"><ele>373.0</ele><time>2026-05-03T15:48:07Z</time></trkpt><trkpt lat="44.86371871245039" lon="9.659907786372665"><ele>373.0</ele><time>2026-05-03T15:48:16Z</time></trkpt><trkpt lat="44.863787416206954" lon="9.659928506194982"><ele>373.0</ele><time>2026-05-03T15:48:49.999Z</time></trkpt><trkpt lat="44.86378642209054" lon="9.660028070038095"><ele>373.0</ele><time>2026-05-03T15:48:55.999Z</time></trkpt><trkpt lat="44.86368519445502" lon="9.660088675621527"><ele>373.0</ele><time>2026-05-03T15:49:21.999Z</time></trkpt><trkpt lat="44.86362711334043" lon="9.660131504036771"><ele>373.0</ele><time>2026-05-03T15:49:22.999Z</time></trkpt><trkpt lat="44.86353146767114" lon="9.66011198023363"><ele>373.0</ele><time>2026-05-03T15:49:24.999Z</time></trkpt><trkpt lat="44.86345614283006" lon="9.660039467930156"><ele>373.0</ele><time>2026-05-03T15:49:26.999Z</time></trkpt><trkpt lat="44.86337816968203" lon="9.660076345654046"><ele>373.0</ele><time>2026-05-03T15:49:30.999Z</time></trkpt><trkpt lat="44.86334452908375" lon="9.660163413963485"><ele>373.0</ele><time>2026-05-03T15:49:33.999Z</time></trkpt><trkpt lat="44.86323352053827" lon="9.660165897994418"><ele>373.0</ele><time>2026-05-03T15:49:36.999Z</time></trkpt><trkpt lat="44.86310724164691" lon="9.660097988350925"><ele>373.5</ele><time>2026-05-03T15:49:38.999Z</time></trkpt><trkpt lat="44.86303689039782" lon="9.660056224850301"><ele>374.0</ele><time>2026-05-03T15:49:39.999Z</time></trkpt><trkpt lat="44.86295382407949" lon="9.66001628434706"><ele>374.5</ele><time>2026-05-03T15:49:40.999Z</time></trkpt><trkpt lat="44.86287164826524" lon="9.65997601664375"><ele>375.0</ele><time>2026-05-03T15:49:41.999Z</time></trkpt><trkpt lat="44.862781599317" lon="9.659931186330349"><ele>375.5</ele><time>2026-05-03T15:49:42.999Z</time></trkpt><trkpt lat="44.86269729457324" lon="9.659888357700991"><ele>376.0</ele><time>2026-05-03T15:49:43.999Z</time></trkpt><trkpt lat="44.86261782763215" lon="9.659842037773144"><ele>375.8333333333333</ele><time>2026-05-03T15:49:44.999Z</time></trkpt><trkpt lat="44.86254181540205" lon="9.659789821768344"><ele>375.66666666666663</ele><time>2026-05-03T15:49:45.998Z</time></trkpt><trkpt lat="44.862465255564494" lon="9.659755804089976"><ele>375.5</ele><time>2026-05-03T15:49:46.998Z</time></trkpt><trkpt lat="44.86238472401781" lon="9.659727939514802"><ele>375.3333333333333</ele><time>2026-05-03T15:49:47.998Z</time></trkpt><trkpt lat="44.86230572447565" lon="9.659686122491706"><ele>375.1666666666667</ele><time>2026-05-03T15:49:48.998Z</time></trkpt><trkpt lat="44.862226638212015" lon="9.659639439678914"><ele>375.0</ele><time>2026-05-03T15:49:49.998Z</time></trkpt><trkpt lat="44.862140193575605" lon="9.65959864185818"><ele>375.0</ele><time>2026-05-03T15:49:50.998Z</time></trkpt><trkpt lat="44.86204831622417" lon="9.659564226089499"><ele>375.0</ele><time>2026-05-03T15:49:51.998Z</time></trkpt><trkpt lat="44.86195685160805" lon="9.659527270097579"><ele>375.0</ele><time>2026-05-03T15:49:52.998Z</time></trkpt><trkpt lat="44.86186710508427" lon="9.659500453997053"><ele>375.0</ele><time>2026-05-03T15:49:53.998Z</time></trkpt><trkpt lat="44.861782099786666" lon="9.659470299066589"><ele>375.0</ele><time>2026-05-03T15:49:54.998Z</time></trkpt><trkpt lat="44.86170329548192" lon="9.65943396260088"><ele>375.8333333333333</ele><time>2026-05-03T15:49:55.998Z</time></trkpt><trkpt lat="44.86162750138526" lon="9.659407297848738"><ele>376.6666666666667</ele><time>2026-05-03T15:49:56.998Z</time></trkpt><trkpt lat="44.861551431271735" lon="9.659372397406564"><ele>377.5</ele><time>2026-05-03T15:49:57.998Z</time></trkpt><trkpt lat="44.861473670640216" lon="9.659338845819011"><ele>378.33333333333337</ele><time>2026-05-03T15:49:58.998Z</time></trkpt><trkpt lat="44.86139108925799" lon="9.65930738103355"><ele>379.1666666666667</ele><time>2026-05-03T15:49:59.998Z</time></trkpt><trkpt lat="44.861305223025234" lon="9.659304435242253"><ele>380.0</ele><time>2026-05-03T15:50:00.998Z</time></trkpt><trkpt lat="44.86120999195146" lon="9.659324495499396"><ele>380.0</ele><time>2026-05-03T15:50:01.998Z</time></trkpt><trkpt lat="44.8611136371826" lon="9.659360820175081"><ele>380.0</ele><time>2026-05-03T15:50:02.998Z</time></trkpt><trkpt lat="44.86101844252358" lon="9.659395539988482"><ele>380.0</ele><time>2026-05-03T15:50:03.998Z</time></trkpt><trkpt lat="44.86093297040952" lon="9.659435147633552"><ele>380.0</ele><time>2026-05-03T15:50:04.998Z</time></trkpt><trkpt lat="44.86085645968607" lon="9.659462645349853"><ele>380.0</ele><time>2026-05-03T15:50:05.998Z</time></trkpt><trkpt lat="44.860763403086494" lon="9.659500473252368"><ele>380.5</ele><time>2026-05-03T15:50:08Z</time></trkpt><trkpt lat="44.860731303900266" lon="9.65941281262125"><ele>381.0</ele><time>2026-05-03T15:50:10Z</time></trkpt><trkpt lat="44.860750147378454" lon="9.6593254556692"><ele>381.5</ele><time>2026-05-03T15:50:11Z</time></trkpt><trkpt lat="44.86076903147535" lon="9.65921034674265"><ele>382.0</ele><time>2026-05-03T15:50:12Z</time></trkpt><trkpt lat="44.8607795813426" lon="9.659070650980071"><ele>382.5</ele><time>2026-05-03T15:50:13Z</time></trkpt><trkpt lat="44.860768851020964" lon="9.658931209479917"><ele>383.0</ele><time>2026-05-03T15:50:14Z</time></trkpt><trkpt lat="44.8607617957882" lon="9.658796515364621"><ele>383.0</ele><time>2026-05-03T15:50:15Z</time></trkpt><trkpt lat="44.860759580705725" lon="9.658686179000592"><ele>383.0</ele><time>2026-05-03T15:50:16Z</time></trkpt><trkpt lat="44.86076454797734" lon="9.658561054059374"><ele>383.0</ele><time>2026-05-03T15:50:17Z</time></trkpt><trkpt lat="44.860790148411155" lon="9.658400373250732"><ele>383.0</ele><time>2026-05-03T15:50:18Z</time></trkpt><trkpt lat="44.86083372534572" lon="9.658224122317645"><ele>383.0</ele><time>2026-05-03T15:50:19Z</time></trkpt><trkpt lat="44.86087907150869" lon="9.658069613345786"><ele>382.4</ele><time>2026-05-03T15:50:20Z</time></trkpt><trkpt lat="44.8609218430763" lon="9.65795886199342"><ele>381.79999999999995</ele><time>2026-05-03T15:50:21Z</time></trkpt><trkpt lat="44.860965856002466" lon="9.657851623378983"><ele>381.2</ele><time>2026-05-03T15:50:22Z</time></trkpt><trkpt lat="44.861019663674135" lon="9.657743788185671"><ele>380.6</ele><time>2026-05-03T15:50:23Z</time></trkpt><trkpt lat="44.86108697111567" lon="9.657642436003714"><ele>380.0</ele><time>2026-05-03T15:50:24Z</time></trkpt><trkpt lat="44.861174167491455" lon="9.657545841169487"><ele>377.0</ele><time>2026-05-03T15:50:25Z</time></trkpt><trkpt lat="44.86126490257057" lon="9.657414270325237"><ele>374.0</ele><time>2026-05-03T15:50:26Z</time></trkpt><trkpt lat="44.86135855071416" lon="9.657282376815491"><ele>371.0</ele><time>2026-05-03T15:50:27Z</time></trkpt><trkpt lat="44.861456352831" lon="9.657152205364703"><ele>368.0</ele><time>2026-05-03T15:50:28Z</time></trkpt><trkpt lat="44.86156355688391" lon="9.657040848232748"><ele>365.0</ele><time>2026-05-03T15:50:29Z</time></trkpt><trkpt lat="44.861683218357015" lon="9.656951671624213"><ele>362.0</ele><time>2026-05-03T15:50:30Z</time></trkpt><trkpt lat="44.86181759438974" lon="9.656897499190784"><ele>359.0</ele><time>2026-05-03T15:50:31Z</time></trkpt><trkpt lat="44.86197724379629" lon="9.65687828178531"><ele>356.0</ele><time>2026-05-03T15:50:32Z</time></trkpt><trkpt lat="44.86216128842789" lon="9.656866969078068"><ele>355.6666666666667</ele><time>2026-05-03T15:50:33Z</time></trkpt><trkpt lat="44.86234638062542" lon="9.656867407161958"><ele>355.3333333333333</ele><time>2026-05-03T15:50:34Z</time></trkpt><trkpt lat="44.86251550440827" lon="9.656894898348538"><ele>355.0</ele><time>2026-05-03T15:50:35Z</time></trkpt><trkpt lat="44.86265377833571" lon="9.656942720371502"><ele>355.0</ele><time>2026-05-03T15:50:36Z</time></trkpt><trkpt lat="44.86277613744868" lon="9.656982831652998"><ele>355.0</ele><time>2026-05-03T15:50:37Z</time></trkpt><trkpt lat="44.86289913413168" lon="9.656978201979326"><ele>355.0</ele><time>2026-05-03T15:50:38Z</time></trkpt><trkpt lat="44.863041704396764" lon="9.656920349205146"><ele>355.0</ele><time>2026-05-03T15:50:39Z</time></trkpt><trkpt lat="44.863203490105526" lon="9.656847672747512"><ele>354.66666666666663</ele><time>2026-05-03T15:50:40Z</time></trkpt><trkpt lat="44.86338194239378" lon="9.656779403714385"><ele>354.3333333333333</ele><time>2026-05-03T15:50:41Z</time></trkpt><trkpt lat="44.86357369249118" lon="9.656705596091001"><ele>354.0</ele><time>2026-05-03T15:50:42Z</time></trkpt><trkpt lat="44.86374315954852" lon="9.656627385327054"><ele>352.6666666666667</ele><time>2026-05-03T15:50:43Z</time></trkpt><trkpt lat="44.86388548756882" lon="9.656576004661146"><ele>351.33333333333337</ele><time>2026-05-03T15:50:44Z</time></trkpt><trkpt lat="44.8640299293674" lon="9.656500318713801"><ele>350.0</ele><time>2026-05-03T15:50:45Z</time></trkpt><trkpt lat="44.86419160760163" lon="9.656374091132486"><ele>349.0</ele><time>2026-05-03T15:50:46Z</time></trkpt><trkpt lat="44.86434681826818" lon="9.65625452354078"><ele>348.0</ele><time>2026-05-03T15:50:47Z</time></trkpt><trkpt lat="44.864498679869364" lon="9.656177262632658"><ele>347.0</ele><time>2026-05-03T15:50:47.999Z</time></trkpt><trkpt lat="44.86464229734326" lon="9.656118481007798"><ele>347.0</ele><time>2026-05-03T15:50:48.999Z</time></trkpt><trkpt lat="44.86478045246333" lon="9.65607921346927"><ele>347.0</ele><time>2026-05-03T15:50:49.999Z</time></trkpt><trkpt lat="44.864888020990676" lon="9.656038687517748"><ele>347.0</ele><time>2026-05-03T15:50:50.999Z</time></trkpt><trkpt lat="44.86497981763747" lon="9.655991451795392"><ele>347.0</ele><time>2026-05-03T15:50:51.999Z</time></trkpt><trkpt lat="44.86505599029323" lon="9.65592933406349"><ele>347.0</ele><time>2026-05-03T15:50:52.999Z</time></trkpt><trkpt lat="44.86511430295543" lon="9.655854466760317"><ele>346.0</ele><time>2026-05-03T15:50:53.999Z</time></trkpt><trkpt lat="44.865157423814026" lon="9.655757347984009"><ele>345.0</ele><time>2026-05-03T15:50:54.999Z</time></trkpt><trkpt lat="44.865179266998865" lon="9.655639976041448"><ele>344.0</ele><time>2026-05-03T15:50:55.999Z</time></trkpt><trkpt lat="44.86519563803368" lon="9.655517967795692"><ele>343.0</ele><time>2026-05-03T15:50:56.999Z</time></trkpt><trkpt lat="44.865221280084135" lon="9.655397518283438"><ele>342.0</ele><time>2026-05-03T15:50:57.999Z</time></trkpt><trkpt lat="44.8652591440241" lon="9.655273665287972"><ele>341.0</ele><time>2026-05-03T15:50:58.999Z</time></trkpt><trkpt lat="44.86531187477005" lon="9.65514917250052"><ele>340.0</ele><time>2026-05-03T15:50:59.999Z</time></trkpt><trkpt lat="44.86535988446214" lon="9.65502494390649"><ele>339.0</ele><time>2026-05-03T15:51:00.999Z</time></trkpt><trkpt lat="44.86541561515447" lon="9.654897491527095"><ele>338.0</ele><time>2026-05-03T15:51:01.999Z</time></trkpt><trkpt lat="44.865503118627046" lon="9.654784637918329"><ele>337.0</ele><time>2026-05-03T15:51:02.999Z</time></trkpt><trkpt lat="44.86560276264366" lon="9.654658208237894"><ele>337.0</ele><time>2026-05-03T15:51:03.999Z</time></trkpt><trkpt lat="44.86571168637819" lon="9.654506395625095"><ele>337.0</ele><time>2026-05-03T15:51:04.999Z</time></trkpt><trkpt lat="44.86583825976433" lon="9.654329162235873"><ele>337.0</ele><time>2026-05-03T15:51:05.999Z</time></trkpt><trkpt lat="44.86595450268648" lon="9.654150188708485"><ele>331.0</ele><time>2026-05-03T15:51:06.999Z</time></trkpt><trkpt lat="44.866059536047466" lon="9.653972893307655"><ele>325.0</ele><time>2026-05-03T15:51:07.999Z</time></trkpt><trkpt lat="44.866168026654535" lon="9.653798782978413"><ele>319.0</ele><time>2026-05-03T15:51:08.999Z</time></trkpt><trkpt lat="44.8662742514598" lon="9.653630603536579"><ele>316.3333333333333</ele><time>2026-05-03T15:51:09.999Z</time></trkpt><trkpt lat="44.8663887136745" lon="9.653467828822624"><ele>313.6666666666667</ele><time>2026-05-03T15:51:10.999Z</time></trkpt><trkpt lat="44.86650466013005" lon="9.653332104933423"><ele>311.0</ele><time>2026-05-03T15:51:11.999Z</time></trkpt><trkpt lat="44.866626334668055" lon="9.653220062806348"><ele>311.0</ele><time>2026-05-03T15:51:12.999Z</time></trkpt><trkpt lat="44.86675461411245" lon="9.653138797995322"><ele>311.0</ele><time>2026-05-03T15:51:13.999Z</time></trkpt><trkpt lat="44.866881890900665" lon="9.653097179325403"><ele>311.0</ele><time>2026-05-03T15:51:14.999Z</time></trkpt><trkpt lat="44.86701920334406" lon="9.653089038047739"><ele>311.0</ele><time>2026-05-03T15:51:15.999Z</time></trkpt><trkpt lat="44.86717475538613" lon="9.653106379008163"><ele>310.25</ele><time>2026-05-03T15:51:16.999Z</time></trkpt><trkpt lat="44.86730250450492" lon="9.653141447307203"><ele>309.5</ele><time>2026-05-03T15:51:17.999Z</time></trkpt><trkpt lat="44.867411471074156" lon="9.6532090080691"><ele>308.75</ele><time>2026-05-03T15:51:18.999Z</time></trkpt><trkpt lat="44.86751770677468" lon="9.653304566997814"><ele>308.0</ele><time>2026-05-03T15:51:19.999Z</time></trkpt><trkpt lat="44.86762370112254" lon="9.65342626919194"><ele>306.2</ele><time>2026-05-03T15:51:20.999Z</time></trkpt><trkpt lat="44.86771017577434" lon="9.653537882434703"><ele>304.4</ele><time>2026-05-03T15:51:21.999Z</time></trkpt><trkpt lat="44.867779236568865" lon="9.653632756474064"><ele>302.59999999999997</ele><time>2026-05-03T15:51:22.999Z</time></trkpt><trkpt lat="44.86784528263151" lon="9.653728370519335"><ele>300.8</ele><time>2026-05-03T15:51:23.999Z</time></trkpt><trkpt lat="44.867912080395115" lon="9.65381965007065"><ele>299.0</ele><time>2026-05-03T15:51:24.999Z</time></trkpt><trkpt lat="44.867986909057244" lon="9.653893037526691"><ele>299.0</ele><time>2026-05-03T15:51:25.999Z</time></trkpt><trkpt lat="44.86806370527328" lon="9.653971757840617"><ele>299.0</ele><time>2026-05-03T15:51:26.999Z</time></trkpt><trkpt lat="44.86813990810413" lon="9.6540486300667"><ele>299.0</ele><time>2026-05-03T15:51:27.999Z</time></trkpt><trkpt lat="44.86821721635068" lon="9.654126693227179"><ele>299.0</ele><time>2026-05-03T15:51:28.999Z</time></trkpt><trkpt lat="44.86829550153492" lon="9.654197026660976"><ele>299.0</ele><time>2026-05-03T15:51:29.999Z</time></trkpt><trkpt lat="44.86838397901538" lon="9.654258737011826"><ele>296.25</ele><time>2026-05-03T15:51:30.999Z</time></trkpt><trkpt lat="44.868489286253066" lon="9.65430829603862"><ele>293.5</ele><time>2026-05-03T15:51:31.999Z</time></trkpt><trkpt lat="44.86861844199038" lon="9.654362025508489"><ele>290.75</ele><time>2026-05-03T15:51:32.999Z</time></trkpt><trkpt lat="44.8687683207989" lon="9.654424347720159"><ele>288.0</ele><time>2026-05-03T15:51:33.999Z</time></trkpt><trkpt lat="44.86891376982174" lon="9.654478131221813"><ele>287.8</ele><time>2026-05-03T15:51:34.999Z</time></trkpt><trkpt lat="44.86903733701578" lon="9.654516030477504"><ele>287.6</ele><time>2026-05-03T15:51:35.999Z</time></trkpt><trkpt lat="44.86913551183314" lon="9.654542733629048"><ele>287.4</ele><time>2026-05-03T15:51:36.999Z</time></trkpt><trkpt lat="44.86920096890504" lon="9.65454757977811"><ele>287.2</ele><time>2026-05-03T15:51:37.999Z</time></trkpt><trkpt lat="44.869296540452375" lon="9.654423500655787"><ele>287.0</ele><time>2026-05-03T15:51:39.999Z</time></trkpt><trkpt lat="44.86933102306008" lon="9.654271342593258"><ele>283.33333333333337</ele><time>2026-05-03T15:51:40.999Z</time></trkpt><trkpt lat="44.869376610996234" lon="9.65408171972377"><ele>279.6666666666667</ele><time>2026-05-03T15:51:41.999Z</time></trkpt><trkpt lat="44.86946363052041" lon="9.65389521092085"><ele>276.0</ele><time>2026-05-03T15:51:42.999Z</time></trkpt><trkpt lat="44.869567126022496" lon="9.653669950614194"><ele>275.6666666666667</ele><time>2026-05-03T15:51:43.999Z</time></trkpt><trkpt lat="44.86967454548082" lon="9.653424483217993"><ele>275.33333333333337</ele><time>2026-05-03T15:51:44.999Z</time></trkpt><trkpt lat="44.8697665501841" lon="9.653204974614887"><ele>275.0</ele><time>2026-05-03T15:51:45.999Z</time></trkpt><trkpt lat="44.86984737437679" lon="9.653010863952154"><ele>275.0</ele><time>2026-05-03T15:51:46.999Z</time></trkpt><trkpt lat="44.86992512882294" lon="9.652848482825393"><ele>275.0</ele><time>2026-05-03T15:51:47.998Z</time></trkpt><trkpt lat="44.87000036451958" lon="9.65275909258011"><ele>275.0</ele><time>2026-05-03T15:51:48.998Z</time></trkpt><trkpt lat="44.87007899833688" lon="9.652727739612956"><ele>275.0</ele><time>2026-05-03T15:51:49.998Z</time></trkpt><trkpt lat="44.870165707368" lon="9.652753371282008"><ele>275.0</ele><time>2026-05-03T15:51:50.998Z</time></trkpt><trkpt lat="44.87029366629299" lon="9.652823981213281"><ele>273.0</ele><time>2026-05-03T15:51:51.998Z</time></trkpt><trkpt lat="44.870452138761756" lon="9.652908415413464"><ele>271.0</ele><time>2026-05-03T15:51:52.998Z</time></trkpt><trkpt lat="44.870579618071666" lon="9.65295836320697"><ele>269.0</ele><time>2026-05-03T15:51:53.998Z</time></trkpt><trkpt lat="44.87070376826951" lon="9.652947003505405"><ele>267.0</ele><time>2026-05-03T15:51:54.998Z</time></trkpt><trkpt lat="44.870834044224736" lon="9.652943223576345"><ele>261.5</ele><time>2026-05-03T15:51:55.998Z</time></trkpt><trkpt lat="44.87097813133409" lon="9.652996022019565"><ele>256.0</ele><time>2026-05-03T15:51:56.998Z</time></trkpt><trkpt lat="44.87113128647332" lon="9.653006083063858"><ele>250.5</ele><time>2026-05-03T15:51:57.998Z</time></trkpt><trkpt lat="44.871271503181966" lon="9.652984939682819"><ele>245.0</ele><time>2026-05-03T15:51:58.998Z</time></trkpt><trkpt lat="44.8713856076629" lon="9.652974675183575"><ele>245.0</ele><time>2026-05-03T15:51:59.998Z</time></trkpt><trkpt lat="44.87147280214828" lon="9.652968436132591"><ele>245.0</ele><time>2026-05-03T15:52:00.998Z</time></trkpt><trkpt lat="44.87153712814347" lon="9.652944540684592"><ele>245.0</ele><time>2026-05-03T15:52:01.998Z</time></trkpt><trkpt lat="44.87158425892145" lon="9.652771034397105"><ele>245.0</ele><time>2026-05-03T15:52:03.998Z</time></trkpt><trkpt lat="44.87157127015764" lon="9.652612267524075"><ele>245.0</ele><time>2026-05-03T15:52:04.998Z</time></trkpt><trkpt lat="44.87154057097704" lon="9.652417763234864"><ele>244.2</ele><time>2026-05-03T15:52:05.998Z</time></trkpt><trkpt lat="44.871489402798176" lon="9.652226570197366"><ele>243.4</ele><time>2026-05-03T15:52:06.998Z</time></trkpt><trkpt lat="44.8714423228541" lon="9.652063292372025"><ele>242.60000000000002</ele><time>2026-05-03T15:52:07.998Z</time></trkpt><trkpt lat="44.87141301274695" lon="9.651939046881798"><ele>241.8</ele><time>2026-05-03T15:52:08.998Z</time></trkpt><trkpt lat="44.871377390498026" lon="9.651850603570976"><ele>241.0</ele><time>2026-05-03T15:52:09.998Z</time></trkpt><trkpt lat="44.871296381888456" lon="9.651773306650647"><ele>241.5</ele><time>2026-05-03T15:52:10.998Z</time></trkpt><trkpt lat="44.87116626084741" lon="9.651684061427627"><ele>242.0</ele><time>2026-05-03T15:52:11.998Z</time></trkpt><trkpt lat="44.871033089044424" lon="9.6515668028145"><ele>242.5</ele><time>2026-05-03T15:52:13Z</time></trkpt><trkpt lat="44.87093857353688" lon="9.651474385010633"><ele>243.0</ele><time>2026-05-03T15:52:14Z</time></trkpt><trkpt lat="44.87087697112901" lon="9.65139749153566"><ele>243.0</ele><time>2026-05-03T15:52:15Z</time></trkpt><trkpt lat="44.870821282907485" lon="9.651269144401128"><ele>243.0</ele><time>2026-05-03T15:52:17Z</time></trkpt><trkpt lat="44.87081728420212" lon="9.65116373560217"><ele>243.0</ele><time>2026-05-03T15:52:18Z</time></trkpt><trkpt lat="44.870853835076026" lon="9.651018173626007"><ele>243.0</ele><time>2026-05-03T15:52:19Z</time></trkpt><trkpt lat="44.87093451442161" lon="9.650857720849586"><ele>243.0</ele><time>2026-05-03T15:52:20Z</time></trkpt><trkpt lat="44.87105047977175" lon="9.650698044940471"><ele>236.0</ele><time>2026-05-03T15:52:21Z</time></trkpt><trkpt lat="44.871145103604505" lon="9.650530349801521"><ele>229.0</ele><time>2026-05-03T15:52:22Z</time></trkpt><trkpt lat="44.87122556773374" lon="9.650367828397755"><ele>222.0</ele><time>2026-05-03T15:52:23Z</time></trkpt><trkpt lat="44.871271967765736" lon="9.650234326068924"><ele>215.0</ele><time>2026-05-03T15:52:24Z</time></trkpt><trkpt lat="44.87129513762497" lon="9.650137267237644"><ele>214.16666666666669</ele><time>2026-05-03T15:52:25Z</time></trkpt><trkpt lat="44.87129867687015" lon="9.650045373347945"><ele>213.33333333333334</ele><time>2026-05-03T15:52:26Z</time></trkpt><trkpt lat="44.871277750515006" lon="9.649929082922172"><ele>212.5</ele><time>2026-05-03T15:52:27Z</time></trkpt><trkpt lat="44.87124912060564" lon="9.649814747530607"><ele>211.66666666666669</ele><time>2026-05-03T15:52:28Z</time></trkpt><trkpt lat="44.87123415433137" lon="9.649691365698878"><ele>210.83333333333334</ele><time>2026-05-03T15:52:29Z</time></trkpt><trkpt lat="44.87123182752925" lon="9.649601937790102"><ele>210.0</ele><time>2026-05-03T15:52:30Z</time></trkpt><trkpt lat="44.87127047833385" lon="9.649514220379588"><ele>210.0</ele><time>2026-05-03T15:52:32Z</time></trkpt><trkpt lat="44.8713446905573" lon="9.649520580919564"><ele>210.0</ele><time>2026-05-03T15:52:34Z</time></trkpt><trkpt lat="44.87140383639032" lon="9.649564016013706"><ele>210.0</ele><time>2026-05-03T15:52:35Z</time></trkpt><trkpt lat="44.87147274148836" lon="9.649621147975273"><ele>210.0</ele><time>2026-05-03T15:52:36Z</time></trkpt><trkpt lat="44.8715440778855" lon="9.649662477215495"><ele>210.0</ele><time>2026-05-03T15:52:37Z</time></trkpt><trkpt lat="44.871615175196425" lon="9.64965648942823"><ele>210.0</ele><time>2026-05-03T15:52:38Z</time></trkpt><trkpt lat="44.87167535016198" lon="9.649620139132967"><ele>210.0</ele><time>2026-05-03T15:52:39Z</time></trkpt><trkpt lat="44.87171817662537" lon="9.649543515393432"><ele>209.25</ele><time>2026-05-03T15:52:42Z</time></trkpt><trkpt lat="44.87175211182052" lon="9.649371046656784"><ele>208.5</ele><time>2026-05-03T15:52:45Z</time></trkpt><trkpt lat="44.87174522479997" lon="9.649236799945399"><ele>207.75</ele><time>2026-05-03T15:52:46Z</time></trkpt><trkpt lat="44.87173003786934" lon="9.6490654590535"><ele>207.0</ele><time>2026-05-03T15:52:47Z</time></trkpt><trkpt lat="44.871714743248276" lon="9.648876961451379"><ele>207.0</ele><time>2026-05-03T15:52:48Z</time></trkpt><trkpt lat="44.8717117342056" lon="9.648672898352302"><ele>207.0</ele><time>2026-05-03T15:52:49Z</time></trkpt><trkpt lat="44.87172473804632" lon="9.64845193523617"><ele>207.0</ele><time>2026-05-03T15:52:50Z</time></trkpt><trkpt lat="44.87174569610374" lon="9.64823861939196"><ele>206.75</ele><time>2026-05-03T15:52:51Z</time></trkpt><trkpt lat="44.87176519143128" lon="9.648066590440404"><ele>206.5</ele><time>2026-05-03T15:52:52Z</time></trkpt><trkpt lat="44.87177294960954" lon="9.647906717655507"><ele>206.25</ele><time>2026-05-03T15:52:53Z</time></trkpt><trkpt lat="44.871787719003954" lon="9.647750968738533"><ele>206.0</ele><time>2026-05-03T15:52:53.999Z</time></trkpt><trkpt lat="44.87181208145665" lon="9.647583640236016"><ele>205.25</ele><time>2026-05-03T15:52:54.999Z</time></trkpt><trkpt lat="44.87184870079506" lon="9.647416315643328"><ele>204.5</ele><time>2026-05-03T15:52:55.999Z</time></trkpt><trkpt lat="44.87188656368855" lon="9.647244805929697"><ele>203.75</ele><time>2026-05-03T15:52:56.999Z</time></trkpt><trkpt lat="44.871922299082364" lon="9.647069823503497"><ele>203.0</ele><time>2026-05-03T15:52:57.999Z</time></trkpt><trkpt lat="44.87196833593503" lon="9.646894368478879"><ele>203.0</ele><time>2026-05-03T15:52:58.999Z</time></trkpt><trkpt lat="44.872032310151475" lon="9.64671499522387"><ele>203.0</ele><time>2026-05-03T15:52:59.999Z</time></trkpt><trkpt lat="44.87209838303773" lon="9.64655405096219"><ele>203.0</ele><time>2026-05-03T15:53:00.999Z</time></trkpt><trkpt lat="44.872146752875" lon="9.64639589665089"><ele>203.0</ele><time>2026-05-03T15:53:01.999Z</time></trkpt><trkpt lat="44.87217978018553" lon="9.646223989541003"><ele>203.5</ele><time>2026-05-03T15:53:02.999Z</time></trkpt><trkpt lat="44.87220827738242" lon="9.646034258737222"><ele>204.0</ele><time>2026-05-03T15:53:03.999Z</time></trkpt><trkpt lat="44.872234695797125" lon="9.645838896729238"><ele>204.5</ele><time>2026-05-03T15:53:04.999Z</time></trkpt><trkpt lat="44.872259789916825" lon="9.645632477294864"><ele>205.0</ele><time>2026-05-03T15:53:05.999Z</time></trkpt><trkpt lat="44.87228524689456" lon="9.645408299597253"><ele>205.25</ele><time>2026-05-03T15:53:06.999Z</time></trkpt><trkpt lat="44.87230859822313" lon="9.645194537652747"><ele>205.5</ele><time>2026-05-03T15:53:07.999Z</time></trkpt><trkpt lat="44.872329840708" lon="9.644995043729072"><ele>205.75</ele><time>2026-05-03T15:53:08.999Z</time></trkpt><trkpt lat="44.87235010436269" lon="9.644806412470563"><ele>206.0</ele><time>2026-05-03T15:53:09.999Z</time></trkpt><trkpt lat="44.87237045826699" lon="9.644627355361628"><ele>206.4</ele><time>2026-05-03T15:53:10.999Z</time></trkpt><trkpt lat="44.87239051451057" lon="9.644455889890724"><ele>206.8</ele><time>2026-05-03T15:53:11.999Z</time></trkpt><trkpt lat="44.872411717185855" lon="9.644297151471346"><ele>207.20000000000002</ele><time>2026-05-03T15:53:12.999Z</time></trkpt><trkpt lat="44.87244578739745" lon="9.644153553586907"><ele>207.60000000000002</ele><time>2026-05-03T15:53:13.999Z</time></trkpt><trkpt lat="44.872494704711215" lon="9.644026687948639"><ele>208.0</ele><time>2026-05-03T15:53:14.999Z</time></trkpt><trkpt lat="44.87254451935723" lon="9.643925878942573"><ele>207.99999999999997</ele><time>2026-05-03T15:53:15.999Z</time></trkpt><trkpt lat="44.87260037319102" lon="9.64386496699448"><ele>208.0</ele><time>2026-05-03T15:53:17.999Z</time></trkpt><trkpt lat="44.8726578739489" lon="9.643825866371044"><ele>208.0</ele><time>2026-05-03T15:53:20.999Z</time></trkpt><trkpt lat="44.872670011777025" lon="9.643687163759171"><ele>208.0</ele><time>2026-05-03T15:53:49.999Z</time></trkpt><trkpt lat="44.87260772140174" lon="9.643612318403434"><ele>207.99999999999997</ele><time>2026-05-03T15:53:50.999Z</time></trkpt><trkpt lat="44.872541240268816" lon="9.643540338038111"><ele>208.0</ele><time>2026-05-03T15:53:51.999Z</time></trkpt><trkpt lat="44.87246564138671" lon="9.643436313252028"><ele>207.0</ele><time>2026-05-03T15:53:52.999Z</time></trkpt><trkpt lat="44.872386793371945" lon="9.643329046129324"><ele>206.0</ele><time>2026-05-03T15:53:53.999Z</time></trkpt><trkpt lat="44.87229544473082" lon="9.643202530791543"><ele>205.0</ele><time>2026-05-03T15:53:54.998Z</time></trkpt><trkpt lat="44.87220339643656" lon="9.643077203851742"><ele>204.0</ele><time>2026-05-03T15:53:55.998Z</time></trkpt><trkpt lat="44.872108792165875" lon="9.642946401293427"><ele>204.0</ele><time>2026-05-03T15:53:56.998Z</time></trkpt><trkpt lat="44.87200556154484" lon="9.642810943722758"><ele>204.0</ele><time>2026-05-03T15:53:57.998Z</time></trkpt><trkpt lat="44.871897258555904" lon="9.642665094982634"><ele>204.0</ele><time>2026-05-03T15:53:58.998Z</time></trkpt><trkpt lat="44.871787421777206" lon="9.642507036776117"><ele>204.0</ele><time>2026-05-03T15:53:59.998Z</time></trkpt><trkpt lat="44.87168083472779" lon="9.642357583590135"><ele>203.75</ele><time>2026-05-03T15:54:00.998Z</time></trkpt><trkpt lat="44.871585982375244" lon="9.642213661607752"><ele>203.5</ele><time>2026-05-03T15:54:01.998Z</time></trkpt><trkpt lat="44.87147961300475" lon="9.64206969598867"><ele>203.25</ele><time>2026-05-03T15:54:02.998Z</time></trkpt><trkpt lat="44.87137408719923" lon="9.641926876892938"><ele>203.0</ele><time>2026-05-03T15:54:03.998Z</time></trkpt><trkpt lat="44.87127015630055" lon="9.641791766739164"><ele>203.0</ele><time>2026-05-03T15:54:04.998Z</time></trkpt><trkpt lat="44.87116590980933" lon="9.64165786604215"><ele>203.0</ele><time>2026-05-03T15:54:05.998Z</time></trkpt><trkpt lat="44.8710582755976" lon="9.641538087103534"><ele>203.0</ele><time>2026-05-03T15:54:06.998Z</time></trkpt><trkpt lat="44.870952838584834" lon="9.641422472846765"><ele>203.0</ele><time>2026-05-03T15:54:07.998Z</time></trkpt><trkpt lat="44.870850344194466" lon="9.641315200475773"><ele>204.25</ele><time>2026-05-03T15:54:08.998Z</time></trkpt><trkpt lat="44.870747938008485" lon="9.64121859978624"><ele>205.5</ele><time>2026-05-03T15:54:09.998Z</time></trkpt><trkpt lat="44.870643867322364" lon="9.641135436957153"><ele>206.75</ele><time>2026-05-03T15:54:10.998Z</time></trkpt><trkpt lat="44.87054465986709" lon="9.641056235867376"><ele>208.0</ele><time>2026-05-03T15:54:11.998Z</time></trkpt><trkpt lat="44.87044579961809" lon="9.640989584453877"><ele>208.0</ele><time>2026-05-03T15:54:12.998Z</time></trkpt><trkpt lat="44.87035010945069" lon="9.640925004196054"><ele>208.0</ele><time>2026-05-03T15:54:13.998Z</time></trkpt><trkpt lat="44.870244311558764" lon="9.640861751370483"><ele>208.0</ele><time>2026-05-03T15:54:14.998Z</time></trkpt><trkpt lat="44.87012009849163" lon="9.640805360690312"><ele>208.0</ele><time>2026-05-03T15:54:15.998Z</time></trkpt><trkpt lat="44.869990207998875" lon="9.640756200832053"><ele>208.66666666666666</ele><time>2026-05-03T15:54:16.998Z</time></trkpt><trkpt lat="44.869848987074754" lon="9.640709789011591"><ele>209.33333333333331</ele><time>2026-05-03T15:54:17.998Z</time></trkpt><trkpt lat="44.86969702392767" lon="9.640655490222805"><ele>210.0</ele><time>2026-05-03T15:54:19Z</time></trkpt><trkpt lat="44.86953329558473" lon="9.64059915890923"><ele>210.0</ele><time>2026-05-03T15:54:20Z</time></trkpt><trkpt lat="44.86936709092467" lon="9.640545919322689"><ele>210.0</ele><time>2026-05-03T15:54:21Z</time></trkpt><trkpt lat="44.869212598713084" lon="9.64049502756946"><ele>210.0</ele><time>2026-05-03T15:54:22Z</time></trkpt><trkpt lat="44.869060310908985" lon="9.640444243036498"><ele>210.66666666666669</ele><time>2026-05-03T15:54:23Z</time></trkpt><trkpt lat="44.868902156501775" lon="9.640399134841326"><ele>211.33333333333334</ele><time>2026-05-03T15:54:24Z</time></trkpt><trkpt lat="44.86874249795067" lon="9.64034753650498"><ele>212.0</ele><time>2026-05-03T15:54:25Z</time></trkpt><trkpt lat="44.8685846152394" lon="9.640298078926483"><ele>212.33333333333334</ele><time>2026-05-03T15:54:26Z</time></trkpt><trkpt lat="44.86842711883833" lon="9.640247548874997"><ele>212.66666666666669</ele><time>2026-05-03T15:54:27Z</time></trkpt><trkpt lat="44.86826980766578" lon="9.640200703165856"><ele>213.0</ele><time>2026-05-03T15:54:28Z</time></trkpt><trkpt lat="44.868111135201296" lon="9.640170259530631"><ele>213.0</ele><time>2026-05-03T15:54:29Z</time></trkpt><trkpt lat="44.867956273324616" lon="9.640158044614369"><ele>213.0</ele><time>2026-05-03T15:54:30Z</time></trkpt><trkpt lat="44.8678050899205" lon="9.640171585671068"><ele>213.0</ele><time>2026-05-03T15:54:31Z</time></trkpt><trkpt lat="44.86765978037995" lon="9.64020513676196"><ele>212.66666666666669</ele><time>2026-05-03T15:54:32Z</time></trkpt><trkpt lat="44.867515313039924" lon="9.640254743100215"><ele>212.33333333333334</ele><time>2026-05-03T15:54:33Z</time></trkpt><trkpt lat="44.86737151039715" lon="9.640322941052139"><ele>212.0</ele><time>2026-05-03T15:54:34Z</time></trkpt><trkpt lat="44.867233213291364" lon="9.640404965167745"><ele>213.0</ele><time>2026-05-03T15:54:35Z</time></trkpt><trkpt lat="44.867092879304714" lon="9.640488732606963"><ele>214.0</ele><time>2026-05-03T15:54:36Z</time></trkpt><trkpt lat="44.86694842172011" lon="9.640571186774434"><ele>215.0</ele><time>2026-05-03T15:54:37Z</time></trkpt><trkpt lat="44.8668086554997" lon="9.64064276450979"><ele>215.0</ele><time>2026-05-03T15:54:38Z</time></trkpt><trkpt lat="44.866675132574926" lon="9.640691517227198"><ele>215.0</ele><time>2026-05-03T15:54:39Z</time></trkpt><trkpt lat="44.86654775506033" lon="9.640716050195168"><ele>215.0</ele><time>2026-05-03T15:54:40Z</time></trkpt><trkpt lat="44.86642451484226" lon="9.640717730838372"><ele>215.0</ele><time>2026-05-03T15:54:41Z</time></trkpt><trkpt lat="44.866313402402064" lon="9.640700737059571"><ele>215.0</ele><time>2026-05-03T15:54:42Z</time></trkpt><trkpt lat="44.86621802009292" lon="9.640667704471616"><ele>215.0</ele><time>2026-05-03T15:54:43Z</time></trkpt><trkpt lat="44.86611629642279" lon="9.640616889310317"><ele>215.0</ele><time>2026-05-03T15:54:44Z</time></trkpt><trkpt lat="44.86599902950115" lon="9.640557006967367"><ele>215.0</ele><time>2026-05-03T15:54:45Z</time></trkpt><trkpt lat="44.86587263659023" lon="9.640472674203812"><ele>215.33333333333334</ele><time>2026-05-03T15:54:46Z</time></trkpt><trkpt lat="44.86574736216544" lon="9.640347979943163"><ele>215.66666666666669</ele><time>2026-05-03T15:54:47Z</time></trkpt><trkpt lat="44.86563140212635" lon="9.640183881795485"><ele>216.0</ele><time>2026-05-03T15:54:48Z</time></trkpt><trkpt lat="44.86551746790896" lon="9.640013663383618"><ele>216.0</ele><time>2026-05-03T15:54:49Z</time></trkpt><trkpt lat="44.86539753004194" lon="9.639836531130852"><ele>216.0</ele><time>2026-05-03T15:54:50Z</time></trkpt><trkpt lat="44.865285213578865" lon="9.639664510520728"><ele>216.0</ele><time>2026-05-03T15:54:51Z</time></trkpt><trkpt lat="44.86517319646698" lon="9.639496984448439"><ele>215.66666666666669</ele><time>2026-05-03T15:54:52Z</time></trkpt><trkpt lat="44.865065540950894" lon="9.639333089826001"><ele>215.33333333333334</ele><time>2026-05-03T15:54:53Z</time></trkpt><trkpt lat="44.864955376936" lon="9.63917149941518"><ele>215.0</ele><time>2026-05-03T15:54:54Z</time></trkpt><trkpt lat="44.86484512683725" lon="9.639004627343535"><ele>215.0</ele><time>2026-05-03T15:54:55Z</time></trkpt><trkpt lat="44.864732683255326" lon="9.638832720336346"><ele>215.0</ele><time>2026-05-03T15:54:56Z</time></trkpt><trkpt lat="44.86461507872512" lon="9.638658607902356"><ele>215.0</ele><time>2026-05-03T15:54:57Z</time></trkpt><trkpt lat="44.86449463393354" lon="9.63848664108783"><ele>215.33333333333334</ele><time>2026-05-03T15:54:58Z</time></trkpt><trkpt lat="44.86436955238854" lon="9.638320910052466"><ele>215.66666666666669</ele><time>2026-05-03T15:54:59Z</time></trkpt><trkpt lat="44.864243001367456" lon="9.638154509810445"><ele>216.0</ele><time>2026-05-03T15:55:00Z</time></trkpt><trkpt lat="44.86411430041503" lon="9.637993413701922"><ele>216.0</ele><time>2026-05-03T15:55:01Z</time></trkpt><trkpt lat="44.86398316751619" lon="9.6378325100653"><ele>216.0</ele><time>2026-05-03T15:55:01.999Z</time></trkpt><trkpt lat="44.863850269935064" lon="9.637675918810604"><ele>216.0</ele><time>2026-05-03T15:55:02.999Z</time></trkpt><trkpt lat="44.86371370969894" lon="9.637515220912777"><ele>215.66666666666669</ele><time>2026-05-03T15:55:03.999Z</time></trkpt><trkpt lat="44.8635782176702" lon="9.637356589285721"><ele>215.33333333333334</ele><time>2026-05-03T15:55:04.999Z</time></trkpt><trkpt lat="44.86344241327082" lon="9.637194772380276"><ele>215.0</ele><time>2026-05-03T15:55:05.999Z</time></trkpt><trkpt lat="44.86330444253275" lon="9.637033921496855"><ele>216.0</ele><time>2026-05-03T15:55:06.999Z</time></trkpt><trkpt lat="44.86317011038046" lon="9.636876153304144"><ele>217.0</ele><time>2026-05-03T15:55:07.999Z</time></trkpt><trkpt lat="44.86304338653819" lon="9.636730342712074"><ele>218.0</ele><time>2026-05-03T15:55:08.999Z</time></trkpt><trkpt lat="44.86292673575177" lon="9.636591344286574"><ele>218.0</ele><time>2026-05-03T15:55:09.999Z</time></trkpt><trkpt lat="44.86281513207637" lon="9.636458324405057"><ele>218.0</ele><time>2026-05-03T15:55:10.999Z</time></trkpt><trkpt lat="44.86271141794729" lon="9.636326874677406"><ele>218.0</ele><time>2026-05-03T15:55:11.999Z</time></trkpt><trkpt lat="44.86261823374946" lon="9.63618870987883"><ele>218.0</ele><time>2026-05-03T15:55:12.999Z</time></trkpt><trkpt lat="44.8625374973977" lon="9.63603634145906"><ele>218.5</ele><time>2026-05-03T15:55:13.999Z</time></trkpt><trkpt lat="44.86246503278331" lon="9.635873659758358"><ele>219.0</ele><time>2026-05-03T15:55:14.999Z</time></trkpt><trkpt lat="44.86239177066719" lon="9.635707636172182"><ele>219.5</ele><time>2026-05-03T15:55:15.999Z</time></trkpt><trkpt lat="44.86231393726626" lon="9.635533621067816"><ele>220.0</ele><time>2026-05-03T15:55:16.999Z</time></trkpt><trkpt lat="44.86223556468977" lon="9.63535402981909"><ele>219.0</ele><time>2026-05-03T15:55:17.999Z</time></trkpt><trkpt lat="44.86215885694407" lon="9.635183015703538"><ele>218.0</ele><time>2026-05-03T15:55:18.999Z</time></trkpt><trkpt lat="44.862085403703276" lon="9.635019186070563"><ele>217.0</ele><time>2026-05-03T15:55:19.999Z</time></trkpt><trkpt lat="44.862019672349525" lon="9.634867135045443"><ele>216.0</ele><time>2026-05-03T15:55:20.999Z</time></trkpt><trkpt lat="44.86196488095196" lon="9.634736300710621"><ele>216.0</ele><time>2026-05-03T15:55:21.999Z</time></trkpt><trkpt lat="44.86192217646757" lon="9.634633775083973"><ele>216.0</ele><time>2026-05-03T15:55:22.999Z</time></trkpt><trkpt lat="44.86188461030784" lon="9.634542726935026"><ele>216.0</ele><time>2026-05-03T15:55:23.999Z</time></trkpt><trkpt lat="44.86184097945012" lon="9.634426313149458"><ele>216.0</ele><time>2026-05-03T15:55:25.999Z</time></trkpt><trkpt lat="44.861806275405165" lon="9.634339976222867"><ele>216.0</ele><time>2026-05-03T15:55:28.999Z</time></trkpt><trkpt lat="44.86175412140195" lon="9.634236659408941"><ele>216.0</ele><time>2026-05-03T15:55:47.999Z</time></trkpt><trkpt lat="44.86169141865719" lon="9.634130021431156"><ele>217.25</ele><time>2026-05-03T15:55:48.999Z</time></trkpt><trkpt lat="44.861624834354494" lon="9.634016604863477"><ele>218.5</ele><time>2026-05-03T15:55:49.999Z</time></trkpt><trkpt lat="44.86155004410697" lon="9.633893729638057"><ele>219.75</ele><time>2026-05-03T15:55:50.999Z</time></trkpt><trkpt lat="44.861469488846375" lon="9.633774732638988"><ele>221.0</ele><time>2026-05-03T15:55:51.999Z</time></trkpt><trkpt lat="44.86137319796538" lon="9.633642498619169"><ele>220.66666666666669</ele><time>2026-05-03T15:55:52.999Z</time></trkpt><trkpt lat="44.86126249124663" lon="9.633500801608061"><ele>220.33333333333331</ele><time>2026-05-03T15:55:53.999Z</time></trkpt><trkpt lat="44.86113411255482" lon="9.633378487084828"><ele>220.0</ele><time>2026-05-03T15:55:54.999Z</time></trkpt><trkpt lat="44.8609775919447" lon="9.633272352438253"><ele>220.66666666666666</ele><time>2026-05-03T15:55:55.999Z</time></trkpt><trkpt lat="44.860802091728175" lon="9.633179444354887"><ele>221.33333333333331</ele><time>2026-05-03T15:55:56.999Z</time></trkpt><trkpt lat="44.86064462653104" lon="9.633105961549932"><ele>222.0</ele><time>2026-05-03T15:55:57.999Z</time></trkpt><trkpt lat="44.8605016968363" lon="9.633052017842505"><ele>222.0</ele><time>2026-05-03T15:55:58.999Z</time></trkpt><trkpt lat="44.860370775077435" lon="9.633012552252596"><ele>222.0</ele><time>2026-05-03T15:55:59.999Z</time></trkpt><trkpt lat="44.86024542098619" lon="9.632987552054662"><ele>222.0</ele><time>2026-05-03T15:56:00.999Z</time></trkpt><trkpt lat="44.86013243779398" lon="9.632974431270256"><ele>222.0</ele><time>2026-05-03T15:56:01.998Z</time></trkpt><trkpt lat="44.86003960751127" lon="9.632959430392386"><ele>222.8</ele><time>2026-05-03T15:56:02.998Z</time></trkpt><trkpt lat="44.85996918352792" lon="9.632941091430679"><ele>223.6</ele><time>2026-05-03T15:56:04.998Z</time></trkpt><trkpt lat="44.859898649464704" lon="9.632940142183193"><ele>224.40000000000003</ele><time>2026-05-03T15:56:09.998Z</time></trkpt><trkpt lat="44.85980332538788" lon="9.632965341015684"><ele>225.20000000000002</ele><time>2026-05-03T15:56:11.998Z</time></trkpt><trkpt lat="44.85973441870858" lon="9.633055970326001"><ele>226.0</ele><time>2026-05-03T15:56:13.998Z</time></trkpt><trkpt lat="44.859684458763354" lon="9.633231634042795"><ele>226.0</ele><time>2026-05-03T15:56:15.998Z</time></trkpt><trkpt lat="44.85957280033292" lon="9.633260061764442"><ele>226.0</ele><time>2026-05-03T15:56:17.998Z</time></trkpt><trkpt lat="44.859489732701086" lon="9.633195416352178"><ele>226.0</ele><time>2026-05-03T15:56:18.998Z</time></trkpt><trkpt lat="44.85939235776969" lon="9.633077867710865"><ele>226.0</ele><time>2026-05-03T15:56:19.998Z</time></trkpt><trkpt lat="44.85928657109559" lon="9.63296138249437"><ele>226.4</ele><time>2026-05-03T15:56:20.998Z</time></trkpt><trkpt lat="44.85918085261492" lon="9.63287787902088"><ele>226.8</ele><time>2026-05-03T15:56:21.998Z</time></trkpt><trkpt lat="44.85908920324444" lon="9.632828030445246"><ele>227.20000000000002</ele><time>2026-05-03T15:56:22.998Z</time></trkpt><trkpt lat="44.85900350378208" lon="9.632791265054887"><ele>227.60000000000002</ele><time>2026-05-03T15:56:25Z</time></trkpt><trkpt lat="44.858939817281914" lon="9.632706170843774"><ele>228.0</ele><time>2026-05-03T15:56:27Z</time></trkpt><trkpt lat="44.85886922889406" lon="9.632587263897381"><ele>228.0</ele><time>2026-05-03T15:56:29Z</time></trkpt><trkpt lat="44.85879745680581" lon="9.632520126021012"><ele>227.99999999999997</ele><time>2026-05-03T15:56:31Z</time></trkpt><trkpt lat="44.85872491761464" lon="9.632470308370282"><ele>228.0</ele><time>2026-05-03T15:56:33Z</time></trkpt><trkpt lat="44.85865902637945" lon="9.632392695043727"><ele>228.0</ele><time>2026-05-03T15:56:35Z</time></trkpt><trkpt lat="44.858598255230476" lon="9.632355195886797"><ele>227.99999999999997</ele><time>2026-05-03T15:56:37Z</time></trkpt><trkpt lat="44.85853646806308" lon="9.63237724919626"><ele>228.0</ele><time>2026-05-03T15:56:39Z</time></trkpt><trkpt lat="44.85851545456119" lon="9.632464839493126"><ele>228.0</ele><time>2026-05-03T15:56:42Z</time></trkpt><trkpt lat="44.85859172206647" lon="9.632554656271425"><ele>228.0</ele><time>2026-05-03T15:56:45Z</time></trkpt><trkpt lat="44.85866226849386" lon="9.632594679962418"><ele>228.0</ele><time>2026-05-03T15:56:47Z</time></trkpt><trkpt lat="44.85873240047489" lon="9.632572390263341"><ele>228.0</ele><time>2026-05-03T15:56:49Z</time></trkpt><trkpt lat="44.85880877675747" lon="9.632540600723418"><ele>228.0</ele><time>2026-05-03T15:56:52Z</time></trkpt><trkpt lat="44.85886273904871" lon="9.63260078294472"><ele>228.0</ele><time>2026-05-03T15:56:55Z</time></trkpt><trkpt lat="44.85885022229144" lon="9.63271243443375"><ele>228.0</ele><time>2026-05-03T15:56:57Z</time></trkpt><trkpt lat="44.858804358043734" lon="9.632833756224317"><ele>228.0</ele><time>2026-05-03T15:56:59Z</time></trkpt><trkpt lat="44.858776058547484" lon="9.63291839613344"><ele>228.0</ele><time>2026-05-03T15:57:03Z</time></trkpt><trkpt lat="44.8588585391511" lon="9.632888649310061"><ele>228.0</ele><time>2026-05-03T15:57:06Z</time></trkpt><trkpt lat="44.858906592770104" lon="9.632803571963166"><ele>228.0</ele><time>2026-05-03T15:57:07Z</time></trkpt><trkpt lat="44.859006756626485" lon="9.632795468771263"><ele>228.0</ele><time>2026-05-03T15:57:09Z</time></trkpt><trkpt lat="44.859067622353564" lon="9.63287586601632"><ele>228.0</ele><time>2026-05-03T15:57:10Z</time></trkpt><trkpt lat="44.859130879273216" lon="9.632987831730444"><ele>228.66666666666666</ele><time>2026-05-03T15:57:10.999Z</time></trkpt><trkpt lat="44.85916861768437" lon="9.63308711145705"><ele>229.33333333333331</ele><time>2026-05-03T15:57:11.999Z</time></trkpt><trkpt lat="44.859163225742705" lon="9.633186849698186"><ele>230.0</ele><time>2026-05-03T15:57:13.999Z</time></trkpt><trkpt lat="44.859101560956326" lon="9.633270302708864"><ele>230.66666666666666</ele><time>2026-05-03T15:57:22.999Z</time></trkpt><trkpt lat="44.8590323250824" lon="9.633233826795053"><ele>231.33333333333331</ele><time>2026-05-03T15:57:25.999Z</time></trkpt><trkpt lat="44.859003665643705" lon="9.633136580853325"><ele>232.0</ele><time>2026-05-03T15:57:26.999Z</time></trkpt><trkpt lat="44.85897790947418" lon="9.633035740879697"><ele>231.99999999999997</ele><time>2026-05-03T15:57:27.999Z</time></trkpt><trkpt lat="44.858967512425885" lon="9.632932025800216"><ele>232.0</ele><time>2026-05-03T15:57:28.999Z</time></trkpt><trkpt lat="44.85901094018494" lon="9.632796793228557"><ele>232.0</ele><time>2026-05-03T15:57:30.999Z</time></trkpt><trkpt lat="44.85898196071554" lon="9.632712515693903"><ele>232.0</ele><time>2026-05-03T15:57:31.999Z</time></trkpt><trkpt lat="44.85892896069394" lon="9.63262179042057"><ele>231.99999999999997</ele><time>2026-05-03T15:57:32.999Z</time></trkpt><trkpt lat="44.858871084357816" lon="9.632560265428197"><ele>232.0</ele><time>2026-05-03T15:57:33.999Z</time></trkpt><trkpt lat="44.85876770577864" lon="9.632526003790844"><ele>231.33333333333331</ele><time>2026-05-03T15:57:35.999Z</time></trkpt><trkpt lat="44.85870398422529" lon="9.632524319627217"><ele>230.66666666666666</ele><time>2026-05-03T15:57:37.999Z</time></trkpt><trkpt lat="44.858637273743774" lon="9.63241899695046"><ele>230.0</ele><time>2026-05-03T15:57:53.999Z</time></trkpt><trkpt lat="44.85859820612755" lon="9.63232489163101"><ele>229.33333333333331</ele><time>2026-05-03T15:57:55.999Z</time></trkpt><trkpt lat="44.85859826753767" lon="9.632191171513227"><ele>228.66666666666666</ele><time>2026-05-03T15:57:57.999Z</time></trkpt><trkpt lat="44.85858655047901" lon="9.63207514187326"><ele>228.0</ele><time>2026-05-03T15:58:00.999Z</time></trkpt><trkpt lat="44.85855809635427" lon="9.631985395936725"><ele>228.0</ele><time>2026-05-03T15:58:01.999Z</time></trkpt><trkpt lat="44.85850195873005" lon="9.631888504366717"><ele>228.0</ele><time>2026-05-03T15:58:02.999Z</time></trkpt><trkpt lat="44.85842276257552" lon="9.631781622760787"><ele>228.0</ele><time>2026-05-03T15:58:03.999Z</time></trkpt><trkpt lat="44.85832880390397" lon="9.631667356952995"><ele>228.0</ele><time>2026-05-03T15:58:04.999Z</time></trkpt><trkpt lat="44.858229217795106" lon="9.631537967376836"><ele>229.0</ele><time>2026-05-03T15:58:05.999Z</time></trkpt><trkpt lat="44.858128211060986" lon="9.631405355295811"><ele>230.0</ele><time>2026-05-03T15:58:06.999Z</time></trkpt><trkpt lat="44.858020380481456" lon="9.631261868595672"><ele>231.0</ele><time>2026-05-03T15:58:07.999Z</time></trkpt><trkpt lat="44.85790998544122" lon="9.631116168602905"><ele>232.0</ele><time>2026-05-03T15:58:08.999Z</time></trkpt><trkpt lat="44.85779355060421" lon="9.63096277826537"><ele>232.0</ele><time>2026-05-03T15:58:09.999Z</time></trkpt><trkpt lat="44.857665131176006" lon="9.63079342139912"><ele>232.0</ele><time>2026-05-03T15:58:10.999Z</time></trkpt><trkpt lat="44.85754445305123" lon="9.630626948526281"><ele>232.0</ele><time>2026-05-03T15:58:11.998Z</time></trkpt><trkpt lat="44.85743595278526" lon="9.630484168582244"><ele>232.25</ele><time>2026-05-03T15:58:12.998Z</time></trkpt><trkpt lat="44.85732556553794" lon="9.630336828254336"><ele>232.5</ele><time>2026-05-03T15:58:13.998Z</time></trkpt><trkpt lat="44.85721758677361" lon="9.630194118374853"><ele>232.75</ele><time>2026-05-03T15:58:14.998Z</time></trkpt><trkpt lat="44.85711173621867" lon="9.630062544791556"><ele>233.0</ele><time>2026-05-03T15:58:15.998Z</time></trkpt><trkpt lat="44.85700428952365" lon="9.629935528691306"><ele>233.0</ele><time>2026-05-03T15:58:16.998Z</time></trkpt><trkpt lat="44.85689487305912" lon="9.629801690768511"><ele>233.0</ele><time>2026-05-03T15:58:17.998Z</time></trkpt><trkpt lat="44.856779135137145" lon="9.629658754217711"><ele>233.0</ele><time>2026-05-03T15:58:18.998Z</time></trkpt><trkpt lat="44.85666587371126" lon="9.629520125778019"><ele>233.0</ele><time>2026-05-03T15:58:19.998Z</time></trkpt><trkpt lat="44.85655248572012" lon="9.629384758302132"><ele>232.33333333333334</ele><time>2026-05-03T15:58:20.998Z</time></trkpt><trkpt lat="44.85643709051718" lon="9.629251987464437"><ele>231.66666666666669</ele><time>2026-05-03T15:58:21.998Z</time></trkpt><trkpt lat="44.85631947005667" lon="9.629112796906998"><ele>231.0</ele><time>2026-05-03T15:58:22.998Z</time></trkpt><trkpt lat="44.85619611135527" lon="9.628969751263638"><ele>231.0</ele><time>2026-05-03T15:58:23.998Z</time></trkpt><trkpt lat="44.85606608939785" lon="9.628820590510584"><ele>231.0</ele><time>2026-05-03T15:58:24.998Z</time></trkpt><trkpt lat="44.855930216128826" lon="9.62866248343487"><ele>231.0</ele><time>2026-05-03T15:58:25.998Z</time></trkpt><trkpt lat="44.855792871375314" lon="9.628503428277604"><ele>232.33333333333331</ele><time>2026-05-03T15:58:26.998Z</time></trkpt><trkpt lat="44.85565714646011" lon="9.62834222960126"><ele>233.66666666666666</ele><time>2026-05-03T15:58:27.998Z</time></trkpt><trkpt lat="44.85551528987645" lon="9.628180809268542"><ele>235.0</ele><time>2026-05-03T15:58:28.998Z</time></trkpt><trkpt lat="44.85536782399654" lon="9.628015092600297"><ele>235.0</ele><time>2026-05-03T15:58:29.998Z</time></trkpt><trkpt lat="44.85521129583197" lon="9.627838939421855"><ele>235.0</ele><time>2026-05-03T15:58:31Z</time></trkpt><trkpt lat="44.85505397424118" lon="9.62765310017475"><ele>235.0</ele><time>2026-05-03T15:58:32Z</time></trkpt><trkpt lat="44.85491456732703" lon="9.627479150611991"><ele>234.33333333333331</ele><time>2026-05-03T15:58:33Z</time></trkpt><trkpt lat="44.85478349881385" lon="9.62730978062004"><ele>233.66666666666669</ele><time>2026-05-03T15:58:34Z</time></trkpt><trkpt lat="44.85464774796156" lon="9.627121367544673"><ele>233.0</ele><time>2026-05-03T15:58:35Z</time></trkpt><trkpt lat="44.85452108736841" lon="9.626941349297741"><ele>233.5</ele><time>2026-05-03T15:58:36Z</time></trkpt><trkpt lat="44.85441130616292" lon="9.626778295456292"><ele>234.0</ele><time>2026-05-03T15:58:37Z</time></trkpt><trkpt lat="44.85431454641038" lon="9.626623984684416"><ele>234.5</ele><time>2026-05-03T15:58:38Z</time></trkpt><trkpt lat="44.8542341224361" lon="9.626487447061605"><ele>235.0</ele><time>2026-05-03T15:58:39Z</time></trkpt><trkpt lat="44.854168230626385" lon="9.626369013475438"><ele>235.0</ele><time>2026-05-03T15:58:40Z</time></trkpt><trkpt lat="44.854120749337994" lon="9.626288074254623"><ele>235.0</ele><time>2026-05-03T15:58:41Z</time></trkpt><trkpt lat="44.85404402418464" lon="9.626186189605779"><ele>235.0</ele><time>2026-05-03T15:58:43Z</time></trkpt><trkpt lat="44.85405500976223" lon="9.626356006011635"><ele>235.0</ele><time>2026-05-03T15:58:47Z</time></trkpt><trkpt lat="44.85416342854745" lon="9.626452030552372"><ele>235.0</ele><time>2026-05-03T15:58:48Z</time></trkpt><trkpt lat="44.854240829728454" lon="9.62657585535367"><ele>234.33333333333331</ele><time>2026-05-03T15:58:49Z</time></trkpt><trkpt lat="44.85433485578845" lon="9.626718238344429"><ele>233.66666666666669</ele><time>2026-05-03T15:58:50Z</time></trkpt><trkpt lat="44.85444329413101" lon="9.626882654317912"><ele>233.0</ele><time>2026-05-03T15:58:51Z</time></trkpt><trkpt lat="44.85455478015617" lon="9.627045483843911"><ele>233.0</ele><time>2026-05-03T15:58:52Z</time></trkpt><trkpt lat="44.85467472654802" lon="9.627215341077061"><ele>233.0</ele><time>2026-05-03T15:58:53Z</time></trkpt><trkpt lat="44.854807928809684" lon="9.627393049655966"><ele>233.0</ele><time>2026-05-03T15:58:54Z</time></trkpt><trkpt lat="44.85495915226975" lon="9.627586418034252"><ele>233.0</ele><time>2026-05-03T15:58:55Z</time></trkpt><trkpt lat="44.85511674995867" lon="9.627781813163757"><ele>233.0</ele><time>2026-05-03T15:58:56Z</time></trkpt><trkpt lat="44.85526179344692" lon="9.627956915835105"><ele>233.0</ele><time>2026-05-03T15:58:57Z</time></trkpt><trkpt lat="44.85541138847349" lon="9.628130756618079"><ele>233.66666666666669</ele><time>2026-05-03T15:58:58Z</time></trkpt><trkpt lat="44.85555724201737" lon="9.628301148510268"><ele>234.33333333333331</ele><time>2026-05-03T15:58:59Z</time></trkpt><trkpt lat="44.85569552834754" lon="9.628462466834788"><ele>235.0</ele><time>2026-05-03T15:59:00Z</time></trkpt><trkpt lat="44.85582997285709" lon="9.628619974905629"><ele>233.66666666666666</ele><time>2026-05-03T15:59:01Z</time></trkpt><trkpt lat="44.85596170738737" lon="9.628770673058805"><ele>232.33333333333331</ele><time>2026-05-03T15:59:02Z</time></trkpt><trkpt lat="44.85608954020434" lon="9.628916302798013"><ele>231.0</ele><time>2026-05-03T15:59:03Z</time></trkpt><trkpt lat="44.85621118494992" lon="9.629052151721345"><ele>231.0</ele><time>2026-05-03T15:59:04Z</time></trkpt><trkpt lat="44.85632473891253" lon="9.629187247554123"><ele>231.0</ele><time>2026-05-03T15:59:05Z</time></trkpt><trkpt lat="44.85643583491019" lon="9.629319553252651"><ele>231.0</ele><time>2026-05-03T15:59:06Z</time></trkpt><trkpt lat="44.856551882227215" lon="9.629452060742995"><ele>231.0</ele><time>2026-05-03T15:59:07Z</time></trkpt><trkpt lat="44.8566666067054" lon="9.629588887744017"><ele>231.33333333333331</ele><time>2026-05-03T15:59:08Z</time></trkpt><trkpt lat="44.856784111148016" lon="9.629731574925303"><ele>231.66666666666666</ele><time>2026-05-03T15:59:09Z</time></trkpt><trkpt lat="44.85690364235357" lon="9.629879160935984"><ele>232.0</ele><time>2026-05-03T15:59:10Z</time></trkpt><trkpt lat="44.857024107115805" lon="9.630027633032693"><ele>232.33333333333331</ele><time>2026-05-03T15:59:11Z</time></trkpt><trkpt lat="44.85714233875914" lon="9.630174839344308"><ele>232.66666666666669</ele><time>2026-05-03T15:59:12Z</time></trkpt><trkpt lat="44.85726077845708" lon="9.630326433450458"><ele>233.0</ele><time>2026-05-03T15:59:12.999Z</time></trkpt><trkpt lat="44.85738330979395" lon="9.630485245605371"><ele>232.66666666666669</ele><time>2026-05-03T15:59:13.999Z</time></trkpt><trkpt lat="44.85751044143496" lon="9.63065176035914"><ele>232.33333333333331</ele><time>2026-05-03T15:59:14.999Z</time></trkpt><trkpt lat="44.85764347044612" lon="9.630827430618192"><ele>232.0</ele><time>2026-05-03T15:59:15.999Z</time></trkpt><trkpt lat="44.8577840309076" lon="9.631016881016432"><ele>233.0</ele><time>2026-05-03T15:59:16.999Z</time></trkpt><trkpt lat="44.85792427729171" lon="9.6312101935272"><ele>234.0</ele><time>2026-05-03T15:59:17.999Z</time></trkpt><trkpt lat="44.858054970484744" lon="9.631390758160569"><ele>235.0</ele><time>2026-05-03T15:59:18.999Z</time></trkpt><trkpt lat="44.858177583248384" lon="9.63155776216508"><ele>235.0</ele><time>2026-05-03T15:59:19.999Z</time></trkpt><trkpt lat="44.85829367331077" lon="9.631713132633692"><ele>235.0</ele><time>2026-05-03T15:59:20.999Z</time></trkpt><trkpt lat="44.85840526711642" lon="9.63186347540034"><ele>235.0</ele><time>2026-05-03T15:59:21.999Z</time></trkpt><trkpt lat="44.85851022816301" lon="9.632004869190954"><ele>233.25</ele><time>2026-05-03T15:59:22.999Z</time></trkpt><trkpt lat="44.85861112497119" lon="9.632139903112087"><ele>231.5</ele><time>2026-05-03T15:59:23.999Z</time></trkpt><trkpt lat="44.85871746084255" lon="9.632268783306978"><ele>229.75</ele><time>2026-05-03T15:59:24.999Z</time></trkpt><trkpt lat="44.85883381642546" lon="9.63239223805888"><ele>228.0</ele><time>2026-05-03T15:59:25.999Z</time></trkpt><trkpt lat="44.858966171127086" lon="9.632514430368657"><ele>228.0</ele><time>2026-05-03T15:59:26.999Z</time></trkpt><trkpt lat="44.85911260108261" lon="9.632630594067937"><ele>228.0</ele><time>2026-05-03T15:59:27.999Z</time></trkpt><trkpt lat="44.859255244120504" lon="9.632729972583995"><ele>228.0</ele><time>2026-05-03T15:59:28.999Z</time></trkpt><trkpt lat="44.85939302701597" lon="9.632807916708385"><ele>227.33333333333331</ele><time>2026-05-03T15:59:29.999Z</time></trkpt><trkpt lat="44.859543030553965" lon="9.632875380203998"><ele>226.66666666666666</ele><time>2026-05-03T15:59:30.999Z</time></trkpt><trkpt lat="44.859694036714316" lon="9.632929216470611"><ele>226.0</ele><time>2026-05-03T15:59:31.999Z</time></trkpt><trkpt lat="44.8598437694947" lon="9.632974175115649"><ele>226.0</ele><time>2026-05-03T15:59:32.999Z</time></trkpt><trkpt lat="44.85999852573708" lon="9.633014936714691"><ele>226.0</ele><time>2026-05-03T15:59:33.999Z</time></trkpt><trkpt lat="44.860165140032414" lon="9.633059414037039"><ele>226.0</ele><time>2026-05-03T15:59:34.999Z</time></trkpt><trkpt lat="44.86033554901568" lon="9.633103132885822"><ele>224.66666666666666</ele><time>2026-05-03T15:59:35.999Z</time></trkpt><trkpt lat="44.86049640978389" lon="9.633146004970312"><ele>223.33333333333331</ele><time>2026-05-03T15:59:36.999Z</time></trkpt><trkpt lat="44.86064564155663" lon="9.633189354616636"><ele>222.0</ele><time>2026-05-03T15:59:37.999Z</time></trkpt><trkpt lat="44.86078710384334" lon="9.633244532881843"><ele>222.0</ele><time>2026-05-03T15:59:38.999Z</time></trkpt><trkpt lat="44.860922041906626" lon="9.633310506313906"><ele>222.0</ele><time>2026-05-03T15:59:39.999Z</time></trkpt><trkpt lat="44.86105036678254" lon="9.633385641025617"><ele>222.0</ele><time>2026-05-03T15:59:40.999Z</time></trkpt><trkpt lat="44.861170313200574" lon="9.633468797165039"><ele>222.0</ele><time>2026-05-03T15:59:41.999Z</time></trkpt><trkpt lat="44.861278423338305" lon="9.633565979236142"><ele>221.75</ele><time>2026-05-03T15:59:42.999Z</time></trkpt><trkpt lat="44.86137155536925" lon="9.633677382590365"><ele>221.5</ele><time>2026-05-03T15:59:43.999Z</time></trkpt><trkpt lat="44.86145319645191" lon="9.633797582469386"><ele>221.25</ele><time>2026-05-03T15:59:44.999Z</time></trkpt><trkpt lat="44.861531422437764" lon="9.633929634621904"><ele>221.0</ele><time>2026-05-03T15:59:45.999Z</time></trkpt><trkpt lat="44.8616084810281" lon="9.634073968288316"><ele>221.0</ele><time>2026-05-03T15:59:46.999Z</time></trkpt><trkpt lat="44.86168975015174" lon="9.63422661056088"><ele>221.0</ele><time>2026-05-03T15:59:47.999Z</time></trkpt><trkpt lat="44.861770829216674" lon="9.634387728738742"><ele>221.0</ele><time>2026-05-03T15:59:48.999Z</time></trkpt><trkpt lat="44.86185037858341" lon="9.63455774058396"><ele>221.0</ele><time>2026-05-03T15:59:49.999Z</time></trkpt><trkpt lat="44.861930554020006" lon="9.63474013313262"><ele>220.66666666666669</ele><time>2026-05-03T15:59:50.999Z</time></trkpt><trkpt lat="44.86201072656908" lon="9.634925737829311"><ele>220.33333333333331</ele><time>2026-05-03T15:59:51.999Z</time></trkpt><trkpt lat="44.86209205308869" lon="9.635116403911722"><ele>220.0</ele><time>2026-05-03T15:59:52.999Z</time></trkpt><trkpt lat="44.862175214015444" lon="9.63531133952428"><ele>220.0</ele><time>2026-05-03T15:59:53.999Z</time></trkpt><trkpt lat="44.86226412029659" lon="9.635508160421134"><ele>220.0</ele><time>2026-05-03T15:59:54.999Z</time></trkpt><trkpt lat="44.86235239354842" lon="9.635713036951863"><ele>220.0</ele><time>2026-05-03T15:59:55.999Z</time></trkpt><trkpt lat="44.86243775136516" lon="9.635910113225965"><ele>220.0</ele><time>2026-05-03T15:59:56.999Z</time></trkpt><trkpt lat="44.86252876740656" lon="9.63610060127421"><ele>220.0</ele><time>2026-05-03T15:59:57.999Z</time></trkpt><trkpt lat="44.86262990084933" lon="9.636274601198517"><ele>220.0</ele><time>2026-05-03T15:59:58.999Z</time></trkpt><trkpt lat="44.86275234200926" lon="9.636436930983207"><ele>219.33333333333331</ele><time>2026-05-03T15:59:59.999Z</time></trkpt><trkpt lat="44.862883879597476" lon="9.636586640926692"><ele>218.66666666666669</ele><time>2026-05-03T16:00:00.999Z</time></trkpt><trkpt lat="44.86301961027198" lon="9.63673989998752"><ele>218.0</ele><time>2026-05-03T16:00:01.999Z</time></trkpt><trkpt lat="44.863150322242085" lon="9.636896626654034"><ele>218.33333333333334</ele><time>2026-05-03T16:00:02.999Z</time></trkpt><trkpt lat="44.86327889778616" lon="9.637048095560584"><ele>218.66666666666669</ele><time>2026-05-03T16:00:03.999Z</time></trkpt><trkpt lat="44.863410634965255" lon="9.6372037517363"><ele>219.0</ele><time>2026-05-03T16:00:04.999Z</time></trkpt><trkpt lat="44.863543934273984" lon="9.637360043000875"><ele>218.0</ele><time>2026-05-03T16:00:05.999Z</time></trkpt><trkpt lat="44.863680132449126" lon="9.637517481374925"><ele>217.0</ele><time>2026-05-03T16:00:06.999Z</time></trkpt><trkpt lat="44.86381641219197" lon="9.637673545136263"><ele>216.0</ele><time>2026-05-03T16:00:07.999Z</time></trkpt><trkpt lat="44.863947687894026" lon="9.637829593975749"><ele>216.0</ele><time>2026-05-03T16:00:08.999Z</time></trkpt><trkpt lat="44.864066944494965" lon="9.637972785550442"><ele>216.0</ele><time>2026-05-03T16:00:09.999Z</time></trkpt><trkpt lat="44.86417838387011" lon="9.638113589493042"><ele>216.0</ele><time>2026-05-03T16:00:10.999Z</time></trkpt><trkpt lat="44.86428233547315" lon="9.638250322722689"><ele>216.0</ele><time>2026-05-03T16:00:11.999Z</time></trkpt><trkpt lat="44.864379233436715" lon="9.63838157122567"><ele>215.75</ele><time>2026-05-03T16:00:12.998Z</time></trkpt><trkpt lat="44.864471651742214" lon="9.638507671336454"><ele>215.5</ele><time>2026-05-03T16:00:13.998Z</time></trkpt><trkpt lat="44.86455941922194" lon="9.638629100463712"><ele>215.25</ele><time>2026-05-03T16:00:14.998Z</time></trkpt><trkpt lat="44.86465645711133" lon="9.638768192815553"><ele>215.0</ele><time>2026-05-03T16:00:15.998Z</time></trkpt><trkpt lat="44.86477014755089" lon="9.638932999489025"><ele>215.0</ele><time>2026-05-03T16:00:16.998Z</time></trkpt><trkpt lat="44.86489682391037" lon="9.63910849894622"><ele>215.0</ele><time>2026-05-03T16:00:17.998Z</time></trkpt><trkpt lat="44.86501653521166" lon="9.639286804339985"><ele>215.0</ele><time>2026-05-03T16:00:18.998Z</time></trkpt><trkpt lat="44.86512553837382" lon="9.63946404393631"><ele>215.25</ele><time>2026-05-03T16:00:19.998Z</time></trkpt><trkpt lat="44.86522616310987" lon="9.639630780764627"><ele>215.5</ele><time>2026-05-03T16:00:20.998Z</time></trkpt><trkpt lat="44.8653227305277" lon="9.639785518613596"><ele>215.75</ele><time>2026-05-03T16:00:21.998Z</time></trkpt><trkpt lat="44.865413083281396" lon="9.639923667929882"><ele>216.0</ele><time>2026-05-03T16:00:22.998Z</time></trkpt><trkpt lat="44.86549511433884" lon="9.640046594831034"><ele>216.0</ele><time>2026-05-03T16:00:23.998Z</time></trkpt><trkpt lat="44.86556996859394" lon="9.640159482820966"><ele>216.00000000000003</ele><time>2026-05-03T16:00:24.998Z</time></trkpt><trkpt lat="44.86564153808678" lon="9.640270869769756"><ele>216.00000000000003</ele><time>2026-05-03T16:00:25.998Z</time></trkpt><trkpt lat="44.86570252574796" lon="9.640365098221885"><ele>216.0</ele><time>2026-05-03T16:00:26.998Z</time></trkpt><trkpt lat="44.86575429636464" lon="9.64044576985056"><ele>216.0</ele><time>2026-05-03T16:00:27.998Z</time></trkpt><trkpt lat="44.86580169015778" lon="9.640514569361645"><ele>216.0</ele><time>2026-05-03T16:00:28.998Z</time></trkpt><trkpt lat="44.865888736344765" lon="9.640636639760231"><ele>216.0</ele><time>2026-05-03T16:00:30.998Z</time></trkpt><trkpt lat="44.86593453316138" lon="9.64070456366566"><ele>216.0</ele><time>2026-05-03T16:00:31.998Z</time></trkpt><trkpt lat="44.8659850722445" lon="9.64077781043657"><ele>216.0</ele><time>2026-05-03T16:00:32.998Z</time></trkpt><trkpt lat="44.866039877608" lon="9.640860664180673"><ele>216.0</ele><time>2026-05-03T16:00:33.998Z</time></trkpt><trkpt lat="44.8660923220521" lon="9.64093768525566"><ele>216.0</ele><time>2026-05-03T16:00:34.998Z</time></trkpt><trkpt lat="44.866140131764666" lon="9.641008230964385"><ele>216.0</ele><time>2026-05-03T16:00:35.998Z</time></trkpt><trkpt lat="44.86618456897162" lon="9.641074454686692"><ele>216.0</ele><time>2026-05-03T16:00:37Z</time></trkpt><trkpt lat="44.86623154999163" lon="9.641167762868756"><ele>216.0</ele><time>2026-05-03T16:00:39Z</time></trkpt><trkpt lat="44.866223680440775" lon="9.641283009688948"><ele>216.0</ele><time>2026-05-03T16:00:41Z</time></trkpt><trkpt lat="44.866186387754645" lon="9.641372090093249"><ele>216.0</ele><time>2026-05-03T16:00:42Z</time></trkpt><trkpt lat="44.86614538839046" lon="9.641458717743738"><ele>216.0</ele><time>2026-05-03T16:00:43Z</time></trkpt><trkpt lat="44.86610873642525" lon="9.641554248751824"><ele>216.0</ele><time>2026-05-03T16:00:44Z</time></trkpt><trkpt lat="44.86607441141426" lon="9.641650570451423"><ele>216.0</ele><time>2026-05-03T16:00:45Z</time></trkpt><trkpt lat="44.866048533378475" lon="9.64173863331596"><ele>216.0</ele><time>2026-05-03T16:00:46Z</time></trkpt><trkpt lat="44.86600248046084" lon="9.641889523347679"><ele>216.0</ele><time>2026-05-03T16:00:48Z</time></trkpt><trkpt lat="44.8659595695746" lon="9.642003389748298"><ele>216.0</ele><time>2026-05-03T16:00:50Z</time></trkpt><trkpt lat="44.86592890276444" lon="9.642089374165316"><ele>216.0</ele><time>2026-05-03T16:00:52Z</time></trkpt><trkpt lat="44.865889730393675" lon="9.642185681123433"><ele>216.60000000000002</ele><time>2026-05-03T16:00:54Z</time></trkpt><trkpt lat="44.86586299691916" lon="9.642267049089766"><ele>217.20000000000002</ele><time>2026-05-03T16:00:55Z</time></trkpt><trkpt lat="44.86581066527683" lon="9.642413943720305"><ele>217.79999999999998</ele><time>2026-05-03T16:00:57Z</time></trkpt><trkpt lat="44.865759889029064" lon="9.642571568151023"><ele>218.39999999999998</ele><time>2026-05-03T16:00:59Z</time></trkpt><trkpt lat="44.8657286218216" lon="9.642658476716658"><ele>219.0</ele><time>2026-05-03T16:01:00Z</time></trkpt><trkpt lat="44.8656693270763" lon="9.64281503335859"><ele>219.39999999999998</ele><time>2026-05-03T16:01:02Z</time></trkpt><trkpt lat="44.86561789999648" lon="9.642965881151534"><ele>219.79999999999998</ele><time>2026-05-03T16:01:04Z</time></trkpt><trkpt lat="44.86559417602333" lon="9.643098367929065"><ele>220.20000000000002</ele><time>2026-05-03T16:01:06Z</time></trkpt><trkpt lat="44.86563825476199" lon="9.643229382328014"><ele>220.60000000000002</ele><time>2026-05-03T16:01:08Z</time></trkpt><trkpt lat="44.86568711384485" lon="9.643304439628166"><ele>221.0</ele><time>2026-05-03T16:01:10Z</time></trkpt><trkpt lat="44.86576928820261" lon="9.64342606364314"><ele>221.0</ele><time>2026-05-03T16:01:46.999Z</time></trkpt><trkpt lat="44.865822998561804" lon="9.643496530273273"><ele>221.00000000000003</ele><time>2026-05-03T16:01:47.999Z</time></trkpt><trkpt lat="44.86588179052153" lon="9.643596986320125"><ele>221.00000000000003</ele><time>2026-05-03T16:01:48.999Z</time></trkpt><trkpt lat="44.86594206225629" lon="9.64370652529656"><ele>221.0</ele><time>2026-05-03T16:01:49.999Z</time></trkpt><trkpt lat="44.86600873383709" lon="9.64382323276543"><ele>221.0</ele><time>2026-05-03T16:01:50.999Z</time></trkpt><trkpt lat="44.86607249872023" lon="9.643934195187564"><ele>220.25</ele><time>2026-05-03T16:01:51.999Z</time></trkpt><trkpt lat="44.866141153278136" lon="9.644049833273932"><ele>219.5</ele><time>2026-05-03T16:01:52.999Z</time></trkpt><trkpt lat="44.86621188701725" lon="9.644169178210747"><ele>218.75</ele><time>2026-05-03T16:01:53.999Z</time></trkpt><trkpt lat="44.86629000077297" lon="9.644297301699638"><ele>218.0</ele><time>2026-05-03T16:01:54.999Z</time></trkpt><trkpt lat="44.86637765472683" lon="9.644435221659558"><ele>218.0</ele><time>2026-05-03T16:01:55.999Z</time></trkpt><trkpt lat="44.86646609914114" lon="9.644567426905702"><ele>218.0</ele><time>2026-05-03T16:01:56.999Z</time></trkpt><trkpt lat="44.86654565976368" lon="9.644689518148892"><ele>218.0</ele><time>2026-05-03T16:01:57.999Z</time></trkpt><trkpt lat="44.86661252766649" lon="9.644801769678631"><ele>218.0</ele><time>2026-05-03T16:01:58.999Z</time></trkpt><trkpt lat="44.86667968856553" lon="9.644910220267876"><ele>218.0</ele><time>2026-05-03T16:01:59.999Z</time></trkpt><trkpt lat="44.86674406238062" lon="9.645019006911356"><ele>218.0</ele><time>2026-05-03T16:02:00.999Z</time></trkpt><trkpt lat="44.8668112561524" lon="9.645126659791424"><ele>218.0</ele><time>2026-05-03T16:02:01.999Z</time></trkpt><trkpt lat="44.86688090477774" lon="9.645247008470811"><ele>218.0</ele><time>2026-05-03T16:02:02.999Z</time></trkpt><trkpt lat="44.86695065657272" lon="9.645368542246871"><ele>218.0</ele><time>2026-05-03T16:02:03.999Z</time></trkpt><trkpt lat="44.86702547146438" lon="9.645496966145082"><ele>217.75</ele><time>2026-05-03T16:02:04.999Z</time></trkpt><trkpt lat="44.86710833805497" lon="9.645630380258256"><ele>217.5</ele><time>2026-05-03T16:02:05.999Z</time></trkpt><trkpt lat="44.86719918513588" lon="9.645778716358185"><ele>217.25</ele><time>2026-05-03T16:02:06.999Z</time></trkpt><trkpt lat="44.867288363149406" lon="9.645917159323666"><ele>217.0</ele><time>2026-05-03T16:02:07.999Z</time></trkpt><trkpt lat="44.86737677480248" lon="9.646054578984113"><ele>217.25</ele><time>2026-05-03T16:02:08.999Z</time></trkpt><trkpt lat="44.86747643247312" lon="9.64619209588427"><ele>217.5</ele><time>2026-05-03T16:02:09.999Z</time></trkpt><trkpt lat="44.867585147136715" lon="9.64632805870188"><ele>217.75</ele><time>2026-05-03T16:02:10.999Z</time></trkpt><trkpt lat="44.86769277020914" lon="9.646454248822977"><ele>218.0</ele><time>2026-05-03T16:02:11.999Z</time></trkpt><trkpt lat="44.86779550974786" lon="9.646571860429923"><ele>217.5</ele><time>2026-05-03T16:02:12.999Z</time></trkpt><trkpt lat="44.86790198233713" lon="9.646680328996318"><ele>217.0</ele><time>2026-05-03T16:02:13.999Z</time></trkpt><trkpt lat="44.86801379898081" lon="9.646776865743064"><ele>216.5</ele><time>2026-05-03T16:02:14.999Z</time></trkpt><trkpt lat="44.86812932902767" lon="9.64687314849827"><ele>216.0</ele><time>2026-05-03T16:02:15.999Z</time></trkpt><trkpt lat="44.86824783182018" lon="9.646969116640205"><ele>216.0</ele><time>2026-05-03T16:02:16.999Z</time></trkpt><trkpt lat="44.86837308983632" lon="9.647059864545717"><ele>216.0</ele><time>2026-05-03T16:02:17.999Z</time></trkpt><trkpt lat="44.86850288020113" lon="9.64715094278074"><ele>216.0</ele><time>2026-05-03T16:02:18.999Z</time></trkpt><trkpt lat="44.86863438906146" lon="9.647246347943561"><ele>216.0</ele><time>2026-05-03T16:02:19.999Z</time></trkpt><trkpt lat="44.86875596895485" lon="9.647342899139558"><ele>215.25</ele><time>2026-05-03T16:02:20.999Z</time></trkpt><trkpt lat="44.86886664959791" lon="9.64743164137701"><ele>214.5</ele><time>2026-05-03T16:02:21.999Z</time></trkpt><trkpt lat="44.8689761174874" lon="9.647518000352306"><ele>213.75</ele><time>2026-05-03T16:02:22.999Z</time></trkpt><trkpt lat="44.86907728793618" lon="9.647583352353815"><ele>213.0</ele><time>2026-05-03T16:02:23.998Z</time></trkpt><trkpt lat="44.86916515166356" lon="9.647629089133313"><ele>213.0</ele><time>2026-05-03T16:02:24.998Z</time></trkpt><trkpt lat="44.86922699327747" lon="9.647654903722502"><ele>213.0</ele><time>2026-05-03T16:02:25.998Z</time></trkpt><trkpt lat="44.86931290710626" lon="9.647708051813165"><ele>213.0</ele><time>2026-05-03T16:02:27.998Z</time></trkpt><trkpt lat="44.86938374312564" lon="9.647765946994582"><ele>213.0</ele><time>2026-05-03T16:02:29.998Z</time></trkpt><trkpt lat="44.869487904676674" lon="9.647810800816755"><ele>213.0</ele><time>2026-05-03T16:02:32.998Z</time></trkpt><trkpt lat="44.869576306975496" lon="9.647902665283864"><ele>212.2</ele><time>2026-05-03T16:02:34.998Z</time></trkpt><trkpt lat="44.869624841253064" lon="9.647990952512151"><ele>211.4</ele><time>2026-05-03T16:02:36.998Z</time></trkpt><trkpt lat="44.86968674761804" lon="9.6480806570914"><ele>210.6</ele><time>2026-05-03T16:02:58Z</time></trkpt><trkpt lat="44.86974392235393" lon="9.648188082078237"><ele>209.79999999999998</ele><time>2026-05-03T16:03:00Z</time></trkpt><trkpt lat="44.86978672332155" lon="9.648315923398732"><ele>209.0</ele><time>2026-05-03T16:03:01Z</time></trkpt><trkpt lat="44.869852548117855" lon="9.648470773827865"><ele>209.0</ele><time>2026-05-03T16:03:02Z</time></trkpt><trkpt lat="44.869942640680925" lon="9.648610170445933"><ele>209.0</ele><time>2026-05-03T16:03:03Z</time></trkpt><trkpt lat="44.87004928744403" lon="9.648721360733353"><ele>209.0</ele><time>2026-05-03T16:03:04Z</time></trkpt><trkpt lat="44.87015810678491" lon="9.648801325655333"><ele>209.0</ele><time>2026-05-03T16:03:05Z</time></trkpt><trkpt lat="44.870263677918736" lon="9.648864497605032"><ele>209.2</ele><time>2026-05-03T16:03:06Z</time></trkpt><trkpt lat="44.870366714677786" lon="9.64889909297656"><ele>209.39999999999998</ele><time>2026-05-03T16:03:07Z</time></trkpt><trkpt lat="44.870463518373846" lon="9.648926833932766"><ele>209.6</ele><time>2026-05-03T16:03:08Z</time></trkpt><trkpt lat="44.87055582097589" lon="9.648961446802295"><ele>209.8</ele><time>2026-05-03T16:03:09Z</time></trkpt><trkpt lat="44.870633459653156" lon="9.648996081603002"><ele>210.0</ele><time>2026-05-03T16:03:10Z</time></trkpt><trkpt lat="44.87071301996589" lon="9.649034380397937"><ele>210.0</ele><time>2026-05-03T16:03:11Z</time></trkpt><trkpt lat="44.870791122756486" lon="9.649071946776237"><ele>210.0</ele><time>2026-05-03T16:03:12Z</time></trkpt><trkpt lat="44.87088423503285" lon="9.649124811912825"><ele>210.0</ele><time>2026-05-03T16:03:13Z</time></trkpt><trkpt lat="44.87099211974168" lon="9.649209430356741"><ele>210.0</ele><time>2026-05-03T16:03:14Z</time></trkpt><trkpt lat="44.87112110246569" lon="9.649339913946347"><ele>210.0</ele><time>2026-05-03T16:03:15Z</time></trkpt><trkpt lat="44.87123351307709" lon="9.649439263983606"><ele>210.0</ele><time>2026-05-03T16:03:16Z</time></trkpt><trkpt lat="44.871347608392234" lon="9.649522246085937"><ele>210.0</ele><time>2026-05-03T16:03:17Z</time></trkpt><trkpt lat="44.871457008925645" lon="9.649596221617628"><ele>210.0</ele><time>2026-05-03T16:03:18Z</time></trkpt><trkpt lat="44.87155825652726" lon="9.64966787508792"><ele>210.0</ele><time>2026-05-03T16:03:19Z</time></trkpt><trkpt lat="44.87164442719631" lon="9.649726194696662"><ele>210.0</ele><time>2026-05-03T16:03:20Z</time></trkpt><trkpt lat="44.8717239699531" lon="9.64978551424674"><ele>210.0</ele><time>2026-05-03T16:03:21Z</time></trkpt><trkpt lat="44.87179035532971" lon="9.649834526474397"><ele>210.0</ele><time>2026-05-03T16:03:22Z</time></trkpt><trkpt lat="44.87184750372465" lon="9.64988299980806"><ele>210.0</ele><time>2026-05-03T16:03:23Z</time></trkpt><trkpt lat="44.87193031541799" lon="9.649990396263556"><ele>210.0</ele><time>2026-05-03T16:03:24.999Z</time></trkpt><trkpt lat="44.87197221574392" lon="9.65007954543663"><ele>209.25</ele><time>2026-05-03T16:03:25.999Z</time></trkpt><trkpt lat="44.87201646149814" lon="9.650196926434123"><ele>208.5</ele><time>2026-05-03T16:03:26.999Z</time></trkpt><trkpt lat="44.872075596649225" lon="9.650344069585588"><ele>207.75</ele><time>2026-05-03T16:03:27.999Z</time></trkpt><trkpt lat="44.87215056974692" lon="9.650534706567381"><ele>207.0</ele><time>2026-05-03T16:03:28.999Z</time></trkpt><trkpt lat="44.8722228556398" lon="9.6507214031809"><ele>207.0</ele><time>2026-05-03T16:03:29.999Z</time></trkpt><trkpt lat="44.87229779219363" lon="9.650919877005558"><ele>207.0</ele><time>2026-05-03T16:03:30.999Z</time></trkpt><trkpt lat="44.87238318327306" lon="9.651135504108842"><ele>207.0</ele><time>2026-05-03T16:03:31.999Z</time></trkpt><trkpt lat="44.87246846539897" lon="9.651346443473722"><ele>207.33333333333331</ele><time>2026-05-03T16:03:32.999Z</time></trkpt><trkpt lat="44.87254583500102" lon="9.651543365449019"><ele>207.66666666666666</ele><time>2026-05-03T16:03:33.999Z</time></trkpt><trkpt lat="44.87262612483944" lon="9.651743833218363"><ele>208.0</ele><time>2026-05-03T16:03:34.999Z</time></trkpt><trkpt lat="44.87270832146489" lon="9.651956575232912"><ele>207.0</ele><time>2026-05-03T16:03:35.999Z</time></trkpt><trkpt lat="44.872797904607225" lon="9.652190943800646"><ele>206.0</ele><time>2026-05-03T16:03:36.999Z</time></trkpt><trkpt lat="44.872893658161615" lon="9.652439178415205"><ele>205.0</ele><time>2026-05-03T16:03:37.999Z</time></trkpt><trkpt lat="44.87298479465817" lon="9.652671921631482"><ele>206.33333333333331</ele><time>2026-05-03T16:03:38.999Z</time></trkpt><trkpt lat="44.873073359477914" lon="9.652889387259108"><ele>207.66666666666669</ele><time>2026-05-03T16:03:39.999Z</time></trkpt><trkpt lat="44.87315895374644" lon="9.653083959613936"><ele>209.0</ele><time>2026-05-03T16:03:40.999Z</time></trkpt><trkpt lat="44.873252556734656" lon="9.653271469594872"><ele>209.0</ele><time>2026-05-03T16:03:41.999Z</time></trkpt><trkpt lat="44.87336532464057" lon="9.653463354748837"><ele>209.0</ele><time>2026-05-03T16:03:42.999Z</time></trkpt><trkpt lat="44.87349785973179" lon="9.653662424445617"><ele>209.0</ele><time>2026-05-03T16:03:43.999Z</time></trkpt><trkpt lat="44.8736484162731" lon="9.653869789459169"><ele>208.33333333333334</ele><time>2026-05-03T16:03:44.999Z</time></trkpt><trkpt lat="44.87379430036027" lon="9.654076077285172"><ele>207.66666666666669</ele><time>2026-05-03T16:03:45.999Z</time></trkpt><trkpt lat="44.87393607099595" lon="9.654269454597527"><ele>207.0</ele><time>2026-05-03T16:03:46.999Z</time></trkpt><trkpt lat="44.87406774697321" lon="9.65444732836603"><ele>207.0</ele><time>2026-05-03T16:03:47.999Z</time></trkpt><trkpt lat="44.87419074257534" lon="9.654616043336254"><ele>207.0</ele><time>2026-05-03T16:03:48.999Z</time></trkpt><trkpt lat="44.87430610245252" lon="9.654775104019022"><ele>207.0</ele><time>2026-05-03T16:03:49.999Z</time></trkpt><trkpt lat="44.87441463528369" lon="9.654926612623616"><ele>206.25</ele><time>2026-05-03T16:03:50.999Z</time></trkpt><trkpt lat="44.87451638307022" lon="9.655067847151187"><ele>205.5</ele><time>2026-05-03T16:03:51.999Z</time></trkpt><trkpt lat="44.87461704513742" lon="9.655210064340666"><ele>204.75</ele><time>2026-05-03T16:03:52.999Z</time></trkpt><trkpt lat="44.87472692954748" lon="9.655355659006494"><ele>204.0</ele><time>2026-05-03T16:03:53.999Z</time></trkpt><trkpt lat="44.874837840032164" lon="9.655509243983623"><ele>204.0</ele><time>2026-05-03T16:03:54.999Z</time></trkpt><trkpt lat="44.874954402946905" lon="9.655674329636042"><ele>204.0</ele><time>2026-05-03T16:03:55.999Z</time></trkpt><trkpt lat="44.8750702702204" lon="9.655852516671189"><ele>204.0</ele><time>2026-05-03T16:03:56.999Z</time></trkpt><trkpt lat="44.87518347301608" lon="9.656035839971311"><ele>203.0</ele><time>2026-05-03T16:03:57.999Z</time></trkpt><trkpt lat="44.875300840127025" lon="9.656235122745832"><ele>202.0</ele><time>2026-05-03T16:03:58.999Z</time></trkpt><trkpt lat="44.87542498188266" lon="9.656444855656677"><ele>201.0</ele><time>2026-05-03T16:03:59.999Z</time></trkpt><trkpt lat="44.87555554829702" lon="9.65666542171208"><ele>201.0</ele><time>2026-05-03T16:04:00.999Z</time></trkpt><trkpt lat="44.875693846661036" lon="9.656890726183166"><ele>201.0</ele><time>2026-05-03T16:04:01.999Z</time></trkpt><trkpt lat="44.87583278325644" lon="9.657111620880517"><ele>201.0</ele><time>2026-05-03T16:04:02.999Z</time></trkpt><trkpt lat="44.87596452177903" lon="9.657330679681312"><ele>199.66666666666669</ele><time>2026-05-03T16:04:03.999Z</time></trkpt><trkpt lat="44.87609632965407" lon="9.65755494437035"><ele>198.33333333333334</ele><time>2026-05-03T16:04:04.999Z</time></trkpt><trkpt lat="44.8762293651921" lon="9.657784768878763"><ele>197.0</ele><time>2026-05-03T16:04:05.999Z</time></trkpt><trkpt lat="44.87635535544688" lon="9.658013597516605"><ele>197.0</ele><time>2026-05-03T16:04:06.999Z</time></trkpt><trkpt lat="44.876470229219045" lon="9.658221968697388"><ele>197.0</ele><time>2026-05-03T16:04:07.999Z</time></trkpt><trkpt lat="44.8765749958704" lon="9.658416569471001"><ele>197.0</ele><time>2026-05-03T16:04:08.999Z</time></trkpt><trkpt lat="44.876673948240956" lon="9.658600048097286"><ele>196.75</ele><time>2026-05-03T16:04:09.999Z</time></trkpt><trkpt lat="44.876767420123734" lon="9.658769004674662"><ele>196.5</ele><time>2026-05-03T16:04:10.999Z</time></trkpt><trkpt lat="44.876855285143144" lon="9.658922153895782"><ele>196.25</ele><time>2026-05-03T16:04:11.999Z</time></trkpt><trkpt lat="44.87693519360895" lon="9.65906002315397"><ele>196.0</ele><time>2026-05-03T16:04:12.999Z</time></trkpt><trkpt lat="44.87700400716676" lon="9.659186053609613"><ele>196.0</ele><time>2026-05-03T16:04:13.999Z</time></trkpt><trkpt lat="44.87706462126617" lon="9.659300706717325"><ele>196.0</ele><time>2026-05-03T16:04:14.999Z</time></trkpt><trkpt lat="44.87712538424158" lon="9.659407969026407"><ele>196.0</ele><time>2026-05-03T16:04:15.999Z</time></trkpt><trkpt lat="44.877190032245764" lon="9.659504737762886"><ele>196.0</ele><time>2026-05-03T16:04:16.999Z</time></trkpt><trkpt lat="44.877259830269374" lon="9.65959845493356"><ele>196.0</ele><time>2026-05-03T16:04:17.999Z</time></trkpt><trkpt lat="44.87733224372639" lon="9.659685834975736"><ele>196.0</ele><time>2026-05-03T16:04:18.999Z</time></trkpt><trkpt lat="44.87741032558839" lon="9.659772198684609"><ele>196.0</ele><time>2026-05-03T16:04:19.999Z</time></trkpt><trkpt lat="44.877491760436854" lon="9.659856630806205"><ele>196.0</ele><time>2026-05-03T16:04:20.999Z</time></trkpt><trkpt lat="44.87756853475598" lon="9.659934455368962"><ele>196.0</ele><time>2026-05-03T16:04:21.999Z</time></trkpt><trkpt lat="44.877640308145246" lon="9.660003459836739"><ele>196.0</ele><time>2026-05-03T16:04:22.999Z</time></trkpt><trkpt lat="44.87770773696387" lon="9.660066898545116"><ele>195.49999999999997</ele><time>2026-05-03T16:04:23.999Z</time></trkpt><trkpt lat="44.87776680425026" lon="9.660126148753475"><ele>195.0</ele><time>2026-05-03T16:04:24.998Z</time></trkpt><trkpt lat="44.87781894373202" lon="9.660179517500296"><ele>194.5</ele><time>2026-05-03T16:04:25.998Z</time></trkpt><trkpt lat="44.87790091403922" lon="9.66028727454202"><ele>194.0</ele><time>2026-05-03T16:04:27.998Z</time></trkpt><trkpt lat="44.87797867127584" lon="9.660396878478648"><ele>193.49999999999997</ele><time>2026-05-03T16:04:29.998Z</time></trkpt><trkpt lat="44.87803642905921" lon="9.660470912528014"><ele>193.0</ele><time>2026-05-03T16:04:31.998Z</time></trkpt><trkpt lat="44.87801368071057" lon="9.660324477889526"><ele>193.0</ele><time>2026-05-03T16:04:36.998Z</time></trkpt><trkpt lat="44.87793205342234" lon="9.660277357593964"><ele>193.0</ele><time>2026-05-03T16:04:37.998Z</time></trkpt><trkpt lat="44.87788270876852" lon="9.660213331514148"><ele>193.0</ele><time>2026-05-03T16:04:38.998Z</time></trkpt><trkpt lat="44.877828699864764" lon="9.660117177103286"><ele>193.0</ele><time>2026-05-03T16:04:40.998Z</time></trkpt><trkpt lat="44.87785194845909" lon="9.659998847861003"><ele>193.0</ele><time>2026-05-03T16:04:43.998Z</time></trkpt><trkpt lat="44.87771928369831" lon="9.660008344219927"><ele>193.0</ele><time>2026-05-03T16:05:26Z</time></trkpt><trkpt lat="44.87763360596636" lon="9.65994503440277"><ele>193.0</ele><time>2026-05-03T16:05:27Z</time></trkpt><trkpt lat="44.877558624313956" lon="9.659867786323801"><ele>193.0</ele><time>2026-05-03T16:05:28Z</time></trkpt><trkpt lat="44.87747650143032" lon="9.65978010783239"><ele>193.0</ele><time>2026-05-03T16:05:29Z</time></trkpt><trkpt lat="44.87739080874152" lon="9.659683922371237"><ele>193.0</ele><time>2026-05-03T16:05:30Z</time></trkpt><trkpt lat="44.87730727268219" lon="9.659582401255538"><ele>193.75</ele><time>2026-05-03T16:05:31Z</time></trkpt><trkpt lat="44.87721780378957" lon="9.6594601455599"><ele>194.5</ele><time>2026-05-03T16:05:32Z</time></trkpt><trkpt lat="44.877121418622885" lon="9.659309302209838"><ele>195.25</ele><time>2026-05-03T16:05:32.999Z</time></trkpt><trkpt lat="44.87701798575349" lon="9.659132454514973"><ele>196.0</ele><time>2026-05-03T16:05:33.999Z</time></trkpt><trkpt lat="44.87691871012848" lon="9.65895434105559"><ele>196.0</ele><time>2026-05-03T16:05:34.999Z</time></trkpt><trkpt lat="44.87681164470332" lon="9.658761227212375"><ele>196.0</ele><time>2026-05-03T16:05:35.999Z</time></trkpt><trkpt lat="44.87668782724876" lon="9.658544667526874"><ele>196.0</ele><time>2026-05-03T16:05:36.999Z</time></trkpt><trkpt lat="44.87655707158997" lon="9.658308972514074"><ele>196.33333333333331</ele><time>2026-05-03T16:05:37.999Z</time></trkpt><trkpt lat="44.87643706306713" lon="9.658093432999383"><ele>196.66666666666669</ele><time>2026-05-03T16:05:38.999Z</time></trkpt><trkpt lat="44.87631340821357" lon="9.657874933294897"><ele>197.0</ele><time>2026-05-03T16:05:39.999Z</time></trkpt><trkpt lat="44.87618575306225" lon="9.65765524543421"><ele>197.0</ele><time>2026-05-03T16:05:40.999Z</time></trkpt><trkpt lat="44.87605693634968" lon="9.657438621737164"><ele>197.0</ele><time>2026-05-03T16:05:41.999Z</time></trkpt><trkpt lat="44.87593045864008" lon="9.65722884750954"><ele>197.0</ele><time>2026-05-03T16:05:42.999Z</time></trkpt><trkpt lat="44.87579713508932" lon="9.65701508927648"><ele>199.0</ele><time>2026-05-03T16:05:43.999Z</time></trkpt><trkpt lat="44.875654179960726" lon="9.656779472755545"><ele>201.0</ele><time>2026-05-03T16:05:44.999Z</time></trkpt><trkpt lat="44.87550150056388" lon="9.65651934608764"><ele>201.0</ele><time>2026-05-03T16:05:45.999Z</time></trkpt><trkpt lat="44.87533306385465" lon="9.656230788843821"><ele>201.0</ele><time>2026-05-03T16:05:46.999Z</time></trkpt><trkpt lat="44.87515075166288" lon="9.655927490203934"><ele>202.5</ele><time>2026-05-03T16:05:47.999Z</time></trkpt><trkpt lat="44.874985939099744" lon="9.655662728646808"><ele>204.0</ele><time>2026-05-03T16:05:48.999Z</time></trkpt><trkpt lat="44.87483471604486" lon="9.65543420706525"><ele>203.5</ele><time>2026-05-03T16:05:49.999Z</time></trkpt><trkpt lat="44.874706204538974" lon="9.655256508218343"><ele>203.0</ele><time>2026-05-03T16:05:50.999Z</time></trkpt><trkpt lat="44.87459663158369" lon="9.655105387809837"><ele>202.5</ele><time>2026-05-03T16:05:51.999Z</time></trkpt><trkpt lat="44.87452636586453" lon="9.654989544160408"><ele>202.0</ele><time>2026-05-03T16:05:52.999Z</time></trkpt><trkpt lat="44.87450031377096" lon="9.654907472434495"><ele>202.0</ele><time>2026-05-03T16:05:53.999Z</time></trkpt><trkpt lat="44.874533390890974" lon="9.654723466577533"><ele>202.0</ele><time>2026-05-03T16:05:55.999Z</time></trkpt><trkpt lat="44.87459123479332" lon="9.654614518036158"><ele>202.0</ele><time>2026-05-03T16:05:56.999Z</time></trkpt><trkpt lat="44.87466915273577" lon="9.654489610601297"><ele>202.0</ele><time>2026-05-03T16:05:57.999Z</time></trkpt><trkpt lat="44.874764190156455" lon="9.654337949352147"><ele>202.5</ele><time>2026-05-03T16:05:58.999Z</time></trkpt><trkpt lat="44.874865306005006" lon="9.654165819515043"><ele>203.0</ele><time>2026-05-03T16:05:59.999Z</time></trkpt><trkpt lat="44.87494426604867" lon="9.654028677843135"><ele>203.5</ele><time>2026-05-03T16:06:00.999Z</time></trkpt><trkpt lat="44.875005625078195" lon="9.653925409349672"><ele>204.0</ele><time>2026-05-03T16:06:01.999Z</time></trkpt><trkpt lat="44.87505295177407" lon="9.653830515810434"><ele>204.0</ele><time>2026-05-03T16:06:02.999Z</time></trkpt><trkpt lat="44.87508727027065" lon="9.653741621965214"><ele>204.0</ele><time>2026-05-03T16:06:03.999Z</time></trkpt><trkpt lat="44.87506149295018" lon="9.653551637315918"><ele>204.0</ele><time>2026-05-03T16:06:05.999Z</time></trkpt><trkpt lat="44.874993901483464" lon="9.653431822135085"><ele>204.0</ele><time>2026-05-03T16:06:06.999Z</time></trkpt><trkpt lat="44.87489963519619" lon="9.65329281747664"><ele>204.33333333333331</ele><time>2026-05-03T16:06:07.999Z</time></trkpt><trkpt lat="44.87479139050548" lon="9.653125414355555"><ele>204.66666666666666</ele><time>2026-05-03T16:06:08.999Z</time></trkpt><trkpt lat="44.87468976129785" lon="9.652954626631926"><ele>205.0</ele><time>2026-05-03T16:06:09.999Z</time></trkpt><trkpt lat="44.874594216104335" lon="9.652791004650796"><ele>205.0</ele><time>2026-05-03T16:06:10.999Z</time></trkpt><trkpt lat="44.87450469857394" lon="9.652640296766538"><ele>205.0</ele><time>2026-05-03T16:06:11.999Z</time></trkpt><trkpt lat="44.8744296030558" lon="9.652512468111805"><ele>205.0</ele><time>2026-05-03T16:06:12.999Z</time></trkpt><trkpt lat="44.87437840277481" lon="9.652414683739272"><ele>205.0</ele><time>2026-05-03T16:06:13.999Z</time></trkpt><trkpt lat="44.87433573580334" lon="9.652314410722074"><ele>205.0</ele><time>2026-05-03T16:06:14.999Z</time></trkpt><trkpt lat="44.87428867996261" lon="9.652183942645802"><ele>205.0</ele><time>2026-05-03T16:06:15.999Z</time></trkpt><trkpt lat="44.87424021589492" lon="9.65204059315337"><ele>205.0</ele><time>2026-05-03T16:06:16.999Z</time></trkpt><trkpt lat="44.874181831386885" lon="9.651884774431494"><ele>205.0</ele><time>2026-05-03T16:06:17.999Z</time></trkpt><trkpt lat="44.87409720954964" lon="9.651711890591663"><ele>205.0</ele><time>2026-05-03T16:06:18.999Z</time></trkpt><trkpt lat="44.87401646267206" lon="9.651552780919918"><ele>204.75</ele><time>2026-05-03T16:06:19.999Z</time></trkpt><trkpt lat="44.87393186171201" lon="9.651393908005629"><ele>204.5</ele><time>2026-05-03T16:06:20.999Z</time></trkpt><trkpt lat="44.873851092021354" lon="9.651237456516467"><ele>204.25</ele><time>2026-05-03T16:06:21.999Z</time></trkpt><trkpt lat="44.87378102263311" lon="9.651099421204803"><ele>204.0</ele><time>2026-05-03T16:06:22.999Z</time></trkpt><trkpt lat="44.87372030910265" lon="9.650988398254494"><ele>204.0</ele><time>2026-05-03T16:06:23.999Z</time></trkpt><trkpt lat="44.87366395289067" lon="9.650872405519637"><ele>204.0</ele><time>2026-05-03T16:06:24.999Z</time></trkpt><trkpt lat="44.873605841306876" lon="9.650751538984444"><ele>204.0</ele><time>2026-05-03T16:06:25.999Z</time></trkpt><trkpt lat="44.873545488945965" lon="9.65062653431252"><ele>204.0</ele><time>2026-05-03T16:06:26.999Z</time></trkpt><trkpt lat="44.87348258136922" lon="9.65050288875843"><ele>204.0</ele><time>2026-05-03T16:06:27.999Z</time></trkpt><trkpt lat="44.8734131428993" lon="9.65037074230745"><ele>204.5</ele><time>2026-05-03T16:06:28.999Z</time></trkpt><trkpt lat="44.87334262947485" lon="9.650239470754698"><ele>205.0</ele><time>2026-05-03T16:06:29.999Z</time></trkpt><trkpt lat="44.87327171789264" lon="9.650102923365626"><ele>205.5</ele><time>2026-05-03T16:06:30.999Z</time></trkpt><trkpt lat="44.87319878728884" lon="9.64995390177436"><ele>206.0</ele><time>2026-05-03T16:06:31.999Z</time></trkpt><trkpt lat="44.87312412298498" lon="9.649793602484358"><ele>206.0</ele><time>2026-05-03T16:06:32.999Z</time></trkpt><trkpt lat="44.87304908121997" lon="9.649643976843134"><ele>206.0</ele><time>2026-05-03T16:06:33.998Z</time></trkpt><trkpt lat="44.872975660751095" lon="9.649507515290312"><ele>206.0</ele><time>2026-05-03T16:06:34.998Z</time></trkpt><trkpt lat="44.87291187884126" lon="9.649394805974623"><ele>206.0</ele><time>2026-05-03T16:06:35.998Z</time></trkpt><trkpt lat="44.87285024221311" lon="9.64930949621426"><ele>206.0</ele><time>2026-05-03T16:06:36.998Z</time></trkpt><trkpt lat="44.87277791423765" lon="9.649245778030116"><ele>205.66666666666669</ele><time>2026-05-03T16:06:37.998Z</time></trkpt><trkpt lat="44.872715715691314" lon="9.649217992185347"><ele>205.33333333333334</ele><time>2026-05-03T16:06:38.998Z</time></trkpt><trkpt lat="44.87265351430501" lon="9.649201131306612"><ele>205.0</ele><time>2026-05-03T16:06:39.998Z</time></trkpt><trkpt lat="44.87253661188547" lon="9.649202373114756"><ele>204.66666666666669</ele><time>2026-05-03T16:06:41.998Z</time></trkpt><trkpt lat="44.87243691475554" lon="9.649226665843962"><ele>204.33333333333334</ele><time>2026-05-03T16:06:43.998Z</time></trkpt><trkpt lat="44.87237465876921" lon="9.649244899945474"><ele>204.0</ele><time>2026-05-03T16:06:45.998Z</time></trkpt><trkpt lat="44.87226750252358" lon="9.64923125468572"><ele>203.83333333333334</ele><time>2026-05-03T16:06:48.998Z</time></trkpt><trkpt lat="44.87219838349567" lon="9.649275258035331"><ele>203.66666666666669</ele><time>2026-05-03T16:06:49.998Z</time></trkpt><trkpt lat="44.872133529407165" lon="9.64930745978562"><ele>203.5</ele><time>2026-05-03T16:06:50.998Z</time></trkpt><trkpt lat="44.87206556650814" lon="9.649329414868893"><ele>203.33333333333334</ele><time>2026-05-03T16:06:51.998Z</time></trkpt><trkpt lat="44.87197319341749" lon="9.649359659413028"><ele>203.16666666666669</ele><time>2026-05-03T16:06:53.998Z</time></trkpt><trkpt lat="44.87206457316346" lon="9.649369185842295"><ele>203.0</ele><time>2026-05-03T16:07:03Z</time></trkpt><trkpt lat="44.87214553788154" lon="9.649325693250542"><ele>203.00000000000003</ele><time>2026-05-03T16:07:04Z</time></trkpt><trkpt lat="44.8722193449292" lon="9.64929687136419"><ele>203.0</ele><time>2026-05-03T16:07:05Z</time></trkpt><trkpt lat="44.87228391483885" lon="9.64928154656996"><ele>203.0</ele><time>2026-05-03T16:07:06Z</time></trkpt><trkpt lat="44.8723765653093" lon="9.649269572563313"><ele>203.0</ele><time>2026-05-03T16:07:08Z</time></trkpt><trkpt lat="44.872432076698985" lon="9.64932304795171"><ele>203.00000000000003</ele><time>2026-05-03T16:07:11Z</time></trkpt><trkpt lat="44.872551679982266" lon="9.649264037217254"><ele>203.0</ele><time>2026-05-03T16:07:31Z</time></trkpt><trkpt lat="44.87262859686654" lon="9.649239820250278"><ele>203.16666666666669</ele><time>2026-05-03T16:07:32Z</time></trkpt><trkpt lat="44.87270984139119" lon="9.649226295843365"><ele>203.33333333333334</ele><time>2026-05-03T16:07:33Z</time></trkpt><trkpt lat="44.872776802019814" lon="9.6492502828088"><ele>203.5</ele><time>2026-05-03T16:07:34Z</time></trkpt><trkpt lat="44.87283188367458" lon="9.649303475484748"><ele>203.66666666666669</ele><time>2026-05-03T16:07:35Z</time></trkpt><trkpt lat="44.872876079803795" lon="9.649368276174158"><ele>203.83333333333334</ele><time>2026-05-03T16:07:35.999Z</time></trkpt><trkpt lat="44.87294906610871" lon="9.649515460041318"><ele>204.0</ele><time>2026-05-03T16:07:37.999Z</time></trkpt><trkpt lat="44.87298390915009" lon="9.649589930538536"><ele>206.0</ele><time>2026-05-03T16:07:38.999Z</time></trkpt><trkpt lat="44.87299165298209" lon="9.649712569709223"><ele>206.0</ele><time>2026-05-03T16:07:40.999Z</time></trkpt><trkpt lat="44.872950348927404" lon="9.649787471776774"><ele>206.0</ele><time>2026-05-03T16:07:41.999Z</time></trkpt><trkpt lat="44.87289039613707" lon="9.649869935231598"><ele>206.0</ele><time>2026-05-03T16:07:42.999Z</time></trkpt><trkpt lat="44.872830002709556" lon="9.649994175447352"><ele>206.0</ele><time>2026-05-03T16:07:44.999Z</time></trkpt><trkpt lat="44.87281751182205" lon="9.650099122072135"><ele>206.0</ele><time>2026-05-03T16:07:47.999Z</time></trkpt></trkseg></trk></gpx>